<?xml version="1.0" encoding="UTF-8" standalone="no" ?>
<gpx xmlns="http://www.topografix.com/GPX/1/1" xmlns:xsi="http://www.w3.org/2001/XMLSchema-instance" xsi:schemaLocation="http://www.topografix.com/GPX/1/1 http://www.topografix.com/GPX/1/1/gpx.xsd" version="1.1" creator="VisuGPX - https://www.visugpx.com">
  <metadata>
    <name>Sospel-Col de Turini-St Martin en Vésubie</name>
  </metadata>
  <trk>
    <name><![CDATA[Saint Martin de Vésubie]]></name>
    <trkseg>
      <trkpt lat="43.88348" lon="7.4258">
        <ele>429</ele>
        <time>2024-07-09T05:38:21Z</time>
      </trkpt>
      <trkpt lat="43.88348" lon="7.4258">
        <ele>429</ele>
        <time>2024-07-09T05:38:22Z</time>
      </trkpt>
      <trkpt lat="43.88348" lon="7.4258">
        <ele>428</ele>
        <time>2024-07-09T05:38:23Z</time>
      </trkpt>
      <trkpt lat="43.88348" lon="7.42584">
        <ele>428</ele>
        <time>2024-07-09T05:38:24Z</time>
      </trkpt>
      <trkpt lat="43.88347" lon="7.42587">
        <ele>428</ele>
        <time>2024-07-09T05:38:25Z</time>
      </trkpt>
      <trkpt lat="43.88348" lon="7.4259">
        <ele>427.4</ele>
        <time>2024-07-09T05:38:26Z</time>
      </trkpt>
      <trkpt lat="43.88348" lon="7.42593">
        <ele>427.2</ele>
        <time>2024-07-09T05:38:27Z</time>
      </trkpt>
      <trkpt lat="43.88348" lon="7.42596">
        <ele>427.2</ele>
        <time>2024-07-09T05:38:28Z</time>
      </trkpt>
      <trkpt lat="43.88348" lon="7.42599">
        <ele>427.2</ele>
        <time>2024-07-09T05:38:29Z</time>
      </trkpt>
      <trkpt lat="43.88348" lon="7.42603">
        <ele>427.2</ele>
        <time>2024-07-09T05:38:30Z</time>
      </trkpt>
      <trkpt lat="43.88349" lon="7.42607">
        <ele>426.2</ele>
        <time>2024-07-09T05:38:31Z</time>
      </trkpt>
      <trkpt lat="43.88349" lon="7.42611">
        <ele>425.8</ele>
        <time>2024-07-09T05:38:32Z</time>
      </trkpt>
      <trkpt lat="43.8835" lon="7.42615">
        <ele>425.8</ele>
        <time>2024-07-09T05:38:33Z</time>
      </trkpt>
      <trkpt lat="43.88352" lon="7.4262">
        <ele>425.8</ele>
        <time>2024-07-09T05:38:34Z</time>
      </trkpt>
      <trkpt lat="43.88353" lon="7.42624">
        <ele>425.8</ele>
        <time>2024-07-09T05:38:35Z</time>
      </trkpt>
      <trkpt lat="43.88352" lon="7.42628">
        <ele>425.8</ele>
        <time>2024-07-09T05:38:36Z</time>
      </trkpt>
      <trkpt lat="43.88352" lon="7.42631">
        <ele>425.6</ele>
        <time>2024-07-09T05:38:37Z</time>
      </trkpt>
      <trkpt lat="43.88353" lon="7.42634">
        <ele>425.6</ele>
        <time>2024-07-09T05:38:38Z</time>
      </trkpt>
      <trkpt lat="43.88354" lon="7.42637">
        <ele>425.6</ele>
        <time>2024-07-09T05:38:39Z</time>
      </trkpt>
      <trkpt lat="43.88355" lon="7.42638">
        <ele>425.6</ele>
        <time>2024-07-09T05:38:40Z</time>
      </trkpt>
      <trkpt lat="43.88356" lon="7.4264">
        <ele>426</ele>
        <time>2024-07-09T05:38:41Z</time>
      </trkpt>
      <trkpt lat="43.88357" lon="7.42641">
        <ele>426</ele>
        <time>2024-07-09T05:38:42Z</time>
      </trkpt>
      <trkpt lat="43.88358" lon="7.42643">
        <ele>426</ele>
        <time>2024-07-09T05:38:43Z</time>
      </trkpt>
      <trkpt lat="43.88359" lon="7.42644">
        <ele>426.8</ele>
        <time>2024-07-09T05:38:44Z</time>
      </trkpt>
      <trkpt lat="43.8836" lon="7.42645">
        <ele>426.8</ele>
        <time>2024-07-09T05:38:45Z</time>
      </trkpt>
      <trkpt lat="43.88361" lon="7.42646">
        <ele>426.8</ele>
        <time>2024-07-09T05:38:46Z</time>
      </trkpt>
      <trkpt lat="43.88362" lon="7.42647">
        <ele>426.8</ele>
        <time>2024-07-09T05:38:47Z</time>
      </trkpt>
      <trkpt lat="43.88363" lon="7.42648">
        <ele>426.8</ele>
        <time>2024-07-09T05:38:48Z</time>
      </trkpt>
      <trkpt lat="43.88364" lon="7.42648">
        <ele>427.4</ele>
        <time>2024-07-09T05:38:49Z</time>
      </trkpt>
      <trkpt lat="43.88365" lon="7.42649">
        <ele>427.4</ele>
        <time>2024-07-09T05:38:50Z</time>
      </trkpt>
      <trkpt lat="43.88366" lon="7.4265">
        <ele>427.4</ele>
        <time>2024-07-09T05:38:51Z</time>
      </trkpt>
      <trkpt lat="43.88368" lon="7.4265">
        <ele>427.4</ele>
        <time>2024-07-09T05:38:52Z</time>
      </trkpt>
      <trkpt lat="43.8837" lon="7.42649">
        <ele>428</ele>
        <time>2024-07-09T05:38:53Z</time>
      </trkpt>
      <trkpt lat="43.88371" lon="7.4265">
        <ele>428</ele>
        <time>2024-07-09T05:38:54Z</time>
      </trkpt>
      <trkpt lat="43.88373" lon="7.4265">
        <ele>428</ele>
        <time>2024-07-09T05:38:55Z</time>
      </trkpt>
      <trkpt lat="43.88374" lon="7.42651">
        <ele>428</ele>
        <time>2024-07-09T05:38:56Z</time>
      </trkpt>
      <trkpt lat="43.88376" lon="7.42651">
        <ele>428</ele>
        <time>2024-07-09T05:38:57Z</time>
      </trkpt>
      <trkpt lat="43.88377" lon="7.42651">
        <ele>428.6</ele>
        <time>2024-07-09T05:38:58Z</time>
      </trkpt>
      <trkpt lat="43.88379" lon="7.42651">
        <ele>428.6</ele>
        <time>2024-07-09T05:38:59Z</time>
      </trkpt>
      <trkpt lat="43.8838" lon="7.42651">
        <ele>428.6</ele>
        <time>2024-07-09T05:39:00Z</time>
      </trkpt>
      <trkpt lat="43.88382" lon="7.4265">
        <ele>428.6</ele>
        <time>2024-07-09T05:39:01Z</time>
      </trkpt>
      <trkpt lat="43.88383" lon="7.42649">
        <ele>428.6</ele>
        <time>2024-07-09T05:39:02Z</time>
      </trkpt>
      <trkpt lat="43.88385" lon="7.42649">
        <ele>429</ele>
        <time>2024-07-09T05:39:03Z</time>
      </trkpt>
      <trkpt lat="43.88386" lon="7.42649">
        <ele>429</ele>
        <time>2024-07-09T05:39:04Z</time>
      </trkpt>
      <trkpt lat="43.88388" lon="7.42648">
        <ele>429</ele>
        <time>2024-07-09T05:39:05Z</time>
      </trkpt>
      <trkpt lat="43.8839" lon="7.42649">
        <ele>428.8</ele>
        <time>2024-07-09T05:39:06Z</time>
      </trkpt>
      <trkpt lat="43.88391" lon="7.4265">
        <ele>428.8</ele>
        <time>2024-07-09T05:39:07Z</time>
      </trkpt>
      <trkpt lat="43.88393" lon="7.42653">
        <ele>428.6</ele>
        <time>2024-07-09T05:39:08Z</time>
      </trkpt>
      <trkpt lat="43.88393" lon="7.42657">
        <ele>428.6</ele>
        <time>2024-07-09T05:39:09Z</time>
      </trkpt>
      <trkpt lat="43.88392" lon="7.4266">
        <ele>428.6</ele>
        <time>2024-07-09T05:39:10Z</time>
      </trkpt>
      <trkpt lat="43.88391" lon="7.42664">
        <ele>427.6</ele>
        <time>2024-07-09T05:39:11Z</time>
      </trkpt>
      <trkpt lat="43.8839" lon="7.42668">
        <ele>427.4</ele>
        <time>2024-07-09T05:39:12Z</time>
      </trkpt>
      <trkpt lat="43.88389" lon="7.42673">
        <ele>427.4</ele>
        <time>2024-07-09T05:39:13Z</time>
      </trkpt>
      <trkpt lat="43.8839" lon="7.42679">
        <ele>427.4</ele>
        <time>2024-07-09T05:39:14Z</time>
      </trkpt>
      <trkpt lat="43.8839" lon="7.42683">
        <ele>427.4</ele>
        <time>2024-07-09T05:39:15Z</time>
      </trkpt>
      <trkpt lat="43.88389" lon="7.42688">
        <ele>426.4</ele>
        <time>2024-07-09T05:39:16Z</time>
      </trkpt>
      <trkpt lat="43.88388" lon="7.42693">
        <ele>425.4</ele>
        <time>2024-07-09T05:39:17Z</time>
      </trkpt>
      <trkpt lat="43.88387" lon="7.42698">
        <ele>425.4</ele>
        <time>2024-07-09T05:39:18Z</time>
      </trkpt>
      <trkpt lat="43.88386" lon="7.42704">
        <ele>425.4</ele>
        <time>2024-07-09T05:39:19Z</time>
      </trkpt>
      <trkpt lat="43.88384" lon="7.4271">
        <ele>424.4</ele>
        <time>2024-07-09T05:39:20Z</time>
      </trkpt>
      <trkpt lat="43.88382" lon="7.42717">
        <ele>423.4</ele>
        <time>2024-07-09T05:39:21Z</time>
      </trkpt>
      <trkpt lat="43.88379" lon="7.42722">
        <ele>423.4</ele>
        <time>2024-07-09T05:39:22Z</time>
      </trkpt>
      <trkpt lat="43.88376" lon="7.42728">
        <ele>423.4</ele>
        <time>2024-07-09T05:39:23Z</time>
      </trkpt>
      <trkpt lat="43.88373" lon="7.42733">
        <ele>422.4</ele>
        <time>2024-07-09T05:39:24Z</time>
      </trkpt>
      <trkpt lat="43.8837" lon="7.42738">
        <ele>421.8</ele>
        <time>2024-07-09T05:39:25Z</time>
      </trkpt>
      <trkpt lat="43.88367" lon="7.42744">
        <ele>421.8</ele>
        <time>2024-07-09T05:39:26Z</time>
      </trkpt>
      <trkpt lat="43.88364" lon="7.4275">
        <ele>421.8</ele>
        <time>2024-07-09T05:39:27Z</time>
      </trkpt>
      <trkpt lat="43.8836" lon="7.42755">
        <ele>421.8</ele>
        <time>2024-07-09T05:39:28Z</time>
      </trkpt>
      <trkpt lat="43.88356" lon="7.42758">
        <ele>420.8</ele>
        <time>2024-07-09T05:39:29Z</time>
      </trkpt>
      <trkpt lat="43.8835" lon="7.42759">
        <ele>419</ele>
        <time>2024-07-09T05:39:30Z</time>
      </trkpt>
      <trkpt lat="43.88345" lon="7.42757">
        <ele>419</ele>
        <time>2024-07-09T05:39:31Z</time>
      </trkpt>
      <trkpt lat="43.8834" lon="7.42754">
        <ele>419</ele>
        <time>2024-07-09T05:39:32Z</time>
      </trkpt>
      <trkpt lat="43.88336" lon="7.42751">
        <ele>419</ele>
        <time>2024-07-09T05:39:33Z</time>
      </trkpt>
      <trkpt lat="43.8833" lon="7.42751">
        <ele>416</ele>
        <time>2024-07-09T05:39:34Z</time>
      </trkpt>
      <trkpt lat="43.88325" lon="7.42754">
        <ele>416</ele>
        <time>2024-07-09T05:39:35Z</time>
      </trkpt>
      <trkpt lat="43.88321" lon="7.42761">
        <ele>416</ele>
        <time>2024-07-09T05:39:36Z</time>
      </trkpt>
      <trkpt lat="43.88317" lon="7.42769">
        <ele>416</ele>
        <time>2024-07-09T05:39:37Z</time>
      </trkpt>
      <trkpt lat="43.88313" lon="7.42776">
        <ele>415</ele>
        <time>2024-07-09T05:39:38Z</time>
      </trkpt>
      <trkpt lat="43.8831" lon="7.42784">
        <ele>413.2</ele>
        <time>2024-07-09T05:39:39Z</time>
      </trkpt>
      <trkpt lat="43.88308" lon="7.42791">
        <ele>413.2</ele>
        <time>2024-07-09T05:39:40Z</time>
      </trkpt>
      <trkpt lat="43.88307" lon="7.428">
        <ele>413.2</ele>
        <time>2024-07-09T05:39:41Z</time>
      </trkpt>
      <trkpt lat="43.88309" lon="7.42806">
        <ele>412.2</ele>
        <time>2024-07-09T05:39:42Z</time>
      </trkpt>
      <trkpt lat="43.88313" lon="7.42811">
        <ele>410.8</ele>
        <time>2024-07-09T05:39:43Z</time>
      </trkpt>
      <trkpt lat="43.88319" lon="7.42816">
        <ele>410.8</ele>
        <time>2024-07-09T05:39:44Z</time>
      </trkpt>
      <trkpt lat="43.88324" lon="7.42822">
        <ele>410.8</ele>
        <time>2024-07-09T05:39:45Z</time>
      </trkpt>
      <trkpt lat="43.88328" lon="7.42829">
        <ele>409.8</ele>
        <time>2024-07-09T05:39:46Z</time>
      </trkpt>
      <trkpt lat="43.88333" lon="7.42837">
        <ele>409.8</ele>
        <time>2024-07-09T05:39:47Z</time>
      </trkpt>
      <trkpt lat="43.88337" lon="7.42845">
        <ele>408.8</ele>
        <time>2024-07-09T05:39:48Z</time>
      </trkpt>
      <trkpt lat="43.88341" lon="7.42853">
        <ele>408.8</ele>
        <time>2024-07-09T05:39:49Z</time>
      </trkpt>
      <trkpt lat="43.88346" lon="7.42861">
        <ele>408.8</ele>
        <time>2024-07-09T05:39:50Z</time>
      </trkpt>
      <trkpt lat="43.8835" lon="7.4287">
        <ele>407.8</ele>
        <time>2024-07-09T05:39:51Z</time>
      </trkpt>
      <trkpt lat="43.88353" lon="7.42878">
        <ele>407</ele>
        <time>2024-07-09T05:39:52Z</time>
      </trkpt>
      <trkpt lat="43.88356" lon="7.42887">
        <ele>407</ele>
        <time>2024-07-09T05:39:53Z</time>
      </trkpt>
      <trkpt lat="43.88358" lon="7.42896">
        <ele>407</ele>
        <time>2024-07-09T05:39:54Z</time>
      </trkpt>
      <trkpt lat="43.8836" lon="7.42905">
        <ele>406</ele>
        <time>2024-07-09T05:39:55Z</time>
      </trkpt>
      <trkpt lat="43.8836" lon="7.42915">
        <ele>404.6</ele>
        <time>2024-07-09T05:39:56Z</time>
      </trkpt>
      <trkpt lat="43.88359" lon="7.42925">
        <ele>404.6</ele>
        <time>2024-07-09T05:39:57Z</time>
      </trkpt>
      <trkpt lat="43.88358" lon="7.42934">
        <ele>404.6</ele>
        <time>2024-07-09T05:39:58Z</time>
      </trkpt>
      <trkpt lat="43.88357" lon="7.42942">
        <ele>404.6</ele>
        <time>2024-07-09T05:39:59Z</time>
      </trkpt>
      <trkpt lat="43.88357" lon="7.4295">
        <ele>404.6</ele>
        <time>2024-07-09T05:40:00Z</time>
      </trkpt>
      <trkpt lat="43.88356" lon="7.42958">
        <ele>403.6</ele>
        <time>2024-07-09T05:40:01Z</time>
      </trkpt>
      <trkpt lat="43.88356" lon="7.42965">
        <ele>402.2</ele>
        <time>2024-07-09T05:40:02Z</time>
      </trkpt>
      <trkpt lat="43.88356" lon="7.42971">
        <ele>402.2</ele>
        <time>2024-07-09T05:40:03Z</time>
      </trkpt>
      <trkpt lat="43.88356" lon="7.42977">
        <ele>402.2</ele>
        <time>2024-07-09T05:40:04Z</time>
      </trkpt>
      <trkpt lat="43.88355" lon="7.42981">
        <ele>402.2</ele>
        <time>2024-07-09T05:40:05Z</time>
      </trkpt>
      <trkpt lat="43.88354" lon="7.42985">
        <ele>401.2</ele>
        <time>2024-07-09T05:40:06Z</time>
      </trkpt>
      <trkpt lat="43.88354" lon="7.42987">
        <ele>401.2</ele>
        <time>2024-07-09T05:40:07Z</time>
      </trkpt>
      <trkpt lat="43.88353" lon="7.4299">
        <ele>401.2</ele>
        <time>2024-07-09T05:40:08Z</time>
      </trkpt>
      <trkpt lat="43.88353" lon="7.42992">
        <ele>400.6</ele>
        <time>2024-07-09T05:40:09Z</time>
      </trkpt>
      <trkpt lat="43.88354" lon="7.42994">
        <ele>400.4</ele>
        <time>2024-07-09T05:40:10Z</time>
      </trkpt>
      <trkpt lat="43.88355" lon="7.42996">
        <ele>400.4</ele>
        <time>2024-07-09T05:40:11Z</time>
      </trkpt>
      <trkpt lat="43.88356" lon="7.42997">
        <ele>400.4</ele>
        <time>2024-07-09T05:40:12Z</time>
      </trkpt>
      <trkpt lat="43.88358" lon="7.42998">
        <ele>400.4</ele>
        <time>2024-07-09T05:40:13Z</time>
      </trkpt>
      <trkpt lat="43.8836" lon="7.42998">
        <ele>400.2</ele>
        <time>2024-07-09T05:40:14Z</time>
      </trkpt>
      <trkpt lat="43.88363" lon="7.42997">
        <ele>400.2</ele>
        <time>2024-07-09T05:40:15Z</time>
      </trkpt>
      <trkpt lat="43.88365" lon="7.42995">
        <ele>400.2</ele>
        <time>2024-07-09T05:40:16Z</time>
      </trkpt>
      <trkpt lat="43.88367" lon="7.42994">
        <ele>400.2</ele>
        <time>2024-07-09T05:40:17Z</time>
      </trkpt>
      <trkpt lat="43.88369" lon="7.42992">
        <ele>400.2</ele>
        <time>2024-07-09T05:40:18Z</time>
      </trkpt>
      <trkpt lat="43.88372" lon="7.4299">
        <ele>400.4</ele>
        <time>2024-07-09T05:40:19Z</time>
      </trkpt>
      <trkpt lat="43.88374" lon="7.42988">
        <ele>400.4</ele>
        <time>2024-07-09T05:40:20Z</time>
      </trkpt>
      <trkpt lat="43.88377" lon="7.42985">
        <ele>400.4</ele>
        <time>2024-07-09T05:40:21Z</time>
      </trkpt>
      <trkpt lat="43.88379" lon="7.42983">
        <ele>400.4</ele>
        <time>2024-07-09T05:40:22Z</time>
      </trkpt>
      <trkpt lat="43.88381" lon="7.4298">
        <ele>400.8</ele>
        <time>2024-07-09T05:40:23Z</time>
      </trkpt>
      <trkpt lat="43.88384" lon="7.42977">
        <ele>400.8</ele>
        <time>2024-07-09T05:40:24Z</time>
      </trkpt>
      <trkpt lat="43.88386" lon="7.42974">
        <ele>400.8</ele>
        <time>2024-07-09T05:40:25Z</time>
      </trkpt>
      <trkpt lat="43.88388" lon="7.42971">
        <ele>400.8</ele>
        <time>2024-07-09T05:40:26Z</time>
      </trkpt>
      <trkpt lat="43.88391" lon="7.42968">
        <ele>401</ele>
        <time>2024-07-09T05:40:27Z</time>
      </trkpt>
      <trkpt lat="43.88393" lon="7.42965">
        <ele>401</ele>
        <time>2024-07-09T05:40:28Z</time>
      </trkpt>
      <trkpt lat="43.88395" lon="7.42962">
        <ele>401</ele>
        <time>2024-07-09T05:40:29Z</time>
      </trkpt>
      <trkpt lat="43.88398" lon="7.42959">
        <ele>401</ele>
        <time>2024-07-09T05:40:30Z</time>
      </trkpt>
      <trkpt lat="43.884" lon="7.42956">
        <ele>401</ele>
        <time>2024-07-09T05:40:31Z</time>
      </trkpt>
      <trkpt lat="43.88402" lon="7.42953">
        <ele>401.2</ele>
        <time>2024-07-09T05:40:32Z</time>
      </trkpt>
      <trkpt lat="43.88405" lon="7.4295">
        <ele>401.2</ele>
        <time>2024-07-09T05:40:33Z</time>
      </trkpt>
      <trkpt lat="43.88407" lon="7.42947">
        <ele>401.2</ele>
        <time>2024-07-09T05:40:34Z</time>
      </trkpt>
      <trkpt lat="43.88409" lon="7.42943">
        <ele>401.2</ele>
        <time>2024-07-09T05:40:35Z</time>
      </trkpt>
      <trkpt lat="43.88411" lon="7.4294">
        <ele>401.6</ele>
        <time>2024-07-09T05:40:36Z</time>
      </trkpt>
      <trkpt lat="43.88413" lon="7.42937">
        <ele>401.6</ele>
        <time>2024-07-09T05:40:37Z</time>
      </trkpt>
      <trkpt lat="43.88415" lon="7.42934">
        <ele>401.6</ele>
        <time>2024-07-09T05:40:38Z</time>
      </trkpt>
      <trkpt lat="43.88417" lon="7.42931">
        <ele>401.6</ele>
        <time>2024-07-09T05:40:39Z</time>
      </trkpt>
      <trkpt lat="43.8842" lon="7.42927">
        <ele>401.6</ele>
        <time>2024-07-09T05:40:40Z</time>
      </trkpt>
      <trkpt lat="43.88423" lon="7.42925">
        <ele>401.6</ele>
        <time>2024-07-09T05:40:41Z</time>
      </trkpt>
      <trkpt lat="43.88426" lon="7.42924">
        <ele>402</ele>
        <time>2024-07-09T05:40:42Z</time>
      </trkpt>
      <trkpt lat="43.88429" lon="7.42923">
        <ele>402</ele>
        <time>2024-07-09T05:40:43Z</time>
      </trkpt>
      <trkpt lat="43.88432" lon="7.42923">
        <ele>402</ele>
        <time>2024-07-09T05:40:44Z</time>
      </trkpt>
      <trkpt lat="43.88435" lon="7.42923">
        <ele>402</ele>
        <time>2024-07-09T05:40:45Z</time>
      </trkpt>
      <trkpt lat="43.88438" lon="7.42924">
        <ele>402.4</ele>
        <time>2024-07-09T05:40:46Z</time>
      </trkpt>
      <trkpt lat="43.88441" lon="7.42925">
        <ele>402.4</ele>
        <time>2024-07-09T05:40:47Z</time>
      </trkpt>
      <trkpt lat="43.88444" lon="7.42927">
        <ele>402.4</ele>
        <time>2024-07-09T05:40:48Z</time>
      </trkpt>
      <trkpt lat="43.88446" lon="7.4293">
        <ele>402.4</ele>
        <time>2024-07-09T05:40:49Z</time>
      </trkpt>
      <trkpt lat="43.88449" lon="7.42932">
        <ele>403</ele>
        <time>2024-07-09T05:40:50Z</time>
      </trkpt>
      <trkpt lat="43.88451" lon="7.42935">
        <ele>402.8</ele>
        <time>2024-07-09T05:40:51Z</time>
      </trkpt>
      <trkpt lat="43.88453" lon="7.42937">
        <ele>402.8</ele>
        <time>2024-07-09T05:40:52Z</time>
      </trkpt>
      <trkpt lat="43.88456" lon="7.4294">
        <ele>402.8</ele>
        <time>2024-07-09T05:40:53Z</time>
      </trkpt>
      <trkpt lat="43.88459" lon="7.42942">
        <ele>403.2</ele>
        <time>2024-07-09T05:40:54Z</time>
      </trkpt>
      <trkpt lat="43.88461" lon="7.42944">
        <ele>403.6</ele>
        <time>2024-07-09T05:40:55Z</time>
      </trkpt>
      <trkpt lat="43.88463" lon="7.42947">
        <ele>403.6</ele>
        <time>2024-07-09T05:40:56Z</time>
      </trkpt>
      <trkpt lat="43.88466" lon="7.42949">
        <ele>403.6</ele>
        <time>2024-07-09T05:40:57Z</time>
      </trkpt>
      <trkpt lat="43.88468" lon="7.42951">
        <ele>403.6</ele>
        <time>2024-07-09T05:40:58Z</time>
      </trkpt>
      <trkpt lat="43.8847" lon="7.42953">
        <ele>404</ele>
        <time>2024-07-09T05:40:59Z</time>
      </trkpt>
      <trkpt lat="43.88473" lon="7.42954">
        <ele>404</ele>
        <time>2024-07-09T05:41:00Z</time>
      </trkpt>
      <trkpt lat="43.88475" lon="7.42955">
        <ele>404</ele>
        <time>2024-07-09T05:41:01Z</time>
      </trkpt>
      <trkpt lat="43.88478" lon="7.42956">
        <ele>404.4</ele>
        <time>2024-07-09T05:41:02Z</time>
      </trkpt>
      <trkpt lat="43.8848" lon="7.42957">
        <ele>404.6</ele>
        <time>2024-07-09T05:41:03Z</time>
      </trkpt>
      <trkpt lat="43.88483" lon="7.42958">
        <ele>404.6</ele>
        <time>2024-07-09T05:41:04Z</time>
      </trkpt>
      <trkpt lat="43.88486" lon="7.42958">
        <ele>404.6</ele>
        <time>2024-07-09T05:41:05Z</time>
      </trkpt>
      <trkpt lat="43.88489" lon="7.42959">
        <ele>404.6</ele>
        <time>2024-07-09T05:41:06Z</time>
      </trkpt>
      <trkpt lat="43.88491" lon="7.42958">
        <ele>404.8</ele>
        <time>2024-07-09T05:41:07Z</time>
      </trkpt>
      <trkpt lat="43.88494" lon="7.42958">
        <ele>405</ele>
        <time>2024-07-09T05:41:08Z</time>
      </trkpt>
      <trkpt lat="43.88496" lon="7.42958">
        <ele>405</ele>
        <time>2024-07-09T05:41:09Z</time>
      </trkpt>
      <trkpt lat="43.88499" lon="7.42957">
        <ele>405</ele>
        <time>2024-07-09T05:41:10Z</time>
      </trkpt>
      <trkpt lat="43.88502" lon="7.42956">
        <ele>405.2</ele>
        <time>2024-07-09T05:41:11Z</time>
      </trkpt>
      <trkpt lat="43.88504" lon="7.42955">
        <ele>405.2</ele>
        <time>2024-07-09T05:41:12Z</time>
      </trkpt>
      <trkpt lat="43.88507" lon="7.42954">
        <ele>405.4</ele>
        <time>2024-07-09T05:41:13Z</time>
      </trkpt>
      <trkpt lat="43.88509" lon="7.42953">
        <ele>405.4</ele>
        <time>2024-07-09T05:41:14Z</time>
      </trkpt>
      <trkpt lat="43.88512" lon="7.42951">
        <ele>405.6</ele>
        <time>2024-07-09T05:41:15Z</time>
      </trkpt>
      <trkpt lat="43.88515" lon="7.4295">
        <ele>405.6</ele>
        <time>2024-07-09T05:41:16Z</time>
      </trkpt>
      <trkpt lat="43.88517" lon="7.42948">
        <ele>405.6</ele>
        <time>2024-07-09T05:41:17Z</time>
      </trkpt>
      <trkpt lat="43.88519" lon="7.42946">
        <ele>405.6</ele>
        <time>2024-07-09T05:41:18Z</time>
      </trkpt>
      <trkpt lat="43.88521" lon="7.42943">
        <ele>405.6</ele>
        <time>2024-07-09T05:41:19Z</time>
      </trkpt>
      <trkpt lat="43.88523" lon="7.42941">
        <ele>406</ele>
        <time>2024-07-09T05:41:20Z</time>
      </trkpt>
      <trkpt lat="43.88525" lon="7.42938">
        <ele>406</ele>
        <time>2024-07-09T05:41:21Z</time>
      </trkpt>
      <trkpt lat="43.88527" lon="7.42936">
        <ele>406</ele>
        <time>2024-07-09T05:41:22Z</time>
      </trkpt>
      <trkpt lat="43.88529" lon="7.42934">
        <ele>406</ele>
        <time>2024-07-09T05:41:23Z</time>
      </trkpt>
      <trkpt lat="43.88531" lon="7.42931">
        <ele>406</ele>
        <time>2024-07-09T05:41:24Z</time>
      </trkpt>
      <trkpt lat="43.88533" lon="7.42929">
        <ele>406.8</ele>
        <time>2024-07-09T05:41:25Z</time>
      </trkpt>
      <trkpt lat="43.88535" lon="7.42927">
        <ele>406.8</ele>
        <time>2024-07-09T05:41:26Z</time>
      </trkpt>
      <trkpt lat="43.88536" lon="7.42925">
        <ele>406.8</ele>
        <time>2024-07-09T05:41:27Z</time>
      </trkpt>
      <trkpt lat="43.88538" lon="7.42923">
        <ele>406.8</ele>
        <time>2024-07-09T05:41:28Z</time>
      </trkpt>
      <trkpt lat="43.8854" lon="7.42921">
        <ele>407.2</ele>
        <time>2024-07-09T05:41:29Z</time>
      </trkpt>
      <trkpt lat="43.88542" lon="7.42919">
        <ele>407.2</ele>
        <time>2024-07-09T05:41:30Z</time>
      </trkpt>
      <trkpt lat="43.88543" lon="7.42916">
        <ele>407.4</ele>
        <time>2024-07-09T05:41:31Z</time>
      </trkpt>
      <trkpt lat="43.88545" lon="7.42914">
        <ele>407.4</ele>
        <time>2024-07-09T05:41:32Z</time>
      </trkpt>
      <trkpt lat="43.88547" lon="7.42911">
        <ele>407.4</ele>
        <time>2024-07-09T05:41:33Z</time>
      </trkpt>
      <trkpt lat="43.88549" lon="7.42909">
        <ele>407.6</ele>
        <time>2024-07-09T05:41:34Z</time>
      </trkpt>
      <trkpt lat="43.8855" lon="7.42906">
        <ele>407.8</ele>
        <time>2024-07-09T05:41:35Z</time>
      </trkpt>
      <trkpt lat="43.88552" lon="7.42904">
        <ele>407.8</ele>
        <time>2024-07-09T05:41:36Z</time>
      </trkpt>
      <trkpt lat="43.88554" lon="7.42902">
        <ele>407.8</ele>
        <time>2024-07-09T05:41:37Z</time>
      </trkpt>
      <trkpt lat="43.88557" lon="7.429">
        <ele>407.8</ele>
        <time>2024-07-09T05:41:38Z</time>
      </trkpt>
      <trkpt lat="43.88559" lon="7.42898">
        <ele>408.6</ele>
        <time>2024-07-09T05:41:39Z</time>
      </trkpt>
      <trkpt lat="43.8856" lon="7.42895">
        <ele>408.6</ele>
        <time>2024-07-09T05:41:40Z</time>
      </trkpt>
      <trkpt lat="43.88562" lon="7.42893">
        <ele>408.6</ele>
        <time>2024-07-09T05:41:41Z</time>
      </trkpt>
      <trkpt lat="43.88564" lon="7.42891">
        <ele>408.6</ele>
        <time>2024-07-09T05:41:42Z</time>
      </trkpt>
      <trkpt lat="43.88567" lon="7.42889">
        <ele>408.8</ele>
        <time>2024-07-09T05:41:43Z</time>
      </trkpt>
      <trkpt lat="43.88569" lon="7.42887">
        <ele>408.8</ele>
        <time>2024-07-09T05:41:44Z</time>
      </trkpt>
      <trkpt lat="43.88572" lon="7.42886">
        <ele>408.8</ele>
        <time>2024-07-09T05:41:45Z</time>
      </trkpt>
      <trkpt lat="43.88575" lon="7.42884">
        <ele>408.8</ele>
        <time>2024-07-09T05:41:46Z</time>
      </trkpt>
      <trkpt lat="43.88578" lon="7.42882">
        <ele>409.2</ele>
        <time>2024-07-09T05:41:47Z</time>
      </trkpt>
      <trkpt lat="43.8858" lon="7.4288">
        <ele>409.2</ele>
        <time>2024-07-09T05:41:48Z</time>
      </trkpt>
      <trkpt lat="43.88583" lon="7.42879">
        <ele>409.2</ele>
        <time>2024-07-09T05:41:49Z</time>
      </trkpt>
      <trkpt lat="43.88586" lon="7.42877">
        <ele>409.2</ele>
        <time>2024-07-09T05:41:50Z</time>
      </trkpt>
      <trkpt lat="43.88589" lon="7.42875">
        <ele>409.4</ele>
        <time>2024-07-09T05:41:51Z</time>
      </trkpt>
      <trkpt lat="43.88593" lon="7.42873">
        <ele>409.4</ele>
        <time>2024-07-09T05:41:52Z</time>
      </trkpt>
      <trkpt lat="43.88596" lon="7.42872">
        <ele>409.4</ele>
        <time>2024-07-09T05:41:53Z</time>
      </trkpt>
      <trkpt lat="43.88599" lon="7.42871">
        <ele>409.4</ele>
        <time>2024-07-09T05:41:54Z</time>
      </trkpt>
      <trkpt lat="43.88602" lon="7.4287">
        <ele>409.4</ele>
        <time>2024-07-09T05:41:55Z</time>
      </trkpt>
      <trkpt lat="43.88605" lon="7.42868">
        <ele>409.4</ele>
        <time>2024-07-09T05:41:56Z</time>
      </trkpt>
      <trkpt lat="43.88608" lon="7.42867">
        <ele>409.4</ele>
        <time>2024-07-09T05:41:57Z</time>
      </trkpt>
      <trkpt lat="43.88611" lon="7.42865">
        <ele>409.4</ele>
        <time>2024-07-09T05:41:58Z</time>
      </trkpt>
      <trkpt lat="43.88615" lon="7.42863">
        <ele>409.4</ele>
        <time>2024-07-09T05:41:59Z</time>
      </trkpt>
      <trkpt lat="43.88618" lon="7.42862">
        <ele>409.4</ele>
        <time>2024-07-09T05:42:00Z</time>
      </trkpt>
      <trkpt lat="43.88621" lon="7.42861">
        <ele>409.4</ele>
        <time>2024-07-09T05:42:01Z</time>
      </trkpt>
      <trkpt lat="43.88624" lon="7.4286">
        <ele>409.4</ele>
        <time>2024-07-09T05:42:02Z</time>
      </trkpt>
      <trkpt lat="43.88627" lon="7.42859">
        <ele>409.4</ele>
        <time>2024-07-09T05:42:03Z</time>
      </trkpt>
      <trkpt lat="43.88631" lon="7.42857">
        <ele>409.6</ele>
        <time>2024-07-09T05:42:04Z</time>
      </trkpt>
      <trkpt lat="43.88634" lon="7.42856">
        <ele>409.6</ele>
        <time>2024-07-09T05:42:05Z</time>
      </trkpt>
      <trkpt lat="43.88637" lon="7.42854">
        <ele>409.6</ele>
        <time>2024-07-09T05:42:06Z</time>
      </trkpt>
      <trkpt lat="43.8864" lon="7.42853">
        <ele>409.8</ele>
        <time>2024-07-09T05:42:07Z</time>
      </trkpt>
      <trkpt lat="43.88644" lon="7.42851">
        <ele>409.8</ele>
        <time>2024-07-09T05:42:08Z</time>
      </trkpt>
      <trkpt lat="43.88647" lon="7.42849">
        <ele>409.8</ele>
        <time>2024-07-09T05:42:09Z</time>
      </trkpt>
      <trkpt lat="43.8865" lon="7.42847">
        <ele>409.8</ele>
        <time>2024-07-09T05:42:10Z</time>
      </trkpt>
      <trkpt lat="43.88653" lon="7.42845">
        <ele>409.8</ele>
        <time>2024-07-09T05:42:11Z</time>
      </trkpt>
      <trkpt lat="43.88657" lon="7.42843">
        <ele>409.8</ele>
        <time>2024-07-09T05:42:12Z</time>
      </trkpt>
      <trkpt lat="43.8866" lon="7.42841">
        <ele>409.8</ele>
        <time>2024-07-09T05:42:13Z</time>
      </trkpt>
      <trkpt lat="43.88664" lon="7.42839">
        <ele>409.8</ele>
        <time>2024-07-09T05:42:14Z</time>
      </trkpt>
      <trkpt lat="43.88667" lon="7.42836">
        <ele>409.8</ele>
        <time>2024-07-09T05:42:15Z</time>
      </trkpt>
      <trkpt lat="43.88671" lon="7.42834">
        <ele>410</ele>
        <time>2024-07-09T05:42:16Z</time>
      </trkpt>
      <trkpt lat="43.88675" lon="7.42831">
        <ele>410</ele>
        <time>2024-07-09T05:42:17Z</time>
      </trkpt>
      <trkpt lat="43.88678" lon="7.42828">
        <ele>410</ele>
        <time>2024-07-09T05:42:18Z</time>
      </trkpt>
      <trkpt lat="43.88682" lon="7.42826">
        <ele>410.2</ele>
        <time>2024-07-09T05:42:19Z</time>
      </trkpt>
      <trkpt lat="43.88685" lon="7.42823">
        <ele>410</ele>
        <time>2024-07-09T05:42:20Z</time>
      </trkpt>
      <trkpt lat="43.88689" lon="7.4282">
        <ele>410</ele>
        <time>2024-07-09T05:42:21Z</time>
      </trkpt>
      <trkpt lat="43.88693" lon="7.42818">
        <ele>410</ele>
        <time>2024-07-09T05:42:22Z</time>
      </trkpt>
      <trkpt lat="43.88696" lon="7.42815">
        <ele>410</ele>
        <time>2024-07-09T05:42:23Z</time>
      </trkpt>
      <trkpt lat="43.887" lon="7.42813">
        <ele>410</ele>
        <time>2024-07-09T05:42:24Z</time>
      </trkpt>
      <trkpt lat="43.88703" lon="7.42811">
        <ele>410.2</ele>
        <time>2024-07-09T05:42:25Z</time>
      </trkpt>
      <trkpt lat="43.88707" lon="7.42808">
        <ele>410.2</ele>
        <time>2024-07-09T05:42:26Z</time>
      </trkpt>
      <trkpt lat="43.8871" lon="7.42806">
        <ele>410.2</ele>
        <time>2024-07-09T05:42:27Z</time>
      </trkpt>
      <trkpt lat="43.88714" lon="7.42804">
        <ele>410.2</ele>
        <time>2024-07-09T05:42:28Z</time>
      </trkpt>
      <trkpt lat="43.88717" lon="7.42801">
        <ele>410.2</ele>
        <time>2024-07-09T05:42:29Z</time>
      </trkpt>
      <trkpt lat="43.8872" lon="7.42798">
        <ele>410.2</ele>
        <time>2024-07-09T05:42:30Z</time>
      </trkpt>
      <trkpt lat="43.88724" lon="7.42795">
        <ele>410.2</ele>
        <time>2024-07-09T05:42:31Z</time>
      </trkpt>
      <trkpt lat="43.88726" lon="7.42791">
        <ele>410.6</ele>
        <time>2024-07-09T05:42:32Z</time>
      </trkpt>
      <trkpt lat="43.88729" lon="7.42787">
        <ele>410.6</ele>
        <time>2024-07-09T05:42:33Z</time>
      </trkpt>
      <trkpt lat="43.88731" lon="7.42783">
        <ele>410.6</ele>
        <time>2024-07-09T05:42:34Z</time>
      </trkpt>
      <trkpt lat="43.88734" lon="7.42779">
        <ele>410.6</ele>
        <time>2024-07-09T05:42:35Z</time>
      </trkpt>
      <trkpt lat="43.88736" lon="7.42774">
        <ele>410.8</ele>
        <time>2024-07-09T05:42:36Z</time>
      </trkpt>
      <trkpt lat="43.88738" lon="7.42769">
        <ele>410.8</ele>
        <time>2024-07-09T05:42:37Z</time>
      </trkpt>
      <trkpt lat="43.8874" lon="7.42765">
        <ele>411</ele>
        <time>2024-07-09T05:42:38Z</time>
      </trkpt>
      <trkpt lat="43.88742" lon="7.4276">
        <ele>411</ele>
        <time>2024-07-09T05:42:39Z</time>
      </trkpt>
      <trkpt lat="43.88744" lon="7.42756">
        <ele>411</ele>
        <time>2024-07-09T05:42:40Z</time>
      </trkpt>
      <trkpt lat="43.88746" lon="7.42752">
        <ele>411</ele>
        <time>2024-07-09T05:42:41Z</time>
      </trkpt>
      <trkpt lat="43.88747" lon="7.42747">
        <ele>411.2</ele>
        <time>2024-07-09T05:42:42Z</time>
      </trkpt>
      <trkpt lat="43.88749" lon="7.42742">
        <ele>411.2</ele>
        <time>2024-07-09T05:42:43Z</time>
      </trkpt>
      <trkpt lat="43.88751" lon="7.42738">
        <ele>411.2</ele>
        <time>2024-07-09T05:42:44Z</time>
      </trkpt>
      <trkpt lat="43.88754" lon="7.42733">
        <ele>411.4</ele>
        <time>2024-07-09T05:42:45Z</time>
      </trkpt>
      <trkpt lat="43.88756" lon="7.42728">
        <ele>411.6</ele>
        <time>2024-07-09T05:42:46Z</time>
      </trkpt>
      <trkpt lat="43.88758" lon="7.42724">
        <ele>411.6</ele>
        <time>2024-07-09T05:42:47Z</time>
      </trkpt>
      <trkpt lat="43.8876" lon="7.42719">
        <ele>411.6</ele>
        <time>2024-07-09T05:42:48Z</time>
      </trkpt>
      <trkpt lat="43.88762" lon="7.42714">
        <ele>411.6</ele>
        <time>2024-07-09T05:42:49Z</time>
      </trkpt>
      <trkpt lat="43.88764" lon="7.42709">
        <ele>411.4</ele>
        <time>2024-07-09T05:42:50Z</time>
      </trkpt>
      <trkpt lat="43.88766" lon="7.42705">
        <ele>411.6</ele>
        <time>2024-07-09T05:42:51Z</time>
      </trkpt>
      <trkpt lat="43.88768" lon="7.427">
        <ele>411.6</ele>
        <time>2024-07-09T05:42:52Z</time>
      </trkpt>
      <trkpt lat="43.8877" lon="7.42696">
        <ele>411.6</ele>
        <time>2024-07-09T05:42:53Z</time>
      </trkpt>
      <trkpt lat="43.88772" lon="7.42691">
        <ele>411.8</ele>
        <time>2024-07-09T05:42:54Z</time>
      </trkpt>
      <trkpt lat="43.88774" lon="7.42687">
        <ele>411.8</ele>
        <time>2024-07-09T05:42:55Z</time>
      </trkpt>
      <trkpt lat="43.88776" lon="7.42682">
        <ele>411.8</ele>
        <time>2024-07-09T05:42:56Z</time>
      </trkpt>
      <trkpt lat="43.88778" lon="7.42678">
        <ele>411.8</ele>
        <time>2024-07-09T05:42:57Z</time>
      </trkpt>
      <trkpt lat="43.8878" lon="7.42673">
        <ele>411.8</ele>
        <time>2024-07-09T05:42:58Z</time>
      </trkpt>
      <trkpt lat="43.88783" lon="7.42669">
        <ele>411.8</ele>
        <time>2024-07-09T05:42:59Z</time>
      </trkpt>
      <trkpt lat="43.88785" lon="7.42665">
        <ele>411.8</ele>
        <time>2024-07-09T05:43:00Z</time>
      </trkpt>
      <trkpt lat="43.88788" lon="7.42661">
        <ele>411.8</ele>
        <time>2024-07-09T05:43:01Z</time>
      </trkpt>
      <trkpt lat="43.88791" lon="7.42656">
        <ele>411.8</ele>
        <time>2024-07-09T05:43:02Z</time>
      </trkpt>
      <trkpt lat="43.88793" lon="7.42652">
        <ele>411.8</ele>
        <time>2024-07-09T05:43:03Z</time>
      </trkpt>
      <trkpt lat="43.88796" lon="7.42648">
        <ele>412</ele>
        <time>2024-07-09T05:43:04Z</time>
      </trkpt>
      <trkpt lat="43.88799" lon="7.42643">
        <ele>412</ele>
        <time>2024-07-09T05:43:05Z</time>
      </trkpt>
      <trkpt lat="43.88801" lon="7.42639">
        <ele>412</ele>
        <time>2024-07-09T05:43:06Z</time>
      </trkpt>
      <trkpt lat="43.88804" lon="7.42634">
        <ele>412</ele>
        <time>2024-07-09T05:43:07Z</time>
      </trkpt>
      <trkpt lat="43.88806" lon="7.42629">
        <ele>412.2</ele>
        <time>2024-07-09T05:43:08Z</time>
      </trkpt>
      <trkpt lat="43.88808" lon="7.42624">
        <ele>412.2</ele>
        <time>2024-07-09T05:43:09Z</time>
      </trkpt>
      <trkpt lat="43.88811" lon="7.4262">
        <ele>412.2</ele>
        <time>2024-07-09T05:43:10Z</time>
      </trkpt>
      <trkpt lat="43.88813" lon="7.42615">
        <ele>412.4</ele>
        <time>2024-07-09T05:43:11Z</time>
      </trkpt>
      <trkpt lat="43.88815" lon="7.4261">
        <ele>412.4</ele>
        <time>2024-07-09T05:43:12Z</time>
      </trkpt>
      <trkpt lat="43.88818" lon="7.42606">
        <ele>412.4</ele>
        <time>2024-07-09T05:43:13Z</time>
      </trkpt>
      <trkpt lat="43.8882" lon="7.42601">
        <ele>412.4</ele>
        <time>2024-07-09T05:43:14Z</time>
      </trkpt>
      <trkpt lat="43.88822" lon="7.42596">
        <ele>412.4</ele>
        <time>2024-07-09T05:43:15Z</time>
      </trkpt>
      <trkpt lat="43.88825" lon="7.42592">
        <ele>412.4</ele>
        <time>2024-07-09T05:43:16Z</time>
      </trkpt>
      <trkpt lat="43.88827" lon="7.42587">
        <ele>412.8</ele>
        <time>2024-07-09T05:43:17Z</time>
      </trkpt>
      <trkpt lat="43.8883" lon="7.42582">
        <ele>412.8</ele>
        <time>2024-07-09T05:43:18Z</time>
      </trkpt>
      <trkpt lat="43.88832" lon="7.42577">
        <ele>412.8</ele>
        <time>2024-07-09T05:43:19Z</time>
      </trkpt>
      <trkpt lat="43.88835" lon="7.42573">
        <ele>412.8</ele>
        <time>2024-07-09T05:43:20Z</time>
      </trkpt>
      <trkpt lat="43.88837" lon="7.42568">
        <ele>412.8</ele>
        <time>2024-07-09T05:43:21Z</time>
      </trkpt>
      <trkpt lat="43.88839" lon="7.42563">
        <ele>412.6</ele>
        <time>2024-07-09T05:43:22Z</time>
      </trkpt>
      <trkpt lat="43.88842" lon="7.42558">
        <ele>412.6</ele>
        <time>2024-07-09T05:43:23Z</time>
      </trkpt>
      <trkpt lat="43.88844" lon="7.42553">
        <ele>412.6</ele>
        <time>2024-07-09T05:43:24Z</time>
      </trkpt>
      <trkpt lat="43.88846" lon="7.42548">
        <ele>412.6</ele>
        <time>2024-07-09T05:43:25Z</time>
      </trkpt>
      <trkpt lat="43.88849" lon="7.42543">
        <ele>412.4</ele>
        <time>2024-07-09T05:43:26Z</time>
      </trkpt>
      <trkpt lat="43.88852" lon="7.42538">
        <ele>412.4</ele>
        <time>2024-07-09T05:43:27Z</time>
      </trkpt>
      <trkpt lat="43.88854" lon="7.42532">
        <ele>412.4</ele>
        <time>2024-07-09T05:43:28Z</time>
      </trkpt>
      <trkpt lat="43.88856" lon="7.42527">
        <ele>412.6</ele>
        <time>2024-07-09T05:43:29Z</time>
      </trkpt>
      <trkpt lat="43.88858" lon="7.42522">
        <ele>412.6</ele>
        <time>2024-07-09T05:43:30Z</time>
      </trkpt>
      <trkpt lat="43.88861" lon="7.42517">
        <ele>412.6</ele>
        <time>2024-07-09T05:43:31Z</time>
      </trkpt>
      <trkpt lat="43.88864" lon="7.42512">
        <ele>412.6</ele>
        <time>2024-07-09T05:43:32Z</time>
      </trkpt>
      <trkpt lat="43.88867" lon="7.42507">
        <ele>412.6</ele>
        <time>2024-07-09T05:43:33Z</time>
      </trkpt>
      <trkpt lat="43.88869" lon="7.42502">
        <ele>412.6</ele>
        <time>2024-07-09T05:43:34Z</time>
      </trkpt>
      <trkpt lat="43.88872" lon="7.42497">
        <ele>412.6</ele>
        <time>2024-07-09T05:43:35Z</time>
      </trkpt>
      <trkpt lat="43.88875" lon="7.42492">
        <ele>412.4</ele>
        <time>2024-07-09T05:43:36Z</time>
      </trkpt>
      <trkpt lat="43.88878" lon="7.42487">
        <ele>412.4</ele>
        <time>2024-07-09T05:43:37Z</time>
      </trkpt>
      <trkpt lat="43.88881" lon="7.42482">
        <ele>412.4</ele>
        <time>2024-07-09T05:43:38Z</time>
      </trkpt>
      <trkpt lat="43.88884" lon="7.42477">
        <ele>412.4</ele>
        <time>2024-07-09T05:43:39Z</time>
      </trkpt>
      <trkpt lat="43.88888" lon="7.42472">
        <ele>412.4</ele>
        <time>2024-07-09T05:43:40Z</time>
      </trkpt>
      <trkpt lat="43.88892" lon="7.42468">
        <ele>412.4</ele>
        <time>2024-07-09T05:43:41Z</time>
      </trkpt>
      <trkpt lat="43.88896" lon="7.42463">
        <ele>412.4</ele>
        <time>2024-07-09T05:43:42Z</time>
      </trkpt>
      <trkpt lat="43.889" lon="7.42458">
        <ele>412</ele>
        <time>2024-07-09T05:43:43Z</time>
      </trkpt>
      <trkpt lat="43.88904" lon="7.42453">
        <ele>411.8</ele>
        <time>2024-07-09T05:43:44Z</time>
      </trkpt>
      <trkpt lat="43.88909" lon="7.42448">
        <ele>411.8</ele>
        <time>2024-07-09T05:43:45Z</time>
      </trkpt>
      <trkpt lat="43.88914" lon="7.42442">
        <ele>411.8</ele>
        <time>2024-07-09T05:43:46Z</time>
      </trkpt>
      <trkpt lat="43.88918" lon="7.42437">
        <ele>411</ele>
        <time>2024-07-09T05:43:47Z</time>
      </trkpt>
      <trkpt lat="43.88923" lon="7.42432">
        <ele>410.6</ele>
        <time>2024-07-09T05:43:48Z</time>
      </trkpt>
      <trkpt lat="43.88928" lon="7.42426">
        <ele>410.6</ele>
        <time>2024-07-09T05:43:49Z</time>
      </trkpt>
      <trkpt lat="43.88933" lon="7.42421">
        <ele>410.6</ele>
        <time>2024-07-09T05:43:50Z</time>
      </trkpt>
      <trkpt lat="43.88938" lon="7.42415">
        <ele>410.6</ele>
        <time>2024-07-09T05:43:51Z</time>
      </trkpt>
      <trkpt lat="43.88944" lon="7.4241">
        <ele>410</ele>
        <time>2024-07-09T05:43:52Z</time>
      </trkpt>
      <trkpt lat="43.88949" lon="7.42403">
        <ele>409.6</ele>
        <time>2024-07-09T05:43:53Z</time>
      </trkpt>
      <trkpt lat="43.88953" lon="7.42396">
        <ele>409.6</ele>
        <time>2024-07-09T05:43:54Z</time>
      </trkpt>
      <trkpt lat="43.88955" lon="7.42388">
        <ele>409.6</ele>
        <time>2024-07-09T05:43:55Z</time>
      </trkpt>
      <trkpt lat="43.88956" lon="7.42378">
        <ele>408.6</ele>
        <time>2024-07-09T05:43:56Z</time>
      </trkpt>
      <trkpt lat="43.88955" lon="7.42367">
        <ele>408.2</ele>
        <time>2024-07-09T05:43:57Z</time>
      </trkpt>
      <trkpt lat="43.88954" lon="7.42357">
        <ele>408.2</ele>
        <time>2024-07-09T05:43:58Z</time>
      </trkpt>
      <trkpt lat="43.88953" lon="7.42347">
        <ele>408.2</ele>
        <time>2024-07-09T05:43:59Z</time>
      </trkpt>
      <trkpt lat="43.88952" lon="7.42337">
        <ele>407.2</ele>
        <time>2024-07-09T05:44:00Z</time>
      </trkpt>
      <trkpt lat="43.88952" lon="7.42326">
        <ele>406.6</ele>
        <time>2024-07-09T05:44:01Z</time>
      </trkpt>
      <trkpt lat="43.88953" lon="7.42315">
        <ele>406.6</ele>
        <time>2024-07-09T05:44:02Z</time>
      </trkpt>
      <trkpt lat="43.88955" lon="7.42306">
        <ele>406.6</ele>
        <time>2024-07-09T05:44:03Z</time>
      </trkpt>
      <trkpt lat="43.88961" lon="7.42299">
        <ele>406.6</ele>
        <time>2024-07-09T05:44:04Z</time>
      </trkpt>
      <trkpt lat="43.88967" lon="7.42293">
        <ele>405.8</ele>
        <time>2024-07-09T05:44:05Z</time>
      </trkpt>
      <trkpt lat="43.88974" lon="7.4229">
        <ele>405.6</ele>
        <time>2024-07-09T05:44:06Z</time>
      </trkpt>
      <trkpt lat="43.88982" lon="7.42293">
        <ele>405.6</ele>
        <time>2024-07-09T05:44:07Z</time>
      </trkpt>
      <trkpt lat="43.88988" lon="7.42298">
        <ele>405.6</ele>
        <time>2024-07-09T05:44:08Z</time>
      </trkpt>
      <trkpt lat="43.88994" lon="7.42304">
        <ele>405.4</ele>
        <time>2024-07-09T05:44:09Z</time>
      </trkpt>
      <trkpt lat="43.89" lon="7.42309">
        <ele>405.2</ele>
        <time>2024-07-09T05:44:10Z</time>
      </trkpt>
      <trkpt lat="43.89006" lon="7.42314">
        <ele>405.2</ele>
        <time>2024-07-09T05:44:11Z</time>
      </trkpt>
      <trkpt lat="43.89011" lon="7.42319">
        <ele>405.2</ele>
        <time>2024-07-09T05:44:12Z</time>
      </trkpt>
      <trkpt lat="43.89016" lon="7.42324">
        <ele>405</ele>
        <time>2024-07-09T05:44:13Z</time>
      </trkpt>
      <trkpt lat="43.89022" lon="7.42329">
        <ele>405</ele>
        <time>2024-07-09T05:44:14Z</time>
      </trkpt>
      <trkpt lat="43.89027" lon="7.42333">
        <ele>405</ele>
        <time>2024-07-09T05:44:15Z</time>
      </trkpt>
      <trkpt lat="43.89033" lon="7.42336">
        <ele>405</ele>
        <time>2024-07-09T05:44:16Z</time>
      </trkpt>
      <trkpt lat="43.89039" lon="7.42338">
        <ele>405</ele>
        <time>2024-07-09T05:44:17Z</time>
      </trkpt>
      <trkpt lat="43.89044" lon="7.42338">
        <ele>405</ele>
        <time>2024-07-09T05:44:18Z</time>
      </trkpt>
      <trkpt lat="43.8905" lon="7.42337">
        <ele>404.8</ele>
        <time>2024-07-09T05:44:19Z</time>
      </trkpt>
      <trkpt lat="43.89056" lon="7.42335">
        <ele>405</ele>
        <time>2024-07-09T05:44:20Z</time>
      </trkpt>
      <trkpt lat="43.89061" lon="7.42331">
        <ele>405</ele>
        <time>2024-07-09T05:44:21Z</time>
      </trkpt>
      <trkpt lat="43.89066" lon="7.42327">
        <ele>405</ele>
        <time>2024-07-09T05:44:22Z</time>
      </trkpt>
      <trkpt lat="43.89071" lon="7.42322">
        <ele>405</ele>
        <time>2024-07-09T05:44:23Z</time>
      </trkpt>
      <trkpt lat="43.89076" lon="7.42316">
        <ele>404.6</ele>
        <time>2024-07-09T05:44:24Z</time>
      </trkpt>
      <trkpt lat="43.8908" lon="7.4231">
        <ele>404.6</ele>
        <time>2024-07-09T05:44:25Z</time>
      </trkpt>
      <trkpt lat="43.89085" lon="7.42304">
        <ele>404.6</ele>
        <time>2024-07-09T05:44:26Z</time>
      </trkpt>
      <trkpt lat="43.89089" lon="7.42298">
        <ele>404.6</ele>
        <time>2024-07-09T05:44:27Z</time>
      </trkpt>
      <trkpt lat="43.89094" lon="7.42292">
        <ele>404.2</ele>
        <time>2024-07-09T05:44:28Z</time>
      </trkpt>
      <trkpt lat="43.89099" lon="7.42287">
        <ele>404.2</ele>
        <time>2024-07-09T05:44:29Z</time>
      </trkpt>
      <trkpt lat="43.89103" lon="7.42281">
        <ele>404.2</ele>
        <time>2024-07-09T05:44:30Z</time>
      </trkpt>
      <trkpt lat="43.89108" lon="7.42276">
        <ele>404.2</ele>
        <time>2024-07-09T05:44:31Z</time>
      </trkpt>
      <trkpt lat="43.89113" lon="7.42271">
        <ele>403.8</ele>
        <time>2024-07-09T05:44:32Z</time>
      </trkpt>
      <trkpt lat="43.89118" lon="7.42266">
        <ele>403.8</ele>
        <time>2024-07-09T05:44:33Z</time>
      </trkpt>
      <trkpt lat="43.89122" lon="7.42261">
        <ele>403.8</ele>
        <time>2024-07-09T05:44:34Z</time>
      </trkpt>
      <trkpt lat="43.89127" lon="7.42255">
        <ele>403.8</ele>
        <time>2024-07-09T05:44:35Z</time>
      </trkpt>
      <trkpt lat="43.89132" lon="7.4225">
        <ele>403.8</ele>
        <time>2024-07-09T05:44:36Z</time>
      </trkpt>
      <trkpt lat="43.89136" lon="7.42244">
        <ele>403.6</ele>
        <time>2024-07-09T05:44:37Z</time>
      </trkpt>
      <trkpt lat="43.8914" lon="7.42239">
        <ele>403.6</ele>
        <time>2024-07-09T05:44:38Z</time>
      </trkpt>
      <trkpt lat="43.89145" lon="7.42234">
        <ele>403.6</ele>
        <time>2024-07-09T05:44:39Z</time>
      </trkpt>
      <trkpt lat="43.89149" lon="7.42229">
        <ele>403.6</ele>
        <time>2024-07-09T05:44:40Z</time>
      </trkpt>
      <trkpt lat="43.89154" lon="7.42223">
        <ele>403.4</ele>
        <time>2024-07-09T05:44:41Z</time>
      </trkpt>
      <trkpt lat="43.89158" lon="7.42218">
        <ele>403</ele>
        <time>2024-07-09T05:44:42Z</time>
      </trkpt>
      <trkpt lat="43.89162" lon="7.42213">
        <ele>403</ele>
        <time>2024-07-09T05:44:43Z</time>
      </trkpt>
      <trkpt lat="43.89167" lon="7.42208">
        <ele>403</ele>
        <time>2024-07-09T05:44:44Z</time>
      </trkpt>
      <trkpt lat="43.89171" lon="7.42203">
        <ele>403</ele>
        <time>2024-07-09T05:44:45Z</time>
      </trkpt>
      <trkpt lat="43.89174" lon="7.42197">
        <ele>402.8</ele>
        <time>2024-07-09T05:44:46Z</time>
      </trkpt>
      <trkpt lat="43.89178" lon="7.4219">
        <ele>402.8</ele>
        <time>2024-07-09T05:44:47Z</time>
      </trkpt>
      <trkpt lat="43.8918" lon="7.42184">
        <ele>402.8</ele>
        <time>2024-07-09T05:44:48Z</time>
      </trkpt>
      <trkpt lat="43.89184" lon="7.42177">
        <ele>402.8</ele>
        <time>2024-07-09T05:44:49Z</time>
      </trkpt>
      <trkpt lat="43.89188" lon="7.42171">
        <ele>402.6</ele>
        <time>2024-07-09T05:44:50Z</time>
      </trkpt>
      <trkpt lat="43.89192" lon="7.42165">
        <ele>402.8</ele>
        <time>2024-07-09T05:44:51Z</time>
      </trkpt>
      <trkpt lat="43.89196" lon="7.4216">
        <ele>402.8</ele>
        <time>2024-07-09T05:44:52Z</time>
      </trkpt>
      <trkpt lat="43.89199" lon="7.42154">
        <ele>402.8</ele>
        <time>2024-07-09T05:44:53Z</time>
      </trkpt>
      <trkpt lat="43.89202" lon="7.42148">
        <ele>402.6</ele>
        <time>2024-07-09T05:44:54Z</time>
      </trkpt>
      <trkpt lat="43.89204" lon="7.42141">
        <ele>402.6</ele>
        <time>2024-07-09T05:44:55Z</time>
      </trkpt>
      <trkpt lat="43.89206" lon="7.42134">
        <ele>402.6</ele>
        <time>2024-07-09T05:44:56Z</time>
      </trkpt>
      <trkpt lat="43.89208" lon="7.42126">
        <ele>402.6</ele>
        <time>2024-07-09T05:44:57Z</time>
      </trkpt>
      <trkpt lat="43.8921" lon="7.42119">
        <ele>402.6</ele>
        <time>2024-07-09T05:44:58Z</time>
      </trkpt>
      <trkpt lat="43.89212" lon="7.42112">
        <ele>402.6</ele>
        <time>2024-07-09T05:44:59Z</time>
      </trkpt>
      <trkpt lat="43.89214" lon="7.42103">
        <ele>402.2</ele>
        <time>2024-07-09T05:45:00Z</time>
      </trkpt>
      <trkpt lat="43.89214" lon="7.42096">
        <ele>402.2</ele>
        <time>2024-07-09T05:45:01Z</time>
      </trkpt>
      <trkpt lat="43.89215" lon="7.42087">
        <ele>402.2</ele>
        <time>2024-07-09T05:45:02Z</time>
      </trkpt>
      <trkpt lat="43.89213" lon="7.42081">
        <ele>402.2</ele>
        <time>2024-07-09T05:45:03Z</time>
      </trkpt>
      <trkpt lat="43.89212" lon="7.42073">
        <ele>402.2</ele>
        <time>2024-07-09T05:45:04Z</time>
      </trkpt>
      <trkpt lat="43.89212" lon="7.42065">
        <ele>402</ele>
        <time>2024-07-09T05:45:05Z</time>
      </trkpt>
      <trkpt lat="43.89213" lon="7.42058">
        <ele>402</ele>
        <time>2024-07-09T05:45:06Z</time>
      </trkpt>
      <trkpt lat="43.89212" lon="7.4205">
        <ele>402</ele>
        <time>2024-07-09T05:45:07Z</time>
      </trkpt>
      <trkpt lat="43.89213" lon="7.42044">
        <ele>402</ele>
        <time>2024-07-09T05:45:08Z</time>
      </trkpt>
      <trkpt lat="43.89213" lon="7.42037">
        <ele>401.6</ele>
        <time>2024-07-09T05:45:09Z</time>
      </trkpt>
      <trkpt lat="43.89214" lon="7.4203">
        <ele>401.6</ele>
        <time>2024-07-09T05:45:10Z</time>
      </trkpt>
      <trkpt lat="43.89214" lon="7.42022">
        <ele>401.6</ele>
        <time>2024-07-09T05:45:11Z</time>
      </trkpt>
      <trkpt lat="43.89213" lon="7.42015">
        <ele>401.6</ele>
        <time>2024-07-09T05:45:12Z</time>
      </trkpt>
      <trkpt lat="43.89214" lon="7.42006">
        <ele>401.6</ele>
        <time>2024-07-09T05:45:13Z</time>
      </trkpt>
      <trkpt lat="43.89214" lon="7.42">
        <ele>401.6</ele>
        <time>2024-07-09T05:45:14Z</time>
      </trkpt>
      <trkpt lat="43.89214" lon="7.41994">
        <ele>401.6</ele>
        <time>2024-07-09T05:45:15Z</time>
      </trkpt>
      <trkpt lat="43.89213" lon="7.41989">
        <ele>401.6</ele>
        <time>2024-07-09T05:45:16Z</time>
      </trkpt>
      <trkpt lat="43.89213" lon="7.41982">
        <ele>401.4</ele>
        <time>2024-07-09T05:45:17Z</time>
      </trkpt>
      <trkpt lat="43.89213" lon="7.41973">
        <ele>401.2</ele>
        <time>2024-07-09T05:45:18Z</time>
      </trkpt>
      <trkpt lat="43.89212" lon="7.41966">
        <ele>401.2</ele>
        <time>2024-07-09T05:45:19Z</time>
      </trkpt>
      <trkpt lat="43.89212" lon="7.41958">
        <ele>401.2</ele>
        <time>2024-07-09T05:45:20Z</time>
      </trkpt>
      <trkpt lat="43.89211" lon="7.41951">
        <ele>401</ele>
        <time>2024-07-09T05:45:21Z</time>
      </trkpt>
      <trkpt lat="43.89212" lon="7.41943">
        <ele>401</ele>
        <time>2024-07-09T05:45:22Z</time>
      </trkpt>
      <trkpt lat="43.89213" lon="7.41933">
        <ele>401</ele>
        <time>2024-07-09T05:45:23Z</time>
      </trkpt>
      <trkpt lat="43.89215" lon="7.41921">
        <ele>401</ele>
        <time>2024-07-09T05:45:24Z</time>
      </trkpt>
      <trkpt lat="43.89217" lon="7.41912">
        <ele>400.8</ele>
        <time>2024-07-09T05:45:25Z</time>
      </trkpt>
      <trkpt lat="43.89218" lon="7.41902">
        <ele>400.4</ele>
        <time>2024-07-09T05:45:26Z</time>
      </trkpt>
      <trkpt lat="43.89221" lon="7.41893">
        <ele>400.4</ele>
        <time>2024-07-09T05:45:27Z</time>
      </trkpt>
      <trkpt lat="43.89223" lon="7.41886">
        <ele>400.4</ele>
        <time>2024-07-09T05:45:28Z</time>
      </trkpt>
      <trkpt lat="43.89224" lon="7.41879">
        <ele>400.4</ele>
        <time>2024-07-09T05:45:29Z</time>
      </trkpt>
      <trkpt lat="43.89226" lon="7.41872">
        <ele>400.8</ele>
        <time>2024-07-09T05:45:30Z</time>
      </trkpt>
      <trkpt lat="43.89228" lon="7.41866">
        <ele>401</ele>
        <time>2024-07-09T05:45:31Z</time>
      </trkpt>
      <trkpt lat="43.8923" lon="7.41861">
        <ele>401</ele>
        <time>2024-07-09T05:45:32Z</time>
      </trkpt>
      <trkpt lat="43.89233" lon="7.41856">
        <ele>401</ele>
        <time>2024-07-09T05:45:33Z</time>
      </trkpt>
      <trkpt lat="43.89235" lon="7.41851">
        <ele>401.6</ele>
        <time>2024-07-09T05:45:34Z</time>
      </trkpt>
      <trkpt lat="43.89237" lon="7.41846">
        <ele>401.6</ele>
        <time>2024-07-09T05:45:35Z</time>
      </trkpt>
      <trkpt lat="43.8924" lon="7.41841">
        <ele>401.6</ele>
        <time>2024-07-09T05:45:36Z</time>
      </trkpt>
      <trkpt lat="43.89243" lon="7.41837">
        <ele>401.6</ele>
        <time>2024-07-09T05:45:37Z</time>
      </trkpt>
      <trkpt lat="43.89245" lon="7.41834">
        <ele>402.2</ele>
        <time>2024-07-09T05:45:38Z</time>
      </trkpt>
      <trkpt lat="43.89248" lon="7.4183">
        <ele>402.4</ele>
        <time>2024-07-09T05:45:39Z</time>
      </trkpt>
      <trkpt lat="43.8925" lon="7.41826">
        <ele>402.4</ele>
        <time>2024-07-09T05:45:40Z</time>
      </trkpt>
      <trkpt lat="43.89252" lon="7.41822">
        <ele>402.4</ele>
        <time>2024-07-09T05:45:41Z</time>
      </trkpt>
      <trkpt lat="43.89254" lon="7.41819">
        <ele>402.4</ele>
        <time>2024-07-09T05:45:42Z</time>
      </trkpt>
      <trkpt lat="43.89257" lon="7.41816">
        <ele>402.4</ele>
        <time>2024-07-09T05:45:43Z</time>
      </trkpt>
      <trkpt lat="43.89259" lon="7.41812">
        <ele>403</ele>
        <time>2024-07-09T05:45:44Z</time>
      </trkpt>
      <trkpt lat="43.89261" lon="7.4181">
        <ele>403.2</ele>
        <time>2024-07-09T05:45:45Z</time>
      </trkpt>
      <trkpt lat="43.89262" lon="7.41807">
        <ele>403.2</ele>
        <time>2024-07-09T05:45:46Z</time>
      </trkpt>
      <trkpt lat="43.89265" lon="7.41804">
        <ele>403.2</ele>
        <time>2024-07-09T05:45:47Z</time>
      </trkpt>
      <trkpt lat="43.89267" lon="7.41801">
        <ele>403.6</ele>
        <time>2024-07-09T05:45:48Z</time>
      </trkpt>
      <trkpt lat="43.89269" lon="7.41799">
        <ele>403.6</ele>
        <time>2024-07-09T05:45:49Z</time>
      </trkpt>
      <trkpt lat="43.89271" lon="7.41796">
        <ele>403.6</ele>
        <time>2024-07-09T05:45:50Z</time>
      </trkpt>
      <trkpt lat="43.89273" lon="7.41793">
        <ele>403.6</ele>
        <time>2024-07-09T05:45:51Z</time>
      </trkpt>
      <trkpt lat="43.89276" lon="7.41791">
        <ele>404</ele>
        <time>2024-07-09T05:45:52Z</time>
      </trkpt>
      <trkpt lat="43.89279" lon="7.4179">
        <ele>404</ele>
        <time>2024-07-09T05:45:53Z</time>
      </trkpt>
      <trkpt lat="43.89283" lon="7.4179">
        <ele>404</ele>
        <time>2024-07-09T05:45:54Z</time>
      </trkpt>
      <trkpt lat="43.89286" lon="7.4179">
        <ele>404</ele>
        <time>2024-07-09T05:45:55Z</time>
      </trkpt>
      <trkpt lat="43.89289" lon="7.4179">
        <ele>404</ele>
        <time>2024-07-09T05:45:56Z</time>
      </trkpt>
      <trkpt lat="43.89292" lon="7.41791">
        <ele>404.6</ele>
        <time>2024-07-09T05:45:57Z</time>
      </trkpt>
      <trkpt lat="43.89294" lon="7.41794">
        <ele>404.6</ele>
        <time>2024-07-09T05:45:58Z</time>
      </trkpt>
      <trkpt lat="43.89296" lon="7.41796">
        <ele>404.6</ele>
        <time>2024-07-09T05:45:59Z</time>
      </trkpt>
      <trkpt lat="43.89298" lon="7.41799">
        <ele>404.6</ele>
        <time>2024-07-09T05:46:00Z</time>
      </trkpt>
      <trkpt lat="43.893" lon="7.41802">
        <ele>404.6</ele>
        <time>2024-07-09T05:46:01Z</time>
      </trkpt>
      <trkpt lat="43.89302" lon="7.41804">
        <ele>405.2</ele>
        <time>2024-07-09T05:46:02Z</time>
      </trkpt>
      <trkpt lat="43.89304" lon="7.41806">
        <ele>405.2</ele>
        <time>2024-07-09T05:46:03Z</time>
      </trkpt>
      <trkpt lat="43.89306" lon="7.41808">
        <ele>405.2</ele>
        <time>2024-07-09T05:46:04Z</time>
      </trkpt>
      <trkpt lat="43.89306" lon="7.41811">
        <ele>405.2</ele>
        <time>2024-07-09T05:46:05Z</time>
      </trkpt>
      <trkpt lat="43.89305" lon="7.41817">
        <ele>405.2</ele>
        <time>2024-07-09T05:46:06Z</time>
      </trkpt>
      <trkpt lat="43.89305" lon="7.4182">
        <ele>405.6</ele>
        <time>2024-07-09T05:46:07Z</time>
      </trkpt>
      <trkpt lat="43.89305" lon="7.41824">
        <ele>405.6</ele>
        <time>2024-07-09T05:46:08Z</time>
      </trkpt>
      <trkpt lat="43.89304" lon="7.41829">
        <ele>405.6</ele>
        <time>2024-07-09T05:46:09Z</time>
      </trkpt>
      <trkpt lat="43.89304" lon="7.41833">
        <ele>406.2</ele>
        <time>2024-07-09T05:46:10Z</time>
      </trkpt>
      <trkpt lat="43.89304" lon="7.41837">
        <ele>406.2</ele>
        <time>2024-07-09T05:46:11Z</time>
      </trkpt>
      <trkpt lat="43.89304" lon="7.41841">
        <ele>406.2</ele>
        <time>2024-07-09T05:46:12Z</time>
      </trkpt>
      <trkpt lat="43.89305" lon="7.41844">
        <ele>406.2</ele>
        <time>2024-07-09T05:46:13Z</time>
      </trkpt>
      <trkpt lat="43.89305" lon="7.41847">
        <ele>406.6</ele>
        <time>2024-07-09T05:46:14Z</time>
      </trkpt>
      <trkpt lat="43.89306" lon="7.41851">
        <ele>406.8</ele>
        <time>2024-07-09T05:46:15Z</time>
      </trkpt>
      <trkpt lat="43.89306" lon="7.41855">
        <ele>406.8</ele>
        <time>2024-07-09T05:46:16Z</time>
      </trkpt>
      <trkpt lat="43.89306" lon="7.41859">
        <ele>406.8</ele>
        <time>2024-07-09T05:46:17Z</time>
      </trkpt>
      <trkpt lat="43.89306" lon="7.41862">
        <ele>407.2</ele>
        <time>2024-07-09T05:46:18Z</time>
      </trkpt>
      <trkpt lat="43.89307" lon="7.41866">
        <ele>407.2</ele>
        <time>2024-07-09T05:46:19Z</time>
      </trkpt>
      <trkpt lat="43.89306" lon="7.41869">
        <ele>407.4</ele>
        <time>2024-07-09T05:46:20Z</time>
      </trkpt>
      <trkpt lat="43.89307" lon="7.41872">
        <ele>407.4</ele>
        <time>2024-07-09T05:46:21Z</time>
      </trkpt>
      <trkpt lat="43.89306" lon="7.41875">
        <ele>407.4</ele>
        <time>2024-07-09T05:46:22Z</time>
      </trkpt>
      <trkpt lat="43.89306" lon="7.41878">
        <ele>407.4</ele>
        <time>2024-07-09T05:46:23Z</time>
      </trkpt>
      <trkpt lat="43.89306" lon="7.41881">
        <ele>407.8</ele>
        <time>2024-07-09T05:46:24Z</time>
      </trkpt>
      <trkpt lat="43.89306" lon="7.41884">
        <ele>408</ele>
        <time>2024-07-09T05:46:25Z</time>
      </trkpt>
      <trkpt lat="43.89306" lon="7.41887">
        <ele>408</ele>
        <time>2024-07-09T05:46:26Z</time>
      </trkpt>
      <trkpt lat="43.89305" lon="7.41889">
        <ele>408</ele>
        <time>2024-07-09T05:46:27Z</time>
      </trkpt>
      <trkpt lat="43.89305" lon="7.41892">
        <ele>408.6</ele>
        <time>2024-07-09T05:46:28Z</time>
      </trkpt>
      <trkpt lat="43.89306" lon="7.41895">
        <ele>408.6</ele>
        <time>2024-07-09T05:46:29Z</time>
      </trkpt>
      <trkpt lat="43.89305" lon="7.41898">
        <ele>408.8</ele>
        <time>2024-07-09T05:46:30Z</time>
      </trkpt>
      <trkpt lat="43.89305" lon="7.41901">
        <ele>408.8</ele>
        <time>2024-07-09T05:46:31Z</time>
      </trkpt>
      <trkpt lat="43.89305" lon="7.41904">
        <ele>408.8</ele>
        <time>2024-07-09T05:46:32Z</time>
      </trkpt>
      <trkpt lat="43.89305" lon="7.41907">
        <ele>409.2</ele>
        <time>2024-07-09T05:46:33Z</time>
      </trkpt>
      <trkpt lat="43.89304" lon="7.4191">
        <ele>409.2</ele>
        <time>2024-07-09T05:46:34Z</time>
      </trkpt>
      <trkpt lat="43.89304" lon="7.41913">
        <ele>409.2</ele>
        <time>2024-07-09T05:46:35Z</time>
      </trkpt>
      <trkpt lat="43.89304" lon="7.41916">
        <ele>409.2</ele>
        <time>2024-07-09T05:46:36Z</time>
      </trkpt>
      <trkpt lat="43.89304" lon="7.41919">
        <ele>409.8</ele>
        <time>2024-07-09T05:46:37Z</time>
      </trkpt>
      <trkpt lat="43.89304" lon="7.41923">
        <ele>409.8</ele>
        <time>2024-07-09T05:46:38Z</time>
      </trkpt>
      <trkpt lat="43.89304" lon="7.41926">
        <ele>409.8</ele>
        <time>2024-07-09T05:46:39Z</time>
      </trkpt>
      <trkpt lat="43.89303" lon="7.41929">
        <ele>409.8</ele>
        <time>2024-07-09T05:46:40Z</time>
      </trkpt>
      <trkpt lat="43.89303" lon="7.41932">
        <ele>410.2</ele>
        <time>2024-07-09T05:46:41Z</time>
      </trkpt>
      <trkpt lat="43.89303" lon="7.41935">
        <ele>410.2</ele>
        <time>2024-07-09T05:46:42Z</time>
      </trkpt>
      <trkpt lat="43.89303" lon="7.41939">
        <ele>410.4</ele>
        <time>2024-07-09T05:46:43Z</time>
      </trkpt>
      <trkpt lat="43.89302" lon="7.41942">
        <ele>410.4</ele>
        <time>2024-07-09T05:46:44Z</time>
      </trkpt>
      <trkpt lat="43.89302" lon="7.41944">
        <ele>410.4</ele>
        <time>2024-07-09T05:46:45Z</time>
      </trkpt>
      <trkpt lat="43.89302" lon="7.41947">
        <ele>410.8</ele>
        <time>2024-07-09T05:46:46Z</time>
      </trkpt>
      <trkpt lat="43.89303" lon="7.4195">
        <ele>411</ele>
        <time>2024-07-09T05:46:47Z</time>
      </trkpt>
      <trkpt lat="43.89304" lon="7.41953">
        <ele>411</ele>
        <time>2024-07-09T05:46:48Z</time>
      </trkpt>
      <trkpt lat="43.89305" lon="7.41956">
        <ele>411</ele>
        <time>2024-07-09T05:46:49Z</time>
      </trkpt>
      <trkpt lat="43.89306" lon="7.41958">
        <ele>411.4</ele>
        <time>2024-07-09T05:46:50Z</time>
      </trkpt>
      <trkpt lat="43.89308" lon="7.4196">
        <ele>411.6</ele>
        <time>2024-07-09T05:46:51Z</time>
      </trkpt>
      <trkpt lat="43.89309" lon="7.41962">
        <ele>411.6</ele>
        <time>2024-07-09T05:46:52Z</time>
      </trkpt>
      <trkpt lat="43.8931" lon="7.41965">
        <ele>411.6</ele>
        <time>2024-07-09T05:46:53Z</time>
      </trkpt>
      <trkpt lat="43.89311" lon="7.41967">
        <ele>411.6</ele>
        <time>2024-07-09T05:46:54Z</time>
      </trkpt>
      <trkpt lat="43.89313" lon="7.41968">
        <ele>411.8</ele>
        <time>2024-07-09T05:46:55Z</time>
      </trkpt>
      <trkpt lat="43.89315" lon="7.4197">
        <ele>412.2</ele>
        <time>2024-07-09T05:46:56Z</time>
      </trkpt>
      <trkpt lat="43.89317" lon="7.41971">
        <ele>412.2</ele>
        <time>2024-07-09T05:46:57Z</time>
      </trkpt>
      <trkpt lat="43.89319" lon="7.41971">
        <ele>412.2</ele>
        <time>2024-07-09T05:46:58Z</time>
      </trkpt>
      <trkpt lat="43.89322" lon="7.41971">
        <ele>412.6</ele>
        <time>2024-07-09T05:46:59Z</time>
      </trkpt>
      <trkpt lat="43.89324" lon="7.4197">
        <ele>412.6</ele>
        <time>2024-07-09T05:47:00Z</time>
      </trkpt>
      <trkpt lat="43.89327" lon="7.41969">
        <ele>412.6</ele>
        <time>2024-07-09T05:47:01Z</time>
      </trkpt>
      <trkpt lat="43.89329" lon="7.41968">
        <ele>412.6</ele>
        <time>2024-07-09T05:47:02Z</time>
      </trkpt>
      <trkpt lat="43.89331" lon="7.41968">
        <ele>413</ele>
        <time>2024-07-09T05:47:03Z</time>
      </trkpt>
      <trkpt lat="43.89333" lon="7.41967">
        <ele>413.2</ele>
        <time>2024-07-09T05:47:04Z</time>
      </trkpt>
      <trkpt lat="43.89336" lon="7.41966">
        <ele>413.2</ele>
        <time>2024-07-09T05:47:05Z</time>
      </trkpt>
      <trkpt lat="43.89338" lon="7.41964">
        <ele>413.2</ele>
        <time>2024-07-09T05:47:06Z</time>
      </trkpt>
      <trkpt lat="43.89339" lon="7.41962">
        <ele>413.2</ele>
        <time>2024-07-09T05:47:07Z</time>
      </trkpt>
      <trkpt lat="43.89341" lon="7.41961">
        <ele>413.2</ele>
        <time>2024-07-09T05:47:08Z</time>
      </trkpt>
      <trkpt lat="43.89342" lon="7.41959">
        <ele>413.6</ele>
        <time>2024-07-09T05:47:09Z</time>
      </trkpt>
      <trkpt lat="43.89343" lon="7.41957">
        <ele>413.6</ele>
        <time>2024-07-09T05:47:10Z</time>
      </trkpt>
      <trkpt lat="43.89344" lon="7.41955">
        <ele>413.6</ele>
        <time>2024-07-09T05:47:11Z</time>
      </trkpt>
      <trkpt lat="43.89345" lon="7.41953">
        <ele>413.6</ele>
        <time>2024-07-09T05:47:12Z</time>
      </trkpt>
      <trkpt lat="43.89347" lon="7.41952">
        <ele>414.2</ele>
        <time>2024-07-09T05:47:13Z</time>
      </trkpt>
      <trkpt lat="43.89348" lon="7.4195">
        <ele>414.2</ele>
        <time>2024-07-09T05:47:14Z</time>
      </trkpt>
      <trkpt lat="43.89349" lon="7.41948">
        <ele>414.2</ele>
        <time>2024-07-09T05:47:15Z</time>
      </trkpt>
      <trkpt lat="43.8935" lon="7.41947">
        <ele>414.2</ele>
        <time>2024-07-09T05:47:16Z</time>
      </trkpt>
      <trkpt lat="43.89352" lon="7.41946">
        <ele>414.8</ele>
        <time>2024-07-09T05:47:17Z</time>
      </trkpt>
      <trkpt lat="43.89353" lon="7.41943">
        <ele>414.8</ele>
        <time>2024-07-09T05:47:18Z</time>
      </trkpt>
      <trkpt lat="43.89354" lon="7.41942">
        <ele>414.8</ele>
        <time>2024-07-09T05:47:19Z</time>
      </trkpt>
      <trkpt lat="43.89356" lon="7.4194">
        <ele>414.8</ele>
        <time>2024-07-09T05:47:20Z</time>
      </trkpt>
      <trkpt lat="43.89358" lon="7.41937">
        <ele>414.8</ele>
        <time>2024-07-09T05:47:21Z</time>
      </trkpt>
      <trkpt lat="43.89359" lon="7.41936">
        <ele>415.4</ele>
        <time>2024-07-09T05:47:22Z</time>
      </trkpt>
      <trkpt lat="43.89361" lon="7.41934">
        <ele>415.6</ele>
        <time>2024-07-09T05:47:23Z</time>
      </trkpt>
      <trkpt lat="43.89363" lon="7.41933">
        <ele>415.6</ele>
        <time>2024-07-09T05:47:24Z</time>
      </trkpt>
      <trkpt lat="43.89364" lon="7.41931">
        <ele>415.6</ele>
        <time>2024-07-09T05:47:25Z</time>
      </trkpt>
      <trkpt lat="43.89366" lon="7.41929">
        <ele>415.6</ele>
        <time>2024-07-09T05:47:26Z</time>
      </trkpt>
      <trkpt lat="43.89368" lon="7.41927">
        <ele>416.2</ele>
        <time>2024-07-09T05:47:27Z</time>
      </trkpt>
      <trkpt lat="43.89369" lon="7.41925">
        <ele>416.2</ele>
        <time>2024-07-09T05:47:28Z</time>
      </trkpt>
      <trkpt lat="43.89371" lon="7.41923">
        <ele>416.2</ele>
        <time>2024-07-09T05:47:29Z</time>
      </trkpt>
      <trkpt lat="43.89372" lon="7.41922">
        <ele>416.8</ele>
        <time>2024-07-09T05:47:30Z</time>
      </trkpt>
      <trkpt lat="43.89374" lon="7.4192">
        <ele>416.8</ele>
        <time>2024-07-09T05:47:31Z</time>
      </trkpt>
      <trkpt lat="43.89375" lon="7.41919">
        <ele>417</ele>
        <time>2024-07-09T05:47:32Z</time>
      </trkpt>
      <trkpt lat="43.89377" lon="7.41917">
        <ele>417</ele>
        <time>2024-07-09T05:47:33Z</time>
      </trkpt>
      <trkpt lat="43.89379" lon="7.41915">
        <ele>417</ele>
        <time>2024-07-09T05:47:34Z</time>
      </trkpt>
      <trkpt lat="43.89381" lon="7.41914">
        <ele>417.4</ele>
        <time>2024-07-09T05:47:35Z</time>
      </trkpt>
      <trkpt lat="43.89383" lon="7.41912">
        <ele>417.4</ele>
        <time>2024-07-09T05:47:36Z</time>
      </trkpt>
      <trkpt lat="43.89385" lon="7.4191">
        <ele>417.4</ele>
        <time>2024-07-09T05:47:37Z</time>
      </trkpt>
      <trkpt lat="43.89386" lon="7.41907">
        <ele>417.4</ele>
        <time>2024-07-09T05:47:38Z</time>
      </trkpt>
      <trkpt lat="43.89388" lon="7.41905">
        <ele>418</ele>
        <time>2024-07-09T05:47:39Z</time>
      </trkpt>
      <trkpt lat="43.89389" lon="7.41904">
        <ele>418</ele>
        <time>2024-07-09T05:47:40Z</time>
      </trkpt>
      <trkpt lat="43.89391" lon="7.41902">
        <ele>418.2</ele>
        <time>2024-07-09T05:47:41Z</time>
      </trkpt>
      <trkpt lat="43.89392" lon="7.419">
        <ele>418.2</ele>
        <time>2024-07-09T05:47:42Z</time>
      </trkpt>
      <trkpt lat="43.89394" lon="7.41898">
        <ele>418.6</ele>
        <time>2024-07-09T05:47:43Z</time>
      </trkpt>
      <trkpt lat="43.89396" lon="7.41897">
        <ele>418.6</ele>
        <time>2024-07-09T05:47:44Z</time>
      </trkpt>
      <trkpt lat="43.89398" lon="7.41895">
        <ele>418.8</ele>
        <time>2024-07-09T05:47:45Z</time>
      </trkpt>
      <trkpt lat="43.89399" lon="7.41894">
        <ele>418.8</ele>
        <time>2024-07-09T05:47:46Z</time>
      </trkpt>
      <trkpt lat="43.89401" lon="7.41893">
        <ele>418.8</ele>
        <time>2024-07-09T05:47:47Z</time>
      </trkpt>
      <trkpt lat="43.89403" lon="7.41892">
        <ele>418.8</ele>
        <time>2024-07-09T05:47:48Z</time>
      </trkpt>
      <trkpt lat="43.89405" lon="7.4189">
        <ele>419.2</ele>
        <time>2024-07-09T05:47:49Z</time>
      </trkpt>
      <trkpt lat="43.89407" lon="7.41889">
        <ele>419.4</ele>
        <time>2024-07-09T05:47:50Z</time>
      </trkpt>
      <trkpt lat="43.89408" lon="7.41887">
        <ele>419.4</ele>
        <time>2024-07-09T05:47:51Z</time>
      </trkpt>
      <trkpt lat="43.8941" lon="7.41885">
        <ele>419.4</ele>
        <time>2024-07-09T05:47:52Z</time>
      </trkpt>
      <trkpt lat="43.89411" lon="7.41884">
        <ele>419.8</ele>
        <time>2024-07-09T05:47:53Z</time>
      </trkpt>
      <trkpt lat="43.89413" lon="7.41882">
        <ele>419.8</ele>
        <time>2024-07-09T05:47:54Z</time>
      </trkpt>
      <trkpt lat="43.89415" lon="7.4188">
        <ele>420</ele>
        <time>2024-07-09T05:47:55Z</time>
      </trkpt>
      <trkpt lat="43.89416" lon="7.41878">
        <ele>420</ele>
        <time>2024-07-09T05:47:56Z</time>
      </trkpt>
      <trkpt lat="43.89418" lon="7.41876">
        <ele>420</ele>
        <time>2024-07-09T05:47:57Z</time>
      </trkpt>
      <trkpt lat="43.89419" lon="7.41875">
        <ele>420.4</ele>
        <time>2024-07-09T05:47:58Z</time>
      </trkpt>
      <trkpt lat="43.89421" lon="7.41873">
        <ele>420.6</ele>
        <time>2024-07-09T05:47:59Z</time>
      </trkpt>
      <trkpt lat="43.89422" lon="7.41872">
        <ele>420.6</ele>
        <time>2024-07-09T05:48:00Z</time>
      </trkpt>
      <trkpt lat="43.89423" lon="7.41871">
        <ele>420.6</ele>
        <time>2024-07-09T05:48:01Z</time>
      </trkpt>
      <trkpt lat="43.89425" lon="7.4187">
        <ele>421.4</ele>
        <time>2024-07-09T05:48:02Z</time>
      </trkpt>
      <trkpt lat="43.89427" lon="7.41869">
        <ele>421.4</ele>
        <time>2024-07-09T05:48:03Z</time>
      </trkpt>
      <trkpt lat="43.89429" lon="7.41867">
        <ele>421.4</ele>
        <time>2024-07-09T05:48:04Z</time>
      </trkpt>
      <trkpt lat="43.8943" lon="7.41866">
        <ele>421.4</ele>
        <time>2024-07-09T05:48:05Z</time>
      </trkpt>
      <trkpt lat="43.89432" lon="7.41865">
        <ele>421.8</ele>
        <time>2024-07-09T05:48:06Z</time>
      </trkpt>
      <trkpt lat="43.89434" lon="7.41863">
        <ele>422</ele>
        <time>2024-07-09T05:48:07Z</time>
      </trkpt>
      <trkpt lat="43.89436" lon="7.41862">
        <ele>422</ele>
        <time>2024-07-09T05:48:08Z</time>
      </trkpt>
      <trkpt lat="43.89438" lon="7.41861">
        <ele>422</ele>
        <time>2024-07-09T05:48:09Z</time>
      </trkpt>
      <trkpt lat="43.89439" lon="7.41859">
        <ele>422</ele>
        <time>2024-07-09T05:48:10Z</time>
      </trkpt>
      <trkpt lat="43.89441" lon="7.41858">
        <ele>422.4</ele>
        <time>2024-07-09T05:48:11Z</time>
      </trkpt>
      <trkpt lat="43.89442" lon="7.41856">
        <ele>422.4</ele>
        <time>2024-07-09T05:48:12Z</time>
      </trkpt>
      <trkpt lat="43.89444" lon="7.41854">
        <ele>422.4</ele>
        <time>2024-07-09T05:48:13Z</time>
      </trkpt>
      <trkpt lat="43.89445" lon="7.41852">
        <ele>422.4</ele>
        <time>2024-07-09T05:48:14Z</time>
      </trkpt>
      <trkpt lat="43.89447" lon="7.4185">
        <ele>423.2</ele>
        <time>2024-07-09T05:48:15Z</time>
      </trkpt>
      <trkpt lat="43.89448" lon="7.41848">
        <ele>423.2</ele>
        <time>2024-07-09T05:48:16Z</time>
      </trkpt>
      <trkpt lat="43.8945" lon="7.41846">
        <ele>423.2</ele>
        <time>2024-07-09T05:48:17Z</time>
      </trkpt>
      <trkpt lat="43.89452" lon="7.41844">
        <ele>423.2</ele>
        <time>2024-07-09T05:48:18Z</time>
      </trkpt>
      <trkpt lat="43.89453" lon="7.41842">
        <ele>423.2</ele>
        <time>2024-07-09T05:48:19Z</time>
      </trkpt>
      <trkpt lat="43.89454" lon="7.41839">
        <ele>423.6</ele>
        <time>2024-07-09T05:48:20Z</time>
      </trkpt>
      <trkpt lat="43.89455" lon="7.41837">
        <ele>424</ele>
        <time>2024-07-09T05:48:21Z</time>
      </trkpt>
      <trkpt lat="43.89457" lon="7.41835">
        <ele>424</ele>
        <time>2024-07-09T05:48:22Z</time>
      </trkpt>
      <trkpt lat="43.89459" lon="7.41833">
        <ele>424</ele>
        <time>2024-07-09T05:48:23Z</time>
      </trkpt>
      <trkpt lat="43.8946" lon="7.41831">
        <ele>424.4</ele>
        <time>2024-07-09T05:48:24Z</time>
      </trkpt>
      <trkpt lat="43.89461" lon="7.41829">
        <ele>424.4</ele>
        <time>2024-07-09T05:48:25Z</time>
      </trkpt>
      <trkpt lat="43.89463" lon="7.41827">
        <ele>424.4</ele>
        <time>2024-07-09T05:48:26Z</time>
      </trkpt>
      <trkpt lat="43.89464" lon="7.41825">
        <ele>424.4</ele>
        <time>2024-07-09T05:48:27Z</time>
      </trkpt>
      <trkpt lat="43.89466" lon="7.41824">
        <ele>425</ele>
        <time>2024-07-09T05:48:28Z</time>
      </trkpt>
      <trkpt lat="43.89467" lon="7.41822">
        <ele>425</ele>
        <time>2024-07-09T05:48:29Z</time>
      </trkpt>
      <trkpt lat="43.89469" lon="7.4182">
        <ele>425</ele>
        <time>2024-07-09T05:48:30Z</time>
      </trkpt>
      <trkpt lat="43.8947" lon="7.41818">
        <ele>425</ele>
        <time>2024-07-09T05:48:31Z</time>
      </trkpt>
      <trkpt lat="43.89471" lon="7.41815">
        <ele>425</ele>
        <time>2024-07-09T05:48:32Z</time>
      </trkpt>
      <trkpt lat="43.89472" lon="7.41813">
        <ele>425</ele>
        <time>2024-07-09T05:48:33Z</time>
      </trkpt>
      <trkpt lat="43.89474" lon="7.41811">
        <ele>425.6</ele>
        <time>2024-07-09T05:48:34Z</time>
      </trkpt>
      <trkpt lat="43.89476" lon="7.4181">
        <ele>425.8</ele>
        <time>2024-07-09T05:48:35Z</time>
      </trkpt>
      <trkpt lat="43.89477" lon="7.41808">
        <ele>425.8</ele>
        <time>2024-07-09T05:48:36Z</time>
      </trkpt>
      <trkpt lat="43.89479" lon="7.41807">
        <ele>425.8</ele>
        <time>2024-07-09T05:48:37Z</time>
      </trkpt>
      <trkpt lat="43.8948" lon="7.41805">
        <ele>426.2</ele>
        <time>2024-07-09T05:48:38Z</time>
      </trkpt>
      <trkpt lat="43.89482" lon="7.41802">
        <ele>426.2</ele>
        <time>2024-07-09T05:48:39Z</time>
      </trkpt>
      <trkpt lat="43.89483" lon="7.418">
        <ele>426.2</ele>
        <time>2024-07-09T05:48:40Z</time>
      </trkpt>
      <trkpt lat="43.89484" lon="7.41799">
        <ele>426.2</ele>
        <time>2024-07-09T05:48:41Z</time>
      </trkpt>
      <trkpt lat="43.89485" lon="7.41797">
        <ele>426.6</ele>
        <time>2024-07-09T05:48:42Z</time>
      </trkpt>
      <trkpt lat="43.89487" lon="7.41795">
        <ele>426.8</ele>
        <time>2024-07-09T05:48:43Z</time>
      </trkpt>
      <trkpt lat="43.89488" lon="7.41793">
        <ele>426.8</ele>
        <time>2024-07-09T05:48:44Z</time>
      </trkpt>
      <trkpt lat="43.89489" lon="7.41791">
        <ele>426.8</ele>
        <time>2024-07-09T05:48:45Z</time>
      </trkpt>
      <trkpt lat="43.8949" lon="7.41789">
        <ele>426.8</ele>
        <time>2024-07-09T05:48:46Z</time>
      </trkpt>
      <trkpt lat="43.89491" lon="7.41788">
        <ele>427.4</ele>
        <time>2024-07-09T05:48:47Z</time>
      </trkpt>
      <trkpt lat="43.89493" lon="7.41786">
        <ele>427.4</ele>
        <time>2024-07-09T05:48:48Z</time>
      </trkpt>
      <trkpt lat="43.89494" lon="7.41784">
        <ele>427.4</ele>
        <time>2024-07-09T05:48:49Z</time>
      </trkpt>
      <trkpt lat="43.89496" lon="7.41783">
        <ele>427.4</ele>
        <time>2024-07-09T05:48:50Z</time>
      </trkpt>
      <trkpt lat="43.89497" lon="7.41781">
        <ele>427.4</ele>
        <time>2024-07-09T05:48:51Z</time>
      </trkpt>
      <trkpt lat="43.89498" lon="7.4178">
        <ele>428.2</ele>
        <time>2024-07-09T05:48:52Z</time>
      </trkpt>
      <trkpt lat="43.895" lon="7.41778">
        <ele>428.2</ele>
        <time>2024-07-09T05:48:53Z</time>
      </trkpt>
      <trkpt lat="43.89501" lon="7.41776">
        <ele>428.2</ele>
        <time>2024-07-09T05:48:54Z</time>
      </trkpt>
      <trkpt lat="43.89503" lon="7.41774">
        <ele>428.2</ele>
        <time>2024-07-09T05:48:55Z</time>
      </trkpt>
      <trkpt lat="43.89504" lon="7.41772">
        <ele>428.6</ele>
        <time>2024-07-09T05:48:56Z</time>
      </trkpt>
      <trkpt lat="43.89505" lon="7.4177">
        <ele>428.6</ele>
        <time>2024-07-09T05:48:57Z</time>
      </trkpt>
      <trkpt lat="43.89507" lon="7.41769">
        <ele>428.6</ele>
        <time>2024-07-09T05:48:58Z</time>
      </trkpt>
      <trkpt lat="43.89508" lon="7.41767">
        <ele>428.6</ele>
        <time>2024-07-09T05:48:59Z</time>
      </trkpt>
      <trkpt lat="43.89509" lon="7.41764">
        <ele>429.2</ele>
        <time>2024-07-09T05:49:00Z</time>
      </trkpt>
      <trkpt lat="43.8951" lon="7.41762">
        <ele>429.4</ele>
        <time>2024-07-09T05:49:01Z</time>
      </trkpt>
      <trkpt lat="43.89511" lon="7.41759">
        <ele>429.4</ele>
        <time>2024-07-09T05:49:02Z</time>
      </trkpt>
      <trkpt lat="43.89513" lon="7.41758">
        <ele>429.4</ele>
        <time>2024-07-09T05:49:03Z</time>
      </trkpt>
      <trkpt lat="43.89514" lon="7.41755">
        <ele>429.4</ele>
        <time>2024-07-09T05:49:04Z</time>
      </trkpt>
      <trkpt lat="43.89515" lon="7.41753">
        <ele>430</ele>
        <time>2024-07-09T05:49:05Z</time>
      </trkpt>
      <trkpt lat="43.89516" lon="7.41752">
        <ele>430</ele>
        <time>2024-07-09T05:49:06Z</time>
      </trkpt>
      <trkpt lat="43.89517" lon="7.4175">
        <ele>430</ele>
        <time>2024-07-09T05:49:07Z</time>
      </trkpt>
      <trkpt lat="43.89518" lon="7.41748">
        <ele>430</ele>
        <time>2024-07-09T05:49:08Z</time>
      </trkpt>
      <trkpt lat="43.89519" lon="7.41746">
        <ele>430.4</ele>
        <time>2024-07-09T05:49:09Z</time>
      </trkpt>
      <trkpt lat="43.89521" lon="7.41744">
        <ele>430.6</ele>
        <time>2024-07-09T05:49:10Z</time>
      </trkpt>
      <trkpt lat="43.89522" lon="7.41741">
        <ele>430.6</ele>
        <time>2024-07-09T05:49:11Z</time>
      </trkpt>
      <trkpt lat="43.89523" lon="7.41738">
        <ele>430.6</ele>
        <time>2024-07-09T05:49:12Z</time>
      </trkpt>
      <trkpt lat="43.89524" lon="7.41736">
        <ele>430.6</ele>
        <time>2024-07-09T05:49:13Z</time>
      </trkpt>
      <trkpt lat="43.89525" lon="7.41735">
        <ele>431</ele>
        <time>2024-07-09T05:49:14Z</time>
      </trkpt>
      <trkpt lat="43.89526" lon="7.41733">
        <ele>431</ele>
        <time>2024-07-09T05:49:15Z</time>
      </trkpt>
      <trkpt lat="43.89527" lon="7.41731">
        <ele>431.2</ele>
        <time>2024-07-09T05:49:16Z</time>
      </trkpt>
      <trkpt lat="43.89529" lon="7.41729">
        <ele>431.2</ele>
        <time>2024-07-09T05:49:17Z</time>
      </trkpt>
      <trkpt lat="43.8953" lon="7.41727">
        <ele>431.6</ele>
        <time>2024-07-09T05:49:18Z</time>
      </trkpt>
      <trkpt lat="43.89531" lon="7.41725">
        <ele>431.8</ele>
        <time>2024-07-09T05:49:19Z</time>
      </trkpt>
      <trkpt lat="43.89533" lon="7.41723">
        <ele>431.8</ele>
        <time>2024-07-09T05:49:20Z</time>
      </trkpt>
      <trkpt lat="43.89534" lon="7.41722">
        <ele>431.8</ele>
        <time>2024-07-09T05:49:21Z</time>
      </trkpt>
      <trkpt lat="43.89536" lon="7.41721">
        <ele>431.8</ele>
        <time>2024-07-09T05:49:22Z</time>
      </trkpt>
      <trkpt lat="43.89538" lon="7.4172">
        <ele>432.2</ele>
        <time>2024-07-09T05:49:23Z</time>
      </trkpt>
      <trkpt lat="43.89539" lon="7.41718">
        <ele>432.2</ele>
        <time>2024-07-09T05:49:24Z</time>
      </trkpt>
      <trkpt lat="43.89541" lon="7.41716">
        <ele>432.2</ele>
        <time>2024-07-09T05:49:25Z</time>
      </trkpt>
      <trkpt lat="43.89542" lon="7.41714">
        <ele>432.2</ele>
        <time>2024-07-09T05:49:26Z</time>
      </trkpt>
      <trkpt lat="43.89544" lon="7.41712">
        <ele>432.6</ele>
        <time>2024-07-09T05:49:27Z</time>
      </trkpt>
      <trkpt lat="43.89546" lon="7.4171">
        <ele>432.8</ele>
        <time>2024-07-09T05:49:28Z</time>
      </trkpt>
      <trkpt lat="43.89547" lon="7.41709">
        <ele>432.8</ele>
        <time>2024-07-09T05:49:29Z</time>
      </trkpt>
      <trkpt lat="43.89548" lon="7.41707">
        <ele>432.8</ele>
        <time>2024-07-09T05:49:30Z</time>
      </trkpt>
      <trkpt lat="43.8955" lon="7.41705">
        <ele>432.8</ele>
        <time>2024-07-09T05:49:31Z</time>
      </trkpt>
      <trkpt lat="43.89552" lon="7.41704">
        <ele>433.2</ele>
        <time>2024-07-09T05:49:32Z</time>
      </trkpt>
      <trkpt lat="43.89553" lon="7.41703">
        <ele>433.2</ele>
        <time>2024-07-09T05:49:33Z</time>
      </trkpt>
      <trkpt lat="43.89555" lon="7.41701">
        <ele>433.2</ele>
        <time>2024-07-09T05:49:34Z</time>
      </trkpt>
      <trkpt lat="43.89557" lon="7.41699">
        <ele>433.2</ele>
        <time>2024-07-09T05:49:35Z</time>
      </trkpt>
      <trkpt lat="43.89559" lon="7.41698">
        <ele>433.2</ele>
        <time>2024-07-09T05:49:36Z</time>
      </trkpt>
      <trkpt lat="43.89561" lon="7.41698">
        <ele>434</ele>
        <time>2024-07-09T05:49:37Z</time>
      </trkpt>
      <trkpt lat="43.89563" lon="7.41696">
        <ele>434</ele>
        <time>2024-07-09T05:49:38Z</time>
      </trkpt>
      <trkpt lat="43.89564" lon="7.41695">
        <ele>434</ele>
        <time>2024-07-09T05:49:39Z</time>
      </trkpt>
      <trkpt lat="43.89566" lon="7.41694">
        <ele>434.2</ele>
        <time>2024-07-09T05:49:40Z</time>
      </trkpt>
      <trkpt lat="43.89568" lon="7.41692">
        <ele>434.4</ele>
        <time>2024-07-09T05:49:41Z</time>
      </trkpt>
      <trkpt lat="43.8957" lon="7.41691">
        <ele>434.4</ele>
        <time>2024-07-09T05:49:42Z</time>
      </trkpt>
      <trkpt lat="43.89572" lon="7.41689">
        <ele>434.4</ele>
        <time>2024-07-09T05:49:43Z</time>
      </trkpt>
      <trkpt lat="43.89574" lon="7.41688">
        <ele>434.8</ele>
        <time>2024-07-09T05:49:44Z</time>
      </trkpt>
      <trkpt lat="43.89576" lon="7.41687">
        <ele>434.8</ele>
        <time>2024-07-09T05:49:45Z</time>
      </trkpt>
      <trkpt lat="43.89578" lon="7.41685">
        <ele>434.8</ele>
        <time>2024-07-09T05:49:46Z</time>
      </trkpt>
      <trkpt lat="43.8958" lon="7.41684">
        <ele>434.8</ele>
        <time>2024-07-09T05:49:47Z</time>
      </trkpt>
      <trkpt lat="43.89582" lon="7.41683">
        <ele>434.8</ele>
        <time>2024-07-09T05:49:48Z</time>
      </trkpt>
      <trkpt lat="43.89584" lon="7.41682">
        <ele>435</ele>
        <time>2024-07-09T05:49:49Z</time>
      </trkpt>
      <trkpt lat="43.89586" lon="7.41681">
        <ele>435.4</ele>
        <time>2024-07-09T05:49:50Z</time>
      </trkpt>
      <trkpt lat="43.89588" lon="7.4168">
        <ele>435.4</ele>
        <time>2024-07-09T05:49:51Z</time>
      </trkpt>
      <trkpt lat="43.89591" lon="7.41679">
        <ele>435.4</ele>
        <time>2024-07-09T05:49:52Z</time>
      </trkpt>
      <trkpt lat="43.89593" lon="7.41678">
        <ele>435.8</ele>
        <time>2024-07-09T05:49:53Z</time>
      </trkpt>
      <trkpt lat="43.89594" lon="7.41677">
        <ele>436</ele>
        <time>2024-07-09T05:49:54Z</time>
      </trkpt>
      <trkpt lat="43.89596" lon="7.41677">
        <ele>436</ele>
        <time>2024-07-09T05:49:55Z</time>
      </trkpt>
      <trkpt lat="43.89598" lon="7.41676">
        <ele>436</ele>
        <time>2024-07-09T05:49:56Z</time>
      </trkpt>
      <trkpt lat="43.896" lon="7.41675">
        <ele>436</ele>
        <time>2024-07-09T05:49:57Z</time>
      </trkpt>
      <trkpt lat="43.89602" lon="7.41675">
        <ele>436.4</ele>
        <time>2024-07-09T05:49:58Z</time>
      </trkpt>
      <trkpt lat="43.89604" lon="7.41674">
        <ele>436.4</ele>
        <time>2024-07-09T05:49:59Z</time>
      </trkpt>
      <trkpt lat="43.89606" lon="7.41674">
        <ele>436.4</ele>
        <time>2024-07-09T05:50:00Z</time>
      </trkpt>
      <trkpt lat="43.89607" lon="7.41673">
        <ele>436.4</ele>
        <time>2024-07-09T05:50:01Z</time>
      </trkpt>
      <trkpt lat="43.89609" lon="7.41673">
        <ele>436.4</ele>
        <time>2024-07-09T05:50:02Z</time>
      </trkpt>
      <trkpt lat="43.89611" lon="7.41672">
        <ele>437.2</ele>
        <time>2024-07-09T05:50:03Z</time>
      </trkpt>
      <trkpt lat="43.89613" lon="7.41672">
        <ele>437.2</ele>
        <time>2024-07-09T05:50:04Z</time>
      </trkpt>
      <trkpt lat="43.89614" lon="7.41671">
        <ele>437.2</ele>
        <time>2024-07-09T05:50:05Z</time>
      </trkpt>
      <trkpt lat="43.89616" lon="7.4167">
        <ele>437.2</ele>
        <time>2024-07-09T05:50:06Z</time>
      </trkpt>
      <trkpt lat="43.89618" lon="7.41671">
        <ele>437.8</ele>
        <time>2024-07-09T05:50:07Z</time>
      </trkpt>
      <trkpt lat="43.89619" lon="7.4167">
        <ele>437.8</ele>
        <time>2024-07-09T05:50:08Z</time>
      </trkpt>
      <trkpt lat="43.8962" lon="7.4167">
        <ele>438</ele>
        <time>2024-07-09T05:50:09Z</time>
      </trkpt>
      <trkpt lat="43.89621" lon="7.41669">
        <ele>438</ele>
        <time>2024-07-09T05:50:10Z</time>
      </trkpt>
      <trkpt lat="43.89622" lon="7.41668">
        <ele>438</ele>
        <time>2024-07-09T05:50:11Z</time>
      </trkpt>
      <trkpt lat="43.89623" lon="7.41668">
        <ele>438.6</ele>
        <time>2024-07-09T05:50:12Z</time>
      </trkpt>
      <trkpt lat="43.89624" lon="7.41668">
        <ele>438.8</ele>
        <time>2024-07-09T05:50:13Z</time>
      </trkpt>
      <trkpt lat="43.89625" lon="7.41669">
        <ele>438.8</ele>
        <time>2024-07-09T05:50:14Z</time>
      </trkpt>
      <trkpt lat="43.89627" lon="7.41668">
        <ele>438.8</ele>
        <time>2024-07-09T05:50:15Z</time>
      </trkpt>
      <trkpt lat="43.89628" lon="7.41668">
        <ele>439.2</ele>
        <time>2024-07-09T05:50:16Z</time>
      </trkpt>
      <trkpt lat="43.8963" lon="7.41667">
        <ele>439.2</ele>
        <time>2024-07-09T05:50:17Z</time>
      </trkpt>
      <trkpt lat="43.89631" lon="7.41667">
        <ele>439.4</ele>
        <time>2024-07-09T05:50:18Z</time>
      </trkpt>
      <trkpt lat="43.89632" lon="7.41667">
        <ele>439.4</ele>
        <time>2024-07-09T05:50:19Z</time>
      </trkpt>
      <trkpt lat="43.89634" lon="7.41667">
        <ele>439.4</ele>
        <time>2024-07-09T05:50:20Z</time>
      </trkpt>
      <trkpt lat="43.89635" lon="7.41667">
        <ele>439.8</ele>
        <time>2024-07-09T05:50:21Z</time>
      </trkpt>
      <trkpt lat="43.89636" lon="7.41666">
        <ele>439.8</ele>
        <time>2024-07-09T05:50:22Z</time>
      </trkpt>
      <trkpt lat="43.89638" lon="7.41666">
        <ele>439.8</ele>
        <time>2024-07-09T05:50:23Z</time>
      </trkpt>
      <trkpt lat="43.89639" lon="7.41666">
        <ele>439.8</ele>
        <time>2024-07-09T05:50:24Z</time>
      </trkpt>
      <trkpt lat="43.89641" lon="7.41665">
        <ele>440.4</ele>
        <time>2024-07-09T05:50:25Z</time>
      </trkpt>
      <trkpt lat="43.89642" lon="7.41665">
        <ele>440.4</ele>
        <time>2024-07-09T05:50:26Z</time>
      </trkpt>
      <trkpt lat="43.89643" lon="7.41664">
        <ele>440.4</ele>
        <time>2024-07-09T05:50:27Z</time>
      </trkpt>
      <trkpt lat="43.89643" lon="7.41664">
        <ele>440.4</ele>
        <time>2024-07-09T05:50:28Z</time>
      </trkpt>
      <trkpt lat="43.89643" lon="7.41664">
        <ele>440.8</ele>
        <time>2024-07-09T05:50:29Z</time>
      </trkpt>
      <trkpt lat="43.89645" lon="7.41663">
        <ele>440.8</ele>
        <time>2024-07-09T05:50:30Z</time>
      </trkpt>
      <trkpt lat="43.89647" lon="7.41663">
        <ele>441</ele>
        <time>2024-07-09T05:50:31Z</time>
      </trkpt>
      <trkpt lat="43.89649" lon="7.41663">
        <ele>441</ele>
        <time>2024-07-09T05:50:32Z</time>
      </trkpt>
      <trkpt lat="43.8965" lon="7.41663">
        <ele>441</ele>
        <time>2024-07-09T05:50:33Z</time>
      </trkpt>
      <trkpt lat="43.89651" lon="7.41663">
        <ele>441.4</ele>
        <time>2024-07-09T05:50:34Z</time>
      </trkpt>
      <trkpt lat="43.89652" lon="7.41662">
        <ele>441.6</ele>
        <time>2024-07-09T05:50:35Z</time>
      </trkpt>
      <trkpt lat="43.89654" lon="7.41662">
        <ele>441.6</ele>
        <time>2024-07-09T05:50:36Z</time>
      </trkpt>
      <trkpt lat="43.89656" lon="7.41661">
        <ele>441.6</ele>
        <time>2024-07-09T05:50:37Z</time>
      </trkpt>
      <trkpt lat="43.89658" lon="7.41662">
        <ele>441.6</ele>
        <time>2024-07-09T05:50:38Z</time>
      </trkpt>
      <trkpt lat="43.89659" lon="7.41661">
        <ele>442</ele>
        <time>2024-07-09T05:50:39Z</time>
      </trkpt>
      <trkpt lat="43.89661" lon="7.4166">
        <ele>442</ele>
        <time>2024-07-09T05:50:40Z</time>
      </trkpt>
      <trkpt lat="43.89663" lon="7.41659">
        <ele>442</ele>
        <time>2024-07-09T05:50:41Z</time>
      </trkpt>
      <trkpt lat="43.89664" lon="7.41658">
        <ele>442</ele>
        <time>2024-07-09T05:50:42Z</time>
      </trkpt>
      <trkpt lat="43.89666" lon="7.41657">
        <ele>442.4</ele>
        <time>2024-07-09T05:50:43Z</time>
      </trkpt>
      <trkpt lat="43.89669" lon="7.41656">
        <ele>442.4</ele>
        <time>2024-07-09T05:50:44Z</time>
      </trkpt>
      <trkpt lat="43.89671" lon="7.41654">
        <ele>442.6</ele>
        <time>2024-07-09T05:50:45Z</time>
      </trkpt>
      <trkpt lat="43.89674" lon="7.41652">
        <ele>442.6</ele>
        <time>2024-07-09T05:50:46Z</time>
      </trkpt>
      <trkpt lat="43.89677" lon="7.41651">
        <ele>442.6</ele>
        <time>2024-07-09T05:50:47Z</time>
      </trkpt>
      <trkpt lat="43.89679" lon="7.4165">
        <ele>443</ele>
        <time>2024-07-09T05:50:48Z</time>
      </trkpt>
      <trkpt lat="43.89682" lon="7.41649">
        <ele>443</ele>
        <time>2024-07-09T05:50:49Z</time>
      </trkpt>
      <trkpt lat="43.89684" lon="7.41648">
        <ele>443</ele>
        <time>2024-07-09T05:50:50Z</time>
      </trkpt>
      <trkpt lat="43.89686" lon="7.41647">
        <ele>443</ele>
        <time>2024-07-09T05:50:51Z</time>
      </trkpt>
      <trkpt lat="43.89687" lon="7.41646">
        <ele>443.6</ele>
        <time>2024-07-09T05:50:52Z</time>
      </trkpt>
      <trkpt lat="43.89689" lon="7.41645">
        <ele>443.6</ele>
        <time>2024-07-09T05:50:53Z</time>
      </trkpt>
      <trkpt lat="43.89691" lon="7.41643">
        <ele>443.6</ele>
        <time>2024-07-09T05:50:54Z</time>
      </trkpt>
      <trkpt lat="43.89692" lon="7.41642">
        <ele>443.6</ele>
        <time>2024-07-09T05:50:55Z</time>
      </trkpt>
      <trkpt lat="43.89694" lon="7.4164">
        <ele>443.6</ele>
        <time>2024-07-09T05:50:56Z</time>
      </trkpt>
      <trkpt lat="43.89696" lon="7.41639">
        <ele>444</ele>
        <time>2024-07-09T05:50:57Z</time>
      </trkpt>
      <trkpt lat="43.89698" lon="7.41639">
        <ele>444.2</ele>
        <time>2024-07-09T05:50:58Z</time>
      </trkpt>
      <trkpt lat="43.89699" lon="7.41638">
        <ele>444.2</ele>
        <time>2024-07-09T05:50:59Z</time>
      </trkpt>
      <trkpt lat="43.89701" lon="7.41638">
        <ele>444.2</ele>
        <time>2024-07-09T05:51:00Z</time>
      </trkpt>
      <trkpt lat="43.89703" lon="7.41637">
        <ele>444.6</ele>
        <time>2024-07-09T05:51:01Z</time>
      </trkpt>
      <trkpt lat="43.89705" lon="7.41636">
        <ele>444.6</ele>
        <time>2024-07-09T05:51:02Z</time>
      </trkpt>
      <trkpt lat="43.89706" lon="7.41635">
        <ele>444.8</ele>
        <time>2024-07-09T05:51:03Z</time>
      </trkpt>
      <trkpt lat="43.89709" lon="7.41634">
        <ele>444.8</ele>
        <time>2024-07-09T05:51:04Z</time>
      </trkpt>
      <trkpt lat="43.8971" lon="7.41633">
        <ele>445.2</ele>
        <time>2024-07-09T05:51:05Z</time>
      </trkpt>
      <trkpt lat="43.89712" lon="7.41632">
        <ele>445.2</ele>
        <time>2024-07-09T05:51:06Z</time>
      </trkpt>
      <trkpt lat="43.89714" lon="7.41631">
        <ele>445.2</ele>
        <time>2024-07-09T05:51:07Z</time>
      </trkpt>
      <trkpt lat="43.89716" lon="7.4163">
        <ele>445.2</ele>
        <time>2024-07-09T05:51:08Z</time>
      </trkpt>
      <trkpt lat="43.89718" lon="7.41628">
        <ele>445.2</ele>
        <time>2024-07-09T05:51:09Z</time>
      </trkpt>
      <trkpt lat="43.8972" lon="7.41627">
        <ele>445.6</ele>
        <time>2024-07-09T05:51:10Z</time>
      </trkpt>
      <trkpt lat="43.89721" lon="7.41626">
        <ele>445.8</ele>
        <time>2024-07-09T05:51:11Z</time>
      </trkpt>
      <trkpt lat="43.89723" lon="7.41625">
        <ele>445.8</ele>
        <time>2024-07-09T05:51:12Z</time>
      </trkpt>
      <trkpt lat="43.89725" lon="7.41624">
        <ele>445.8</ele>
        <time>2024-07-09T05:51:13Z</time>
      </trkpt>
      <trkpt lat="43.89727" lon="7.41622">
        <ele>446</ele>
        <time>2024-07-09T05:51:14Z</time>
      </trkpt>
      <trkpt lat="43.89728" lon="7.41621">
        <ele>446</ele>
        <time>2024-07-09T05:51:15Z</time>
      </trkpt>
      <trkpt lat="43.8973" lon="7.41619">
        <ele>446.2</ele>
        <time>2024-07-09T05:51:16Z</time>
      </trkpt>
      <trkpt lat="43.89731" lon="7.41617">
        <ele>446.2</ele>
        <time>2024-07-09T05:51:17Z</time>
      </trkpt>
      <trkpt lat="43.89733" lon="7.41616">
        <ele>446.6</ele>
        <time>2024-07-09T05:51:18Z</time>
      </trkpt>
      <trkpt lat="43.89734" lon="7.41614">
        <ele>446.6</ele>
        <time>2024-07-09T05:51:19Z</time>
      </trkpt>
      <trkpt lat="43.89736" lon="7.41612">
        <ele>446.8</ele>
        <time>2024-07-09T05:51:20Z</time>
      </trkpt>
      <trkpt lat="43.89737" lon="7.41609">
        <ele>446.8</ele>
        <time>2024-07-09T05:51:21Z</time>
      </trkpt>
      <trkpt lat="43.89739" lon="7.41607">
        <ele>446.8</ele>
        <time>2024-07-09T05:51:22Z</time>
      </trkpt>
      <trkpt lat="43.8974" lon="7.41605">
        <ele>446.8</ele>
        <time>2024-07-09T05:51:23Z</time>
      </trkpt>
      <trkpt lat="43.89741" lon="7.41603">
        <ele>447.2</ele>
        <time>2024-07-09T05:51:24Z</time>
      </trkpt>
      <trkpt lat="43.89742" lon="7.41601">
        <ele>447.4</ele>
        <time>2024-07-09T05:51:25Z</time>
      </trkpt>
      <trkpt lat="43.89743" lon="7.416">
        <ele>447.4</ele>
        <time>2024-07-09T05:51:26Z</time>
      </trkpt>
      <trkpt lat="43.89744" lon="7.41598">
        <ele>447.4</ele>
        <time>2024-07-09T05:51:27Z</time>
      </trkpt>
      <trkpt lat="43.89744" lon="7.41596">
        <ele>448.2</ele>
        <time>2024-07-09T05:51:28Z</time>
      </trkpt>
      <trkpt lat="43.89744" lon="7.41594">
        <ele>448.4</ele>
        <time>2024-07-09T05:51:29Z</time>
      </trkpt>
      <trkpt lat="43.89744" lon="7.41592">
        <ele>448.4</ele>
        <time>2024-07-09T05:51:30Z</time>
      </trkpt>
      <trkpt lat="43.89744" lon="7.41589">
        <ele>448.4</ele>
        <time>2024-07-09T05:51:31Z</time>
      </trkpt>
      <trkpt lat="43.89745" lon="7.41588">
        <ele>448.8</ele>
        <time>2024-07-09T05:51:32Z</time>
      </trkpt>
      <trkpt lat="43.89745" lon="7.41586">
        <ele>449</ele>
        <time>2024-07-09T05:51:33Z</time>
      </trkpt>
      <trkpt lat="43.89746" lon="7.41584">
        <ele>449</ele>
        <time>2024-07-09T05:51:34Z</time>
      </trkpt>
      <trkpt lat="43.89746" lon="7.41582">
        <ele>449</ele>
        <time>2024-07-09T05:51:35Z</time>
      </trkpt>
      <trkpt lat="43.89746" lon="7.4158">
        <ele>449</ele>
        <time>2024-07-09T05:51:36Z</time>
      </trkpt>
      <trkpt lat="43.89746" lon="7.41578">
        <ele>449.4</ele>
        <time>2024-07-09T05:51:37Z</time>
      </trkpt>
      <trkpt lat="43.89746" lon="7.41576">
        <ele>449.6</ele>
        <time>2024-07-09T05:51:38Z</time>
      </trkpt>
      <trkpt lat="43.89746" lon="7.41574">
        <ele>449.6</ele>
        <time>2024-07-09T05:51:39Z</time>
      </trkpt>
      <trkpt lat="43.89745" lon="7.41572">
        <ele>449.6</ele>
        <time>2024-07-09T05:51:40Z</time>
      </trkpt>
      <trkpt lat="43.89745" lon="7.41569">
        <ele>449.6</ele>
        <time>2024-07-09T05:51:41Z</time>
      </trkpt>
      <trkpt lat="43.89745" lon="7.41567">
        <ele>450.2</ele>
        <time>2024-07-09T05:51:42Z</time>
      </trkpt>
      <trkpt lat="43.89746" lon="7.41565">
        <ele>450.2</ele>
        <time>2024-07-09T05:51:43Z</time>
      </trkpt>
      <trkpt lat="43.89746" lon="7.41562">
        <ele>450.2</ele>
        <time>2024-07-09T05:51:44Z</time>
      </trkpt>
      <trkpt lat="43.89745" lon="7.4156">
        <ele>450.2</ele>
        <time>2024-07-09T05:51:45Z</time>
      </trkpt>
      <trkpt lat="43.89745" lon="7.41558">
        <ele>450.8</ele>
        <time>2024-07-09T05:51:46Z</time>
      </trkpt>
      <trkpt lat="43.89745" lon="7.41555">
        <ele>450.8</ele>
        <time>2024-07-09T05:51:47Z</time>
      </trkpt>
      <trkpt lat="43.89745" lon="7.41553">
        <ele>450.8</ele>
        <time>2024-07-09T05:51:48Z</time>
      </trkpt>
      <trkpt lat="43.89745" lon="7.4155">
        <ele>450.8</ele>
        <time>2024-07-09T05:51:49Z</time>
      </trkpt>
      <trkpt lat="43.89745" lon="7.41547">
        <ele>450.8</ele>
        <time>2024-07-09T05:51:50Z</time>
      </trkpt>
      <trkpt lat="43.89746" lon="7.41544">
        <ele>451.2</ele>
        <time>2024-07-09T05:51:51Z</time>
      </trkpt>
      <trkpt lat="43.89747" lon="7.41542">
        <ele>451.2</ele>
        <time>2024-07-09T05:51:52Z</time>
      </trkpt>
      <trkpt lat="43.89748" lon="7.4154">
        <ele>451.2</ele>
        <time>2024-07-09T05:51:53Z</time>
      </trkpt>
      <trkpt lat="43.89749" lon="7.41538">
        <ele>451.2</ele>
        <time>2024-07-09T05:51:54Z</time>
      </trkpt>
      <trkpt lat="43.8975" lon="7.41536">
        <ele>451.6</ele>
        <time>2024-07-09T05:51:55Z</time>
      </trkpt>
      <trkpt lat="43.89751" lon="7.41534">
        <ele>451.6</ele>
        <time>2024-07-09T05:51:56Z</time>
      </trkpt>
      <trkpt lat="43.89752" lon="7.41531">
        <ele>451.6</ele>
        <time>2024-07-09T05:51:57Z</time>
      </trkpt>
      <trkpt lat="43.89753" lon="7.41529">
        <ele>451.6</ele>
        <time>2024-07-09T05:51:58Z</time>
      </trkpt>
      <trkpt lat="43.89754" lon="7.41527">
        <ele>451.6</ele>
        <time>2024-07-09T05:51:59Z</time>
      </trkpt>
      <trkpt lat="43.89755" lon="7.41525">
        <ele>452</ele>
        <time>2024-07-09T05:52:00Z</time>
      </trkpt>
      <trkpt lat="43.89756" lon="7.41523">
        <ele>452</ele>
        <time>2024-07-09T05:52:01Z</time>
      </trkpt>
      <trkpt lat="43.89757" lon="7.4152">
        <ele>452</ele>
        <time>2024-07-09T05:52:02Z</time>
      </trkpt>
      <trkpt lat="43.89758" lon="7.41517">
        <ele>452</ele>
        <time>2024-07-09T05:52:03Z</time>
      </trkpt>
      <trkpt lat="43.89759" lon="7.41515">
        <ele>452.2</ele>
        <time>2024-07-09T05:52:04Z</time>
      </trkpt>
      <trkpt lat="43.89761" lon="7.41512">
        <ele>452.4</ele>
        <time>2024-07-09T05:52:05Z</time>
      </trkpt>
      <trkpt lat="43.89762" lon="7.41511">
        <ele>452.4</ele>
        <time>2024-07-09T05:52:06Z</time>
      </trkpt>
      <trkpt lat="43.89764" lon="7.41509">
        <ele>452.4</ele>
        <time>2024-07-09T05:52:07Z</time>
      </trkpt>
      <trkpt lat="43.89766" lon="7.41507">
        <ele>452.8</ele>
        <time>2024-07-09T05:52:08Z</time>
      </trkpt>
      <trkpt lat="43.89768" lon="7.41504">
        <ele>452.8</ele>
        <time>2024-07-09T05:52:09Z</time>
      </trkpt>
      <trkpt lat="43.89769" lon="7.41502">
        <ele>452.8</ele>
        <time>2024-07-09T05:52:10Z</time>
      </trkpt>
      <trkpt lat="43.8977" lon="7.41499">
        <ele>452.8</ele>
        <time>2024-07-09T05:52:11Z</time>
      </trkpt>
      <trkpt lat="43.89772" lon="7.41497">
        <ele>452.8</ele>
        <time>2024-07-09T05:52:12Z</time>
      </trkpt>
      <trkpt lat="43.89773" lon="7.41495">
        <ele>453.2</ele>
        <time>2024-07-09T05:52:13Z</time>
      </trkpt>
      <trkpt lat="43.89774" lon="7.41493">
        <ele>453.2</ele>
        <time>2024-07-09T05:52:14Z</time>
      </trkpt>
      <trkpt lat="43.89775" lon="7.41491">
        <ele>453.2</ele>
        <time>2024-07-09T05:52:15Z</time>
      </trkpt>
      <trkpt lat="43.89777" lon="7.41489">
        <ele>453.2</ele>
        <time>2024-07-09T05:52:16Z</time>
      </trkpt>
      <trkpt lat="43.89779" lon="7.41488">
        <ele>453.4</ele>
        <time>2024-07-09T05:52:17Z</time>
      </trkpt>
      <trkpt lat="43.89781" lon="7.41486">
        <ele>453.4</ele>
        <time>2024-07-09T05:52:18Z</time>
      </trkpt>
      <trkpt lat="43.89784" lon="7.41485">
        <ele>453.6</ele>
        <time>2024-07-09T05:52:19Z</time>
      </trkpt>
      <trkpt lat="43.89786" lon="7.41483">
        <ele>453.6</ele>
        <time>2024-07-09T05:52:20Z</time>
      </trkpt>
      <trkpt lat="43.89789" lon="7.41481">
        <ele>453.8</ele>
        <time>2024-07-09T05:52:21Z</time>
      </trkpt>
      <trkpt lat="43.89791" lon="7.41479">
        <ele>453.8</ele>
        <time>2024-07-09T05:52:22Z</time>
      </trkpt>
      <trkpt lat="43.89793" lon="7.41478">
        <ele>453.8</ele>
        <time>2024-07-09T05:52:23Z</time>
      </trkpt>
      <trkpt lat="43.89796" lon="7.41477">
        <ele>453.8</ele>
        <time>2024-07-09T05:52:24Z</time>
      </trkpt>
      <trkpt lat="43.89798" lon="7.41476">
        <ele>453.8</ele>
        <time>2024-07-09T05:52:25Z</time>
      </trkpt>
      <trkpt lat="43.898" lon="7.41475">
        <ele>453.8</ele>
        <time>2024-07-09T05:52:26Z</time>
      </trkpt>
      <trkpt lat="43.89803" lon="7.41474">
        <ele>453.8</ele>
        <time>2024-07-09T05:52:27Z</time>
      </trkpt>
      <trkpt lat="43.89805" lon="7.41474">
        <ele>453.8</ele>
        <time>2024-07-09T05:52:28Z</time>
      </trkpt>
      <trkpt lat="43.89808" lon="7.41474">
        <ele>454.2</ele>
        <time>2024-07-09T05:52:29Z</time>
      </trkpt>
      <trkpt lat="43.89811" lon="7.41474">
        <ele>454.2</ele>
        <time>2024-07-09T05:52:30Z</time>
      </trkpt>
      <trkpt lat="43.89813" lon="7.41476">
        <ele>454.2</ele>
        <time>2024-07-09T05:52:31Z</time>
      </trkpt>
      <trkpt lat="43.89816" lon="7.41478">
        <ele>454.2</ele>
        <time>2024-07-09T05:52:32Z</time>
      </trkpt>
      <trkpt lat="43.89818" lon="7.41481">
        <ele>454.2</ele>
        <time>2024-07-09T05:52:33Z</time>
      </trkpt>
      <trkpt lat="43.8982" lon="7.41484">
        <ele>454.8</ele>
        <time>2024-07-09T05:52:34Z</time>
      </trkpt>
      <trkpt lat="43.89822" lon="7.41487">
        <ele>455</ele>
        <time>2024-07-09T05:52:35Z</time>
      </trkpt>
      <trkpt lat="43.89824" lon="7.4149">
        <ele>455</ele>
        <time>2024-07-09T05:52:36Z</time>
      </trkpt>
      <trkpt lat="43.89826" lon="7.41492">
        <ele>455</ele>
        <time>2024-07-09T05:52:37Z</time>
      </trkpt>
      <trkpt lat="43.89828" lon="7.41493">
        <ele>455.4</ele>
        <time>2024-07-09T05:52:38Z</time>
      </trkpt>
      <trkpt lat="43.89831" lon="7.41495">
        <ele>455.4</ele>
        <time>2024-07-09T05:52:39Z</time>
      </trkpt>
      <trkpt lat="43.89833" lon="7.41496">
        <ele>455.6</ele>
        <time>2024-07-09T05:52:40Z</time>
      </trkpt>
      <trkpt lat="43.89835" lon="7.41496">
        <ele>455.6</ele>
        <time>2024-07-09T05:52:41Z</time>
      </trkpt>
      <trkpt lat="43.89838" lon="7.41497">
        <ele>455.6</ele>
        <time>2024-07-09T05:52:42Z</time>
      </trkpt>
      <trkpt lat="43.89841" lon="7.41498">
        <ele>456</ele>
        <time>2024-07-09T05:52:43Z</time>
      </trkpt>
      <trkpt lat="43.89843" lon="7.41498">
        <ele>456</ele>
        <time>2024-07-09T05:52:44Z</time>
      </trkpt>
      <trkpt lat="43.89846" lon="7.41498">
        <ele>456</ele>
        <time>2024-07-09T05:52:45Z</time>
      </trkpt>
      <trkpt lat="43.89848" lon="7.41498">
        <ele>456</ele>
        <time>2024-07-09T05:52:46Z</time>
      </trkpt>
      <trkpt lat="43.89851" lon="7.41498">
        <ele>456</ele>
        <time>2024-07-09T05:52:47Z</time>
      </trkpt>
      <trkpt lat="43.89853" lon="7.41498">
        <ele>456.6</ele>
        <time>2024-07-09T05:52:48Z</time>
      </trkpt>
      <trkpt lat="43.89855" lon="7.41497">
        <ele>456.4</ele>
        <time>2024-07-09T05:52:49Z</time>
      </trkpt>
      <trkpt lat="43.89858" lon="7.41496">
        <ele>456.4</ele>
        <time>2024-07-09T05:52:50Z</time>
      </trkpt>
      <trkpt lat="43.8986" lon="7.41495">
        <ele>456.4</ele>
        <time>2024-07-09T05:52:51Z</time>
      </trkpt>
      <trkpt lat="43.89863" lon="7.41493">
        <ele>457</ele>
        <time>2024-07-09T05:52:52Z</time>
      </trkpt>
      <trkpt lat="43.89864" lon="7.41492">
        <ele>456.8</ele>
        <time>2024-07-09T05:52:53Z</time>
      </trkpt>
      <trkpt lat="43.89867" lon="7.41491">
        <ele>456.8</ele>
        <time>2024-07-09T05:52:54Z</time>
      </trkpt>
      <trkpt lat="43.8987" lon="7.4149">
        <ele>456.8</ele>
        <time>2024-07-09T05:52:55Z</time>
      </trkpt>
      <trkpt lat="43.89872" lon="7.41489">
        <ele>457.4</ele>
        <time>2024-07-09T05:52:56Z</time>
      </trkpt>
      <trkpt lat="43.89875" lon="7.41487">
        <ele>457.4</ele>
        <time>2024-07-09T05:52:57Z</time>
      </trkpt>
      <trkpt lat="43.89877" lon="7.41485">
        <ele>457.4</ele>
        <time>2024-07-09T05:52:58Z</time>
      </trkpt>
      <trkpt lat="43.89881" lon="7.41484">
        <ele>457.4</ele>
        <time>2024-07-09T05:52:59Z</time>
      </trkpt>
      <trkpt lat="43.89883" lon="7.41483">
        <ele>458</ele>
        <time>2024-07-09T05:53:00Z</time>
      </trkpt>
      <trkpt lat="43.89886" lon="7.4148">
        <ele>458</ele>
        <time>2024-07-09T05:53:01Z</time>
      </trkpt>
      <trkpt lat="43.89889" lon="7.41478">
        <ele>458.2</ele>
        <time>2024-07-09T05:53:02Z</time>
      </trkpt>
      <trkpt lat="43.89891" lon="7.41476">
        <ele>458.2</ele>
        <time>2024-07-09T05:53:03Z</time>
      </trkpt>
      <trkpt lat="43.89893" lon="7.41474">
        <ele>458.2</ele>
        <time>2024-07-09T05:53:04Z</time>
      </trkpt>
      <trkpt lat="43.89895" lon="7.41473">
        <ele>458.2</ele>
        <time>2024-07-09T05:53:05Z</time>
      </trkpt>
      <trkpt lat="43.89898" lon="7.41471">
        <ele>458.2</ele>
        <time>2024-07-09T05:53:06Z</time>
      </trkpt>
      <trkpt lat="43.899" lon="7.41468">
        <ele>458.6</ele>
        <time>2024-07-09T05:53:07Z</time>
      </trkpt>
      <trkpt lat="43.89902" lon="7.41467">
        <ele>458.6</ele>
        <time>2024-07-09T05:53:08Z</time>
      </trkpt>
      <trkpt lat="43.89904" lon="7.41466">
        <ele>459</ele>
        <time>2024-07-09T05:53:09Z</time>
      </trkpt>
      <trkpt lat="43.89907" lon="7.41465">
        <ele>459</ele>
        <time>2024-07-09T05:53:10Z</time>
      </trkpt>
      <trkpt lat="43.8991" lon="7.41465">
        <ele>459</ele>
        <time>2024-07-09T05:53:11Z</time>
      </trkpt>
      <trkpt lat="43.89913" lon="7.41464">
        <ele>459</ele>
        <time>2024-07-09T05:53:12Z</time>
      </trkpt>
      <trkpt lat="43.89916" lon="7.41464">
        <ele>459</ele>
        <time>2024-07-09T05:53:13Z</time>
      </trkpt>
      <trkpt lat="43.89918" lon="7.41464">
        <ele>459.4</ele>
        <time>2024-07-09T05:53:14Z</time>
      </trkpt>
      <trkpt lat="43.89921" lon="7.41463">
        <ele>459.6</ele>
        <time>2024-07-09T05:53:15Z</time>
      </trkpt>
      <trkpt lat="43.89924" lon="7.41463">
        <ele>459.6</ele>
        <time>2024-07-09T05:53:16Z</time>
      </trkpt>
      <trkpt lat="43.89927" lon="7.41463">
        <ele>459.6</ele>
        <time>2024-07-09T05:53:17Z</time>
      </trkpt>
      <trkpt lat="43.8993" lon="7.41463">
        <ele>460</ele>
        <time>2024-07-09T05:53:18Z</time>
      </trkpt>
      <trkpt lat="43.89932" lon="7.41462">
        <ele>460</ele>
        <time>2024-07-09T05:53:19Z</time>
      </trkpt>
      <trkpt lat="43.89935" lon="7.41462">
        <ele>460</ele>
        <time>2024-07-09T05:53:20Z</time>
      </trkpt>
      <trkpt lat="43.89938" lon="7.41462">
        <ele>460</ele>
        <time>2024-07-09T05:53:21Z</time>
      </trkpt>
      <trkpt lat="43.89941" lon="7.41462">
        <ele>460.6</ele>
        <time>2024-07-09T05:53:22Z</time>
      </trkpt>
      <trkpt lat="43.89943" lon="7.41462">
        <ele>460.6</ele>
        <time>2024-07-09T05:53:23Z</time>
      </trkpt>
      <trkpt lat="43.89946" lon="7.41461">
        <ele>460.6</ele>
        <time>2024-07-09T05:53:24Z</time>
      </trkpt>
      <trkpt lat="43.89949" lon="7.41461">
        <ele>460.6</ele>
        <time>2024-07-09T05:53:25Z</time>
      </trkpt>
      <trkpt lat="43.89952" lon="7.41461">
        <ele>460.6</ele>
        <time>2024-07-09T05:53:26Z</time>
      </trkpt>
      <trkpt lat="43.89954" lon="7.41461">
        <ele>461</ele>
        <time>2024-07-09T05:53:27Z</time>
      </trkpt>
      <trkpt lat="43.89957" lon="7.41461">
        <ele>461</ele>
        <time>2024-07-09T05:53:28Z</time>
      </trkpt>
      <trkpt lat="43.89959" lon="7.41461">
        <ele>461.2</ele>
        <time>2024-07-09T05:53:29Z</time>
      </trkpt>
      <trkpt lat="43.89962" lon="7.41461">
        <ele>461.2</ele>
        <time>2024-07-09T05:53:30Z</time>
      </trkpt>
      <trkpt lat="43.89964" lon="7.41462">
        <ele>461.2</ele>
        <time>2024-07-09T05:53:31Z</time>
      </trkpt>
      <trkpt lat="43.89967" lon="7.41463">
        <ele>461.4</ele>
        <time>2024-07-09T05:53:32Z</time>
      </trkpt>
      <trkpt lat="43.8997" lon="7.41463">
        <ele>461.4</ele>
        <time>2024-07-09T05:53:33Z</time>
      </trkpt>
      <trkpt lat="43.89972" lon="7.41464">
        <ele>461.6</ele>
        <time>2024-07-09T05:53:34Z</time>
      </trkpt>
      <trkpt lat="43.89975" lon="7.41464">
        <ele>461.6</ele>
        <time>2024-07-09T05:53:35Z</time>
      </trkpt>
      <trkpt lat="43.89977" lon="7.41464">
        <ele>462</ele>
        <time>2024-07-09T05:53:36Z</time>
      </trkpt>
      <trkpt lat="43.8998" lon="7.41464">
        <ele>462</ele>
        <time>2024-07-09T05:53:37Z</time>
      </trkpt>
      <trkpt lat="43.89982" lon="7.41465">
        <ele>462</ele>
        <time>2024-07-09T05:53:38Z</time>
      </trkpt>
      <trkpt lat="43.89985" lon="7.41465">
        <ele>462</ele>
        <time>2024-07-09T05:53:39Z</time>
      </trkpt>
      <trkpt lat="43.89988" lon="7.41466">
        <ele>462</ele>
        <time>2024-07-09T05:53:40Z</time>
      </trkpt>
      <trkpt lat="43.8999" lon="7.41466">
        <ele>462.6</ele>
        <time>2024-07-09T05:53:41Z</time>
      </trkpt>
      <trkpt lat="43.89993" lon="7.41466">
        <ele>462.6</ele>
        <time>2024-07-09T05:53:42Z</time>
      </trkpt>
      <trkpt lat="43.89996" lon="7.41467">
        <ele>462.6</ele>
        <time>2024-07-09T05:53:43Z</time>
      </trkpt>
      <trkpt lat="43.89998" lon="7.41467">
        <ele>462.6</ele>
        <time>2024-07-09T05:53:44Z</time>
      </trkpt>
      <trkpt lat="43.9" lon="7.41468">
        <ele>463</ele>
        <time>2024-07-09T05:53:45Z</time>
      </trkpt>
      <trkpt lat="43.90003" lon="7.41468">
        <ele>463.4</ele>
        <time>2024-07-09T05:53:46Z</time>
      </trkpt>
      <trkpt lat="43.90005" lon="7.41468">
        <ele>463.4</ele>
        <time>2024-07-09T05:53:47Z</time>
      </trkpt>
      <trkpt lat="43.90007" lon="7.41469">
        <ele>463.4</ele>
        <time>2024-07-09T05:53:48Z</time>
      </trkpt>
      <trkpt lat="43.9001" lon="7.41469">
        <ele>463.6</ele>
        <time>2024-07-09T05:53:49Z</time>
      </trkpt>
      <trkpt lat="43.90012" lon="7.41469">
        <ele>463.6</ele>
        <time>2024-07-09T05:53:50Z</time>
      </trkpt>
      <trkpt lat="43.90015" lon="7.41469">
        <ele>463.8</ele>
        <time>2024-07-09T05:53:51Z</time>
      </trkpt>
      <trkpt lat="43.90018" lon="7.41469">
        <ele>463.8</ele>
        <time>2024-07-09T05:53:52Z</time>
      </trkpt>
      <trkpt lat="43.90021" lon="7.41468">
        <ele>463.8</ele>
        <time>2024-07-09T05:53:53Z</time>
      </trkpt>
      <trkpt lat="43.90024" lon="7.41468">
        <ele>464</ele>
        <time>2024-07-09T05:53:54Z</time>
      </trkpt>
      <trkpt lat="43.90026" lon="7.41468">
        <ele>464.2</ele>
        <time>2024-07-09T05:53:55Z</time>
      </trkpt>
      <trkpt lat="43.90029" lon="7.41468">
        <ele>464.2</ele>
        <time>2024-07-09T05:53:56Z</time>
      </trkpt>
      <trkpt lat="43.90032" lon="7.41468">
        <ele>464.2</ele>
        <time>2024-07-09T05:53:57Z</time>
      </trkpt>
      <trkpt lat="43.90035" lon="7.41467">
        <ele>464.2</ele>
        <time>2024-07-09T05:53:58Z</time>
      </trkpt>
      <trkpt lat="43.90038" lon="7.41467">
        <ele>465</ele>
        <time>2024-07-09T05:53:59Z</time>
      </trkpt>
      <trkpt lat="43.90041" lon="7.41467">
        <ele>465</ele>
        <time>2024-07-09T05:54:00Z</time>
      </trkpt>
      <trkpt lat="43.90043" lon="7.41467">
        <ele>465</ele>
        <time>2024-07-09T05:54:01Z</time>
      </trkpt>
      <trkpt lat="43.90046" lon="7.41467">
        <ele>465</ele>
        <time>2024-07-09T05:54:02Z</time>
      </trkpt>
      <trkpt lat="43.90049" lon="7.41467">
        <ele>465.2</ele>
        <time>2024-07-09T05:54:03Z</time>
      </trkpt>
      <trkpt lat="43.90051" lon="7.41467">
        <ele>465.4</ele>
        <time>2024-07-09T05:54:04Z</time>
      </trkpt>
      <trkpt lat="43.90053" lon="7.41466">
        <ele>465.4</ele>
        <time>2024-07-09T05:54:05Z</time>
      </trkpt>
      <trkpt lat="43.90056" lon="7.41466">
        <ele>465.4</ele>
        <time>2024-07-09T05:54:06Z</time>
      </trkpt>
      <trkpt lat="43.90058" lon="7.41465">
        <ele>465.6</ele>
        <time>2024-07-09T05:54:07Z</time>
      </trkpt>
      <trkpt lat="43.90061" lon="7.41465">
        <ele>466</ele>
        <time>2024-07-09T05:54:08Z</time>
      </trkpt>
      <trkpt lat="43.90063" lon="7.41464">
        <ele>466</ele>
        <time>2024-07-09T05:54:09Z</time>
      </trkpt>
      <trkpt lat="43.90066" lon="7.41464">
        <ele>466</ele>
        <time>2024-07-09T05:54:10Z</time>
      </trkpt>
      <trkpt lat="43.90068" lon="7.41463">
        <ele>466</ele>
        <time>2024-07-09T05:54:11Z</time>
      </trkpt>
      <trkpt lat="43.90071" lon="7.41462">
        <ele>466.4</ele>
        <time>2024-07-09T05:54:12Z</time>
      </trkpt>
      <trkpt lat="43.90073" lon="7.41462">
        <ele>466.4</ele>
        <time>2024-07-09T05:54:13Z</time>
      </trkpt>
      <trkpt lat="43.90076" lon="7.41461">
        <ele>466.6</ele>
        <time>2024-07-09T05:54:14Z</time>
      </trkpt>
      <trkpt lat="43.90078" lon="7.41461">
        <ele>466.6</ele>
        <time>2024-07-09T05:54:15Z</time>
      </trkpt>
      <trkpt lat="43.90081" lon="7.4146">
        <ele>466.6</ele>
        <time>2024-07-09T05:54:16Z</time>
      </trkpt>
      <trkpt lat="43.90083" lon="7.4146">
        <ele>467</ele>
        <time>2024-07-09T05:54:17Z</time>
      </trkpt>
      <trkpt lat="43.90086" lon="7.4146">
        <ele>467.2</ele>
        <time>2024-07-09T05:54:18Z</time>
      </trkpt>
      <trkpt lat="43.90088" lon="7.41459">
        <ele>467.2</ele>
        <time>2024-07-09T05:54:19Z</time>
      </trkpt>
      <trkpt lat="43.90091" lon="7.41459">
        <ele>467.2</ele>
        <time>2024-07-09T05:54:20Z</time>
      </trkpt>
      <trkpt lat="43.90093" lon="7.41458">
        <ele>467.4</ele>
        <time>2024-07-09T05:54:21Z</time>
      </trkpt>
      <trkpt lat="43.90095" lon="7.41458">
        <ele>467.6</ele>
        <time>2024-07-09T05:54:22Z</time>
      </trkpt>
      <trkpt lat="43.90098" lon="7.41457">
        <ele>467.6</ele>
        <time>2024-07-09T05:54:23Z</time>
      </trkpt>
      <trkpt lat="43.901" lon="7.41456">
        <ele>467.6</ele>
        <time>2024-07-09T05:54:24Z</time>
      </trkpt>
      <trkpt lat="43.90103" lon="7.41455">
        <ele>467.6</ele>
        <time>2024-07-09T05:54:25Z</time>
      </trkpt>
      <trkpt lat="43.90106" lon="7.41455">
        <ele>468</ele>
        <time>2024-07-09T05:54:26Z</time>
      </trkpt>
      <trkpt lat="43.90108" lon="7.41454">
        <ele>468.2</ele>
        <time>2024-07-09T05:54:27Z</time>
      </trkpt>
      <trkpt lat="43.90111" lon="7.41453">
        <ele>468.2</ele>
        <time>2024-07-09T05:54:28Z</time>
      </trkpt>
      <trkpt lat="43.90113" lon="7.41452">
        <ele>468.2</ele>
        <time>2024-07-09T05:54:29Z</time>
      </trkpt>
      <trkpt lat="43.90115" lon="7.41451">
        <ele>468.6</ele>
        <time>2024-07-09T05:54:30Z</time>
      </trkpt>
      <trkpt lat="43.90117" lon="7.41451">
        <ele>468.8</ele>
        <time>2024-07-09T05:54:31Z</time>
      </trkpt>
      <trkpt lat="43.90119" lon="7.4145">
        <ele>468.8</ele>
        <time>2024-07-09T05:54:32Z</time>
      </trkpt>
      <trkpt lat="43.90121" lon="7.41449">
        <ele>468.8</ele>
        <time>2024-07-09T05:54:33Z</time>
      </trkpt>
      <trkpt lat="43.90123" lon="7.41448">
        <ele>469.4</ele>
        <time>2024-07-09T05:54:34Z</time>
      </trkpt>
      <trkpt lat="43.90125" lon="7.41447">
        <ele>469.4</ele>
        <time>2024-07-09T05:54:35Z</time>
      </trkpt>
      <trkpt lat="43.90127" lon="7.41446">
        <ele>469.4</ele>
        <time>2024-07-09T05:54:36Z</time>
      </trkpt>
      <trkpt lat="43.90129" lon="7.41445">
        <ele>469.4</ele>
        <time>2024-07-09T05:54:37Z</time>
      </trkpt>
      <trkpt lat="43.90131" lon="7.41444">
        <ele>469.4</ele>
        <time>2024-07-09T05:54:38Z</time>
      </trkpt>
      <trkpt lat="43.90133" lon="7.41443">
        <ele>469.4</ele>
        <time>2024-07-09T05:54:39Z</time>
      </trkpt>
      <trkpt lat="43.90134" lon="7.41442">
        <ele>470</ele>
        <time>2024-07-09T05:54:40Z</time>
      </trkpt>
      <trkpt lat="43.90134" lon="7.41442">
        <ele>470</ele>
        <time>2024-07-09T05:54:41Z</time>
      </trkpt>
      <trkpt lat="43.90134" lon="7.41442">
        <ele>470</ele>
        <time>2024-07-09T05:54:42Z</time>
      </trkpt>
      <trkpt lat="43.90141" lon="7.41438">
        <ele>470</ele>
        <time>2024-07-09T05:55:29Z</time>
      </trkpt>
      <trkpt lat="43.90143" lon="7.41436">
        <ele>470</ele>
        <time>2024-07-09T05:55:30Z</time>
      </trkpt>
      <trkpt lat="43.90145" lon="7.41436">
        <ele>470.4</ele>
        <time>2024-07-09T05:55:31Z</time>
      </trkpt>
      <trkpt lat="43.90148" lon="7.41434">
        <ele>470.4</ele>
        <time>2024-07-09T05:55:32Z</time>
      </trkpt>
      <trkpt lat="43.90149" lon="7.41432">
        <ele>470.6</ele>
        <time>2024-07-09T05:55:33Z</time>
      </trkpt>
      <trkpt lat="43.90152" lon="7.4143">
        <ele>470.6</ele>
        <time>2024-07-09T05:55:34Z</time>
      </trkpt>
      <trkpt lat="43.90154" lon="7.41429">
        <ele>470.6</ele>
        <time>2024-07-09T05:55:35Z</time>
      </trkpt>
      <trkpt lat="43.90157" lon="7.41428">
        <ele>471</ele>
        <time>2024-07-09T05:55:36Z</time>
      </trkpt>
      <trkpt lat="43.90159" lon="7.41427">
        <ele>471</ele>
        <time>2024-07-09T05:55:37Z</time>
      </trkpt>
      <trkpt lat="43.90162" lon="7.41427">
        <ele>471</ele>
        <time>2024-07-09T05:55:38Z</time>
      </trkpt>
      <trkpt lat="43.90164" lon="7.41426">
        <ele>471</ele>
        <time>2024-07-09T05:55:39Z</time>
      </trkpt>
      <trkpt lat="43.90167" lon="7.41425">
        <ele>471.4</ele>
        <time>2024-07-09T05:55:40Z</time>
      </trkpt>
      <trkpt lat="43.90169" lon="7.41424">
        <ele>471.4</ele>
        <time>2024-07-09T05:55:41Z</time>
      </trkpt>
      <trkpt lat="43.90172" lon="7.41422">
        <ele>471.6</ele>
        <time>2024-07-09T05:55:42Z</time>
      </trkpt>
      <trkpt lat="43.90174" lon="7.41421">
        <ele>471.6</ele>
        <time>2024-07-09T05:55:43Z</time>
      </trkpt>
      <trkpt lat="43.90176" lon="7.41419">
        <ele>472.2</ele>
        <time>2024-07-09T05:55:44Z</time>
      </trkpt>
      <trkpt lat="43.90178" lon="7.41416">
        <ele>472.2</ele>
        <time>2024-07-09T05:55:45Z</time>
      </trkpt>
      <trkpt lat="43.9018" lon="7.41415">
        <ele>472.2</ele>
        <time>2024-07-09T05:55:46Z</time>
      </trkpt>
      <trkpt lat="43.90182" lon="7.41414">
        <ele>472.2</ele>
        <time>2024-07-09T05:55:47Z</time>
      </trkpt>
      <trkpt lat="43.90185" lon="7.41412">
        <ele>472.2</ele>
        <time>2024-07-09T05:55:48Z</time>
      </trkpt>
      <trkpt lat="43.90187" lon="7.41411">
        <ele>472.4</ele>
        <time>2024-07-09T05:55:49Z</time>
      </trkpt>
      <trkpt lat="43.90189" lon="7.4141">
        <ele>472.8</ele>
        <time>2024-07-09T05:55:50Z</time>
      </trkpt>
      <trkpt lat="43.90192" lon="7.41409">
        <ele>472.8</ele>
        <time>2024-07-09T05:55:51Z</time>
      </trkpt>
      <trkpt lat="43.90194" lon="7.41408">
        <ele>472.8</ele>
        <time>2024-07-09T05:55:52Z</time>
      </trkpt>
      <trkpt lat="43.90196" lon="7.41407">
        <ele>473.2</ele>
        <time>2024-07-09T05:55:53Z</time>
      </trkpt>
      <trkpt lat="43.90198" lon="7.41405">
        <ele>473.4</ele>
        <time>2024-07-09T05:55:54Z</time>
      </trkpt>
      <trkpt lat="43.902" lon="7.41404">
        <ele>473.4</ele>
        <time>2024-07-09T05:55:55Z</time>
      </trkpt>
      <trkpt lat="43.90202" lon="7.41402">
        <ele>473.4</ele>
        <time>2024-07-09T05:55:56Z</time>
      </trkpt>
      <trkpt lat="43.90204" lon="7.41401">
        <ele>473.4</ele>
        <time>2024-07-09T05:55:57Z</time>
      </trkpt>
      <trkpt lat="43.90206" lon="7.41399">
        <ele>473.8</ele>
        <time>2024-07-09T05:55:58Z</time>
      </trkpt>
      <trkpt lat="43.90208" lon="7.41397">
        <ele>473.8</ele>
        <time>2024-07-09T05:55:59Z</time>
      </trkpt>
      <trkpt lat="43.9021" lon="7.41395">
        <ele>473.8</ele>
        <time>2024-07-09T05:56:00Z</time>
      </trkpt>
      <trkpt lat="43.90213" lon="7.41394">
        <ele>473.8</ele>
        <time>2024-07-09T05:56:01Z</time>
      </trkpt>
      <trkpt lat="43.90215" lon="7.41393">
        <ele>473.8</ele>
        <time>2024-07-09T05:56:02Z</time>
      </trkpt>
      <trkpt lat="43.90217" lon="7.41392">
        <ele>474.4</ele>
        <time>2024-07-09T05:56:03Z</time>
      </trkpt>
      <trkpt lat="43.9022" lon="7.41391">
        <ele>474.6</ele>
        <time>2024-07-09T05:56:04Z</time>
      </trkpt>
      <trkpt lat="43.90222" lon="7.4139">
        <ele>474.6</ele>
        <time>2024-07-09T05:56:05Z</time>
      </trkpt>
      <trkpt lat="43.90224" lon="7.41391">
        <ele>474.6</ele>
        <time>2024-07-09T05:56:06Z</time>
      </trkpt>
      <trkpt lat="43.90227" lon="7.4139">
        <ele>474.6</ele>
        <time>2024-07-09T05:56:07Z</time>
      </trkpt>
      <trkpt lat="43.90229" lon="7.4139">
        <ele>475</ele>
        <time>2024-07-09T05:56:08Z</time>
      </trkpt>
      <trkpt lat="43.90232" lon="7.41391">
        <ele>475.4</ele>
        <time>2024-07-09T05:56:09Z</time>
      </trkpt>
      <trkpt lat="43.90234" lon="7.4139">
        <ele>475.4</ele>
        <time>2024-07-09T05:56:10Z</time>
      </trkpt>
      <trkpt lat="43.90237" lon="7.4139">
        <ele>475.4</ele>
        <time>2024-07-09T05:56:11Z</time>
      </trkpt>
      <trkpt lat="43.9024" lon="7.4139">
        <ele>476</ele>
        <time>2024-07-09T05:56:12Z</time>
      </trkpt>
      <trkpt lat="43.90242" lon="7.4139">
        <ele>475.8</ele>
        <time>2024-07-09T05:56:13Z</time>
      </trkpt>
      <trkpt lat="43.90245" lon="7.4139">
        <ele>475.8</ele>
        <time>2024-07-09T05:56:14Z</time>
      </trkpt>
      <trkpt lat="43.90247" lon="7.41389">
        <ele>475.8</ele>
        <time>2024-07-09T05:56:15Z</time>
      </trkpt>
      <trkpt lat="43.90249" lon="7.41388">
        <ele>475.8</ele>
        <time>2024-07-09T05:56:16Z</time>
      </trkpt>
      <trkpt lat="43.90252" lon="7.41387">
        <ele>476.2</ele>
        <time>2024-07-09T05:56:17Z</time>
      </trkpt>
      <trkpt lat="43.90254" lon="7.41386">
        <ele>476.2</ele>
        <time>2024-07-09T05:56:18Z</time>
      </trkpt>
      <trkpt lat="43.90257" lon="7.41386">
        <ele>476.2</ele>
        <time>2024-07-09T05:56:19Z</time>
      </trkpt>
      <trkpt lat="43.90259" lon="7.41385">
        <ele>476.2</ele>
        <time>2024-07-09T05:56:20Z</time>
      </trkpt>
      <trkpt lat="43.90261" lon="7.41385">
        <ele>476.6</ele>
        <time>2024-07-09T05:56:21Z</time>
      </trkpt>
      <trkpt lat="43.90264" lon="7.41384">
        <ele>476.8</ele>
        <time>2024-07-09T05:56:22Z</time>
      </trkpt>
      <trkpt lat="43.90266" lon="7.41384">
        <ele>476.8</ele>
        <time>2024-07-09T05:56:23Z</time>
      </trkpt>
      <trkpt lat="43.90269" lon="7.41383">
        <ele>476.8</ele>
        <time>2024-07-09T05:56:24Z</time>
      </trkpt>
      <trkpt lat="43.90271" lon="7.41382">
        <ele>477.2</ele>
        <time>2024-07-09T05:56:25Z</time>
      </trkpt>
      <trkpt lat="43.90274" lon="7.41381">
        <ele>477.4</ele>
        <time>2024-07-09T05:56:26Z</time>
      </trkpt>
      <trkpt lat="43.90277" lon="7.41381">
        <ele>477.4</ele>
        <time>2024-07-09T05:56:27Z</time>
      </trkpt>
      <trkpt lat="43.90279" lon="7.41381">
        <ele>477.4</ele>
        <time>2024-07-09T05:56:28Z</time>
      </trkpt>
      <trkpt lat="43.90282" lon="7.41381">
        <ele>477.4</ele>
        <time>2024-07-09T05:56:29Z</time>
      </trkpt>
      <trkpt lat="43.90284" lon="7.41381">
        <ele>477.4</ele>
        <time>2024-07-09T05:56:30Z</time>
      </trkpt>
      <trkpt lat="43.90287" lon="7.41381">
        <ele>477.8</ele>
        <time>2024-07-09T05:56:31Z</time>
      </trkpt>
      <trkpt lat="43.9029" lon="7.41381">
        <ele>477.8</ele>
        <time>2024-07-09T05:56:32Z</time>
      </trkpt>
      <trkpt lat="43.90292" lon="7.41382">
        <ele>477.8</ele>
        <time>2024-07-09T05:56:33Z</time>
      </trkpt>
      <trkpt lat="43.90294" lon="7.41381">
        <ele>478.4</ele>
        <time>2024-07-09T05:56:34Z</time>
      </trkpt>
      <trkpt lat="43.90296" lon="7.41381">
        <ele>478.4</ele>
        <time>2024-07-09T05:56:35Z</time>
      </trkpt>
      <trkpt lat="43.90299" lon="7.41381">
        <ele>478.4</ele>
        <time>2024-07-09T05:56:36Z</time>
      </trkpt>
      <trkpt lat="43.90301" lon="7.41382">
        <ele>478.4</ele>
        <time>2024-07-09T05:56:37Z</time>
      </trkpt>
      <trkpt lat="43.90303" lon="7.41381">
        <ele>478.4</ele>
        <time>2024-07-09T05:56:38Z</time>
      </trkpt>
      <trkpt lat="43.90306" lon="7.41382">
        <ele>478.4</ele>
        <time>2024-07-09T05:56:39Z</time>
      </trkpt>
      <trkpt lat="43.90308" lon="7.41382">
        <ele>479</ele>
        <time>2024-07-09T05:56:40Z</time>
      </trkpt>
      <trkpt lat="43.9031" lon="7.41382">
        <ele>479</ele>
        <time>2024-07-09T05:56:41Z</time>
      </trkpt>
      <trkpt lat="43.90313" lon="7.41383">
        <ele>479</ele>
        <time>2024-07-09T05:56:42Z</time>
      </trkpt>
      <trkpt lat="43.90315" lon="7.41384">
        <ele>479</ele>
        <time>2024-07-09T05:56:43Z</time>
      </trkpt>
      <trkpt lat="43.90317" lon="7.41385">
        <ele>479.2</ele>
        <time>2024-07-09T05:56:44Z</time>
      </trkpt>
      <trkpt lat="43.9032" lon="7.41386">
        <ele>479.6</ele>
        <time>2024-07-09T05:56:45Z</time>
      </trkpt>
      <trkpt lat="43.90322" lon="7.41386">
        <ele>479.6</ele>
        <time>2024-07-09T05:56:46Z</time>
      </trkpt>
      <trkpt lat="43.90324" lon="7.41386">
        <ele>479.6</ele>
        <time>2024-07-09T05:56:47Z</time>
      </trkpt>
      <trkpt lat="43.90327" lon="7.41387">
        <ele>480</ele>
        <time>2024-07-09T05:56:48Z</time>
      </trkpt>
      <trkpt lat="43.90329" lon="7.41387">
        <ele>480.2</ele>
        <time>2024-07-09T05:56:49Z</time>
      </trkpt>
      <trkpt lat="43.90331" lon="7.41387">
        <ele>480.2</ele>
        <time>2024-07-09T05:56:50Z</time>
      </trkpt>
      <trkpt lat="43.90334" lon="7.41387">
        <ele>480.2</ele>
        <time>2024-07-09T05:56:51Z</time>
      </trkpt>
      <trkpt lat="43.90336" lon="7.41388">
        <ele>480.6</ele>
        <time>2024-07-09T05:56:52Z</time>
      </trkpt>
      <trkpt lat="43.90339" lon="7.41388">
        <ele>480.6</ele>
        <time>2024-07-09T05:56:53Z</time>
      </trkpt>
      <trkpt lat="43.90341" lon="7.41388">
        <ele>480.6</ele>
        <time>2024-07-09T05:56:54Z</time>
      </trkpt>
      <trkpt lat="43.90343" lon="7.41388">
        <ele>480.6</ele>
        <time>2024-07-09T05:56:55Z</time>
      </trkpt>
      <trkpt lat="43.90346" lon="7.41388">
        <ele>480.6</ele>
        <time>2024-07-09T05:56:56Z</time>
      </trkpt>
      <trkpt lat="43.90348" lon="7.41388">
        <ele>481.2</ele>
        <time>2024-07-09T05:56:57Z</time>
      </trkpt>
      <trkpt lat="43.9035" lon="7.41389">
        <ele>481.2</ele>
        <time>2024-07-09T05:56:58Z</time>
      </trkpt>
      <trkpt lat="43.90353" lon="7.41389">
        <ele>481.2</ele>
        <time>2024-07-09T05:56:59Z</time>
      </trkpt>
      <trkpt lat="43.90355" lon="7.4139">
        <ele>481.2</ele>
        <time>2024-07-09T05:57:00Z</time>
      </trkpt>
      <trkpt lat="43.90357" lon="7.4139">
        <ele>481.6</ele>
        <time>2024-07-09T05:57:01Z</time>
      </trkpt>
      <trkpt lat="43.90359" lon="7.41391">
        <ele>481.8</ele>
        <time>2024-07-09T05:57:02Z</time>
      </trkpt>
      <trkpt lat="43.90362" lon="7.41392">
        <ele>481.8</ele>
        <time>2024-07-09T05:57:03Z</time>
      </trkpt>
      <trkpt lat="43.90363" lon="7.41393">
        <ele>481.8</ele>
        <time>2024-07-09T05:57:04Z</time>
      </trkpt>
      <trkpt lat="43.90365" lon="7.41393">
        <ele>481.8</ele>
        <time>2024-07-09T05:57:05Z</time>
      </trkpt>
      <trkpt lat="43.90367" lon="7.41394">
        <ele>482.2</ele>
        <time>2024-07-09T05:57:06Z</time>
      </trkpt>
      <trkpt lat="43.90368" lon="7.41394">
        <ele>482.2</ele>
        <time>2024-07-09T05:57:07Z</time>
      </trkpt>
      <trkpt lat="43.9037" lon="7.41394">
        <ele>482.2</ele>
        <time>2024-07-09T05:57:08Z</time>
      </trkpt>
      <trkpt lat="43.90372" lon="7.41394">
        <ele>482.2</ele>
        <time>2024-07-09T05:57:09Z</time>
      </trkpt>
      <trkpt lat="43.90375" lon="7.41395">
        <ele>482.8</ele>
        <time>2024-07-09T05:57:10Z</time>
      </trkpt>
      <trkpt lat="43.90378" lon="7.41396">
        <ele>483</ele>
        <time>2024-07-09T05:57:11Z</time>
      </trkpt>
      <trkpt lat="43.90381" lon="7.41396">
        <ele>483</ele>
        <time>2024-07-09T05:57:12Z</time>
      </trkpt>
      <trkpt lat="43.90383" lon="7.41396">
        <ele>483</ele>
        <time>2024-07-09T05:57:13Z</time>
      </trkpt>
      <trkpt lat="43.90386" lon="7.41396">
        <ele>483</ele>
        <time>2024-07-09T05:57:14Z</time>
      </trkpt>
      <trkpt lat="43.90388" lon="7.41398">
        <ele>483.4</ele>
        <time>2024-07-09T05:57:15Z</time>
      </trkpt>
      <trkpt lat="43.9039" lon="7.41399">
        <ele>483.4</ele>
        <time>2024-07-09T05:57:16Z</time>
      </trkpt>
      <trkpt lat="43.90392" lon="7.41399">
        <ele>483.4</ele>
        <time>2024-07-09T05:57:17Z</time>
      </trkpt>
      <trkpt lat="43.90395" lon="7.41399">
        <ele>483.4</ele>
        <time>2024-07-09T05:57:18Z</time>
      </trkpt>
      <trkpt lat="43.90397" lon="7.414">
        <ele>484</ele>
        <time>2024-07-09T05:57:19Z</time>
      </trkpt>
      <trkpt lat="43.90399" lon="7.414">
        <ele>484</ele>
        <time>2024-07-09T05:57:20Z</time>
      </trkpt>
      <trkpt lat="43.90402" lon="7.41401">
        <ele>484</ele>
        <time>2024-07-09T05:57:21Z</time>
      </trkpt>
      <trkpt lat="43.90404" lon="7.41401">
        <ele>484.4</ele>
        <time>2024-07-09T05:57:22Z</time>
      </trkpt>
      <trkpt lat="43.90406" lon="7.41402">
        <ele>484.4</ele>
        <time>2024-07-09T05:57:23Z</time>
      </trkpt>
      <trkpt lat="43.90408" lon="7.41403">
        <ele>484.4</ele>
        <time>2024-07-09T05:57:24Z</time>
      </trkpt>
      <trkpt lat="43.9041" lon="7.41404">
        <ele>484.4</ele>
        <time>2024-07-09T05:57:25Z</time>
      </trkpt>
      <trkpt lat="43.90412" lon="7.41405">
        <ele>484.4</ele>
        <time>2024-07-09T05:57:26Z</time>
      </trkpt>
      <trkpt lat="43.90414" lon="7.41406">
        <ele>484.4</ele>
        <time>2024-07-09T05:57:27Z</time>
      </trkpt>
      <trkpt lat="43.90416" lon="7.41407">
        <ele>484.8</ele>
        <time>2024-07-09T05:57:28Z</time>
      </trkpt>
      <trkpt lat="43.90418" lon="7.41408">
        <ele>485</ele>
        <time>2024-07-09T05:57:29Z</time>
      </trkpt>
      <trkpt lat="43.9042" lon="7.4141">
        <ele>485</ele>
        <time>2024-07-09T05:57:30Z</time>
      </trkpt>
      <trkpt lat="43.90423" lon="7.41412">
        <ele>485</ele>
        <time>2024-07-09T05:57:31Z</time>
      </trkpt>
      <trkpt lat="43.90425" lon="7.41413">
        <ele>485.6</ele>
        <time>2024-07-09T05:57:32Z</time>
      </trkpt>
      <trkpt lat="43.90427" lon="7.41415">
        <ele>485.6</ele>
        <time>2024-07-09T05:57:33Z</time>
      </trkpt>
      <trkpt lat="43.90429" lon="7.41417">
        <ele>485.6</ele>
        <time>2024-07-09T05:57:34Z</time>
      </trkpt>
      <trkpt lat="43.90432" lon="7.41418">
        <ele>485.6</ele>
        <time>2024-07-09T05:57:35Z</time>
      </trkpt>
      <trkpt lat="43.90434" lon="7.4142">
        <ele>486</ele>
        <time>2024-07-09T05:57:36Z</time>
      </trkpt>
      <trkpt lat="43.90436" lon="7.41421">
        <ele>486</ele>
        <time>2024-07-09T05:57:37Z</time>
      </trkpt>
      <trkpt lat="43.90438" lon="7.41423">
        <ele>486.2</ele>
        <time>2024-07-09T05:57:38Z</time>
      </trkpt>
      <trkpt lat="43.9044" lon="7.41424">
        <ele>486.2</ele>
        <time>2024-07-09T05:57:39Z</time>
      </trkpt>
      <trkpt lat="43.90442" lon="7.41426">
        <ele>486.2</ele>
        <time>2024-07-09T05:57:40Z</time>
      </trkpt>
      <trkpt lat="43.90445" lon="7.41428">
        <ele>486.6</ele>
        <time>2024-07-09T05:57:41Z</time>
      </trkpt>
      <trkpt lat="43.90447" lon="7.41429">
        <ele>486.6</ele>
        <time>2024-07-09T05:57:42Z</time>
      </trkpt>
      <trkpt lat="43.90449" lon="7.41432">
        <ele>486.6</ele>
        <time>2024-07-09T05:57:43Z</time>
      </trkpt>
      <trkpt lat="43.90451" lon="7.41434">
        <ele>486.6</ele>
        <time>2024-07-09T05:57:44Z</time>
      </trkpt>
      <trkpt lat="43.90453" lon="7.41435">
        <ele>486.6</ele>
        <time>2024-07-09T05:57:45Z</time>
      </trkpt>
      <trkpt lat="43.90455" lon="7.41438">
        <ele>487.2</ele>
        <time>2024-07-09T05:57:46Z</time>
      </trkpt>
      <trkpt lat="43.90457" lon="7.4144">
        <ele>487.2</ele>
        <time>2024-07-09T05:57:47Z</time>
      </trkpt>
      <trkpt lat="43.90459" lon="7.41441">
        <ele>487.2</ele>
        <time>2024-07-09T05:57:48Z</time>
      </trkpt>
      <trkpt lat="43.90461" lon="7.41443">
        <ele>487.2</ele>
        <time>2024-07-09T05:57:49Z</time>
      </trkpt>
      <trkpt lat="43.90463" lon="7.41444">
        <ele>487.6</ele>
        <time>2024-07-09T05:57:50Z</time>
      </trkpt>
      <trkpt lat="43.90464" lon="7.41445">
        <ele>487.8</ele>
        <time>2024-07-09T05:57:51Z</time>
      </trkpt>
      <trkpt lat="43.90467" lon="7.41447">
        <ele>487.8</ele>
        <time>2024-07-09T05:57:52Z</time>
      </trkpt>
      <trkpt lat="43.90469" lon="7.41447">
        <ele>487.8</ele>
        <time>2024-07-09T05:57:53Z</time>
      </trkpt>
      <trkpt lat="43.90471" lon="7.41448">
        <ele>488.2</ele>
        <time>2024-07-09T05:57:54Z</time>
      </trkpt>
      <trkpt lat="43.90473" lon="7.41449">
        <ele>488.4</ele>
        <time>2024-07-09T05:57:55Z</time>
      </trkpt>
      <trkpt lat="43.90476" lon="7.41449">
        <ele>488.4</ele>
        <time>2024-07-09T05:57:56Z</time>
      </trkpt>
      <trkpt lat="43.90478" lon="7.4145">
        <ele>488.4</ele>
        <time>2024-07-09T05:57:57Z</time>
      </trkpt>
      <trkpt lat="43.90481" lon="7.4145">
        <ele>488.4</ele>
        <time>2024-07-09T05:57:58Z</time>
      </trkpt>
      <trkpt lat="43.90484" lon="7.4145">
        <ele>488.8</ele>
        <time>2024-07-09T05:57:59Z</time>
      </trkpt>
      <trkpt lat="43.90486" lon="7.4145">
        <ele>488.8</ele>
        <time>2024-07-09T05:58:00Z</time>
      </trkpt>
      <trkpt lat="43.90489" lon="7.4145">
        <ele>488.8</ele>
        <time>2024-07-09T05:58:01Z</time>
      </trkpt>
      <trkpt lat="43.90491" lon="7.4145">
        <ele>488.8</ele>
        <time>2024-07-09T05:58:02Z</time>
      </trkpt>
      <trkpt lat="43.90493" lon="7.4145">
        <ele>489</ele>
        <time>2024-07-09T05:58:03Z</time>
      </trkpt>
      <trkpt lat="43.90495" lon="7.41451">
        <ele>489.4</ele>
        <time>2024-07-09T05:58:04Z</time>
      </trkpt>
      <trkpt lat="43.90497" lon="7.41451">
        <ele>489.4</ele>
        <time>2024-07-09T05:58:05Z</time>
      </trkpt>
      <trkpt lat="43.90499" lon="7.41452">
        <ele>489.4</ele>
        <time>2024-07-09T05:58:06Z</time>
      </trkpt>
      <trkpt lat="43.90502" lon="7.41452">
        <ele>489.4</ele>
        <time>2024-07-09T05:58:07Z</time>
      </trkpt>
      <trkpt lat="43.90505" lon="7.41451">
        <ele>489.4</ele>
        <time>2024-07-09T05:58:08Z</time>
      </trkpt>
      <trkpt lat="43.90507" lon="7.4145">
        <ele>489.4</ele>
        <time>2024-07-09T05:58:09Z</time>
      </trkpt>
      <trkpt lat="43.90509" lon="7.41448">
        <ele>489.6</ele>
        <time>2024-07-09T05:58:10Z</time>
      </trkpt>
      <trkpt lat="43.90511" lon="7.41447">
        <ele>489.6</ele>
        <time>2024-07-09T05:58:11Z</time>
      </trkpt>
      <trkpt lat="43.90513" lon="7.41445">
        <ele>489.6</ele>
        <time>2024-07-09T05:58:12Z</time>
      </trkpt>
      <trkpt lat="43.90516" lon="7.41444">
        <ele>490.2</ele>
        <time>2024-07-09T05:58:13Z</time>
      </trkpt>
      <trkpt lat="43.90517" lon="7.41444">
        <ele>490.2</ele>
        <time>2024-07-09T05:58:14Z</time>
      </trkpt>
      <trkpt lat="43.90519" lon="7.41443">
        <ele>490.2</ele>
        <time>2024-07-09T05:58:15Z</time>
      </trkpt>
      <trkpt lat="43.90521" lon="7.41441">
        <ele>490.2</ele>
        <time>2024-07-09T05:58:16Z</time>
      </trkpt>
      <trkpt lat="43.90524" lon="7.4144">
        <ele>490.2</ele>
        <time>2024-07-09T05:58:17Z</time>
      </trkpt>
      <trkpt lat="43.90526" lon="7.41438">
        <ele>490.8</ele>
        <time>2024-07-09T05:58:18Z</time>
      </trkpt>
      <trkpt lat="43.90529" lon="7.41436">
        <ele>490.8</ele>
        <time>2024-07-09T05:58:19Z</time>
      </trkpt>
      <trkpt lat="43.90531" lon="7.41435">
        <ele>490.8</ele>
        <time>2024-07-09T05:58:20Z</time>
      </trkpt>
      <trkpt lat="43.90534" lon="7.41434">
        <ele>491.2</ele>
        <time>2024-07-09T05:58:21Z</time>
      </trkpt>
      <trkpt lat="43.90536" lon="7.41432">
        <ele>491.2</ele>
        <time>2024-07-09T05:58:22Z</time>
      </trkpt>
      <trkpt lat="43.90538" lon="7.41431">
        <ele>491.2</ele>
        <time>2024-07-09T05:58:23Z</time>
      </trkpt>
      <trkpt lat="43.9054" lon="7.4143">
        <ele>491.2</ele>
        <time>2024-07-09T05:58:24Z</time>
      </trkpt>
      <trkpt lat="43.90543" lon="7.41428">
        <ele>491.2</ele>
        <time>2024-07-09T05:58:25Z</time>
      </trkpt>
      <trkpt lat="43.90545" lon="7.41426">
        <ele>491.6</ele>
        <time>2024-07-09T05:58:26Z</time>
      </trkpt>
      <trkpt lat="43.90547" lon="7.41424">
        <ele>491.6</ele>
        <time>2024-07-09T05:58:27Z</time>
      </trkpt>
      <trkpt lat="43.90549" lon="7.41422">
        <ele>491.6</ele>
        <time>2024-07-09T05:58:28Z</time>
      </trkpt>
      <trkpt lat="43.90551" lon="7.4142">
        <ele>491.6</ele>
        <time>2024-07-09T05:58:29Z</time>
      </trkpt>
      <trkpt lat="43.90553" lon="7.41418">
        <ele>492.2</ele>
        <time>2024-07-09T05:58:30Z</time>
      </trkpt>
      <trkpt lat="43.90555" lon="7.41416">
        <ele>492.2</ele>
        <time>2024-07-09T05:58:31Z</time>
      </trkpt>
      <trkpt lat="43.90557" lon="7.41414">
        <ele>492.2</ele>
        <time>2024-07-09T05:58:32Z</time>
      </trkpt>
      <trkpt lat="43.90559" lon="7.41412">
        <ele>492.2</ele>
        <time>2024-07-09T05:58:33Z</time>
      </trkpt>
      <trkpt lat="43.90561" lon="7.41411">
        <ele>492.2</ele>
        <time>2024-07-09T05:58:34Z</time>
      </trkpt>
      <trkpt lat="43.90563" lon="7.41409">
        <ele>492.8</ele>
        <time>2024-07-09T05:58:35Z</time>
      </trkpt>
      <trkpt lat="43.90565" lon="7.41408">
        <ele>492.8</ele>
        <time>2024-07-09T05:58:36Z</time>
      </trkpt>
      <trkpt lat="43.90567" lon="7.41406">
        <ele>492.8</ele>
        <time>2024-07-09T05:58:37Z</time>
      </trkpt>
      <trkpt lat="43.90569" lon="7.41405">
        <ele>492.8</ele>
        <time>2024-07-09T05:58:38Z</time>
      </trkpt>
      <trkpt lat="43.90571" lon="7.41403">
        <ele>493.4</ele>
        <time>2024-07-09T05:58:39Z</time>
      </trkpt>
      <trkpt lat="43.90573" lon="7.41401">
        <ele>493.4</ele>
        <time>2024-07-09T05:58:40Z</time>
      </trkpt>
      <trkpt lat="43.90575" lon="7.41399">
        <ele>493.4</ele>
        <time>2024-07-09T05:58:41Z</time>
      </trkpt>
      <trkpt lat="43.90577" lon="7.41397">
        <ele>493.4</ele>
        <time>2024-07-09T05:58:42Z</time>
      </trkpt>
      <trkpt lat="43.90579" lon="7.41396">
        <ele>493.4</ele>
        <time>2024-07-09T05:58:43Z</time>
      </trkpt>
      <trkpt lat="43.90581" lon="7.41394">
        <ele>494</ele>
        <time>2024-07-09T05:58:44Z</time>
      </trkpt>
      <trkpt lat="43.90583" lon="7.41392">
        <ele>494</ele>
        <time>2024-07-09T05:58:45Z</time>
      </trkpt>
      <trkpt lat="43.90585" lon="7.4139">
        <ele>494</ele>
        <time>2024-07-09T05:58:46Z</time>
      </trkpt>
      <trkpt lat="43.90587" lon="7.41388">
        <ele>494</ele>
        <time>2024-07-09T05:58:47Z</time>
      </trkpt>
      <trkpt lat="43.90589" lon="7.41386">
        <ele>494.6</ele>
        <time>2024-07-09T05:58:48Z</time>
      </trkpt>
      <trkpt lat="43.9059" lon="7.41384">
        <ele>494.6</ele>
        <time>2024-07-09T05:58:49Z</time>
      </trkpt>
      <trkpt lat="43.90592" lon="7.41382">
        <ele>494.6</ele>
        <time>2024-07-09T05:58:50Z</time>
      </trkpt>
      <trkpt lat="43.90594" lon="7.4138">
        <ele>494.6</ele>
        <time>2024-07-09T05:58:51Z</time>
      </trkpt>
      <trkpt lat="43.90596" lon="7.41377">
        <ele>494.6</ele>
        <time>2024-07-09T05:58:52Z</time>
      </trkpt>
      <trkpt lat="43.90598" lon="7.41374">
        <ele>495.2</ele>
        <time>2024-07-09T05:58:53Z</time>
      </trkpt>
      <trkpt lat="43.90599" lon="7.4137">
        <ele>495.2</ele>
        <time>2024-07-09T05:58:54Z</time>
      </trkpt>
      <trkpt lat="43.90601" lon="7.41367">
        <ele>495.2</ele>
        <time>2024-07-09T05:58:55Z</time>
      </trkpt>
      <trkpt lat="43.90602" lon="7.41365">
        <ele>495.2</ele>
        <time>2024-07-09T05:58:56Z</time>
      </trkpt>
      <trkpt lat="43.90604" lon="7.41363">
        <ele>495.6</ele>
        <time>2024-07-09T05:58:57Z</time>
      </trkpt>
      <trkpt lat="43.90605" lon="7.4136">
        <ele>495.6</ele>
        <time>2024-07-09T05:58:58Z</time>
      </trkpt>
      <trkpt lat="43.90606" lon="7.41358">
        <ele>495.6</ele>
        <time>2024-07-09T05:58:59Z</time>
      </trkpt>
      <trkpt lat="43.90608" lon="7.41355">
        <ele>495.6</ele>
        <time>2024-07-09T05:59:00Z</time>
      </trkpt>
      <trkpt lat="43.90609" lon="7.41353">
        <ele>495.6</ele>
        <time>2024-07-09T05:59:01Z</time>
      </trkpt>
      <trkpt lat="43.90611" lon="7.41351">
        <ele>496.2</ele>
        <time>2024-07-09T05:59:02Z</time>
      </trkpt>
      <trkpt lat="43.90613" lon="7.41349">
        <ele>496.4</ele>
        <time>2024-07-09T05:59:03Z</time>
      </trkpt>
      <trkpt lat="43.90614" lon="7.41347">
        <ele>496.4</ele>
        <time>2024-07-09T05:59:04Z</time>
      </trkpt>
      <trkpt lat="43.90616" lon="7.41344">
        <ele>496.4</ele>
        <time>2024-07-09T05:59:05Z</time>
      </trkpt>
      <trkpt lat="43.90616" lon="7.4134">
        <ele>496.8</ele>
        <time>2024-07-09T05:59:06Z</time>
      </trkpt>
      <trkpt lat="43.90617" lon="7.41337">
        <ele>496.8</ele>
        <time>2024-07-09T05:59:07Z</time>
      </trkpt>
      <trkpt lat="43.90619" lon="7.41334">
        <ele>496.8</ele>
        <time>2024-07-09T05:59:08Z</time>
      </trkpt>
      <trkpt lat="43.9062" lon="7.41331">
        <ele>496.8</ele>
        <time>2024-07-09T05:59:09Z</time>
      </trkpt>
      <trkpt lat="43.90622" lon="7.41329">
        <ele>497.2</ele>
        <time>2024-07-09T05:59:10Z</time>
      </trkpt>
      <trkpt lat="43.90623" lon="7.41326">
        <ele>497.2</ele>
        <time>2024-07-09T05:59:11Z</time>
      </trkpt>
      <trkpt lat="43.90624" lon="7.41323">
        <ele>497.6</ele>
        <time>2024-07-09T05:59:12Z</time>
      </trkpt>
      <trkpt lat="43.90625" lon="7.4132">
        <ele>497.6</ele>
        <time>2024-07-09T05:59:13Z</time>
      </trkpt>
      <trkpt lat="43.90626" lon="7.41318">
        <ele>497.6</ele>
        <time>2024-07-09T05:59:14Z</time>
      </trkpt>
      <trkpt lat="43.90627" lon="7.41316">
        <ele>498</ele>
        <time>2024-07-09T05:59:15Z</time>
      </trkpt>
      <trkpt lat="43.90628" lon="7.41313">
        <ele>498.2</ele>
        <time>2024-07-09T05:59:16Z</time>
      </trkpt>
      <trkpt lat="43.90629" lon="7.41311">
        <ele>498.2</ele>
        <time>2024-07-09T05:59:17Z</time>
      </trkpt>
      <trkpt lat="43.9063" lon="7.41308">
        <ele>498.2</ele>
        <time>2024-07-09T05:59:18Z</time>
      </trkpt>
      <trkpt lat="43.90632" lon="7.41306">
        <ele>498.6</ele>
        <time>2024-07-09T05:59:19Z</time>
      </trkpt>
      <trkpt lat="43.90634" lon="7.41304">
        <ele>498.8</ele>
        <time>2024-07-09T05:59:20Z</time>
      </trkpt>
      <trkpt lat="43.90635" lon="7.41302">
        <ele>498.8</ele>
        <time>2024-07-09T05:59:21Z</time>
      </trkpt>
      <trkpt lat="43.90637" lon="7.41301">
        <ele>498.8</ele>
        <time>2024-07-09T05:59:22Z</time>
      </trkpt>
      <trkpt lat="43.9064" lon="7.41299">
        <ele>498.8</ele>
        <time>2024-07-09T05:59:23Z</time>
      </trkpt>
      <trkpt lat="43.90642" lon="7.41297">
        <ele>499.2</ele>
        <time>2024-07-09T05:59:24Z</time>
      </trkpt>
      <trkpt lat="43.90643" lon="7.41294">
        <ele>499.2</ele>
        <time>2024-07-09T05:59:25Z</time>
      </trkpt>
      <trkpt lat="43.90644" lon="7.41292">
        <ele>499.2</ele>
        <time>2024-07-09T05:59:26Z</time>
      </trkpt>
      <trkpt lat="43.90646" lon="7.41289">
        <ele>499.2</ele>
        <time>2024-07-09T05:59:27Z</time>
      </trkpt>
      <trkpt lat="43.90647" lon="7.41286">
        <ele>499.6</ele>
        <time>2024-07-09T05:59:28Z</time>
      </trkpt>
      <trkpt lat="43.90648" lon="7.41284">
        <ele>499.8</ele>
        <time>2024-07-09T05:59:29Z</time>
      </trkpt>
      <trkpt lat="43.90649" lon="7.41282">
        <ele>499.8</ele>
        <time>2024-07-09T05:59:30Z</time>
      </trkpt>
      <trkpt lat="43.9065" lon="7.41279">
        <ele>499.8</ele>
        <time>2024-07-09T05:59:31Z</time>
      </trkpt>
      <trkpt lat="43.90651" lon="7.41277">
        <ele>499.8</ele>
        <time>2024-07-09T05:59:32Z</time>
      </trkpt>
      <trkpt lat="43.90652" lon="7.41274">
        <ele>500</ele>
        <time>2024-07-09T05:59:33Z</time>
      </trkpt>
      <trkpt lat="43.90653" lon="7.41271">
        <ele>500.2</ele>
        <time>2024-07-09T05:59:34Z</time>
      </trkpt>
      <trkpt lat="43.90653" lon="7.41268">
        <ele>500.2</ele>
        <time>2024-07-09T05:59:35Z</time>
      </trkpt>
      <trkpt lat="43.90654" lon="7.41265">
        <ele>500.2</ele>
        <time>2024-07-09T05:59:36Z</time>
      </trkpt>
      <trkpt lat="43.90653" lon="7.41262">
        <ele>500.2</ele>
        <time>2024-07-09T05:59:37Z</time>
      </trkpt>
      <trkpt lat="43.90654" lon="7.41259">
        <ele>500.6</ele>
        <time>2024-07-09T05:59:38Z</time>
      </trkpt>
      <trkpt lat="43.90654" lon="7.41256">
        <ele>500.8</ele>
        <time>2024-07-09T05:59:39Z</time>
      </trkpt>
      <trkpt lat="43.90654" lon="7.41253">
        <ele>500.8</ele>
        <time>2024-07-09T05:59:40Z</time>
      </trkpt>
      <trkpt lat="43.90655" lon="7.4125">
        <ele>500.8</ele>
        <time>2024-07-09T05:59:41Z</time>
      </trkpt>
      <trkpt lat="43.90654" lon="7.41247">
        <ele>501</ele>
        <time>2024-07-09T05:59:42Z</time>
      </trkpt>
      <trkpt lat="43.90655" lon="7.41244">
        <ele>501.4</ele>
        <time>2024-07-09T05:59:43Z</time>
      </trkpt>
      <trkpt lat="43.90655" lon="7.41241">
        <ele>501.4</ele>
        <time>2024-07-09T05:59:44Z</time>
      </trkpt>
      <trkpt lat="43.90656" lon="7.41239">
        <ele>501.4</ele>
        <time>2024-07-09T05:59:45Z</time>
      </trkpt>
      <trkpt lat="43.90656" lon="7.41236">
        <ele>501.8</ele>
        <time>2024-07-09T05:59:46Z</time>
      </trkpt>
      <trkpt lat="43.90656" lon="7.41233">
        <ele>502</ele>
        <time>2024-07-09T05:59:47Z</time>
      </trkpt>
      <trkpt lat="43.90656" lon="7.4123">
        <ele>502</ele>
        <time>2024-07-09T05:59:48Z</time>
      </trkpt>
      <trkpt lat="43.90657" lon="7.41227">
        <ele>502</ele>
        <time>2024-07-09T05:59:49Z</time>
      </trkpt>
      <trkpt lat="43.90657" lon="7.41224">
        <ele>502</ele>
        <time>2024-07-09T05:59:50Z</time>
      </trkpt>
      <trkpt lat="43.90657" lon="7.41221">
        <ele>502.4</ele>
        <time>2024-07-09T05:59:51Z</time>
      </trkpt>
      <trkpt lat="43.90658" lon="7.41219">
        <ele>502.6</ele>
        <time>2024-07-09T05:59:52Z</time>
      </trkpt>
      <trkpt lat="43.90658" lon="7.41216">
        <ele>502.6</ele>
        <time>2024-07-09T05:59:53Z</time>
      </trkpt>
      <trkpt lat="43.90659" lon="7.41214">
        <ele>502.6</ele>
        <time>2024-07-09T05:59:54Z</time>
      </trkpt>
      <trkpt lat="43.9066" lon="7.41211">
        <ele>502.6</ele>
        <time>2024-07-09T05:59:55Z</time>
      </trkpt>
      <trkpt lat="43.9066" lon="7.41208">
        <ele>503</ele>
        <time>2024-07-09T05:59:56Z</time>
      </trkpt>
      <trkpt lat="43.9066" lon="7.41206">
        <ele>503</ele>
        <time>2024-07-09T05:59:57Z</time>
      </trkpt>
      <trkpt lat="43.90661" lon="7.41203">
        <ele>503</ele>
        <time>2024-07-09T05:59:58Z</time>
      </trkpt>
      <trkpt lat="43.90661" lon="7.41202">
        <ele>503</ele>
        <time>2024-07-09T05:59:59Z</time>
      </trkpt>
      <trkpt lat="43.90661" lon="7.412">
        <ele>503.2</ele>
        <time>2024-07-09T06:00:00Z</time>
      </trkpt>
      <trkpt lat="43.90662" lon="7.41198">
        <ele>503.4</ele>
        <time>2024-07-09T06:00:01Z</time>
      </trkpt>
      <trkpt lat="43.90663" lon="7.41196">
        <ele>503.4</ele>
        <time>2024-07-09T06:00:02Z</time>
      </trkpt>
      <trkpt lat="43.90664" lon="7.41193">
        <ele>503.4</ele>
        <time>2024-07-09T06:00:03Z</time>
      </trkpt>
      <trkpt lat="43.90665" lon="7.41191">
        <ele>503.4</ele>
        <time>2024-07-09T06:00:04Z</time>
      </trkpt>
      <trkpt lat="43.90666" lon="7.41188">
        <ele>504</ele>
        <time>2024-07-09T06:00:05Z</time>
      </trkpt>
      <trkpt lat="43.90667" lon="7.41186">
        <ele>504</ele>
        <time>2024-07-09T06:00:06Z</time>
      </trkpt>
      <trkpt lat="43.90668" lon="7.41183">
        <ele>504</ele>
        <time>2024-07-09T06:00:07Z</time>
      </trkpt>
      <trkpt lat="43.90668" lon="7.41181">
        <ele>504</ele>
        <time>2024-07-09T06:00:08Z</time>
      </trkpt>
      <trkpt lat="43.90669" lon="7.41179">
        <ele>504.6</ele>
        <time>2024-07-09T06:00:09Z</time>
      </trkpt>
      <trkpt lat="43.90669" lon="7.41177">
        <ele>504.6</ele>
        <time>2024-07-09T06:00:10Z</time>
      </trkpt>
      <trkpt lat="43.9067" lon="7.41175">
        <ele>504.6</ele>
        <time>2024-07-09T06:00:11Z</time>
      </trkpt>
      <trkpt lat="43.90672" lon="7.41173">
        <ele>504.6</ele>
        <time>2024-07-09T06:00:12Z</time>
      </trkpt>
      <trkpt lat="43.90674" lon="7.4117">
        <ele>505.2</ele>
        <time>2024-07-09T06:00:13Z</time>
      </trkpt>
      <trkpt lat="43.90676" lon="7.41168">
        <ele>505.2</ele>
        <time>2024-07-09T06:00:14Z</time>
      </trkpt>
      <trkpt lat="43.90677" lon="7.41166">
        <ele>505.2</ele>
        <time>2024-07-09T06:00:15Z</time>
      </trkpt>
      <trkpt lat="43.90678" lon="7.41164">
        <ele>505.2</ele>
        <time>2024-07-09T06:00:16Z</time>
      </trkpt>
      <trkpt lat="43.9068" lon="7.41161">
        <ele>505.2</ele>
        <time>2024-07-09T06:00:17Z</time>
      </trkpt>
      <trkpt lat="43.90681" lon="7.41159">
        <ele>505.6</ele>
        <time>2024-07-09T06:00:18Z</time>
      </trkpt>
      <trkpt lat="43.90681" lon="7.41156">
        <ele>505.8</ele>
        <time>2024-07-09T06:00:19Z</time>
      </trkpt>
      <trkpt lat="43.90681" lon="7.41153">
        <ele>505.8</ele>
        <time>2024-07-09T06:00:20Z</time>
      </trkpt>
      <trkpt lat="43.90681" lon="7.41151">
        <ele>505.8</ele>
        <time>2024-07-09T06:00:21Z</time>
      </trkpt>
      <trkpt lat="43.90681" lon="7.41148">
        <ele>505.8</ele>
        <time>2024-07-09T06:00:22Z</time>
      </trkpt>
      <trkpt lat="43.90681" lon="7.41145">
        <ele>505.8</ele>
        <time>2024-07-09T06:00:23Z</time>
      </trkpt>
      <trkpt lat="43.90682" lon="7.41143">
        <ele>506.2</ele>
        <time>2024-07-09T06:00:24Z</time>
      </trkpt>
      <trkpt lat="43.90682" lon="7.41139">
        <ele>506.2</ele>
        <time>2024-07-09T06:00:25Z</time>
      </trkpt>
      <trkpt lat="43.90682" lon="7.41137">
        <ele>506.2</ele>
        <time>2024-07-09T06:00:26Z</time>
      </trkpt>
      <trkpt lat="43.90682" lon="7.41134">
        <ele>506.4</ele>
        <time>2024-07-09T06:00:27Z</time>
      </trkpt>
      <trkpt lat="43.90684" lon="7.41131">
        <ele>506.6</ele>
        <time>2024-07-09T06:00:28Z</time>
      </trkpt>
      <trkpt lat="43.90683" lon="7.41128">
        <ele>506.6</ele>
        <time>2024-07-09T06:00:29Z</time>
      </trkpt>
      <trkpt lat="43.90684" lon="7.41126">
        <ele>506.6</ele>
        <time>2024-07-09T06:00:30Z</time>
      </trkpt>
      <trkpt lat="43.90684" lon="7.41123">
        <ele>506.8</ele>
        <time>2024-07-09T06:00:31Z</time>
      </trkpt>
      <trkpt lat="43.90684" lon="7.41121">
        <ele>506.8</ele>
        <time>2024-07-09T06:00:32Z</time>
      </trkpt>
      <trkpt lat="43.90682" lon="7.41118">
        <ele>506.8</ele>
        <time>2024-07-09T06:00:33Z</time>
      </trkpt>
      <trkpt lat="43.90681" lon="7.41116">
        <ele>506.8</ele>
        <time>2024-07-09T06:00:34Z</time>
      </trkpt>
      <trkpt lat="43.90679" lon="7.41113">
        <ele>506.8</ele>
        <time>2024-07-09T06:00:35Z</time>
      </trkpt>
      <trkpt lat="43.90678" lon="7.41111">
        <ele>507</ele>
        <time>2024-07-09T06:00:36Z</time>
      </trkpt>
      <trkpt lat="43.90677" lon="7.41108">
        <ele>507</ele>
        <time>2024-07-09T06:00:37Z</time>
      </trkpt>
      <trkpt lat="43.90677" lon="7.41105">
        <ele>507</ele>
        <time>2024-07-09T06:00:38Z</time>
      </trkpt>
      <trkpt lat="43.90676" lon="7.41101">
        <ele>507</ele>
        <time>2024-07-09T06:00:39Z</time>
      </trkpt>
      <trkpt lat="43.90676" lon="7.41098">
        <ele>507.2</ele>
        <time>2024-07-09T06:00:40Z</time>
      </trkpt>
      <trkpt lat="43.90676" lon="7.41096">
        <ele>507.6</ele>
        <time>2024-07-09T06:00:41Z</time>
      </trkpt>
      <trkpt lat="43.90676" lon="7.41094">
        <ele>507.6</ele>
        <time>2024-07-09T06:00:42Z</time>
      </trkpt>
      <trkpt lat="43.90677" lon="7.41091">
        <ele>507.6</ele>
        <time>2024-07-09T06:00:43Z</time>
      </trkpt>
      <trkpt lat="43.90678" lon="7.41088">
        <ele>507.6</ele>
        <time>2024-07-09T06:00:44Z</time>
      </trkpt>
      <trkpt lat="43.90679" lon="7.41085">
        <ele>508</ele>
        <time>2024-07-09T06:00:45Z</time>
      </trkpt>
      <trkpt lat="43.90679" lon="7.41083">
        <ele>508</ele>
        <time>2024-07-09T06:00:46Z</time>
      </trkpt>
      <trkpt lat="43.9068" lon="7.41081">
        <ele>508</ele>
        <time>2024-07-09T06:00:47Z</time>
      </trkpt>
      <trkpt lat="43.9068" lon="7.41078">
        <ele>508.6</ele>
        <time>2024-07-09T06:00:48Z</time>
      </trkpt>
      <trkpt lat="43.90679" lon="7.41075">
        <ele>508.6</ele>
        <time>2024-07-09T06:00:49Z</time>
      </trkpt>
      <trkpt lat="43.90679" lon="7.41073">
        <ele>508.6</ele>
        <time>2024-07-09T06:00:50Z</time>
      </trkpt>
      <trkpt lat="43.90678" lon="7.4107">
        <ele>508.6</ele>
        <time>2024-07-09T06:00:51Z</time>
      </trkpt>
      <trkpt lat="43.90678" lon="7.41068">
        <ele>508.6</ele>
        <time>2024-07-09T06:00:52Z</time>
      </trkpt>
      <trkpt lat="43.90677" lon="7.41066">
        <ele>509.2</ele>
        <time>2024-07-09T06:00:53Z</time>
      </trkpt>
      <trkpt lat="43.90676" lon="7.41063">
        <ele>509.4</ele>
        <time>2024-07-09T06:00:54Z</time>
      </trkpt>
      <trkpt lat="43.90675" lon="7.4106">
        <ele>509.4</ele>
        <time>2024-07-09T06:00:55Z</time>
      </trkpt>
      <trkpt lat="43.90675" lon="7.41058">
        <ele>509.4</ele>
        <time>2024-07-09T06:00:56Z</time>
      </trkpt>
      <trkpt lat="43.90675" lon="7.41056">
        <ele>509.8</ele>
        <time>2024-07-09T06:00:57Z</time>
      </trkpt>
      <trkpt lat="43.90674" lon="7.41053">
        <ele>509.8</ele>
        <time>2024-07-09T06:00:58Z</time>
      </trkpt>
      <trkpt lat="43.90674" lon="7.41052">
        <ele>509.8</ele>
        <time>2024-07-09T06:00:59Z</time>
      </trkpt>
      <trkpt lat="43.90673" lon="7.41049">
        <ele>509.8</ele>
        <time>2024-07-09T06:01:00Z</time>
      </trkpt>
      <trkpt lat="43.90672" lon="7.41047">
        <ele>509.8</ele>
        <time>2024-07-09T06:01:01Z</time>
      </trkpt>
      <trkpt lat="43.90671" lon="7.41044">
        <ele>509.8</ele>
        <time>2024-07-09T06:01:02Z</time>
      </trkpt>
      <trkpt lat="43.90671" lon="7.41041">
        <ele>510.4</ele>
        <time>2024-07-09T06:01:03Z</time>
      </trkpt>
      <trkpt lat="43.9067" lon="7.41038">
        <ele>510.4</ele>
        <time>2024-07-09T06:01:04Z</time>
      </trkpt>
      <trkpt lat="43.90669" lon="7.41035">
        <ele>510.4</ele>
        <time>2024-07-09T06:01:05Z</time>
      </trkpt>
      <trkpt lat="43.90668" lon="7.41033">
        <ele>510.4</ele>
        <time>2024-07-09T06:01:06Z</time>
      </trkpt>
      <trkpt lat="43.90667" lon="7.41031">
        <ele>510.8</ele>
        <time>2024-07-09T06:01:07Z</time>
      </trkpt>
      <trkpt lat="43.90666" lon="7.41028">
        <ele>510.8</ele>
        <time>2024-07-09T06:01:08Z</time>
      </trkpt>
      <trkpt lat="43.90666" lon="7.41024">
        <ele>510.8</ele>
        <time>2024-07-09T06:01:09Z</time>
      </trkpt>
      <trkpt lat="43.90664" lon="7.41021">
        <ele>510.8</ele>
        <time>2024-07-09T06:01:10Z</time>
      </trkpt>
      <trkpt lat="43.90665" lon="7.41018">
        <ele>511.2</ele>
        <time>2024-07-09T06:01:11Z</time>
      </trkpt>
      <trkpt lat="43.90665" lon="7.41015">
        <ele>511.4</ele>
        <time>2024-07-09T06:01:12Z</time>
      </trkpt>
      <trkpt lat="43.90665" lon="7.41012">
        <ele>511.4</ele>
        <time>2024-07-09T06:01:13Z</time>
      </trkpt>
      <trkpt lat="43.90666" lon="7.41009">
        <ele>511.4</ele>
        <time>2024-07-09T06:01:14Z</time>
      </trkpt>
      <trkpt lat="43.90667" lon="7.41007">
        <ele>511.4</ele>
        <time>2024-07-09T06:01:15Z</time>
      </trkpt>
      <trkpt lat="43.90667" lon="7.41004">
        <ele>512</ele>
        <time>2024-07-09T06:01:16Z</time>
      </trkpt>
      <trkpt lat="43.90669" lon="7.41002">
        <ele>512.2</ele>
        <time>2024-07-09T06:01:17Z</time>
      </trkpt>
      <trkpt lat="43.9067" lon="7.40999">
        <ele>512.2</ele>
        <time>2024-07-09T06:01:18Z</time>
      </trkpt>
      <trkpt lat="43.90671" lon="7.40997">
        <ele>512.2</ele>
        <time>2024-07-09T06:01:19Z</time>
      </trkpt>
      <trkpt lat="43.90672" lon="7.40995">
        <ele>512.6</ele>
        <time>2024-07-09T06:01:20Z</time>
      </trkpt>
      <trkpt lat="43.90674" lon="7.40992">
        <ele>512.6</ele>
        <time>2024-07-09T06:01:21Z</time>
      </trkpt>
      <trkpt lat="43.90674" lon="7.4099">
        <ele>512.6</ele>
        <time>2024-07-09T06:01:22Z</time>
      </trkpt>
      <trkpt lat="43.90676" lon="7.40989">
        <ele>512.6</ele>
        <time>2024-07-09T06:01:23Z</time>
      </trkpt>
      <trkpt lat="43.90677" lon="7.40987">
        <ele>513</ele>
        <time>2024-07-09T06:01:24Z</time>
      </trkpt>
      <trkpt lat="43.90678" lon="7.40984">
        <ele>513</ele>
        <time>2024-07-09T06:01:25Z</time>
      </trkpt>
      <trkpt lat="43.9068" lon="7.40982">
        <ele>513.2</ele>
        <time>2024-07-09T06:01:26Z</time>
      </trkpt>
      <trkpt lat="43.90681" lon="7.4098">
        <ele>513.2</ele>
        <time>2024-07-09T06:01:27Z</time>
      </trkpt>
      <trkpt lat="43.90683" lon="7.40978">
        <ele>513.2</ele>
        <time>2024-07-09T06:01:28Z</time>
      </trkpt>
      <trkpt lat="43.90684" lon="7.40976">
        <ele>513.6</ele>
        <time>2024-07-09T06:01:29Z</time>
      </trkpt>
      <trkpt lat="43.90684" lon="7.40972">
        <ele>513.8</ele>
        <time>2024-07-09T06:01:30Z</time>
      </trkpt>
      <trkpt lat="43.90685" lon="7.4097">
        <ele>513.8</ele>
        <time>2024-07-09T06:01:31Z</time>
      </trkpt>
      <trkpt lat="43.90685" lon="7.40967">
        <ele>513.8</ele>
        <time>2024-07-09T06:01:32Z</time>
      </trkpt>
      <trkpt lat="43.90685" lon="7.40964">
        <ele>514.2</ele>
        <time>2024-07-09T06:01:33Z</time>
      </trkpt>
      <trkpt lat="43.90684" lon="7.40961">
        <ele>514</ele>
        <time>2024-07-09T06:01:34Z</time>
      </trkpt>
      <trkpt lat="43.90683" lon="7.40959">
        <ele>514</ele>
        <time>2024-07-09T06:01:35Z</time>
      </trkpt>
      <trkpt lat="43.90682" lon="7.40957">
        <ele>514</ele>
        <time>2024-07-09T06:01:36Z</time>
      </trkpt>
      <trkpt lat="43.90681" lon="7.40955">
        <ele>514.4</ele>
        <time>2024-07-09T06:01:37Z</time>
      </trkpt>
      <trkpt lat="43.9068" lon="7.40952">
        <ele>514.4</ele>
        <time>2024-07-09T06:01:38Z</time>
      </trkpt>
      <trkpt lat="43.90679" lon="7.40949">
        <ele>514.4</ele>
        <time>2024-07-09T06:01:39Z</time>
      </trkpt>
      <trkpt lat="43.90678" lon="7.40947">
        <ele>514.4</ele>
        <time>2024-07-09T06:01:40Z</time>
      </trkpt>
      <trkpt lat="43.90677" lon="7.40943">
        <ele>514.4</ele>
        <time>2024-07-09T06:01:41Z</time>
      </trkpt>
      <trkpt lat="43.90677" lon="7.4094">
        <ele>514.4</ele>
        <time>2024-07-09T06:01:42Z</time>
      </trkpt>
      <trkpt lat="43.90676" lon="7.40938">
        <ele>514.8</ele>
        <time>2024-07-09T06:01:43Z</time>
      </trkpt>
      <trkpt lat="43.90675" lon="7.40936">
        <ele>515</ele>
        <time>2024-07-09T06:01:44Z</time>
      </trkpt>
      <trkpt lat="43.90674" lon="7.40934">
        <ele>515</ele>
        <time>2024-07-09T06:01:45Z</time>
      </trkpt>
      <trkpt lat="43.90675" lon="7.40931">
        <ele>515</ele>
        <time>2024-07-09T06:01:46Z</time>
      </trkpt>
      <trkpt lat="43.90675" lon="7.40929">
        <ele>515.4</ele>
        <time>2024-07-09T06:01:47Z</time>
      </trkpt>
      <trkpt lat="43.90676" lon="7.40927">
        <ele>515.8</ele>
        <time>2024-07-09T06:01:48Z</time>
      </trkpt>
      <trkpt lat="43.90677" lon="7.40924">
        <ele>515.8</ele>
        <time>2024-07-09T06:01:49Z</time>
      </trkpt>
      <trkpt lat="43.90678" lon="7.40923">
        <ele>515.8</ele>
        <time>2024-07-09T06:01:50Z</time>
      </trkpt>
      <trkpt lat="43.9068" lon="7.40922">
        <ele>516</ele>
        <time>2024-07-09T06:01:51Z</time>
      </trkpt>
      <trkpt lat="43.90682" lon="7.40921">
        <ele>516</ele>
        <time>2024-07-09T06:01:52Z</time>
      </trkpt>
      <trkpt lat="43.90684" lon="7.4092">
        <ele>516.2</ele>
        <time>2024-07-09T06:01:53Z</time>
      </trkpt>
      <trkpt lat="43.90686" lon="7.4092">
        <ele>516.2</ele>
        <time>2024-07-09T06:01:54Z</time>
      </trkpt>
      <trkpt lat="43.90688" lon="7.4092">
        <ele>516.2</ele>
        <time>2024-07-09T06:01:55Z</time>
      </trkpt>
      <trkpt lat="43.9069" lon="7.4092">
        <ele>516.4</ele>
        <time>2024-07-09T06:01:56Z</time>
      </trkpt>
      <trkpt lat="43.90693" lon="7.40919">
        <ele>516.8</ele>
        <time>2024-07-09T06:01:57Z</time>
      </trkpt>
      <trkpt lat="43.90695" lon="7.40919">
        <ele>516.8</ele>
        <time>2024-07-09T06:01:58Z</time>
      </trkpt>
      <trkpt lat="43.90697" lon="7.40918">
        <ele>516.8</ele>
        <time>2024-07-09T06:01:59Z</time>
      </trkpt>
      <trkpt lat="43.90699" lon="7.40917">
        <ele>516.8</ele>
        <time>2024-07-09T06:02:00Z</time>
      </trkpt>
      <trkpt lat="43.90701" lon="7.40916">
        <ele>517.4</ele>
        <time>2024-07-09T06:02:01Z</time>
      </trkpt>
      <trkpt lat="43.90703" lon="7.40916">
        <ele>517.4</ele>
        <time>2024-07-09T06:02:02Z</time>
      </trkpt>
      <trkpt lat="43.90706" lon="7.40915">
        <ele>517.4</ele>
        <time>2024-07-09T06:02:03Z</time>
      </trkpt>
      <trkpt lat="43.90708" lon="7.40915">
        <ele>517.4</ele>
        <time>2024-07-09T06:02:04Z</time>
      </trkpt>
      <trkpt lat="43.90711" lon="7.40914">
        <ele>517.8</ele>
        <time>2024-07-09T06:02:05Z</time>
      </trkpt>
      <trkpt lat="43.90713" lon="7.40913">
        <ele>518</ele>
        <time>2024-07-09T06:02:06Z</time>
      </trkpt>
      <trkpt lat="43.90715" lon="7.40911">
        <ele>518</ele>
        <time>2024-07-09T06:02:07Z</time>
      </trkpt>
      <trkpt lat="43.90716" lon="7.40909">
        <ele>518</ele>
        <time>2024-07-09T06:02:08Z</time>
      </trkpt>
      <trkpt lat="43.90718" lon="7.40907">
        <ele>518.4</ele>
        <time>2024-07-09T06:02:09Z</time>
      </trkpt>
      <trkpt lat="43.9072" lon="7.40905">
        <ele>518.6</ele>
        <time>2024-07-09T06:02:10Z</time>
      </trkpt>
      <trkpt lat="43.90721" lon="7.40903">
        <ele>518.6</ele>
        <time>2024-07-09T06:02:11Z</time>
      </trkpt>
      <trkpt lat="43.90723" lon="7.40902">
        <ele>518.6</ele>
        <time>2024-07-09T06:02:12Z</time>
      </trkpt>
      <trkpt lat="43.90724" lon="7.409">
        <ele>519</ele>
        <time>2024-07-09T06:02:13Z</time>
      </trkpt>
      <trkpt lat="43.90725" lon="7.40898">
        <ele>519</ele>
        <time>2024-07-09T06:02:14Z</time>
      </trkpt>
      <trkpt lat="43.90726" lon="7.40895">
        <ele>519.2</ele>
        <time>2024-07-09T06:02:15Z</time>
      </trkpt>
      <trkpt lat="43.90727" lon="7.40893">
        <ele>519.2</ele>
        <time>2024-07-09T06:02:16Z</time>
      </trkpt>
      <trkpt lat="43.90728" lon="7.4089">
        <ele>519.2</ele>
        <time>2024-07-09T06:02:17Z</time>
      </trkpt>
      <trkpt lat="43.90729" lon="7.40888">
        <ele>519.8</ele>
        <time>2024-07-09T06:02:18Z</time>
      </trkpt>
      <trkpt lat="43.9073" lon="7.40886">
        <ele>519.8</ele>
        <time>2024-07-09T06:02:19Z</time>
      </trkpt>
      <trkpt lat="43.90732" lon="7.40884">
        <ele>519.8</ele>
        <time>2024-07-09T06:02:20Z</time>
      </trkpt>
      <trkpt lat="43.90733" lon="7.40881">
        <ele>519.8</ele>
        <time>2024-07-09T06:02:21Z</time>
      </trkpt>
      <trkpt lat="43.90734" lon="7.40878">
        <ele>520.2</ele>
        <time>2024-07-09T06:02:22Z</time>
      </trkpt>
      <trkpt lat="43.90735" lon="7.40875">
        <ele>520.4</ele>
        <time>2024-07-09T06:02:23Z</time>
      </trkpt>
      <trkpt lat="43.90736" lon="7.40873">
        <ele>520.4</ele>
        <time>2024-07-09T06:02:24Z</time>
      </trkpt>
      <trkpt lat="43.90737" lon="7.4087">
        <ele>520.4</ele>
        <time>2024-07-09T06:02:25Z</time>
      </trkpt>
      <trkpt lat="43.90738" lon="7.40868">
        <ele>520.4</ele>
        <time>2024-07-09T06:02:26Z</time>
      </trkpt>
      <trkpt lat="43.90739" lon="7.40866">
        <ele>520.4</ele>
        <time>2024-07-09T06:02:27Z</time>
      </trkpt>
      <trkpt lat="43.9074" lon="7.40864">
        <ele>520.8</ele>
        <time>2024-07-09T06:02:28Z</time>
      </trkpt>
      <trkpt lat="43.90742" lon="7.40862">
        <ele>521</ele>
        <time>2024-07-09T06:02:29Z</time>
      </trkpt>
      <trkpt lat="43.90743" lon="7.4086">
        <ele>521</ele>
        <time>2024-07-09T06:02:30Z</time>
      </trkpt>
      <trkpt lat="43.90744" lon="7.40857">
        <ele>521</ele>
        <time>2024-07-09T06:02:31Z</time>
      </trkpt>
      <trkpt lat="43.90746" lon="7.40855">
        <ele>521</ele>
        <time>2024-07-09T06:02:32Z</time>
      </trkpt>
      <trkpt lat="43.90747" lon="7.40853">
        <ele>521.4</ele>
        <time>2024-07-09T06:02:33Z</time>
      </trkpt>
      <trkpt lat="43.90748" lon="7.40851">
        <ele>521.4</ele>
        <time>2024-07-09T06:02:34Z</time>
      </trkpt>
      <trkpt lat="43.9075" lon="7.40849">
        <ele>521.4</ele>
        <time>2024-07-09T06:02:35Z</time>
      </trkpt>
      <trkpt lat="43.90751" lon="7.40847">
        <ele>521.4</ele>
        <time>2024-07-09T06:02:36Z</time>
      </trkpt>
      <trkpt lat="43.90752" lon="7.40845">
        <ele>522</ele>
        <time>2024-07-09T06:02:37Z</time>
      </trkpt>
      <trkpt lat="43.90754" lon="7.40843">
        <ele>522.2</ele>
        <time>2024-07-09T06:02:38Z</time>
      </trkpt>
      <trkpt lat="43.90755" lon="7.40841">
        <ele>522.2</ele>
        <time>2024-07-09T06:02:39Z</time>
      </trkpt>
      <trkpt lat="43.90757" lon="7.40839">
        <ele>522.2</ele>
        <time>2024-07-09T06:02:40Z</time>
      </trkpt>
      <trkpt lat="43.90758" lon="7.40837">
        <ele>522.2</ele>
        <time>2024-07-09T06:02:41Z</time>
      </trkpt>
      <trkpt lat="43.90759" lon="7.40836">
        <ele>522.6</ele>
        <time>2024-07-09T06:02:42Z</time>
      </trkpt>
      <trkpt lat="43.9076" lon="7.40834">
        <ele>522.6</ele>
        <time>2024-07-09T06:02:43Z</time>
      </trkpt>
      <trkpt lat="43.90761" lon="7.40831">
        <ele>522.6</ele>
        <time>2024-07-09T06:02:44Z</time>
      </trkpt>
      <trkpt lat="43.90762" lon="7.40828">
        <ele>522.8</ele>
        <time>2024-07-09T06:02:45Z</time>
      </trkpt>
      <trkpt lat="43.90763" lon="7.40826">
        <ele>522.8</ele>
        <time>2024-07-09T06:02:46Z</time>
      </trkpt>
      <trkpt lat="43.90765" lon="7.40823">
        <ele>523</ele>
        <time>2024-07-09T06:02:47Z</time>
      </trkpt>
      <trkpt lat="43.90766" lon="7.40821">
        <ele>523</ele>
        <time>2024-07-09T06:02:48Z</time>
      </trkpt>
      <trkpt lat="43.90767" lon="7.4082">
        <ele>523</ele>
        <time>2024-07-09T06:02:49Z</time>
      </trkpt>
      <trkpt lat="43.90768" lon="7.40818">
        <ele>523</ele>
        <time>2024-07-09T06:02:50Z</time>
      </trkpt>
      <trkpt lat="43.9077" lon="7.40816">
        <ele>523.8</ele>
        <time>2024-07-09T06:02:51Z</time>
      </trkpt>
      <trkpt lat="43.90771" lon="7.40815">
        <ele>523.8</ele>
        <time>2024-07-09T06:02:52Z</time>
      </trkpt>
      <trkpt lat="43.90773" lon="7.40814">
        <ele>523.8</ele>
        <time>2024-07-09T06:02:53Z</time>
      </trkpt>
      <trkpt lat="43.90774" lon="7.40811">
        <ele>524.2</ele>
        <time>2024-07-09T06:02:54Z</time>
      </trkpt>
      <trkpt lat="43.90776" lon="7.40808">
        <ele>524.2</ele>
        <time>2024-07-09T06:02:55Z</time>
      </trkpt>
      <trkpt lat="43.90777" lon="7.40806">
        <ele>524.2</ele>
        <time>2024-07-09T06:02:56Z</time>
      </trkpt>
      <trkpt lat="43.90779" lon="7.40805">
        <ele>524.2</ele>
        <time>2024-07-09T06:02:57Z</time>
      </trkpt>
      <trkpt lat="43.9078" lon="7.40804">
        <ele>524.2</ele>
        <time>2024-07-09T06:02:58Z</time>
      </trkpt>
      <trkpt lat="43.90782" lon="7.40804">
        <ele>524.6</ele>
        <time>2024-07-09T06:02:59Z</time>
      </trkpt>
      <trkpt lat="43.90784" lon="7.40803">
        <ele>524.8</ele>
        <time>2024-07-09T06:03:00Z</time>
      </trkpt>
      <trkpt lat="43.90786" lon="7.40803">
        <ele>524.8</ele>
        <time>2024-07-09T06:03:01Z</time>
      </trkpt>
      <trkpt lat="43.90788" lon="7.40802">
        <ele>524.8</ele>
        <time>2024-07-09T06:03:02Z</time>
      </trkpt>
      <trkpt lat="43.90789" lon="7.40801">
        <ele>525.2</ele>
        <time>2024-07-09T06:03:03Z</time>
      </trkpt>
      <trkpt lat="43.90791" lon="7.408">
        <ele>525.2</ele>
        <time>2024-07-09T06:03:04Z</time>
      </trkpt>
      <trkpt lat="43.90793" lon="7.40798">
        <ele>525.2</ele>
        <time>2024-07-09T06:03:05Z</time>
      </trkpt>
      <trkpt lat="43.90795" lon="7.40797">
        <ele>525.2</ele>
        <time>2024-07-09T06:03:06Z</time>
      </trkpt>
      <trkpt lat="43.90797" lon="7.40795">
        <ele>525.2</ele>
        <time>2024-07-09T06:03:07Z</time>
      </trkpt>
      <trkpt lat="43.90798" lon="7.40793">
        <ele>525.2</ele>
        <time>2024-07-09T06:03:08Z</time>
      </trkpt>
      <trkpt lat="43.90799" lon="7.4079">
        <ele>525.8</ele>
        <time>2024-07-09T06:03:09Z</time>
      </trkpt>
      <trkpt lat="43.90799" lon="7.40788">
        <ele>525.8</ele>
        <time>2024-07-09T06:03:10Z</time>
      </trkpt>
      <trkpt lat="43.90799" lon="7.40785">
        <ele>525.8</ele>
        <time>2024-07-09T06:03:11Z</time>
      </trkpt>
      <trkpt lat="43.908" lon="7.40783">
        <ele>525.8</ele>
        <time>2024-07-09T06:03:12Z</time>
      </trkpt>
      <trkpt lat="43.908" lon="7.4078">
        <ele>526</ele>
        <time>2024-07-09T06:03:13Z</time>
      </trkpt>
      <trkpt lat="43.908" lon="7.40777">
        <ele>526.2</ele>
        <time>2024-07-09T06:03:14Z</time>
      </trkpt>
      <trkpt lat="43.908" lon="7.40775">
        <ele>526.2</ele>
        <time>2024-07-09T06:03:15Z</time>
      </trkpt>
      <trkpt lat="43.908" lon="7.40771">
        <ele>526.2</ele>
        <time>2024-07-09T06:03:16Z</time>
      </trkpt>
      <trkpt lat="43.908" lon="7.40768">
        <ele>526.4</ele>
        <time>2024-07-09T06:03:17Z</time>
      </trkpt>
      <trkpt lat="43.90799" lon="7.40765">
        <ele>526.6</ele>
        <time>2024-07-09T06:03:18Z</time>
      </trkpt>
      <trkpt lat="43.90799" lon="7.40763">
        <ele>526.6</ele>
        <time>2024-07-09T06:03:19Z</time>
      </trkpt>
      <trkpt lat="43.90799" lon="7.4076">
        <ele>526.6</ele>
        <time>2024-07-09T06:03:20Z</time>
      </trkpt>
      <trkpt lat="43.908" lon="7.40758">
        <ele>527</ele>
        <time>2024-07-09T06:03:21Z</time>
      </trkpt>
      <trkpt lat="43.90799" lon="7.40755">
        <ele>527.2</ele>
        <time>2024-07-09T06:03:22Z</time>
      </trkpt>
      <trkpt lat="43.908" lon="7.40753">
        <ele>527.2</ele>
        <time>2024-07-09T06:03:23Z</time>
      </trkpt>
      <trkpt lat="43.90801" lon="7.4075">
        <ele>527.2</ele>
        <time>2024-07-09T06:03:24Z</time>
      </trkpt>
      <trkpt lat="43.90802" lon="7.40748">
        <ele>527.6</ele>
        <time>2024-07-09T06:03:25Z</time>
      </trkpt>
      <trkpt lat="43.90803" lon="7.40746">
        <ele>527.8</ele>
        <time>2024-07-09T06:03:26Z</time>
      </trkpt>
      <trkpt lat="43.90805" lon="7.40743">
        <ele>527.8</ele>
        <time>2024-07-09T06:03:27Z</time>
      </trkpt>
      <trkpt lat="43.90806" lon="7.40741">
        <ele>527.8</ele>
        <time>2024-07-09T06:03:28Z</time>
      </trkpt>
      <trkpt lat="43.90808" lon="7.40739">
        <ele>527.8</ele>
        <time>2024-07-09T06:03:29Z</time>
      </trkpt>
      <trkpt lat="43.90809" lon="7.40738">
        <ele>528.2</ele>
        <time>2024-07-09T06:03:30Z</time>
      </trkpt>
      <trkpt lat="43.90811" lon="7.40736">
        <ele>528.6</ele>
        <time>2024-07-09T06:03:31Z</time>
      </trkpt>
      <trkpt lat="43.90813" lon="7.40735">
        <ele>528.6</ele>
        <time>2024-07-09T06:03:32Z</time>
      </trkpt>
      <trkpt lat="43.90815" lon="7.40735">
        <ele>528.6</ele>
        <time>2024-07-09T06:03:33Z</time>
      </trkpt>
      <trkpt lat="43.90817" lon="7.40734">
        <ele>529</ele>
        <time>2024-07-09T06:03:34Z</time>
      </trkpt>
      <trkpt lat="43.90819" lon="7.40733">
        <ele>529.2</ele>
        <time>2024-07-09T06:03:35Z</time>
      </trkpt>
      <trkpt lat="43.90821" lon="7.40732">
        <ele>529.2</ele>
        <time>2024-07-09T06:03:36Z</time>
      </trkpt>
      <trkpt lat="43.90823" lon="7.40731">
        <ele>529.2</ele>
        <time>2024-07-09T06:03:37Z</time>
      </trkpt>
      <trkpt lat="43.90825" lon="7.4073">
        <ele>529.2</ele>
        <time>2024-07-09T06:03:38Z</time>
      </trkpt>
      <trkpt lat="43.90827" lon="7.40728">
        <ele>529.8</ele>
        <time>2024-07-09T06:03:39Z</time>
      </trkpt>
      <trkpt lat="43.90829" lon="7.40728">
        <ele>529.8</ele>
        <time>2024-07-09T06:03:40Z</time>
      </trkpt>
      <trkpt lat="43.9083" lon="7.40726">
        <ele>529.8</ele>
        <time>2024-07-09T06:03:41Z</time>
      </trkpt>
      <trkpt lat="43.90833" lon="7.40725">
        <ele>529.8</ele>
        <time>2024-07-09T06:03:42Z</time>
      </trkpt>
      <trkpt lat="43.90835" lon="7.40724">
        <ele>530.2</ele>
        <time>2024-07-09T06:03:43Z</time>
      </trkpt>
      <trkpt lat="43.90837" lon="7.40724">
        <ele>530.4</ele>
        <time>2024-07-09T06:03:44Z</time>
      </trkpt>
      <trkpt lat="43.90839" lon="7.40723">
        <ele>530.4</ele>
        <time>2024-07-09T06:03:45Z</time>
      </trkpt>
      <trkpt lat="43.90841" lon="7.40722">
        <ele>530.4</ele>
        <time>2024-07-09T06:03:46Z</time>
      </trkpt>
      <trkpt lat="43.90842" lon="7.40721">
        <ele>530.8</ele>
        <time>2024-07-09T06:03:47Z</time>
      </trkpt>
      <trkpt lat="43.90844" lon="7.40719">
        <ele>530.8</ele>
        <time>2024-07-09T06:03:48Z</time>
      </trkpt>
      <trkpt lat="43.90845" lon="7.40718">
        <ele>530.8</ele>
        <time>2024-07-09T06:03:49Z</time>
      </trkpt>
      <trkpt lat="43.90847" lon="7.40716">
        <ele>531</ele>
        <time>2024-07-09T06:03:50Z</time>
      </trkpt>
      <trkpt lat="43.90849" lon="7.40715">
        <ele>531</ele>
        <time>2024-07-09T06:03:51Z</time>
      </trkpt>
      <trkpt lat="43.90851" lon="7.40715">
        <ele>531</ele>
        <time>2024-07-09T06:03:52Z</time>
      </trkpt>
      <trkpt lat="43.90852" lon="7.40715">
        <ele>531.6</ele>
        <time>2024-07-09T06:03:53Z</time>
      </trkpt>
      <trkpt lat="43.90854" lon="7.40714">
        <ele>531.8</ele>
        <time>2024-07-09T06:03:54Z</time>
      </trkpt>
      <trkpt lat="43.90856" lon="7.40714">
        <ele>531.8</ele>
        <time>2024-07-09T06:03:55Z</time>
      </trkpt>
      <trkpt lat="43.90858" lon="7.40712">
        <ele>531.8</ele>
        <time>2024-07-09T06:03:56Z</time>
      </trkpt>
      <trkpt lat="43.90859" lon="7.40711">
        <ele>532.2</ele>
        <time>2024-07-09T06:03:57Z</time>
      </trkpt>
      <trkpt lat="43.90861" lon="7.40709">
        <ele>532.4</ele>
        <time>2024-07-09T06:03:58Z</time>
      </trkpt>
      <trkpt lat="43.90862" lon="7.40707">
        <ele>532.4</ele>
        <time>2024-07-09T06:03:59Z</time>
      </trkpt>
      <trkpt lat="43.90864" lon="7.40704">
        <ele>532.4</ele>
        <time>2024-07-09T06:04:00Z</time>
      </trkpt>
      <trkpt lat="43.90865" lon="7.40701">
        <ele>532.6</ele>
        <time>2024-07-09T06:04:01Z</time>
      </trkpt>
      <trkpt lat="43.90866" lon="7.40699">
        <ele>532.8</ele>
        <time>2024-07-09T06:04:02Z</time>
      </trkpt>
      <trkpt lat="43.90868" lon="7.40696">
        <ele>532.8</ele>
        <time>2024-07-09T06:04:03Z</time>
      </trkpt>
      <trkpt lat="43.9087" lon="7.40695">
        <ele>532.8</ele>
        <time>2024-07-09T06:04:04Z</time>
      </trkpt>
      <trkpt lat="43.90872" lon="7.40694">
        <ele>532.8</ele>
        <time>2024-07-09T06:04:05Z</time>
      </trkpt>
      <trkpt lat="43.90873" lon="7.40693">
        <ele>533.2</ele>
        <time>2024-07-09T06:04:06Z</time>
      </trkpt>
      <trkpt lat="43.90875" lon="7.40691">
        <ele>533.4</ele>
        <time>2024-07-09T06:04:07Z</time>
      </trkpt>
      <trkpt lat="43.90876" lon="7.40691">
        <ele>533.4</ele>
        <time>2024-07-09T06:04:08Z</time>
      </trkpt>
      <trkpt lat="43.90878" lon="7.40692">
        <ele>533.4</ele>
        <time>2024-07-09T06:04:09Z</time>
      </trkpt>
      <trkpt lat="43.90881" lon="7.40693">
        <ele>533.4</ele>
        <time>2024-07-09T06:04:10Z</time>
      </trkpt>
      <trkpt lat="43.90883" lon="7.40694">
        <ele>534.2</ele>
        <time>2024-07-09T06:04:11Z</time>
      </trkpt>
      <trkpt lat="43.90885" lon="7.40696">
        <ele>534.2</ele>
        <time>2024-07-09T06:04:12Z</time>
      </trkpt>
      <trkpt lat="43.90887" lon="7.40697">
        <ele>534.2</ele>
        <time>2024-07-09T06:04:13Z</time>
      </trkpt>
      <trkpt lat="43.90888" lon="7.40699">
        <ele>534.2</ele>
        <time>2024-07-09T06:04:14Z</time>
      </trkpt>
      <trkpt lat="43.90891" lon="7.407">
        <ele>534.8</ele>
        <time>2024-07-09T06:04:15Z</time>
      </trkpt>
      <trkpt lat="43.90893" lon="7.40701">
        <ele>534.8</ele>
        <time>2024-07-09T06:04:16Z</time>
      </trkpt>
      <trkpt lat="43.90895" lon="7.40703">
        <ele>534.8</ele>
        <time>2024-07-09T06:04:17Z</time>
      </trkpt>
      <trkpt lat="43.90896" lon="7.40704">
        <ele>534.8</ele>
        <time>2024-07-09T06:04:18Z</time>
      </trkpt>
      <trkpt lat="43.90898" lon="7.40704">
        <ele>535</ele>
        <time>2024-07-09T06:04:19Z</time>
      </trkpt>
      <trkpt lat="43.909" lon="7.40705">
        <ele>535.4</ele>
        <time>2024-07-09T06:04:20Z</time>
      </trkpt>
      <trkpt lat="43.90902" lon="7.40706">
        <ele>535.4</ele>
        <time>2024-07-09T06:04:21Z</time>
      </trkpt>
      <trkpt lat="43.90904" lon="7.40708">
        <ele>535.4</ele>
        <time>2024-07-09T06:04:22Z</time>
      </trkpt>
      <trkpt lat="43.90906" lon="7.40709">
        <ele>535.8</ele>
        <time>2024-07-09T06:04:23Z</time>
      </trkpt>
      <trkpt lat="43.90908" lon="7.4071">
        <ele>535.8</ele>
        <time>2024-07-09T06:04:24Z</time>
      </trkpt>
      <trkpt lat="43.9091" lon="7.40711">
        <ele>536</ele>
        <time>2024-07-09T06:04:25Z</time>
      </trkpt>
      <trkpt lat="43.90912" lon="7.40712">
        <ele>536</ele>
        <time>2024-07-09T06:04:26Z</time>
      </trkpt>
      <trkpt lat="43.90914" lon="7.40712">
        <ele>536.4</ele>
        <time>2024-07-09T06:04:27Z</time>
      </trkpt>
      <trkpt lat="43.90916" lon="7.40714">
        <ele>536.4</ele>
        <time>2024-07-09T06:04:28Z</time>
      </trkpt>
      <trkpt lat="43.90917" lon="7.40715">
        <ele>536.4</ele>
        <time>2024-07-09T06:04:29Z</time>
      </trkpt>
      <trkpt lat="43.90919" lon="7.40716">
        <ele>536.4</ele>
        <time>2024-07-09T06:04:30Z</time>
      </trkpt>
      <trkpt lat="43.90921" lon="7.40717">
        <ele>536.4</ele>
        <time>2024-07-09T06:04:31Z</time>
      </trkpt>
      <trkpt lat="43.90922" lon="7.40718">
        <ele>537</ele>
        <time>2024-07-09T06:04:32Z</time>
      </trkpt>
      <trkpt lat="43.90924" lon="7.40719">
        <ele>537</ele>
        <time>2024-07-09T06:04:33Z</time>
      </trkpt>
      <trkpt lat="43.90926" lon="7.40721">
        <ele>537</ele>
        <time>2024-07-09T06:04:34Z</time>
      </trkpt>
      <trkpt lat="43.90927" lon="7.40723">
        <ele>537</ele>
        <time>2024-07-09T06:04:35Z</time>
      </trkpt>
      <trkpt lat="43.90929" lon="7.40724">
        <ele>537</ele>
        <time>2024-07-09T06:04:36Z</time>
      </trkpt>
      <trkpt lat="43.90931" lon="7.40725">
        <ele>537.4</ele>
        <time>2024-07-09T06:04:37Z</time>
      </trkpt>
      <trkpt lat="43.90932" lon="7.40727">
        <ele>537.6</ele>
        <time>2024-07-09T06:04:38Z</time>
      </trkpt>
      <trkpt lat="43.90934" lon="7.40729">
        <ele>537.6</ele>
        <time>2024-07-09T06:04:39Z</time>
      </trkpt>
      <trkpt lat="43.90935" lon="7.4073">
        <ele>537.6</ele>
        <time>2024-07-09T06:04:40Z</time>
      </trkpt>
      <trkpt lat="43.90937" lon="7.40731">
        <ele>537.6</ele>
        <time>2024-07-09T06:04:41Z</time>
      </trkpt>
      <trkpt lat="43.90939" lon="7.40732">
        <ele>538.2</ele>
        <time>2024-07-09T06:04:42Z</time>
      </trkpt>
      <trkpt lat="43.90942" lon="7.40733">
        <ele>538.2</ele>
        <time>2024-07-09T06:04:43Z</time>
      </trkpt>
      <trkpt lat="43.90944" lon="7.40735">
        <ele>538.2</ele>
        <time>2024-07-09T06:04:44Z</time>
      </trkpt>
      <trkpt lat="43.90946" lon="7.40736">
        <ele>538.2</ele>
        <time>2024-07-09T06:04:45Z</time>
      </trkpt>
      <trkpt lat="43.90948" lon="7.40737">
        <ele>539</ele>
        <time>2024-07-09T06:04:46Z</time>
      </trkpt>
      <trkpt lat="43.9095" lon="7.40738">
        <ele>538.8</ele>
        <time>2024-07-09T06:04:47Z</time>
      </trkpt>
      <trkpt lat="43.90952" lon="7.40739">
        <ele>538.8</ele>
        <time>2024-07-09T06:04:48Z</time>
      </trkpt>
      <trkpt lat="43.90953" lon="7.4074">
        <ele>538.8</ele>
        <time>2024-07-09T06:04:49Z</time>
      </trkpt>
      <trkpt lat="43.90955" lon="7.40741">
        <ele>539.4</ele>
        <time>2024-07-09T06:04:50Z</time>
      </trkpt>
      <trkpt lat="43.90957" lon="7.40742">
        <ele>539.6</ele>
        <time>2024-07-09T06:04:51Z</time>
      </trkpt>
      <trkpt lat="43.90959" lon="7.40743">
        <ele>539.6</ele>
        <time>2024-07-09T06:04:52Z</time>
      </trkpt>
      <trkpt lat="43.9096" lon="7.40744">
        <ele>539.6</ele>
        <time>2024-07-09T06:04:53Z</time>
      </trkpt>
      <trkpt lat="43.90962" lon="7.40744">
        <ele>539.6</ele>
        <time>2024-07-09T06:04:54Z</time>
      </trkpt>
      <trkpt lat="43.90964" lon="7.40745">
        <ele>540</ele>
        <time>2024-07-09T06:04:55Z</time>
      </trkpt>
      <trkpt lat="43.90966" lon="7.40746">
        <ele>540.2</ele>
        <time>2024-07-09T06:04:56Z</time>
      </trkpt>
      <trkpt lat="43.90967" lon="7.40746">
        <ele>540.2</ele>
        <time>2024-07-09T06:04:57Z</time>
      </trkpt>
      <trkpt lat="43.90969" lon="7.40747">
        <ele>540.2</ele>
        <time>2024-07-09T06:04:58Z</time>
      </trkpt>
      <trkpt lat="43.9097" lon="7.40747">
        <ele>540.4</ele>
        <time>2024-07-09T06:04:59Z</time>
      </trkpt>
      <trkpt lat="43.90971" lon="7.40748">
        <ele>540.6</ele>
        <time>2024-07-09T06:05:00Z</time>
      </trkpt>
      <trkpt lat="43.90972" lon="7.40748">
        <ele>540.6</ele>
        <time>2024-07-09T06:05:01Z</time>
      </trkpt>
      <trkpt lat="43.90974" lon="7.40748">
        <ele>540.6</ele>
        <time>2024-07-09T06:05:02Z</time>
      </trkpt>
      <trkpt lat="43.90976" lon="7.40749">
        <ele>541</ele>
        <time>2024-07-09T06:05:03Z</time>
      </trkpt>
      <trkpt lat="43.90978" lon="7.40749">
        <ele>541</ele>
        <time>2024-07-09T06:05:04Z</time>
      </trkpt>
      <trkpt lat="43.9098" lon="7.4075">
        <ele>541</ele>
        <time>2024-07-09T06:05:05Z</time>
      </trkpt>
      <trkpt lat="43.90982" lon="7.4075">
        <ele>541</ele>
        <time>2024-07-09T06:05:06Z</time>
      </trkpt>
      <trkpt lat="43.90984" lon="7.4075">
        <ele>541</ele>
        <time>2024-07-09T06:05:07Z</time>
      </trkpt>
      <trkpt lat="43.90986" lon="7.4075">
        <ele>541.4</ele>
        <time>2024-07-09T06:05:08Z</time>
      </trkpt>
      <trkpt lat="43.90988" lon="7.40751">
        <ele>541.8</ele>
        <time>2024-07-09T06:05:09Z</time>
      </trkpt>
      <trkpt lat="43.9099" lon="7.40751">
        <ele>541.8</ele>
        <time>2024-07-09T06:05:10Z</time>
      </trkpt>
      <trkpt lat="43.90992" lon="7.40752">
        <ele>541.8</ele>
        <time>2024-07-09T06:05:11Z</time>
      </trkpt>
      <trkpt lat="43.90994" lon="7.40752">
        <ele>542.2</ele>
        <time>2024-07-09T06:05:12Z</time>
      </trkpt>
      <trkpt lat="43.90996" lon="7.40753">
        <ele>542.4</ele>
        <time>2024-07-09T06:05:13Z</time>
      </trkpt>
      <trkpt lat="43.90997" lon="7.40754">
        <ele>542.4</ele>
        <time>2024-07-09T06:05:14Z</time>
      </trkpt>
      <trkpt lat="43.90999" lon="7.40754">
        <ele>542.4</ele>
        <time>2024-07-09T06:05:15Z</time>
      </trkpt>
      <trkpt lat="43.91001" lon="7.40755">
        <ele>542.4</ele>
        <time>2024-07-09T06:05:16Z</time>
      </trkpt>
      <trkpt lat="43.91003" lon="7.40755">
        <ele>542.6</ele>
        <time>2024-07-09T06:05:17Z</time>
      </trkpt>
      <trkpt lat="43.91005" lon="7.40756">
        <ele>542.6</ele>
        <time>2024-07-09T06:05:18Z</time>
      </trkpt>
      <trkpt lat="43.91007" lon="7.40757">
        <ele>542.8</ele>
        <time>2024-07-09T06:05:19Z</time>
      </trkpt>
      <trkpt lat="43.91008" lon="7.40757">
        <ele>542.8</ele>
        <time>2024-07-09T06:05:20Z</time>
      </trkpt>
      <trkpt lat="43.9101" lon="7.40758">
        <ele>542.8</ele>
        <time>2024-07-09T06:05:21Z</time>
      </trkpt>
      <trkpt lat="43.91012" lon="7.40758">
        <ele>543.2</ele>
        <time>2024-07-09T06:05:22Z</time>
      </trkpt>
      <trkpt lat="43.91014" lon="7.40759">
        <ele>543.4</ele>
        <time>2024-07-09T06:05:23Z</time>
      </trkpt>
      <trkpt lat="43.91016" lon="7.4076">
        <ele>543.4</ele>
        <time>2024-07-09T06:05:24Z</time>
      </trkpt>
      <trkpt lat="43.91017" lon="7.40761">
        <ele>543.4</ele>
        <time>2024-07-09T06:05:25Z</time>
      </trkpt>
      <trkpt lat="43.91019" lon="7.40762">
        <ele>544</ele>
        <time>2024-07-09T06:05:26Z</time>
      </trkpt>
      <trkpt lat="43.91021" lon="7.40762">
        <ele>544</ele>
        <time>2024-07-09T06:05:27Z</time>
      </trkpt>
      <trkpt lat="43.91023" lon="7.40763">
        <ele>544</ele>
        <time>2024-07-09T06:05:28Z</time>
      </trkpt>
      <trkpt lat="43.91025" lon="7.40764">
        <ele>544</ele>
        <time>2024-07-09T06:05:29Z</time>
      </trkpt>
      <trkpt lat="43.91028" lon="7.40764">
        <ele>544.4</ele>
        <time>2024-07-09T06:05:30Z</time>
      </trkpt>
      <trkpt lat="43.9103" lon="7.40765">
        <ele>544.6</ele>
        <time>2024-07-09T06:05:31Z</time>
      </trkpt>
      <trkpt lat="43.91032" lon="7.40765">
        <ele>544.6</ele>
        <time>2024-07-09T06:05:32Z</time>
      </trkpt>
      <trkpt lat="43.91035" lon="7.40766">
        <ele>544.6</ele>
        <time>2024-07-09T06:05:33Z</time>
      </trkpt>
      <trkpt lat="43.91037" lon="7.40766">
        <ele>544.6</ele>
        <time>2024-07-09T06:05:34Z</time>
      </trkpt>
      <trkpt lat="43.91039" lon="7.40767">
        <ele>545</ele>
        <time>2024-07-09T06:05:35Z</time>
      </trkpt>
      <trkpt lat="43.91041" lon="7.40768">
        <ele>545</ele>
        <time>2024-07-09T06:05:36Z</time>
      </trkpt>
      <trkpt lat="43.91043" lon="7.40769">
        <ele>545</ele>
        <time>2024-07-09T06:05:37Z</time>
      </trkpt>
      <trkpt lat="43.91044" lon="7.40769">
        <ele>545</ele>
        <time>2024-07-09T06:05:38Z</time>
      </trkpt>
      <trkpt lat="43.91046" lon="7.4077">
        <ele>545.4</ele>
        <time>2024-07-09T06:05:39Z</time>
      </trkpt>
      <trkpt lat="43.91048" lon="7.4077">
        <ele>545.4</ele>
        <time>2024-07-09T06:05:40Z</time>
      </trkpt>
      <trkpt lat="43.9105" lon="7.4077">
        <ele>545.6</ele>
        <time>2024-07-09T06:05:41Z</time>
      </trkpt>
      <trkpt lat="43.91052" lon="7.4077">
        <ele>545.6</ele>
        <time>2024-07-09T06:05:42Z</time>
      </trkpt>
      <trkpt lat="43.91054" lon="7.4077">
        <ele>546.2</ele>
        <time>2024-07-09T06:05:43Z</time>
      </trkpt>
      <trkpt lat="43.91056" lon="7.4077">
        <ele>546.2</ele>
        <time>2024-07-09T06:05:44Z</time>
      </trkpt>
      <trkpt lat="43.91058" lon="7.40771">
        <ele>546.2</ele>
        <time>2024-07-09T06:05:45Z</time>
      </trkpt>
      <trkpt lat="43.9106" lon="7.40771">
        <ele>546.2</ele>
        <time>2024-07-09T06:05:46Z</time>
      </trkpt>
      <trkpt lat="43.91062" lon="7.40771">
        <ele>546.2</ele>
        <time>2024-07-09T06:05:47Z</time>
      </trkpt>
      <trkpt lat="43.91064" lon="7.40771">
        <ele>546.6</ele>
        <time>2024-07-09T06:05:48Z</time>
      </trkpt>
      <trkpt lat="43.91066" lon="7.40772">
        <ele>546.8</ele>
        <time>2024-07-09T06:05:49Z</time>
      </trkpt>
      <trkpt lat="43.91068" lon="7.40772">
        <ele>546.8</ele>
        <time>2024-07-09T06:05:50Z</time>
      </trkpt>
      <trkpt lat="43.9107" lon="7.40772">
        <ele>546.8</ele>
        <time>2024-07-09T06:05:51Z</time>
      </trkpt>
      <trkpt lat="43.91072" lon="7.40772">
        <ele>547.2</ele>
        <time>2024-07-09T06:05:52Z</time>
      </trkpt>
      <trkpt lat="43.91074" lon="7.40772">
        <ele>547.4</ele>
        <time>2024-07-09T06:05:53Z</time>
      </trkpt>
      <trkpt lat="43.91076" lon="7.40773">
        <ele>547.4</ele>
        <time>2024-07-09T06:05:54Z</time>
      </trkpt>
      <trkpt lat="43.91078" lon="7.40773">
        <ele>547.4</ele>
        <time>2024-07-09T06:05:55Z</time>
      </trkpt>
      <trkpt lat="43.9108" lon="7.40774">
        <ele>547.4</ele>
        <time>2024-07-09T06:05:56Z</time>
      </trkpt>
      <trkpt lat="43.91082" lon="7.40776">
        <ele>547.6</ele>
        <time>2024-07-09T06:05:57Z</time>
      </trkpt>
      <trkpt lat="43.91083" lon="7.40777">
        <ele>547.8</ele>
        <time>2024-07-09T06:05:58Z</time>
      </trkpt>
      <trkpt lat="43.91085" lon="7.40778">
        <ele>547.8</ele>
        <time>2024-07-09T06:05:59Z</time>
      </trkpt>
      <trkpt lat="43.91086" lon="7.40779">
        <ele>547.8</ele>
        <time>2024-07-09T06:06:00Z</time>
      </trkpt>
      <trkpt lat="43.91088" lon="7.4078">
        <ele>548.2</ele>
        <time>2024-07-09T06:06:01Z</time>
      </trkpt>
      <trkpt lat="43.91089" lon="7.40782">
        <ele>548.4</ele>
        <time>2024-07-09T06:06:02Z</time>
      </trkpt>
      <trkpt lat="43.91091" lon="7.40784">
        <ele>548.4</ele>
        <time>2024-07-09T06:06:03Z</time>
      </trkpt>
      <trkpt lat="43.91093" lon="7.40785">
        <ele>548.4</ele>
        <time>2024-07-09T06:06:04Z</time>
      </trkpt>
      <trkpt lat="43.91094" lon="7.40787">
        <ele>548.4</ele>
        <time>2024-07-09T06:06:05Z</time>
      </trkpt>
      <trkpt lat="43.91096" lon="7.40788">
        <ele>548.8</ele>
        <time>2024-07-09T06:06:06Z</time>
      </trkpt>
      <trkpt lat="43.91097" lon="7.4079">
        <ele>548.8</ele>
        <time>2024-07-09T06:06:07Z</time>
      </trkpt>
      <trkpt lat="43.91099" lon="7.40792">
        <ele>548.8</ele>
        <time>2024-07-09T06:06:08Z</time>
      </trkpt>
      <trkpt lat="43.91101" lon="7.40794">
        <ele>548.8</ele>
        <time>2024-07-09T06:06:09Z</time>
      </trkpt>
      <trkpt lat="43.91103" lon="7.40795">
        <ele>549.4</ele>
        <time>2024-07-09T06:06:10Z</time>
      </trkpt>
      <trkpt lat="43.91105" lon="7.40797">
        <ele>549.6</ele>
        <time>2024-07-09T06:06:11Z</time>
      </trkpt>
      <trkpt lat="43.91106" lon="7.40799">
        <ele>549.6</ele>
        <time>2024-07-09T06:06:12Z</time>
      </trkpt>
      <trkpt lat="43.91108" lon="7.408">
        <ele>549.6</ele>
        <time>2024-07-09T06:06:13Z</time>
      </trkpt>
      <trkpt lat="43.9111" lon="7.40802">
        <ele>550.2</ele>
        <time>2024-07-09T06:06:14Z</time>
      </trkpt>
      <trkpt lat="43.91111" lon="7.40804">
        <ele>550.2</ele>
        <time>2024-07-09T06:06:15Z</time>
      </trkpt>
      <trkpt lat="43.91113" lon="7.40805">
        <ele>550.2</ele>
        <time>2024-07-09T06:06:16Z</time>
      </trkpt>
      <trkpt lat="43.91115" lon="7.40806">
        <ele>550.2</ele>
        <time>2024-07-09T06:06:17Z</time>
      </trkpt>
      <trkpt lat="43.91117" lon="7.40807">
        <ele>550.2</ele>
        <time>2024-07-09T06:06:18Z</time>
      </trkpt>
      <trkpt lat="43.91119" lon="7.40806">
        <ele>550.4</ele>
        <time>2024-07-09T06:06:19Z</time>
      </trkpt>
      <trkpt lat="43.91121" lon="7.40804">
        <ele>550.6</ele>
        <time>2024-07-09T06:06:20Z</time>
      </trkpt>
      <trkpt lat="43.91122" lon="7.40802">
        <ele>550.6</ele>
        <time>2024-07-09T06:06:21Z</time>
      </trkpt>
      <trkpt lat="43.91123" lon="7.408">
        <ele>550.6</ele>
        <time>2024-07-09T06:06:22Z</time>
      </trkpt>
      <trkpt lat="43.91123" lon="7.40797">
        <ele>550.8</ele>
        <time>2024-07-09T06:06:23Z</time>
      </trkpt>
      <trkpt lat="43.91122" lon="7.40794">
        <ele>550.8</ele>
        <time>2024-07-09T06:06:24Z</time>
      </trkpt>
      <trkpt lat="43.91121" lon="7.40792">
        <ele>550.8</ele>
        <time>2024-07-09T06:06:25Z</time>
      </trkpt>
      <trkpt lat="43.91119" lon="7.40791">
        <ele>550.8</ele>
        <time>2024-07-09T06:06:26Z</time>
      </trkpt>
      <trkpt lat="43.91116" lon="7.4079">
        <ele>550.8</ele>
        <time>2024-07-09T06:06:27Z</time>
      </trkpt>
      <trkpt lat="43.91114" lon="7.40788">
        <ele>551.4</ele>
        <time>2024-07-09T06:06:28Z</time>
      </trkpt>
      <trkpt lat="43.91112" lon="7.40787">
        <ele>551.4</ele>
        <time>2024-07-09T06:06:29Z</time>
      </trkpt>
      <trkpt lat="43.9111" lon="7.40785">
        <ele>551.4</ele>
        <time>2024-07-09T06:06:30Z</time>
      </trkpt>
      <trkpt lat="43.91108" lon="7.40784">
        <ele>551.4</ele>
        <time>2024-07-09T06:06:31Z</time>
      </trkpt>
      <trkpt lat="43.91106" lon="7.40783">
        <ele>551.8</ele>
        <time>2024-07-09T06:06:32Z</time>
      </trkpt>
      <trkpt lat="43.91104" lon="7.40781">
        <ele>552</ele>
        <time>2024-07-09T06:06:33Z</time>
      </trkpt>
      <trkpt lat="43.91102" lon="7.4078">
        <ele>552</ele>
        <time>2024-07-09T06:06:34Z</time>
      </trkpt>
      <trkpt lat="43.911" lon="7.40779">
        <ele>552</ele>
        <time>2024-07-09T06:06:35Z</time>
      </trkpt>
      <trkpt lat="43.91098" lon="7.40777">
        <ele>552</ele>
        <time>2024-07-09T06:06:36Z</time>
      </trkpt>
      <trkpt lat="43.91096" lon="7.40775">
        <ele>552.6</ele>
        <time>2024-07-09T06:06:37Z</time>
      </trkpt>
      <trkpt lat="43.91095" lon="7.40773">
        <ele>552.6</ele>
        <time>2024-07-09T06:06:38Z</time>
      </trkpt>
      <trkpt lat="43.91094" lon="7.40771">
        <ele>552.6</ele>
        <time>2024-07-09T06:06:39Z</time>
      </trkpt>
      <trkpt lat="43.91092" lon="7.4077">
        <ele>552.6</ele>
        <time>2024-07-09T06:06:40Z</time>
      </trkpt>
      <trkpt lat="43.91091" lon="7.40769">
        <ele>552.6</ele>
        <time>2024-07-09T06:06:41Z</time>
      </trkpt>
      <trkpt lat="43.91089" lon="7.40768">
        <ele>553.2</ele>
        <time>2024-07-09T06:06:42Z</time>
      </trkpt>
      <trkpt lat="43.91088" lon="7.40766">
        <ele>553.4</ele>
        <time>2024-07-09T06:06:43Z</time>
      </trkpt>
      <trkpt lat="43.91086" lon="7.40764">
        <ele>553.4</ele>
        <time>2024-07-09T06:06:44Z</time>
      </trkpt>
      <trkpt lat="43.91085" lon="7.40762">
        <ele>553.4</ele>
        <time>2024-07-09T06:06:45Z</time>
      </trkpt>
      <trkpt lat="43.91083" lon="7.40761">
        <ele>553.4</ele>
        <time>2024-07-09T06:06:46Z</time>
      </trkpt>
      <trkpt lat="43.91081" lon="7.40759">
        <ele>553.8</ele>
        <time>2024-07-09T06:06:47Z</time>
      </trkpt>
      <trkpt lat="43.91079" lon="7.40758">
        <ele>553.8</ele>
        <time>2024-07-09T06:06:48Z</time>
      </trkpt>
      <trkpt lat="43.91077" lon="7.40756">
        <ele>553.8</ele>
        <time>2024-07-09T06:06:49Z</time>
      </trkpt>
      <trkpt lat="43.91076" lon="7.40755">
        <ele>553.8</ele>
        <time>2024-07-09T06:06:50Z</time>
      </trkpt>
      <trkpt lat="43.91074" lon="7.40754">
        <ele>554.4</ele>
        <time>2024-07-09T06:06:51Z</time>
      </trkpt>
      <trkpt lat="43.91073" lon="7.40754">
        <ele>554.4</ele>
        <time>2024-07-09T06:06:52Z</time>
      </trkpt>
      <trkpt lat="43.91071" lon="7.40753">
        <ele>554.4</ele>
        <time>2024-07-09T06:06:53Z</time>
      </trkpt>
      <trkpt lat="43.91069" lon="7.40752">
        <ele>554.4</ele>
        <time>2024-07-09T06:06:54Z</time>
      </trkpt>
      <trkpt lat="43.91067" lon="7.40751">
        <ele>555</ele>
        <time>2024-07-09T06:06:55Z</time>
      </trkpt>
      <trkpt lat="43.91065" lon="7.40751">
        <ele>555.2</ele>
        <time>2024-07-09T06:06:56Z</time>
      </trkpt>
      <trkpt lat="43.91063" lon="7.4075">
        <ele>555.2</ele>
        <time>2024-07-09T06:06:57Z</time>
      </trkpt>
      <trkpt lat="43.91061" lon="7.4075">
        <ele>555.2</ele>
        <time>2024-07-09T06:06:58Z</time>
      </trkpt>
      <trkpt lat="43.9106" lon="7.40749">
        <ele>555.4</ele>
        <time>2024-07-09T06:06:59Z</time>
      </trkpt>
      <trkpt lat="43.91057" lon="7.40748">
        <ele>555.8</ele>
        <time>2024-07-09T06:07:00Z</time>
      </trkpt>
      <trkpt lat="43.91056" lon="7.40748">
        <ele>555.8</ele>
        <time>2024-07-09T06:07:01Z</time>
      </trkpt>
      <trkpt lat="43.91054" lon="7.40747">
        <ele>555.8</ele>
        <time>2024-07-09T06:07:02Z</time>
      </trkpt>
      <trkpt lat="43.91052" lon="7.40747">
        <ele>555.8</ele>
        <time>2024-07-09T06:07:03Z</time>
      </trkpt>
      <trkpt lat="43.91049" lon="7.40746">
        <ele>555.8</ele>
        <time>2024-07-09T06:07:04Z</time>
      </trkpt>
      <trkpt lat="43.91047" lon="7.40746">
        <ele>556.2</ele>
        <time>2024-07-09T06:07:05Z</time>
      </trkpt>
      <trkpt lat="43.91045" lon="7.40745">
        <ele>556.2</ele>
        <time>2024-07-09T06:07:06Z</time>
      </trkpt>
      <trkpt lat="43.91044" lon="7.40745">
        <ele>556.2</ele>
        <time>2024-07-09T06:07:07Z</time>
      </trkpt>
      <trkpt lat="43.91042" lon="7.40744">
        <ele>556.2</ele>
        <time>2024-07-09T06:07:08Z</time>
      </trkpt>
      <trkpt lat="43.9104" lon="7.40744">
        <ele>556.6</ele>
        <time>2024-07-09T06:07:09Z</time>
      </trkpt>
      <trkpt lat="43.91038" lon="7.40744">
        <ele>556.6</ele>
        <time>2024-07-09T06:07:10Z</time>
      </trkpt>
      <trkpt lat="43.91036" lon="7.40744">
        <ele>556.6</ele>
        <time>2024-07-09T06:07:11Z</time>
      </trkpt>
      <trkpt lat="43.91034" lon="7.40743">
        <ele>556.6</ele>
        <time>2024-07-09T06:07:12Z</time>
      </trkpt>
      <trkpt lat="43.91032" lon="7.40743">
        <ele>557.6</ele>
        <time>2024-07-09T06:07:13Z</time>
      </trkpt>
      <trkpt lat="43.91031" lon="7.40743">
        <ele>557.6</ele>
        <time>2024-07-09T06:07:14Z</time>
      </trkpt>
      <trkpt lat="43.91029" lon="7.40742">
        <ele>557.6</ele>
        <time>2024-07-09T06:07:15Z</time>
      </trkpt>
      <trkpt lat="43.91027" lon="7.40742">
        <ele>557.6</ele>
        <time>2024-07-09T06:07:16Z</time>
      </trkpt>
      <trkpt lat="43.91025" lon="7.40741">
        <ele>557.8</ele>
        <time>2024-07-09T06:07:17Z</time>
      </trkpt>
      <trkpt lat="43.91024" lon="7.4074">
        <ele>557.8</ele>
        <time>2024-07-09T06:07:18Z</time>
      </trkpt>
      <trkpt lat="43.91022" lon="7.40739">
        <ele>557.8</ele>
        <time>2024-07-09T06:07:19Z</time>
      </trkpt>
      <trkpt lat="43.9102" lon="7.40739">
        <ele>557.8</ele>
        <time>2024-07-09T06:07:20Z</time>
      </trkpt>
      <trkpt lat="43.91018" lon="7.40738">
        <ele>558.4</ele>
        <time>2024-07-09T06:07:21Z</time>
      </trkpt>
      <trkpt lat="43.91016" lon="7.40737">
        <ele>558.4</ele>
        <time>2024-07-09T06:07:22Z</time>
      </trkpt>
      <trkpt lat="43.91015" lon="7.40736">
        <ele>558.4</ele>
        <time>2024-07-09T06:07:23Z</time>
      </trkpt>
      <trkpt lat="43.91014" lon="7.40735">
        <ele>558.4</ele>
        <time>2024-07-09T06:07:24Z</time>
      </trkpt>
      <trkpt lat="43.91013" lon="7.40735">
        <ele>558.4</ele>
        <time>2024-07-09T06:07:25Z</time>
      </trkpt>
      <trkpt lat="43.91011" lon="7.40734">
        <ele>558.4</ele>
        <time>2024-07-09T06:07:26Z</time>
      </trkpt>
      <trkpt lat="43.9101" lon="7.40733">
        <ele>559.2</ele>
        <time>2024-07-09T06:07:27Z</time>
      </trkpt>
      <trkpt lat="43.91009" lon="7.40732">
        <ele>559.2</ele>
        <time>2024-07-09T06:07:28Z</time>
      </trkpt>
      <trkpt lat="43.91007" lon="7.4073">
        <ele>559.2</ele>
        <time>2024-07-09T06:07:29Z</time>
      </trkpt>
      <trkpt lat="43.91006" lon="7.40729">
        <ele>559.2</ele>
        <time>2024-07-09T06:07:30Z</time>
      </trkpt>
      <trkpt lat="43.91004" lon="7.40727">
        <ele>559.6</ele>
        <time>2024-07-09T06:07:31Z</time>
      </trkpt>
      <trkpt lat="43.91003" lon="7.40726">
        <ele>560</ele>
        <time>2024-07-09T06:07:32Z</time>
      </trkpt>
      <trkpt lat="43.91001" lon="7.40724">
        <ele>560</ele>
        <time>2024-07-09T06:07:33Z</time>
      </trkpt>
      <trkpt lat="43.91" lon="7.40722">
        <ele>560</ele>
        <time>2024-07-09T06:07:34Z</time>
      </trkpt>
      <trkpt lat="43.90999" lon="7.40721">
        <ele>560</ele>
        <time>2024-07-09T06:07:35Z</time>
      </trkpt>
      <trkpt lat="43.90997" lon="7.4072">
        <ele>560.2</ele>
        <time>2024-07-09T06:07:36Z</time>
      </trkpt>
      <trkpt lat="43.90996" lon="7.4072">
        <ele>560.2</ele>
        <time>2024-07-09T06:07:37Z</time>
      </trkpt>
      <trkpt lat="43.90994" lon="7.40719">
        <ele>560.2</ele>
        <time>2024-07-09T06:07:38Z</time>
      </trkpt>
      <trkpt lat="43.90992" lon="7.40718">
        <ele>560.6</ele>
        <time>2024-07-09T06:07:39Z</time>
      </trkpt>
      <trkpt lat="43.9099" lon="7.40717">
        <ele>560.6</ele>
        <time>2024-07-09T06:07:40Z</time>
      </trkpt>
      <trkpt lat="43.90988" lon="7.40716">
        <ele>560.6</ele>
        <time>2024-07-09T06:07:41Z</time>
      </trkpt>
      <trkpt lat="43.90987" lon="7.40715">
        <ele>560.6</ele>
        <time>2024-07-09T06:07:42Z</time>
      </trkpt>
      <trkpt lat="43.90985" lon="7.40714">
        <ele>560.6</ele>
        <time>2024-07-09T06:07:43Z</time>
      </trkpt>
      <trkpt lat="43.90985" lon="7.40712">
        <ele>561.4</ele>
        <time>2024-07-09T06:07:44Z</time>
      </trkpt>
      <trkpt lat="43.90986" lon="7.4071">
        <ele>561.6</ele>
        <time>2024-07-09T06:07:45Z</time>
      </trkpt>
      <trkpt lat="43.90987" lon="7.40708">
        <ele>561.6</ele>
        <time>2024-07-09T06:07:46Z</time>
      </trkpt>
      <trkpt lat="43.90989" lon="7.40708">
        <ele>561.6</ele>
        <time>2024-07-09T06:07:47Z</time>
      </trkpt>
      <trkpt lat="43.90991" lon="7.40708">
        <ele>562</ele>
        <time>2024-07-09T06:07:48Z</time>
      </trkpt>
      <trkpt lat="43.90993" lon="7.40708">
        <ele>562</ele>
        <time>2024-07-09T06:07:49Z</time>
      </trkpt>
      <trkpt lat="43.90995" lon="7.40709">
        <ele>562</ele>
        <time>2024-07-09T06:07:50Z</time>
      </trkpt>
      <trkpt lat="43.90997" lon="7.4071">
        <ele>562</ele>
        <time>2024-07-09T06:07:51Z</time>
      </trkpt>
      <trkpt lat="43.90999" lon="7.4071">
        <ele>562.6</ele>
        <time>2024-07-09T06:07:52Z</time>
      </trkpt>
      <trkpt lat="43.91001" lon="7.40711">
        <ele>562.6</ele>
        <time>2024-07-09T06:07:53Z</time>
      </trkpt>
      <trkpt lat="43.91002" lon="7.40712">
        <ele>562.6</ele>
        <time>2024-07-09T06:07:54Z</time>
      </trkpt>
      <trkpt lat="43.91004" lon="7.40714">
        <ele>562.6</ele>
        <time>2024-07-09T06:07:55Z</time>
      </trkpt>
      <trkpt lat="43.91006" lon="7.40716">
        <ele>562.6</ele>
        <time>2024-07-09T06:07:56Z</time>
      </trkpt>
      <trkpt lat="43.91007" lon="7.40718">
        <ele>563.2</ele>
        <time>2024-07-09T06:07:57Z</time>
      </trkpt>
      <trkpt lat="43.91009" lon="7.4072">
        <ele>563</ele>
        <time>2024-07-09T06:07:58Z</time>
      </trkpt>
      <trkpt lat="43.91011" lon="7.40721">
        <ele>563</ele>
        <time>2024-07-09T06:07:59Z</time>
      </trkpt>
      <trkpt lat="43.91012" lon="7.40722">
        <ele>563</ele>
        <time>2024-07-09T06:08:00Z</time>
      </trkpt>
      <trkpt lat="43.91014" lon="7.40724">
        <ele>563.6</ele>
        <time>2024-07-09T06:08:01Z</time>
      </trkpt>
      <trkpt lat="43.91016" lon="7.40726">
        <ele>563.8</ele>
        <time>2024-07-09T06:08:02Z</time>
      </trkpt>
      <trkpt lat="43.91018" lon="7.40727">
        <ele>563.8</ele>
        <time>2024-07-09T06:08:03Z</time>
      </trkpt>
      <trkpt lat="43.91019" lon="7.40728">
        <ele>563.8</ele>
        <time>2024-07-09T06:08:04Z</time>
      </trkpt>
      <trkpt lat="43.91021" lon="7.40729">
        <ele>564.4</ele>
        <time>2024-07-09T06:08:05Z</time>
      </trkpt>
      <trkpt lat="43.91023" lon="7.4073">
        <ele>564.4</ele>
        <time>2024-07-09T06:08:06Z</time>
      </trkpt>
      <trkpt lat="43.91025" lon="7.4073">
        <ele>564.2</ele>
        <time>2024-07-09T06:08:07Z</time>
      </trkpt>
      <trkpt lat="43.91027" lon="7.40731">
        <ele>564.2</ele>
        <time>2024-07-09T06:08:08Z</time>
      </trkpt>
      <trkpt lat="43.91029" lon="7.40732">
        <ele>564.2</ele>
        <time>2024-07-09T06:08:09Z</time>
      </trkpt>
      <trkpt lat="43.9103" lon="7.40733">
        <ele>564.2</ele>
        <time>2024-07-09T06:08:10Z</time>
      </trkpt>
      <trkpt lat="43.91032" lon="7.40734">
        <ele>564.8</ele>
        <time>2024-07-09T06:08:11Z</time>
      </trkpt>
      <trkpt lat="43.91034" lon="7.40734">
        <ele>565</ele>
        <time>2024-07-09T06:08:12Z</time>
      </trkpt>
      <trkpt lat="43.91036" lon="7.40734">
        <ele>565</ele>
        <time>2024-07-09T06:08:13Z</time>
      </trkpt>
      <trkpt lat="43.91038" lon="7.40735">
        <ele>565</ele>
        <time>2024-07-09T06:08:14Z</time>
      </trkpt>
      <trkpt lat="43.9104" lon="7.40736">
        <ele>565</ele>
        <time>2024-07-09T06:08:15Z</time>
      </trkpt>
      <trkpt lat="43.91042" lon="7.40736">
        <ele>565.6</ele>
        <time>2024-07-09T06:08:16Z</time>
      </trkpt>
      <trkpt lat="43.91044" lon="7.40736">
        <ele>565.6</ele>
        <time>2024-07-09T06:08:17Z</time>
      </trkpt>
      <trkpt lat="43.91046" lon="7.40736">
        <ele>565.6</ele>
        <time>2024-07-09T06:08:18Z</time>
      </trkpt>
      <trkpt lat="43.91048" lon="7.40737">
        <ele>565.6</ele>
        <time>2024-07-09T06:08:19Z</time>
      </trkpt>
      <trkpt lat="43.9105" lon="7.40737">
        <ele>566</ele>
        <time>2024-07-09T06:08:20Z</time>
      </trkpt>
      <trkpt lat="43.91052" lon="7.40737">
        <ele>566.2</ele>
        <time>2024-07-09T06:08:21Z</time>
      </trkpt>
      <trkpt lat="43.91053" lon="7.40737">
        <ele>566.2</ele>
        <time>2024-07-09T06:08:22Z</time>
      </trkpt>
      <trkpt lat="43.91055" lon="7.40738">
        <ele>566.2</ele>
        <time>2024-07-09T06:08:23Z</time>
      </trkpt>
      <trkpt lat="43.91057" lon="7.40738">
        <ele>566.2</ele>
        <time>2024-07-09T06:08:24Z</time>
      </trkpt>
      <trkpt lat="43.91058" lon="7.40739">
        <ele>566.8</ele>
        <time>2024-07-09T06:08:25Z</time>
      </trkpt>
      <trkpt lat="43.9106" lon="7.40739">
        <ele>566.8</ele>
        <time>2024-07-09T06:08:26Z</time>
      </trkpt>
      <trkpt lat="43.91062" lon="7.40739">
        <ele>566.8</ele>
        <time>2024-07-09T06:08:27Z</time>
      </trkpt>
      <trkpt lat="43.91064" lon="7.4074">
        <ele>566.8</ele>
        <time>2024-07-09T06:08:28Z</time>
      </trkpt>
      <trkpt lat="43.91065" lon="7.40741">
        <ele>567.4</ele>
        <time>2024-07-09T06:08:29Z</time>
      </trkpt>
      <trkpt lat="43.91067" lon="7.40741">
        <ele>567.4</ele>
        <time>2024-07-09T06:08:30Z</time>
      </trkpt>
      <trkpt lat="43.91069" lon="7.40742">
        <ele>567.4</ele>
        <time>2024-07-09T06:08:31Z</time>
      </trkpt>
      <trkpt lat="43.9107" lon="7.40742">
        <ele>567.4</ele>
        <time>2024-07-09T06:08:32Z</time>
      </trkpt>
      <trkpt lat="43.91072" lon="7.40743">
        <ele>568.2</ele>
        <time>2024-07-09T06:08:33Z</time>
      </trkpt>
      <trkpt lat="43.91073" lon="7.40743">
        <ele>568.2</ele>
        <time>2024-07-09T06:08:34Z</time>
      </trkpt>
      <trkpt lat="43.91075" lon="7.40743">
        <ele>568.2</ele>
        <time>2024-07-09T06:08:35Z</time>
      </trkpt>
      <trkpt lat="43.91077" lon="7.40744">
        <ele>568.2</ele>
        <time>2024-07-09T06:08:36Z</time>
      </trkpt>
      <trkpt lat="43.91078" lon="7.40745">
        <ele>568.6</ele>
        <time>2024-07-09T06:08:37Z</time>
      </trkpt>
      <trkpt lat="43.9108" lon="7.40746">
        <ele>568.6</ele>
        <time>2024-07-09T06:08:38Z</time>
      </trkpt>
      <trkpt lat="43.91082" lon="7.40747">
        <ele>568.8</ele>
        <time>2024-07-09T06:08:39Z</time>
      </trkpt>
      <trkpt lat="43.91083" lon="7.40747">
        <ele>568.8</ele>
        <time>2024-07-09T06:08:40Z</time>
      </trkpt>
      <trkpt lat="43.91085" lon="7.40748">
        <ele>568.8</ele>
        <time>2024-07-09T06:08:41Z</time>
      </trkpt>
      <trkpt lat="43.91086" lon="7.4075">
        <ele>569.2</ele>
        <time>2024-07-09T06:08:42Z</time>
      </trkpt>
      <trkpt lat="43.91088" lon="7.40751">
        <ele>569.2</ele>
        <time>2024-07-09T06:08:43Z</time>
      </trkpt>
      <trkpt lat="43.9109" lon="7.40751">
        <ele>569.4</ele>
        <time>2024-07-09T06:08:44Z</time>
      </trkpt>
      <trkpt lat="43.91092" lon="7.40753">
        <ele>569.4</ele>
        <time>2024-07-09T06:08:45Z</time>
      </trkpt>
      <trkpt lat="43.91093" lon="7.40754">
        <ele>569.8</ele>
        <time>2024-07-09T06:08:46Z</time>
      </trkpt>
      <trkpt lat="43.91095" lon="7.40755">
        <ele>570</ele>
        <time>2024-07-09T06:08:47Z</time>
      </trkpt>
      <trkpt lat="43.91097" lon="7.40756">
        <ele>570</ele>
        <time>2024-07-09T06:08:48Z</time>
      </trkpt>
      <trkpt lat="43.91099" lon="7.40757">
        <ele>570</ele>
        <time>2024-07-09T06:08:49Z</time>
      </trkpt>
      <trkpt lat="43.91101" lon="7.40758">
        <ele>570</ele>
        <time>2024-07-09T06:08:50Z</time>
      </trkpt>
      <trkpt lat="43.91102" lon="7.40759">
        <ele>570</ele>
        <time>2024-07-09T06:08:51Z</time>
      </trkpt>
      <trkpt lat="43.91104" lon="7.4076">
        <ele>570.4</ele>
        <time>2024-07-09T06:08:52Z</time>
      </trkpt>
      <trkpt lat="43.91106" lon="7.40761">
        <ele>570.6</ele>
        <time>2024-07-09T06:08:53Z</time>
      </trkpt>
      <trkpt lat="43.91107" lon="7.40763">
        <ele>570.6</ele>
        <time>2024-07-09T06:08:54Z</time>
      </trkpt>
      <trkpt lat="43.91109" lon="7.40764">
        <ele>570.6</ele>
        <time>2024-07-09T06:08:55Z</time>
      </trkpt>
      <trkpt lat="43.9111" lon="7.40766">
        <ele>570.6</ele>
        <time>2024-07-09T06:08:56Z</time>
      </trkpt>
      <trkpt lat="43.91112" lon="7.40767">
        <ele>571.2</ele>
        <time>2024-07-09T06:08:57Z</time>
      </trkpt>
      <trkpt lat="43.91113" lon="7.40767">
        <ele>571.2</ele>
        <time>2024-07-09T06:08:58Z</time>
      </trkpt>
      <trkpt lat="43.91115" lon="7.40768">
        <ele>571.2</ele>
        <time>2024-07-09T06:08:59Z</time>
      </trkpt>
      <trkpt lat="43.91117" lon="7.40769">
        <ele>571.6</ele>
        <time>2024-07-09T06:09:00Z</time>
      </trkpt>
      <trkpt lat="43.91119" lon="7.40771">
        <ele>571.6</ele>
        <time>2024-07-09T06:09:01Z</time>
      </trkpt>
      <trkpt lat="43.91121" lon="7.40772">
        <ele>571.6</ele>
        <time>2024-07-09T06:09:02Z</time>
      </trkpt>
      <trkpt lat="43.91122" lon="7.40773">
        <ele>571.6</ele>
        <time>2024-07-09T06:09:03Z</time>
      </trkpt>
      <trkpt lat="43.91124" lon="7.40774">
        <ele>571.6</ele>
        <time>2024-07-09T06:09:04Z</time>
      </trkpt>
      <trkpt lat="43.91126" lon="7.40775">
        <ele>572.2</ele>
        <time>2024-07-09T06:09:05Z</time>
      </trkpt>
      <trkpt lat="43.91127" lon="7.40776">
        <ele>572.2</ele>
        <time>2024-07-09T06:09:06Z</time>
      </trkpt>
      <trkpt lat="43.91129" lon="7.40777">
        <ele>572.2</ele>
        <time>2024-07-09T06:09:07Z</time>
      </trkpt>
      <trkpt lat="43.91131" lon="7.40778">
        <ele>572.2</ele>
        <time>2024-07-09T06:09:08Z</time>
      </trkpt>
      <trkpt lat="43.91132" lon="7.4078">
        <ele>572.6</ele>
        <time>2024-07-09T06:09:09Z</time>
      </trkpt>
      <trkpt lat="43.91134" lon="7.40781">
        <ele>572.6</ele>
        <time>2024-07-09T06:09:10Z</time>
      </trkpt>
      <trkpt lat="43.91136" lon="7.40783">
        <ele>573</ele>
        <time>2024-07-09T06:09:11Z</time>
      </trkpt>
      <trkpt lat="43.91137" lon="7.40784">
        <ele>573</ele>
        <time>2024-07-09T06:09:12Z</time>
      </trkpt>
      <trkpt lat="43.91139" lon="7.40786">
        <ele>573</ele>
        <time>2024-07-09T06:09:13Z</time>
      </trkpt>
      <trkpt lat="43.91141" lon="7.40787">
        <ele>573</ele>
        <time>2024-07-09T06:09:14Z</time>
      </trkpt>
      <trkpt lat="43.91142" lon="7.40788">
        <ele>573.6</ele>
        <time>2024-07-09T06:09:15Z</time>
      </trkpt>
      <trkpt lat="43.91144" lon="7.40789">
        <ele>573.6</ele>
        <time>2024-07-09T06:09:16Z</time>
      </trkpt>
      <trkpt lat="43.91146" lon="7.40789">
        <ele>573.6</ele>
        <time>2024-07-09T06:09:17Z</time>
      </trkpt>
      <trkpt lat="43.91148" lon="7.4079">
        <ele>574.2</ele>
        <time>2024-07-09T06:09:18Z</time>
      </trkpt>
      <trkpt lat="43.9115" lon="7.4079">
        <ele>574.2</ele>
        <time>2024-07-09T06:09:19Z</time>
      </trkpt>
      <trkpt lat="43.91152" lon="7.40791">
        <ele>574.2</ele>
        <time>2024-07-09T06:09:20Z</time>
      </trkpt>
      <trkpt lat="43.91154" lon="7.40791">
        <ele>574.2</ele>
        <time>2024-07-09T06:09:21Z</time>
      </trkpt>
      <trkpt lat="43.91156" lon="7.40791">
        <ele>574.8</ele>
        <time>2024-07-09T06:09:22Z</time>
      </trkpt>
      <trkpt lat="43.91158" lon="7.40792">
        <ele>574.8</ele>
        <time>2024-07-09T06:09:23Z</time>
      </trkpt>
      <trkpt lat="43.9116" lon="7.40793">
        <ele>574.8</ele>
        <time>2024-07-09T06:09:24Z</time>
      </trkpt>
      <trkpt lat="43.91162" lon="7.40793">
        <ele>574.8</ele>
        <time>2024-07-09T06:09:25Z</time>
      </trkpt>
      <trkpt lat="43.91164" lon="7.40793">
        <ele>574.8</ele>
        <time>2024-07-09T06:09:26Z</time>
      </trkpt>
      <trkpt lat="43.91166" lon="7.40792">
        <ele>575.2</ele>
        <time>2024-07-09T06:09:27Z</time>
      </trkpt>
      <trkpt lat="43.91168" lon="7.40792">
        <ele>575.4</ele>
        <time>2024-07-09T06:09:28Z</time>
      </trkpt>
      <trkpt lat="43.9117" lon="7.40792">
        <ele>575.4</ele>
        <time>2024-07-09T06:09:29Z</time>
      </trkpt>
      <trkpt lat="43.91171" lon="7.40791">
        <ele>575.4</ele>
        <time>2024-07-09T06:09:30Z</time>
      </trkpt>
      <trkpt lat="43.91173" lon="7.40791">
        <ele>576</ele>
        <time>2024-07-09T06:09:31Z</time>
      </trkpt>
      <trkpt lat="43.91175" lon="7.4079">
        <ele>576</ele>
        <time>2024-07-09T06:09:32Z</time>
      </trkpt>
      <trkpt lat="43.91177" lon="7.40789">
        <ele>576</ele>
        <time>2024-07-09T06:09:33Z</time>
      </trkpt>
      <trkpt lat="43.91179" lon="7.40788">
        <ele>576</ele>
        <time>2024-07-09T06:09:34Z</time>
      </trkpt>
      <trkpt lat="43.9118" lon="7.40787">
        <ele>576</ele>
        <time>2024-07-09T06:09:35Z</time>
      </trkpt>
      <trkpt lat="43.91182" lon="7.40786">
        <ele>576.6</ele>
        <time>2024-07-09T06:09:36Z</time>
      </trkpt>
      <trkpt lat="43.91184" lon="7.40785">
        <ele>576.8</ele>
        <time>2024-07-09T06:09:37Z</time>
      </trkpt>
      <trkpt lat="43.91185" lon="7.40784">
        <ele>576.8</ele>
        <time>2024-07-09T06:09:38Z</time>
      </trkpt>
      <trkpt lat="43.91187" lon="7.40783">
        <ele>576.8</ele>
        <time>2024-07-09T06:09:39Z</time>
      </trkpt>
      <trkpt lat="43.91189" lon="7.40782">
        <ele>576.8</ele>
        <time>2024-07-09T06:09:40Z</time>
      </trkpt>
      <trkpt lat="43.91191" lon="7.40782">
        <ele>577</ele>
        <time>2024-07-09T06:09:41Z</time>
      </trkpt>
      <trkpt lat="43.91193" lon="7.40781">
        <ele>577.2</ele>
        <time>2024-07-09T06:09:42Z</time>
      </trkpt>
      <trkpt lat="43.91194" lon="7.4078">
        <ele>577.2</ele>
        <time>2024-07-09T06:09:43Z</time>
      </trkpt>
      <trkpt lat="43.91196" lon="7.40779">
        <ele>577.2</ele>
        <time>2024-07-09T06:09:44Z</time>
      </trkpt>
      <trkpt lat="43.91198" lon="7.40778">
        <ele>577.6</ele>
        <time>2024-07-09T06:09:45Z</time>
      </trkpt>
      <trkpt lat="43.912" lon="7.40778">
        <ele>577.8</ele>
        <time>2024-07-09T06:09:46Z</time>
      </trkpt>
      <trkpt lat="43.91202" lon="7.40777">
        <ele>577.8</ele>
        <time>2024-07-09T06:09:47Z</time>
      </trkpt>
      <trkpt lat="43.91204" lon="7.40776">
        <ele>577.8</ele>
        <time>2024-07-09T06:09:48Z</time>
      </trkpt>
      <trkpt lat="43.91206" lon="7.40776">
        <ele>578.2</ele>
        <time>2024-07-09T06:09:49Z</time>
      </trkpt>
      <trkpt lat="43.91207" lon="7.40775">
        <ele>578.4</ele>
        <time>2024-07-09T06:09:50Z</time>
      </trkpt>
      <trkpt lat="43.91209" lon="7.40775">
        <ele>578.4</ele>
        <time>2024-07-09T06:09:51Z</time>
      </trkpt>
      <trkpt lat="43.91211" lon="7.40774">
        <ele>578.4</ele>
        <time>2024-07-09T06:09:52Z</time>
      </trkpt>
      <trkpt lat="43.91213" lon="7.40774">
        <ele>578.4</ele>
        <time>2024-07-09T06:09:53Z</time>
      </trkpt>
      <trkpt lat="43.91215" lon="7.40774">
        <ele>578.8</ele>
        <time>2024-07-09T06:09:54Z</time>
      </trkpt>
      <trkpt lat="43.91217" lon="7.40774">
        <ele>578.8</ele>
        <time>2024-07-09T06:09:55Z</time>
      </trkpt>
      <trkpt lat="43.91218" lon="7.40773">
        <ele>578.8</ele>
        <time>2024-07-09T06:09:56Z</time>
      </trkpt>
      <trkpt lat="43.9122" lon="7.40773">
        <ele>578.8</ele>
        <time>2024-07-09T06:09:57Z</time>
      </trkpt>
      <trkpt lat="43.91222" lon="7.40773">
        <ele>579.2</ele>
        <time>2024-07-09T06:09:58Z</time>
      </trkpt>
      <trkpt lat="43.91224" lon="7.40773">
        <ele>579.6</ele>
        <time>2024-07-09T06:09:59Z</time>
      </trkpt>
      <trkpt lat="43.91226" lon="7.40773">
        <ele>579.6</ele>
        <time>2024-07-09T06:10:00Z</time>
      </trkpt>
      <trkpt lat="43.91228" lon="7.40773">
        <ele>579.6</ele>
        <time>2024-07-09T06:10:01Z</time>
      </trkpt>
      <trkpt lat="43.9123" lon="7.40773">
        <ele>579.8</ele>
        <time>2024-07-09T06:10:02Z</time>
      </trkpt>
      <trkpt lat="43.91232" lon="7.40773">
        <ele>580</ele>
        <time>2024-07-09T06:10:03Z</time>
      </trkpt>
      <trkpt lat="43.91233" lon="7.40773">
        <ele>580</ele>
        <time>2024-07-09T06:10:04Z</time>
      </trkpt>
      <trkpt lat="43.91235" lon="7.40774">
        <ele>580</ele>
        <time>2024-07-09T06:10:05Z</time>
      </trkpt>
      <trkpt lat="43.91237" lon="7.40774">
        <ele>580</ele>
        <time>2024-07-09T06:10:06Z</time>
      </trkpt>
      <trkpt lat="43.91239" lon="7.40773">
        <ele>580.4</ele>
        <time>2024-07-09T06:10:07Z</time>
      </trkpt>
      <trkpt lat="43.9124" lon="7.40772">
        <ele>580.8</ele>
        <time>2024-07-09T06:10:08Z</time>
      </trkpt>
      <trkpt lat="43.91242" lon="7.4077">
        <ele>580.8</ele>
        <time>2024-07-09T06:10:09Z</time>
      </trkpt>
      <trkpt lat="43.91243" lon="7.40768">
        <ele>580.8</ele>
        <time>2024-07-09T06:10:10Z</time>
      </trkpt>
      <trkpt lat="43.91244" lon="7.40766">
        <ele>581.4</ele>
        <time>2024-07-09T06:10:11Z</time>
      </trkpt>
      <trkpt lat="43.91244" lon="7.40763">
        <ele>581.6</ele>
        <time>2024-07-09T06:10:12Z</time>
      </trkpt>
      <trkpt lat="43.91243" lon="7.40761">
        <ele>581.6</ele>
        <time>2024-07-09T06:10:13Z</time>
      </trkpt>
      <trkpt lat="43.91241" lon="7.4076">
        <ele>581.6</ele>
        <time>2024-07-09T06:10:14Z</time>
      </trkpt>
      <trkpt lat="43.9124" lon="7.40759">
        <ele>582</ele>
        <time>2024-07-09T06:10:15Z</time>
      </trkpt>
      <trkpt lat="43.91238" lon="7.40758">
        <ele>582</ele>
        <time>2024-07-09T06:10:16Z</time>
      </trkpt>
      <trkpt lat="43.91236" lon="7.40757">
        <ele>582.2</ele>
        <time>2024-07-09T06:10:17Z</time>
      </trkpt>
      <trkpt lat="43.91234" lon="7.40757">
        <ele>582.2</ele>
        <time>2024-07-09T06:10:18Z</time>
      </trkpt>
      <trkpt lat="43.91233" lon="7.40757">
        <ele>582.2</ele>
        <time>2024-07-09T06:10:19Z</time>
      </trkpt>
      <trkpt lat="43.91231" lon="7.40757">
        <ele>582.2</ele>
        <time>2024-07-09T06:10:20Z</time>
      </trkpt>
      <trkpt lat="43.91229" lon="7.40757">
        <ele>582.6</ele>
        <time>2024-07-09T06:10:21Z</time>
      </trkpt>
      <trkpt lat="43.91227" lon="7.40758">
        <ele>582.6</ele>
        <time>2024-07-09T06:10:22Z</time>
      </trkpt>
      <trkpt lat="43.91225" lon="7.40758">
        <ele>582.6</ele>
        <time>2024-07-09T06:10:23Z</time>
      </trkpt>
      <trkpt lat="43.91223" lon="7.40759">
        <ele>582.6</ele>
        <time>2024-07-09T06:10:24Z</time>
      </trkpt>
      <trkpt lat="43.91221" lon="7.4076">
        <ele>583.2</ele>
        <time>2024-07-09T06:10:25Z</time>
      </trkpt>
      <trkpt lat="43.91219" lon="7.4076">
        <ele>583.2</ele>
        <time>2024-07-09T06:10:26Z</time>
      </trkpt>
      <trkpt lat="43.91218" lon="7.40761">
        <ele>583.2</ele>
        <time>2024-07-09T06:10:27Z</time>
      </trkpt>
      <trkpt lat="43.91216" lon="7.40761">
        <ele>583.2</ele>
        <time>2024-07-09T06:10:28Z</time>
      </trkpt>
      <trkpt lat="43.91214" lon="7.40762">
        <ele>583.2</ele>
        <time>2024-07-09T06:10:29Z</time>
      </trkpt>
      <trkpt lat="43.91212" lon="7.40762">
        <ele>583.8</ele>
        <time>2024-07-09T06:10:30Z</time>
      </trkpt>
      <trkpt lat="43.9121" lon="7.40763">
        <ele>583.8</ele>
        <time>2024-07-09T06:10:31Z</time>
      </trkpt>
      <trkpt lat="43.91208" lon="7.40763">
        <ele>583.8</ele>
        <time>2024-07-09T06:10:32Z</time>
      </trkpt>
      <trkpt lat="43.91206" lon="7.40764">
        <ele>583.8</ele>
        <time>2024-07-09T06:10:33Z</time>
      </trkpt>
      <trkpt lat="43.91203" lon="7.40764">
        <ele>584.4</ele>
        <time>2024-07-09T06:10:34Z</time>
      </trkpt>
      <trkpt lat="43.91201" lon="7.40765">
        <ele>584.4</ele>
        <time>2024-07-09T06:10:35Z</time>
      </trkpt>
      <trkpt lat="43.91199" lon="7.40765">
        <ele>584.4</ele>
        <time>2024-07-09T06:10:36Z</time>
      </trkpt>
      <trkpt lat="43.91197" lon="7.40766">
        <ele>584.4</ele>
        <time>2024-07-09T06:10:37Z</time>
      </trkpt>
      <trkpt lat="43.91195" lon="7.40766">
        <ele>584.8</ele>
        <time>2024-07-09T06:10:38Z</time>
      </trkpt>
      <trkpt lat="43.91193" lon="7.40766">
        <ele>584.8</ele>
        <time>2024-07-09T06:10:39Z</time>
      </trkpt>
      <trkpt lat="43.91191" lon="7.40767">
        <ele>585.2</ele>
        <time>2024-07-09T06:10:40Z</time>
      </trkpt>
      <trkpt lat="43.91189" lon="7.40767">
        <ele>585.2</ele>
        <time>2024-07-09T06:10:41Z</time>
      </trkpt>
      <trkpt lat="43.91187" lon="7.40767">
        <ele>585.2</ele>
        <time>2024-07-09T06:10:42Z</time>
      </trkpt>
      <trkpt lat="43.91185" lon="7.40767">
        <ele>585.6</ele>
        <time>2024-07-09T06:10:43Z</time>
      </trkpt>
      <trkpt lat="43.91183" lon="7.40767">
        <ele>585.8</ele>
        <time>2024-07-09T06:10:44Z</time>
      </trkpt>
      <trkpt lat="43.91181" lon="7.40766">
        <ele>585.8</ele>
        <time>2024-07-09T06:10:45Z</time>
      </trkpt>
      <trkpt lat="43.91179" lon="7.40766">
        <ele>585.8</ele>
        <time>2024-07-09T06:10:46Z</time>
      </trkpt>
      <trkpt lat="43.91177" lon="7.40766">
        <ele>586.2</ele>
        <time>2024-07-09T06:10:47Z</time>
      </trkpt>
      <trkpt lat="43.91175" lon="7.40767">
        <ele>586.4</ele>
        <time>2024-07-09T06:10:48Z</time>
      </trkpt>
      <trkpt lat="43.91174" lon="7.40767">
        <ele>586.4</ele>
        <time>2024-07-09T06:10:49Z</time>
      </trkpt>
      <trkpt lat="43.91172" lon="7.40767">
        <ele>586.4</ele>
        <time>2024-07-09T06:10:50Z</time>
      </trkpt>
      <trkpt lat="43.9117" lon="7.40766">
        <ele>586.4</ele>
        <time>2024-07-09T06:10:51Z</time>
      </trkpt>
      <trkpt lat="43.91168" lon="7.40765">
        <ele>587</ele>
        <time>2024-07-09T06:10:52Z</time>
      </trkpt>
      <trkpt lat="43.91166" lon="7.40765">
        <ele>587</ele>
        <time>2024-07-09T06:10:53Z</time>
      </trkpt>
      <trkpt lat="43.91164" lon="7.40765">
        <ele>587</ele>
        <time>2024-07-09T06:10:54Z</time>
      </trkpt>
      <trkpt lat="43.91162" lon="7.40765">
        <ele>587</ele>
        <time>2024-07-09T06:10:55Z</time>
      </trkpt>
      <trkpt lat="43.9116" lon="7.40765">
        <ele>587.4</ele>
        <time>2024-07-09T06:10:56Z</time>
      </trkpt>
      <trkpt lat="43.91159" lon="7.40765">
        <ele>587.6</ele>
        <time>2024-07-09T06:10:57Z</time>
      </trkpt>
      <trkpt lat="43.91157" lon="7.40765">
        <ele>587.6</ele>
        <time>2024-07-09T06:10:58Z</time>
      </trkpt>
      <trkpt lat="43.91155" lon="7.40765">
        <ele>587.6</ele>
        <time>2024-07-09T06:10:59Z</time>
      </trkpt>
      <trkpt lat="43.91153" lon="7.40764">
        <ele>587.6</ele>
        <time>2024-07-09T06:11:00Z</time>
      </trkpt>
      <trkpt lat="43.91152" lon="7.40764">
        <ele>587.8</ele>
        <time>2024-07-09T06:11:01Z</time>
      </trkpt>
      <trkpt lat="43.9115" lon="7.40763">
        <ele>588.2</ele>
        <time>2024-07-09T06:11:02Z</time>
      </trkpt>
      <trkpt lat="43.91148" lon="7.40762">
        <ele>588.2</ele>
        <time>2024-07-09T06:11:03Z</time>
      </trkpt>
      <trkpt lat="43.91147" lon="7.4076">
        <ele>588.2</ele>
        <time>2024-07-09T06:11:04Z</time>
      </trkpt>
      <trkpt lat="43.91146" lon="7.40758">
        <ele>588.6</ele>
        <time>2024-07-09T06:11:05Z</time>
      </trkpt>
      <trkpt lat="43.91147" lon="7.40756">
        <ele>588.6</ele>
        <time>2024-07-09T06:11:06Z</time>
      </trkpt>
      <trkpt lat="43.91148" lon="7.40755">
        <ele>588.8</ele>
        <time>2024-07-09T06:11:07Z</time>
      </trkpt>
      <trkpt lat="43.9115" lon="7.40754">
        <ele>588.8</ele>
        <time>2024-07-09T06:11:08Z</time>
      </trkpt>
      <trkpt lat="43.91152" lon="7.40753">
        <ele>589.8</ele>
        <time>2024-07-09T06:11:09Z</time>
      </trkpt>
      <trkpt lat="43.91154" lon="7.40752">
        <ele>589.8</ele>
        <time>2024-07-09T06:11:10Z</time>
      </trkpt>
      <trkpt lat="43.91156" lon="7.40753">
        <ele>589.6</ele>
        <time>2024-07-09T06:11:11Z</time>
      </trkpt>
      <trkpt lat="43.91159" lon="7.40754">
        <ele>589.6</ele>
        <time>2024-07-09T06:11:12Z</time>
      </trkpt>
      <trkpt lat="43.9116" lon="7.40755">
        <ele>589.6</ele>
        <time>2024-07-09T06:11:13Z</time>
      </trkpt>
      <trkpt lat="43.91162" lon="7.40755">
        <ele>590</ele>
        <time>2024-07-09T06:11:14Z</time>
      </trkpt>
      <trkpt lat="43.91164" lon="7.40756">
        <ele>590.2</ele>
        <time>2024-07-09T06:11:15Z</time>
      </trkpt>
      <trkpt lat="43.91166" lon="7.40757">
        <ele>590.2</ele>
        <time>2024-07-09T06:11:16Z</time>
      </trkpt>
      <trkpt lat="43.91168" lon="7.40758">
        <ele>590.2</ele>
        <time>2024-07-09T06:11:17Z</time>
      </trkpt>
      <trkpt lat="43.9117" lon="7.40759">
        <ele>590.6</ele>
        <time>2024-07-09T06:11:18Z</time>
      </trkpt>
      <trkpt lat="43.91171" lon="7.40759">
        <ele>590.6</ele>
        <time>2024-07-09T06:11:19Z</time>
      </trkpt>
      <trkpt lat="43.91173" lon="7.40759">
        <ele>590.8</ele>
        <time>2024-07-09T06:11:20Z</time>
      </trkpt>
      <trkpt lat="43.91175" lon="7.40759">
        <ele>590.8</ele>
        <time>2024-07-09T06:11:21Z</time>
      </trkpt>
      <trkpt lat="43.91177" lon="7.4076">
        <ele>590.8</ele>
        <time>2024-07-09T06:11:22Z</time>
      </trkpt>
      <trkpt lat="43.91179" lon="7.4076">
        <ele>591.2</ele>
        <time>2024-07-09T06:11:23Z</time>
      </trkpt>
      <trkpt lat="43.91181" lon="7.4076">
        <ele>591.2</ele>
        <time>2024-07-09T06:11:24Z</time>
      </trkpt>
      <trkpt lat="43.91183" lon="7.4076">
        <ele>591.2</ele>
        <time>2024-07-09T06:11:25Z</time>
      </trkpt>
      <trkpt lat="43.91184" lon="7.4076">
        <ele>591.2</ele>
        <time>2024-07-09T06:11:26Z</time>
      </trkpt>
      <trkpt lat="43.91186" lon="7.40759">
        <ele>591.6</ele>
        <time>2024-07-09T06:11:27Z</time>
      </trkpt>
      <trkpt lat="43.91188" lon="7.40759">
        <ele>591.8</ele>
        <time>2024-07-09T06:11:28Z</time>
      </trkpt>
      <trkpt lat="43.9119" lon="7.40758">
        <ele>591.8</ele>
        <time>2024-07-09T06:11:29Z</time>
      </trkpt>
      <trkpt lat="43.91192" lon="7.40757">
        <ele>591.8</ele>
        <time>2024-07-09T06:11:30Z</time>
      </trkpt>
      <trkpt lat="43.91194" lon="7.40756">
        <ele>591.8</ele>
        <time>2024-07-09T06:11:31Z</time>
      </trkpt>
      <trkpt lat="43.91196" lon="7.40755">
        <ele>592.2</ele>
        <time>2024-07-09T06:11:32Z</time>
      </trkpt>
      <trkpt lat="43.91197" lon="7.40755">
        <ele>592.6</ele>
        <time>2024-07-09T06:11:33Z</time>
      </trkpt>
      <trkpt lat="43.91199" lon="7.40754">
        <ele>592.6</ele>
        <time>2024-07-09T06:11:34Z</time>
      </trkpt>
      <trkpt lat="43.912" lon="7.40752">
        <ele>592.6</ele>
        <time>2024-07-09T06:11:35Z</time>
      </trkpt>
      <trkpt lat="43.91202" lon="7.40751">
        <ele>592.8</ele>
        <time>2024-07-09T06:11:36Z</time>
      </trkpt>
      <trkpt lat="43.91204" lon="7.4075">
        <ele>593</ele>
        <time>2024-07-09T06:11:37Z</time>
      </trkpt>
      <trkpt lat="43.91206" lon="7.40749">
        <ele>593</ele>
        <time>2024-07-09T06:11:38Z</time>
      </trkpt>
      <trkpt lat="43.91208" lon="7.40748">
        <ele>593</ele>
        <time>2024-07-09T06:11:39Z</time>
      </trkpt>
      <trkpt lat="43.91209" lon="7.40747">
        <ele>593</ele>
        <time>2024-07-09T06:11:40Z</time>
      </trkpt>
      <trkpt lat="43.91211" lon="7.40747">
        <ele>593.4</ele>
        <time>2024-07-09T06:11:41Z</time>
      </trkpt>
      <trkpt lat="43.91213" lon="7.40746">
        <ele>593.4</ele>
        <time>2024-07-09T06:11:42Z</time>
      </trkpt>
      <trkpt lat="43.91215" lon="7.40745">
        <ele>593.6</ele>
        <time>2024-07-09T06:11:43Z</time>
      </trkpt>
      <trkpt lat="43.91217" lon="7.40745">
        <ele>593.6</ele>
        <time>2024-07-09T06:11:44Z</time>
      </trkpt>
      <trkpt lat="43.91219" lon="7.40745">
        <ele>593.6</ele>
        <time>2024-07-09T06:11:45Z</time>
      </trkpt>
      <trkpt lat="43.91221" lon="7.40745">
        <ele>594</ele>
        <time>2024-07-09T06:11:46Z</time>
      </trkpt>
      <trkpt lat="43.91222" lon="7.40745">
        <ele>594.2</ele>
        <time>2024-07-09T06:11:47Z</time>
      </trkpt>
      <trkpt lat="43.91224" lon="7.40745">
        <ele>594.2</ele>
        <time>2024-07-09T06:11:48Z</time>
      </trkpt>
      <trkpt lat="43.91226" lon="7.40745">
        <ele>594.2</ele>
        <time>2024-07-09T06:11:49Z</time>
      </trkpt>
      <trkpt lat="43.91228" lon="7.40746">
        <ele>594.8</ele>
        <time>2024-07-09T06:11:50Z</time>
      </trkpt>
      <trkpt lat="43.91229" lon="7.40746">
        <ele>594.8</ele>
        <time>2024-07-09T06:11:51Z</time>
      </trkpt>
      <trkpt lat="43.91231" lon="7.40745">
        <ele>594.8</ele>
        <time>2024-07-09T06:11:52Z</time>
      </trkpt>
      <trkpt lat="43.91233" lon="7.40745">
        <ele>594.8</ele>
        <time>2024-07-09T06:11:53Z</time>
      </trkpt>
      <trkpt lat="43.91234" lon="7.40744">
        <ele>595.2</ele>
        <time>2024-07-09T06:11:54Z</time>
      </trkpt>
      <trkpt lat="43.91236" lon="7.40744">
        <ele>595.2</ele>
        <time>2024-07-09T06:11:55Z</time>
      </trkpt>
      <trkpt lat="43.91238" lon="7.40744">
        <ele>595.4</ele>
        <time>2024-07-09T06:11:56Z</time>
      </trkpt>
      <trkpt lat="43.9124" lon="7.40743">
        <ele>595.4</ele>
        <time>2024-07-09T06:11:57Z</time>
      </trkpt>
      <trkpt lat="43.91242" lon="7.40743">
        <ele>595.4</ele>
        <time>2024-07-09T06:11:58Z</time>
      </trkpt>
      <trkpt lat="43.91244" lon="7.40742">
        <ele>595.8</ele>
        <time>2024-07-09T06:11:59Z</time>
      </trkpt>
      <trkpt lat="43.91245" lon="7.40742">
        <ele>596</ele>
        <time>2024-07-09T06:12:00Z</time>
      </trkpt>
      <trkpt lat="43.91247" lon="7.40741">
        <ele>596</ele>
        <time>2024-07-09T06:12:01Z</time>
      </trkpt>
      <trkpt lat="43.91249" lon="7.4074">
        <ele>596</ele>
        <time>2024-07-09T06:12:02Z</time>
      </trkpt>
      <trkpt lat="43.91251" lon="7.40739">
        <ele>596.4</ele>
        <time>2024-07-09T06:12:03Z</time>
      </trkpt>
      <trkpt lat="43.91252" lon="7.40738">
        <ele>596.4</ele>
        <time>2024-07-09T06:12:04Z</time>
      </trkpt>
      <trkpt lat="43.91254" lon="7.40737">
        <ele>596.6</ele>
        <time>2024-07-09T06:12:05Z</time>
      </trkpt>
      <trkpt lat="43.91255" lon="7.40736">
        <ele>596.6</ele>
        <time>2024-07-09T06:12:06Z</time>
      </trkpt>
      <trkpt lat="43.91257" lon="7.40735">
        <ele>596.8</ele>
        <time>2024-07-09T06:12:07Z</time>
      </trkpt>
      <trkpt lat="43.91259" lon="7.40734">
        <ele>596.8</ele>
        <time>2024-07-09T06:12:08Z</time>
      </trkpt>
      <trkpt lat="43.9126" lon="7.40733">
        <ele>597</ele>
        <time>2024-07-09T06:12:09Z</time>
      </trkpt>
      <trkpt lat="43.91262" lon="7.40732">
        <ele>597</ele>
        <time>2024-07-09T06:12:10Z</time>
      </trkpt>
      <trkpt lat="43.91263" lon="7.4073">
        <ele>597</ele>
        <time>2024-07-09T06:12:11Z</time>
      </trkpt>
      <trkpt lat="43.91265" lon="7.40729">
        <ele>597.6</ele>
        <time>2024-07-09T06:12:12Z</time>
      </trkpt>
      <trkpt lat="43.91266" lon="7.40727">
        <ele>597.6</ele>
        <time>2024-07-09T06:12:13Z</time>
      </trkpt>
      <trkpt lat="43.91268" lon="7.40726">
        <ele>597.6</ele>
        <time>2024-07-09T06:12:14Z</time>
      </trkpt>
      <trkpt lat="43.9127" lon="7.40725">
        <ele>597.6</ele>
        <time>2024-07-09T06:12:15Z</time>
      </trkpt>
      <trkpt lat="43.91272" lon="7.40724">
        <ele>598</ele>
        <time>2024-07-09T06:12:16Z</time>
      </trkpt>
      <trkpt lat="43.91273" lon="7.40723">
        <ele>598</ele>
        <time>2024-07-09T06:12:17Z</time>
      </trkpt>
      <trkpt lat="43.91275" lon="7.40722">
        <ele>598</ele>
        <time>2024-07-09T06:12:18Z</time>
      </trkpt>
      <trkpt lat="43.91276" lon="7.4072">
        <ele>598</ele>
        <time>2024-07-09T06:12:19Z</time>
      </trkpt>
      <trkpt lat="43.91278" lon="7.40719">
        <ele>598</ele>
        <time>2024-07-09T06:12:20Z</time>
      </trkpt>
      <trkpt lat="43.91279" lon="7.40718">
        <ele>598.4</ele>
        <time>2024-07-09T06:12:21Z</time>
      </trkpt>
      <trkpt lat="43.9128" lon="7.40716">
        <ele>598.6</ele>
        <time>2024-07-09T06:12:22Z</time>
      </trkpt>
      <trkpt lat="43.91282" lon="7.40715">
        <ele>598.6</ele>
        <time>2024-07-09T06:12:23Z</time>
      </trkpt>
      <trkpt lat="43.91284" lon="7.40714">
        <ele>598.6</ele>
        <time>2024-07-09T06:12:24Z</time>
      </trkpt>
      <trkpt lat="43.91285" lon="7.40712">
        <ele>598.6</ele>
        <time>2024-07-09T06:12:25Z</time>
      </trkpt>
      <trkpt lat="43.91287" lon="7.40711">
        <ele>598.6</ele>
        <time>2024-07-09T06:12:26Z</time>
      </trkpt>
      <trkpt lat="43.91288" lon="7.4071">
        <ele>599</ele>
        <time>2024-07-09T06:12:27Z</time>
      </trkpt>
      <trkpt lat="43.9129" lon="7.40709">
        <ele>599</ele>
        <time>2024-07-09T06:12:28Z</time>
      </trkpt>
      <trkpt lat="43.91292" lon="7.40708">
        <ele>599</ele>
        <time>2024-07-09T06:12:29Z</time>
      </trkpt>
      <trkpt lat="43.91293" lon="7.40707">
        <ele>599.4</ele>
        <time>2024-07-09T06:12:30Z</time>
      </trkpt>
      <trkpt lat="43.91295" lon="7.40705">
        <ele>599.4</ele>
        <time>2024-07-09T06:12:31Z</time>
      </trkpt>
      <trkpt lat="43.91297" lon="7.40705">
        <ele>599.6</ele>
        <time>2024-07-09T06:12:32Z</time>
      </trkpt>
      <trkpt lat="43.91298" lon="7.40704">
        <ele>599.6</ele>
        <time>2024-07-09T06:12:33Z</time>
      </trkpt>
      <trkpt lat="43.913" lon="7.40702">
        <ele>599.6</ele>
        <time>2024-07-09T06:12:34Z</time>
      </trkpt>
      <trkpt lat="43.91301" lon="7.40701">
        <ele>600</ele>
        <time>2024-07-09T06:12:35Z</time>
      </trkpt>
      <trkpt lat="43.91303" lon="7.40699">
        <ele>600.2</ele>
        <time>2024-07-09T06:12:36Z</time>
      </trkpt>
      <trkpt lat="43.91304" lon="7.40697">
        <ele>600.2</ele>
        <time>2024-07-09T06:12:37Z</time>
      </trkpt>
      <trkpt lat="43.91305" lon="7.40695">
        <ele>600.2</ele>
        <time>2024-07-09T06:12:38Z</time>
      </trkpt>
      <trkpt lat="43.91306" lon="7.40693">
        <ele>600.4</ele>
        <time>2024-07-09T06:12:39Z</time>
      </trkpt>
      <trkpt lat="43.91307" lon="7.40691">
        <ele>600.4</ele>
        <time>2024-07-09T06:12:40Z</time>
      </trkpt>
      <trkpt lat="43.91308" lon="7.40688">
        <ele>600.8</ele>
        <time>2024-07-09T06:12:41Z</time>
      </trkpt>
      <trkpt lat="43.91309" lon="7.40686">
        <ele>600.8</ele>
        <time>2024-07-09T06:12:42Z</time>
      </trkpt>
      <trkpt lat="43.9131" lon="7.40683">
        <ele>601.2</ele>
        <time>2024-07-09T06:12:43Z</time>
      </trkpt>
      <trkpt lat="43.91311" lon="7.40681">
        <ele>601.2</ele>
        <time>2024-07-09T06:12:44Z</time>
      </trkpt>
      <trkpt lat="43.91312" lon="7.4068">
        <ele>601.4</ele>
        <time>2024-07-09T06:12:45Z</time>
      </trkpt>
      <trkpt lat="43.91313" lon="7.40679">
        <ele>601.4</ele>
        <time>2024-07-09T06:12:46Z</time>
      </trkpt>
      <trkpt lat="43.91314" lon="7.40678">
        <ele>601.4</ele>
        <time>2024-07-09T06:12:47Z</time>
      </trkpt>
      <trkpt lat="43.91315" lon="7.40677">
        <ele>601.6</ele>
        <time>2024-07-09T06:12:48Z</time>
      </trkpt>
      <trkpt lat="43.91317" lon="7.40676">
        <ele>601.8</ele>
        <time>2024-07-09T06:12:49Z</time>
      </trkpt>
      <trkpt lat="43.91318" lon="7.40675">
        <ele>601.8</ele>
        <time>2024-07-09T06:12:50Z</time>
      </trkpt>
      <trkpt lat="43.9132" lon="7.40675">
        <ele>601.8</ele>
        <time>2024-07-09T06:12:51Z</time>
      </trkpt>
      <trkpt lat="43.91322" lon="7.40675">
        <ele>601.8</ele>
        <time>2024-07-09T06:12:52Z</time>
      </trkpt>
      <trkpt lat="43.91324" lon="7.40676">
        <ele>602.4</ele>
        <time>2024-07-09T06:12:53Z</time>
      </trkpt>
      <trkpt lat="43.91326" lon="7.40675">
        <ele>602.4</ele>
        <time>2024-07-09T06:12:54Z</time>
      </trkpt>
      <trkpt lat="43.91328" lon="7.40676">
        <ele>602.4</ele>
        <time>2024-07-09T06:12:55Z</time>
      </trkpt>
      <trkpt lat="43.9133" lon="7.40676">
        <ele>602.4</ele>
        <time>2024-07-09T06:12:56Z</time>
      </trkpt>
      <trkpt lat="43.91332" lon="7.40676">
        <ele>602.8</ele>
        <time>2024-07-09T06:12:57Z</time>
      </trkpt>
      <trkpt lat="43.91334" lon="7.40676">
        <ele>603</ele>
        <time>2024-07-09T06:12:58Z</time>
      </trkpt>
      <trkpt lat="43.91335" lon="7.40676">
        <ele>603</ele>
        <time>2024-07-09T06:12:59Z</time>
      </trkpt>
      <trkpt lat="43.91337" lon="7.40676">
        <ele>603</ele>
        <time>2024-07-09T06:13:00Z</time>
      </trkpt>
      <trkpt lat="43.91338" lon="7.40676">
        <ele>603.4</ele>
        <time>2024-07-09T06:13:01Z</time>
      </trkpt>
      <trkpt lat="43.9134" lon="7.40676">
        <ele>603.6</ele>
        <time>2024-07-09T06:13:02Z</time>
      </trkpt>
      <trkpt lat="43.91342" lon="7.40676">
        <ele>603.6</ele>
        <time>2024-07-09T06:13:03Z</time>
      </trkpt>
      <trkpt lat="43.91343" lon="7.40676">
        <ele>603.6</ele>
        <time>2024-07-09T06:13:04Z</time>
      </trkpt>
      <trkpt lat="43.91344" lon="7.40676">
        <ele>603.6</ele>
        <time>2024-07-09T06:13:05Z</time>
      </trkpt>
      <trkpt lat="43.91346" lon="7.40676">
        <ele>604</ele>
        <time>2024-07-09T06:13:06Z</time>
      </trkpt>
      <trkpt lat="43.91348" lon="7.40676">
        <ele>604</ele>
        <time>2024-07-09T06:13:07Z</time>
      </trkpt>
      <trkpt lat="43.91349" lon="7.40677">
        <ele>604</ele>
        <time>2024-07-09T06:13:08Z</time>
      </trkpt>
      <trkpt lat="43.91351" lon="7.40677">
        <ele>604</ele>
        <time>2024-07-09T06:13:09Z</time>
      </trkpt>
      <trkpt lat="43.91352" lon="7.40677">
        <ele>604</ele>
        <time>2024-07-09T06:13:10Z</time>
      </trkpt>
      <trkpt lat="43.91354" lon="7.40677">
        <ele>604.4</ele>
        <time>2024-07-09T06:13:11Z</time>
      </trkpt>
      <trkpt lat="43.91356" lon="7.40677">
        <ele>604.6</ele>
        <time>2024-07-09T06:13:12Z</time>
      </trkpt>
      <trkpt lat="43.91358" lon="7.40677">
        <ele>604.6</ele>
        <time>2024-07-09T06:13:13Z</time>
      </trkpt>
      <trkpt lat="43.9136" lon="7.40677">
        <ele>604.6</ele>
        <time>2024-07-09T06:13:14Z</time>
      </trkpt>
      <trkpt lat="43.91361" lon="7.40678">
        <ele>605</ele>
        <time>2024-07-09T06:13:15Z</time>
      </trkpt>
      <trkpt lat="43.91363" lon="7.40678">
        <ele>605</ele>
        <time>2024-07-09T06:13:16Z</time>
      </trkpt>
      <trkpt lat="43.91365" lon="7.40678">
        <ele>605.2</ele>
        <time>2024-07-09T06:13:17Z</time>
      </trkpt>
      <trkpt lat="43.91367" lon="7.40677">
        <ele>605.2</ele>
        <time>2024-07-09T06:13:18Z</time>
      </trkpt>
      <trkpt lat="43.91369" lon="7.40678">
        <ele>605.6</ele>
        <time>2024-07-09T06:13:19Z</time>
      </trkpt>
      <trkpt lat="43.9137" lon="7.40678">
        <ele>605.6</ele>
        <time>2024-07-09T06:13:20Z</time>
      </trkpt>
      <trkpt lat="43.91372" lon="7.4068">
        <ele>605.6</ele>
        <time>2024-07-09T06:13:21Z</time>
      </trkpt>
      <trkpt lat="43.91373" lon="7.4068">
        <ele>605.6</ele>
        <time>2024-07-09T06:13:22Z</time>
      </trkpt>
      <trkpt lat="43.91375" lon="7.40679">
        <ele>605.6</ele>
        <time>2024-07-09T06:13:23Z</time>
      </trkpt>
      <trkpt lat="43.91376" lon="7.40679">
        <ele>605.8</ele>
        <time>2024-07-09T06:13:24Z</time>
      </trkpt>
      <trkpt lat="43.91378" lon="7.4068">
        <ele>606</ele>
        <time>2024-07-09T06:13:25Z</time>
      </trkpt>
      <trkpt lat="43.9138" lon="7.4068">
        <ele>606</ele>
        <time>2024-07-09T06:13:26Z</time>
      </trkpt>
      <trkpt lat="43.91382" lon="7.40679">
        <ele>606</ele>
        <time>2024-07-09T06:13:27Z</time>
      </trkpt>
      <trkpt lat="43.91383" lon="7.40679">
        <ele>606</ele>
        <time>2024-07-09T06:13:28Z</time>
      </trkpt>
      <trkpt lat="43.91385" lon="7.40679">
        <ele>606.2</ele>
        <time>2024-07-09T06:13:29Z</time>
      </trkpt>
      <trkpt lat="43.91387" lon="7.40679">
        <ele>606.2</ele>
        <time>2024-07-09T06:13:30Z</time>
      </trkpt>
      <trkpt lat="43.91389" lon="7.40679">
        <ele>606.2</ele>
        <time>2024-07-09T06:13:31Z</time>
      </trkpt>
      <trkpt lat="43.9139" lon="7.4068">
        <ele>606.6</ele>
        <time>2024-07-09T06:13:32Z</time>
      </trkpt>
      <trkpt lat="43.91392" lon="7.4068">
        <ele>606.8</ele>
        <time>2024-07-09T06:13:33Z</time>
      </trkpt>
      <trkpt lat="43.91394" lon="7.4068">
        <ele>606.8</ele>
        <time>2024-07-09T06:13:34Z</time>
      </trkpt>
      <trkpt lat="43.91396" lon="7.40679">
        <ele>606.8</ele>
        <time>2024-07-09T06:13:35Z</time>
      </trkpt>
      <trkpt lat="43.91398" lon="7.40679">
        <ele>606.8</ele>
        <time>2024-07-09T06:13:36Z</time>
      </trkpt>
      <trkpt lat="43.914" lon="7.40677">
        <ele>607.6</ele>
        <time>2024-07-09T06:13:37Z</time>
      </trkpt>
      <trkpt lat="43.91402" lon="7.40676">
        <ele>607.6</ele>
        <time>2024-07-09T06:13:38Z</time>
      </trkpt>
      <trkpt lat="43.91405" lon="7.40674">
        <ele>607.6</ele>
        <time>2024-07-09T06:13:39Z</time>
      </trkpt>
      <trkpt lat="43.91407" lon="7.40673">
        <ele>607.6</ele>
        <time>2024-07-09T06:13:40Z</time>
      </trkpt>
      <trkpt lat="43.91409" lon="7.40672">
        <ele>608</ele>
        <time>2024-07-09T06:13:41Z</time>
      </trkpt>
      <trkpt lat="43.91411" lon="7.40671">
        <ele>608.2</ele>
        <time>2024-07-09T06:13:42Z</time>
      </trkpt>
      <trkpt lat="43.91413" lon="7.4067">
        <ele>608.2</ele>
        <time>2024-07-09T06:13:43Z</time>
      </trkpt>
      <trkpt lat="43.91415" lon="7.40668">
        <ele>608.2</ele>
        <time>2024-07-09T06:13:44Z</time>
      </trkpt>
      <trkpt lat="43.91418" lon="7.40667">
        <ele>608.8</ele>
        <time>2024-07-09T06:13:45Z</time>
      </trkpt>
      <trkpt lat="43.9142" lon="7.40666">
        <ele>608.8</ele>
        <time>2024-07-09T06:13:46Z</time>
      </trkpt>
      <trkpt lat="43.91421" lon="7.40664">
        <ele>608.8</ele>
        <time>2024-07-09T06:13:47Z</time>
      </trkpt>
      <trkpt lat="43.91423" lon="7.40662">
        <ele>608.8</ele>
        <time>2024-07-09T06:13:48Z</time>
      </trkpt>
      <trkpt lat="43.91425" lon="7.40661">
        <ele>608.8</ele>
        <time>2024-07-09T06:13:49Z</time>
      </trkpt>
      <trkpt lat="43.91427" lon="7.40659">
        <ele>608.8</ele>
        <time>2024-07-09T06:13:50Z</time>
      </trkpt>
      <trkpt lat="43.91428" lon="7.40657">
        <ele>609.4</ele>
        <time>2024-07-09T06:13:51Z</time>
      </trkpt>
      <trkpt lat="43.9143" lon="7.40655">
        <ele>609.6</ele>
        <time>2024-07-09T06:13:52Z</time>
      </trkpt>
      <trkpt lat="43.91431" lon="7.40653">
        <ele>609.6</ele>
        <time>2024-07-09T06:13:53Z</time>
      </trkpt>
      <trkpt lat="43.91433" lon="7.40652">
        <ele>609.6</ele>
        <time>2024-07-09T06:13:54Z</time>
      </trkpt>
      <trkpt lat="43.91436" lon="7.4065">
        <ele>610.2</ele>
        <time>2024-07-09T06:13:55Z</time>
      </trkpt>
      <trkpt lat="43.91437" lon="7.40649">
        <ele>610.2</ele>
        <time>2024-07-09T06:13:56Z</time>
      </trkpt>
      <trkpt lat="43.91439" lon="7.40648">
        <ele>610.2</ele>
        <time>2024-07-09T06:13:57Z</time>
      </trkpt>
      <trkpt lat="43.91442" lon="7.40646">
        <ele>610.2</ele>
        <time>2024-07-09T06:13:58Z</time>
      </trkpt>
      <trkpt lat="43.91443" lon="7.40646">
        <ele>610.4</ele>
        <time>2024-07-09T06:13:59Z</time>
      </trkpt>
      <trkpt lat="43.91445" lon="7.40645">
        <ele>610.4</ele>
        <time>2024-07-09T06:14:00Z</time>
      </trkpt>
      <trkpt lat="43.91449" lon="7.40646">
        <ele>610.4</ele>
        <time>2024-07-09T06:14:01Z</time>
      </trkpt>
      <trkpt lat="43.91451" lon="7.40647">
        <ele>610.4</ele>
        <time>2024-07-09T06:14:02Z</time>
      </trkpt>
      <trkpt lat="43.91454" lon="7.40648">
        <ele>610.4</ele>
        <time>2024-07-09T06:14:03Z</time>
      </trkpt>
      <trkpt lat="43.91455" lon="7.4065">
        <ele>610.8</ele>
        <time>2024-07-09T06:14:04Z</time>
      </trkpt>
      <trkpt lat="43.91457" lon="7.40653">
        <ele>611</ele>
        <time>2024-07-09T06:14:05Z</time>
      </trkpt>
      <trkpt lat="43.91459" lon="7.40655">
        <ele>611</ele>
        <time>2024-07-09T06:14:06Z</time>
      </trkpt>
      <trkpt lat="43.91461" lon="7.40657">
        <ele>611</ele>
        <time>2024-07-09T06:14:07Z</time>
      </trkpt>
      <trkpt lat="43.91462" lon="7.40659">
        <ele>611.2</ele>
        <time>2024-07-09T06:14:08Z</time>
      </trkpt>
      <trkpt lat="43.91464" lon="7.40661">
        <ele>611.2</ele>
        <time>2024-07-09T06:14:09Z</time>
      </trkpt>
      <trkpt lat="43.91467" lon="7.40662">
        <ele>611.6</ele>
        <time>2024-07-09T06:14:10Z</time>
      </trkpt>
      <trkpt lat="43.91469" lon="7.40664">
        <ele>611.6</ele>
        <time>2024-07-09T06:14:11Z</time>
      </trkpt>
      <trkpt lat="43.91471" lon="7.40666">
        <ele>612</ele>
        <time>2024-07-09T06:14:12Z</time>
      </trkpt>
      <trkpt lat="43.91473" lon="7.40668">
        <ele>612</ele>
        <time>2024-07-09T06:14:13Z</time>
      </trkpt>
      <trkpt lat="43.91475" lon="7.4067">
        <ele>612</ele>
        <time>2024-07-09T06:14:14Z</time>
      </trkpt>
      <trkpt lat="43.91477" lon="7.40672">
        <ele>612</ele>
        <time>2024-07-09T06:14:15Z</time>
      </trkpt>
      <trkpt lat="43.9148" lon="7.40674">
        <ele>612</ele>
        <time>2024-07-09T06:14:16Z</time>
      </trkpt>
      <trkpt lat="43.91482" lon="7.40676">
        <ele>612.4</ele>
        <time>2024-07-09T06:14:17Z</time>
      </trkpt>
      <trkpt lat="43.91484" lon="7.40677">
        <ele>612.4</ele>
        <time>2024-07-09T06:14:18Z</time>
      </trkpt>
      <trkpt lat="43.91486" lon="7.40679">
        <ele>612.4</ele>
        <time>2024-07-09T06:14:19Z</time>
      </trkpt>
      <trkpt lat="43.91488" lon="7.4068">
        <ele>612.4</ele>
        <time>2024-07-09T06:14:20Z</time>
      </trkpt>
      <trkpt lat="43.9149" lon="7.40682">
        <ele>613</ele>
        <time>2024-07-09T06:14:21Z</time>
      </trkpt>
      <trkpt lat="43.91492" lon="7.40684">
        <ele>613.2</ele>
        <time>2024-07-09T06:14:22Z</time>
      </trkpt>
      <trkpt lat="43.91494" lon="7.40686">
        <ele>613.2</ele>
        <time>2024-07-09T06:14:23Z</time>
      </trkpt>
      <trkpt lat="43.91495" lon="7.40688">
        <ele>613.2</ele>
        <time>2024-07-09T06:14:24Z</time>
      </trkpt>
      <trkpt lat="43.91497" lon="7.4069">
        <ele>613.2</ele>
        <time>2024-07-09T06:14:25Z</time>
      </trkpt>
      <trkpt lat="43.91499" lon="7.40692">
        <ele>613.8</ele>
        <time>2024-07-09T06:14:26Z</time>
      </trkpt>
      <trkpt lat="43.915" lon="7.40694">
        <ele>613.8</ele>
        <time>2024-07-09T06:14:27Z</time>
      </trkpt>
      <trkpt lat="43.91502" lon="7.40697">
        <ele>613.8</ele>
        <time>2024-07-09T06:14:28Z</time>
      </trkpt>
      <trkpt lat="43.91503" lon="7.40699">
        <ele>613.8</ele>
        <time>2024-07-09T06:14:29Z</time>
      </trkpt>
      <trkpt lat="43.91504" lon="7.40701">
        <ele>614.2</ele>
        <time>2024-07-09T06:14:30Z</time>
      </trkpt>
      <trkpt lat="43.91505" lon="7.40704">
        <ele>614.2</ele>
        <time>2024-07-09T06:14:31Z</time>
      </trkpt>
      <trkpt lat="43.91507" lon="7.40706">
        <ele>614.4</ele>
        <time>2024-07-09T06:14:32Z</time>
      </trkpt>
      <trkpt lat="43.91508" lon="7.40709">
        <ele>614.4</ele>
        <time>2024-07-09T06:14:33Z</time>
      </trkpt>
      <trkpt lat="43.91508" lon="7.40712">
        <ele>614.4</ele>
        <time>2024-07-09T06:14:34Z</time>
      </trkpt>
      <trkpt lat="43.91509" lon="7.40715">
        <ele>614.4</ele>
        <time>2024-07-09T06:14:35Z</time>
      </trkpt>
      <trkpt lat="43.91509" lon="7.40718">
        <ele>614.8</ele>
        <time>2024-07-09T06:14:36Z</time>
      </trkpt>
      <trkpt lat="43.91509" lon="7.4072">
        <ele>614.8</ele>
        <time>2024-07-09T06:14:37Z</time>
      </trkpt>
      <trkpt lat="43.9151" lon="7.40723">
        <ele>614.8</ele>
        <time>2024-07-09T06:14:38Z</time>
      </trkpt>
      <trkpt lat="43.9151" lon="7.40725">
        <ele>614.8</ele>
        <time>2024-07-09T06:14:39Z</time>
      </trkpt>
      <trkpt lat="43.91511" lon="7.40728">
        <ele>615.2</ele>
        <time>2024-07-09T06:14:40Z</time>
      </trkpt>
      <trkpt lat="43.91511" lon="7.40731">
        <ele>615.4</ele>
        <time>2024-07-09T06:14:41Z</time>
      </trkpt>
      <trkpt lat="43.91512" lon="7.40734">
        <ele>615.4</ele>
        <time>2024-07-09T06:14:42Z</time>
      </trkpt>
      <trkpt lat="43.91513" lon="7.40737">
        <ele>615.4</ele>
        <time>2024-07-09T06:14:43Z</time>
      </trkpt>
      <trkpt lat="43.91513" lon="7.4074">
        <ele>615.8</ele>
        <time>2024-07-09T06:14:44Z</time>
      </trkpt>
      <trkpt lat="43.91513" lon="7.40743">
        <ele>615.8</ele>
        <time>2024-07-09T06:14:45Z</time>
      </trkpt>
      <trkpt lat="43.91514" lon="7.40746">
        <ele>616</ele>
        <time>2024-07-09T06:14:46Z</time>
      </trkpt>
      <trkpt lat="43.91514" lon="7.40749">
        <ele>616</ele>
        <time>2024-07-09T06:14:47Z</time>
      </trkpt>
      <trkpt lat="43.91514" lon="7.40753">
        <ele>616.4</ele>
        <time>2024-07-09T06:14:48Z</time>
      </trkpt>
      <trkpt lat="43.91514" lon="7.40756">
        <ele>616.4</ele>
        <time>2024-07-09T06:14:49Z</time>
      </trkpt>
      <trkpt lat="43.91513" lon="7.40759">
        <ele>616.6</ele>
        <time>2024-07-09T06:14:50Z</time>
      </trkpt>
      <trkpt lat="43.91513" lon="7.40762">
        <ele>616.6</ele>
        <time>2024-07-09T06:14:51Z</time>
      </trkpt>
      <trkpt lat="43.91513" lon="7.40765">
        <ele>616.6</ele>
        <time>2024-07-09T06:14:52Z</time>
      </trkpt>
      <trkpt lat="43.91513" lon="7.40768">
        <ele>617</ele>
        <time>2024-07-09T06:14:53Z</time>
      </trkpt>
      <trkpt lat="43.91513" lon="7.40771">
        <ele>617.2</ele>
        <time>2024-07-09T06:14:54Z</time>
      </trkpt>
      <trkpt lat="43.91513" lon="7.40775">
        <ele>617.2</ele>
        <time>2024-07-09T06:14:55Z</time>
      </trkpt>
      <trkpt lat="43.91513" lon="7.40778">
        <ele>617.2</ele>
        <time>2024-07-09T06:14:56Z</time>
      </trkpt>
      <trkpt lat="43.91513" lon="7.40781">
        <ele>617.6</ele>
        <time>2024-07-09T06:14:57Z</time>
      </trkpt>
      <trkpt lat="43.91514" lon="7.40784">
        <ele>617.8</ele>
        <time>2024-07-09T06:14:58Z</time>
      </trkpt>
      <trkpt lat="43.91514" lon="7.40787">
        <ele>617.8</ele>
        <time>2024-07-09T06:14:59Z</time>
      </trkpt>
      <trkpt lat="43.91515" lon="7.4079">
        <ele>617.8</ele>
        <time>2024-07-09T06:15:00Z</time>
      </trkpt>
      <trkpt lat="43.91516" lon="7.40793">
        <ele>617.8</ele>
        <time>2024-07-09T06:15:01Z</time>
      </trkpt>
      <trkpt lat="43.91517" lon="7.40795">
        <ele>618.4</ele>
        <time>2024-07-09T06:15:02Z</time>
      </trkpt>
      <trkpt lat="43.91518" lon="7.40799">
        <ele>618.4</ele>
        <time>2024-07-09T06:15:03Z</time>
      </trkpt>
      <trkpt lat="43.91518" lon="7.40802">
        <ele>618.4</ele>
        <time>2024-07-09T06:15:04Z</time>
      </trkpt>
      <trkpt lat="43.91519" lon="7.40805">
        <ele>618.4</ele>
        <time>2024-07-09T06:15:05Z</time>
      </trkpt>
      <trkpt lat="43.9152" lon="7.40808">
        <ele>618.8</ele>
        <time>2024-07-09T06:15:06Z</time>
      </trkpt>
      <trkpt lat="43.91521" lon="7.4081">
        <ele>619</ele>
        <time>2024-07-09T06:15:07Z</time>
      </trkpt>
      <trkpt lat="43.91521" lon="7.40813">
        <ele>619</ele>
        <time>2024-07-09T06:15:08Z</time>
      </trkpt>
      <trkpt lat="43.91522" lon="7.40816">
        <ele>619</ele>
        <time>2024-07-09T06:15:09Z</time>
      </trkpt>
      <trkpt lat="43.91523" lon="7.40819">
        <ele>619</ele>
        <time>2024-07-09T06:15:10Z</time>
      </trkpt>
      <trkpt lat="43.91523" lon="7.40822">
        <ele>619.6</ele>
        <time>2024-07-09T06:15:11Z</time>
      </trkpt>
      <trkpt lat="43.91524" lon="7.40825">
        <ele>619.6</ele>
        <time>2024-07-09T06:15:12Z</time>
      </trkpt>
      <trkpt lat="43.91524" lon="7.40828">
        <ele>619.6</ele>
        <time>2024-07-09T06:15:13Z</time>
      </trkpt>
      <trkpt lat="43.91524" lon="7.40831">
        <ele>619.6</ele>
        <time>2024-07-09T06:15:14Z</time>
      </trkpt>
      <trkpt lat="43.91525" lon="7.40834">
        <ele>619.6</ele>
        <time>2024-07-09T06:15:15Z</time>
      </trkpt>
      <trkpt lat="43.91525" lon="7.40837">
        <ele>620</ele>
        <time>2024-07-09T06:15:16Z</time>
      </trkpt>
      <trkpt lat="43.91525" lon="7.4084">
        <ele>620.2</ele>
        <time>2024-07-09T06:15:17Z</time>
      </trkpt>
      <trkpt lat="43.91526" lon="7.40843">
        <ele>620.2</ele>
        <time>2024-07-09T06:15:18Z</time>
      </trkpt>
      <trkpt lat="43.91526" lon="7.40846">
        <ele>620.2</ele>
        <time>2024-07-09T06:15:19Z</time>
      </trkpt>
      <trkpt lat="43.91527" lon="7.40849">
        <ele>620.2</ele>
        <time>2024-07-09T06:15:20Z</time>
      </trkpt>
      <trkpt lat="43.91528" lon="7.40851">
        <ele>620.8</ele>
        <time>2024-07-09T06:15:21Z</time>
      </trkpt>
      <trkpt lat="43.91528" lon="7.40855">
        <ele>620.8</ele>
        <time>2024-07-09T06:15:22Z</time>
      </trkpt>
      <trkpt lat="43.91528" lon="7.40858">
        <ele>620.8</ele>
        <time>2024-07-09T06:15:23Z</time>
      </trkpt>
      <trkpt lat="43.91528" lon="7.40861">
        <ele>620.8</ele>
        <time>2024-07-09T06:15:24Z</time>
      </trkpt>
      <trkpt lat="43.91528" lon="7.40864">
        <ele>621.4</ele>
        <time>2024-07-09T06:15:25Z</time>
      </trkpt>
      <trkpt lat="43.91528" lon="7.40866">
        <ele>621.4</ele>
        <time>2024-07-09T06:15:26Z</time>
      </trkpt>
      <trkpt lat="43.91529" lon="7.4087">
        <ele>621.4</ele>
        <time>2024-07-09T06:15:27Z</time>
      </trkpt>
      <trkpt lat="43.91529" lon="7.40873">
        <ele>621.4</ele>
        <time>2024-07-09T06:15:28Z</time>
      </trkpt>
      <trkpt lat="43.91529" lon="7.40876">
        <ele>622</ele>
        <time>2024-07-09T06:15:29Z</time>
      </trkpt>
      <trkpt lat="43.9153" lon="7.40879">
        <ele>622</ele>
        <time>2024-07-09T06:15:30Z</time>
      </trkpt>
      <trkpt lat="43.9153" lon="7.40882">
        <ele>622</ele>
        <time>2024-07-09T06:15:31Z</time>
      </trkpt>
      <trkpt lat="43.9153" lon="7.40885">
        <ele>622</ele>
        <time>2024-07-09T06:15:32Z</time>
      </trkpt>
      <trkpt lat="43.9153" lon="7.40888">
        <ele>622.6</ele>
        <time>2024-07-09T06:15:33Z</time>
      </trkpt>
      <trkpt lat="43.9153" lon="7.40891">
        <ele>622.6</ele>
        <time>2024-07-09T06:15:34Z</time>
      </trkpt>
      <trkpt lat="43.91531" lon="7.40894">
        <ele>622.6</ele>
        <time>2024-07-09T06:15:35Z</time>
      </trkpt>
      <trkpt lat="43.91531" lon="7.40897">
        <ele>622.6</ele>
        <time>2024-07-09T06:15:36Z</time>
      </trkpt>
      <trkpt lat="43.91531" lon="7.40899">
        <ele>622.6</ele>
        <time>2024-07-09T06:15:37Z</time>
      </trkpt>
      <trkpt lat="43.91531" lon="7.40903">
        <ele>623.2</ele>
        <time>2024-07-09T06:15:38Z</time>
      </trkpt>
      <trkpt lat="43.91532" lon="7.40905">
        <ele>623.2</ele>
        <time>2024-07-09T06:15:39Z</time>
      </trkpt>
      <trkpt lat="43.91532" lon="7.40908">
        <ele>623.2</ele>
        <time>2024-07-09T06:15:40Z</time>
      </trkpt>
      <trkpt lat="43.91532" lon="7.40911">
        <ele>623.2</ele>
        <time>2024-07-09T06:15:41Z</time>
      </trkpt>
      <trkpt lat="43.91532" lon="7.40914">
        <ele>623.8</ele>
        <time>2024-07-09T06:15:42Z</time>
      </trkpt>
      <trkpt lat="43.91532" lon="7.40917">
        <ele>624</ele>
        <time>2024-07-09T06:15:43Z</time>
      </trkpt>
      <trkpt lat="43.91532" lon="7.4092">
        <ele>624</ele>
        <time>2024-07-09T06:15:44Z</time>
      </trkpt>
      <trkpt lat="43.91532" lon="7.40923">
        <ele>624</ele>
        <time>2024-07-09T06:15:45Z</time>
      </trkpt>
      <trkpt lat="43.91533" lon="7.40926">
        <ele>624</ele>
        <time>2024-07-09T06:15:46Z</time>
      </trkpt>
      <trkpt lat="43.91533" lon="7.40929">
        <ele>624.4</ele>
        <time>2024-07-09T06:15:47Z</time>
      </trkpt>
      <trkpt lat="43.91533" lon="7.40932">
        <ele>624.6</ele>
        <time>2024-07-09T06:15:48Z</time>
      </trkpt>
      <trkpt lat="43.91533" lon="7.40935">
        <ele>624.6</ele>
        <time>2024-07-09T06:15:49Z</time>
      </trkpt>
      <trkpt lat="43.91533" lon="7.40938">
        <ele>624.6</ele>
        <time>2024-07-09T06:15:50Z</time>
      </trkpt>
      <trkpt lat="43.91533" lon="7.40941">
        <ele>625</ele>
        <time>2024-07-09T06:15:51Z</time>
      </trkpt>
      <trkpt lat="43.91532" lon="7.40943">
        <ele>625</ele>
        <time>2024-07-09T06:15:52Z</time>
      </trkpt>
      <trkpt lat="43.91532" lon="7.40946">
        <ele>625</ele>
        <time>2024-07-09T06:15:53Z</time>
      </trkpt>
      <trkpt lat="43.91532" lon="7.40949">
        <ele>625.2</ele>
        <time>2024-07-09T06:15:54Z</time>
      </trkpt>
      <trkpt lat="43.91532" lon="7.40952">
        <ele>625.2</ele>
        <time>2024-07-09T06:15:55Z</time>
      </trkpt>
      <trkpt lat="43.91533" lon="7.40955">
        <ele>625.6</ele>
        <time>2024-07-09T06:15:56Z</time>
      </trkpt>
      <trkpt lat="43.91534" lon="7.40958">
        <ele>625.6</ele>
        <time>2024-07-09T06:15:57Z</time>
      </trkpt>
      <trkpt lat="43.91535" lon="7.4096">
        <ele>625.8</ele>
        <time>2024-07-09T06:15:58Z</time>
      </trkpt>
      <trkpt lat="43.91537" lon="7.40961">
        <ele>625.8</ele>
        <time>2024-07-09T06:15:59Z</time>
      </trkpt>
      <trkpt lat="43.91539" lon="7.40961">
        <ele>625.8</ele>
        <time>2024-07-09T06:16:00Z</time>
      </trkpt>
      <trkpt lat="43.91542" lon="7.40961">
        <ele>626.2</ele>
        <time>2024-07-09T06:16:01Z</time>
      </trkpt>
      <trkpt lat="43.91543" lon="7.40958">
        <ele>626.2</ele>
        <time>2024-07-09T06:16:02Z</time>
      </trkpt>
      <trkpt lat="43.91544" lon="7.40956">
        <ele>626.2</ele>
        <time>2024-07-09T06:16:03Z</time>
      </trkpt>
      <trkpt lat="43.91545" lon="7.40953">
        <ele>626.2</ele>
        <time>2024-07-09T06:16:04Z</time>
      </trkpt>
      <trkpt lat="43.91545" lon="7.4095">
        <ele>627</ele>
        <time>2024-07-09T06:16:05Z</time>
      </trkpt>
      <trkpt lat="43.91546" lon="7.40946">
        <ele>627.2</ele>
        <time>2024-07-09T06:16:06Z</time>
      </trkpt>
      <trkpt lat="43.91546" lon="7.40943">
        <ele>627.2</ele>
        <time>2024-07-09T06:16:07Z</time>
      </trkpt>
      <trkpt lat="43.91545" lon="7.40939">
        <ele>627.2</ele>
        <time>2024-07-09T06:16:08Z</time>
      </trkpt>
      <trkpt lat="43.91545" lon="7.40936">
        <ele>627.2</ele>
        <time>2024-07-09T06:16:09Z</time>
      </trkpt>
      <trkpt lat="43.91545" lon="7.40933">
        <ele>627.6</ele>
        <time>2024-07-09T06:16:10Z</time>
      </trkpt>
      <trkpt lat="43.91545" lon="7.4093">
        <ele>627.6</ele>
        <time>2024-07-09T06:16:11Z</time>
      </trkpt>
      <trkpt lat="43.91545" lon="7.40927">
        <ele>627.6</ele>
        <time>2024-07-09T06:16:12Z</time>
      </trkpt>
      <trkpt lat="43.91544" lon="7.40924">
        <ele>627.6</ele>
        <time>2024-07-09T06:16:13Z</time>
      </trkpt>
      <trkpt lat="43.91544" lon="7.40921">
        <ele>628.2</ele>
        <time>2024-07-09T06:16:14Z</time>
      </trkpt>
      <trkpt lat="43.91544" lon="7.40918">
        <ele>628.2</ele>
        <time>2024-07-09T06:16:15Z</time>
      </trkpt>
      <trkpt lat="43.91544" lon="7.40915">
        <ele>628.2</ele>
        <time>2024-07-09T06:16:16Z</time>
      </trkpt>
      <trkpt lat="43.91543" lon="7.40911">
        <ele>628.2</ele>
        <time>2024-07-09T06:16:17Z</time>
      </trkpt>
      <trkpt lat="43.91543" lon="7.40908">
        <ele>628.2</ele>
        <time>2024-07-09T06:16:18Z</time>
      </trkpt>
      <trkpt lat="43.91543" lon="7.40905">
        <ele>629</ele>
        <time>2024-07-09T06:16:19Z</time>
      </trkpt>
      <trkpt lat="43.91543" lon="7.40902">
        <ele>629</ele>
        <time>2024-07-09T06:16:20Z</time>
      </trkpt>
      <trkpt lat="43.91543" lon="7.40898">
        <ele>629</ele>
        <time>2024-07-09T06:16:21Z</time>
      </trkpt>
      <trkpt lat="43.91543" lon="7.40895">
        <ele>629</ele>
        <time>2024-07-09T06:16:22Z</time>
      </trkpt>
      <trkpt lat="43.91543" lon="7.40891">
        <ele>629.4</ele>
        <time>2024-07-09T06:16:23Z</time>
      </trkpt>
      <trkpt lat="43.91545" lon="7.4089">
        <ele>629.6</ele>
        <time>2024-07-09T06:16:24Z</time>
      </trkpt>
      <trkpt lat="43.91546" lon="7.4089">
        <ele>629.6</ele>
        <time>2024-07-09T06:16:25Z</time>
      </trkpt>
      <trkpt lat="43.91547" lon="7.40891">
        <ele>629.6</ele>
        <time>2024-07-09T06:16:26Z</time>
      </trkpt>
      <trkpt lat="43.91547" lon="7.40894">
        <ele>630</ele>
        <time>2024-07-09T06:16:27Z</time>
      </trkpt>
      <trkpt lat="43.91547" lon="7.40897">
        <ele>630.2</ele>
        <time>2024-07-09T06:16:28Z</time>
      </trkpt>
      <trkpt lat="43.91547" lon="7.409">
        <ele>630.2</ele>
        <time>2024-07-09T06:16:29Z</time>
      </trkpt>
      <trkpt lat="43.91547" lon="7.40903">
        <ele>630.2</ele>
        <time>2024-07-09T06:16:30Z</time>
      </trkpt>
      <trkpt lat="43.91546" lon="7.40906">
        <ele>630.6</ele>
        <time>2024-07-09T06:16:31Z</time>
      </trkpt>
      <trkpt lat="43.91546" lon="7.40909">
        <ele>630.6</ele>
        <time>2024-07-09T06:16:32Z</time>
      </trkpt>
      <trkpt lat="43.91546" lon="7.40913">
        <ele>630.6</ele>
        <time>2024-07-09T06:16:33Z</time>
      </trkpt>
      <trkpt lat="43.91546" lon="7.40916">
        <ele>630.6</ele>
        <time>2024-07-09T06:16:34Z</time>
      </trkpt>
      <trkpt lat="43.91546" lon="7.40919">
        <ele>630.6</ele>
        <time>2024-07-09T06:16:35Z</time>
      </trkpt>
      <trkpt lat="43.91545" lon="7.40923">
        <ele>631</ele>
        <time>2024-07-09T06:16:36Z</time>
      </trkpt>
      <trkpt lat="43.91545" lon="7.40926">
        <ele>631</ele>
        <time>2024-07-09T06:16:37Z</time>
      </trkpt>
      <trkpt lat="43.91545" lon="7.40929">
        <ele>631.4</ele>
        <time>2024-07-09T06:16:38Z</time>
      </trkpt>
      <trkpt lat="43.91546" lon="7.40932">
        <ele>631.4</ele>
        <time>2024-07-09T06:16:39Z</time>
      </trkpt>
      <trkpt lat="43.91546" lon="7.40935">
        <ele>631.4</ele>
        <time>2024-07-09T06:16:40Z</time>
      </trkpt>
      <trkpt lat="43.91546" lon="7.40938">
        <ele>631.4</ele>
        <time>2024-07-09T06:16:41Z</time>
      </trkpt>
      <trkpt lat="43.91547" lon="7.40941">
        <ele>631.8</ele>
        <time>2024-07-09T06:16:42Z</time>
      </trkpt>
      <trkpt lat="43.91547" lon="7.40944">
        <ele>631.8</ele>
        <time>2024-07-09T06:16:43Z</time>
      </trkpt>
      <trkpt lat="43.91548" lon="7.40946">
        <ele>631.8</ele>
        <time>2024-07-09T06:16:44Z</time>
      </trkpt>
      <trkpt lat="43.91548" lon="7.40949">
        <ele>631.8</ele>
        <time>2024-07-09T06:16:45Z</time>
      </trkpt>
      <trkpt lat="43.91549" lon="7.40952">
        <ele>632.2</ele>
        <time>2024-07-09T06:16:46Z</time>
      </trkpt>
      <trkpt lat="43.9155" lon="7.40954">
        <ele>632.4</ele>
        <time>2024-07-09T06:16:47Z</time>
      </trkpt>
      <trkpt lat="43.91551" lon="7.40957">
        <ele>632.4</ele>
        <time>2024-07-09T06:16:48Z</time>
      </trkpt>
      <trkpt lat="43.91552" lon="7.4096">
        <ele>632.4</ele>
        <time>2024-07-09T06:16:49Z</time>
      </trkpt>
      <trkpt lat="43.91554" lon="7.40962">
        <ele>632.8</ele>
        <time>2024-07-09T06:16:50Z</time>
      </trkpt>
      <trkpt lat="43.91556" lon="7.40964">
        <ele>633</ele>
        <time>2024-07-09T06:16:51Z</time>
      </trkpt>
      <trkpt lat="43.91558" lon="7.40965">
        <ele>633</ele>
        <time>2024-07-09T06:16:52Z</time>
      </trkpt>
      <trkpt lat="43.9156" lon="7.40966">
        <ele>633</ele>
        <time>2024-07-09T06:16:53Z</time>
      </trkpt>
      <trkpt lat="43.91562" lon="7.40967">
        <ele>633.4</ele>
        <time>2024-07-09T06:16:54Z</time>
      </trkpt>
      <trkpt lat="43.91564" lon="7.40967">
        <ele>633.4</ele>
        <time>2024-07-09T06:16:55Z</time>
      </trkpt>
      <trkpt lat="43.91566" lon="7.40966">
        <ele>633.4</ele>
        <time>2024-07-09T06:16:56Z</time>
      </trkpt>
      <trkpt lat="43.91569" lon="7.40966">
        <ele>633.4</ele>
        <time>2024-07-09T06:16:57Z</time>
      </trkpt>
      <trkpt lat="43.91571" lon="7.40966">
        <ele>633.4</ele>
        <time>2024-07-09T06:16:58Z</time>
      </trkpt>
      <trkpt lat="43.91574" lon="7.40965">
        <ele>633.8</ele>
        <time>2024-07-09T06:16:59Z</time>
      </trkpt>
      <trkpt lat="43.91576" lon="7.40965">
        <ele>633.8</ele>
        <time>2024-07-09T06:17:00Z</time>
      </trkpt>
      <trkpt lat="43.91578" lon="7.40964">
        <ele>633.8</ele>
        <time>2024-07-09T06:17:01Z</time>
      </trkpt>
      <trkpt lat="43.9158" lon="7.40964">
        <ele>633.8</ele>
        <time>2024-07-09T06:17:02Z</time>
      </trkpt>
      <trkpt lat="43.91582" lon="7.40963">
        <ele>634.4</ele>
        <time>2024-07-09T06:17:03Z</time>
      </trkpt>
      <trkpt lat="43.91584" lon="7.40963">
        <ele>634.4</ele>
        <time>2024-07-09T06:17:04Z</time>
      </trkpt>
      <trkpt lat="43.91586" lon="7.40962">
        <ele>634.4</ele>
        <time>2024-07-09T06:17:05Z</time>
      </trkpt>
      <trkpt lat="43.91587" lon="7.40961">
        <ele>634.4</ele>
        <time>2024-07-09T06:17:06Z</time>
      </trkpt>
      <trkpt lat="43.91589" lon="7.40961">
        <ele>634.8</ele>
        <time>2024-07-09T06:17:07Z</time>
      </trkpt>
      <trkpt lat="43.91592" lon="7.40961">
        <ele>634.8</ele>
        <time>2024-07-09T06:17:08Z</time>
      </trkpt>
      <trkpt lat="43.91594" lon="7.4096">
        <ele>635</ele>
        <time>2024-07-09T06:17:09Z</time>
      </trkpt>
      <trkpt lat="43.91595" lon="7.40959">
        <ele>635</ele>
        <time>2024-07-09T06:17:10Z</time>
      </trkpt>
      <trkpt lat="43.91597" lon="7.40959">
        <ele>635</ele>
        <time>2024-07-09T06:17:11Z</time>
      </trkpt>
      <trkpt lat="43.91599" lon="7.40958">
        <ele>635</ele>
        <time>2024-07-09T06:17:12Z</time>
      </trkpt>
      <trkpt lat="43.91601" lon="7.40958">
        <ele>635.6</ele>
        <time>2024-07-09T06:17:13Z</time>
      </trkpt>
      <trkpt lat="43.91603" lon="7.40958">
        <ele>635.6</ele>
        <time>2024-07-09T06:17:14Z</time>
      </trkpt>
      <trkpt lat="43.91605" lon="7.40957">
        <ele>635.6</ele>
        <time>2024-07-09T06:17:15Z</time>
      </trkpt>
      <trkpt lat="43.91607" lon="7.40957">
        <ele>636</ele>
        <time>2024-07-09T06:17:16Z</time>
      </trkpt>
      <trkpt lat="43.91609" lon="7.40957">
        <ele>636.2</ele>
        <time>2024-07-09T06:17:17Z</time>
      </trkpt>
      <trkpt lat="43.91611" lon="7.40957">
        <ele>636.2</ele>
        <time>2024-07-09T06:17:18Z</time>
      </trkpt>
      <trkpt lat="43.91612" lon="7.40956">
        <ele>636.2</ele>
        <time>2024-07-09T06:17:19Z</time>
      </trkpt>
      <trkpt lat="43.91614" lon="7.40956">
        <ele>636.2</ele>
        <time>2024-07-09T06:17:20Z</time>
      </trkpt>
      <trkpt lat="43.91616" lon="7.40955">
        <ele>636.6</ele>
        <time>2024-07-09T06:17:21Z</time>
      </trkpt>
      <trkpt lat="43.91618" lon="7.40955">
        <ele>636.8</ele>
        <time>2024-07-09T06:17:22Z</time>
      </trkpt>
      <trkpt lat="43.91619" lon="7.40955">
        <ele>636.8</ele>
        <time>2024-07-09T06:17:23Z</time>
      </trkpt>
      <trkpt lat="43.91621" lon="7.40954">
        <ele>636.8</ele>
        <time>2024-07-09T06:17:24Z</time>
      </trkpt>
      <trkpt lat="43.91623" lon="7.40953">
        <ele>636.8</ele>
        <time>2024-07-09T06:17:25Z</time>
      </trkpt>
      <trkpt lat="43.91624" lon="7.40952">
        <ele>637.2</ele>
        <time>2024-07-09T06:17:26Z</time>
      </trkpt>
      <trkpt lat="43.91626" lon="7.40951">
        <ele>637.4</ele>
        <time>2024-07-09T06:17:27Z</time>
      </trkpt>
      <trkpt lat="43.91627" lon="7.4095">
        <ele>637.4</ele>
        <time>2024-07-09T06:17:28Z</time>
      </trkpt>
      <trkpt lat="43.91629" lon="7.4095">
        <ele>637.4</ele>
        <time>2024-07-09T06:17:29Z</time>
      </trkpt>
      <trkpt lat="43.9163" lon="7.40949">
        <ele>637.4</ele>
        <time>2024-07-09T06:17:30Z</time>
      </trkpt>
      <trkpt lat="43.91631" lon="7.40947">
        <ele>638</ele>
        <time>2024-07-09T06:17:31Z</time>
      </trkpt>
      <trkpt lat="43.91633" lon="7.40946">
        <ele>638</ele>
        <time>2024-07-09T06:17:32Z</time>
      </trkpt>
      <trkpt lat="43.91634" lon="7.40944">
        <ele>638</ele>
        <time>2024-07-09T06:17:33Z</time>
      </trkpt>
      <trkpt lat="43.91635" lon="7.40942">
        <ele>638</ele>
        <time>2024-07-09T06:17:34Z</time>
      </trkpt>
      <trkpt lat="43.91636" lon="7.4094">
        <ele>638.8</ele>
        <time>2024-07-09T06:17:35Z</time>
      </trkpt>
      <trkpt lat="43.91637" lon="7.40938">
        <ele>639</ele>
        <time>2024-07-09T06:17:36Z</time>
      </trkpt>
      <trkpt lat="43.91638" lon="7.40936">
        <ele>639</ele>
        <time>2024-07-09T06:17:37Z</time>
      </trkpt>
      <trkpt lat="43.91638" lon="7.40934">
        <ele>639</ele>
        <time>2024-07-09T06:17:38Z</time>
      </trkpt>
      <trkpt lat="43.91639" lon="7.40932">
        <ele>639.6</ele>
        <time>2024-07-09T06:17:39Z</time>
      </trkpt>
      <trkpt lat="43.91639" lon="7.4093">
        <ele>639.8</ele>
        <time>2024-07-09T06:17:40Z</time>
      </trkpt>
      <trkpt lat="43.91639" lon="7.40927">
        <ele>639.8</ele>
        <time>2024-07-09T06:17:41Z</time>
      </trkpt>
      <trkpt lat="43.91639" lon="7.40925">
        <ele>639.8</ele>
        <time>2024-07-09T06:17:42Z</time>
      </trkpt>
      <trkpt lat="43.91639" lon="7.40923">
        <ele>639.8</ele>
        <time>2024-07-09T06:17:43Z</time>
      </trkpt>
      <trkpt lat="43.9164" lon="7.40921">
        <ele>640.2</ele>
        <time>2024-07-09T06:17:44Z</time>
      </trkpt>
      <trkpt lat="43.9164" lon="7.40919">
        <ele>640.2</ele>
        <time>2024-07-09T06:17:45Z</time>
      </trkpt>
      <trkpt lat="43.9164" lon="7.40916">
        <ele>640.2</ele>
        <time>2024-07-09T06:17:46Z</time>
      </trkpt>
      <trkpt lat="43.9164" lon="7.40914">
        <ele>640.2</ele>
        <time>2024-07-09T06:17:47Z</time>
      </trkpt>
      <trkpt lat="43.9164" lon="7.40911">
        <ele>640.4</ele>
        <time>2024-07-09T06:17:48Z</time>
      </trkpt>
      <trkpt lat="43.9164" lon="7.40909">
        <ele>640.4</ele>
        <time>2024-07-09T06:17:49Z</time>
      </trkpt>
      <trkpt lat="43.9164" lon="7.40907">
        <ele>640.4</ele>
        <time>2024-07-09T06:17:50Z</time>
      </trkpt>
      <trkpt lat="43.91641" lon="7.40905">
        <ele>640.4</ele>
        <time>2024-07-09T06:17:51Z</time>
      </trkpt>
      <trkpt lat="43.91642" lon="7.40903">
        <ele>640.8</ele>
        <time>2024-07-09T06:17:52Z</time>
      </trkpt>
      <trkpt lat="43.91643" lon="7.409">
        <ele>640.8</ele>
        <time>2024-07-09T06:17:53Z</time>
      </trkpt>
      <trkpt lat="43.91643" lon="7.40898">
        <ele>640.8</ele>
        <time>2024-07-09T06:17:54Z</time>
      </trkpt>
      <trkpt lat="43.91645" lon="7.40896">
        <ele>640.8</ele>
        <time>2024-07-09T06:17:55Z</time>
      </trkpt>
      <trkpt lat="43.91646" lon="7.40893">
        <ele>641.2</ele>
        <time>2024-07-09T06:17:56Z</time>
      </trkpt>
      <trkpt lat="43.91648" lon="7.40891">
        <ele>641.4</ele>
        <time>2024-07-09T06:17:57Z</time>
      </trkpt>
      <trkpt lat="43.91649" lon="7.40889">
        <ele>641.4</ele>
        <time>2024-07-09T06:17:58Z</time>
      </trkpt>
      <trkpt lat="43.9165" lon="7.40887">
        <ele>641.4</ele>
        <time>2024-07-09T06:17:59Z</time>
      </trkpt>
      <trkpt lat="43.91651" lon="7.40884">
        <ele>641.4</ele>
        <time>2024-07-09T06:18:00Z</time>
      </trkpt>
      <trkpt lat="43.91652" lon="7.40882">
        <ele>641.4</ele>
        <time>2024-07-09T06:18:01Z</time>
      </trkpt>
      <trkpt lat="43.91652" lon="7.4088">
        <ele>641.4</ele>
        <time>2024-07-09T06:18:02Z</time>
      </trkpt>
      <trkpt lat="43.91652" lon="7.40879">
        <ele>641.4</ele>
        <time>2024-07-09T06:18:03Z</time>
      </trkpt>
      <trkpt lat="43.91652" lon="7.40878">
        <ele>641.4</ele>
        <time>2024-07-09T06:18:04Z</time>
      </trkpt>
      <trkpt lat="43.91652" lon="7.40878">
        <ele>641.4</ele>
        <time>2024-07-09T06:18:05Z</time>
      </trkpt>
      <trkpt lat="43.91652" lon="7.40878">
        <ele>641.8</ele>
        <time>2024-07-09T06:18:06Z</time>
      </trkpt>
      <trkpt lat="43.91649" lon="7.40871">
        <ele>641.8</ele>
        <time>2024-07-09T06:18:36Z</time>
      </trkpt>
      <trkpt lat="43.91649" lon="7.40869">
        <ele>642</ele>
        <time>2024-07-09T06:18:37Z</time>
      </trkpt>
      <trkpt lat="43.91649" lon="7.40866">
        <ele>642</ele>
        <time>2024-07-09T06:18:38Z</time>
      </trkpt>
      <trkpt lat="43.91648" lon="7.40864">
        <ele>642</ele>
        <time>2024-07-09T06:18:39Z</time>
      </trkpt>
      <trkpt lat="43.91648" lon="7.40862">
        <ele>642.4</ele>
        <time>2024-07-09T06:18:40Z</time>
      </trkpt>
      <trkpt lat="43.91648" lon="7.4086">
        <ele>642.4</ele>
        <time>2024-07-09T06:18:41Z</time>
      </trkpt>
      <trkpt lat="43.91647" lon="7.40857">
        <ele>642.4</ele>
        <time>2024-07-09T06:18:42Z</time>
      </trkpt>
      <trkpt lat="43.91646" lon="7.40855">
        <ele>642.4</ele>
        <time>2024-07-09T06:18:43Z</time>
      </trkpt>
      <trkpt lat="43.91644" lon="7.40852">
        <ele>642.8</ele>
        <time>2024-07-09T06:18:44Z</time>
      </trkpt>
      <trkpt lat="43.91643" lon="7.4085">
        <ele>642.8</ele>
        <time>2024-07-09T06:18:45Z</time>
      </trkpt>
      <trkpt lat="43.91642" lon="7.40848">
        <ele>642.6</ele>
        <time>2024-07-09T06:18:46Z</time>
      </trkpt>
      <trkpt lat="43.91641" lon="7.40845">
        <ele>642.6</ele>
        <time>2024-07-09T06:18:47Z</time>
      </trkpt>
      <trkpt lat="43.9164" lon="7.40842">
        <ele>642.6</ele>
        <time>2024-07-09T06:18:48Z</time>
      </trkpt>
      <trkpt lat="43.9164" lon="7.40841">
        <ele>643</ele>
        <time>2024-07-09T06:18:49Z</time>
      </trkpt>
      <trkpt lat="43.9164" lon="7.4084">
        <ele>643.2</ele>
        <time>2024-07-09T06:18:50Z</time>
      </trkpt>
      <trkpt lat="43.9164" lon="7.40837">
        <ele>643.2</ele>
        <time>2024-07-09T06:18:51Z</time>
      </trkpt>
      <trkpt lat="43.9164" lon="7.40833">
        <ele>643.2</ele>
        <time>2024-07-09T06:18:52Z</time>
      </trkpt>
      <trkpt lat="43.91641" lon="7.4083">
        <ele>643.6</ele>
        <time>2024-07-09T06:18:53Z</time>
      </trkpt>
      <trkpt lat="43.91642" lon="7.40828">
        <ele>643.6</ele>
        <time>2024-07-09T06:18:54Z</time>
      </trkpt>
      <trkpt lat="43.91643" lon="7.40826">
        <ele>643.6</ele>
        <time>2024-07-09T06:18:55Z</time>
      </trkpt>
      <trkpt lat="43.91644" lon="7.40824">
        <ele>643.6</ele>
        <time>2024-07-09T06:18:56Z</time>
      </trkpt>
      <trkpt lat="43.91645" lon="7.40824">
        <ele>644</ele>
        <time>2024-07-09T06:18:57Z</time>
      </trkpt>
      <trkpt lat="43.91646" lon="7.40823">
        <ele>644</ele>
        <time>2024-07-09T06:18:58Z</time>
      </trkpt>
      <trkpt lat="43.91646" lon="7.40823">
        <ele>644.2</ele>
        <time>2024-07-09T06:18:59Z</time>
      </trkpt>
      <trkpt lat="43.91647" lon="7.40823">
        <ele>644.2</ele>
        <time>2024-07-09T06:19:00Z</time>
      </trkpt>
      <trkpt lat="43.91649" lon="7.40822">
        <ele>644.2</ele>
        <time>2024-07-09T06:19:01Z</time>
      </trkpt>
      <trkpt lat="43.9165" lon="7.40823">
        <ele>644.4</ele>
        <time>2024-07-09T06:19:02Z</time>
      </trkpt>
      <trkpt lat="43.91652" lon="7.40825">
        <ele>644.6</ele>
        <time>2024-07-09T06:19:03Z</time>
      </trkpt>
      <trkpt lat="43.91654" lon="7.40826">
        <ele>644.6</ele>
        <time>2024-07-09T06:19:04Z</time>
      </trkpt>
      <trkpt lat="43.91657" lon="7.40826">
        <ele>644.6</ele>
        <time>2024-07-09T06:19:05Z</time>
      </trkpt>
      <trkpt lat="43.91661" lon="7.40826">
        <ele>644.6</ele>
        <time>2024-07-09T06:19:06Z</time>
      </trkpt>
      <trkpt lat="43.91664" lon="7.40826">
        <ele>645.6</ele>
        <time>2024-07-09T06:19:07Z</time>
      </trkpt>
      <trkpt lat="43.91666" lon="7.40826">
        <ele>645.6</ele>
        <time>2024-07-09T06:19:08Z</time>
      </trkpt>
      <trkpt lat="43.9167" lon="7.40827">
        <ele>645.6</ele>
        <time>2024-07-09T06:19:09Z</time>
      </trkpt>
      <trkpt lat="43.91672" lon="7.40827">
        <ele>645.6</ele>
        <time>2024-07-09T06:19:10Z</time>
      </trkpt>
      <trkpt lat="43.91675" lon="7.40828">
        <ele>645.6</ele>
        <time>2024-07-09T06:19:11Z</time>
      </trkpt>
      <trkpt lat="43.91678" lon="7.40827">
        <ele>646</ele>
        <time>2024-07-09T06:19:12Z</time>
      </trkpt>
      <trkpt lat="43.91681" lon="7.40825">
        <ele>646</ele>
        <time>2024-07-09T06:19:13Z</time>
      </trkpt>
      <trkpt lat="43.91683" lon="7.40822">
        <ele>646</ele>
        <time>2024-07-09T06:19:14Z</time>
      </trkpt>
      <trkpt lat="43.91686" lon="7.4082">
        <ele>646</ele>
        <time>2024-07-09T06:19:15Z</time>
      </trkpt>
      <trkpt lat="43.91688" lon="7.40816">
        <ele>646.6</ele>
        <time>2024-07-09T06:19:16Z</time>
      </trkpt>
      <trkpt lat="43.9169" lon="7.40812">
        <ele>646.8</ele>
        <time>2024-07-09T06:19:17Z</time>
      </trkpt>
      <trkpt lat="43.91693" lon="7.40809">
        <ele>646.8</ele>
        <time>2024-07-09T06:19:18Z</time>
      </trkpt>
      <trkpt lat="43.91695" lon="7.40805">
        <ele>646.8</ele>
        <time>2024-07-09T06:19:19Z</time>
      </trkpt>
      <trkpt lat="43.91697" lon="7.40803">
        <ele>646.8</ele>
        <time>2024-07-09T06:19:20Z</time>
      </trkpt>
      <trkpt lat="43.91698" lon="7.40801">
        <ele>647.2</ele>
        <time>2024-07-09T06:19:21Z</time>
      </trkpt>
      <trkpt lat="43.917" lon="7.40798">
        <ele>647.4</ele>
        <time>2024-07-09T06:19:22Z</time>
      </trkpt>
      <trkpt lat="43.91702" lon="7.40796">
        <ele>647.4</ele>
        <time>2024-07-09T06:19:23Z</time>
      </trkpt>
      <trkpt lat="43.91704" lon="7.40794">
        <ele>647.4</ele>
        <time>2024-07-09T06:19:24Z</time>
      </trkpt>
      <trkpt lat="43.91706" lon="7.40791">
        <ele>647.8</ele>
        <time>2024-07-09T06:19:25Z</time>
      </trkpt>
      <trkpt lat="43.91708" lon="7.40789">
        <ele>648</ele>
        <time>2024-07-09T06:19:26Z</time>
      </trkpt>
      <trkpt lat="43.91709" lon="7.40787">
        <ele>648</ele>
        <time>2024-07-09T06:19:27Z</time>
      </trkpt>
      <trkpt lat="43.91711" lon="7.40784">
        <ele>648</ele>
        <time>2024-07-09T06:19:28Z</time>
      </trkpt>
      <trkpt lat="43.91711" lon="7.40782">
        <ele>648.2</ele>
        <time>2024-07-09T06:19:29Z</time>
      </trkpt>
      <trkpt lat="43.91713" lon="7.40779">
        <ele>648.6</ele>
        <time>2024-07-09T06:19:30Z</time>
      </trkpt>
      <trkpt lat="43.91715" lon="7.40778">
        <ele>648.6</ele>
        <time>2024-07-09T06:19:31Z</time>
      </trkpt>
      <trkpt lat="43.91716" lon="7.40776">
        <ele>648.6</ele>
        <time>2024-07-09T06:19:32Z</time>
      </trkpt>
      <trkpt lat="43.91718" lon="7.40775">
        <ele>648.6</ele>
        <time>2024-07-09T06:19:33Z</time>
      </trkpt>
      <trkpt lat="43.9172" lon="7.40773">
        <ele>649</ele>
        <time>2024-07-09T06:19:34Z</time>
      </trkpt>
      <trkpt lat="43.91722" lon="7.40773">
        <ele>649</ele>
        <time>2024-07-09T06:19:35Z</time>
      </trkpt>
      <trkpt lat="43.91723" lon="7.40773">
        <ele>649</ele>
        <time>2024-07-09T06:19:36Z</time>
      </trkpt>
      <trkpt lat="43.91725" lon="7.40773">
        <ele>649</ele>
        <time>2024-07-09T06:19:37Z</time>
      </trkpt>
      <trkpt lat="43.91726" lon="7.40773">
        <ele>649.6</ele>
        <time>2024-07-09T06:19:38Z</time>
      </trkpt>
      <trkpt lat="43.91728" lon="7.40773">
        <ele>649.6</ele>
        <time>2024-07-09T06:19:39Z</time>
      </trkpt>
      <trkpt lat="43.91729" lon="7.40775">
        <ele>649.8</ele>
        <time>2024-07-09T06:19:40Z</time>
      </trkpt>
      <trkpt lat="43.9173" lon="7.40776">
        <ele>649.8</ele>
        <time>2024-07-09T06:19:41Z</time>
      </trkpt>
      <trkpt lat="43.91732" lon="7.40777">
        <ele>650.2</ele>
        <time>2024-07-09T06:19:42Z</time>
      </trkpt>
      <trkpt lat="43.91734" lon="7.40778">
        <ele>650.2</ele>
        <time>2024-07-09T06:19:43Z</time>
      </trkpt>
      <trkpt lat="43.91736" lon="7.40779">
        <ele>650.4</ele>
        <time>2024-07-09T06:19:44Z</time>
      </trkpt>
      <trkpt lat="43.91737" lon="7.40781">
        <ele>650.4</ele>
        <time>2024-07-09T06:19:45Z</time>
      </trkpt>
      <trkpt lat="43.91739" lon="7.40782">
        <ele>650.4</ele>
        <time>2024-07-09T06:19:46Z</time>
      </trkpt>
      <trkpt lat="43.9174" lon="7.40784">
        <ele>650.8</ele>
        <time>2024-07-09T06:19:47Z</time>
      </trkpt>
      <trkpt lat="43.91742" lon="7.40785">
        <ele>650.8</ele>
        <time>2024-07-09T06:19:48Z</time>
      </trkpt>
      <trkpt lat="43.91744" lon="7.40786">
        <ele>650.8</ele>
        <time>2024-07-09T06:19:49Z</time>
      </trkpt>
      <trkpt lat="43.91746" lon="7.40788">
        <ele>650.8</ele>
        <time>2024-07-09T06:19:50Z</time>
      </trkpt>
      <trkpt lat="43.91748" lon="7.4079">
        <ele>650.8</ele>
        <time>2024-07-09T06:19:51Z</time>
      </trkpt>
      <trkpt lat="43.91751" lon="7.40792">
        <ele>651.4</ele>
        <time>2024-07-09T06:19:52Z</time>
      </trkpt>
      <trkpt lat="43.91753" lon="7.40794">
        <ele>651.4</ele>
        <time>2024-07-09T06:19:53Z</time>
      </trkpt>
      <trkpt lat="43.91754" lon="7.40796">
        <ele>651.4</ele>
        <time>2024-07-09T06:19:54Z</time>
      </trkpt>
      <trkpt lat="43.91756" lon="7.40798">
        <ele>651.4</ele>
        <time>2024-07-09T06:19:55Z</time>
      </trkpt>
      <trkpt lat="43.91758" lon="7.408">
        <ele>651.8</ele>
        <time>2024-07-09T06:19:56Z</time>
      </trkpt>
      <trkpt lat="43.91759" lon="7.40802">
        <ele>651.8</ele>
        <time>2024-07-09T06:19:57Z</time>
      </trkpt>
      <trkpt lat="43.91761" lon="7.40804">
        <ele>652</ele>
        <time>2024-07-09T06:19:58Z</time>
      </trkpt>
      <trkpt lat="43.91762" lon="7.40806">
        <ele>652</ele>
        <time>2024-07-09T06:19:59Z</time>
      </trkpt>
      <trkpt lat="43.91763" lon="7.40808">
        <ele>652</ele>
        <time>2024-07-09T06:20:00Z</time>
      </trkpt>
      <trkpt lat="43.91765" lon="7.40809">
        <ele>652.6</ele>
        <time>2024-07-09T06:20:01Z</time>
      </trkpt>
      <trkpt lat="43.91767" lon="7.4081">
        <ele>652.6</ele>
        <time>2024-07-09T06:20:02Z</time>
      </trkpt>
      <trkpt lat="43.91768" lon="7.40811">
        <ele>652.6</ele>
        <time>2024-07-09T06:20:03Z</time>
      </trkpt>
      <trkpt lat="43.9177" lon="7.40812">
        <ele>652.6</ele>
        <time>2024-07-09T06:20:04Z</time>
      </trkpt>
      <trkpt lat="43.91772" lon="7.40812">
        <ele>653.2</ele>
        <time>2024-07-09T06:20:05Z</time>
      </trkpt>
      <trkpt lat="43.91773" lon="7.40813">
        <ele>653.2</ele>
        <time>2024-07-09T06:20:06Z</time>
      </trkpt>
      <trkpt lat="43.91775" lon="7.40813">
        <ele>653.2</ele>
        <time>2024-07-09T06:20:07Z</time>
      </trkpt>
      <trkpt lat="43.91777" lon="7.40814">
        <ele>653.2</ele>
        <time>2024-07-09T06:20:08Z</time>
      </trkpt>
      <trkpt lat="43.91779" lon="7.40815">
        <ele>653.2</ele>
        <time>2024-07-09T06:20:09Z</time>
      </trkpt>
      <trkpt lat="43.91781" lon="7.40816">
        <ele>653.6</ele>
        <time>2024-07-09T06:20:10Z</time>
      </trkpt>
      <trkpt lat="43.91782" lon="7.40817">
        <ele>653.6</ele>
        <time>2024-07-09T06:20:11Z</time>
      </trkpt>
      <trkpt lat="43.91784" lon="7.40818">
        <ele>653.6</ele>
        <time>2024-07-09T06:20:12Z</time>
      </trkpt>
      <trkpt lat="43.91786" lon="7.40819">
        <ele>653.6</ele>
        <time>2024-07-09T06:20:13Z</time>
      </trkpt>
      <trkpt lat="43.91787" lon="7.4082">
        <ele>654</ele>
        <time>2024-07-09T06:20:14Z</time>
      </trkpt>
      <trkpt lat="43.91789" lon="7.4082">
        <ele>654.4</ele>
        <time>2024-07-09T06:20:15Z</time>
      </trkpt>
      <trkpt lat="43.9179" lon="7.40822">
        <ele>654.4</ele>
        <time>2024-07-09T06:20:16Z</time>
      </trkpt>
      <trkpt lat="43.91792" lon="7.40823">
        <ele>654.4</ele>
        <time>2024-07-09T06:20:17Z</time>
      </trkpt>
      <trkpt lat="43.91793" lon="7.40824">
        <ele>654.4</ele>
        <time>2024-07-09T06:20:18Z</time>
      </trkpt>
      <trkpt lat="43.91794" lon="7.40825">
        <ele>654.8</ele>
        <time>2024-07-09T06:20:19Z</time>
      </trkpt>
      <trkpt lat="43.91795" lon="7.40826">
        <ele>655</ele>
        <time>2024-07-09T06:20:20Z</time>
      </trkpt>
      <trkpt lat="43.91797" lon="7.40827">
        <ele>655</ele>
        <time>2024-07-09T06:20:21Z</time>
      </trkpt>
      <trkpt lat="43.91798" lon="7.40828">
        <ele>655</ele>
        <time>2024-07-09T06:20:22Z</time>
      </trkpt>
      <trkpt lat="43.91799" lon="7.40829">
        <ele>655.4</ele>
        <time>2024-07-09T06:20:23Z</time>
      </trkpt>
      <trkpt lat="43.918" lon="7.4083">
        <ele>655.6</ele>
        <time>2024-07-09T06:20:24Z</time>
      </trkpt>
      <trkpt lat="43.91802" lon="7.40831">
        <ele>655.6</ele>
        <time>2024-07-09T06:20:25Z</time>
      </trkpt>
      <trkpt lat="43.91803" lon="7.40833">
        <ele>655.6</ele>
        <time>2024-07-09T06:20:26Z</time>
      </trkpt>
      <trkpt lat="43.91805" lon="7.40834">
        <ele>656.2</ele>
        <time>2024-07-09T06:20:27Z</time>
      </trkpt>
      <trkpt lat="43.91806" lon="7.40835">
        <ele>656.2</ele>
        <time>2024-07-09T06:20:28Z</time>
      </trkpt>
      <trkpt lat="43.91808" lon="7.40836">
        <ele>656.2</ele>
        <time>2024-07-09T06:20:29Z</time>
      </trkpt>
      <trkpt lat="43.9181" lon="7.40837">
        <ele>656.2</ele>
        <time>2024-07-09T06:20:30Z</time>
      </trkpt>
      <trkpt lat="43.91811" lon="7.40837">
        <ele>656.2</ele>
        <time>2024-07-09T06:20:31Z</time>
      </trkpt>
      <trkpt lat="43.91813" lon="7.40838">
        <ele>656.2</ele>
        <time>2024-07-09T06:20:32Z</time>
      </trkpt>
      <trkpt lat="43.91814" lon="7.40839">
        <ele>656.6</ele>
        <time>2024-07-09T06:20:33Z</time>
      </trkpt>
      <trkpt lat="43.91816" lon="7.40839">
        <ele>656.8</ele>
        <time>2024-07-09T06:20:34Z</time>
      </trkpt>
      <trkpt lat="43.91818" lon="7.40839">
        <ele>656.8</ele>
        <time>2024-07-09T06:20:35Z</time>
      </trkpt>
      <trkpt lat="43.91819" lon="7.40839">
        <ele>656.8</ele>
        <time>2024-07-09T06:20:36Z</time>
      </trkpt>
      <trkpt lat="43.91821" lon="7.40839">
        <ele>657</ele>
        <time>2024-07-09T06:20:37Z</time>
      </trkpt>
      <trkpt lat="43.91822" lon="7.40839">
        <ele>657</ele>
        <time>2024-07-09T06:20:38Z</time>
      </trkpt>
      <trkpt lat="43.91824" lon="7.40839">
        <ele>657.2</ele>
        <time>2024-07-09T06:20:39Z</time>
      </trkpt>
      <trkpt lat="43.91826" lon="7.40838">
        <ele>657.2</ele>
        <time>2024-07-09T06:20:40Z</time>
      </trkpt>
      <trkpt lat="43.91827" lon="7.40837">
        <ele>657.6</ele>
        <time>2024-07-09T06:20:41Z</time>
      </trkpt>
      <trkpt lat="43.91828" lon="7.40836">
        <ele>658</ele>
        <time>2024-07-09T06:20:42Z</time>
      </trkpt>
      <trkpt lat="43.91829" lon="7.40834">
        <ele>658</ele>
        <time>2024-07-09T06:20:43Z</time>
      </trkpt>
      <trkpt lat="43.91831" lon="7.40832">
        <ele>658</ele>
        <time>2024-07-09T06:20:44Z</time>
      </trkpt>
      <trkpt lat="43.91831" lon="7.4083">
        <ele>658</ele>
        <time>2024-07-09T06:20:45Z</time>
      </trkpt>
      <trkpt lat="43.91832" lon="7.40829">
        <ele>658</ele>
        <time>2024-07-09T06:20:46Z</time>
      </trkpt>
      <trkpt lat="43.91833" lon="7.40826">
        <ele>658.2</ele>
        <time>2024-07-09T06:20:47Z</time>
      </trkpt>
      <trkpt lat="43.91833" lon="7.40823">
        <ele>658.2</ele>
        <time>2024-07-09T06:20:48Z</time>
      </trkpt>
      <trkpt lat="43.91833" lon="7.40821">
        <ele>658.2</ele>
        <time>2024-07-09T06:20:49Z</time>
      </trkpt>
      <trkpt lat="43.91833" lon="7.40818">
        <ele>658.8</ele>
        <time>2024-07-09T06:20:50Z</time>
      </trkpt>
      <trkpt lat="43.91834" lon="7.40816">
        <ele>659</ele>
        <time>2024-07-09T06:20:51Z</time>
      </trkpt>
      <trkpt lat="43.91834" lon="7.40813">
        <ele>659</ele>
        <time>2024-07-09T06:20:52Z</time>
      </trkpt>
      <trkpt lat="43.91834" lon="7.4081">
        <ele>659</ele>
        <time>2024-07-09T06:20:53Z</time>
      </trkpt>
      <trkpt lat="43.91834" lon="7.40808">
        <ele>659</ele>
        <time>2024-07-09T06:20:54Z</time>
      </trkpt>
      <trkpt lat="43.91834" lon="7.40805">
        <ele>659.2</ele>
        <time>2024-07-09T06:20:55Z</time>
      </trkpt>
      <trkpt lat="43.91834" lon="7.40802">
        <ele>659.4</ele>
        <time>2024-07-09T06:20:56Z</time>
      </trkpt>
      <trkpt lat="43.91834" lon="7.40799">
        <ele>659.4</ele>
        <time>2024-07-09T06:20:57Z</time>
      </trkpt>
      <trkpt lat="43.91835" lon="7.40797">
        <ele>659.4</ele>
        <time>2024-07-09T06:20:58Z</time>
      </trkpt>
      <trkpt lat="43.91835" lon="7.40794">
        <ele>659.6</ele>
        <time>2024-07-09T06:20:59Z</time>
      </trkpt>
      <trkpt lat="43.91835" lon="7.40791">
        <ele>659.6</ele>
        <time>2024-07-09T06:21:00Z</time>
      </trkpt>
      <trkpt lat="43.91836" lon="7.40788">
        <ele>659.6</ele>
        <time>2024-07-09T06:21:01Z</time>
      </trkpt>
      <trkpt lat="43.91837" lon="7.40785">
        <ele>659.6</ele>
        <time>2024-07-09T06:21:02Z</time>
      </trkpt>
      <trkpt lat="43.91838" lon="7.40783">
        <ele>659.8</ele>
        <time>2024-07-09T06:21:03Z</time>
      </trkpt>
      <trkpt lat="43.91838" lon="7.4078">
        <ele>659.8</ele>
        <time>2024-07-09T06:21:04Z</time>
      </trkpt>
      <trkpt lat="43.91839" lon="7.40777">
        <ele>659.8</ele>
        <time>2024-07-09T06:21:05Z</time>
      </trkpt>
      <trkpt lat="43.9184" lon="7.40774">
        <ele>659.8</ele>
        <time>2024-07-09T06:21:06Z</time>
      </trkpt>
      <trkpt lat="43.9184" lon="7.40771">
        <ele>659.8</ele>
        <time>2024-07-09T06:21:07Z</time>
      </trkpt>
      <trkpt lat="43.91841" lon="7.40768">
        <ele>660.2</ele>
        <time>2024-07-09T06:21:08Z</time>
      </trkpt>
      <trkpt lat="43.91842" lon="7.40765">
        <ele>660.2</ele>
        <time>2024-07-09T06:21:09Z</time>
      </trkpt>
      <trkpt lat="43.91843" lon="7.40762">
        <ele>660.2</ele>
        <time>2024-07-09T06:21:10Z</time>
      </trkpt>
      <trkpt lat="43.91843" lon="7.40759">
        <ele>660.2</ele>
        <time>2024-07-09T06:21:11Z</time>
      </trkpt>
      <trkpt lat="43.91844" lon="7.40756">
        <ele>660.2</ele>
        <time>2024-07-09T06:21:12Z</time>
      </trkpt>
      <trkpt lat="43.91844" lon="7.40752">
        <ele>661</ele>
        <time>2024-07-09T06:21:13Z</time>
      </trkpt>
      <trkpt lat="43.91845" lon="7.40749">
        <ele>661</ele>
        <time>2024-07-09T06:21:14Z</time>
      </trkpt>
      <trkpt lat="43.91845" lon="7.40746">
        <ele>661</ele>
        <time>2024-07-09T06:21:15Z</time>
      </trkpt>
      <trkpt lat="43.91845" lon="7.40742">
        <ele>661</ele>
        <time>2024-07-09T06:21:16Z</time>
      </trkpt>
      <trkpt lat="43.91844" lon="7.40739">
        <ele>661</ele>
        <time>2024-07-09T06:21:17Z</time>
      </trkpt>
      <trkpt lat="43.91844" lon="7.40736">
        <ele>661.6</ele>
        <time>2024-07-09T06:21:18Z</time>
      </trkpt>
      <trkpt lat="43.91843" lon="7.40733">
        <ele>661.6</ele>
        <time>2024-07-09T06:21:19Z</time>
      </trkpt>
      <trkpt lat="43.91843" lon="7.4073">
        <ele>661.6</ele>
        <time>2024-07-09T06:21:20Z</time>
      </trkpt>
      <trkpt lat="43.91842" lon="7.40727">
        <ele>661.6</ele>
        <time>2024-07-09T06:21:21Z</time>
      </trkpt>
      <trkpt lat="43.91842" lon="7.40723">
        <ele>662.2</ele>
        <time>2024-07-09T06:21:22Z</time>
      </trkpt>
      <trkpt lat="43.91841" lon="7.4072">
        <ele>662.2</ele>
        <time>2024-07-09T06:21:23Z</time>
      </trkpt>
      <trkpt lat="43.91841" lon="7.40717">
        <ele>662.2</ele>
        <time>2024-07-09T06:21:24Z</time>
      </trkpt>
      <trkpt lat="43.9184" lon="7.40713">
        <ele>662.2</ele>
        <time>2024-07-09T06:21:25Z</time>
      </trkpt>
      <trkpt lat="43.9184" lon="7.4071">
        <ele>662.2</ele>
        <time>2024-07-09T06:21:26Z</time>
      </trkpt>
      <trkpt lat="43.91841" lon="7.40707">
        <ele>662.6</ele>
        <time>2024-07-09T06:21:27Z</time>
      </trkpt>
      <trkpt lat="43.91841" lon="7.40703">
        <ele>662.8</ele>
        <time>2024-07-09T06:21:28Z</time>
      </trkpt>
      <trkpt lat="43.91841" lon="7.407">
        <ele>662.8</ele>
        <time>2024-07-09T06:21:29Z</time>
      </trkpt>
      <trkpt lat="43.91842" lon="7.40696">
        <ele>662.8</ele>
        <time>2024-07-09T06:21:30Z</time>
      </trkpt>
      <trkpt lat="43.91843" lon="7.40693">
        <ele>663</ele>
        <time>2024-07-09T06:21:31Z</time>
      </trkpt>
      <trkpt lat="43.91844" lon="7.4069">
        <ele>663.6</ele>
        <time>2024-07-09T06:21:32Z</time>
      </trkpt>
      <trkpt lat="43.91844" lon="7.40686">
        <ele>663.6</ele>
        <time>2024-07-09T06:21:33Z</time>
      </trkpt>
      <trkpt lat="43.91845" lon="7.40682">
        <ele>663.6</ele>
        <time>2024-07-09T06:21:34Z</time>
      </trkpt>
      <trkpt lat="43.91846" lon="7.40679">
        <ele>663.6</ele>
        <time>2024-07-09T06:21:35Z</time>
      </trkpt>
      <trkpt lat="43.91847" lon="7.40676">
        <ele>664.2</ele>
        <time>2024-07-09T06:21:36Z</time>
      </trkpt>
      <trkpt lat="43.91847" lon="7.40673">
        <ele>664.2</ele>
        <time>2024-07-09T06:21:37Z</time>
      </trkpt>
      <trkpt lat="43.91848" lon="7.40669">
        <ele>664.2</ele>
        <time>2024-07-09T06:21:38Z</time>
      </trkpt>
      <trkpt lat="43.91849" lon="7.40666">
        <ele>664.2</ele>
        <time>2024-07-09T06:21:39Z</time>
      </trkpt>
      <trkpt lat="43.9185" lon="7.40662">
        <ele>664.6</ele>
        <time>2024-07-09T06:21:40Z</time>
      </trkpt>
      <trkpt lat="43.91849" lon="7.40659">
        <ele>664.8</ele>
        <time>2024-07-09T06:21:41Z</time>
      </trkpt>
      <trkpt lat="43.9185" lon="7.40656">
        <ele>664.8</ele>
        <time>2024-07-09T06:21:42Z</time>
      </trkpt>
      <trkpt lat="43.9185" lon="7.40653">
        <ele>664.8</ele>
        <time>2024-07-09T06:21:43Z</time>
      </trkpt>
      <trkpt lat="43.9185" lon="7.4065">
        <ele>665.4</ele>
        <time>2024-07-09T06:21:44Z</time>
      </trkpt>
      <trkpt lat="43.9185" lon="7.40646">
        <ele>665.6</ele>
        <time>2024-07-09T06:21:45Z</time>
      </trkpt>
      <trkpt lat="43.91849" lon="7.40643">
        <ele>665.6</ele>
        <time>2024-07-09T06:21:46Z</time>
      </trkpt>
      <trkpt lat="43.91849" lon="7.4064">
        <ele>665.6</ele>
        <time>2024-07-09T06:21:47Z</time>
      </trkpt>
      <trkpt lat="43.91849" lon="7.40636">
        <ele>665.6</ele>
        <time>2024-07-09T06:21:48Z</time>
      </trkpt>
      <trkpt lat="43.91849" lon="7.40633">
        <ele>666.2</ele>
        <time>2024-07-09T06:21:49Z</time>
      </trkpt>
      <trkpt lat="43.91848" lon="7.4063">
        <ele>666.2</ele>
        <time>2024-07-09T06:21:50Z</time>
      </trkpt>
      <trkpt lat="43.91848" lon="7.40626">
        <ele>666.2</ele>
        <time>2024-07-09T06:21:51Z</time>
      </trkpt>
      <trkpt lat="43.91848" lon="7.40623">
        <ele>666.2</ele>
        <time>2024-07-09T06:21:52Z</time>
      </trkpt>
      <trkpt lat="43.91847" lon="7.40619">
        <ele>666.8</ele>
        <time>2024-07-09T06:21:53Z</time>
      </trkpt>
      <trkpt lat="43.91847" lon="7.40615">
        <ele>666.8</ele>
        <time>2024-07-09T06:21:54Z</time>
      </trkpt>
      <trkpt lat="43.91847" lon="7.40611">
        <ele>666.8</ele>
        <time>2024-07-09T06:21:55Z</time>
      </trkpt>
      <trkpt lat="43.91847" lon="7.40608">
        <ele>666.8</ele>
        <time>2024-07-09T06:21:56Z</time>
      </trkpt>
      <trkpt lat="43.91847" lon="7.40604">
        <ele>666.8</ele>
        <time>2024-07-09T06:21:57Z</time>
      </trkpt>
      <trkpt lat="43.91848" lon="7.40601">
        <ele>666.8</ele>
        <time>2024-07-09T06:21:58Z</time>
      </trkpt>
      <trkpt lat="43.91849" lon="7.40598">
        <ele>666.8</ele>
        <time>2024-07-09T06:21:59Z</time>
      </trkpt>
      <trkpt lat="43.91851" lon="7.40595">
        <ele>667.4</ele>
        <time>2024-07-09T06:22:00Z</time>
      </trkpt>
      <trkpt lat="43.91852" lon="7.40592">
        <ele>667.4</ele>
        <time>2024-07-09T06:22:01Z</time>
      </trkpt>
      <trkpt lat="43.91853" lon="7.40589">
        <ele>667.4</ele>
        <time>2024-07-09T06:22:02Z</time>
      </trkpt>
      <trkpt lat="43.91854" lon="7.40586">
        <ele>667.4</ele>
        <time>2024-07-09T06:22:03Z</time>
      </trkpt>
      <trkpt lat="43.91855" lon="7.40583">
        <ele>667.4</ele>
        <time>2024-07-09T06:22:04Z</time>
      </trkpt>
      <trkpt lat="43.91856" lon="7.4058">
        <ele>667.4</ele>
        <time>2024-07-09T06:22:05Z</time>
      </trkpt>
      <trkpt lat="43.91857" lon="7.40577">
        <ele>667.4</ele>
        <time>2024-07-09T06:22:06Z</time>
      </trkpt>
      <trkpt lat="43.91858" lon="7.40574">
        <ele>668</ele>
        <time>2024-07-09T06:22:07Z</time>
      </trkpt>
      <trkpt lat="43.91858" lon="7.40571">
        <ele>668.2</ele>
        <time>2024-07-09T06:22:08Z</time>
      </trkpt>
      <trkpt lat="43.91859" lon="7.40568">
        <ele>668.2</ele>
        <time>2024-07-09T06:22:09Z</time>
      </trkpt>
      <trkpt lat="43.9186" lon="7.40565">
        <ele>668.2</ele>
        <time>2024-07-09T06:22:10Z</time>
      </trkpt>
      <trkpt lat="43.9186" lon="7.40562">
        <ele>668.2</ele>
        <time>2024-07-09T06:22:11Z</time>
      </trkpt>
      <trkpt lat="43.91861" lon="7.4056">
        <ele>668.8</ele>
        <time>2024-07-09T06:22:12Z</time>
      </trkpt>
      <trkpt lat="43.91862" lon="7.40557">
        <ele>669</ele>
        <time>2024-07-09T06:22:13Z</time>
      </trkpt>
      <trkpt lat="43.91863" lon="7.40554">
        <ele>669</ele>
        <time>2024-07-09T06:22:14Z</time>
      </trkpt>
      <trkpt lat="43.91863" lon="7.40551">
        <ele>669</ele>
        <time>2024-07-09T06:22:15Z</time>
      </trkpt>
      <trkpt lat="43.91864" lon="7.40549">
        <ele>669.2</ele>
        <time>2024-07-09T06:22:16Z</time>
      </trkpt>
      <trkpt lat="43.91865" lon="7.40545">
        <ele>669.6</ele>
        <time>2024-07-09T06:22:17Z</time>
      </trkpt>
      <trkpt lat="43.91866" lon="7.40543">
        <ele>669.6</ele>
        <time>2024-07-09T06:22:18Z</time>
      </trkpt>
      <trkpt lat="43.91868" lon="7.4054">
        <ele>669.6</ele>
        <time>2024-07-09T06:22:19Z</time>
      </trkpt>
      <trkpt lat="43.9187" lon="7.40538">
        <ele>669.8</ele>
        <time>2024-07-09T06:22:20Z</time>
      </trkpt>
      <trkpt lat="43.91871" lon="7.40536">
        <ele>670.2</ele>
        <time>2024-07-09T06:22:21Z</time>
      </trkpt>
      <trkpt lat="43.91873" lon="7.40533">
        <ele>670.2</ele>
        <time>2024-07-09T06:22:22Z</time>
      </trkpt>
      <trkpt lat="43.91875" lon="7.40531">
        <ele>670.2</ele>
        <time>2024-07-09T06:22:23Z</time>
      </trkpt>
      <trkpt lat="43.91877" lon="7.40528">
        <ele>670.2</ele>
        <time>2024-07-09T06:22:24Z</time>
      </trkpt>
      <trkpt lat="43.91879" lon="7.40526">
        <ele>670.2</ele>
        <time>2024-07-09T06:22:25Z</time>
      </trkpt>
      <trkpt lat="43.91882" lon="7.40524">
        <ele>670.6</ele>
        <time>2024-07-09T06:22:26Z</time>
      </trkpt>
      <trkpt lat="43.91883" lon="7.40522">
        <ele>670.6</ele>
        <time>2024-07-09T06:22:27Z</time>
      </trkpt>
      <trkpt lat="43.91885" lon="7.4052">
        <ele>670.6</ele>
        <time>2024-07-09T06:22:28Z</time>
      </trkpt>
      <trkpt lat="43.91886" lon="7.40517">
        <ele>671.2</ele>
        <time>2024-07-09T06:22:29Z</time>
      </trkpt>
      <trkpt lat="43.91887" lon="7.40515">
        <ele>671.2</ele>
        <time>2024-07-09T06:22:30Z</time>
      </trkpt>
      <trkpt lat="43.91888" lon="7.40512">
        <ele>671.6</ele>
        <time>2024-07-09T06:22:31Z</time>
      </trkpt>
      <trkpt lat="43.91889" lon="7.40509">
        <ele>671.6</ele>
        <time>2024-07-09T06:22:32Z</time>
      </trkpt>
      <trkpt lat="43.9189" lon="7.40506">
        <ele>672</ele>
        <time>2024-07-09T06:22:33Z</time>
      </trkpt>
      <trkpt lat="43.91891" lon="7.40503">
        <ele>672.2</ele>
        <time>2024-07-09T06:22:34Z</time>
      </trkpt>
      <trkpt lat="43.91892" lon="7.405">
        <ele>672.2</ele>
        <time>2024-07-09T06:22:35Z</time>
      </trkpt>
      <trkpt lat="43.91893" lon="7.40498">
        <ele>672.2</ele>
        <time>2024-07-09T06:22:36Z</time>
      </trkpt>
      <trkpt lat="43.91894" lon="7.40495">
        <ele>672.2</ele>
        <time>2024-07-09T06:22:37Z</time>
      </trkpt>
      <trkpt lat="43.91895" lon="7.40492">
        <ele>672.6</ele>
        <time>2024-07-09T06:22:38Z</time>
      </trkpt>
      <trkpt lat="43.91896" lon="7.40489">
        <ele>672.6</ele>
        <time>2024-07-09T06:22:39Z</time>
      </trkpt>
      <trkpt lat="43.91897" lon="7.40486">
        <ele>672.6</ele>
        <time>2024-07-09T06:22:40Z</time>
      </trkpt>
      <trkpt lat="43.91898" lon="7.40484">
        <ele>672.6</ele>
        <time>2024-07-09T06:22:41Z</time>
      </trkpt>
      <trkpt lat="43.91899" lon="7.40481">
        <ele>672.6</ele>
        <time>2024-07-09T06:22:42Z</time>
      </trkpt>
      <trkpt lat="43.91899" lon="7.40478">
        <ele>672.8</ele>
        <time>2024-07-09T06:22:43Z</time>
      </trkpt>
      <trkpt lat="43.919" lon="7.40474">
        <ele>672.8</ele>
        <time>2024-07-09T06:22:44Z</time>
      </trkpt>
      <trkpt lat="43.91901" lon="7.40471">
        <ele>672.8</ele>
        <time>2024-07-09T06:22:45Z</time>
      </trkpt>
      <trkpt lat="43.91901" lon="7.40468">
        <ele>672.8</ele>
        <time>2024-07-09T06:22:46Z</time>
      </trkpt>
      <trkpt lat="43.91902" lon="7.40465">
        <ele>673</ele>
        <time>2024-07-09T06:22:47Z</time>
      </trkpt>
      <trkpt lat="43.91903" lon="7.40462">
        <ele>673.2</ele>
        <time>2024-07-09T06:22:48Z</time>
      </trkpt>
      <trkpt lat="43.91904" lon="7.40459">
        <ele>673.2</ele>
        <time>2024-07-09T06:22:49Z</time>
      </trkpt>
      <trkpt lat="43.91905" lon="7.40455">
        <ele>673.2</ele>
        <time>2024-07-09T06:22:50Z</time>
      </trkpt>
      <trkpt lat="43.91905" lon="7.40452">
        <ele>673.4</ele>
        <time>2024-07-09T06:22:51Z</time>
      </trkpt>
      <trkpt lat="43.91906" lon="7.40448">
        <ele>673.4</ele>
        <time>2024-07-09T06:22:52Z</time>
      </trkpt>
      <trkpt lat="43.91907" lon="7.40445">
        <ele>673.4</ele>
        <time>2024-07-09T06:22:53Z</time>
      </trkpt>
      <trkpt lat="43.91908" lon="7.40441">
        <ele>673.4</ele>
        <time>2024-07-09T06:22:54Z</time>
      </trkpt>
      <trkpt lat="43.91909" lon="7.40438">
        <ele>673.8</ele>
        <time>2024-07-09T06:22:55Z</time>
      </trkpt>
      <trkpt lat="43.9191" lon="7.40434">
        <ele>674</ele>
        <time>2024-07-09T06:22:56Z</time>
      </trkpt>
      <trkpt lat="43.9191" lon="7.4043">
        <ele>674</ele>
        <time>2024-07-09T06:22:57Z</time>
      </trkpt>
      <trkpt lat="43.91912" lon="7.40427">
        <ele>674</ele>
        <time>2024-07-09T06:22:58Z</time>
      </trkpt>
      <trkpt lat="43.91914" lon="7.40424">
        <ele>674</ele>
        <time>2024-07-09T06:22:59Z</time>
      </trkpt>
      <trkpt lat="43.91917" lon="7.40422">
        <ele>674.6</ele>
        <time>2024-07-09T06:23:00Z</time>
      </trkpt>
      <trkpt lat="43.9192" lon="7.4042">
        <ele>674.8</ele>
        <time>2024-07-09T06:23:01Z</time>
      </trkpt>
      <trkpt lat="43.91922" lon="7.40419">
        <ele>674.8</ele>
        <time>2024-07-09T06:23:02Z</time>
      </trkpt>
      <trkpt lat="43.91925" lon="7.4042">
        <ele>674.8</ele>
        <time>2024-07-09T06:23:03Z</time>
      </trkpt>
      <trkpt lat="43.91927" lon="7.40421">
        <ele>674.8</ele>
        <time>2024-07-09T06:23:04Z</time>
      </trkpt>
      <trkpt lat="43.91929" lon="7.40424">
        <ele>675.2</ele>
        <time>2024-07-09T06:23:05Z</time>
      </trkpt>
      <trkpt lat="43.91931" lon="7.40427">
        <ele>675.2</ele>
        <time>2024-07-09T06:23:06Z</time>
      </trkpt>
      <trkpt lat="43.91932" lon="7.4043">
        <ele>675.2</ele>
        <time>2024-07-09T06:23:07Z</time>
      </trkpt>
      <trkpt lat="43.91932" lon="7.40434">
        <ele>675.2</ele>
        <time>2024-07-09T06:23:08Z</time>
      </trkpt>
      <trkpt lat="43.91931" lon="7.40437">
        <ele>676.4</ele>
        <time>2024-07-09T06:23:09Z</time>
      </trkpt>
      <trkpt lat="43.91932" lon="7.40442">
        <ele>676.4</ele>
        <time>2024-07-09T06:23:10Z</time>
      </trkpt>
      <trkpt lat="43.91933" lon="7.40446">
        <ele>676.4</ele>
        <time>2024-07-09T06:23:11Z</time>
      </trkpt>
      <trkpt lat="43.91934" lon="7.4045">
        <ele>676.4</ele>
        <time>2024-07-09T06:23:12Z</time>
      </trkpt>
      <trkpt lat="43.91935" lon="7.40454">
        <ele>676.4</ele>
        <time>2024-07-09T06:23:13Z</time>
      </trkpt>
      <trkpt lat="43.91936" lon="7.40458">
        <ele>676.8</ele>
        <time>2024-07-09T06:23:14Z</time>
      </trkpt>
      <trkpt lat="43.91937" lon="7.40461">
        <ele>676.8</ele>
        <time>2024-07-09T06:23:15Z</time>
      </trkpt>
      <trkpt lat="43.91939" lon="7.40465">
        <ele>676.8</ele>
        <time>2024-07-09T06:23:16Z</time>
      </trkpt>
      <trkpt lat="43.9194" lon="7.40469">
        <ele>677.2</ele>
        <time>2024-07-09T06:23:17Z</time>
      </trkpt>
      <trkpt lat="43.91942" lon="7.40472">
        <ele>677.4</ele>
        <time>2024-07-09T06:23:18Z</time>
      </trkpt>
      <trkpt lat="43.91944" lon="7.40476">
        <ele>677.4</ele>
        <time>2024-07-09T06:23:19Z</time>
      </trkpt>
      <trkpt lat="43.91945" lon="7.40479">
        <ele>677.4</ele>
        <time>2024-07-09T06:23:20Z</time>
      </trkpt>
      <trkpt lat="43.91947" lon="7.40483">
        <ele>677.4</ele>
        <time>2024-07-09T06:23:21Z</time>
      </trkpt>
      <trkpt lat="43.91947" lon="7.40487">
        <ele>677.6</ele>
        <time>2024-07-09T06:23:22Z</time>
      </trkpt>
      <trkpt lat="43.91949" lon="7.4049">
        <ele>677.6</ele>
        <time>2024-07-09T06:23:23Z</time>
      </trkpt>
      <trkpt lat="43.9195" lon="7.40493">
        <ele>678</ele>
        <time>2024-07-09T06:23:24Z</time>
      </trkpt>
      <trkpt lat="43.91951" lon="7.40496">
        <ele>678</ele>
        <time>2024-07-09T06:23:25Z</time>
      </trkpt>
      <trkpt lat="43.91953" lon="7.40499">
        <ele>678</ele>
        <time>2024-07-09T06:23:26Z</time>
      </trkpt>
      <trkpt lat="43.91954" lon="7.40503">
        <ele>678.4</ele>
        <time>2024-07-09T06:23:27Z</time>
      </trkpt>
      <trkpt lat="43.91954" lon="7.40507">
        <ele>678.4</ele>
        <time>2024-07-09T06:23:28Z</time>
      </trkpt>
      <trkpt lat="43.91955" lon="7.40511">
        <ele>678.4</ele>
        <time>2024-07-09T06:23:29Z</time>
      </trkpt>
      <trkpt lat="43.91956" lon="7.40515">
        <ele>678.4</ele>
        <time>2024-07-09T06:23:30Z</time>
      </trkpt>
      <trkpt lat="43.91955" lon="7.40519">
        <ele>678.8</ele>
        <time>2024-07-09T06:23:31Z</time>
      </trkpt>
      <trkpt lat="43.91954" lon="7.40523">
        <ele>678.8</ele>
        <time>2024-07-09T06:23:32Z</time>
      </trkpt>
      <trkpt lat="43.91953" lon="7.40527">
        <ele>679</ele>
        <time>2024-07-09T06:23:33Z</time>
      </trkpt>
      <trkpt lat="43.91952" lon="7.4053">
        <ele>679</ele>
        <time>2024-07-09T06:23:34Z</time>
      </trkpt>
      <trkpt lat="43.91951" lon="7.40533">
        <ele>679</ele>
        <time>2024-07-09T06:23:35Z</time>
      </trkpt>
      <trkpt lat="43.91951" lon="7.40536">
        <ele>679.6</ele>
        <time>2024-07-09T06:23:36Z</time>
      </trkpt>
      <trkpt lat="43.91951" lon="7.40539">
        <ele>679.8</ele>
        <time>2024-07-09T06:23:37Z</time>
      </trkpt>
      <trkpt lat="43.91951" lon="7.40543">
        <ele>679.8</ele>
        <time>2024-07-09T06:23:38Z</time>
      </trkpt>
      <trkpt lat="43.91951" lon="7.40547">
        <ele>679.8</ele>
        <time>2024-07-09T06:23:39Z</time>
      </trkpt>
      <trkpt lat="43.91952" lon="7.4055">
        <ele>679.8</ele>
        <time>2024-07-09T06:23:40Z</time>
      </trkpt>
      <trkpt lat="43.91953" lon="7.40553">
        <ele>680.4</ele>
        <time>2024-07-09T06:23:41Z</time>
      </trkpt>
      <trkpt lat="43.91954" lon="7.40556">
        <ele>680.4</ele>
        <time>2024-07-09T06:23:42Z</time>
      </trkpt>
      <trkpt lat="43.91955" lon="7.40559">
        <ele>680.4</ele>
        <time>2024-07-09T06:23:43Z</time>
      </trkpt>
      <trkpt lat="43.91957" lon="7.40561">
        <ele>680.4</ele>
        <time>2024-07-09T06:23:44Z</time>
      </trkpt>
      <trkpt lat="43.91958" lon="7.40564">
        <ele>681</ele>
        <time>2024-07-09T06:23:45Z</time>
      </trkpt>
      <trkpt lat="43.9196" lon="7.40567">
        <ele>681</ele>
        <time>2024-07-09T06:23:46Z</time>
      </trkpt>
      <trkpt lat="43.91962" lon="7.40569">
        <ele>681</ele>
        <time>2024-07-09T06:23:47Z</time>
      </trkpt>
      <trkpt lat="43.91964" lon="7.40571">
        <ele>681</ele>
        <time>2024-07-09T06:23:48Z</time>
      </trkpt>
      <trkpt lat="43.91965" lon="7.40574">
        <ele>681.6</ele>
        <time>2024-07-09T06:23:49Z</time>
      </trkpt>
      <trkpt lat="43.91967" lon="7.40577">
        <ele>681.6</ele>
        <time>2024-07-09T06:23:50Z</time>
      </trkpt>
      <trkpt lat="43.91969" lon="7.4058">
        <ele>681.6</ele>
        <time>2024-07-09T06:23:51Z</time>
      </trkpt>
      <trkpt lat="43.91969" lon="7.40583">
        <ele>681.6</ele>
        <time>2024-07-09T06:23:52Z</time>
      </trkpt>
      <trkpt lat="43.9197" lon="7.40586">
        <ele>682</ele>
        <time>2024-07-09T06:23:53Z</time>
      </trkpt>
      <trkpt lat="43.91971" lon="7.4059">
        <ele>682.2</ele>
        <time>2024-07-09T06:23:54Z</time>
      </trkpt>
      <trkpt lat="43.91973" lon="7.40592">
        <ele>682.2</ele>
        <time>2024-07-09T06:23:55Z</time>
      </trkpt>
      <trkpt lat="43.91974" lon="7.40595">
        <ele>682.2</ele>
        <time>2024-07-09T06:23:56Z</time>
      </trkpt>
      <trkpt lat="43.91975" lon="7.40599">
        <ele>682.2</ele>
        <time>2024-07-09T06:23:57Z</time>
      </trkpt>
      <trkpt lat="43.91977" lon="7.40602">
        <ele>682.6</ele>
        <time>2024-07-09T06:23:58Z</time>
      </trkpt>
      <trkpt lat="43.91977" lon="7.40605">
        <ele>682.6</ele>
        <time>2024-07-09T06:23:59Z</time>
      </trkpt>
      <trkpt lat="43.91979" lon="7.40608">
        <ele>682.6</ele>
        <time>2024-07-09T06:24:00Z</time>
      </trkpt>
      <trkpt lat="43.9198" lon="7.40611">
        <ele>682.6</ele>
        <time>2024-07-09T06:24:01Z</time>
      </trkpt>
      <trkpt lat="43.91981" lon="7.40614">
        <ele>683</ele>
        <time>2024-07-09T06:24:02Z</time>
      </trkpt>
      <trkpt lat="43.91982" lon="7.40618">
        <ele>683.2</ele>
        <time>2024-07-09T06:24:03Z</time>
      </trkpt>
      <trkpt lat="43.91983" lon="7.40621">
        <ele>683.2</ele>
        <time>2024-07-09T06:24:04Z</time>
      </trkpt>
      <trkpt lat="43.91984" lon="7.40624">
        <ele>683.2</ele>
        <time>2024-07-09T06:24:05Z</time>
      </trkpt>
      <trkpt lat="43.91986" lon="7.40627">
        <ele>683.2</ele>
        <time>2024-07-09T06:24:06Z</time>
      </trkpt>
      <trkpt lat="43.91987" lon="7.4063">
        <ele>683.2</ele>
        <time>2024-07-09T06:24:07Z</time>
      </trkpt>
      <trkpt lat="43.91989" lon="7.40633">
        <ele>683.6</ele>
        <time>2024-07-09T06:24:08Z</time>
      </trkpt>
      <trkpt lat="43.9199" lon="7.40636">
        <ele>683.6</ele>
        <time>2024-07-09T06:24:09Z</time>
      </trkpt>
      <trkpt lat="43.91992" lon="7.40638">
        <ele>683.6</ele>
        <time>2024-07-09T06:24:10Z</time>
      </trkpt>
      <trkpt lat="43.91995" lon="7.4064">
        <ele>683.6</ele>
        <time>2024-07-09T06:24:11Z</time>
      </trkpt>
      <trkpt lat="43.91997" lon="7.40641">
        <ele>684.2</ele>
        <time>2024-07-09T06:24:12Z</time>
      </trkpt>
      <trkpt lat="43.92" lon="7.40643">
        <ele>684.2</ele>
        <time>2024-07-09T06:24:13Z</time>
      </trkpt>
      <trkpt lat="43.92003" lon="7.40644">
        <ele>684.2</ele>
        <time>2024-07-09T06:24:14Z</time>
      </trkpt>
      <trkpt lat="43.92005" lon="7.40644">
        <ele>684.2</ele>
        <time>2024-07-09T06:24:15Z</time>
      </trkpt>
      <trkpt lat="43.92008" lon="7.40645">
        <ele>684.6</ele>
        <time>2024-07-09T06:24:16Z</time>
      </trkpt>
      <trkpt lat="43.92011" lon="7.40645">
        <ele>684.6</ele>
        <time>2024-07-09T06:24:17Z</time>
      </trkpt>
      <trkpt lat="43.92013" lon="7.40646">
        <ele>684.8</ele>
        <time>2024-07-09T06:24:18Z</time>
      </trkpt>
      <trkpt lat="43.92016" lon="7.40647">
        <ele>684.8</ele>
        <time>2024-07-09T06:24:19Z</time>
      </trkpt>
      <trkpt lat="43.92019" lon="7.40648">
        <ele>684.8</ele>
        <time>2024-07-09T06:24:20Z</time>
      </trkpt>
      <trkpt lat="43.92021" lon="7.40649">
        <ele>685</ele>
        <time>2024-07-09T06:24:21Z</time>
      </trkpt>
      <trkpt lat="43.92024" lon="7.40649">
        <ele>685.2</ele>
        <time>2024-07-09T06:24:22Z</time>
      </trkpt>
      <trkpt lat="43.92027" lon="7.4065">
        <ele>685.2</ele>
        <time>2024-07-09T06:24:23Z</time>
      </trkpt>
      <trkpt lat="43.92029" lon="7.40651">
        <ele>685.2</ele>
        <time>2024-07-09T06:24:24Z</time>
      </trkpt>
      <trkpt lat="43.92032" lon="7.40652">
        <ele>685.8</ele>
        <time>2024-07-09T06:24:25Z</time>
      </trkpt>
      <trkpt lat="43.92034" lon="7.40653">
        <ele>685.8</ele>
        <time>2024-07-09T06:24:26Z</time>
      </trkpt>
      <trkpt lat="43.92037" lon="7.40654">
        <ele>685.8</ele>
        <time>2024-07-09T06:24:27Z</time>
      </trkpt>
      <trkpt lat="43.92039" lon="7.40654">
        <ele>685.8</ele>
        <time>2024-07-09T06:24:28Z</time>
      </trkpt>
      <trkpt lat="43.92042" lon="7.40655">
        <ele>685.8</ele>
        <time>2024-07-09T06:24:29Z</time>
      </trkpt>
      <trkpt lat="43.92044" lon="7.40656">
        <ele>686.2</ele>
        <time>2024-07-09T06:24:30Z</time>
      </trkpt>
      <trkpt lat="43.92046" lon="7.40657">
        <ele>686.2</ele>
        <time>2024-07-09T06:24:31Z</time>
      </trkpt>
      <trkpt lat="43.92049" lon="7.40658">
        <ele>686.2</ele>
        <time>2024-07-09T06:24:32Z</time>
      </trkpt>
      <trkpt lat="43.92051" lon="7.40659">
        <ele>686.2</ele>
        <time>2024-07-09T06:24:33Z</time>
      </trkpt>
      <trkpt lat="43.92054" lon="7.4066">
        <ele>686.8</ele>
        <time>2024-07-09T06:24:34Z</time>
      </trkpt>
      <trkpt lat="43.92056" lon="7.4066">
        <ele>686.8</ele>
        <time>2024-07-09T06:24:35Z</time>
      </trkpt>
      <trkpt lat="43.92059" lon="7.40661">
        <ele>686.8</ele>
        <time>2024-07-09T06:24:36Z</time>
      </trkpt>
      <trkpt lat="43.92061" lon="7.40662">
        <ele>686.8</ele>
        <time>2024-07-09T06:24:37Z</time>
      </trkpt>
      <trkpt lat="43.92064" lon="7.40663">
        <ele>686.8</ele>
        <time>2024-07-09T06:24:38Z</time>
      </trkpt>
      <trkpt lat="43.92066" lon="7.40664">
        <ele>687.4</ele>
        <time>2024-07-09T06:24:39Z</time>
      </trkpt>
      <trkpt lat="43.92069" lon="7.40665">
        <ele>687.4</ele>
        <time>2024-07-09T06:24:40Z</time>
      </trkpt>
      <trkpt lat="43.92072" lon="7.40666">
        <ele>687.4</ele>
        <time>2024-07-09T06:24:41Z</time>
      </trkpt>
      <trkpt lat="43.92075" lon="7.40667">
        <ele>687.4</ele>
        <time>2024-07-09T06:24:42Z</time>
      </trkpt>
      <trkpt lat="43.92078" lon="7.40668">
        <ele>687.6</ele>
        <time>2024-07-09T06:24:43Z</time>
      </trkpt>
      <trkpt lat="43.9208" lon="7.40669">
        <ele>687.8</ele>
        <time>2024-07-09T06:24:44Z</time>
      </trkpt>
      <trkpt lat="43.92083" lon="7.4067">
        <ele>687.8</ele>
        <time>2024-07-09T06:24:45Z</time>
      </trkpt>
      <trkpt lat="43.92085" lon="7.40671">
        <ele>687.8</ele>
        <time>2024-07-09T06:24:46Z</time>
      </trkpt>
      <trkpt lat="43.92088" lon="7.40672">
        <ele>687.8</ele>
        <time>2024-07-09T06:24:47Z</time>
      </trkpt>
      <trkpt lat="43.92091" lon="7.40672">
        <ele>688</ele>
        <time>2024-07-09T06:24:48Z</time>
      </trkpt>
      <trkpt lat="43.92094" lon="7.40672">
        <ele>688.2</ele>
        <time>2024-07-09T06:24:49Z</time>
      </trkpt>
      <trkpt lat="43.92097" lon="7.40673">
        <ele>688.2</ele>
        <time>2024-07-09T06:24:50Z</time>
      </trkpt>
      <trkpt lat="43.921" lon="7.40673">
        <ele>688.2</ele>
        <time>2024-07-09T06:24:51Z</time>
      </trkpt>
      <trkpt lat="43.92103" lon="7.40674">
        <ele>688.2</ele>
        <time>2024-07-09T06:24:52Z</time>
      </trkpt>
      <trkpt lat="43.92106" lon="7.40674">
        <ele>688.4</ele>
        <time>2024-07-09T06:24:53Z</time>
      </trkpt>
      <trkpt lat="43.92109" lon="7.40675">
        <ele>688.4</ele>
        <time>2024-07-09T06:24:54Z</time>
      </trkpt>
      <trkpt lat="43.92112" lon="7.40676">
        <ele>688.4</ele>
        <time>2024-07-09T06:24:55Z</time>
      </trkpt>
      <trkpt lat="43.92114" lon="7.40676">
        <ele>688.4</ele>
        <time>2024-07-09T06:24:56Z</time>
      </trkpt>
      <trkpt lat="43.92117" lon="7.40676">
        <ele>688.8</ele>
        <time>2024-07-09T06:24:57Z</time>
      </trkpt>
      <trkpt lat="43.9212" lon="7.40676">
        <ele>689</ele>
        <time>2024-07-09T06:24:58Z</time>
      </trkpt>
      <trkpt lat="43.92123" lon="7.40677">
        <ele>689</ele>
        <time>2024-07-09T06:24:59Z</time>
      </trkpt>
      <trkpt lat="43.92125" lon="7.40677">
        <ele>689</ele>
        <time>2024-07-09T06:25:00Z</time>
      </trkpt>
      <trkpt lat="43.92128" lon="7.40678">
        <ele>689</ele>
        <time>2024-07-09T06:25:01Z</time>
      </trkpt>
      <trkpt lat="43.92131" lon="7.40678">
        <ele>689.4</ele>
        <time>2024-07-09T06:25:02Z</time>
      </trkpt>
      <trkpt lat="43.92133" lon="7.40678">
        <ele>689.4</ele>
        <time>2024-07-09T06:25:03Z</time>
      </trkpt>
      <trkpt lat="43.92135" lon="7.40676">
        <ele>689.4</ele>
        <time>2024-07-09T06:25:04Z</time>
      </trkpt>
      <trkpt lat="43.92137" lon="7.40674">
        <ele>689.4</ele>
        <time>2024-07-09T06:25:05Z</time>
      </trkpt>
      <trkpt lat="43.92137" lon="7.40671">
        <ele>689.8</ele>
        <time>2024-07-09T06:25:06Z</time>
      </trkpt>
      <trkpt lat="43.92136" lon="7.40668">
        <ele>689.8</ele>
        <time>2024-07-09T06:25:07Z</time>
      </trkpt>
      <trkpt lat="43.92134" lon="7.40666">
        <ele>689.8</ele>
        <time>2024-07-09T06:25:08Z</time>
      </trkpt>
      <trkpt lat="43.92132" lon="7.40665">
        <ele>689.8</ele>
        <time>2024-07-09T06:25:09Z</time>
      </trkpt>
      <trkpt lat="43.9213" lon="7.40664">
        <ele>690.4</ele>
        <time>2024-07-09T06:25:10Z</time>
      </trkpt>
      <trkpt lat="43.92127" lon="7.40664">
        <ele>690.4</ele>
        <time>2024-07-09T06:25:11Z</time>
      </trkpt>
      <trkpt lat="43.92124" lon="7.40664">
        <ele>690.4</ele>
        <time>2024-07-09T06:25:12Z</time>
      </trkpt>
      <trkpt lat="43.92122" lon="7.40664">
        <ele>690.4</ele>
        <time>2024-07-09T06:25:13Z</time>
      </trkpt>
      <trkpt lat="43.92119" lon="7.40664">
        <ele>690.8</ele>
        <time>2024-07-09T06:25:14Z</time>
      </trkpt>
      <trkpt lat="43.92116" lon="7.40664">
        <ele>690.8</ele>
        <time>2024-07-09T06:25:15Z</time>
      </trkpt>
      <trkpt lat="43.92113" lon="7.40663">
        <ele>690.8</ele>
        <time>2024-07-09T06:25:16Z</time>
      </trkpt>
      <trkpt lat="43.9211" lon="7.40663">
        <ele>690.8</ele>
        <time>2024-07-09T06:25:17Z</time>
      </trkpt>
      <trkpt lat="43.92107" lon="7.40662">
        <ele>690.8</ele>
        <time>2024-07-09T06:25:18Z</time>
      </trkpt>
      <trkpt lat="43.92104" lon="7.40662">
        <ele>691.2</ele>
        <time>2024-07-09T06:25:19Z</time>
      </trkpt>
      <trkpt lat="43.92102" lon="7.40661">
        <ele>691.2</ele>
        <time>2024-07-09T06:25:20Z</time>
      </trkpt>
      <trkpt lat="43.92099" lon="7.4066">
        <ele>691.2</ele>
        <time>2024-07-09T06:25:21Z</time>
      </trkpt>
      <trkpt lat="43.92097" lon="7.40659">
        <ele>691.2</ele>
        <time>2024-07-09T06:25:22Z</time>
      </trkpt>
      <trkpt lat="43.92094" lon="7.40658">
        <ele>691.6</ele>
        <time>2024-07-09T06:25:23Z</time>
      </trkpt>
      <trkpt lat="43.92091" lon="7.40657">
        <ele>692</ele>
        <time>2024-07-09T06:25:24Z</time>
      </trkpt>
      <trkpt lat="43.92089" lon="7.40656">
        <ele>692</ele>
        <time>2024-07-09T06:25:25Z</time>
      </trkpt>
      <trkpt lat="43.92087" lon="7.40655">
        <ele>692</ele>
        <time>2024-07-09T06:25:26Z</time>
      </trkpt>
      <trkpt lat="43.92084" lon="7.40654">
        <ele>692.4</ele>
        <time>2024-07-09T06:25:27Z</time>
      </trkpt>
      <trkpt lat="43.92082" lon="7.40652">
        <ele>692.4</ele>
        <time>2024-07-09T06:25:28Z</time>
      </trkpt>
      <trkpt lat="43.92079" lon="7.40651">
        <ele>692.4</ele>
        <time>2024-07-09T06:25:29Z</time>
      </trkpt>
      <trkpt lat="43.92077" lon="7.4065">
        <ele>692.4</ele>
        <time>2024-07-09T06:25:30Z</time>
      </trkpt>
      <trkpt lat="43.92075" lon="7.4065">
        <ele>692.4</ele>
        <time>2024-07-09T06:25:31Z</time>
      </trkpt>
      <trkpt lat="43.92072" lon="7.40649">
        <ele>692.4</ele>
        <time>2024-07-09T06:25:32Z</time>
      </trkpt>
      <trkpt lat="43.92069" lon="7.40648">
        <ele>693</ele>
        <time>2024-07-09T06:25:33Z</time>
      </trkpt>
      <trkpt lat="43.92067" lon="7.40647">
        <ele>693.2</ele>
        <time>2024-07-09T06:25:34Z</time>
      </trkpt>
      <trkpt lat="43.92065" lon="7.40646">
        <ele>693.2</ele>
        <time>2024-07-09T06:25:35Z</time>
      </trkpt>
      <trkpt lat="43.92062" lon="7.40645">
        <ele>693.2</ele>
        <time>2024-07-09T06:25:36Z</time>
      </trkpt>
      <trkpt lat="43.9206" lon="7.40644">
        <ele>693.8</ele>
        <time>2024-07-09T06:25:37Z</time>
      </trkpt>
      <trkpt lat="43.92057" lon="7.40643">
        <ele>693.8</ele>
        <time>2024-07-09T06:25:38Z</time>
      </trkpt>
      <trkpt lat="43.92054" lon="7.40642">
        <ele>693.8</ele>
        <time>2024-07-09T06:25:39Z</time>
      </trkpt>
      <trkpt lat="43.92051" lon="7.40641">
        <ele>693.8</ele>
        <time>2024-07-09T06:25:40Z</time>
      </trkpt>
      <trkpt lat="43.92049" lon="7.4064">
        <ele>693.8</ele>
        <time>2024-07-09T06:25:41Z</time>
      </trkpt>
      <trkpt lat="43.92046" lon="7.40639">
        <ele>694.4</ele>
        <time>2024-07-09T06:25:42Z</time>
      </trkpt>
      <trkpt lat="43.92044" lon="7.40638">
        <ele>694.4</ele>
        <time>2024-07-09T06:25:43Z</time>
      </trkpt>
      <trkpt lat="43.92041" lon="7.40637">
        <ele>694.4</ele>
        <time>2024-07-09T06:25:44Z</time>
      </trkpt>
      <trkpt lat="43.92038" lon="7.40636">
        <ele>694.4</ele>
        <time>2024-07-09T06:25:45Z</time>
      </trkpt>
      <trkpt lat="43.92036" lon="7.40635">
        <ele>695</ele>
        <time>2024-07-09T06:25:46Z</time>
      </trkpt>
      <trkpt lat="43.92033" lon="7.40634">
        <ele>695.2</ele>
        <time>2024-07-09T06:25:47Z</time>
      </trkpt>
      <trkpt lat="43.92031" lon="7.40633">
        <ele>695.2</ele>
        <time>2024-07-09T06:25:48Z</time>
      </trkpt>
      <trkpt lat="43.92029" lon="7.40632">
        <ele>695.2</ele>
        <time>2024-07-09T06:25:49Z</time>
      </trkpt>
      <trkpt lat="43.92026" lon="7.40631">
        <ele>695.6</ele>
        <time>2024-07-09T06:25:50Z</time>
      </trkpt>
      <trkpt lat="43.92024" lon="7.4063">
        <ele>695.6</ele>
        <time>2024-07-09T06:25:51Z</time>
      </trkpt>
      <trkpt lat="43.92021" lon="7.40629">
        <ele>695.6</ele>
        <time>2024-07-09T06:25:52Z</time>
      </trkpt>
      <trkpt lat="43.92018" lon="7.40628">
        <ele>695.6</ele>
        <time>2024-07-09T06:25:53Z</time>
      </trkpt>
      <trkpt lat="43.92016" lon="7.40627">
        <ele>695.6</ele>
        <time>2024-07-09T06:25:54Z</time>
      </trkpt>
      <trkpt lat="43.92013" lon="7.40627">
        <ele>696</ele>
        <time>2024-07-09T06:25:55Z</time>
      </trkpt>
      <trkpt lat="43.9201" lon="7.40627">
        <ele>696.2</ele>
        <time>2024-07-09T06:25:56Z</time>
      </trkpt>
      <trkpt lat="43.92008" lon="7.40625">
        <ele>696.2</ele>
        <time>2024-07-09T06:25:57Z</time>
      </trkpt>
      <trkpt lat="43.92006" lon="7.40624">
        <ele>696.2</ele>
        <time>2024-07-09T06:25:58Z</time>
      </trkpt>
      <trkpt lat="43.92003" lon="7.40623">
        <ele>696.4</ele>
        <time>2024-07-09T06:25:59Z</time>
      </trkpt>
      <trkpt lat="43.92001" lon="7.40621">
        <ele>696.8</ele>
        <time>2024-07-09T06:26:00Z</time>
      </trkpt>
      <trkpt lat="43.92001" lon="7.40618">
        <ele>696.8</ele>
        <time>2024-07-09T06:26:01Z</time>
      </trkpt>
      <trkpt lat="43.92001" lon="7.40616">
        <ele>696.8</ele>
        <time>2024-07-09T06:26:02Z</time>
      </trkpt>
      <trkpt lat="43.92002" lon="7.40613">
        <ele>696.8</ele>
        <time>2024-07-09T06:26:03Z</time>
      </trkpt>
      <trkpt lat="43.92004" lon="7.40612">
        <ele>697.2</ele>
        <time>2024-07-09T06:26:04Z</time>
      </trkpt>
      <trkpt lat="43.92006" lon="7.40612">
        <ele>697.6</ele>
        <time>2024-07-09T06:26:05Z</time>
      </trkpt>
      <trkpt lat="43.92008" lon="7.40613">
        <ele>697.6</ele>
        <time>2024-07-09T06:26:06Z</time>
      </trkpt>
      <trkpt lat="43.9201" lon="7.40614">
        <ele>697.6</ele>
        <time>2024-07-09T06:26:07Z</time>
      </trkpt>
      <trkpt lat="43.92013" lon="7.40616">
        <ele>698.2</ele>
        <time>2024-07-09T06:26:08Z</time>
      </trkpt>
      <trkpt lat="43.92015" lon="7.40617">
        <ele>698.2</ele>
        <time>2024-07-09T06:26:09Z</time>
      </trkpt>
      <trkpt lat="43.92017" lon="7.40618">
        <ele>698.2</ele>
        <time>2024-07-09T06:26:10Z</time>
      </trkpt>
      <trkpt lat="43.92019" lon="7.40619">
        <ele>698.2</ele>
        <time>2024-07-09T06:26:11Z</time>
      </trkpt>
      <trkpt lat="43.92022" lon="7.4062">
        <ele>698.2</ele>
        <time>2024-07-09T06:26:12Z</time>
      </trkpt>
      <trkpt lat="43.92024" lon="7.40622">
        <ele>698.2</ele>
        <time>2024-07-09T06:26:13Z</time>
      </trkpt>
      <trkpt lat="43.92026" lon="7.40623">
        <ele>698.8</ele>
        <time>2024-07-09T06:26:14Z</time>
      </trkpt>
      <trkpt lat="43.92029" lon="7.40624">
        <ele>699</ele>
        <time>2024-07-09T06:26:15Z</time>
      </trkpt>
      <trkpt lat="43.92031" lon="7.40626">
        <ele>699</ele>
        <time>2024-07-09T06:26:16Z</time>
      </trkpt>
      <trkpt lat="43.92033" lon="7.40627">
        <ele>699</ele>
        <time>2024-07-09T06:26:17Z</time>
      </trkpt>
      <trkpt lat="43.92036" lon="7.40628">
        <ele>699.4</ele>
        <time>2024-07-09T06:26:18Z</time>
      </trkpt>
      <trkpt lat="43.92038" lon="7.40629">
        <ele>699.4</ele>
        <time>2024-07-09T06:26:19Z</time>
      </trkpt>
      <trkpt lat="43.9204" lon="7.4063">
        <ele>699.4</ele>
        <time>2024-07-09T06:26:20Z</time>
      </trkpt>
      <trkpt lat="43.92043" lon="7.4063">
        <ele>699.4</ele>
        <time>2024-07-09T06:26:21Z</time>
      </trkpt>
      <trkpt lat="43.92045" lon="7.40631">
        <ele>699.8</ele>
        <time>2024-07-09T06:26:22Z</time>
      </trkpt>
      <trkpt lat="43.92048" lon="7.40632">
        <ele>700</ele>
        <time>2024-07-09T06:26:23Z</time>
      </trkpt>
      <trkpt lat="43.9205" lon="7.40632">
        <ele>700</ele>
        <time>2024-07-09T06:26:24Z</time>
      </trkpt>
      <trkpt lat="43.92053" lon="7.40633">
        <ele>700</ele>
        <time>2024-07-09T06:26:25Z</time>
      </trkpt>
      <trkpt lat="43.92055" lon="7.40633">
        <ele>700</ele>
        <time>2024-07-09T06:26:26Z</time>
      </trkpt>
      <trkpt lat="43.92058" lon="7.40634">
        <ele>700.4</ele>
        <time>2024-07-09T06:26:27Z</time>
      </trkpt>
      <trkpt lat="43.9206" lon="7.40635">
        <ele>700.4</ele>
        <time>2024-07-09T06:26:28Z</time>
      </trkpt>
      <trkpt lat="43.92063" lon="7.40635">
        <ele>700.4</ele>
        <time>2024-07-09T06:26:29Z</time>
      </trkpt>
      <trkpt lat="43.92065" lon="7.40636">
        <ele>700.4</ele>
        <time>2024-07-09T06:26:30Z</time>
      </trkpt>
      <trkpt lat="43.92067" lon="7.40636">
        <ele>701</ele>
        <time>2024-07-09T06:26:31Z</time>
      </trkpt>
      <trkpt lat="43.9207" lon="7.40637">
        <ele>701</ele>
        <time>2024-07-09T06:26:32Z</time>
      </trkpt>
      <trkpt lat="43.92072" lon="7.40637">
        <ele>701</ele>
        <time>2024-07-09T06:26:33Z</time>
      </trkpt>
      <trkpt lat="43.92075" lon="7.40638">
        <ele>701</ele>
        <time>2024-07-09T06:26:34Z</time>
      </trkpt>
      <trkpt lat="43.92077" lon="7.40638">
        <ele>701</ele>
        <time>2024-07-09T06:26:35Z</time>
      </trkpt>
      <trkpt lat="43.92079" lon="7.40638">
        <ele>701.4</ele>
        <time>2024-07-09T06:26:36Z</time>
      </trkpt>
      <trkpt lat="43.92082" lon="7.40638">
        <ele>701.4</ele>
        <time>2024-07-09T06:26:37Z</time>
      </trkpt>
      <trkpt lat="43.92084" lon="7.40639">
        <ele>701.4</ele>
        <time>2024-07-09T06:26:38Z</time>
      </trkpt>
      <trkpt lat="43.92087" lon="7.40639">
        <ele>701.4</ele>
        <time>2024-07-09T06:26:39Z</time>
      </trkpt>
      <trkpt lat="43.92089" lon="7.4064">
        <ele>702</ele>
        <time>2024-07-09T06:26:40Z</time>
      </trkpt>
      <trkpt lat="43.92091" lon="7.4064">
        <ele>702</ele>
        <time>2024-07-09T06:26:41Z</time>
      </trkpt>
      <trkpt lat="43.92094" lon="7.40641">
        <ele>702</ele>
        <time>2024-07-09T06:26:42Z</time>
      </trkpt>
      <trkpt lat="43.92096" lon="7.40641">
        <ele>702</ele>
        <time>2024-07-09T06:26:43Z</time>
      </trkpt>
      <trkpt lat="43.92099" lon="7.40641">
        <ele>702</ele>
        <time>2024-07-09T06:26:44Z</time>
      </trkpt>
      <trkpt lat="43.92101" lon="7.40641">
        <ele>702.6</ele>
        <time>2024-07-09T06:26:45Z</time>
      </trkpt>
      <trkpt lat="43.92104" lon="7.40641">
        <ele>702.6</ele>
        <time>2024-07-09T06:26:46Z</time>
      </trkpt>
      <trkpt lat="43.92106" lon="7.40641">
        <ele>702.6</ele>
        <time>2024-07-09T06:26:47Z</time>
      </trkpt>
      <trkpt lat="43.92108" lon="7.40641">
        <ele>702.6</ele>
        <time>2024-07-09T06:26:48Z</time>
      </trkpt>
      <trkpt lat="43.92111" lon="7.40641">
        <ele>703</ele>
        <time>2024-07-09T06:26:49Z</time>
      </trkpt>
      <trkpt lat="43.92113" lon="7.40641">
        <ele>703</ele>
        <time>2024-07-09T06:26:50Z</time>
      </trkpt>
      <trkpt lat="43.92115" lon="7.40641">
        <ele>703</ele>
        <time>2024-07-09T06:26:51Z</time>
      </trkpt>
      <trkpt lat="43.92118" lon="7.40641">
        <ele>703</ele>
        <time>2024-07-09T06:26:52Z</time>
      </trkpt>
      <trkpt lat="43.9212" lon="7.40641">
        <ele>703.4</ele>
        <time>2024-07-09T06:26:53Z</time>
      </trkpt>
      <trkpt lat="43.92122" lon="7.40641">
        <ele>703.4</ele>
        <time>2024-07-09T06:26:54Z</time>
      </trkpt>
      <trkpt lat="43.92124" lon="7.40641">
        <ele>703.6</ele>
        <time>2024-07-09T06:26:55Z</time>
      </trkpt>
      <trkpt lat="43.92127" lon="7.40642">
        <ele>703.6</ele>
        <time>2024-07-09T06:26:56Z</time>
      </trkpt>
      <trkpt lat="43.92129" lon="7.40642">
        <ele>703.6</ele>
        <time>2024-07-09T06:26:57Z</time>
      </trkpt>
      <trkpt lat="43.92132" lon="7.40642">
        <ele>703.6</ele>
        <time>2024-07-09T06:26:58Z</time>
      </trkpt>
      <trkpt lat="43.92134" lon="7.40642">
        <ele>703.8</ele>
        <time>2024-07-09T06:26:59Z</time>
      </trkpt>
      <trkpt lat="43.92136" lon="7.40642">
        <ele>704</ele>
        <time>2024-07-09T06:27:00Z</time>
      </trkpt>
      <trkpt lat="43.92138" lon="7.40642">
        <ele>704</ele>
        <time>2024-07-09T06:27:01Z</time>
      </trkpt>
      <trkpt lat="43.92141" lon="7.40642">
        <ele>704</ele>
        <time>2024-07-09T06:27:02Z</time>
      </trkpt>
      <trkpt lat="43.92143" lon="7.40642">
        <ele>704.6</ele>
        <time>2024-07-09T06:27:03Z</time>
      </trkpt>
      <trkpt lat="43.92145" lon="7.40642">
        <ele>704.8</ele>
        <time>2024-07-09T06:27:04Z</time>
      </trkpt>
      <trkpt lat="43.92148" lon="7.40642">
        <ele>704.8</ele>
        <time>2024-07-09T06:27:05Z</time>
      </trkpt>
      <trkpt lat="43.9215" lon="7.40642">
        <ele>704.8</ele>
        <time>2024-07-09T06:27:06Z</time>
      </trkpt>
      <trkpt lat="43.92152" lon="7.40641">
        <ele>704.8</ele>
        <time>2024-07-09T06:27:07Z</time>
      </trkpt>
      <trkpt lat="43.92154" lon="7.4064">
        <ele>705.2</ele>
        <time>2024-07-09T06:27:08Z</time>
      </trkpt>
      <trkpt lat="43.92156" lon="7.40639">
        <ele>705.2</ele>
        <time>2024-07-09T06:27:09Z</time>
      </trkpt>
      <trkpt lat="43.92158" lon="7.40638">
        <ele>705.2</ele>
        <time>2024-07-09T06:27:10Z</time>
      </trkpt>
      <trkpt lat="43.9216" lon="7.40638">
        <ele>705.2</ele>
        <time>2024-07-09T06:27:11Z</time>
      </trkpt>
      <trkpt lat="43.92162" lon="7.40637">
        <ele>706</ele>
        <time>2024-07-09T06:27:12Z</time>
      </trkpt>
      <trkpt lat="43.92165" lon="7.40636">
        <ele>706</ele>
        <time>2024-07-09T06:27:13Z</time>
      </trkpt>
      <trkpt lat="43.92167" lon="7.40636">
        <ele>706</ele>
        <time>2024-07-09T06:27:14Z</time>
      </trkpt>
      <trkpt lat="43.92169" lon="7.40636">
        <ele>706</ele>
        <time>2024-07-09T06:27:15Z</time>
      </trkpt>
      <trkpt lat="43.92171" lon="7.40636">
        <ele>706.6</ele>
        <time>2024-07-09T06:27:16Z</time>
      </trkpt>
      <trkpt lat="43.92173" lon="7.40636">
        <ele>706.8</ele>
        <time>2024-07-09T06:27:17Z</time>
      </trkpt>
      <trkpt lat="43.92175" lon="7.40637">
        <ele>706.8</ele>
        <time>2024-07-09T06:27:18Z</time>
      </trkpt>
      <trkpt lat="43.92177" lon="7.40638">
        <ele>706.8</ele>
        <time>2024-07-09T06:27:19Z</time>
      </trkpt>
      <trkpt lat="43.92178" lon="7.40639">
        <ele>706.8</ele>
        <time>2024-07-09T06:27:20Z</time>
      </trkpt>
      <trkpt lat="43.92181" lon="7.4064">
        <ele>707.4</ele>
        <time>2024-07-09T06:27:21Z</time>
      </trkpt>
      <trkpt lat="43.92183" lon="7.4064">
        <ele>707.4</ele>
        <time>2024-07-09T06:27:22Z</time>
      </trkpt>
      <trkpt lat="43.92185" lon="7.40641">
        <ele>707.4</ele>
        <time>2024-07-09T06:27:23Z</time>
      </trkpt>
      <trkpt lat="43.92187" lon="7.40642">
        <ele>707.4</ele>
        <time>2024-07-09T06:27:24Z</time>
      </trkpt>
      <trkpt lat="43.92189" lon="7.40642">
        <ele>707.8</ele>
        <time>2024-07-09T06:27:25Z</time>
      </trkpt>
      <trkpt lat="43.92191" lon="7.40643">
        <ele>707.8</ele>
        <time>2024-07-09T06:27:26Z</time>
      </trkpt>
      <trkpt lat="43.92192" lon="7.40644">
        <ele>707.8</ele>
        <time>2024-07-09T06:27:27Z</time>
      </trkpt>
      <trkpt lat="43.92194" lon="7.40644">
        <ele>707.8</ele>
        <time>2024-07-09T06:27:28Z</time>
      </trkpt>
      <trkpt lat="43.92196" lon="7.40645">
        <ele>708.4</ele>
        <time>2024-07-09T06:27:29Z</time>
      </trkpt>
      <trkpt lat="43.92198" lon="7.40645">
        <ele>708.8</ele>
        <time>2024-07-09T06:27:30Z</time>
      </trkpt>
      <trkpt lat="43.922" lon="7.40645">
        <ele>708.8</ele>
        <time>2024-07-09T06:27:31Z</time>
      </trkpt>
      <trkpt lat="43.92202" lon="7.40646">
        <ele>708.8</ele>
        <time>2024-07-09T06:27:32Z</time>
      </trkpt>
      <trkpt lat="43.92203" lon="7.40646">
        <ele>708.8</ele>
        <time>2024-07-09T06:27:33Z</time>
      </trkpt>
      <trkpt lat="43.92205" lon="7.40647">
        <ele>709.4</ele>
        <time>2024-07-09T06:27:34Z</time>
      </trkpt>
      <trkpt lat="43.92207" lon="7.40648">
        <ele>709.4</ele>
        <time>2024-07-09T06:27:35Z</time>
      </trkpt>
      <trkpt lat="43.92208" lon="7.40649">
        <ele>709.4</ele>
        <time>2024-07-09T06:27:36Z</time>
      </trkpt>
      <trkpt lat="43.92209" lon="7.40651">
        <ele>709.4</ele>
        <time>2024-07-09T06:27:37Z</time>
      </trkpt>
      <trkpt lat="43.92211" lon="7.40652">
        <ele>709.4</ele>
        <time>2024-07-09T06:27:38Z</time>
      </trkpt>
      <trkpt lat="43.92212" lon="7.40654">
        <ele>710</ele>
        <time>2024-07-09T06:27:39Z</time>
      </trkpt>
      <trkpt lat="43.92214" lon="7.40656">
        <ele>710.2</ele>
        <time>2024-07-09T06:27:40Z</time>
      </trkpt>
      <trkpt lat="43.92215" lon="7.40658">
        <ele>710.2</ele>
        <time>2024-07-09T06:27:41Z</time>
      </trkpt>
      <trkpt lat="43.92216" lon="7.4066">
        <ele>710.2</ele>
        <time>2024-07-09T06:27:42Z</time>
      </trkpt>
      <trkpt lat="43.92215" lon="7.40661">
        <ele>710.8</ele>
        <time>2024-07-09T06:27:43Z</time>
      </trkpt>
      <trkpt lat="43.92215" lon="7.40663">
        <ele>710.8</ele>
        <time>2024-07-09T06:27:44Z</time>
      </trkpt>
      <trkpt lat="43.92216" lon="7.40665">
        <ele>711</ele>
        <time>2024-07-09T06:27:45Z</time>
      </trkpt>
      <trkpt lat="43.92216" lon="7.40668">
        <ele>711</ele>
        <time>2024-07-09T06:27:46Z</time>
      </trkpt>
      <trkpt lat="43.92216" lon="7.4067">
        <ele>711</ele>
        <time>2024-07-09T06:27:47Z</time>
      </trkpt>
      <trkpt lat="43.92216" lon="7.40673">
        <ele>711.6</ele>
        <time>2024-07-09T06:27:48Z</time>
      </trkpt>
      <trkpt lat="43.92216" lon="7.40676">
        <ele>711.8</ele>
        <time>2024-07-09T06:27:49Z</time>
      </trkpt>
      <trkpt lat="43.92216" lon="7.40678">
        <ele>711.8</ele>
        <time>2024-07-09T06:27:50Z</time>
      </trkpt>
      <trkpt lat="43.92215" lon="7.40681">
        <ele>711.8</ele>
        <time>2024-07-09T06:27:51Z</time>
      </trkpt>
      <trkpt lat="43.92215" lon="7.40683">
        <ele>712.2</ele>
        <time>2024-07-09T06:27:52Z</time>
      </trkpt>
      <trkpt lat="43.92215" lon="7.40685">
        <ele>712.2</ele>
        <time>2024-07-09T06:27:53Z</time>
      </trkpt>
      <trkpt lat="43.92213" lon="7.40687">
        <ele>712.2</ele>
        <time>2024-07-09T06:27:54Z</time>
      </trkpt>
      <trkpt lat="43.92213" lon="7.40689">
        <ele>712.2</ele>
        <time>2024-07-09T06:27:55Z</time>
      </trkpt>
      <trkpt lat="43.92212" lon="7.40691">
        <ele>712.2</ele>
        <time>2024-07-09T06:27:56Z</time>
      </trkpt>
      <trkpt lat="43.92212" lon="7.40694">
        <ele>712.8</ele>
        <time>2024-07-09T06:27:57Z</time>
      </trkpt>
      <trkpt lat="43.92211" lon="7.40696">
        <ele>712.8</ele>
        <time>2024-07-09T06:27:58Z</time>
      </trkpt>
      <trkpt lat="43.9221" lon="7.40698">
        <ele>712.8</ele>
        <time>2024-07-09T06:27:59Z</time>
      </trkpt>
      <trkpt lat="43.92209" lon="7.407">
        <ele>712.8</ele>
        <time>2024-07-09T06:28:00Z</time>
      </trkpt>
      <trkpt lat="43.92208" lon="7.40702">
        <ele>713.2</ele>
        <time>2024-07-09T06:28:01Z</time>
      </trkpt>
      <trkpt lat="43.92206" lon="7.40704">
        <ele>713.2</ele>
        <time>2024-07-09T06:28:02Z</time>
      </trkpt>
      <trkpt lat="43.92204" lon="7.40706">
        <ele>713.6</ele>
        <time>2024-07-09T06:28:03Z</time>
      </trkpt>
      <trkpt lat="43.92204" lon="7.40708">
        <ele>713.6</ele>
        <time>2024-07-09T06:28:04Z</time>
      </trkpt>
      <trkpt lat="43.92203" lon="7.4071">
        <ele>713.6</ele>
        <time>2024-07-09T06:28:05Z</time>
      </trkpt>
      <trkpt lat="43.92203" lon="7.40713">
        <ele>714</ele>
        <time>2024-07-09T06:28:06Z</time>
      </trkpt>
      <trkpt lat="43.92203" lon="7.40714">
        <ele>714.2</ele>
        <time>2024-07-09T06:28:07Z</time>
      </trkpt>
      <trkpt lat="43.92203" lon="7.40716">
        <ele>714.2</ele>
        <time>2024-07-09T06:28:08Z</time>
      </trkpt>
      <trkpt lat="43.92203" lon="7.40719">
        <ele>714.2</ele>
        <time>2024-07-09T06:28:09Z</time>
      </trkpt>
      <trkpt lat="43.92203" lon="7.40722">
        <ele>714.2</ele>
        <time>2024-07-09T06:28:10Z</time>
      </trkpt>
      <trkpt lat="43.92203" lon="7.40725">
        <ele>714.8</ele>
        <time>2024-07-09T06:28:11Z</time>
      </trkpt>
      <trkpt lat="43.92204" lon="7.40727">
        <ele>714.8</ele>
        <time>2024-07-09T06:28:12Z</time>
      </trkpt>
      <trkpt lat="43.92204" lon="7.4073">
        <ele>714.8</ele>
        <time>2024-07-09T06:28:13Z</time>
      </trkpt>
      <trkpt lat="43.92204" lon="7.40733">
        <ele>714.8</ele>
        <time>2024-07-09T06:28:14Z</time>
      </trkpt>
      <trkpt lat="43.92205" lon="7.40736">
        <ele>715.2</ele>
        <time>2024-07-09T06:28:15Z</time>
      </trkpt>
      <trkpt lat="43.92205" lon="7.40739">
        <ele>715.4</ele>
        <time>2024-07-09T06:28:16Z</time>
      </trkpt>
      <trkpt lat="43.92206" lon="7.40741">
        <ele>715.4</ele>
        <time>2024-07-09T06:28:17Z</time>
      </trkpt>
      <trkpt lat="43.92206" lon="7.40744">
        <ele>715.4</ele>
        <time>2024-07-09T06:28:18Z</time>
      </trkpt>
      <trkpt lat="43.92207" lon="7.40746">
        <ele>715.8</ele>
        <time>2024-07-09T06:28:19Z</time>
      </trkpt>
      <trkpt lat="43.92208" lon="7.40747">
        <ele>715.8</ele>
        <time>2024-07-09T06:28:20Z</time>
      </trkpt>
      <trkpt lat="43.9221" lon="7.40749">
        <ele>716</ele>
        <time>2024-07-09T06:28:21Z</time>
      </trkpt>
      <trkpt lat="43.92211" lon="7.40751">
        <ele>716</ele>
        <time>2024-07-09T06:28:22Z</time>
      </trkpt>
      <trkpt lat="43.92213" lon="7.40753">
        <ele>716</ele>
        <time>2024-07-09T06:28:23Z</time>
      </trkpt>
      <trkpt lat="43.92214" lon="7.40754">
        <ele>716.2</ele>
        <time>2024-07-09T06:28:24Z</time>
      </trkpt>
      <trkpt lat="43.92216" lon="7.40756">
        <ele>716.6</ele>
        <time>2024-07-09T06:28:25Z</time>
      </trkpt>
      <trkpt lat="43.92217" lon="7.40757">
        <ele>716.6</ele>
        <time>2024-07-09T06:28:26Z</time>
      </trkpt>
      <trkpt lat="43.92219" lon="7.40758">
        <ele>716.6</ele>
        <time>2024-07-09T06:28:27Z</time>
      </trkpt>
      <trkpt lat="43.92221" lon="7.40759">
        <ele>716.6</ele>
        <time>2024-07-09T06:28:28Z</time>
      </trkpt>
      <trkpt lat="43.92222" lon="7.4076">
        <ele>716.8</ele>
        <time>2024-07-09T06:28:29Z</time>
      </trkpt>
      <trkpt lat="43.92224" lon="7.40761">
        <ele>717</ele>
        <time>2024-07-09T06:28:30Z</time>
      </trkpt>
      <trkpt lat="43.92226" lon="7.40762">
        <ele>717</ele>
        <time>2024-07-09T06:28:31Z</time>
      </trkpt>
      <trkpt lat="43.92227" lon="7.40763">
        <ele>717</ele>
        <time>2024-07-09T06:28:32Z</time>
      </trkpt>
      <trkpt lat="43.92229" lon="7.40764">
        <ele>717.6</ele>
        <time>2024-07-09T06:28:33Z</time>
      </trkpt>
      <trkpt lat="43.92231" lon="7.40765">
        <ele>717.6</ele>
        <time>2024-07-09T06:28:34Z</time>
      </trkpt>
      <trkpt lat="43.92233" lon="7.40766">
        <ele>717.6</ele>
        <time>2024-07-09T06:28:35Z</time>
      </trkpt>
      <trkpt lat="43.92235" lon="7.40767">
        <ele>717.6</ele>
        <time>2024-07-09T06:28:36Z</time>
      </trkpt>
      <trkpt lat="43.92236" lon="7.40769">
        <ele>717.6</ele>
        <time>2024-07-09T06:28:37Z</time>
      </trkpt>
      <trkpt lat="43.92238" lon="7.4077">
        <ele>718.2</ele>
        <time>2024-07-09T06:28:38Z</time>
      </trkpt>
      <trkpt lat="43.9224" lon="7.40772">
        <ele>718.2</ele>
        <time>2024-07-09T06:28:39Z</time>
      </trkpt>
      <trkpt lat="43.92242" lon="7.40773">
        <ele>718.2</ele>
        <time>2024-07-09T06:28:40Z</time>
      </trkpt>
      <trkpt lat="43.92244" lon="7.40773">
        <ele>718.2</ele>
        <time>2024-07-09T06:28:41Z</time>
      </trkpt>
      <trkpt lat="43.92246" lon="7.40773">
        <ele>718.6</ele>
        <time>2024-07-09T06:28:42Z</time>
      </trkpt>
      <trkpt lat="43.92248" lon="7.40773">
        <ele>718.6</ele>
        <time>2024-07-09T06:28:43Z</time>
      </trkpt>
      <trkpt lat="43.92249" lon="7.40771">
        <ele>718.6</ele>
        <time>2024-07-09T06:28:44Z</time>
      </trkpt>
      <trkpt lat="43.9225" lon="7.40768">
        <ele>718.6</ele>
        <time>2024-07-09T06:28:45Z</time>
      </trkpt>
      <trkpt lat="43.92251" lon="7.40765">
        <ele>719.2</ele>
        <time>2024-07-09T06:28:46Z</time>
      </trkpt>
      <trkpt lat="43.9225" lon="7.40763">
        <ele>719.2</ele>
        <time>2024-07-09T06:28:47Z</time>
      </trkpt>
      <trkpt lat="43.92249" lon="7.40761">
        <ele>719.2</ele>
        <time>2024-07-09T06:28:48Z</time>
      </trkpt>
      <trkpt lat="43.92248" lon="7.40759">
        <ele>719.2</ele>
        <time>2024-07-09T06:28:49Z</time>
      </trkpt>
      <trkpt lat="43.92247" lon="7.40758">
        <ele>719.2</ele>
        <time>2024-07-09T06:28:50Z</time>
      </trkpt>
      <trkpt lat="43.92245" lon="7.40757">
        <ele>719.6</ele>
        <time>2024-07-09T06:28:51Z</time>
      </trkpt>
      <trkpt lat="43.92243" lon="7.40756">
        <ele>719.8</ele>
        <time>2024-07-09T06:28:52Z</time>
      </trkpt>
      <trkpt lat="43.92241" lon="7.40756">
        <ele>719.8</ele>
        <time>2024-07-09T06:28:53Z</time>
      </trkpt>
      <trkpt lat="43.92239" lon="7.40755">
        <ele>719.8</ele>
        <time>2024-07-09T06:28:54Z</time>
      </trkpt>
      <trkpt lat="43.92237" lon="7.40755">
        <ele>719.8</ele>
        <time>2024-07-09T06:28:55Z</time>
      </trkpt>
      <trkpt lat="43.92235" lon="7.40754">
        <ele>720.4</ele>
        <time>2024-07-09T06:28:56Z</time>
      </trkpt>
      <trkpt lat="43.92233" lon="7.40753">
        <ele>720.4</ele>
        <time>2024-07-09T06:28:57Z</time>
      </trkpt>
      <trkpt lat="43.92231" lon="7.40752">
        <ele>720.4</ele>
        <time>2024-07-09T06:28:58Z</time>
      </trkpt>
      <trkpt lat="43.92229" lon="7.40751">
        <ele>720.4</ele>
        <time>2024-07-09T06:28:59Z</time>
      </trkpt>
      <trkpt lat="43.92228" lon="7.4075">
        <ele>720.8</ele>
        <time>2024-07-09T06:29:00Z</time>
      </trkpt>
      <trkpt lat="43.92226" lon="7.40749">
        <ele>720.8</ele>
        <time>2024-07-09T06:29:01Z</time>
      </trkpt>
      <trkpt lat="43.92225" lon="7.40748">
        <ele>720.8</ele>
        <time>2024-07-09T06:29:02Z</time>
      </trkpt>
      <trkpt lat="43.92223" lon="7.40747">
        <ele>720.8</ele>
        <time>2024-07-09T06:29:03Z</time>
      </trkpt>
      <trkpt lat="43.92222" lon="7.40746">
        <ele>720.8</ele>
        <time>2024-07-09T06:29:04Z</time>
      </trkpt>
      <trkpt lat="43.9222" lon="7.40745">
        <ele>721.2</ele>
        <time>2024-07-09T06:29:05Z</time>
      </trkpt>
      <trkpt lat="43.92219" lon="7.40743">
        <ele>721.4</ele>
        <time>2024-07-09T06:29:06Z</time>
      </trkpt>
      <trkpt lat="43.92218" lon="7.40742">
        <ele>721.4</ele>
        <time>2024-07-09T06:29:07Z</time>
      </trkpt>
      <trkpt lat="43.92218" lon="7.4074">
        <ele>721.4</ele>
        <time>2024-07-09T06:29:08Z</time>
      </trkpt>
      <trkpt lat="43.92218" lon="7.40737">
        <ele>721.8</ele>
        <time>2024-07-09T06:29:09Z</time>
      </trkpt>
      <trkpt lat="43.92219" lon="7.40735">
        <ele>721.8</ele>
        <time>2024-07-09T06:29:10Z</time>
      </trkpt>
      <trkpt lat="43.9222" lon="7.40734">
        <ele>722</ele>
        <time>2024-07-09T06:29:11Z</time>
      </trkpt>
      <trkpt lat="43.92222" lon="7.40733">
        <ele>722</ele>
        <time>2024-07-09T06:29:12Z</time>
      </trkpt>
      <trkpt lat="43.92223" lon="7.40733">
        <ele>722</ele>
        <time>2024-07-09T06:29:13Z</time>
      </trkpt>
      <trkpt lat="43.92225" lon="7.40733">
        <ele>722.6</ele>
        <time>2024-07-09T06:29:14Z</time>
      </trkpt>
      <trkpt lat="43.92226" lon="7.40735">
        <ele>722.8</ele>
        <time>2024-07-09T06:29:15Z</time>
      </trkpt>
      <trkpt lat="43.92228" lon="7.40736">
        <ele>722.8</ele>
        <time>2024-07-09T06:29:16Z</time>
      </trkpt>
      <trkpt lat="43.92229" lon="7.40738">
        <ele>722.8</ele>
        <time>2024-07-09T06:29:17Z</time>
      </trkpt>
      <trkpt lat="43.9223" lon="7.4074">
        <ele>723.2</ele>
        <time>2024-07-09T06:29:18Z</time>
      </trkpt>
      <trkpt lat="43.92232" lon="7.40741">
        <ele>723.2</ele>
        <time>2024-07-09T06:29:19Z</time>
      </trkpt>
      <trkpt lat="43.92233" lon="7.40743">
        <ele>723.6</ele>
        <time>2024-07-09T06:29:20Z</time>
      </trkpt>
      <trkpt lat="43.92234" lon="7.40744">
        <ele>723.6</ele>
        <time>2024-07-09T06:29:21Z</time>
      </trkpt>
      <trkpt lat="43.92236" lon="7.40746">
        <ele>723.6</ele>
        <time>2024-07-09T06:29:22Z</time>
      </trkpt>
      <trkpt lat="43.92237" lon="7.40747">
        <ele>724</ele>
        <time>2024-07-09T06:29:23Z</time>
      </trkpt>
      <trkpt lat="43.92238" lon="7.40748">
        <ele>724.2</ele>
        <time>2024-07-09T06:29:24Z</time>
      </trkpt>
      <trkpt lat="43.9224" lon="7.40749">
        <ele>724.2</ele>
        <time>2024-07-09T06:29:25Z</time>
      </trkpt>
      <trkpt lat="43.92241" lon="7.4075">
        <ele>724.2</ele>
        <time>2024-07-09T06:29:26Z</time>
      </trkpt>
      <trkpt lat="43.92243" lon="7.40751">
        <ele>724.6</ele>
        <time>2024-07-09T06:29:27Z</time>
      </trkpt>
      <trkpt lat="43.92244" lon="7.40751">
        <ele>724.6</ele>
        <time>2024-07-09T06:29:28Z</time>
      </trkpt>
      <trkpt lat="43.92246" lon="7.40752">
        <ele>724.8</ele>
        <time>2024-07-09T06:29:29Z</time>
      </trkpt>
      <trkpt lat="43.92248" lon="7.40752">
        <ele>724.8</ele>
        <time>2024-07-09T06:29:30Z</time>
      </trkpt>
      <trkpt lat="43.92249" lon="7.40753">
        <ele>725.4</ele>
        <time>2024-07-09T06:29:31Z</time>
      </trkpt>
      <trkpt lat="43.92251" lon="7.40754">
        <ele>725.4</ele>
        <time>2024-07-09T06:29:32Z</time>
      </trkpt>
      <trkpt lat="43.92252" lon="7.40755">
        <ele>725.4</ele>
        <time>2024-07-09T06:29:33Z</time>
      </trkpt>
      <trkpt lat="43.92254" lon="7.40757">
        <ele>725.4</ele>
        <time>2024-07-09T06:29:34Z</time>
      </trkpt>
      <trkpt lat="43.92255" lon="7.40758">
        <ele>725.4</ele>
        <time>2024-07-09T06:29:35Z</time>
      </trkpt>
      <trkpt lat="43.92256" lon="7.40759">
        <ele>726</ele>
        <time>2024-07-09T06:29:36Z</time>
      </trkpt>
      <trkpt lat="43.92258" lon="7.40761">
        <ele>726</ele>
        <time>2024-07-09T06:29:37Z</time>
      </trkpt>
      <trkpt lat="43.92259" lon="7.40762">
        <ele>726</ele>
        <time>2024-07-09T06:29:38Z</time>
      </trkpt>
      <trkpt lat="43.9226" lon="7.40764">
        <ele>726</ele>
        <time>2024-07-09T06:29:39Z</time>
      </trkpt>
      <trkpt lat="43.92261" lon="7.40766">
        <ele>726</ele>
        <time>2024-07-09T06:29:40Z</time>
      </trkpt>
      <trkpt lat="43.92261" lon="7.40768">
        <ele>726.8</ele>
        <time>2024-07-09T06:29:41Z</time>
      </trkpt>
      <trkpt lat="43.92262" lon="7.4077">
        <ele>726.8</ele>
        <time>2024-07-09T06:29:42Z</time>
      </trkpt>
      <trkpt lat="43.92263" lon="7.40772">
        <ele>726.8</ele>
        <time>2024-07-09T06:29:43Z</time>
      </trkpt>
      <trkpt lat="43.92263" lon="7.40775">
        <ele>726.8</ele>
        <time>2024-07-09T06:29:44Z</time>
      </trkpt>
      <trkpt lat="43.92264" lon="7.40777">
        <ele>726.8</ele>
        <time>2024-07-09T06:29:45Z</time>
      </trkpt>
      <trkpt lat="43.92264" lon="7.4078">
        <ele>727.2</ele>
        <time>2024-07-09T06:29:46Z</time>
      </trkpt>
      <trkpt lat="43.92265" lon="7.40782">
        <ele>727.4</ele>
        <time>2024-07-09T06:29:47Z</time>
      </trkpt>
      <trkpt lat="43.92266" lon="7.40784">
        <ele>727.4</ele>
        <time>2024-07-09T06:29:48Z</time>
      </trkpt>
      <trkpt lat="43.92266" lon="7.40786">
        <ele>727.4</ele>
        <time>2024-07-09T06:29:49Z</time>
      </trkpt>
      <trkpt lat="43.92267" lon="7.40789">
        <ele>728</ele>
        <time>2024-07-09T06:29:50Z</time>
      </trkpt>
      <trkpt lat="43.92267" lon="7.40791">
        <ele>728.2</ele>
        <time>2024-07-09T06:29:51Z</time>
      </trkpt>
      <trkpt lat="43.92267" lon="7.40793">
        <ele>728.2</ele>
        <time>2024-07-09T06:29:52Z</time>
      </trkpt>
      <trkpt lat="43.92267" lon="7.40796">
        <ele>728.2</ele>
        <time>2024-07-09T06:29:53Z</time>
      </trkpt>
      <trkpt lat="43.92266" lon="7.40798">
        <ele>728.2</ele>
        <time>2024-07-09T06:29:54Z</time>
      </trkpt>
      <trkpt lat="43.92266" lon="7.408">
        <ele>728.2</ele>
        <time>2024-07-09T06:29:55Z</time>
      </trkpt>
      <trkpt lat="43.92267" lon="7.40803">
        <ele>728.6</ele>
        <time>2024-07-09T06:29:56Z</time>
      </trkpt>
      <trkpt lat="43.92266" lon="7.40805">
        <ele>728.6</ele>
        <time>2024-07-09T06:29:57Z</time>
      </trkpt>
      <trkpt lat="43.92266" lon="7.40808">
        <ele>728.6</ele>
        <time>2024-07-09T06:29:58Z</time>
      </trkpt>
      <trkpt lat="43.92265" lon="7.40809">
        <ele>729.2</ele>
        <time>2024-07-09T06:29:59Z</time>
      </trkpt>
      <trkpt lat="43.92265" lon="7.40813">
        <ele>729.4</ele>
        <time>2024-07-09T06:30:00Z</time>
      </trkpt>
      <trkpt lat="43.92265" lon="7.40815">
        <ele>729.4</ele>
        <time>2024-07-09T06:30:01Z</time>
      </trkpt>
      <trkpt lat="43.92264" lon="7.40817">
        <ele>729.4</ele>
        <time>2024-07-09T06:30:02Z</time>
      </trkpt>
      <trkpt lat="43.92264" lon="7.40821">
        <ele>730</ele>
        <time>2024-07-09T06:30:03Z</time>
      </trkpt>
      <trkpt lat="43.92263" lon="7.40823">
        <ele>730.2</ele>
        <time>2024-07-09T06:30:04Z</time>
      </trkpt>
      <trkpt lat="43.92262" lon="7.40826">
        <ele>730.2</ele>
        <time>2024-07-09T06:30:05Z</time>
      </trkpt>
      <trkpt lat="43.92262" lon="7.40829">
        <ele>730.2</ele>
        <time>2024-07-09T06:30:06Z</time>
      </trkpt>
      <trkpt lat="43.92261" lon="7.40831">
        <ele>730.2</ele>
        <time>2024-07-09T06:30:07Z</time>
      </trkpt>
      <trkpt lat="43.92261" lon="7.40834">
        <ele>730.6</ele>
        <time>2024-07-09T06:30:08Z</time>
      </trkpt>
      <trkpt lat="43.9226" lon="7.40835">
        <ele>730.8</ele>
        <time>2024-07-09T06:30:09Z</time>
      </trkpt>
      <trkpt lat="43.92258" lon="7.40836">
        <ele>730.8</ele>
        <time>2024-07-09T06:30:10Z</time>
      </trkpt>
      <trkpt lat="43.92257" lon="7.40838">
        <ele>730.8</ele>
        <time>2024-07-09T06:30:11Z</time>
      </trkpt>
      <trkpt lat="43.92255" lon="7.4084">
        <ele>731.4</ele>
        <time>2024-07-09T06:30:12Z</time>
      </trkpt>
      <trkpt lat="43.92254" lon="7.40842">
        <ele>731.4</ele>
        <time>2024-07-09T06:30:13Z</time>
      </trkpt>
      <trkpt lat="43.92253" lon="7.40843">
        <ele>731.4</ele>
        <time>2024-07-09T06:30:14Z</time>
      </trkpt>
      <trkpt lat="43.92252" lon="7.40845">
        <ele>731.4</ele>
        <time>2024-07-09T06:30:15Z</time>
      </trkpt>
      <trkpt lat="43.92251" lon="7.40847">
        <ele>732.2</ele>
        <time>2024-07-09T06:30:16Z</time>
      </trkpt>
      <trkpt lat="43.92251" lon="7.40849">
        <ele>732.2</ele>
        <time>2024-07-09T06:30:17Z</time>
      </trkpt>
      <trkpt lat="43.9225" lon="7.40852">
        <ele>732.2</ele>
        <time>2024-07-09T06:30:18Z</time>
      </trkpt>
      <trkpt lat="43.92249" lon="7.40854">
        <ele>732.2</ele>
        <time>2024-07-09T06:30:19Z</time>
      </trkpt>
      <trkpt lat="43.92248" lon="7.40856">
        <ele>732.2</ele>
        <time>2024-07-09T06:30:20Z</time>
      </trkpt>
      <trkpt lat="43.92248" lon="7.40858">
        <ele>732.8</ele>
        <time>2024-07-09T06:30:21Z</time>
      </trkpt>
      <trkpt lat="43.92248" lon="7.40861">
        <ele>733</ele>
        <time>2024-07-09T06:30:22Z</time>
      </trkpt>
      <trkpt lat="43.92248" lon="7.40863">
        <ele>733</ele>
        <time>2024-07-09T06:30:23Z</time>
      </trkpt>
      <trkpt lat="43.92248" lon="7.40865">
        <ele>733</ele>
        <time>2024-07-09T06:30:24Z</time>
      </trkpt>
      <trkpt lat="43.92249" lon="7.40867">
        <ele>733.6</ele>
        <time>2024-07-09T06:30:25Z</time>
      </trkpt>
      <trkpt lat="43.92249" lon="7.4087">
        <ele>733.6</ele>
        <time>2024-07-09T06:30:26Z</time>
      </trkpt>
      <trkpt lat="43.9225" lon="7.40872">
        <ele>733.6</ele>
        <time>2024-07-09T06:30:27Z</time>
      </trkpt>
      <trkpt lat="43.9225" lon="7.40874">
        <ele>733.8</ele>
        <time>2024-07-09T06:30:28Z</time>
      </trkpt>
      <trkpt lat="43.92251" lon="7.40877">
        <ele>733.8</ele>
        <time>2024-07-09T06:30:29Z</time>
      </trkpt>
      <trkpt lat="43.92251" lon="7.40879">
        <ele>733.8</ele>
        <time>2024-07-09T06:30:30Z</time>
      </trkpt>
      <trkpt lat="43.92252" lon="7.40881">
        <ele>734.4</ele>
        <time>2024-07-09T06:30:31Z</time>
      </trkpt>
      <trkpt lat="43.92253" lon="7.40883">
        <ele>734.4</ele>
        <time>2024-07-09T06:30:32Z</time>
      </trkpt>
      <trkpt lat="43.92253" lon="7.40885">
        <ele>734.4</ele>
        <time>2024-07-09T06:30:33Z</time>
      </trkpt>
      <trkpt lat="43.92254" lon="7.40887">
        <ele>734.4</ele>
        <time>2024-07-09T06:30:34Z</time>
      </trkpt>
      <trkpt lat="43.92255" lon="7.40889">
        <ele>734.8</ele>
        <time>2024-07-09T06:30:35Z</time>
      </trkpt>
      <trkpt lat="43.92255" lon="7.40891">
        <ele>735</ele>
        <time>2024-07-09T06:30:36Z</time>
      </trkpt>
      <trkpt lat="43.92256" lon="7.40893">
        <ele>735</ele>
        <time>2024-07-09T06:30:37Z</time>
      </trkpt>
      <trkpt lat="43.92256" lon="7.40895">
        <ele>735</ele>
        <time>2024-07-09T06:30:38Z</time>
      </trkpt>
      <trkpt lat="43.92257" lon="7.40897">
        <ele>735</ele>
        <time>2024-07-09T06:30:39Z</time>
      </trkpt>
      <trkpt lat="43.92257" lon="7.40899">
        <ele>735.4</ele>
        <time>2024-07-09T06:30:40Z</time>
      </trkpt>
      <trkpt lat="43.92258" lon="7.40901">
        <ele>735.6</ele>
        <time>2024-07-09T06:30:41Z</time>
      </trkpt>
      <trkpt lat="43.92258" lon="7.40903">
        <ele>735.6</ele>
        <time>2024-07-09T06:30:42Z</time>
      </trkpt>
      <trkpt lat="43.92258" lon="7.40906">
        <ele>735.6</ele>
        <time>2024-07-09T06:30:43Z</time>
      </trkpt>
      <trkpt lat="43.92259" lon="7.40908">
        <ele>736.2</ele>
        <time>2024-07-09T06:30:44Z</time>
      </trkpt>
      <trkpt lat="43.9226" lon="7.4091">
        <ele>736.4</ele>
        <time>2024-07-09T06:30:45Z</time>
      </trkpt>
      <trkpt lat="43.9226" lon="7.40912">
        <ele>736.4</ele>
        <time>2024-07-09T06:30:46Z</time>
      </trkpt>
      <trkpt lat="43.92261" lon="7.40914">
        <ele>736.4</ele>
        <time>2024-07-09T06:30:47Z</time>
      </trkpt>
      <trkpt lat="43.92262" lon="7.40916">
        <ele>736.8</ele>
        <time>2024-07-09T06:30:48Z</time>
      </trkpt>
      <trkpt lat="43.92263" lon="7.40918">
        <ele>737</ele>
        <time>2024-07-09T06:30:49Z</time>
      </trkpt>
      <trkpt lat="43.92264" lon="7.4092">
        <ele>737</ele>
        <time>2024-07-09T06:30:50Z</time>
      </trkpt>
      <trkpt lat="43.92265" lon="7.40922">
        <ele>737</ele>
        <time>2024-07-09T06:30:51Z</time>
      </trkpt>
      <trkpt lat="43.92266" lon="7.40923">
        <ele>737</ele>
        <time>2024-07-09T06:30:52Z</time>
      </trkpt>
      <trkpt lat="43.92267" lon="7.40925">
        <ele>737.4</ele>
        <time>2024-07-09T06:30:53Z</time>
      </trkpt>
      <trkpt lat="43.92268" lon="7.40927">
        <ele>737.6</ele>
        <time>2024-07-09T06:30:54Z</time>
      </trkpt>
      <trkpt lat="43.92268" lon="7.40929">
        <ele>737.6</ele>
        <time>2024-07-09T06:30:55Z</time>
      </trkpt>
      <trkpt lat="43.92269" lon="7.4093">
        <ele>737.6</ele>
        <time>2024-07-09T06:30:56Z</time>
      </trkpt>
      <trkpt lat="43.92271" lon="7.40932">
        <ele>737.6</ele>
        <time>2024-07-09T06:30:57Z</time>
      </trkpt>
      <trkpt lat="43.92272" lon="7.40934">
        <ele>738.2</ele>
        <time>2024-07-09T06:30:58Z</time>
      </trkpt>
      <trkpt lat="43.92273" lon="7.40936">
        <ele>738.2</ele>
        <time>2024-07-09T06:30:59Z</time>
      </trkpt>
      <trkpt lat="43.92274" lon="7.40937">
        <ele>738.2</ele>
        <time>2024-07-09T06:31:00Z</time>
      </trkpt>
      <trkpt lat="43.92275" lon="7.40939">
        <ele>738.2</ele>
        <time>2024-07-09T06:31:01Z</time>
      </trkpt>
      <trkpt lat="43.92276" lon="7.40941">
        <ele>738.6</ele>
        <time>2024-07-09T06:31:02Z</time>
      </trkpt>
      <trkpt lat="43.92277" lon="7.40943">
        <ele>738.6</ele>
        <time>2024-07-09T06:31:03Z</time>
      </trkpt>
      <trkpt lat="43.92278" lon="7.40944">
        <ele>738.6</ele>
        <time>2024-07-09T06:31:04Z</time>
      </trkpt>
      <trkpt lat="43.92279" lon="7.40946">
        <ele>738.6</ele>
        <time>2024-07-09T06:31:05Z</time>
      </trkpt>
      <trkpt lat="43.9228" lon="7.40948">
        <ele>739.2</ele>
        <time>2024-07-09T06:31:06Z</time>
      </trkpt>
      <trkpt lat="43.92281" lon="7.4095">
        <ele>739.4</ele>
        <time>2024-07-09T06:31:07Z</time>
      </trkpt>
      <trkpt lat="43.92282" lon="7.40951">
        <ele>739.4</ele>
        <time>2024-07-09T06:31:08Z</time>
      </trkpt>
      <trkpt lat="43.92283" lon="7.40952">
        <ele>739.4</ele>
        <time>2024-07-09T06:31:09Z</time>
      </trkpt>
      <trkpt lat="43.92284" lon="7.40954">
        <ele>739.4</ele>
        <time>2024-07-09T06:31:10Z</time>
      </trkpt>
      <trkpt lat="43.92285" lon="7.40956">
        <ele>739.8</ele>
        <time>2024-07-09T06:31:11Z</time>
      </trkpt>
      <trkpt lat="43.92286" lon="7.40957">
        <ele>739.8</ele>
        <time>2024-07-09T06:31:12Z</time>
      </trkpt>
      <trkpt lat="43.92287" lon="7.40959">
        <ele>740</ele>
        <time>2024-07-09T06:31:13Z</time>
      </trkpt>
      <trkpt lat="43.92288" lon="7.40961">
        <ele>740</ele>
        <time>2024-07-09T06:31:14Z</time>
      </trkpt>
      <trkpt lat="43.92289" lon="7.40963">
        <ele>740</ele>
        <time>2024-07-09T06:31:15Z</time>
      </trkpt>
      <trkpt lat="43.9229" lon="7.40965">
        <ele>740.6</ele>
        <time>2024-07-09T06:31:16Z</time>
      </trkpt>
      <trkpt lat="43.9229" lon="7.40967">
        <ele>740.8</ele>
        <time>2024-07-09T06:31:17Z</time>
      </trkpt>
      <trkpt lat="43.9229" lon="7.40969">
        <ele>740.8</ele>
        <time>2024-07-09T06:31:18Z</time>
      </trkpt>
      <trkpt lat="43.92291" lon="7.40971">
        <ele>740.8</ele>
        <time>2024-07-09T06:31:19Z</time>
      </trkpt>
      <trkpt lat="43.92291" lon="7.40974">
        <ele>741.2</ele>
        <time>2024-07-09T06:31:20Z</time>
      </trkpt>
      <trkpt lat="43.92291" lon="7.40976">
        <ele>741.2</ele>
        <time>2024-07-09T06:31:21Z</time>
      </trkpt>
      <trkpt lat="43.92291" lon="7.40979">
        <ele>741.4</ele>
        <time>2024-07-09T06:31:22Z</time>
      </trkpt>
      <trkpt lat="43.92291" lon="7.40981">
        <ele>741.4</ele>
        <time>2024-07-09T06:31:23Z</time>
      </trkpt>
      <trkpt lat="43.9229" lon="7.40984">
        <ele>741.4</ele>
        <time>2024-07-09T06:31:24Z</time>
      </trkpt>
      <trkpt lat="43.92291" lon="7.40986">
        <ele>742</ele>
        <time>2024-07-09T06:31:25Z</time>
      </trkpt>
      <trkpt lat="43.9229" lon="7.40989">
        <ele>742.2</ele>
        <time>2024-07-09T06:31:26Z</time>
      </trkpt>
      <trkpt lat="43.9229" lon="7.40991">
        <ele>742.2</ele>
        <time>2024-07-09T06:31:27Z</time>
      </trkpt>
      <trkpt lat="43.92289" lon="7.40993">
        <ele>742.2</ele>
        <time>2024-07-09T06:31:28Z</time>
      </trkpt>
      <trkpt lat="43.92289" lon="7.40996">
        <ele>742.8</ele>
        <time>2024-07-09T06:31:29Z</time>
      </trkpt>
      <trkpt lat="43.92289" lon="7.40998">
        <ele>743</ele>
        <time>2024-07-09T06:31:30Z</time>
      </trkpt>
      <trkpt lat="43.92288" lon="7.41">
        <ele>743</ele>
        <time>2024-07-09T06:31:31Z</time>
      </trkpt>
      <trkpt lat="43.92287" lon="7.41003">
        <ele>743</ele>
        <time>2024-07-09T06:31:32Z</time>
      </trkpt>
      <trkpt lat="43.92287" lon="7.41005">
        <ele>743</ele>
        <time>2024-07-09T06:31:33Z</time>
      </trkpt>
      <trkpt lat="43.92286" lon="7.41008">
        <ele>743.4</ele>
        <time>2024-07-09T06:31:34Z</time>
      </trkpt>
      <trkpt lat="43.92285" lon="7.4101">
        <ele>743.6</ele>
        <time>2024-07-09T06:31:35Z</time>
      </trkpt>
      <trkpt lat="43.92284" lon="7.41012">
        <ele>743.6</ele>
        <time>2024-07-09T06:31:36Z</time>
      </trkpt>
      <trkpt lat="43.92284" lon="7.41014">
        <ele>743.6</ele>
        <time>2024-07-09T06:31:37Z</time>
      </trkpt>
      <trkpt lat="43.92283" lon="7.41016">
        <ele>744</ele>
        <time>2024-07-09T06:31:38Z</time>
      </trkpt>
      <trkpt lat="43.92282" lon="7.41018">
        <ele>744.2</ele>
        <time>2024-07-09T06:31:39Z</time>
      </trkpt>
      <trkpt lat="43.92282" lon="7.4102">
        <ele>744.2</ele>
        <time>2024-07-09T06:31:40Z</time>
      </trkpt>
      <trkpt lat="43.92281" lon="7.41022">
        <ele>744.2</ele>
        <time>2024-07-09T06:31:41Z</time>
      </trkpt>
      <trkpt lat="43.9228" lon="7.41024">
        <ele>744.6</ele>
        <time>2024-07-09T06:31:42Z</time>
      </trkpt>
      <trkpt lat="43.9228" lon="7.41026">
        <ele>744.6</ele>
        <time>2024-07-09T06:31:43Z</time>
      </trkpt>
      <trkpt lat="43.92279" lon="7.41028">
        <ele>744.8</ele>
        <time>2024-07-09T06:31:44Z</time>
      </trkpt>
      <trkpt lat="43.92279" lon="7.4103">
        <ele>744.8</ele>
        <time>2024-07-09T06:31:45Z</time>
      </trkpt>
      <trkpt lat="43.92278" lon="7.41032">
        <ele>744.8</ele>
        <time>2024-07-09T06:31:46Z</time>
      </trkpt>
      <trkpt lat="43.92277" lon="7.41034">
        <ele>745.2</ele>
        <time>2024-07-09T06:31:47Z</time>
      </trkpt>
      <trkpt lat="43.92277" lon="7.41036">
        <ele>745.4</ele>
        <time>2024-07-09T06:31:48Z</time>
      </trkpt>
      <trkpt lat="43.92276" lon="7.41037">
        <ele>745.4</ele>
        <time>2024-07-09T06:31:49Z</time>
      </trkpt>
      <trkpt lat="43.92276" lon="7.41037">
        <ele>745.4</ele>
        <time>2024-07-09T06:31:50Z</time>
      </trkpt>
      <trkpt lat="43.92274" lon="7.41045">
        <ele>745.6</ele>
        <time>2024-07-09T06:32:24Z</time>
      </trkpt>
      <trkpt lat="43.92274" lon="7.41048">
        <ele>745.6</ele>
        <time>2024-07-09T06:32:25Z</time>
      </trkpt>
      <trkpt lat="43.92274" lon="7.4105">
        <ele>745.6</ele>
        <time>2024-07-09T06:32:26Z</time>
      </trkpt>
      <trkpt lat="43.92273" lon="7.41052">
        <ele>746.2</ele>
        <time>2024-07-09T06:32:27Z</time>
      </trkpt>
      <trkpt lat="43.92273" lon="7.41054">
        <ele>746.2</ele>
        <time>2024-07-09T06:32:28Z</time>
      </trkpt>
      <trkpt lat="43.92272" lon="7.41056">
        <ele>746.2</ele>
        <time>2024-07-09T06:32:29Z</time>
      </trkpt>
      <trkpt lat="43.92271" lon="7.41058">
        <ele>746.2</ele>
        <time>2024-07-09T06:32:30Z</time>
      </trkpt>
      <trkpt lat="43.92271" lon="7.4106">
        <ele>746.8</ele>
        <time>2024-07-09T06:32:31Z</time>
      </trkpt>
      <trkpt lat="43.9227" lon="7.41063">
        <ele>746.8</ele>
        <time>2024-07-09T06:32:32Z</time>
      </trkpt>
      <trkpt lat="43.9227" lon="7.41065">
        <ele>747</ele>
        <time>2024-07-09T06:32:33Z</time>
      </trkpt>
      <trkpt lat="43.92269" lon="7.41067">
        <ele>747</ele>
        <time>2024-07-09T06:32:34Z</time>
      </trkpt>
      <trkpt lat="43.92269" lon="7.41069">
        <ele>747</ele>
        <time>2024-07-09T06:32:35Z</time>
      </trkpt>
      <trkpt lat="43.92268" lon="7.41072">
        <ele>747.6</ele>
        <time>2024-07-09T06:32:36Z</time>
      </trkpt>
      <trkpt lat="43.92267" lon="7.41074">
        <ele>747.6</ele>
        <time>2024-07-09T06:32:37Z</time>
      </trkpt>
      <trkpt lat="43.92267" lon="7.41076">
        <ele>747.6</ele>
        <time>2024-07-09T06:32:38Z</time>
      </trkpt>
      <trkpt lat="43.92266" lon="7.41078">
        <ele>747.6</ele>
        <time>2024-07-09T06:32:39Z</time>
      </trkpt>
      <trkpt lat="43.92265" lon="7.4108">
        <ele>748.2</ele>
        <time>2024-07-09T06:32:40Z</time>
      </trkpt>
      <trkpt lat="43.92265" lon="7.41082">
        <ele>748.4</ele>
        <time>2024-07-09T06:32:41Z</time>
      </trkpt>
      <trkpt lat="43.92264" lon="7.41084">
        <ele>748.4</ele>
        <time>2024-07-09T06:32:42Z</time>
      </trkpt>
      <trkpt lat="43.92264" lon="7.41087">
        <ele>748.4</ele>
        <time>2024-07-09T06:32:43Z</time>
      </trkpt>
      <trkpt lat="43.92264" lon="7.41089">
        <ele>748.4</ele>
        <time>2024-07-09T06:32:44Z</time>
      </trkpt>
      <trkpt lat="43.92263" lon="7.41091">
        <ele>748.4</ele>
        <time>2024-07-09T06:32:45Z</time>
      </trkpt>
      <trkpt lat="43.92262" lon="7.41093">
        <ele>749</ele>
        <time>2024-07-09T06:32:46Z</time>
      </trkpt>
      <trkpt lat="43.92262" lon="7.41096">
        <ele>749</ele>
        <time>2024-07-09T06:32:47Z</time>
      </trkpt>
      <trkpt lat="43.92261" lon="7.41098">
        <ele>749</ele>
        <time>2024-07-09T06:32:48Z</time>
      </trkpt>
      <trkpt lat="43.92261" lon="7.41101">
        <ele>749.6</ele>
        <time>2024-07-09T06:32:49Z</time>
      </trkpt>
      <trkpt lat="43.9226" lon="7.41104">
        <ele>749.6</ele>
        <time>2024-07-09T06:32:50Z</time>
      </trkpt>
      <trkpt lat="43.9226" lon="7.41107">
        <ele>749.6</ele>
        <time>2024-07-09T06:32:51Z</time>
      </trkpt>
      <trkpt lat="43.9226" lon="7.4111">
        <ele>749.6</ele>
        <time>2024-07-09T06:32:52Z</time>
      </trkpt>
      <trkpt lat="43.92261" lon="7.41112">
        <ele>749.6</ele>
        <time>2024-07-09T06:32:53Z</time>
      </trkpt>
      <trkpt lat="43.92261" lon="7.41116">
        <ele>750</ele>
        <time>2024-07-09T06:32:54Z</time>
      </trkpt>
      <trkpt lat="43.92261" lon="7.41118">
        <ele>750</ele>
        <time>2024-07-09T06:32:55Z</time>
      </trkpt>
      <trkpt lat="43.92262" lon="7.41121">
        <ele>750</ele>
        <time>2024-07-09T06:32:56Z</time>
      </trkpt>
      <trkpt lat="43.92262" lon="7.41124">
        <ele>750</ele>
        <time>2024-07-09T06:32:57Z</time>
      </trkpt>
      <trkpt lat="43.92262" lon="7.41126">
        <ele>750</ele>
        <time>2024-07-09T06:32:58Z</time>
      </trkpt>
      <trkpt lat="43.92263" lon="7.41129">
        <ele>750.2</ele>
        <time>2024-07-09T06:32:59Z</time>
      </trkpt>
      <trkpt lat="43.92264" lon="7.41131">
        <ele>750.2</ele>
        <time>2024-07-09T06:33:00Z</time>
      </trkpt>
      <trkpt lat="43.92266" lon="7.41133">
        <ele>750.2</ele>
        <time>2024-07-09T06:33:01Z</time>
      </trkpt>
      <trkpt lat="43.92268" lon="7.41136">
        <ele>750.2</ele>
        <time>2024-07-09T06:33:02Z</time>
      </trkpt>
      <trkpt lat="43.92269" lon="7.41138">
        <ele>750.6</ele>
        <time>2024-07-09T06:33:03Z</time>
      </trkpt>
      <trkpt lat="43.92271" lon="7.41139">
        <ele>750.6</ele>
        <time>2024-07-09T06:33:04Z</time>
      </trkpt>
      <trkpt lat="43.92274" lon="7.41141">
        <ele>750.8</ele>
        <time>2024-07-09T06:33:05Z</time>
      </trkpt>
      <trkpt lat="43.92276" lon="7.41141">
        <ele>750.8</ele>
        <time>2024-07-09T06:33:06Z</time>
      </trkpt>
      <trkpt lat="43.92278" lon="7.41142">
        <ele>750.8</ele>
        <time>2024-07-09T06:33:07Z</time>
      </trkpt>
      <trkpt lat="43.92281" lon="7.41142">
        <ele>750.8</ele>
        <time>2024-07-09T06:33:08Z</time>
      </trkpt>
      <trkpt lat="43.92284" lon="7.41142">
        <ele>750.6</ele>
        <time>2024-07-09T06:33:09Z</time>
      </trkpt>
      <trkpt lat="43.92288" lon="7.41142">
        <ele>750.6</ele>
        <time>2024-07-09T06:33:10Z</time>
      </trkpt>
      <trkpt lat="43.92291" lon="7.41141">
        <ele>750.6</ele>
        <time>2024-07-09T06:33:11Z</time>
      </trkpt>
      <trkpt lat="43.92294" lon="7.4114">
        <ele>750.6</ele>
        <time>2024-07-09T06:33:12Z</time>
      </trkpt>
      <trkpt lat="43.92298" lon="7.4114">
        <ele>750.6</ele>
        <time>2024-07-09T06:33:13Z</time>
      </trkpt>
      <trkpt lat="43.92301" lon="7.41139">
        <ele>750.6</ele>
        <time>2024-07-09T06:33:14Z</time>
      </trkpt>
      <trkpt lat="43.92305" lon="7.41138">
        <ele>750.6</ele>
        <time>2024-07-09T06:33:15Z</time>
      </trkpt>
      <trkpt lat="43.92309" lon="7.41137">
        <ele>750.4</ele>
        <time>2024-07-09T06:33:16Z</time>
      </trkpt>
      <trkpt lat="43.92312" lon="7.41137">
        <ele>750.4</ele>
        <time>2024-07-09T06:33:17Z</time>
      </trkpt>
      <trkpt lat="43.92316" lon="7.41137">
        <ele>750.4</ele>
        <time>2024-07-09T06:33:18Z</time>
      </trkpt>
      <trkpt lat="43.92319" lon="7.41138">
        <ele>750.4</ele>
        <time>2024-07-09T06:33:19Z</time>
      </trkpt>
      <trkpt lat="43.92322" lon="7.41138">
        <ele>750.4</ele>
        <time>2024-07-09T06:33:20Z</time>
      </trkpt>
      <trkpt lat="43.92326" lon="7.41138">
        <ele>750.2</ele>
        <time>2024-07-09T06:33:21Z</time>
      </trkpt>
      <trkpt lat="43.92328" lon="7.41138">
        <ele>750.2</ele>
        <time>2024-07-09T06:33:22Z</time>
      </trkpt>
      <trkpt lat="43.92329" lon="7.41139">
        <ele>750.2</ele>
        <time>2024-07-09T06:33:23Z</time>
      </trkpt>
      <trkpt lat="43.92332" lon="7.41138">
        <ele>749.4</ele>
        <time>2024-07-09T06:34:36Z</time>
      </trkpt>
      <trkpt lat="43.92334" lon="7.41138">
        <ele>749.4</ele>
        <time>2024-07-09T06:34:37Z</time>
      </trkpt>
      <trkpt lat="43.92336" lon="7.41138">
        <ele>749.8</ele>
        <time>2024-07-09T06:34:38Z</time>
      </trkpt>
      <trkpt lat="43.92339" lon="7.41138">
        <ele>749.8</ele>
        <time>2024-07-09T06:34:39Z</time>
      </trkpt>
      <trkpt lat="43.92342" lon="7.41138">
        <ele>749.8</ele>
        <time>2024-07-09T06:34:40Z</time>
      </trkpt>
      <trkpt lat="43.92345" lon="7.41138">
        <ele>749.8</ele>
        <time>2024-07-09T06:34:41Z</time>
      </trkpt>
      <trkpt lat="43.92348" lon="7.41139">
        <ele>749.8</ele>
        <time>2024-07-09T06:34:42Z</time>
      </trkpt>
      <trkpt lat="43.92351" lon="7.41139">
        <ele>749.6</ele>
        <time>2024-07-09T06:34:43Z</time>
      </trkpt>
      <trkpt lat="43.92355" lon="7.41139">
        <ele>749.6</ele>
        <time>2024-07-09T06:34:44Z</time>
      </trkpt>
      <trkpt lat="43.92358" lon="7.4114">
        <ele>749.6</ele>
        <time>2024-07-09T06:34:45Z</time>
      </trkpt>
      <trkpt lat="43.92361" lon="7.41141">
        <ele>749.6</ele>
        <time>2024-07-09T06:34:46Z</time>
      </trkpt>
      <trkpt lat="43.92365" lon="7.41142">
        <ele>750</ele>
        <time>2024-07-09T06:34:47Z</time>
      </trkpt>
      <trkpt lat="43.92369" lon="7.41142">
        <ele>750</ele>
        <time>2024-07-09T06:34:48Z</time>
      </trkpt>
      <trkpt lat="43.92373" lon="7.41143">
        <ele>750</ele>
        <time>2024-07-09T06:34:49Z</time>
      </trkpt>
      <trkpt lat="43.92377" lon="7.41143">
        <ele>750</ele>
        <time>2024-07-09T06:34:50Z</time>
      </trkpt>
      <trkpt lat="43.9238" lon="7.41145">
        <ele>750</ele>
        <time>2024-07-09T06:34:51Z</time>
      </trkpt>
      <trkpt lat="43.92384" lon="7.41146">
        <ele>750.2</ele>
        <time>2024-07-09T06:34:52Z</time>
      </trkpt>
      <trkpt lat="43.92388" lon="7.41147">
        <ele>750.2</ele>
        <time>2024-07-09T06:34:53Z</time>
      </trkpt>
      <trkpt lat="43.92392" lon="7.41149">
        <ele>750.2</ele>
        <time>2024-07-09T06:34:54Z</time>
      </trkpt>
      <trkpt lat="43.92395" lon="7.41152">
        <ele>750.2</ele>
        <time>2024-07-09T06:34:55Z</time>
      </trkpt>
      <trkpt lat="43.92399" lon="7.41154">
        <ele>750.6</ele>
        <time>2024-07-09T06:34:56Z</time>
      </trkpt>
      <trkpt lat="43.92403" lon="7.41156">
        <ele>750.4</ele>
        <time>2024-07-09T06:34:57Z</time>
      </trkpt>
      <trkpt lat="43.92406" lon="7.41159">
        <ele>750.4</ele>
        <time>2024-07-09T06:34:58Z</time>
      </trkpt>
      <trkpt lat="43.9241" lon="7.41161">
        <ele>750.4</ele>
        <time>2024-07-09T06:34:59Z</time>
      </trkpt>
      <trkpt lat="43.92413" lon="7.41164">
        <ele>750.8</ele>
        <time>2024-07-09T06:35:00Z</time>
      </trkpt>
      <trkpt lat="43.92417" lon="7.41167">
        <ele>750.8</ele>
        <time>2024-07-09T06:35:01Z</time>
      </trkpt>
      <trkpt lat="43.9242" lon="7.4117">
        <ele>750.8</ele>
        <time>2024-07-09T06:35:02Z</time>
      </trkpt>
      <trkpt lat="43.92423" lon="7.41174">
        <ele>750.8</ele>
        <time>2024-07-09T06:35:03Z</time>
      </trkpt>
      <trkpt lat="43.92427" lon="7.41176">
        <ele>750.8</ele>
        <time>2024-07-09T06:35:04Z</time>
      </trkpt>
      <trkpt lat="43.9243" lon="7.4118">
        <ele>751</ele>
        <time>2024-07-09T06:35:05Z</time>
      </trkpt>
      <trkpt lat="43.92433" lon="7.41185">
        <ele>751</ele>
        <time>2024-07-09T06:35:06Z</time>
      </trkpt>
      <trkpt lat="43.92436" lon="7.41189">
        <ele>751</ele>
        <time>2024-07-09T06:35:07Z</time>
      </trkpt>
      <trkpt lat="43.92439" lon="7.41192">
        <ele>751</ele>
        <time>2024-07-09T06:35:08Z</time>
      </trkpt>
      <trkpt lat="43.92443" lon="7.41196">
        <ele>751</ele>
        <time>2024-07-09T06:35:09Z</time>
      </trkpt>
      <trkpt lat="43.92445" lon="7.41199">
        <ele>751</ele>
        <time>2024-07-09T06:35:10Z</time>
      </trkpt>
      <trkpt lat="43.92449" lon="7.41202">
        <ele>751</ele>
        <time>2024-07-09T06:35:11Z</time>
      </trkpt>
      <trkpt lat="43.92453" lon="7.41205">
        <ele>751</ele>
        <time>2024-07-09T06:35:12Z</time>
      </trkpt>
      <trkpt lat="43.92457" lon="7.41207">
        <ele>751.2</ele>
        <time>2024-07-09T06:35:13Z</time>
      </trkpt>
      <trkpt lat="43.92461" lon="7.41208">
        <ele>751.6</ele>
        <time>2024-07-09T06:35:14Z</time>
      </trkpt>
      <trkpt lat="43.92465" lon="7.41208">
        <ele>751.6</ele>
        <time>2024-07-09T06:35:15Z</time>
      </trkpt>
      <trkpt lat="43.9247" lon="7.41206">
        <ele>751.6</ele>
        <time>2024-07-09T06:35:16Z</time>
      </trkpt>
      <trkpt lat="43.92474" lon="7.41204">
        <ele>751.6</ele>
        <time>2024-07-09T06:35:17Z</time>
      </trkpt>
      <trkpt lat="43.92478" lon="7.41202">
        <ele>751.4</ele>
        <time>2024-07-09T06:35:18Z</time>
      </trkpt>
      <trkpt lat="43.92482" lon="7.41199">
        <ele>751.4</ele>
        <time>2024-07-09T06:35:19Z</time>
      </trkpt>
      <trkpt lat="43.92486" lon="7.41196">
        <ele>751.4</ele>
        <time>2024-07-09T06:35:20Z</time>
      </trkpt>
      <trkpt lat="43.9249" lon="7.41193">
        <ele>751.4</ele>
        <time>2024-07-09T06:35:21Z</time>
      </trkpt>
      <trkpt lat="43.92494" lon="7.4119">
        <ele>751.4</ele>
        <time>2024-07-09T06:35:22Z</time>
      </trkpt>
      <trkpt lat="43.92498" lon="7.41187">
        <ele>751.6</ele>
        <time>2024-07-09T06:35:23Z</time>
      </trkpt>
      <trkpt lat="43.92502" lon="7.41184">
        <ele>751.6</ele>
        <time>2024-07-09T06:35:24Z</time>
      </trkpt>
      <trkpt lat="43.92506" lon="7.41181">
        <ele>751.6</ele>
        <time>2024-07-09T06:35:25Z</time>
      </trkpt>
      <trkpt lat="43.9251" lon="7.41178">
        <ele>751.6</ele>
        <time>2024-07-09T06:35:26Z</time>
      </trkpt>
      <trkpt lat="43.92514" lon="7.41175">
        <ele>751.6</ele>
        <time>2024-07-09T06:35:27Z</time>
      </trkpt>
      <trkpt lat="43.92518" lon="7.41173">
        <ele>751.6</ele>
        <time>2024-07-09T06:35:28Z</time>
      </trkpt>
      <trkpt lat="43.92523" lon="7.4117">
        <ele>751.6</ele>
        <time>2024-07-09T06:35:29Z</time>
      </trkpt>
      <trkpt lat="43.92527" lon="7.41168">
        <ele>751.6</ele>
        <time>2024-07-09T06:35:30Z</time>
      </trkpt>
      <trkpt lat="43.92532" lon="7.41165">
        <ele>751.6</ele>
        <time>2024-07-09T06:35:31Z</time>
      </trkpt>
      <trkpt lat="43.92536" lon="7.41163">
        <ele>751.6</ele>
        <time>2024-07-09T06:35:32Z</time>
      </trkpt>
      <trkpt lat="43.9254" lon="7.4116">
        <ele>751.6</ele>
        <time>2024-07-09T06:35:33Z</time>
      </trkpt>
      <trkpt lat="43.92545" lon="7.41158">
        <ele>751.6</ele>
        <time>2024-07-09T06:35:34Z</time>
      </trkpt>
      <trkpt lat="43.92549" lon="7.41155">
        <ele>751.6</ele>
        <time>2024-07-09T06:35:35Z</time>
      </trkpt>
      <trkpt lat="43.92553" lon="7.41153">
        <ele>751.6</ele>
        <time>2024-07-09T06:35:36Z</time>
      </trkpt>
      <trkpt lat="43.92557" lon="7.4115">
        <ele>751.8</ele>
        <time>2024-07-09T06:35:37Z</time>
      </trkpt>
      <trkpt lat="43.92561" lon="7.41147">
        <ele>751.6</ele>
        <time>2024-07-09T06:35:38Z</time>
      </trkpt>
      <trkpt lat="43.92565" lon="7.41143">
        <ele>751.6</ele>
        <time>2024-07-09T06:35:39Z</time>
      </trkpt>
      <trkpt lat="43.92569" lon="7.4114">
        <ele>751.6</ele>
        <time>2024-07-09T06:35:40Z</time>
      </trkpt>
      <trkpt lat="43.92573" lon="7.41137">
        <ele>751.6</ele>
        <time>2024-07-09T06:35:41Z</time>
      </trkpt>
      <trkpt lat="43.92577" lon="7.41134">
        <ele>752</ele>
        <time>2024-07-09T06:35:42Z</time>
      </trkpt>
      <trkpt lat="43.92581" lon="7.41132">
        <ele>752</ele>
        <time>2024-07-09T06:35:43Z</time>
      </trkpt>
      <trkpt lat="43.92585" lon="7.41131">
        <ele>752</ele>
        <time>2024-07-09T06:35:44Z</time>
      </trkpt>
      <trkpt lat="43.9259" lon="7.41133">
        <ele>752</ele>
        <time>2024-07-09T06:35:45Z</time>
      </trkpt>
      <trkpt lat="43.92594" lon="7.41135">
        <ele>752</ele>
        <time>2024-07-09T06:35:46Z</time>
      </trkpt>
      <trkpt lat="43.92599" lon="7.41138">
        <ele>752.2</ele>
        <time>2024-07-09T06:35:47Z</time>
      </trkpt>
      <trkpt lat="43.92603" lon="7.41141">
        <ele>752.2</ele>
        <time>2024-07-09T06:35:48Z</time>
      </trkpt>
      <trkpt lat="43.92608" lon="7.41145">
        <ele>752.2</ele>
        <time>2024-07-09T06:35:49Z</time>
      </trkpt>
      <trkpt lat="43.92612" lon="7.41148">
        <ele>752.2</ele>
        <time>2024-07-09T06:35:50Z</time>
      </trkpt>
      <trkpt lat="43.92617" lon="7.41152">
        <ele>752.2</ele>
        <time>2024-07-09T06:35:51Z</time>
      </trkpt>
      <trkpt lat="43.92621" lon="7.41156">
        <ele>752.2</ele>
        <time>2024-07-09T06:35:52Z</time>
      </trkpt>
      <trkpt lat="43.92625" lon="7.41159">
        <ele>752.2</ele>
        <time>2024-07-09T06:35:53Z</time>
      </trkpt>
      <trkpt lat="43.92629" lon="7.41162">
        <ele>752.4</ele>
        <time>2024-07-09T06:35:54Z</time>
      </trkpt>
      <trkpt lat="43.92633" lon="7.41165">
        <ele>752.4</ele>
        <time>2024-07-09T06:35:55Z</time>
      </trkpt>
      <trkpt lat="43.92637" lon="7.41168">
        <ele>752.4</ele>
        <time>2024-07-09T06:35:56Z</time>
      </trkpt>
      <trkpt lat="43.92641" lon="7.4117">
        <ele>752.4</ele>
        <time>2024-07-09T06:35:57Z</time>
      </trkpt>
      <trkpt lat="43.92645" lon="7.41173">
        <ele>752.4</ele>
        <time>2024-07-09T06:35:58Z</time>
      </trkpt>
      <trkpt lat="43.92649" lon="7.41175">
        <ele>752.4</ele>
        <time>2024-07-09T06:35:59Z</time>
      </trkpt>
      <trkpt lat="43.92653" lon="7.41178">
        <ele>752.4</ele>
        <time>2024-07-09T06:36:00Z</time>
      </trkpt>
      <trkpt lat="43.92657" lon="7.41181">
        <ele>752.4</ele>
        <time>2024-07-09T06:36:01Z</time>
      </trkpt>
      <trkpt lat="43.92662" lon="7.41184">
        <ele>752.4</ele>
        <time>2024-07-09T06:36:02Z</time>
      </trkpt>
      <trkpt lat="43.92666" lon="7.41187">
        <ele>752.4</ele>
        <time>2024-07-09T06:36:03Z</time>
      </trkpt>
      <trkpt lat="43.9267" lon="7.4119">
        <ele>752.4</ele>
        <time>2024-07-09T06:36:04Z</time>
      </trkpt>
      <trkpt lat="43.92674" lon="7.41194">
        <ele>752.4</ele>
        <time>2024-07-09T06:36:05Z</time>
      </trkpt>
      <trkpt lat="43.92678" lon="7.41197">
        <ele>752.4</ele>
        <time>2024-07-09T06:36:06Z</time>
      </trkpt>
      <trkpt lat="43.92682" lon="7.41202">
        <ele>752.4</ele>
        <time>2024-07-09T06:36:07Z</time>
      </trkpt>
      <trkpt lat="43.92686" lon="7.41207">
        <ele>752.4</ele>
        <time>2024-07-09T06:36:08Z</time>
      </trkpt>
      <trkpt lat="43.92689" lon="7.41212">
        <ele>752.6</ele>
        <time>2024-07-09T06:36:09Z</time>
      </trkpt>
      <trkpt lat="43.92692" lon="7.41217">
        <ele>752.8</ele>
        <time>2024-07-09T06:36:10Z</time>
      </trkpt>
      <trkpt lat="43.92696" lon="7.41222">
        <ele>752.8</ele>
        <time>2024-07-09T06:36:11Z</time>
      </trkpt>
      <trkpt lat="43.92699" lon="7.41227">
        <ele>752.8</ele>
        <time>2024-07-09T06:36:12Z</time>
      </trkpt>
      <trkpt lat="43.92702" lon="7.41232">
        <ele>752.8</ele>
        <time>2024-07-09T06:36:13Z</time>
      </trkpt>
      <trkpt lat="43.92705" lon="7.41237">
        <ele>752.8</ele>
        <time>2024-07-09T06:36:14Z</time>
      </trkpt>
      <trkpt lat="43.92708" lon="7.41242">
        <ele>753</ele>
        <time>2024-07-09T06:36:15Z</time>
      </trkpt>
      <trkpt lat="43.92711" lon="7.41246">
        <ele>753</ele>
        <time>2024-07-09T06:36:16Z</time>
      </trkpt>
      <trkpt lat="43.92715" lon="7.41251">
        <ele>753</ele>
        <time>2024-07-09T06:36:17Z</time>
      </trkpt>
      <trkpt lat="43.92718" lon="7.41256">
        <ele>753</ele>
        <time>2024-07-09T06:36:18Z</time>
      </trkpt>
      <trkpt lat="43.92721" lon="7.4126">
        <ele>753</ele>
        <time>2024-07-09T06:36:19Z</time>
      </trkpt>
      <trkpt lat="43.92723" lon="7.41265">
        <ele>753</ele>
        <time>2024-07-09T06:36:20Z</time>
      </trkpt>
      <trkpt lat="43.92726" lon="7.41269">
        <ele>753</ele>
        <time>2024-07-09T06:36:21Z</time>
      </trkpt>
      <trkpt lat="43.92729" lon="7.41275">
        <ele>753</ele>
        <time>2024-07-09T06:36:22Z</time>
      </trkpt>
      <trkpt lat="43.92731" lon="7.4128">
        <ele>753.2</ele>
        <time>2024-07-09T06:36:23Z</time>
      </trkpt>
      <trkpt lat="43.92733" lon="7.41286">
        <ele>753.2</ele>
        <time>2024-07-09T06:36:24Z</time>
      </trkpt>
      <trkpt lat="43.92736" lon="7.41291">
        <ele>753.2</ele>
        <time>2024-07-09T06:36:25Z</time>
      </trkpt>
      <trkpt lat="43.92738" lon="7.41297">
        <ele>753.2</ele>
        <time>2024-07-09T06:36:26Z</time>
      </trkpt>
      <trkpt lat="43.92739" lon="7.41302">
        <ele>753.4</ele>
        <time>2024-07-09T06:36:27Z</time>
      </trkpt>
      <trkpt lat="43.92741" lon="7.41308">
        <ele>753.4</ele>
        <time>2024-07-09T06:36:28Z</time>
      </trkpt>
      <trkpt lat="43.92742" lon="7.41314">
        <ele>753.4</ele>
        <time>2024-07-09T06:36:29Z</time>
      </trkpt>
      <trkpt lat="43.92743" lon="7.41321">
        <ele>753.4</ele>
        <time>2024-07-09T06:36:30Z</time>
      </trkpt>
      <trkpt lat="43.92745" lon="7.41327">
        <ele>753.6</ele>
        <time>2024-07-09T06:36:31Z</time>
      </trkpt>
      <trkpt lat="43.92746" lon="7.41333">
        <ele>753.4</ele>
        <time>2024-07-09T06:36:32Z</time>
      </trkpt>
      <trkpt lat="43.92747" lon="7.41339">
        <ele>753.4</ele>
        <time>2024-07-09T06:36:33Z</time>
      </trkpt>
      <trkpt lat="43.92748" lon="7.41345">
        <ele>753.4</ele>
        <time>2024-07-09T06:36:34Z</time>
      </trkpt>
      <trkpt lat="43.92749" lon="7.41351">
        <ele>753.6</ele>
        <time>2024-07-09T06:36:35Z</time>
      </trkpt>
      <trkpt lat="43.9275" lon="7.41358">
        <ele>753.8</ele>
        <time>2024-07-09T06:36:36Z</time>
      </trkpt>
      <trkpt lat="43.92751" lon="7.41364">
        <ele>753.8</ele>
        <time>2024-07-09T06:36:37Z</time>
      </trkpt>
      <trkpt lat="43.92752" lon="7.4137">
        <ele>753.8</ele>
        <time>2024-07-09T06:36:38Z</time>
      </trkpt>
      <trkpt lat="43.92753" lon="7.41376">
        <ele>753.8</ele>
        <time>2024-07-09T06:36:39Z</time>
      </trkpt>
      <trkpt lat="43.92754" lon="7.41382">
        <ele>754</ele>
        <time>2024-07-09T06:36:40Z</time>
      </trkpt>
      <trkpt lat="43.92756" lon="7.41387">
        <ele>754</ele>
        <time>2024-07-09T06:36:41Z</time>
      </trkpt>
      <trkpt lat="43.92758" lon="7.41392">
        <ele>754</ele>
        <time>2024-07-09T06:36:42Z</time>
      </trkpt>
      <trkpt lat="43.92761" lon="7.41397">
        <ele>754</ele>
        <time>2024-07-09T06:36:43Z</time>
      </trkpt>
      <trkpt lat="43.92764" lon="7.414">
        <ele>754</ele>
        <time>2024-07-09T06:36:44Z</time>
      </trkpt>
      <trkpt lat="43.92768" lon="7.41403">
        <ele>754</ele>
        <time>2024-07-09T06:36:45Z</time>
      </trkpt>
      <trkpt lat="43.92772" lon="7.41404">
        <ele>754</ele>
        <time>2024-07-09T06:36:46Z</time>
      </trkpt>
      <trkpt lat="43.92777" lon="7.41404">
        <ele>754</ele>
        <time>2024-07-09T06:36:47Z</time>
      </trkpt>
      <trkpt lat="43.92781" lon="7.41403">
        <ele>754</ele>
        <time>2024-07-09T06:36:48Z</time>
      </trkpt>
      <trkpt lat="43.92785" lon="7.41402">
        <ele>754.2</ele>
        <time>2024-07-09T06:36:49Z</time>
      </trkpt>
      <trkpt lat="43.92789" lon="7.414">
        <ele>754.2</ele>
        <time>2024-07-09T06:36:50Z</time>
      </trkpt>
      <trkpt lat="43.92792" lon="7.41397">
        <ele>754.2</ele>
        <time>2024-07-09T06:36:51Z</time>
      </trkpt>
      <trkpt lat="43.92795" lon="7.41392">
        <ele>754.2</ele>
        <time>2024-07-09T06:36:52Z</time>
      </trkpt>
      <trkpt lat="43.92797" lon="7.41386">
        <ele>753.8</ele>
        <time>2024-07-09T06:36:53Z</time>
      </trkpt>
      <trkpt lat="43.92799" lon="7.4138">
        <ele>753.8</ele>
        <time>2024-07-09T06:36:54Z</time>
      </trkpt>
      <trkpt lat="43.92799" lon="7.41373">
        <ele>754</ele>
        <time>2024-07-09T06:36:55Z</time>
      </trkpt>
      <trkpt lat="43.92799" lon="7.41367">
        <ele>754</ele>
        <time>2024-07-09T06:36:56Z</time>
      </trkpt>
      <trkpt lat="43.92799" lon="7.41361">
        <ele>754</ele>
        <time>2024-07-09T06:36:57Z</time>
      </trkpt>
      <trkpt lat="43.92798" lon="7.41355">
        <ele>754</ele>
        <time>2024-07-09T06:36:58Z</time>
      </trkpt>
      <trkpt lat="43.92798" lon="7.41348">
        <ele>754.2</ele>
        <time>2024-07-09T06:36:59Z</time>
      </trkpt>
      <trkpt lat="43.92798" lon="7.41342">
        <ele>754.2</ele>
        <time>2024-07-09T06:37:00Z</time>
      </trkpt>
      <trkpt lat="43.92797" lon="7.41336">
        <ele>754.2</ele>
        <time>2024-07-09T06:37:01Z</time>
      </trkpt>
      <trkpt lat="43.92797" lon="7.4133">
        <ele>754.2</ele>
        <time>2024-07-09T06:37:02Z</time>
      </trkpt>
      <trkpt lat="43.92797" lon="7.41324">
        <ele>754</ele>
        <time>2024-07-09T06:37:03Z</time>
      </trkpt>
      <trkpt lat="43.92797" lon="7.41318">
        <ele>754</ele>
        <time>2024-07-09T06:37:04Z</time>
      </trkpt>
      <trkpt lat="43.92796" lon="7.41312">
        <ele>754</ele>
        <time>2024-07-09T06:37:05Z</time>
      </trkpt>
      <trkpt lat="43.92797" lon="7.41305">
        <ele>754</ele>
        <time>2024-07-09T06:37:06Z</time>
      </trkpt>
      <trkpt lat="43.92797" lon="7.41299">
        <ele>754.4</ele>
        <time>2024-07-09T06:37:07Z</time>
      </trkpt>
      <trkpt lat="43.92798" lon="7.41294">
        <ele>754</ele>
        <time>2024-07-09T06:37:08Z</time>
      </trkpt>
      <trkpt lat="43.92798" lon="7.41288">
        <ele>754</ele>
        <time>2024-07-09T06:37:09Z</time>
      </trkpt>
      <trkpt lat="43.92799" lon="7.41281">
        <ele>754</ele>
        <time>2024-07-09T06:37:10Z</time>
      </trkpt>
      <trkpt lat="43.928" lon="7.41275">
        <ele>754</ele>
        <time>2024-07-09T06:37:11Z</time>
      </trkpt>
      <trkpt lat="43.92802" lon="7.4127">
        <ele>754.2</ele>
        <time>2024-07-09T06:37:12Z</time>
      </trkpt>
      <trkpt lat="43.92803" lon="7.41264">
        <ele>754.2</ele>
        <time>2024-07-09T06:37:13Z</time>
      </trkpt>
      <trkpt lat="43.92804" lon="7.41257">
        <ele>754.2</ele>
        <time>2024-07-09T06:37:14Z</time>
      </trkpt>
      <trkpt lat="43.92806" lon="7.41251">
        <ele>754.2</ele>
        <time>2024-07-09T06:37:15Z</time>
      </trkpt>
      <trkpt lat="43.92808" lon="7.41245">
        <ele>754</ele>
        <time>2024-07-09T06:37:16Z</time>
      </trkpt>
      <trkpt lat="43.92811" lon="7.41239">
        <ele>754</ele>
        <time>2024-07-09T06:37:17Z</time>
      </trkpt>
      <trkpt lat="43.92813" lon="7.41234">
        <ele>754</ele>
        <time>2024-07-09T06:37:18Z</time>
      </trkpt>
      <trkpt lat="43.92816" lon="7.41229">
        <ele>754</ele>
        <time>2024-07-09T06:37:19Z</time>
      </trkpt>
      <trkpt lat="43.92819" lon="7.41223">
        <ele>754.4</ele>
        <time>2024-07-09T06:37:20Z</time>
      </trkpt>
      <trkpt lat="43.92822" lon="7.41217">
        <ele>754.4</ele>
        <time>2024-07-09T06:37:21Z</time>
      </trkpt>
      <trkpt lat="43.92824" lon="7.41212">
        <ele>754.4</ele>
        <time>2024-07-09T06:37:22Z</time>
      </trkpt>
      <trkpt lat="43.92827" lon="7.41207">
        <ele>754.4</ele>
        <time>2024-07-09T06:37:23Z</time>
      </trkpt>
      <trkpt lat="43.9283" lon="7.41202">
        <ele>754.6</ele>
        <time>2024-07-09T06:37:24Z</time>
      </trkpt>
      <trkpt lat="43.92833" lon="7.41197">
        <ele>754.8</ele>
        <time>2024-07-09T06:37:25Z</time>
      </trkpt>
      <trkpt lat="43.92837" lon="7.41194">
        <ele>754.8</ele>
        <time>2024-07-09T06:37:26Z</time>
      </trkpt>
      <trkpt lat="43.9284" lon="7.4119">
        <ele>754.8</ele>
        <time>2024-07-09T06:37:27Z</time>
      </trkpt>
      <trkpt lat="43.92845" lon="7.41187">
        <ele>754.6</ele>
        <time>2024-07-09T06:37:28Z</time>
      </trkpt>
      <trkpt lat="43.92849" lon="7.41186">
        <ele>754.6</ele>
        <time>2024-07-09T06:37:29Z</time>
      </trkpt>
      <trkpt lat="43.92853" lon="7.41184">
        <ele>754.6</ele>
        <time>2024-07-09T06:37:30Z</time>
      </trkpt>
      <trkpt lat="43.92856" lon="7.41182">
        <ele>754.6</ele>
        <time>2024-07-09T06:37:31Z</time>
      </trkpt>
      <trkpt lat="43.9286" lon="7.41179">
        <ele>754.6</ele>
        <time>2024-07-09T06:37:32Z</time>
      </trkpt>
      <trkpt lat="43.92864" lon="7.41177">
        <ele>754.6</ele>
        <time>2024-07-09T06:37:33Z</time>
      </trkpt>
      <trkpt lat="43.92868" lon="7.41175">
        <ele>754.6</ele>
        <time>2024-07-09T06:37:34Z</time>
      </trkpt>
      <trkpt lat="43.92872" lon="7.41173">
        <ele>754.6</ele>
        <time>2024-07-09T06:37:35Z</time>
      </trkpt>
      <trkpt lat="43.92877" lon="7.41171">
        <ele>754.6</ele>
        <time>2024-07-09T06:37:36Z</time>
      </trkpt>
      <trkpt lat="43.92881" lon="7.41169">
        <ele>754.6</ele>
        <time>2024-07-09T06:37:37Z</time>
      </trkpt>
      <trkpt lat="43.92885" lon="7.41166">
        <ele>754.6</ele>
        <time>2024-07-09T06:37:38Z</time>
      </trkpt>
      <trkpt lat="43.92889" lon="7.41164">
        <ele>754.8</ele>
        <time>2024-07-09T06:37:39Z</time>
      </trkpt>
      <trkpt lat="43.92892" lon="7.41162">
        <ele>754.8</ele>
        <time>2024-07-09T06:37:40Z</time>
      </trkpt>
      <trkpt lat="43.92896" lon="7.41159">
        <ele>754.8</ele>
        <time>2024-07-09T06:37:41Z</time>
      </trkpt>
      <trkpt lat="43.92899" lon="7.41155">
        <ele>754.8</ele>
        <time>2024-07-09T06:37:42Z</time>
      </trkpt>
      <trkpt lat="43.92901" lon="7.4115">
        <ele>754.8</ele>
        <time>2024-07-09T06:37:43Z</time>
      </trkpt>
      <trkpt lat="43.92904" lon="7.41145">
        <ele>754.8</ele>
        <time>2024-07-09T06:37:44Z</time>
      </trkpt>
      <trkpt lat="43.92906" lon="7.41139">
        <ele>754.8</ele>
        <time>2024-07-09T06:37:45Z</time>
      </trkpt>
      <trkpt lat="43.92908" lon="7.41134">
        <ele>754.8</ele>
        <time>2024-07-09T06:37:46Z</time>
      </trkpt>
      <trkpt lat="43.92909" lon="7.41129">
        <ele>754.8</ele>
        <time>2024-07-09T06:37:47Z</time>
      </trkpt>
      <trkpt lat="43.92911" lon="7.41123">
        <ele>754.8</ele>
        <time>2024-07-09T06:37:48Z</time>
      </trkpt>
      <trkpt lat="43.92913" lon="7.41118">
        <ele>754.8</ele>
        <time>2024-07-09T06:37:49Z</time>
      </trkpt>
      <trkpt lat="43.92915" lon="7.41112">
        <ele>754.8</ele>
        <time>2024-07-09T06:37:50Z</time>
      </trkpt>
      <trkpt lat="43.92918" lon="7.41107">
        <ele>754.8</ele>
        <time>2024-07-09T06:37:51Z</time>
      </trkpt>
      <trkpt lat="43.9292" lon="7.41102">
        <ele>754.8</ele>
        <time>2024-07-09T06:37:52Z</time>
      </trkpt>
      <trkpt lat="43.92923" lon="7.41096">
        <ele>754.8</ele>
        <time>2024-07-09T06:37:53Z</time>
      </trkpt>
      <trkpt lat="43.92925" lon="7.41091">
        <ele>754.8</ele>
        <time>2024-07-09T06:37:54Z</time>
      </trkpt>
      <trkpt lat="43.92929" lon="7.41086">
        <ele>754.8</ele>
        <time>2024-07-09T06:37:55Z</time>
      </trkpt>
      <trkpt lat="43.92932" lon="7.41081">
        <ele>754.8</ele>
        <time>2024-07-09T06:37:56Z</time>
      </trkpt>
      <trkpt lat="43.92935" lon="7.41076">
        <ele>755.2</ele>
        <time>2024-07-09T06:37:57Z</time>
      </trkpt>
      <trkpt lat="43.92938" lon="7.41071">
        <ele>755.2</ele>
        <time>2024-07-09T06:37:58Z</time>
      </trkpt>
      <trkpt lat="43.92941" lon="7.41066">
        <ele>755.2</ele>
        <time>2024-07-09T06:37:59Z</time>
      </trkpt>
      <trkpt lat="43.92945" lon="7.41062">
        <ele>755.2</ele>
        <time>2024-07-09T06:38:00Z</time>
      </trkpt>
      <trkpt lat="43.92948" lon="7.41057">
        <ele>755.4</ele>
        <time>2024-07-09T06:38:01Z</time>
      </trkpt>
      <trkpt lat="43.92951" lon="7.41052">
        <ele>755.4</ele>
        <time>2024-07-09T06:38:02Z</time>
      </trkpt>
      <trkpt lat="43.92954" lon="7.41046">
        <ele>755.4</ele>
        <time>2024-07-09T06:38:03Z</time>
      </trkpt>
      <trkpt lat="43.92957" lon="7.4104">
        <ele>755.2</ele>
        <time>2024-07-09T06:38:04Z</time>
      </trkpt>
      <trkpt lat="43.9296" lon="7.41035">
        <ele>755</ele>
        <time>2024-07-09T06:38:05Z</time>
      </trkpt>
      <trkpt lat="43.92963" lon="7.4103">
        <ele>755</ele>
        <time>2024-07-09T06:38:06Z</time>
      </trkpt>
      <trkpt lat="43.92966" lon="7.41025">
        <ele>755</ele>
        <time>2024-07-09T06:38:07Z</time>
      </trkpt>
      <trkpt lat="43.92969" lon="7.4102">
        <ele>755</ele>
        <time>2024-07-09T06:38:08Z</time>
      </trkpt>
      <trkpt lat="43.92973" lon="7.41016">
        <ele>754.8</ele>
        <time>2024-07-09T06:38:09Z</time>
      </trkpt>
      <trkpt lat="43.92977" lon="7.41012">
        <ele>754.8</ele>
        <time>2024-07-09T06:38:10Z</time>
      </trkpt>
      <trkpt lat="43.92981" lon="7.41008">
        <ele>754.8</ele>
        <time>2024-07-09T06:38:11Z</time>
      </trkpt>
      <trkpt lat="43.92985" lon="7.41004">
        <ele>754.8</ele>
        <time>2024-07-09T06:38:12Z</time>
      </trkpt>
      <trkpt lat="43.92989" lon="7.41001">
        <ele>754.8</ele>
        <time>2024-07-09T06:38:13Z</time>
      </trkpt>
      <trkpt lat="43.92993" lon="7.40998">
        <ele>755</ele>
        <time>2024-07-09T06:38:14Z</time>
      </trkpt>
      <trkpt lat="43.92997" lon="7.40994">
        <ele>755</ele>
        <time>2024-07-09T06:38:15Z</time>
      </trkpt>
      <trkpt lat="43.93001" lon="7.40991">
        <ele>755</ele>
        <time>2024-07-09T06:38:16Z</time>
      </trkpt>
      <trkpt lat="43.93005" lon="7.40987">
        <ele>755</ele>
        <time>2024-07-09T06:38:17Z</time>
      </trkpt>
      <trkpt lat="43.9301" lon="7.40984">
        <ele>755.2</ele>
        <time>2024-07-09T06:38:18Z</time>
      </trkpt>
      <trkpt lat="43.93014" lon="7.40981">
        <ele>755.4</ele>
        <time>2024-07-09T06:38:19Z</time>
      </trkpt>
      <trkpt lat="43.93018" lon="7.40978">
        <ele>755.4</ele>
        <time>2024-07-09T06:38:20Z</time>
      </trkpt>
      <trkpt lat="43.93022" lon="7.40974">
        <ele>755.4</ele>
        <time>2024-07-09T06:38:21Z</time>
      </trkpt>
      <trkpt lat="43.93026" lon="7.4097">
        <ele>755.4</ele>
        <time>2024-07-09T06:38:22Z</time>
      </trkpt>
      <trkpt lat="43.9303" lon="7.40967">
        <ele>755.6</ele>
        <time>2024-07-09T06:38:23Z</time>
      </trkpt>
      <trkpt lat="43.93033" lon="7.40964">
        <ele>755.6</ele>
        <time>2024-07-09T06:38:24Z</time>
      </trkpt>
      <trkpt lat="43.93036" lon="7.4096">
        <ele>755.6</ele>
        <time>2024-07-09T06:38:25Z</time>
      </trkpt>
      <trkpt lat="43.9304" lon="7.40956">
        <ele>755.6</ele>
        <time>2024-07-09T06:38:26Z</time>
      </trkpt>
      <trkpt lat="43.93043" lon="7.40952">
        <ele>755.6</ele>
        <time>2024-07-09T06:38:27Z</time>
      </trkpt>
      <trkpt lat="43.93046" lon="7.40947">
        <ele>755.4</ele>
        <time>2024-07-09T06:38:28Z</time>
      </trkpt>
      <trkpt lat="43.93049" lon="7.40943">
        <ele>755.4</ele>
        <time>2024-07-09T06:38:29Z</time>
      </trkpt>
      <trkpt lat="43.93052" lon="7.40938">
        <ele>755.4</ele>
        <time>2024-07-09T06:38:30Z</time>
      </trkpt>
      <trkpt lat="43.93055" lon="7.40934">
        <ele>755.4</ele>
        <time>2024-07-09T06:38:31Z</time>
      </trkpt>
      <trkpt lat="43.93059" lon="7.4093">
        <ele>755.8</ele>
        <time>2024-07-09T06:38:32Z</time>
      </trkpt>
      <trkpt lat="43.93062" lon="7.40928">
        <ele>755.8</ele>
        <time>2024-07-09T06:38:33Z</time>
      </trkpt>
      <trkpt lat="43.93067" lon="7.40925">
        <ele>755.8</ele>
        <time>2024-07-09T06:38:34Z</time>
      </trkpt>
      <trkpt lat="43.93071" lon="7.40924">
        <ele>755.6</ele>
        <time>2024-07-09T06:38:35Z</time>
      </trkpt>
      <trkpt lat="43.93075" lon="7.40924">
        <ele>755.6</ele>
        <time>2024-07-09T06:38:36Z</time>
      </trkpt>
      <trkpt lat="43.93079" lon="7.40924">
        <ele>755.8</ele>
        <time>2024-07-09T06:38:37Z</time>
      </trkpt>
      <trkpt lat="43.93084" lon="7.40924">
        <ele>755.8</ele>
        <time>2024-07-09T06:38:38Z</time>
      </trkpt>
      <trkpt lat="43.93088" lon="7.40926">
        <ele>755.8</ele>
        <time>2024-07-09T06:38:39Z</time>
      </trkpt>
      <trkpt lat="43.93092" lon="7.40929">
        <ele>755.8</ele>
        <time>2024-07-09T06:38:40Z</time>
      </trkpt>
      <trkpt lat="43.93096" lon="7.40933">
        <ele>755.8</ele>
        <time>2024-07-09T06:38:41Z</time>
      </trkpt>
      <trkpt lat="43.931" lon="7.40937">
        <ele>755.8</ele>
        <time>2024-07-09T06:38:42Z</time>
      </trkpt>
      <trkpt lat="43.93104" lon="7.40941">
        <ele>755.8</ele>
        <time>2024-07-09T06:38:43Z</time>
      </trkpt>
      <trkpt lat="43.93107" lon="7.40945">
        <ele>755.8</ele>
        <time>2024-07-09T06:38:44Z</time>
      </trkpt>
      <trkpt lat="43.93111" lon="7.40949">
        <ele>756.2</ele>
        <time>2024-07-09T06:38:45Z</time>
      </trkpt>
      <trkpt lat="43.93114" lon="7.40953">
        <ele>756.2</ele>
        <time>2024-07-09T06:38:46Z</time>
      </trkpt>
      <trkpt lat="43.93118" lon="7.40956">
        <ele>756.2</ele>
        <time>2024-07-09T06:38:47Z</time>
      </trkpt>
      <trkpt lat="43.93122" lon="7.40959">
        <ele>756.2</ele>
        <time>2024-07-09T06:38:48Z</time>
      </trkpt>
      <trkpt lat="43.93126" lon="7.40961">
        <ele>756.2</ele>
        <time>2024-07-09T06:38:49Z</time>
      </trkpt>
      <trkpt lat="43.9313" lon="7.40963">
        <ele>756.2</ele>
        <time>2024-07-09T06:38:50Z</time>
      </trkpt>
      <trkpt lat="43.93135" lon="7.40963">
        <ele>756.2</ele>
        <time>2024-07-09T06:38:51Z</time>
      </trkpt>
      <trkpt lat="43.9314" lon="7.40964">
        <ele>756.2</ele>
        <time>2024-07-09T06:38:52Z</time>
      </trkpt>
      <trkpt lat="43.93144" lon="7.40964">
        <ele>756.2</ele>
        <time>2024-07-09T06:38:53Z</time>
      </trkpt>
      <trkpt lat="43.93149" lon="7.40964">
        <ele>756.4</ele>
        <time>2024-07-09T06:38:54Z</time>
      </trkpt>
      <trkpt lat="43.93154" lon="7.40964">
        <ele>756.4</ele>
        <time>2024-07-09T06:38:55Z</time>
      </trkpt>
      <trkpt lat="43.93158" lon="7.40964">
        <ele>756.4</ele>
        <time>2024-07-09T06:38:56Z</time>
      </trkpt>
      <trkpt lat="43.93163" lon="7.40964">
        <ele>756.4</ele>
        <time>2024-07-09T06:38:57Z</time>
      </trkpt>
      <trkpt lat="43.93168" lon="7.40964">
        <ele>756.4</ele>
        <time>2024-07-09T06:38:58Z</time>
      </trkpt>
      <trkpt lat="43.93172" lon="7.40963">
        <ele>756</ele>
        <time>2024-07-09T06:38:59Z</time>
      </trkpt>
      <trkpt lat="43.93177" lon="7.40963">
        <ele>756</ele>
        <time>2024-07-09T06:39:00Z</time>
      </trkpt>
      <trkpt lat="43.93181" lon="7.40962">
        <ele>756</ele>
        <time>2024-07-09T06:39:01Z</time>
      </trkpt>
      <trkpt lat="43.93185" lon="7.40962">
        <ele>756.2</ele>
        <time>2024-07-09T06:39:02Z</time>
      </trkpt>
      <trkpt lat="43.93189" lon="7.40961">
        <ele>756.2</ele>
        <time>2024-07-09T06:39:03Z</time>
      </trkpt>
      <trkpt lat="43.93194" lon="7.40961">
        <ele>756.2</ele>
        <time>2024-07-09T06:39:04Z</time>
      </trkpt>
      <trkpt lat="43.93198" lon="7.4096">
        <ele>756.2</ele>
        <time>2024-07-09T06:39:05Z</time>
      </trkpt>
      <trkpt lat="43.93202" lon="7.40959">
        <ele>756.2</ele>
        <time>2024-07-09T06:39:06Z</time>
      </trkpt>
      <trkpt lat="43.93206" lon="7.40958">
        <ele>756.4</ele>
        <time>2024-07-09T06:39:07Z</time>
      </trkpt>
      <trkpt lat="43.93211" lon="7.40957">
        <ele>756.2</ele>
        <time>2024-07-09T06:39:08Z</time>
      </trkpt>
      <trkpt lat="43.93215" lon="7.40956">
        <ele>756.2</ele>
        <time>2024-07-09T06:39:09Z</time>
      </trkpt>
      <trkpt lat="43.9322" lon="7.40956">
        <ele>756.2</ele>
        <time>2024-07-09T06:39:10Z</time>
      </trkpt>
      <trkpt lat="43.93224" lon="7.40955">
        <ele>756.2</ele>
        <time>2024-07-09T06:39:11Z</time>
      </trkpt>
      <trkpt lat="43.93229" lon="7.40955">
        <ele>756.2</ele>
        <time>2024-07-09T06:39:12Z</time>
      </trkpt>
      <trkpt lat="43.93233" lon="7.40954">
        <ele>756.2</ele>
        <time>2024-07-09T06:39:13Z</time>
      </trkpt>
      <trkpt lat="43.93238" lon="7.40954">
        <ele>756.2</ele>
        <time>2024-07-09T06:39:14Z</time>
      </trkpt>
      <trkpt lat="43.93243" lon="7.40954">
        <ele>756.2</ele>
        <time>2024-07-09T06:39:15Z</time>
      </trkpt>
      <trkpt lat="43.93248" lon="7.40954">
        <ele>756.4</ele>
        <time>2024-07-09T06:39:16Z</time>
      </trkpt>
      <trkpt lat="43.93252" lon="7.40954">
        <ele>756.6</ele>
        <time>2024-07-09T06:39:17Z</time>
      </trkpt>
      <trkpt lat="43.93257" lon="7.40954">
        <ele>756.6</ele>
        <time>2024-07-09T06:39:18Z</time>
      </trkpt>
      <trkpt lat="43.93261" lon="7.40953">
        <ele>756.6</ele>
        <time>2024-07-09T06:39:19Z</time>
      </trkpt>
      <trkpt lat="43.93266" lon="7.40953">
        <ele>756.6</ele>
        <time>2024-07-09T06:39:20Z</time>
      </trkpt>
      <trkpt lat="43.9327" lon="7.40953">
        <ele>756.6</ele>
        <time>2024-07-09T06:39:21Z</time>
      </trkpt>
      <trkpt lat="43.93275" lon="7.40954">
        <ele>756.6</ele>
        <time>2024-07-09T06:39:22Z</time>
      </trkpt>
      <trkpt lat="43.93279" lon="7.40954">
        <ele>756.6</ele>
        <time>2024-07-09T06:39:23Z</time>
      </trkpt>
      <trkpt lat="43.93284" lon="7.40954">
        <ele>756.6</ele>
        <time>2024-07-09T06:39:24Z</time>
      </trkpt>
      <trkpt lat="43.93288" lon="7.40954">
        <ele>756.6</ele>
        <time>2024-07-09T06:39:25Z</time>
      </trkpt>
      <trkpt lat="43.93293" lon="7.40955">
        <ele>756.6</ele>
        <time>2024-07-09T06:39:26Z</time>
      </trkpt>
      <trkpt lat="43.93298" lon="7.40955">
        <ele>756.6</ele>
        <time>2024-07-09T06:39:27Z</time>
      </trkpt>
      <trkpt lat="43.93302" lon="7.40955">
        <ele>756.6</ele>
        <time>2024-07-09T06:39:28Z</time>
      </trkpt>
      <trkpt lat="43.93307" lon="7.40955">
        <ele>756.6</ele>
        <time>2024-07-09T06:39:29Z</time>
      </trkpt>
      <trkpt lat="43.93311" lon="7.40955">
        <ele>756.6</ele>
        <time>2024-07-09T06:39:30Z</time>
      </trkpt>
      <trkpt lat="43.93316" lon="7.40956">
        <ele>756.6</ele>
        <time>2024-07-09T06:39:31Z</time>
      </trkpt>
      <trkpt lat="43.93321" lon="7.40956">
        <ele>756.6</ele>
        <time>2024-07-09T06:39:32Z</time>
      </trkpt>
      <trkpt lat="43.93325" lon="7.40956">
        <ele>756.6</ele>
        <time>2024-07-09T06:39:33Z</time>
      </trkpt>
      <trkpt lat="43.9333" lon="7.40957">
        <ele>756.8</ele>
        <time>2024-07-09T06:39:34Z</time>
      </trkpt>
      <trkpt lat="43.93334" lon="7.40957">
        <ele>756.8</ele>
        <time>2024-07-09T06:39:35Z</time>
      </trkpt>
      <trkpt lat="43.93338" lon="7.40957">
        <ele>756.8</ele>
        <time>2024-07-09T06:39:36Z</time>
      </trkpt>
      <trkpt lat="43.93343" lon="7.40958">
        <ele>756.8</ele>
        <time>2024-07-09T06:39:37Z</time>
      </trkpt>
      <trkpt lat="43.93347" lon="7.40959">
        <ele>756.8</ele>
        <time>2024-07-09T06:39:38Z</time>
      </trkpt>
      <trkpt lat="43.93352" lon="7.4096">
        <ele>756.8</ele>
        <time>2024-07-09T06:39:39Z</time>
      </trkpt>
      <trkpt lat="43.93356" lon="7.4096">
        <ele>757</ele>
        <time>2024-07-09T06:39:40Z</time>
      </trkpt>
      <trkpt lat="43.93361" lon="7.40961">
        <ele>757</ele>
        <time>2024-07-09T06:39:41Z</time>
      </trkpt>
      <trkpt lat="43.93365" lon="7.40961">
        <ele>757</ele>
        <time>2024-07-09T06:39:42Z</time>
      </trkpt>
      <trkpt lat="43.9337" lon="7.40961">
        <ele>757.2</ele>
        <time>2024-07-09T06:39:43Z</time>
      </trkpt>
      <trkpt lat="43.93374" lon="7.40962">
        <ele>757.6</ele>
        <time>2024-07-09T06:39:44Z</time>
      </trkpt>
      <trkpt lat="43.93378" lon="7.40961">
        <ele>757.6</ele>
        <time>2024-07-09T06:39:45Z</time>
      </trkpt>
      <trkpt lat="43.93383" lon="7.40961">
        <ele>757.6</ele>
        <time>2024-07-09T06:39:46Z</time>
      </trkpt>
      <trkpt lat="43.93388" lon="7.40961">
        <ele>757.6</ele>
        <time>2024-07-09T06:39:47Z</time>
      </trkpt>
      <trkpt lat="43.93392" lon="7.40961">
        <ele>757.6</ele>
        <time>2024-07-09T06:39:48Z</time>
      </trkpt>
      <trkpt lat="43.93397" lon="7.4096">
        <ele>757.6</ele>
        <time>2024-07-09T06:39:49Z</time>
      </trkpt>
      <trkpt lat="43.93401" lon="7.40961">
        <ele>757.6</ele>
        <time>2024-07-09T06:39:50Z</time>
      </trkpt>
      <trkpt lat="43.93406" lon="7.40962">
        <ele>757.6</ele>
        <time>2024-07-09T06:39:51Z</time>
      </trkpt>
      <trkpt lat="43.9341" lon="7.40963">
        <ele>757.6</ele>
        <time>2024-07-09T06:39:52Z</time>
      </trkpt>
      <trkpt lat="43.93415" lon="7.40965">
        <ele>757.8</ele>
        <time>2024-07-09T06:39:53Z</time>
      </trkpt>
      <trkpt lat="43.9342" lon="7.40968">
        <ele>757.8</ele>
        <time>2024-07-09T06:39:54Z</time>
      </trkpt>
      <trkpt lat="43.93424" lon="7.4097">
        <ele>757.8</ele>
        <time>2024-07-09T06:39:55Z</time>
      </trkpt>
      <trkpt lat="43.93428" lon="7.40973">
        <ele>757.8</ele>
        <time>2024-07-09T06:39:56Z</time>
      </trkpt>
      <trkpt lat="43.93433" lon="7.40975">
        <ele>758</ele>
        <time>2024-07-09T06:39:57Z</time>
      </trkpt>
      <trkpt lat="43.93437" lon="7.40978">
        <ele>758</ele>
        <time>2024-07-09T06:39:58Z</time>
      </trkpt>
      <trkpt lat="43.93441" lon="7.40981">
        <ele>758</ele>
        <time>2024-07-09T06:39:59Z</time>
      </trkpt>
      <trkpt lat="43.93445" lon="7.40984">
        <ele>758</ele>
        <time>2024-07-09T06:40:00Z</time>
      </trkpt>
      <trkpt lat="43.93449" lon="7.40988">
        <ele>758</ele>
        <time>2024-07-09T06:40:01Z</time>
      </trkpt>
      <trkpt lat="43.93453" lon="7.40991">
        <ele>758</ele>
        <time>2024-07-09T06:40:02Z</time>
      </trkpt>
      <trkpt lat="43.93457" lon="7.40994">
        <ele>758</ele>
        <time>2024-07-09T06:40:03Z</time>
      </trkpt>
      <trkpt lat="43.93461" lon="7.40997">
        <ele>758</ele>
        <time>2024-07-09T06:40:04Z</time>
      </trkpt>
      <trkpt lat="43.93466" lon="7.41">
        <ele>758</ele>
        <time>2024-07-09T06:40:05Z</time>
      </trkpt>
      <trkpt lat="43.93469" lon="7.41003">
        <ele>758.2</ele>
        <time>2024-07-09T06:40:06Z</time>
      </trkpt>
      <trkpt lat="43.93473" lon="7.41006">
        <ele>758.2</ele>
        <time>2024-07-09T06:40:07Z</time>
      </trkpt>
      <trkpt lat="43.93476" lon="7.41009">
        <ele>758.2</ele>
        <time>2024-07-09T06:40:08Z</time>
      </trkpt>
      <trkpt lat="43.93481" lon="7.41011">
        <ele>758.2</ele>
        <time>2024-07-09T06:40:09Z</time>
      </trkpt>
      <trkpt lat="43.93485" lon="7.41014">
        <ele>758.2</ele>
        <time>2024-07-09T06:40:10Z</time>
      </trkpt>
      <trkpt lat="43.93489" lon="7.41016">
        <ele>758.2</ele>
        <time>2024-07-09T06:40:11Z</time>
      </trkpt>
      <trkpt lat="43.93493" lon="7.41018">
        <ele>758.2</ele>
        <time>2024-07-09T06:40:12Z</time>
      </trkpt>
      <trkpt lat="43.93498" lon="7.4102">
        <ele>758.2</ele>
        <time>2024-07-09T06:40:13Z</time>
      </trkpt>
      <trkpt lat="43.93503" lon="7.41021">
        <ele>758.2</ele>
        <time>2024-07-09T06:40:14Z</time>
      </trkpt>
      <trkpt lat="43.93507" lon="7.41023">
        <ele>758.6</ele>
        <time>2024-07-09T06:40:15Z</time>
      </trkpt>
      <trkpt lat="43.93512" lon="7.41025">
        <ele>758.6</ele>
        <time>2024-07-09T06:40:16Z</time>
      </trkpt>
      <trkpt lat="43.93516" lon="7.41026">
        <ele>758.6</ele>
        <time>2024-07-09T06:40:17Z</time>
      </trkpt>
      <trkpt lat="43.93521" lon="7.41028">
        <ele>758.4</ele>
        <time>2024-07-09T06:40:18Z</time>
      </trkpt>
      <trkpt lat="43.93525" lon="7.41029">
        <ele>758.4</ele>
        <time>2024-07-09T06:40:19Z</time>
      </trkpt>
      <trkpt lat="43.9353" lon="7.41031">
        <ele>758.4</ele>
        <time>2024-07-09T06:40:20Z</time>
      </trkpt>
      <trkpt lat="43.93534" lon="7.41033">
        <ele>758.4</ele>
        <time>2024-07-09T06:40:21Z</time>
      </trkpt>
      <trkpt lat="43.93539" lon="7.41034">
        <ele>758.4</ele>
        <time>2024-07-09T06:40:22Z</time>
      </trkpt>
      <trkpt lat="43.93543" lon="7.41036">
        <ele>758.4</ele>
        <time>2024-07-09T06:40:23Z</time>
      </trkpt>
      <trkpt lat="43.93548" lon="7.41038">
        <ele>758.4</ele>
        <time>2024-07-09T06:40:24Z</time>
      </trkpt>
      <trkpt lat="43.93552" lon="7.4104">
        <ele>758.4</ele>
        <time>2024-07-09T06:40:25Z</time>
      </trkpt>
      <trkpt lat="43.93557" lon="7.41043">
        <ele>758.4</ele>
        <time>2024-07-09T06:40:26Z</time>
      </trkpt>
      <trkpt lat="43.93561" lon="7.41046">
        <ele>758.4</ele>
        <time>2024-07-09T06:40:27Z</time>
      </trkpt>
      <trkpt lat="43.93565" lon="7.4105">
        <ele>758.4</ele>
        <time>2024-07-09T06:40:28Z</time>
      </trkpt>
      <trkpt lat="43.93568" lon="7.41053">
        <ele>758.6</ele>
        <time>2024-07-09T06:40:29Z</time>
      </trkpt>
      <trkpt lat="43.93572" lon="7.41057">
        <ele>758.6</ele>
        <time>2024-07-09T06:40:30Z</time>
      </trkpt>
      <trkpt lat="43.93576" lon="7.41061">
        <ele>758.6</ele>
        <time>2024-07-09T06:40:31Z</time>
      </trkpt>
      <trkpt lat="43.9358" lon="7.41065">
        <ele>758.6</ele>
        <time>2024-07-09T06:40:32Z</time>
      </trkpt>
      <trkpt lat="43.93584" lon="7.41068">
        <ele>758.8</ele>
        <time>2024-07-09T06:40:33Z</time>
      </trkpt>
      <trkpt lat="43.93588" lon="7.41072">
        <ele>758.8</ele>
        <time>2024-07-09T06:40:34Z</time>
      </trkpt>
      <trkpt lat="43.93591" lon="7.41075">
        <ele>758.8</ele>
        <time>2024-07-09T06:40:35Z</time>
      </trkpt>
      <trkpt lat="43.93595" lon="7.41078">
        <ele>758.8</ele>
        <time>2024-07-09T06:40:36Z</time>
      </trkpt>
      <trkpt lat="43.93599" lon="7.41082">
        <ele>759</ele>
        <time>2024-07-09T06:40:37Z</time>
      </trkpt>
      <trkpt lat="43.93603" lon="7.41085">
        <ele>759</ele>
        <time>2024-07-09T06:40:38Z</time>
      </trkpt>
      <trkpt lat="43.93607" lon="7.41088">
        <ele>759</ele>
        <time>2024-07-09T06:40:39Z</time>
      </trkpt>
      <trkpt lat="43.9361" lon="7.41092">
        <ele>759</ele>
        <time>2024-07-09T06:40:40Z</time>
      </trkpt>
      <trkpt lat="43.93614" lon="7.41095">
        <ele>759</ele>
        <time>2024-07-09T06:40:41Z</time>
      </trkpt>
      <trkpt lat="43.93618" lon="7.411">
        <ele>759</ele>
        <time>2024-07-09T06:40:42Z</time>
      </trkpt>
      <trkpt lat="43.93622" lon="7.41104">
        <ele>759</ele>
        <time>2024-07-09T06:40:43Z</time>
      </trkpt>
      <trkpt lat="43.93625" lon="7.41109">
        <ele>759</ele>
        <time>2024-07-09T06:40:44Z</time>
      </trkpt>
      <trkpt lat="43.93628" lon="7.41113">
        <ele>759</ele>
        <time>2024-07-09T06:40:45Z</time>
      </trkpt>
      <trkpt lat="43.93632" lon="7.41118">
        <ele>759</ele>
        <time>2024-07-09T06:40:46Z</time>
      </trkpt>
      <trkpt lat="43.93635" lon="7.41122">
        <ele>759</ele>
        <time>2024-07-09T06:40:47Z</time>
      </trkpt>
      <trkpt lat="43.93639" lon="7.41127">
        <ele>759</ele>
        <time>2024-07-09T06:40:48Z</time>
      </trkpt>
      <trkpt lat="43.93642" lon="7.41131">
        <ele>759</ele>
        <time>2024-07-09T06:40:49Z</time>
      </trkpt>
      <trkpt lat="43.93645" lon="7.41136">
        <ele>759.2</ele>
        <time>2024-07-09T06:40:50Z</time>
      </trkpt>
      <trkpt lat="43.93648" lon="7.41141">
        <ele>759.2</ele>
        <time>2024-07-09T06:40:51Z</time>
      </trkpt>
      <trkpt lat="43.93651" lon="7.41145">
        <ele>759.2</ele>
        <time>2024-07-09T06:40:52Z</time>
      </trkpt>
      <trkpt lat="43.93655" lon="7.4115">
        <ele>759.2</ele>
        <time>2024-07-09T06:40:53Z</time>
      </trkpt>
      <trkpt lat="43.93658" lon="7.41154">
        <ele>759.4</ele>
        <time>2024-07-09T06:40:54Z</time>
      </trkpt>
      <trkpt lat="43.93661" lon="7.41159">
        <ele>759.4</ele>
        <time>2024-07-09T06:40:55Z</time>
      </trkpt>
      <trkpt lat="43.93664" lon="7.41163">
        <ele>759.4</ele>
        <time>2024-07-09T06:40:56Z</time>
      </trkpt>
      <trkpt lat="43.93668" lon="7.41168">
        <ele>759.4</ele>
        <time>2024-07-09T06:40:57Z</time>
      </trkpt>
      <trkpt lat="43.93671" lon="7.41172">
        <ele>759.6</ele>
        <time>2024-07-09T06:40:58Z</time>
      </trkpt>
      <trkpt lat="43.93675" lon="7.41177">
        <ele>759.6</ele>
        <time>2024-07-09T06:40:59Z</time>
      </trkpt>
      <trkpt lat="43.93678" lon="7.41181">
        <ele>759.6</ele>
        <time>2024-07-09T06:41:00Z</time>
      </trkpt>
      <trkpt lat="43.93681" lon="7.41186">
        <ele>759.6</ele>
        <time>2024-07-09T06:41:01Z</time>
      </trkpt>
      <trkpt lat="43.93684" lon="7.4119">
        <ele>759.6</ele>
        <time>2024-07-09T06:41:02Z</time>
      </trkpt>
      <trkpt lat="43.93688" lon="7.41194">
        <ele>760</ele>
        <time>2024-07-09T06:41:03Z</time>
      </trkpt>
      <trkpt lat="43.93691" lon="7.41199">
        <ele>760</ele>
        <time>2024-07-09T06:41:04Z</time>
      </trkpt>
      <trkpt lat="43.93694" lon="7.41202">
        <ele>760</ele>
        <time>2024-07-09T06:41:05Z</time>
      </trkpt>
      <trkpt lat="43.93698" lon="7.41205">
        <ele>760</ele>
        <time>2024-07-09T06:41:06Z</time>
      </trkpt>
      <trkpt lat="43.93702" lon="7.41208">
        <ele>760</ele>
        <time>2024-07-09T06:41:07Z</time>
      </trkpt>
      <trkpt lat="43.93706" lon="7.41211">
        <ele>760</ele>
        <time>2024-07-09T06:41:08Z</time>
      </trkpt>
      <trkpt lat="43.9371" lon="7.41214">
        <ele>760.2</ele>
        <time>2024-07-09T06:41:09Z</time>
      </trkpt>
      <trkpt lat="43.93714" lon="7.41217">
        <ele>760.2</ele>
        <time>2024-07-09T06:41:10Z</time>
      </trkpt>
      <trkpt lat="43.93718" lon="7.4122">
        <ele>760.2</ele>
        <time>2024-07-09T06:41:11Z</time>
      </trkpt>
      <trkpt lat="43.93722" lon="7.41222">
        <ele>760</ele>
        <time>2024-07-09T06:41:12Z</time>
      </trkpt>
      <trkpt lat="43.93726" lon="7.41224">
        <ele>759.8</ele>
        <time>2024-07-09T06:41:13Z</time>
      </trkpt>
      <trkpt lat="43.93731" lon="7.41227">
        <ele>759.8</ele>
        <time>2024-07-09T06:41:14Z</time>
      </trkpt>
      <trkpt lat="43.93735" lon="7.41231">
        <ele>759.8</ele>
        <time>2024-07-09T06:41:15Z</time>
      </trkpt>
      <trkpt lat="43.93739" lon="7.41233">
        <ele>759.8</ele>
        <time>2024-07-09T06:41:16Z</time>
      </trkpt>
      <trkpt lat="43.93743" lon="7.41236">
        <ele>759.8</ele>
        <time>2024-07-09T06:41:17Z</time>
      </trkpt>
      <trkpt lat="43.93747" lon="7.41238">
        <ele>759.8</ele>
        <time>2024-07-09T06:41:18Z</time>
      </trkpt>
      <trkpt lat="43.93752" lon="7.41241">
        <ele>759.8</ele>
        <time>2024-07-09T06:41:19Z</time>
      </trkpt>
      <trkpt lat="43.93756" lon="7.41243">
        <ele>759.8</ele>
        <time>2024-07-09T06:41:20Z</time>
      </trkpt>
      <trkpt lat="43.9376" lon="7.41246">
        <ele>759.8</ele>
        <time>2024-07-09T06:41:21Z</time>
      </trkpt>
      <trkpt lat="43.93763" lon="7.41249">
        <ele>760</ele>
        <time>2024-07-09T06:41:22Z</time>
      </trkpt>
      <trkpt lat="43.93767" lon="7.41252">
        <ele>760</ele>
        <time>2024-07-09T06:41:23Z</time>
      </trkpt>
      <trkpt lat="43.93771" lon="7.41255">
        <ele>760</ele>
        <time>2024-07-09T06:41:24Z</time>
      </trkpt>
      <trkpt lat="43.93774" lon="7.41259">
        <ele>760</ele>
        <time>2024-07-09T06:41:25Z</time>
      </trkpt>
      <trkpt lat="43.93778" lon="7.41262">
        <ele>760.4</ele>
        <time>2024-07-09T06:41:26Z</time>
      </trkpt>
      <trkpt lat="43.93782" lon="7.41265">
        <ele>760.4</ele>
        <time>2024-07-09T06:41:27Z</time>
      </trkpt>
      <trkpt lat="43.93786" lon="7.41269">
        <ele>760.4</ele>
        <time>2024-07-09T06:41:28Z</time>
      </trkpt>
      <trkpt lat="43.93789" lon="7.41272">
        <ele>760.4</ele>
        <time>2024-07-09T06:41:29Z</time>
      </trkpt>
      <trkpt lat="43.93793" lon="7.41275">
        <ele>760.4</ele>
        <time>2024-07-09T06:41:30Z</time>
      </trkpt>
      <trkpt lat="43.93796" lon="7.41279">
        <ele>760.6</ele>
        <time>2024-07-09T06:41:31Z</time>
      </trkpt>
      <trkpt lat="43.93799" lon="7.41282">
        <ele>760.6</ele>
        <time>2024-07-09T06:41:32Z</time>
      </trkpt>
      <trkpt lat="43.93803" lon="7.41286">
        <ele>760.6</ele>
        <time>2024-07-09T06:41:33Z</time>
      </trkpt>
      <trkpt lat="43.93806" lon="7.41289">
        <ele>761</ele>
        <time>2024-07-09T06:41:34Z</time>
      </trkpt>
      <trkpt lat="43.9381" lon="7.41292">
        <ele>761.2</ele>
        <time>2024-07-09T06:41:35Z</time>
      </trkpt>
      <trkpt lat="43.93813" lon="7.41294">
        <ele>761.2</ele>
        <time>2024-07-09T06:41:36Z</time>
      </trkpt>
      <trkpt lat="43.93817" lon="7.41297">
        <ele>761.2</ele>
        <time>2024-07-09T06:41:37Z</time>
      </trkpt>
      <trkpt lat="43.9382" lon="7.41299">
        <ele>761.2</ele>
        <time>2024-07-09T06:41:38Z</time>
      </trkpt>
      <trkpt lat="43.93823" lon="7.41302">
        <ele>761.4</ele>
        <time>2024-07-09T06:41:39Z</time>
      </trkpt>
      <trkpt lat="43.93826" lon="7.41305">
        <ele>761.4</ele>
        <time>2024-07-09T06:41:40Z</time>
      </trkpt>
      <trkpt lat="43.93829" lon="7.41307">
        <ele>761.4</ele>
        <time>2024-07-09T06:41:41Z</time>
      </trkpt>
      <trkpt lat="43.93832" lon="7.41309">
        <ele>761.4</ele>
        <time>2024-07-09T06:41:42Z</time>
      </trkpt>
      <trkpt lat="43.93836" lon="7.41311">
        <ele>761.8</ele>
        <time>2024-07-09T06:41:43Z</time>
      </trkpt>
      <trkpt lat="43.93839" lon="7.41313">
        <ele>761.8</ele>
        <time>2024-07-09T06:41:44Z</time>
      </trkpt>
      <trkpt lat="43.93843" lon="7.41314">
        <ele>761.8</ele>
        <time>2024-07-09T06:41:45Z</time>
      </trkpt>
      <trkpt lat="43.93847" lon="7.41315">
        <ele>761.8</ele>
        <time>2024-07-09T06:41:46Z</time>
      </trkpt>
      <trkpt lat="43.93851" lon="7.41317">
        <ele>761.8</ele>
        <time>2024-07-09T06:41:47Z</time>
      </trkpt>
      <trkpt lat="43.93855" lon="7.41318">
        <ele>761.8</ele>
        <time>2024-07-09T06:41:48Z</time>
      </trkpt>
      <trkpt lat="43.9386" lon="7.41319">
        <ele>761.6</ele>
        <time>2024-07-09T06:41:49Z</time>
      </trkpt>
      <trkpt lat="43.93864" lon="7.4132">
        <ele>761.6</ele>
        <time>2024-07-09T06:41:50Z</time>
      </trkpt>
      <trkpt lat="43.93869" lon="7.4132">
        <ele>761.6</ele>
        <time>2024-07-09T06:41:51Z</time>
      </trkpt>
      <trkpt lat="43.93873" lon="7.41319">
        <ele>761.6</ele>
        <time>2024-07-09T06:41:52Z</time>
      </trkpt>
      <trkpt lat="43.93878" lon="7.41319">
        <ele>761.6</ele>
        <time>2024-07-09T06:41:53Z</time>
      </trkpt>
      <trkpt lat="43.93883" lon="7.41318">
        <ele>761.6</ele>
        <time>2024-07-09T06:41:54Z</time>
      </trkpt>
      <trkpt lat="43.93888" lon="7.41317">
        <ele>761.6</ele>
        <time>2024-07-09T06:41:55Z</time>
      </trkpt>
      <trkpt lat="43.93893" lon="7.41315">
        <ele>761.6</ele>
        <time>2024-07-09T06:41:56Z</time>
      </trkpt>
      <trkpt lat="43.93898" lon="7.41313">
        <ele>761.6</ele>
        <time>2024-07-09T06:41:57Z</time>
      </trkpt>
      <trkpt lat="43.93903" lon="7.4131">
        <ele>761.2</ele>
        <time>2024-07-09T06:41:58Z</time>
      </trkpt>
      <trkpt lat="43.93908" lon="7.41308">
        <ele>761.2</ele>
        <time>2024-07-09T06:41:59Z</time>
      </trkpt>
      <trkpt lat="43.93914" lon="7.41304">
        <ele>761.2</ele>
        <time>2024-07-09T06:42:00Z</time>
      </trkpt>
      <trkpt lat="43.93919" lon="7.413">
        <ele>761</ele>
        <time>2024-07-09T06:42:01Z</time>
      </trkpt>
      <trkpt lat="43.93923" lon="7.41295">
        <ele>761</ele>
        <time>2024-07-09T06:42:02Z</time>
      </trkpt>
      <trkpt lat="43.93928" lon="7.41291">
        <ele>761</ele>
        <time>2024-07-09T06:42:03Z</time>
      </trkpt>
      <trkpt lat="43.93932" lon="7.41287">
        <ele>761</ele>
        <time>2024-07-09T06:42:04Z</time>
      </trkpt>
      <trkpt lat="43.93936" lon="7.41283">
        <ele>761</ele>
        <time>2024-07-09T06:42:05Z</time>
      </trkpt>
      <trkpt lat="43.93939" lon="7.41279">
        <ele>760.8</ele>
        <time>2024-07-09T06:42:06Z</time>
      </trkpt>
      <trkpt lat="43.93943" lon="7.41274">
        <ele>761</ele>
        <time>2024-07-09T06:42:07Z</time>
      </trkpt>
      <trkpt lat="43.93946" lon="7.41269">
        <ele>761</ele>
        <time>2024-07-09T06:42:08Z</time>
      </trkpt>
      <trkpt lat="43.93949" lon="7.41266">
        <ele>761</ele>
        <time>2024-07-09T06:42:09Z</time>
      </trkpt>
      <trkpt lat="43.93952" lon="7.41264">
        <ele>761</ele>
        <time>2024-07-09T06:42:10Z</time>
      </trkpt>
      <trkpt lat="43.93955" lon="7.41264">
        <ele>761.4</ele>
        <time>2024-07-09T06:42:11Z</time>
      </trkpt>
      <trkpt lat="43.93958" lon="7.41266">
        <ele>761.4</ele>
        <time>2024-07-09T06:42:12Z</time>
      </trkpt>
      <trkpt lat="43.93961" lon="7.4127">
        <ele>761.4</ele>
        <time>2024-07-09T06:42:13Z</time>
      </trkpt>
      <trkpt lat="43.93963" lon="7.41274">
        <ele>761.8</ele>
        <time>2024-07-09T06:42:14Z</time>
      </trkpt>
      <trkpt lat="43.93966" lon="7.41278">
        <ele>761.8</ele>
        <time>2024-07-09T06:42:15Z</time>
      </trkpt>
      <trkpt lat="43.93968" lon="7.41281">
        <ele>761.8</ele>
        <time>2024-07-09T06:42:16Z</time>
      </trkpt>
      <trkpt lat="43.9397" lon="7.41286">
        <ele>761.8</ele>
        <time>2024-07-09T06:42:17Z</time>
      </trkpt>
      <trkpt lat="43.93971" lon="7.4129">
        <ele>761.8</ele>
        <time>2024-07-09T06:42:18Z</time>
      </trkpt>
      <trkpt lat="43.93972" lon="7.41294">
        <ele>762.2</ele>
        <time>2024-07-09T06:42:19Z</time>
      </trkpt>
      <trkpt lat="43.93972" lon="7.41298">
        <ele>762.2</ele>
        <time>2024-07-09T06:42:20Z</time>
      </trkpt>
      <trkpt lat="43.93972" lon="7.41302">
        <ele>762.2</ele>
        <time>2024-07-09T06:42:21Z</time>
      </trkpt>
      <trkpt lat="43.93972" lon="7.41306">
        <ele>762.2</ele>
        <time>2024-07-09T06:42:22Z</time>
      </trkpt>
      <trkpt lat="43.93972" lon="7.4131">
        <ele>762.8</ele>
        <time>2024-07-09T06:42:23Z</time>
      </trkpt>
      <trkpt lat="43.93972" lon="7.41313">
        <ele>762.8</ele>
        <time>2024-07-09T06:42:24Z</time>
      </trkpt>
      <trkpt lat="43.93973" lon="7.41316">
        <ele>763</ele>
        <time>2024-07-09T06:42:25Z</time>
      </trkpt>
      <trkpt lat="43.93974" lon="7.4132">
        <ele>763</ele>
        <time>2024-07-09T06:42:26Z</time>
      </trkpt>
      <trkpt lat="43.93974" lon="7.41323">
        <ele>763.6</ele>
        <time>2024-07-09T06:42:27Z</time>
      </trkpt>
      <trkpt lat="43.93975" lon="7.41326">
        <ele>763.6</ele>
        <time>2024-07-09T06:42:28Z</time>
      </trkpt>
      <trkpt lat="43.93977" lon="7.41329">
        <ele>763.6</ele>
        <time>2024-07-09T06:42:29Z</time>
      </trkpt>
      <trkpt lat="43.93978" lon="7.41332">
        <ele>763.6</ele>
        <time>2024-07-09T06:42:30Z</time>
      </trkpt>
      <trkpt lat="43.93979" lon="7.41335">
        <ele>763.6</ele>
        <time>2024-07-09T06:42:31Z</time>
      </trkpt>
      <trkpt lat="43.9398" lon="7.41338">
        <ele>763.6</ele>
        <time>2024-07-09T06:42:32Z</time>
      </trkpt>
      <trkpt lat="43.93982" lon="7.41339">
        <ele>764.4</ele>
        <time>2024-07-09T06:42:33Z</time>
      </trkpt>
      <trkpt lat="43.93984" lon="7.41342">
        <ele>764.4</ele>
        <time>2024-07-09T06:42:34Z</time>
      </trkpt>
      <trkpt lat="43.93986" lon="7.41344">
        <ele>764.4</ele>
        <time>2024-07-09T06:42:35Z</time>
      </trkpt>
      <trkpt lat="43.93987" lon="7.41346">
        <ele>764.4</ele>
        <time>2024-07-09T06:42:36Z</time>
      </trkpt>
      <trkpt lat="43.9399" lon="7.41348">
        <ele>764.8</ele>
        <time>2024-07-09T06:42:37Z</time>
      </trkpt>
      <trkpt lat="43.93992" lon="7.4135">
        <ele>765</ele>
        <time>2024-07-09T06:42:38Z</time>
      </trkpt>
      <trkpt lat="43.93993" lon="7.41352">
        <ele>765</ele>
        <time>2024-07-09T06:42:39Z</time>
      </trkpt>
      <trkpt lat="43.93995" lon="7.41354">
        <ele>765</ele>
        <time>2024-07-09T06:42:40Z</time>
      </trkpt>
      <trkpt lat="43.93997" lon="7.41356">
        <ele>765</ele>
        <time>2024-07-09T06:42:41Z</time>
      </trkpt>
      <trkpt lat="43.93998" lon="7.41358">
        <ele>765</ele>
        <time>2024-07-09T06:42:42Z</time>
      </trkpt>
      <trkpt lat="43.94" lon="7.4136">
        <ele>765.4</ele>
        <time>2024-07-09T06:42:43Z</time>
      </trkpt>
      <trkpt lat="43.94002" lon="7.41363">
        <ele>765.4</ele>
        <time>2024-07-09T06:42:44Z</time>
      </trkpt>
      <trkpt lat="43.94003" lon="7.41365">
        <ele>765.4</ele>
        <time>2024-07-09T06:42:45Z</time>
      </trkpt>
      <trkpt lat="43.94006" lon="7.41367">
        <ele>766</ele>
        <time>2024-07-09T06:42:46Z</time>
      </trkpt>
      <trkpt lat="43.94007" lon="7.41369">
        <ele>766.2</ele>
        <time>2024-07-09T06:42:47Z</time>
      </trkpt>
      <trkpt lat="43.94009" lon="7.41372">
        <ele>766.2</ele>
        <time>2024-07-09T06:42:48Z</time>
      </trkpt>
      <trkpt lat="43.9401" lon="7.41374">
        <ele>766.2</ele>
        <time>2024-07-09T06:42:49Z</time>
      </trkpt>
      <trkpt lat="43.94012" lon="7.41375">
        <ele>766.2</ele>
        <time>2024-07-09T06:42:50Z</time>
      </trkpt>
      <trkpt lat="43.94014" lon="7.41377">
        <ele>766.8</ele>
        <time>2024-07-09T06:42:51Z</time>
      </trkpt>
      <trkpt lat="43.94016" lon="7.41378">
        <ele>766.8</ele>
        <time>2024-07-09T06:42:52Z</time>
      </trkpt>
      <trkpt lat="43.94017" lon="7.41379">
        <ele>766.8</ele>
        <time>2024-07-09T06:42:53Z</time>
      </trkpt>
      <trkpt lat="43.94018" lon="7.4138">
        <ele>766.8</ele>
        <time>2024-07-09T06:42:54Z</time>
      </trkpt>
      <trkpt lat="43.9402" lon="7.41381">
        <ele>767.2</ele>
        <time>2024-07-09T06:42:55Z</time>
      </trkpt>
      <trkpt lat="43.94022" lon="7.41381">
        <ele>767.4</ele>
        <time>2024-07-09T06:42:56Z</time>
      </trkpt>
      <trkpt lat="43.94023" lon="7.41381">
        <ele>767.4</ele>
        <time>2024-07-09T06:42:57Z</time>
      </trkpt>
      <trkpt lat="43.94025" lon="7.41381">
        <ele>767.4</ele>
        <time>2024-07-09T06:42:58Z</time>
      </trkpt>
      <trkpt lat="43.94027" lon="7.4138">
        <ele>767.6</ele>
        <time>2024-07-09T06:42:59Z</time>
      </trkpt>
      <trkpt lat="43.94029" lon="7.4138">
        <ele>767.8</ele>
        <time>2024-07-09T06:43:00Z</time>
      </trkpt>
      <trkpt lat="43.9403" lon="7.41379">
        <ele>767.8</ele>
        <time>2024-07-09T06:43:01Z</time>
      </trkpt>
      <trkpt lat="43.94032" lon="7.41378">
        <ele>767.8</ele>
        <time>2024-07-09T06:43:02Z</time>
      </trkpt>
      <trkpt lat="43.94034" lon="7.41377">
        <ele>768.2</ele>
        <time>2024-07-09T06:43:03Z</time>
      </trkpt>
      <trkpt lat="43.94036" lon="7.41376">
        <ele>768.4</ele>
        <time>2024-07-09T06:43:04Z</time>
      </trkpt>
      <trkpt lat="43.94037" lon="7.41375">
        <ele>768.4</ele>
        <time>2024-07-09T06:43:05Z</time>
      </trkpt>
      <trkpt lat="43.94039" lon="7.41374">
        <ele>768.4</ele>
        <time>2024-07-09T06:43:06Z</time>
      </trkpt>
      <trkpt lat="43.9404" lon="7.41372">
        <ele>768.4</ele>
        <time>2024-07-09T06:43:07Z</time>
      </trkpt>
      <trkpt lat="43.94042" lon="7.41371">
        <ele>768.4</ele>
        <time>2024-07-09T06:43:08Z</time>
      </trkpt>
      <trkpt lat="43.94044" lon="7.4137">
        <ele>768.8</ele>
        <time>2024-07-09T06:43:09Z</time>
      </trkpt>
      <trkpt lat="43.94046" lon="7.41369">
        <ele>768.8</ele>
        <time>2024-07-09T06:43:10Z</time>
      </trkpt>
      <trkpt lat="43.94047" lon="7.41368">
        <ele>768.8</ele>
        <time>2024-07-09T06:43:11Z</time>
      </trkpt>
      <trkpt lat="43.94048" lon="7.41366">
        <ele>768.8</ele>
        <time>2024-07-09T06:43:12Z</time>
      </trkpt>
      <trkpt lat="43.94049" lon="7.41365">
        <ele>769.4</ele>
        <time>2024-07-09T06:43:13Z</time>
      </trkpt>
      <trkpt lat="43.9405" lon="7.41364">
        <ele>769.4</ele>
        <time>2024-07-09T06:43:14Z</time>
      </trkpt>
      <trkpt lat="43.94052" lon="7.41363">
        <ele>769.6</ele>
        <time>2024-07-09T06:43:15Z</time>
      </trkpt>
      <trkpt lat="43.94054" lon="7.41361">
        <ele>769.6</ele>
        <time>2024-07-09T06:43:16Z</time>
      </trkpt>
      <trkpt lat="43.94056" lon="7.4136">
        <ele>769.6</ele>
        <time>2024-07-09T06:43:17Z</time>
      </trkpt>
      <trkpt lat="43.94057" lon="7.41359">
        <ele>770</ele>
        <time>2024-07-09T06:43:18Z</time>
      </trkpt>
      <trkpt lat="43.94059" lon="7.41358">
        <ele>770</ele>
        <time>2024-07-09T06:43:19Z</time>
      </trkpt>
      <trkpt lat="43.94061" lon="7.41356">
        <ele>770</ele>
        <time>2024-07-09T06:43:20Z</time>
      </trkpt>
      <trkpt lat="43.94063" lon="7.41355">
        <ele>770</ele>
        <time>2024-07-09T06:43:21Z</time>
      </trkpt>
      <trkpt lat="43.94064" lon="7.41354">
        <ele>770.6</ele>
        <time>2024-07-09T06:43:22Z</time>
      </trkpt>
      <trkpt lat="43.94066" lon="7.41353">
        <ele>771</ele>
        <time>2024-07-09T06:43:23Z</time>
      </trkpt>
      <trkpt lat="43.94068" lon="7.41352">
        <ele>771</ele>
        <time>2024-07-09T06:43:24Z</time>
      </trkpt>
      <trkpt lat="43.94069" lon="7.41351">
        <ele>771</ele>
        <time>2024-07-09T06:43:25Z</time>
      </trkpt>
      <trkpt lat="43.94071" lon="7.41351">
        <ele>771</ele>
        <time>2024-07-09T06:43:26Z</time>
      </trkpt>
      <trkpt lat="43.94073" lon="7.4135">
        <ele>771.4</ele>
        <time>2024-07-09T06:43:27Z</time>
      </trkpt>
      <trkpt lat="43.94074" lon="7.4135">
        <ele>771.4</ele>
        <time>2024-07-09T06:43:28Z</time>
      </trkpt>
      <trkpt lat="43.94076" lon="7.41349">
        <ele>771.4</ele>
        <time>2024-07-09T06:43:29Z</time>
      </trkpt>
      <trkpt lat="43.94078" lon="7.41349">
        <ele>771.4</ele>
        <time>2024-07-09T06:43:30Z</time>
      </trkpt>
      <trkpt lat="43.94079" lon="7.41348">
        <ele>771.8</ele>
        <time>2024-07-09T06:43:31Z</time>
      </trkpt>
      <trkpt lat="43.94081" lon="7.41347">
        <ele>772</ele>
        <time>2024-07-09T06:43:32Z</time>
      </trkpt>
      <trkpt lat="43.94082" lon="7.41345">
        <ele>772</ele>
        <time>2024-07-09T06:43:33Z</time>
      </trkpt>
      <trkpt lat="43.94083" lon="7.41343">
        <ele>772</ele>
        <time>2024-07-09T06:43:34Z</time>
      </trkpt>
      <trkpt lat="43.94085" lon="7.41341">
        <ele>772.4</ele>
        <time>2024-07-09T06:43:35Z</time>
      </trkpt>
      <trkpt lat="43.94086" lon="7.41339">
        <ele>772.6</ele>
        <time>2024-07-09T06:43:36Z</time>
      </trkpt>
      <trkpt lat="43.94087" lon="7.41337">
        <ele>772.6</ele>
        <time>2024-07-09T06:43:37Z</time>
      </trkpt>
      <trkpt lat="43.94088" lon="7.41334">
        <ele>772.6</ele>
        <time>2024-07-09T06:43:38Z</time>
      </trkpt>
      <trkpt lat="43.94089" lon="7.41332">
        <ele>772.8</ele>
        <time>2024-07-09T06:43:39Z</time>
      </trkpt>
      <trkpt lat="43.94089" lon="7.4133">
        <ele>773.2</ele>
        <time>2024-07-09T06:43:40Z</time>
      </trkpt>
      <trkpt lat="43.9409" lon="7.41328">
        <ele>773.2</ele>
        <time>2024-07-09T06:43:41Z</time>
      </trkpt>
      <trkpt lat="43.9409" lon="7.41326">
        <ele>773.2</ele>
        <time>2024-07-09T06:43:42Z</time>
      </trkpt>
      <trkpt lat="43.9409" lon="7.41325">
        <ele>773.2</ele>
        <time>2024-07-09T06:43:43Z</time>
      </trkpt>
      <trkpt lat="43.94089" lon="7.41323">
        <ele>773.6</ele>
        <time>2024-07-09T06:43:44Z</time>
      </trkpt>
      <trkpt lat="43.94088" lon="7.41321">
        <ele>773.4</ele>
        <time>2024-07-09T06:43:45Z</time>
      </trkpt>
      <trkpt lat="43.94087" lon="7.41318">
        <ele>773.4</ele>
        <time>2024-07-09T06:43:46Z</time>
      </trkpt>
      <trkpt lat="43.94086" lon="7.41316">
        <ele>773.4</ele>
        <time>2024-07-09T06:43:47Z</time>
      </trkpt>
      <trkpt lat="43.94086" lon="7.41313">
        <ele>773.8</ele>
        <time>2024-07-09T06:43:48Z</time>
      </trkpt>
      <trkpt lat="43.94085" lon="7.4131">
        <ele>773.8</ele>
        <time>2024-07-09T06:43:49Z</time>
      </trkpt>
      <trkpt lat="43.94085" lon="7.41307">
        <ele>773.8</ele>
        <time>2024-07-09T06:43:50Z</time>
      </trkpt>
      <trkpt lat="43.94085" lon="7.41304">
        <ele>773.8</ele>
        <time>2024-07-09T06:43:51Z</time>
      </trkpt>
      <trkpt lat="43.94085" lon="7.41301">
        <ele>773.8</ele>
        <time>2024-07-09T06:43:52Z</time>
      </trkpt>
      <trkpt lat="43.94085" lon="7.41299">
        <ele>774.2</ele>
        <time>2024-07-09T06:43:53Z</time>
      </trkpt>
      <trkpt lat="43.94084" lon="7.41296">
        <ele>774.2</ele>
        <time>2024-07-09T06:43:54Z</time>
      </trkpt>
      <trkpt lat="43.94084" lon="7.41293">
        <ele>774.2</ele>
        <time>2024-07-09T06:43:55Z</time>
      </trkpt>
      <trkpt lat="43.94084" lon="7.41291">
        <ele>774.2</ele>
        <time>2024-07-09T06:43:56Z</time>
      </trkpt>
      <trkpt lat="43.94085" lon="7.4129">
        <ele>774.2</ele>
        <time>2024-07-09T06:43:57Z</time>
      </trkpt>
      <trkpt lat="43.94085" lon="7.41289">
        <ele>774.4</ele>
        <time>2024-07-09T06:43:58Z</time>
      </trkpt>
      <trkpt lat="43.94086" lon="7.41289">
        <ele>774.4</ele>
        <time>2024-07-09T06:43:59Z</time>
      </trkpt>
      <trkpt lat="43.94086" lon="7.41289">
        <ele>774.4</ele>
        <time>2024-07-09T06:44:00Z</time>
      </trkpt>
      <trkpt lat="43.94085" lon="7.41305">
        <ele>774.6</ele>
        <time>2024-07-09T06:45:58Z</time>
      </trkpt>
      <trkpt lat="43.94085" lon="7.41303">
        <ele>774.6</ele>
        <time>2024-07-09T06:45:59Z</time>
      </trkpt>
      <trkpt lat="43.94085" lon="7.41303">
        <ele>774.6</ele>
        <time>2024-07-09T06:46:00Z</time>
      </trkpt>
      <trkpt lat="43.94089" lon="7.41298">
        <ele>774.6</ele>
        <time>2024-07-09T06:47:43Z</time>
      </trkpt>
      <trkpt lat="43.94091" lon="7.41298">
        <ele>774.6</ele>
        <time>2024-07-09T06:47:44Z</time>
      </trkpt>
      <trkpt lat="43.94092" lon="7.413">
        <ele>774.6</ele>
        <time>2024-07-09T06:47:45Z</time>
      </trkpt>
      <trkpt lat="43.94093" lon="7.41302">
        <ele>774.8</ele>
        <time>2024-07-09T06:47:46Z</time>
      </trkpt>
      <trkpt lat="43.94094" lon="7.41304">
        <ele>774.8</ele>
        <time>2024-07-09T06:47:47Z</time>
      </trkpt>
      <trkpt lat="43.94096" lon="7.41307">
        <ele>774.8</ele>
        <time>2024-07-09T06:47:48Z</time>
      </trkpt>
      <trkpt lat="43.94097" lon="7.41309">
        <ele>774.8</ele>
        <time>2024-07-09T06:47:49Z</time>
      </trkpt>
      <trkpt lat="43.94098" lon="7.41312">
        <ele>775</ele>
        <time>2024-07-09T06:47:50Z</time>
      </trkpt>
      <trkpt lat="43.94098" lon="7.41314">
        <ele>775</ele>
        <time>2024-07-09T06:47:51Z</time>
      </trkpt>
      <trkpt lat="43.941" lon="7.41316">
        <ele>775</ele>
        <time>2024-07-09T06:47:52Z</time>
      </trkpt>
      <trkpt lat="43.941" lon="7.41319">
        <ele>775</ele>
        <time>2024-07-09T06:47:53Z</time>
      </trkpt>
      <trkpt lat="43.94101" lon="7.41322">
        <ele>775.2</ele>
        <time>2024-07-09T06:47:54Z</time>
      </trkpt>
      <trkpt lat="43.94103" lon="7.41325">
        <ele>775.2</ele>
        <time>2024-07-09T06:47:55Z</time>
      </trkpt>
      <trkpt lat="43.94104" lon="7.41328">
        <ele>775.2</ele>
        <time>2024-07-09T06:47:56Z</time>
      </trkpt>
      <trkpt lat="43.94105" lon="7.4133">
        <ele>775.2</ele>
        <time>2024-07-09T06:47:57Z</time>
      </trkpt>
      <trkpt lat="43.94107" lon="7.41333">
        <ele>775.2</ele>
        <time>2024-07-09T06:47:58Z</time>
      </trkpt>
      <trkpt lat="43.94108" lon="7.41335">
        <ele>775.6</ele>
        <time>2024-07-09T06:47:59Z</time>
      </trkpt>
      <trkpt lat="43.94109" lon="7.41337">
        <ele>775.6</ele>
        <time>2024-07-09T06:48:00Z</time>
      </trkpt>
      <trkpt lat="43.9411" lon="7.4134">
        <ele>775.6</ele>
        <time>2024-07-09T06:48:01Z</time>
      </trkpt>
      <trkpt lat="43.94111" lon="7.41342">
        <ele>775.6</ele>
        <time>2024-07-09T06:48:02Z</time>
      </trkpt>
      <trkpt lat="43.94113" lon="7.41345">
        <ele>775.6</ele>
        <time>2024-07-09T06:48:03Z</time>
      </trkpt>
      <trkpt lat="43.94114" lon="7.41348">
        <ele>776</ele>
        <time>2024-07-09T06:48:04Z</time>
      </trkpt>
      <trkpt lat="43.94116" lon="7.41351">
        <ele>776.2</ele>
        <time>2024-07-09T06:48:05Z</time>
      </trkpt>
      <trkpt lat="43.94117" lon="7.41353">
        <ele>776.2</ele>
        <time>2024-07-09T06:48:06Z</time>
      </trkpt>
      <trkpt lat="43.94119" lon="7.41355">
        <ele>776.2</ele>
        <time>2024-07-09T06:48:07Z</time>
      </trkpt>
      <trkpt lat="43.9412" lon="7.41358">
        <ele>776.6</ele>
        <time>2024-07-09T06:48:08Z</time>
      </trkpt>
      <trkpt lat="43.94121" lon="7.4136">
        <ele>776.8</ele>
        <time>2024-07-09T06:48:09Z</time>
      </trkpt>
      <trkpt lat="43.94122" lon="7.41362">
        <ele>776.8</ele>
        <time>2024-07-09T06:48:10Z</time>
      </trkpt>
      <trkpt lat="43.94124" lon="7.41365">
        <ele>776.8</ele>
        <time>2024-07-09T06:48:11Z</time>
      </trkpt>
      <trkpt lat="43.94126" lon="7.41367">
        <ele>776.8</ele>
        <time>2024-07-09T06:48:12Z</time>
      </trkpt>
      <trkpt lat="43.94127" lon="7.4137">
        <ele>777</ele>
        <time>2024-07-09T06:48:13Z</time>
      </trkpt>
      <trkpt lat="43.94129" lon="7.41372">
        <ele>777</ele>
        <time>2024-07-09T06:48:14Z</time>
      </trkpt>
      <trkpt lat="43.9413" lon="7.41374">
        <ele>777</ele>
        <time>2024-07-09T06:48:15Z</time>
      </trkpt>
      <trkpt lat="43.94132" lon="7.41377">
        <ele>777</ele>
        <time>2024-07-09T06:48:16Z</time>
      </trkpt>
      <trkpt lat="43.94133" lon="7.41379">
        <ele>777.4</ele>
        <time>2024-07-09T06:48:17Z</time>
      </trkpt>
      <trkpt lat="43.94135" lon="7.41381">
        <ele>777.6</ele>
        <time>2024-07-09T06:48:18Z</time>
      </trkpt>
      <trkpt lat="43.94137" lon="7.41383">
        <ele>777.6</ele>
        <time>2024-07-09T06:48:19Z</time>
      </trkpt>
      <trkpt lat="43.94138" lon="7.41386">
        <ele>777.6</ele>
        <time>2024-07-09T06:48:20Z</time>
      </trkpt>
      <trkpt lat="43.94139" lon="7.41388">
        <ele>777.6</ele>
        <time>2024-07-09T06:48:21Z</time>
      </trkpt>
      <trkpt lat="43.9414" lon="7.41391">
        <ele>778.2</ele>
        <time>2024-07-09T06:48:22Z</time>
      </trkpt>
      <trkpt lat="43.94142" lon="7.41393">
        <ele>778.2</ele>
        <time>2024-07-09T06:48:23Z</time>
      </trkpt>
      <trkpt lat="43.94143" lon="7.41395">
        <ele>778.2</ele>
        <time>2024-07-09T06:48:24Z</time>
      </trkpt>
      <trkpt lat="43.94145" lon="7.41398">
        <ele>778.2</ele>
        <time>2024-07-09T06:48:25Z</time>
      </trkpt>
      <trkpt lat="43.94146" lon="7.414">
        <ele>778.2</ele>
        <time>2024-07-09T06:48:26Z</time>
      </trkpt>
      <trkpt lat="43.94148" lon="7.41403">
        <ele>778.8</ele>
        <time>2024-07-09T06:48:27Z</time>
      </trkpt>
      <trkpt lat="43.94149" lon="7.41405">
        <ele>778.8</ele>
        <time>2024-07-09T06:48:28Z</time>
      </trkpt>
      <trkpt lat="43.9415" lon="7.41407">
        <ele>778.8</ele>
        <time>2024-07-09T06:48:29Z</time>
      </trkpt>
      <trkpt lat="43.94152" lon="7.4141">
        <ele>778.8</ele>
        <time>2024-07-09T06:48:30Z</time>
      </trkpt>
      <trkpt lat="43.94153" lon="7.41413">
        <ele>779.2</ele>
        <time>2024-07-09T06:48:31Z</time>
      </trkpt>
      <trkpt lat="43.94154" lon="7.41415">
        <ele>779.2</ele>
        <time>2024-07-09T06:48:32Z</time>
      </trkpt>
      <trkpt lat="43.94155" lon="7.41417">
        <ele>779.2</ele>
        <time>2024-07-09T06:48:33Z</time>
      </trkpt>
      <trkpt lat="43.94157" lon="7.41419">
        <ele>779.2</ele>
        <time>2024-07-09T06:48:34Z</time>
      </trkpt>
      <trkpt lat="43.94158" lon="7.41422">
        <ele>779.6</ele>
        <time>2024-07-09T06:48:35Z</time>
      </trkpt>
      <trkpt lat="43.94159" lon="7.41424">
        <ele>779.8</ele>
        <time>2024-07-09T06:48:36Z</time>
      </trkpt>
      <trkpt lat="43.9416" lon="7.41426">
        <ele>779.8</ele>
        <time>2024-07-09T06:48:37Z</time>
      </trkpt>
      <trkpt lat="43.94162" lon="7.41429">
        <ele>779.8</ele>
        <time>2024-07-09T06:48:38Z</time>
      </trkpt>
      <trkpt lat="43.94163" lon="7.41432">
        <ele>780.2</ele>
        <time>2024-07-09T06:48:39Z</time>
      </trkpt>
      <trkpt lat="43.94165" lon="7.41434">
        <ele>780.4</ele>
        <time>2024-07-09T06:48:40Z</time>
      </trkpt>
      <trkpt lat="43.94166" lon="7.41436">
        <ele>780.4</ele>
        <time>2024-07-09T06:48:41Z</time>
      </trkpt>
      <trkpt lat="43.94168" lon="7.41438">
        <ele>780.4</ele>
        <time>2024-07-09T06:48:42Z</time>
      </trkpt>
      <trkpt lat="43.94169" lon="7.41441">
        <ele>780.4</ele>
        <time>2024-07-09T06:48:43Z</time>
      </trkpt>
      <trkpt lat="43.94171" lon="7.41443">
        <ele>780.4</ele>
        <time>2024-07-09T06:48:44Z</time>
      </trkpt>
      <trkpt lat="43.94173" lon="7.41446">
        <ele>780.6</ele>
        <time>2024-07-09T06:48:45Z</time>
      </trkpt>
      <trkpt lat="43.94174" lon="7.41448">
        <ele>781</ele>
        <time>2024-07-09T06:48:46Z</time>
      </trkpt>
      <trkpt lat="43.94176" lon="7.4145">
        <ele>781</ele>
        <time>2024-07-09T06:48:47Z</time>
      </trkpt>
      <trkpt lat="43.94177" lon="7.41453">
        <ele>781</ele>
        <time>2024-07-09T06:48:48Z</time>
      </trkpt>
      <trkpt lat="43.94179" lon="7.41455">
        <ele>781.2</ele>
        <time>2024-07-09T06:48:49Z</time>
      </trkpt>
      <trkpt lat="43.9418" lon="7.41458">
        <ele>781.4</ele>
        <time>2024-07-09T06:48:50Z</time>
      </trkpt>
      <trkpt lat="43.94182" lon="7.41459">
        <ele>781.4</ele>
        <time>2024-07-09T06:48:51Z</time>
      </trkpt>
      <trkpt lat="43.94183" lon="7.41462">
        <ele>781.4</ele>
        <time>2024-07-09T06:48:52Z</time>
      </trkpt>
      <trkpt lat="43.94185" lon="7.41464">
        <ele>781.4</ele>
        <time>2024-07-09T06:48:53Z</time>
      </trkpt>
      <trkpt lat="43.94186" lon="7.41466">
        <ele>781.8</ele>
        <time>2024-07-09T06:48:54Z</time>
      </trkpt>
      <trkpt lat="43.94188" lon="7.41469">
        <ele>781.8</ele>
        <time>2024-07-09T06:48:55Z</time>
      </trkpt>
      <trkpt lat="43.94189" lon="7.41471">
        <ele>781.8</ele>
        <time>2024-07-09T06:48:56Z</time>
      </trkpt>
      <trkpt lat="43.94191" lon="7.41473">
        <ele>781.8</ele>
        <time>2024-07-09T06:48:57Z</time>
      </trkpt>
      <trkpt lat="43.94192" lon="7.41476">
        <ele>782.4</ele>
        <time>2024-07-09T06:48:58Z</time>
      </trkpt>
      <trkpt lat="43.94193" lon="7.41478">
        <ele>782.4</ele>
        <time>2024-07-09T06:48:59Z</time>
      </trkpt>
      <trkpt lat="43.94195" lon="7.4148">
        <ele>782.4</ele>
        <time>2024-07-09T06:49:00Z</time>
      </trkpt>
      <trkpt lat="43.94196" lon="7.41482">
        <ele>782.4</ele>
        <time>2024-07-09T06:49:01Z</time>
      </trkpt>
      <trkpt lat="43.94197" lon="7.41485">
        <ele>782.6</ele>
        <time>2024-07-09T06:49:02Z</time>
      </trkpt>
      <trkpt lat="43.94198" lon="7.41487">
        <ele>782.8</ele>
        <time>2024-07-09T06:49:03Z</time>
      </trkpt>
      <trkpt lat="43.942" lon="7.41489">
        <ele>782.8</ele>
        <time>2024-07-09T06:49:04Z</time>
      </trkpt>
      <trkpt lat="43.94201" lon="7.41492">
        <ele>782.8</ele>
        <time>2024-07-09T06:49:05Z</time>
      </trkpt>
      <trkpt lat="43.94203" lon="7.41494">
        <ele>782.8</ele>
        <time>2024-07-09T06:49:06Z</time>
      </trkpt>
      <trkpt lat="43.94205" lon="7.41496">
        <ele>783.2</ele>
        <time>2024-07-09T06:49:07Z</time>
      </trkpt>
      <trkpt lat="43.94206" lon="7.41499">
        <ele>783.2</ele>
        <time>2024-07-09T06:49:08Z</time>
      </trkpt>
      <trkpt lat="43.94207" lon="7.41502">
        <ele>783.2</ele>
        <time>2024-07-09T06:49:09Z</time>
      </trkpt>
      <trkpt lat="43.94208" lon="7.41504">
        <ele>783.2</ele>
        <time>2024-07-09T06:49:10Z</time>
      </trkpt>
      <trkpt lat="43.9421" lon="7.41506">
        <ele>783.2</ele>
        <time>2024-07-09T06:49:11Z</time>
      </trkpt>
      <trkpt lat="43.94211" lon="7.41509">
        <ele>783.8</ele>
        <time>2024-07-09T06:49:12Z</time>
      </trkpt>
      <trkpt lat="43.94213" lon="7.41512">
        <ele>783.8</ele>
        <time>2024-07-09T06:49:13Z</time>
      </trkpt>
      <trkpt lat="43.94215" lon="7.41514">
        <ele>783.8</ele>
        <time>2024-07-09T06:49:14Z</time>
      </trkpt>
      <trkpt lat="43.94216" lon="7.41517">
        <ele>783.8</ele>
        <time>2024-07-09T06:49:15Z</time>
      </trkpt>
      <trkpt lat="43.94217" lon="7.41519">
        <ele>783.8</ele>
        <time>2024-07-09T06:49:16Z</time>
      </trkpt>
      <trkpt lat="43.94219" lon="7.41522">
        <ele>784.2</ele>
        <time>2024-07-09T06:49:17Z</time>
      </trkpt>
      <trkpt lat="43.9422" lon="7.41524">
        <ele>784.2</ele>
        <time>2024-07-09T06:49:18Z</time>
      </trkpt>
      <trkpt lat="43.94222" lon="7.41527">
        <ele>784.4</ele>
        <time>2024-07-09T06:49:19Z</time>
      </trkpt>
      <trkpt lat="43.94223" lon="7.4153">
        <ele>784.4</ele>
        <time>2024-07-09T06:49:20Z</time>
      </trkpt>
      <trkpt lat="43.94224" lon="7.41532">
        <ele>784.4</ele>
        <time>2024-07-09T06:49:21Z</time>
      </trkpt>
      <trkpt lat="43.94226" lon="7.41534">
        <ele>784.4</ele>
        <time>2024-07-09T06:49:22Z</time>
      </trkpt>
      <trkpt lat="43.94227" lon="7.41537">
        <ele>784.4</ele>
        <time>2024-07-09T06:49:23Z</time>
      </trkpt>
      <trkpt lat="43.94228" lon="7.41539">
        <ele>784.4</ele>
        <time>2024-07-09T06:49:24Z</time>
      </trkpt>
      <trkpt lat="43.9423" lon="7.41542">
        <ele>785</ele>
        <time>2024-07-09T06:49:25Z</time>
      </trkpt>
      <trkpt lat="43.94231" lon="7.41544">
        <ele>785</ele>
        <time>2024-07-09T06:49:26Z</time>
      </trkpt>
      <trkpt lat="43.94233" lon="7.41547">
        <ele>785</ele>
        <time>2024-07-09T06:49:27Z</time>
      </trkpt>
      <trkpt lat="43.94234" lon="7.41549">
        <ele>785</ele>
        <time>2024-07-09T06:49:28Z</time>
      </trkpt>
      <trkpt lat="43.94235" lon="7.41551">
        <ele>785.6</ele>
        <time>2024-07-09T06:49:29Z</time>
      </trkpt>
      <trkpt lat="43.94236" lon="7.41554">
        <ele>785.8</ele>
        <time>2024-07-09T06:49:30Z</time>
      </trkpt>
      <trkpt lat="43.94238" lon="7.41556">
        <ele>785.8</ele>
        <time>2024-07-09T06:49:31Z</time>
      </trkpt>
      <trkpt lat="43.94239" lon="7.41559">
        <ele>785.8</ele>
        <time>2024-07-09T06:49:32Z</time>
      </trkpt>
      <trkpt lat="43.94241" lon="7.41561">
        <ele>785.8</ele>
        <time>2024-07-09T06:49:33Z</time>
      </trkpt>
      <trkpt lat="43.94242" lon="7.41564">
        <ele>786.2</ele>
        <time>2024-07-09T06:49:34Z</time>
      </trkpt>
      <trkpt lat="43.94243" lon="7.41566">
        <ele>786.4</ele>
        <time>2024-07-09T06:49:35Z</time>
      </trkpt>
      <trkpt lat="43.94245" lon="7.41568">
        <ele>786.4</ele>
        <time>2024-07-09T06:49:36Z</time>
      </trkpt>
      <trkpt lat="43.94246" lon="7.4157">
        <ele>786.4</ele>
        <time>2024-07-09T06:49:37Z</time>
      </trkpt>
      <trkpt lat="43.94248" lon="7.41572">
        <ele>786.6</ele>
        <time>2024-07-09T06:49:38Z</time>
      </trkpt>
      <trkpt lat="43.94249" lon="7.41575">
        <ele>786.8</ele>
        <time>2024-07-09T06:49:39Z</time>
      </trkpt>
      <trkpt lat="43.9425" lon="7.41577">
        <ele>786.8</ele>
        <time>2024-07-09T06:49:40Z</time>
      </trkpt>
      <trkpt lat="43.94252" lon="7.4158">
        <ele>786.8</ele>
        <time>2024-07-09T06:49:41Z</time>
      </trkpt>
      <trkpt lat="43.94253" lon="7.41582">
        <ele>787.2</ele>
        <time>2024-07-09T06:49:42Z</time>
      </trkpt>
      <trkpt lat="43.94255" lon="7.41584">
        <ele>787.2</ele>
        <time>2024-07-09T06:49:43Z</time>
      </trkpt>
      <trkpt lat="43.94257" lon="7.41586">
        <ele>787.2</ele>
        <time>2024-07-09T06:49:44Z</time>
      </trkpt>
      <trkpt lat="43.94258" lon="7.41589">
        <ele>787.2</ele>
        <time>2024-07-09T06:49:45Z</time>
      </trkpt>
      <trkpt lat="43.94259" lon="7.41591">
        <ele>787.2</ele>
        <time>2024-07-09T06:49:46Z</time>
      </trkpt>
      <trkpt lat="43.94261" lon="7.41593">
        <ele>787.6</ele>
        <time>2024-07-09T06:49:47Z</time>
      </trkpt>
      <trkpt lat="43.94263" lon="7.41595">
        <ele>787.6</ele>
        <time>2024-07-09T06:49:48Z</time>
      </trkpt>
      <trkpt lat="43.94264" lon="7.41598">
        <ele>788</ele>
        <time>2024-07-09T06:49:49Z</time>
      </trkpt>
      <trkpt lat="43.94265" lon="7.416">
        <ele>788</ele>
        <time>2024-07-09T06:49:50Z</time>
      </trkpt>
      <trkpt lat="43.94266" lon="7.41603">
        <ele>788.2</ele>
        <time>2024-07-09T06:49:51Z</time>
      </trkpt>
      <trkpt lat="43.94268" lon="7.41606">
        <ele>788.4</ele>
        <time>2024-07-09T06:49:52Z</time>
      </trkpt>
      <trkpt lat="43.94269" lon="7.41608">
        <ele>788.4</ele>
        <time>2024-07-09T06:49:53Z</time>
      </trkpt>
      <trkpt lat="43.94271" lon="7.41611">
        <ele>788.4</ele>
        <time>2024-07-09T06:49:54Z</time>
      </trkpt>
      <trkpt lat="43.94272" lon="7.41613">
        <ele>788.4</ele>
        <time>2024-07-09T06:49:55Z</time>
      </trkpt>
      <trkpt lat="43.94274" lon="7.41615">
        <ele>788.8</ele>
        <time>2024-07-09T06:49:56Z</time>
      </trkpt>
      <trkpt lat="43.94275" lon="7.41617">
        <ele>789</ele>
        <time>2024-07-09T06:49:57Z</time>
      </trkpt>
      <trkpt lat="43.94277" lon="7.41619">
        <ele>789</ele>
        <time>2024-07-09T06:49:58Z</time>
      </trkpt>
      <trkpt lat="43.94279" lon="7.41621">
        <ele>789</ele>
        <time>2024-07-09T06:49:59Z</time>
      </trkpt>
      <trkpt lat="43.94281" lon="7.41622">
        <ele>789.4</ele>
        <time>2024-07-09T06:50:00Z</time>
      </trkpt>
      <trkpt lat="43.94283" lon="7.41622">
        <ele>789.4</ele>
        <time>2024-07-09T06:50:01Z</time>
      </trkpt>
      <trkpt lat="43.94285" lon="7.41622">
        <ele>789.4</ele>
        <time>2024-07-09T06:50:02Z</time>
      </trkpt>
      <trkpt lat="43.94287" lon="7.41621">
        <ele>789.4</ele>
        <time>2024-07-09T06:50:03Z</time>
      </trkpt>
      <trkpt lat="43.94289" lon="7.4162">
        <ele>790</ele>
        <time>2024-07-09T06:50:04Z</time>
      </trkpt>
      <trkpt lat="43.94291" lon="7.41619">
        <ele>790</ele>
        <time>2024-07-09T06:50:05Z</time>
      </trkpt>
      <trkpt lat="43.94293" lon="7.41616">
        <ele>790</ele>
        <time>2024-07-09T06:50:06Z</time>
      </trkpt>
      <trkpt lat="43.94294" lon="7.41614">
        <ele>790.2</ele>
        <time>2024-07-09T06:50:07Z</time>
      </trkpt>
      <trkpt lat="43.94295" lon="7.41612">
        <ele>790.2</ele>
        <time>2024-07-09T06:50:08Z</time>
      </trkpt>
      <trkpt lat="43.94296" lon="7.4161">
        <ele>790.2</ele>
        <time>2024-07-09T06:50:09Z</time>
      </trkpt>
      <trkpt lat="43.94297" lon="7.41607">
        <ele>790.8</ele>
        <time>2024-07-09T06:50:10Z</time>
      </trkpt>
      <trkpt lat="43.94297" lon="7.41605">
        <ele>791</ele>
        <time>2024-07-09T06:50:11Z</time>
      </trkpt>
      <trkpt lat="43.94298" lon="7.41602">
        <ele>791</ele>
        <time>2024-07-09T06:50:12Z</time>
      </trkpt>
      <trkpt lat="43.94298" lon="7.41599">
        <ele>791</ele>
        <time>2024-07-09T06:50:13Z</time>
      </trkpt>
      <trkpt lat="43.94298" lon="7.41597">
        <ele>791.6</ele>
        <time>2024-07-09T06:50:14Z</time>
      </trkpt>
      <trkpt lat="43.94298" lon="7.41594">
        <ele>791.8</ele>
        <time>2024-07-09T06:50:15Z</time>
      </trkpt>
      <trkpt lat="43.94298" lon="7.41591">
        <ele>791.8</ele>
        <time>2024-07-09T06:50:16Z</time>
      </trkpt>
      <trkpt lat="43.94298" lon="7.41589">
        <ele>791.8</ele>
        <time>2024-07-09T06:50:17Z</time>
      </trkpt>
      <trkpt lat="43.94298" lon="7.41586">
        <ele>791.8</ele>
        <time>2024-07-09T06:50:18Z</time>
      </trkpt>
      <trkpt lat="43.94297" lon="7.41584">
        <ele>792.2</ele>
        <time>2024-07-09T06:50:19Z</time>
      </trkpt>
      <trkpt lat="43.94297" lon="7.41581">
        <ele>792.4</ele>
        <time>2024-07-09T06:50:20Z</time>
      </trkpt>
      <trkpt lat="43.94296" lon="7.41579">
        <ele>792.4</ele>
        <time>2024-07-09T06:50:21Z</time>
      </trkpt>
      <trkpt lat="43.94296" lon="7.41576">
        <ele>792.4</ele>
        <time>2024-07-09T06:50:22Z</time>
      </trkpt>
      <trkpt lat="43.94295" lon="7.41574">
        <ele>792.8</ele>
        <time>2024-07-09T06:50:23Z</time>
      </trkpt>
      <trkpt lat="43.94294" lon="7.41571">
        <ele>793</ele>
        <time>2024-07-09T06:50:24Z</time>
      </trkpt>
      <trkpt lat="43.94294" lon="7.41569">
        <ele>793</ele>
        <time>2024-07-09T06:50:25Z</time>
      </trkpt>
      <trkpt lat="43.94294" lon="7.41567">
        <ele>793</ele>
        <time>2024-07-09T06:50:26Z</time>
      </trkpt>
      <trkpt lat="43.94293" lon="7.41564">
        <ele>793.6</ele>
        <time>2024-07-09T06:50:27Z</time>
      </trkpt>
      <trkpt lat="43.94293" lon="7.41562">
        <ele>793.6</ele>
        <time>2024-07-09T06:50:28Z</time>
      </trkpt>
      <trkpt lat="43.94293" lon="7.4156">
        <ele>793.6</ele>
        <time>2024-07-09T06:50:29Z</time>
      </trkpt>
      <trkpt lat="43.94292" lon="7.41557">
        <ele>793.6</ele>
        <time>2024-07-09T06:50:30Z</time>
      </trkpt>
      <trkpt lat="43.94292" lon="7.41555">
        <ele>793.6</ele>
        <time>2024-07-09T06:50:31Z</time>
      </trkpt>
      <trkpt lat="43.94292" lon="7.41553">
        <ele>794.2</ele>
        <time>2024-07-09T06:50:32Z</time>
      </trkpt>
      <trkpt lat="43.94292" lon="7.41551">
        <ele>794.4</ele>
        <time>2024-07-09T06:50:33Z</time>
      </trkpt>
      <trkpt lat="43.94292" lon="7.41549">
        <ele>794.4</ele>
        <time>2024-07-09T06:50:34Z</time>
      </trkpt>
      <trkpt lat="43.94292" lon="7.41547">
        <ele>794.4</ele>
        <time>2024-07-09T06:50:35Z</time>
      </trkpt>
      <trkpt lat="43.94292" lon="7.41544">
        <ele>794.8</ele>
        <time>2024-07-09T06:50:36Z</time>
      </trkpt>
      <trkpt lat="43.94292" lon="7.41542">
        <ele>794.8</ele>
        <time>2024-07-09T06:50:37Z</time>
      </trkpt>
      <trkpt lat="43.94292" lon="7.4154">
        <ele>795</ele>
        <time>2024-07-09T06:50:38Z</time>
      </trkpt>
      <trkpt lat="43.94292" lon="7.41537">
        <ele>795</ele>
        <time>2024-07-09T06:50:39Z</time>
      </trkpt>
      <trkpt lat="43.94291" lon="7.41535">
        <ele>795.4</ele>
        <time>2024-07-09T06:50:40Z</time>
      </trkpt>
      <trkpt lat="43.9429" lon="7.41533">
        <ele>795.4</ele>
        <time>2024-07-09T06:50:41Z</time>
      </trkpt>
      <trkpt lat="43.9429" lon="7.4153">
        <ele>795.6</ele>
        <time>2024-07-09T06:50:42Z</time>
      </trkpt>
      <trkpt lat="43.94289" lon="7.41528">
        <ele>795.6</ele>
        <time>2024-07-09T06:50:43Z</time>
      </trkpt>
      <trkpt lat="43.94289" lon="7.41525">
        <ele>795.6</ele>
        <time>2024-07-09T06:50:44Z</time>
      </trkpt>
      <trkpt lat="43.94289" lon="7.41524">
        <ele>796.2</ele>
        <time>2024-07-09T06:50:45Z</time>
      </trkpt>
      <trkpt lat="43.9429" lon="7.41521">
        <ele>796.2</ele>
        <time>2024-07-09T06:50:46Z</time>
      </trkpt>
      <trkpt lat="43.9429" lon="7.41519">
        <ele>796.2</ele>
        <time>2024-07-09T06:50:47Z</time>
      </trkpt>
      <trkpt lat="43.9429" lon="7.41517">
        <ele>796.2</ele>
        <time>2024-07-09T06:50:48Z</time>
      </trkpt>
      <trkpt lat="43.94289" lon="7.41514">
        <ele>796.2</ele>
        <time>2024-07-09T06:50:49Z</time>
      </trkpt>
      <trkpt lat="43.94289" lon="7.41512">
        <ele>796.8</ele>
        <time>2024-07-09T06:50:50Z</time>
      </trkpt>
      <trkpt lat="43.94289" lon="7.4151">
        <ele>797</ele>
        <time>2024-07-09T06:50:51Z</time>
      </trkpt>
      <trkpt lat="43.94288" lon="7.41508">
        <ele>797</ele>
        <time>2024-07-09T06:50:52Z</time>
      </trkpt>
      <trkpt lat="43.94288" lon="7.41505">
        <ele>797</ele>
        <time>2024-07-09T06:50:53Z</time>
      </trkpt>
      <trkpt lat="43.94288" lon="7.41503">
        <ele>797</ele>
        <time>2024-07-09T06:50:54Z</time>
      </trkpt>
      <trkpt lat="43.94288" lon="7.41501">
        <ele>797.6</ele>
        <time>2024-07-09T06:50:55Z</time>
      </trkpt>
      <trkpt lat="43.94287" lon="7.41499">
        <ele>797.8</ele>
        <time>2024-07-09T06:50:56Z</time>
      </trkpt>
      <trkpt lat="43.94287" lon="7.41497">
        <ele>797.8</ele>
        <time>2024-07-09T06:50:57Z</time>
      </trkpt>
      <trkpt lat="43.94286" lon="7.41494">
        <ele>797.8</ele>
        <time>2024-07-09T06:50:58Z</time>
      </trkpt>
      <trkpt lat="43.94285" lon="7.41492">
        <ele>797.8</ele>
        <time>2024-07-09T06:50:59Z</time>
      </trkpt>
      <trkpt lat="43.94285" lon="7.4149">
        <ele>797.8</ele>
        <time>2024-07-09T06:51:00Z</time>
      </trkpt>
      <trkpt lat="43.94284" lon="7.41488">
        <ele>797.8</ele>
        <time>2024-07-09T06:51:01Z</time>
      </trkpt>
      <trkpt lat="43.94283" lon="7.41486">
        <ele>797.8</ele>
        <time>2024-07-09T06:51:02Z</time>
      </trkpt>
      <trkpt lat="43.94281" lon="7.41484">
        <ele>797.8</ele>
        <time>2024-07-09T06:51:03Z</time>
      </trkpt>
      <trkpt lat="43.9428" lon="7.41482">
        <ele>798.2</ele>
        <time>2024-07-09T06:51:04Z</time>
      </trkpt>
      <trkpt lat="43.9428" lon="7.4148">
        <ele>798.2</ele>
        <time>2024-07-09T06:51:05Z</time>
      </trkpt>
      <trkpt lat="43.94279" lon="7.41478">
        <ele>798.2</ele>
        <time>2024-07-09T06:51:06Z</time>
      </trkpt>
      <trkpt lat="43.94278" lon="7.41476">
        <ele>798.2</ele>
        <time>2024-07-09T06:51:07Z</time>
      </trkpt>
      <trkpt lat="43.94277" lon="7.41474">
        <ele>798.6</ele>
        <time>2024-07-09T06:51:08Z</time>
      </trkpt>
      <trkpt lat="43.94275" lon="7.41471">
        <ele>798.8</ele>
        <time>2024-07-09T06:51:09Z</time>
      </trkpt>
      <trkpt lat="43.94275" lon="7.41469">
        <ele>798.8</ele>
        <time>2024-07-09T06:51:10Z</time>
      </trkpt>
      <trkpt lat="43.94273" lon="7.41468">
        <ele>798.8</ele>
        <time>2024-07-09T06:51:11Z</time>
      </trkpt>
      <trkpt lat="43.94272" lon="7.41466">
        <ele>798.8</ele>
        <time>2024-07-09T06:51:12Z</time>
      </trkpt>
      <trkpt lat="43.9427" lon="7.41464">
        <ele>798.8</ele>
        <time>2024-07-09T06:51:13Z</time>
      </trkpt>
      <trkpt lat="43.94269" lon="7.41461">
        <ele>799</ele>
        <time>2024-07-09T06:51:14Z</time>
      </trkpt>
      <trkpt lat="43.94267" lon="7.41459">
        <ele>799</ele>
        <time>2024-07-09T06:51:15Z</time>
      </trkpt>
      <trkpt lat="43.94266" lon="7.41456">
        <ele>799</ele>
        <time>2024-07-09T06:51:16Z</time>
      </trkpt>
      <trkpt lat="43.94265" lon="7.41454">
        <ele>799</ele>
        <time>2024-07-09T06:51:17Z</time>
      </trkpt>
      <trkpt lat="43.94263" lon="7.41451">
        <ele>799.2</ele>
        <time>2024-07-09T06:51:18Z</time>
      </trkpt>
      <trkpt lat="43.94262" lon="7.41449">
        <ele>799.2</ele>
        <time>2024-07-09T06:51:19Z</time>
      </trkpt>
      <trkpt lat="43.9426" lon="7.41447">
        <ele>799.2</ele>
        <time>2024-07-09T06:51:20Z</time>
      </trkpt>
      <trkpt lat="43.94259" lon="7.41445">
        <ele>799.4</ele>
        <time>2024-07-09T06:51:21Z</time>
      </trkpt>
      <trkpt lat="43.94257" lon="7.41443">
        <ele>799.4</ele>
        <time>2024-07-09T06:51:22Z</time>
      </trkpt>
      <trkpt lat="43.94256" lon="7.4144">
        <ele>799.4</ele>
        <time>2024-07-09T06:51:23Z</time>
      </trkpt>
      <trkpt lat="43.94254" lon="7.41438">
        <ele>799.4</ele>
        <time>2024-07-09T06:51:24Z</time>
      </trkpt>
      <trkpt lat="43.94253" lon="7.41436">
        <ele>799.4</ele>
        <time>2024-07-09T06:51:25Z</time>
      </trkpt>
      <trkpt lat="43.94251" lon="7.41433">
        <ele>799.8</ele>
        <time>2024-07-09T06:51:26Z</time>
      </trkpt>
      <trkpt lat="43.9425" lon="7.4143">
        <ele>799.8</ele>
        <time>2024-07-09T06:51:27Z</time>
      </trkpt>
      <trkpt lat="43.94248" lon="7.41428">
        <ele>799.8</ele>
        <time>2024-07-09T06:51:28Z</time>
      </trkpt>
      <trkpt lat="43.94246" lon="7.41426">
        <ele>799.8</ele>
        <time>2024-07-09T06:51:29Z</time>
      </trkpt>
      <trkpt lat="43.94243" lon="7.41424">
        <ele>799.8</ele>
        <time>2024-07-09T06:51:30Z</time>
      </trkpt>
      <trkpt lat="43.94241" lon="7.41422">
        <ele>800</ele>
        <time>2024-07-09T06:51:31Z</time>
      </trkpt>
      <trkpt lat="43.94239" lon="7.4142">
        <ele>800.4</ele>
        <time>2024-07-09T06:51:32Z</time>
      </trkpt>
      <trkpt lat="43.94237" lon="7.41417">
        <ele>800.4</ele>
        <time>2024-07-09T06:51:33Z</time>
      </trkpt>
      <trkpt lat="43.94236" lon="7.41415">
        <ele>800.4</ele>
        <time>2024-07-09T06:51:34Z</time>
      </trkpt>
      <trkpt lat="43.94236" lon="7.41411">
        <ele>800.4</ele>
        <time>2024-07-09T06:51:35Z</time>
      </trkpt>
      <trkpt lat="43.94236" lon="7.41408">
        <ele>800.4</ele>
        <time>2024-07-09T06:51:36Z</time>
      </trkpt>
      <trkpt lat="43.94238" lon="7.41406">
        <ele>800.6</ele>
        <time>2024-07-09T06:51:37Z</time>
      </trkpt>
      <trkpt lat="43.9424" lon="7.41407">
        <ele>800.6</ele>
        <time>2024-07-09T06:51:38Z</time>
      </trkpt>
      <trkpt lat="43.94242" lon="7.41408">
        <ele>800.6</ele>
        <time>2024-07-09T06:51:39Z</time>
      </trkpt>
      <trkpt lat="43.94244" lon="7.41411">
        <ele>801.6</ele>
        <time>2024-07-09T06:51:40Z</time>
      </trkpt>
      <trkpt lat="43.94246" lon="7.41413">
        <ele>801.8</ele>
        <time>2024-07-09T06:51:41Z</time>
      </trkpt>
      <trkpt lat="43.94248" lon="7.41416">
        <ele>801.8</ele>
        <time>2024-07-09T06:51:42Z</time>
      </trkpt>
      <trkpt lat="43.9425" lon="7.41418">
        <ele>801.8</ele>
        <time>2024-07-09T06:51:43Z</time>
      </trkpt>
      <trkpt lat="43.94251" lon="7.41421">
        <ele>801.8</ele>
        <time>2024-07-09T06:51:44Z</time>
      </trkpt>
      <trkpt lat="43.94253" lon="7.41424">
        <ele>802.2</ele>
        <time>2024-07-09T06:51:45Z</time>
      </trkpt>
      <trkpt lat="43.94254" lon="7.41427">
        <ele>802.4</ele>
        <time>2024-07-09T06:51:46Z</time>
      </trkpt>
      <trkpt lat="43.94256" lon="7.4143">
        <ele>802.4</ele>
        <time>2024-07-09T06:51:47Z</time>
      </trkpt>
      <trkpt lat="43.94258" lon="7.41433">
        <ele>802.4</ele>
        <time>2024-07-09T06:51:48Z</time>
      </trkpt>
      <trkpt lat="43.9426" lon="7.41435">
        <ele>802.4</ele>
        <time>2024-07-09T06:51:49Z</time>
      </trkpt>
      <trkpt lat="43.94261" lon="7.41438">
        <ele>803</ele>
        <time>2024-07-09T06:51:50Z</time>
      </trkpt>
      <trkpt lat="43.94263" lon="7.41441">
        <ele>803</ele>
        <time>2024-07-09T06:51:51Z</time>
      </trkpt>
      <trkpt lat="43.94265" lon="7.41444">
        <ele>803</ele>
        <time>2024-07-09T06:51:52Z</time>
      </trkpt>
      <trkpt lat="43.94266" lon="7.41447">
        <ele>803</ele>
        <time>2024-07-09T06:51:53Z</time>
      </trkpt>
      <trkpt lat="43.94268" lon="7.4145">
        <ele>803.4</ele>
        <time>2024-07-09T06:51:54Z</time>
      </trkpt>
      <trkpt lat="43.9427" lon="7.41453">
        <ele>803.4</ele>
        <time>2024-07-09T06:51:55Z</time>
      </trkpt>
      <trkpt lat="43.94272" lon="7.41456">
        <ele>803.4</ele>
        <time>2024-07-09T06:51:56Z</time>
      </trkpt>
      <trkpt lat="43.94273" lon="7.41458">
        <ele>803.4</ele>
        <time>2024-07-09T06:51:57Z</time>
      </trkpt>
      <trkpt lat="43.94276" lon="7.41461">
        <ele>803.8</ele>
        <time>2024-07-09T06:51:58Z</time>
      </trkpt>
      <trkpt lat="43.94277" lon="7.41464">
        <ele>804</ele>
        <time>2024-07-09T06:51:59Z</time>
      </trkpt>
      <trkpt lat="43.94279" lon="7.41466">
        <ele>804</ele>
        <time>2024-07-09T06:52:00Z</time>
      </trkpt>
      <trkpt lat="43.94281" lon="7.41469">
        <ele>804</ele>
        <time>2024-07-09T06:52:01Z</time>
      </trkpt>
      <trkpt lat="43.94283" lon="7.41472">
        <ele>804.2</ele>
        <time>2024-07-09T06:52:02Z</time>
      </trkpt>
      <trkpt lat="43.94285" lon="7.41475">
        <ele>804.2</ele>
        <time>2024-07-09T06:52:03Z</time>
      </trkpt>
      <trkpt lat="43.94287" lon="7.41477">
        <ele>804</ele>
        <time>2024-07-09T06:52:04Z</time>
      </trkpt>
      <trkpt lat="43.94289" lon="7.4148">
        <ele>804</ele>
        <time>2024-07-09T06:52:05Z</time>
      </trkpt>
      <trkpt lat="43.94291" lon="7.41482">
        <ele>804.4</ele>
        <time>2024-07-09T06:52:06Z</time>
      </trkpt>
      <trkpt lat="43.94293" lon="7.41485">
        <ele>804.4</ele>
        <time>2024-07-09T06:52:07Z</time>
      </trkpt>
      <trkpt lat="43.94295" lon="7.41487">
        <ele>804.6</ele>
        <time>2024-07-09T06:52:08Z</time>
      </trkpt>
      <trkpt lat="43.94297" lon="7.4149">
        <ele>804.6</ele>
        <time>2024-07-09T06:52:09Z</time>
      </trkpt>
      <trkpt lat="43.94299" lon="7.41493">
        <ele>804.6</ele>
        <time>2024-07-09T06:52:10Z</time>
      </trkpt>
      <trkpt lat="43.94301" lon="7.41497">
        <ele>804.6</ele>
        <time>2024-07-09T06:52:11Z</time>
      </trkpt>
      <trkpt lat="43.94302" lon="7.41501">
        <ele>804.6</ele>
        <time>2024-07-09T06:52:12Z</time>
      </trkpt>
      <trkpt lat="43.94304" lon="7.41505">
        <ele>804.8</ele>
        <time>2024-07-09T06:52:13Z</time>
      </trkpt>
      <trkpt lat="43.94306" lon="7.41509">
        <ele>804.8</ele>
        <time>2024-07-09T06:52:14Z</time>
      </trkpt>
      <trkpt lat="43.94308" lon="7.41513">
        <ele>804.8</ele>
        <time>2024-07-09T06:52:15Z</time>
      </trkpt>
      <trkpt lat="43.94309" lon="7.41517">
        <ele>805</ele>
        <time>2024-07-09T06:52:16Z</time>
      </trkpt>
      <trkpt lat="43.94311" lon="7.41521">
        <ele>805</ele>
        <time>2024-07-09T06:52:17Z</time>
      </trkpt>
      <trkpt lat="43.94312" lon="7.41526">
        <ele>805</ele>
        <time>2024-07-09T06:52:18Z</time>
      </trkpt>
      <trkpt lat="43.94314" lon="7.4153">
        <ele>805</ele>
        <time>2024-07-09T06:52:19Z</time>
      </trkpt>
      <trkpt lat="43.94315" lon="7.41535">
        <ele>805</ele>
        <time>2024-07-09T06:52:20Z</time>
      </trkpt>
      <trkpt lat="43.94316" lon="7.41539">
        <ele>805.2</ele>
        <time>2024-07-09T06:52:21Z</time>
      </trkpt>
      <trkpt lat="43.94317" lon="7.41544">
        <ele>805.4</ele>
        <time>2024-07-09T06:52:22Z</time>
      </trkpt>
      <trkpt lat="43.94318" lon="7.41549">
        <ele>805.4</ele>
        <time>2024-07-09T06:52:23Z</time>
      </trkpt>
      <trkpt lat="43.94319" lon="7.41553">
        <ele>805.4</ele>
        <time>2024-07-09T06:52:24Z</time>
      </trkpt>
      <trkpt lat="43.94319" lon="7.41558">
        <ele>805.4</ele>
        <time>2024-07-09T06:52:25Z</time>
      </trkpt>
      <trkpt lat="43.9432" lon="7.41563">
        <ele>805.8</ele>
        <time>2024-07-09T06:52:26Z</time>
      </trkpt>
      <trkpt lat="43.9432" lon="7.41568">
        <ele>805.8</ele>
        <time>2024-07-09T06:52:27Z</time>
      </trkpt>
      <trkpt lat="43.94321" lon="7.41572">
        <ele>805.8</ele>
        <time>2024-07-09T06:52:28Z</time>
      </trkpt>
      <trkpt lat="43.94322" lon="7.41577">
        <ele>805.8</ele>
        <time>2024-07-09T06:52:29Z</time>
      </trkpt>
      <trkpt lat="43.94323" lon="7.41582">
        <ele>805.8</ele>
        <time>2024-07-09T06:52:30Z</time>
      </trkpt>
      <trkpt lat="43.94323" lon="7.41587">
        <ele>806</ele>
        <time>2024-07-09T06:52:31Z</time>
      </trkpt>
      <trkpt lat="43.94324" lon="7.41592">
        <ele>806</ele>
        <time>2024-07-09T06:52:32Z</time>
      </trkpt>
      <trkpt lat="43.94325" lon="7.41597">
        <ele>806</ele>
        <time>2024-07-09T06:52:33Z</time>
      </trkpt>
      <trkpt lat="43.94326" lon="7.41601">
        <ele>806</ele>
        <time>2024-07-09T06:52:34Z</time>
      </trkpt>
      <trkpt lat="43.94327" lon="7.41606">
        <ele>806</ele>
        <time>2024-07-09T06:52:35Z</time>
      </trkpt>
      <trkpt lat="43.94327" lon="7.4161">
        <ele>806.2</ele>
        <time>2024-07-09T06:52:36Z</time>
      </trkpt>
      <trkpt lat="43.94328" lon="7.41613">
        <ele>806.2</ele>
        <time>2024-07-09T06:52:37Z</time>
      </trkpt>
      <trkpt lat="43.94328" lon="7.41618">
        <ele>806.4</ele>
        <time>2024-07-09T06:52:38Z</time>
      </trkpt>
      <trkpt lat="43.94329" lon="7.41623">
        <ele>806.4</ele>
        <time>2024-07-09T06:52:39Z</time>
      </trkpt>
      <trkpt lat="43.9433" lon="7.41627">
        <ele>806.4</ele>
        <time>2024-07-09T06:52:40Z</time>
      </trkpt>
      <trkpt lat="43.94331" lon="7.41631">
        <ele>806.4</ele>
        <time>2024-07-09T06:52:41Z</time>
      </trkpt>
      <trkpt lat="43.94332" lon="7.41636">
        <ele>806.4</ele>
        <time>2024-07-09T06:52:42Z</time>
      </trkpt>
      <trkpt lat="43.94332" lon="7.41641">
        <ele>806.6</ele>
        <time>2024-07-09T06:52:43Z</time>
      </trkpt>
      <trkpt lat="43.94333" lon="7.41646">
        <ele>806.6</ele>
        <time>2024-07-09T06:52:44Z</time>
      </trkpt>
      <trkpt lat="43.94334" lon="7.4165">
        <ele>806.6</ele>
        <time>2024-07-09T06:52:45Z</time>
      </trkpt>
      <trkpt lat="43.94335" lon="7.41655">
        <ele>806.6</ele>
        <time>2024-07-09T06:52:46Z</time>
      </trkpt>
      <trkpt lat="43.94335" lon="7.4166">
        <ele>807.2</ele>
        <time>2024-07-09T06:52:47Z</time>
      </trkpt>
      <trkpt lat="43.94336" lon="7.41664">
        <ele>807</ele>
        <time>2024-07-09T06:52:48Z</time>
      </trkpt>
      <trkpt lat="43.94336" lon="7.41669">
        <ele>807</ele>
        <time>2024-07-09T06:52:49Z</time>
      </trkpt>
      <trkpt lat="43.94337" lon="7.41673">
        <ele>807</ele>
        <time>2024-07-09T06:52:50Z</time>
      </trkpt>
      <trkpt lat="43.94338" lon="7.41677">
        <ele>807.4</ele>
        <time>2024-07-09T06:52:51Z</time>
      </trkpt>
      <trkpt lat="43.94339" lon="7.41681">
        <ele>807.6</ele>
        <time>2024-07-09T06:52:52Z</time>
      </trkpt>
      <trkpt lat="43.9434" lon="7.41684">
        <ele>807.6</ele>
        <time>2024-07-09T06:52:53Z</time>
      </trkpt>
      <trkpt lat="43.94342" lon="7.41688">
        <ele>807.6</ele>
        <time>2024-07-09T06:52:54Z</time>
      </trkpt>
      <trkpt lat="43.94344" lon="7.4169">
        <ele>807.6</ele>
        <time>2024-07-09T06:52:55Z</time>
      </trkpt>
      <trkpt lat="43.94346" lon="7.41693">
        <ele>807.6</ele>
        <time>2024-07-09T06:52:56Z</time>
      </trkpt>
      <trkpt lat="43.94348" lon="7.41696">
        <ele>808</ele>
        <time>2024-07-09T06:52:57Z</time>
      </trkpt>
      <trkpt lat="43.9435" lon="7.41699">
        <ele>808.2</ele>
        <time>2024-07-09T06:52:58Z</time>
      </trkpt>
      <trkpt lat="43.94352" lon="7.41701">
        <ele>808.2</ele>
        <time>2024-07-09T06:52:59Z</time>
      </trkpt>
      <trkpt lat="43.94355" lon="7.41703">
        <ele>808.2</ele>
        <time>2024-07-09T06:53:00Z</time>
      </trkpt>
      <trkpt lat="43.94358" lon="7.41705">
        <ele>808.4</ele>
        <time>2024-07-09T06:53:01Z</time>
      </trkpt>
      <trkpt lat="43.9436" lon="7.41706">
        <ele>808.6</ele>
        <time>2024-07-09T06:53:02Z</time>
      </trkpt>
      <trkpt lat="43.94363" lon="7.41707">
        <ele>808.6</ele>
        <time>2024-07-09T06:53:03Z</time>
      </trkpt>
      <trkpt lat="43.94366" lon="7.41708">
        <ele>808.6</ele>
        <time>2024-07-09T06:53:04Z</time>
      </trkpt>
      <trkpt lat="43.94369" lon="7.41709">
        <ele>808.6</ele>
        <time>2024-07-09T06:53:05Z</time>
      </trkpt>
      <trkpt lat="43.94372" lon="7.41711">
        <ele>808.6</ele>
        <time>2024-07-09T06:53:06Z</time>
      </trkpt>
      <trkpt lat="43.94375" lon="7.41712">
        <ele>808.8</ele>
        <time>2024-07-09T06:53:07Z</time>
      </trkpt>
      <trkpt lat="43.94377" lon="7.41715">
        <ele>808.8</ele>
        <time>2024-07-09T06:53:08Z</time>
      </trkpt>
      <trkpt lat="43.9438" lon="7.41718">
        <ele>808.8</ele>
        <time>2024-07-09T06:53:09Z</time>
      </trkpt>
      <trkpt lat="43.94384" lon="7.41719">
        <ele>809.2</ele>
        <time>2024-07-09T06:53:10Z</time>
      </trkpt>
      <trkpt lat="43.94387" lon="7.41721">
        <ele>809.2</ele>
        <time>2024-07-09T06:53:11Z</time>
      </trkpt>
      <trkpt lat="43.9439" lon="7.41723">
        <ele>809.2</ele>
        <time>2024-07-09T06:53:12Z</time>
      </trkpt>
      <trkpt lat="43.94393" lon="7.41725">
        <ele>809.2</ele>
        <time>2024-07-09T06:53:13Z</time>
      </trkpt>
      <trkpt lat="43.94397" lon="7.41726">
        <ele>809.2</ele>
        <time>2024-07-09T06:53:14Z</time>
      </trkpt>
      <trkpt lat="43.944" lon="7.41728">
        <ele>809.2</ele>
        <time>2024-07-09T06:53:15Z</time>
      </trkpt>
      <trkpt lat="43.94403" lon="7.41732">
        <ele>809.2</ele>
        <time>2024-07-09T06:53:16Z</time>
      </trkpt>
      <trkpt lat="43.94406" lon="7.41735">
        <ele>809.2</ele>
        <time>2024-07-09T06:53:17Z</time>
      </trkpt>
      <trkpt lat="43.94408" lon="7.41738">
        <ele>809.2</ele>
        <time>2024-07-09T06:53:18Z</time>
      </trkpt>
      <trkpt lat="43.9441" lon="7.41742">
        <ele>809.6</ele>
        <time>2024-07-09T06:53:19Z</time>
      </trkpt>
      <trkpt lat="43.94412" lon="7.41746">
        <ele>809.8</ele>
        <time>2024-07-09T06:53:20Z</time>
      </trkpt>
      <trkpt lat="43.94413" lon="7.4175">
        <ele>809.8</ele>
        <time>2024-07-09T06:53:21Z</time>
      </trkpt>
      <trkpt lat="43.94415" lon="7.41753">
        <ele>809.8</ele>
        <time>2024-07-09T06:53:22Z</time>
      </trkpt>
      <trkpt lat="43.94417" lon="7.41757">
        <ele>810.2</ele>
        <time>2024-07-09T06:53:23Z</time>
      </trkpt>
      <trkpt lat="43.94418" lon="7.41761">
        <ele>810.4</ele>
        <time>2024-07-09T06:53:24Z</time>
      </trkpt>
      <trkpt lat="43.9442" lon="7.41764">
        <ele>810.4</ele>
        <time>2024-07-09T06:53:25Z</time>
      </trkpt>
      <trkpt lat="43.94422" lon="7.41767">
        <ele>810.4</ele>
        <time>2024-07-09T06:53:26Z</time>
      </trkpt>
      <trkpt lat="43.94424" lon="7.4177">
        <ele>810.8</ele>
        <time>2024-07-09T06:53:27Z</time>
      </trkpt>
      <trkpt lat="43.94427" lon="7.41773">
        <ele>810.8</ele>
        <time>2024-07-09T06:53:28Z</time>
      </trkpt>
      <trkpt lat="43.94429" lon="7.41776">
        <ele>810.6</ele>
        <time>2024-07-09T06:53:29Z</time>
      </trkpt>
      <trkpt lat="43.94431" lon="7.4178">
        <ele>810.6</ele>
        <time>2024-07-09T06:53:30Z</time>
      </trkpt>
      <trkpt lat="43.94433" lon="7.41782">
        <ele>810.6</ele>
        <time>2024-07-09T06:53:31Z</time>
      </trkpt>
      <trkpt lat="43.94436" lon="7.41785">
        <ele>811</ele>
        <time>2024-07-09T06:53:32Z</time>
      </trkpt>
      <trkpt lat="43.94439" lon="7.41787">
        <ele>811</ele>
        <time>2024-07-09T06:53:33Z</time>
      </trkpt>
      <trkpt lat="43.94441" lon="7.4179">
        <ele>811</ele>
        <time>2024-07-09T06:53:34Z</time>
      </trkpt>
      <trkpt lat="43.94444" lon="7.41793">
        <ele>811</ele>
        <time>2024-07-09T06:53:35Z</time>
      </trkpt>
      <trkpt lat="43.94447" lon="7.41797">
        <ele>811.2</ele>
        <time>2024-07-09T06:53:36Z</time>
      </trkpt>
      <trkpt lat="43.9445" lon="7.41801">
        <ele>811.2</ele>
        <time>2024-07-09T06:53:37Z</time>
      </trkpt>
      <trkpt lat="43.94453" lon="7.41805">
        <ele>811.2</ele>
        <time>2024-07-09T06:53:38Z</time>
      </trkpt>
      <trkpt lat="43.94456" lon="7.4181">
        <ele>811.2</ele>
        <time>2024-07-09T06:53:39Z</time>
      </trkpt>
      <trkpt lat="43.94458" lon="7.41813">
        <ele>811.2</ele>
        <time>2024-07-09T06:53:40Z</time>
      </trkpt>
      <trkpt lat="43.9446" lon="7.41817">
        <ele>811.2</ele>
        <time>2024-07-09T06:53:41Z</time>
      </trkpt>
      <trkpt lat="43.94463" lon="7.4182">
        <ele>811.2</ele>
        <time>2024-07-09T06:53:42Z</time>
      </trkpt>
      <trkpt lat="43.94465" lon="7.41824">
        <ele>811.6</ele>
        <time>2024-07-09T06:53:43Z</time>
      </trkpt>
      <trkpt lat="43.94468" lon="7.41828">
        <ele>811.6</ele>
        <time>2024-07-09T06:53:44Z</time>
      </trkpt>
      <trkpt lat="43.94471" lon="7.41831">
        <ele>811.6</ele>
        <time>2024-07-09T06:53:45Z</time>
      </trkpt>
      <trkpt lat="43.94474" lon="7.41834">
        <ele>811.6</ele>
        <time>2024-07-09T06:53:46Z</time>
      </trkpt>
      <trkpt lat="43.94478" lon="7.41836">
        <ele>811.8</ele>
        <time>2024-07-09T06:53:47Z</time>
      </trkpt>
      <trkpt lat="43.94481" lon="7.41838">
        <ele>811.8</ele>
        <time>2024-07-09T06:53:48Z</time>
      </trkpt>
      <trkpt lat="43.94485" lon="7.4184">
        <ele>811.8</ele>
        <time>2024-07-09T06:53:49Z</time>
      </trkpt>
      <trkpt lat="43.94489" lon="7.41841">
        <ele>811.8</ele>
        <time>2024-07-09T06:53:50Z</time>
      </trkpt>
      <trkpt lat="43.94493" lon="7.41841">
        <ele>812.2</ele>
        <time>2024-07-09T06:53:51Z</time>
      </trkpt>
      <trkpt lat="43.94496" lon="7.41841">
        <ele>812.2</ele>
        <time>2024-07-09T06:53:52Z</time>
      </trkpt>
      <trkpt lat="43.945" lon="7.4184">
        <ele>812.2</ele>
        <time>2024-07-09T06:53:53Z</time>
      </trkpt>
      <trkpt lat="43.94504" lon="7.41839">
        <ele>812.2</ele>
        <time>2024-07-09T06:53:54Z</time>
      </trkpt>
      <trkpt lat="43.94507" lon="7.41837">
        <ele>812.2</ele>
        <time>2024-07-09T06:53:55Z</time>
      </trkpt>
      <trkpt lat="43.94511" lon="7.41836">
        <ele>812.4</ele>
        <time>2024-07-09T06:53:56Z</time>
      </trkpt>
      <trkpt lat="43.94514" lon="7.41834">
        <ele>812.4</ele>
        <time>2024-07-09T06:53:57Z</time>
      </trkpt>
      <trkpt lat="43.94517" lon="7.41832">
        <ele>812.4</ele>
        <time>2024-07-09T06:53:58Z</time>
      </trkpt>
      <trkpt lat="43.94519" lon="7.41831">
        <ele>812.8</ele>
        <time>2024-07-09T06:53:59Z</time>
      </trkpt>
      <trkpt lat="43.94522" lon="7.41829">
        <ele>812.8</ele>
        <time>2024-07-09T06:54:00Z</time>
      </trkpt>
      <trkpt lat="43.94525" lon="7.41827">
        <ele>812.8</ele>
        <time>2024-07-09T06:54:01Z</time>
      </trkpt>
      <trkpt lat="43.94528" lon="7.41825">
        <ele>812.8</ele>
        <time>2024-07-09T06:54:02Z</time>
      </trkpt>
      <trkpt lat="43.94532" lon="7.41823">
        <ele>812.8</ele>
        <time>2024-07-09T06:54:03Z</time>
      </trkpt>
      <trkpt lat="43.94535" lon="7.4182">
        <ele>813</ele>
        <time>2024-07-09T06:54:04Z</time>
      </trkpt>
      <trkpt lat="43.94539" lon="7.41818">
        <ele>813</ele>
        <time>2024-07-09T06:54:05Z</time>
      </trkpt>
      <trkpt lat="43.94542" lon="7.41816">
        <ele>813</ele>
        <time>2024-07-09T06:54:06Z</time>
      </trkpt>
      <trkpt lat="43.94546" lon="7.41814">
        <ele>813</ele>
        <time>2024-07-09T06:54:07Z</time>
      </trkpt>
      <trkpt lat="43.94549" lon="7.41812">
        <ele>813.4</ele>
        <time>2024-07-09T06:54:08Z</time>
      </trkpt>
      <trkpt lat="43.94552" lon="7.4181">
        <ele>813.4</ele>
        <time>2024-07-09T06:54:09Z</time>
      </trkpt>
      <trkpt lat="43.94555" lon="7.41808">
        <ele>813.4</ele>
        <time>2024-07-09T06:54:10Z</time>
      </trkpt>
      <trkpt lat="43.94558" lon="7.41806">
        <ele>813.4</ele>
        <time>2024-07-09T06:54:11Z</time>
      </trkpt>
      <trkpt lat="43.94561" lon="7.41802">
        <ele>813.4</ele>
        <time>2024-07-09T06:54:12Z</time>
      </trkpt>
      <trkpt lat="43.94563" lon="7.41798">
        <ele>813.2</ele>
        <time>2024-07-09T06:54:13Z</time>
      </trkpt>
      <trkpt lat="43.94565" lon="7.41793">
        <ele>813.2</ele>
        <time>2024-07-09T06:54:14Z</time>
      </trkpt>
      <trkpt lat="43.94568" lon="7.41788">
        <ele>813.2</ele>
        <time>2024-07-09T06:54:15Z</time>
      </trkpt>
      <trkpt lat="43.94571" lon="7.41784">
        <ele>813.6</ele>
        <time>2024-07-09T06:54:16Z</time>
      </trkpt>
      <trkpt lat="43.94573" lon="7.41778">
        <ele>813.8</ele>
        <time>2024-07-09T06:54:17Z</time>
      </trkpt>
      <trkpt lat="43.94575" lon="7.41773">
        <ele>813.8</ele>
        <time>2024-07-09T06:54:18Z</time>
      </trkpt>
      <trkpt lat="43.94577" lon="7.41768">
        <ele>813.8</ele>
        <time>2024-07-09T06:54:19Z</time>
      </trkpt>
      <trkpt lat="43.94579" lon="7.41763">
        <ele>813.8</ele>
        <time>2024-07-09T06:54:20Z</time>
      </trkpt>
      <trkpt lat="43.9458" lon="7.41758">
        <ele>814.2</ele>
        <time>2024-07-09T06:54:21Z</time>
      </trkpt>
      <trkpt lat="43.9458" lon="7.41753">
        <ele>814.4</ele>
        <time>2024-07-09T06:54:22Z</time>
      </trkpt>
      <trkpt lat="43.9458" lon="7.41748">
        <ele>814.4</ele>
        <time>2024-07-09T06:54:23Z</time>
      </trkpt>
      <trkpt lat="43.94579" lon="7.41743">
        <ele>814.4</ele>
        <time>2024-07-09T06:54:24Z</time>
      </trkpt>
      <trkpt lat="43.94578" lon="7.41738">
        <ele>814.4</ele>
        <time>2024-07-09T06:54:25Z</time>
      </trkpt>
      <trkpt lat="43.94577" lon="7.41733">
        <ele>814.4</ele>
        <time>2024-07-09T06:54:26Z</time>
      </trkpt>
      <trkpt lat="43.94576" lon="7.41728">
        <ele>814.8</ele>
        <time>2024-07-09T06:54:27Z</time>
      </trkpt>
      <trkpt lat="43.94575" lon="7.41723">
        <ele>814.8</ele>
        <time>2024-07-09T06:54:28Z</time>
      </trkpt>
      <trkpt lat="43.94575" lon="7.41718">
        <ele>814.8</ele>
        <time>2024-07-09T06:54:29Z</time>
      </trkpt>
      <trkpt lat="43.94575" lon="7.41712">
        <ele>814.8</ele>
        <time>2024-07-09T06:54:30Z</time>
      </trkpt>
      <trkpt lat="43.94576" lon="7.41707">
        <ele>815</ele>
        <time>2024-07-09T06:54:31Z</time>
      </trkpt>
      <trkpt lat="43.94577" lon="7.41702">
        <ele>815</ele>
        <time>2024-07-09T06:54:32Z</time>
      </trkpt>
      <trkpt lat="43.94578" lon="7.41696">
        <ele>815</ele>
        <time>2024-07-09T06:54:33Z</time>
      </trkpt>
      <trkpt lat="43.9458" lon="7.41691">
        <ele>815</ele>
        <time>2024-07-09T06:54:34Z</time>
      </trkpt>
      <trkpt lat="43.94583" lon="7.41687">
        <ele>815</ele>
        <time>2024-07-09T06:54:35Z</time>
      </trkpt>
      <trkpt lat="43.94587" lon="7.41684">
        <ele>815</ele>
        <time>2024-07-09T06:54:36Z</time>
      </trkpt>
      <trkpt lat="43.94591" lon="7.41682">
        <ele>815</ele>
        <time>2024-07-09T06:54:37Z</time>
      </trkpt>
      <trkpt lat="43.94594" lon="7.41681">
        <ele>815</ele>
        <time>2024-07-09T06:54:38Z</time>
      </trkpt>
      <trkpt lat="43.94598" lon="7.41682">
        <ele>815.2</ele>
        <time>2024-07-09T06:54:39Z</time>
      </trkpt>
      <trkpt lat="43.94602" lon="7.41682">
        <ele>815</ele>
        <time>2024-07-09T06:54:40Z</time>
      </trkpt>
      <trkpt lat="43.94606" lon="7.41683">
        <ele>815</ele>
        <time>2024-07-09T06:54:41Z</time>
      </trkpt>
      <trkpt lat="43.9461" lon="7.41684">
        <ele>815</ele>
        <time>2024-07-09T06:54:42Z</time>
      </trkpt>
      <trkpt lat="43.94614" lon="7.41684">
        <ele>815.4</ele>
        <time>2024-07-09T06:54:43Z</time>
      </trkpt>
      <trkpt lat="43.94617" lon="7.41685">
        <ele>815.4</ele>
        <time>2024-07-09T06:54:44Z</time>
      </trkpt>
      <trkpt lat="43.94621" lon="7.41685">
        <ele>815.4</ele>
        <time>2024-07-09T06:54:45Z</time>
      </trkpt>
      <trkpt lat="43.94624" lon="7.41686">
        <ele>815.4</ele>
        <time>2024-07-09T06:54:46Z</time>
      </trkpt>
      <trkpt lat="43.94627" lon="7.41686">
        <ele>815.8</ele>
        <time>2024-07-09T06:54:47Z</time>
      </trkpt>
      <trkpt lat="43.9463" lon="7.41687">
        <ele>816</ele>
        <time>2024-07-09T06:54:48Z</time>
      </trkpt>
      <trkpt lat="43.94632" lon="7.41687">
        <ele>816</ele>
        <time>2024-07-09T06:54:49Z</time>
      </trkpt>
      <trkpt lat="43.94634" lon="7.41687">
        <ele>816</ele>
        <time>2024-07-09T06:54:50Z</time>
      </trkpt>
      <trkpt lat="43.94637" lon="7.41687">
        <ele>816</ele>
        <time>2024-07-09T06:54:51Z</time>
      </trkpt>
      <trkpt lat="43.94639" lon="7.41687">
        <ele>816.6</ele>
        <time>2024-07-09T06:54:52Z</time>
      </trkpt>
      <trkpt lat="43.94641" lon="7.41687">
        <ele>816.8</ele>
        <time>2024-07-09T06:54:53Z</time>
      </trkpt>
      <trkpt lat="43.94644" lon="7.41687">
        <ele>816.8</ele>
        <time>2024-07-09T06:54:54Z</time>
      </trkpt>
      <trkpt lat="43.94646" lon="7.41687">
        <ele>816.8</ele>
        <time>2024-07-09T06:54:55Z</time>
      </trkpt>
      <trkpt lat="43.94649" lon="7.41687">
        <ele>817.8</ele>
        <time>2024-07-09T06:54:56Z</time>
      </trkpt>
      <trkpt lat="43.94651" lon="7.41687">
        <ele>818.2</ele>
        <time>2024-07-09T06:54:57Z</time>
      </trkpt>
      <trkpt lat="43.94654" lon="7.41687">
        <ele>818.2</ele>
        <time>2024-07-09T06:54:58Z</time>
      </trkpt>
      <trkpt lat="43.94656" lon="7.41687">
        <ele>818.2</ele>
        <time>2024-07-09T06:54:59Z</time>
      </trkpt>
      <trkpt lat="43.94657" lon="7.41688">
        <ele>818.6</ele>
        <time>2024-07-09T06:55:00Z</time>
      </trkpt>
      <trkpt lat="43.94659" lon="7.41688">
        <ele>818.6</ele>
        <time>2024-07-09T06:55:01Z</time>
      </trkpt>
      <trkpt lat="43.94662" lon="7.41688">
        <ele>818.8</ele>
        <time>2024-07-09T06:55:02Z</time>
      </trkpt>
      <trkpt lat="43.94664" lon="7.41688">
        <ele>818.8</ele>
        <time>2024-07-09T06:55:03Z</time>
      </trkpt>
      <trkpt lat="43.94666" lon="7.41688">
        <ele>818.8</ele>
        <time>2024-07-09T06:55:04Z</time>
      </trkpt>
      <trkpt lat="43.94668" lon="7.41688">
        <ele>818.8</ele>
        <time>2024-07-09T06:55:05Z</time>
      </trkpt>
      <trkpt lat="43.94671" lon="7.41689">
        <ele>819.2</ele>
        <time>2024-07-09T06:55:06Z</time>
      </trkpt>
      <trkpt lat="43.94673" lon="7.41689">
        <ele>819.6</ele>
        <time>2024-07-09T06:55:07Z</time>
      </trkpt>
      <trkpt lat="43.94675" lon="7.41689">
        <ele>819.6</ele>
        <time>2024-07-09T06:55:08Z</time>
      </trkpt>
      <trkpt lat="43.94676" lon="7.4169">
        <ele>819.6</ele>
        <time>2024-07-09T06:55:09Z</time>
      </trkpt>
      <trkpt lat="43.94678" lon="7.4169">
        <ele>820</ele>
        <time>2024-07-09T06:55:10Z</time>
      </trkpt>
      <trkpt lat="43.94679" lon="7.41691">
        <ele>820.2</ele>
        <time>2024-07-09T06:55:11Z</time>
      </trkpt>
      <trkpt lat="43.94681" lon="7.41692">
        <ele>820.2</ele>
        <time>2024-07-09T06:55:12Z</time>
      </trkpt>
      <trkpt lat="43.94683" lon="7.41692">
        <ele>820.2</ele>
        <time>2024-07-09T06:55:13Z</time>
      </trkpt>
      <trkpt lat="43.94684" lon="7.41692">
        <ele>820.2</ele>
        <time>2024-07-09T06:55:14Z</time>
      </trkpt>
      <trkpt lat="43.94686" lon="7.41692">
        <ele>820.6</ele>
        <time>2024-07-09T06:55:15Z</time>
      </trkpt>
      <trkpt lat="43.94687" lon="7.41692">
        <ele>820.8</ele>
        <time>2024-07-09T06:55:16Z</time>
      </trkpt>
      <trkpt lat="43.94689" lon="7.41692">
        <ele>820.8</ele>
        <time>2024-07-09T06:55:17Z</time>
      </trkpt>
      <trkpt lat="43.9469" lon="7.41693">
        <ele>820.8</ele>
        <time>2024-07-09T06:55:18Z</time>
      </trkpt>
      <trkpt lat="43.94692" lon="7.41693">
        <ele>821.4</ele>
        <time>2024-07-09T06:55:19Z</time>
      </trkpt>
      <trkpt lat="43.94693" lon="7.41693">
        <ele>821.4</ele>
        <time>2024-07-09T06:55:20Z</time>
      </trkpt>
      <trkpt lat="43.94695" lon="7.41693">
        <ele>821.4</ele>
        <time>2024-07-09T06:55:21Z</time>
      </trkpt>
      <trkpt lat="43.94696" lon="7.41693">
        <ele>821.4</ele>
        <time>2024-07-09T06:55:22Z</time>
      </trkpt>
      <trkpt lat="43.94698" lon="7.41693">
        <ele>822</ele>
        <time>2024-07-09T06:55:23Z</time>
      </trkpt>
      <trkpt lat="43.947" lon="7.41693">
        <ele>822</ele>
        <time>2024-07-09T06:55:24Z</time>
      </trkpt>
      <trkpt lat="43.94701" lon="7.41692">
        <ele>822</ele>
        <time>2024-07-09T06:55:25Z</time>
      </trkpt>
      <trkpt lat="43.94704" lon="7.41691">
        <ele>822</ele>
        <time>2024-07-09T06:55:26Z</time>
      </trkpt>
      <trkpt lat="43.94706" lon="7.41691">
        <ele>822</ele>
        <time>2024-07-09T06:55:27Z</time>
      </trkpt>
      <trkpt lat="43.94707" lon="7.4169">
        <ele>822.4</ele>
        <time>2024-07-09T06:55:28Z</time>
      </trkpt>
      <trkpt lat="43.94709" lon="7.41689">
        <ele>822.6</ele>
        <time>2024-07-09T06:55:29Z</time>
      </trkpt>
      <trkpt lat="43.94711" lon="7.41688">
        <ele>822.6</ele>
        <time>2024-07-09T06:55:30Z</time>
      </trkpt>
      <trkpt lat="43.94712" lon="7.41687">
        <ele>822.6</ele>
        <time>2024-07-09T06:55:31Z</time>
      </trkpt>
      <trkpt lat="43.94714" lon="7.41686">
        <ele>823</ele>
        <time>2024-07-09T06:55:32Z</time>
      </trkpt>
      <trkpt lat="43.94715" lon="7.41685">
        <ele>823.2</ele>
        <time>2024-07-09T06:55:33Z</time>
      </trkpt>
      <trkpt lat="43.94716" lon="7.41683">
        <ele>823.2</ele>
        <time>2024-07-09T06:55:34Z</time>
      </trkpt>
      <trkpt lat="43.94717" lon="7.41682">
        <ele>823.2</ele>
        <time>2024-07-09T06:55:35Z</time>
      </trkpt>
      <trkpt lat="43.94719" lon="7.41681">
        <ele>823.2</ele>
        <time>2024-07-09T06:55:36Z</time>
      </trkpt>
      <trkpt lat="43.9472" lon="7.4168">
        <ele>823.6</ele>
        <time>2024-07-09T06:55:37Z</time>
      </trkpt>
      <trkpt lat="43.94722" lon="7.41679">
        <ele>823.8</ele>
        <time>2024-07-09T06:55:38Z</time>
      </trkpt>
      <trkpt lat="43.94723" lon="7.41677">
        <ele>823.8</ele>
        <time>2024-07-09T06:55:39Z</time>
      </trkpt>
      <trkpt lat="43.94725" lon="7.41676">
        <ele>823.8</ele>
        <time>2024-07-09T06:55:40Z</time>
      </trkpt>
      <trkpt lat="43.94726" lon="7.41674">
        <ele>824.4</ele>
        <time>2024-07-09T06:55:41Z</time>
      </trkpt>
      <trkpt lat="43.94727" lon="7.41674">
        <ele>824.4</ele>
        <time>2024-07-09T06:55:42Z</time>
      </trkpt>
      <trkpt lat="43.94728" lon="7.41673">
        <ele>824.4</ele>
        <time>2024-07-09T06:55:43Z</time>
      </trkpt>
      <trkpt lat="43.94729" lon="7.41672">
        <ele>824.4</ele>
        <time>2024-07-09T06:55:44Z</time>
      </trkpt>
      <trkpt lat="43.94731" lon="7.41672">
        <ele>825</ele>
        <time>2024-07-09T06:55:45Z</time>
      </trkpt>
      <trkpt lat="43.94732" lon="7.41672">
        <ele>825</ele>
        <time>2024-07-09T06:55:46Z</time>
      </trkpt>
      <trkpt lat="43.94733" lon="7.41671">
        <ele>825</ele>
        <time>2024-07-09T06:55:47Z</time>
      </trkpt>
      <trkpt lat="43.94734" lon="7.4167">
        <ele>825</ele>
        <time>2024-07-09T06:55:48Z</time>
      </trkpt>
      <trkpt lat="43.94735" lon="7.41668">
        <ele>825</ele>
        <time>2024-07-09T06:55:49Z</time>
      </trkpt>
      <trkpt lat="43.94736" lon="7.41666">
        <ele>825</ele>
        <time>2024-07-09T06:55:50Z</time>
      </trkpt>
      <trkpt lat="43.94737" lon="7.41665">
        <ele>825.6</ele>
        <time>2024-07-09T06:55:51Z</time>
      </trkpt>
      <trkpt lat="43.94738" lon="7.41663">
        <ele>825.8</ele>
        <time>2024-07-09T06:55:52Z</time>
      </trkpt>
      <trkpt lat="43.94739" lon="7.41662">
        <ele>825.8</ele>
        <time>2024-07-09T06:55:53Z</time>
      </trkpt>
      <trkpt lat="43.9474" lon="7.41661">
        <ele>825.8</ele>
        <time>2024-07-09T06:55:54Z</time>
      </trkpt>
      <trkpt lat="43.94741" lon="7.41661">
        <ele>826.4</ele>
        <time>2024-07-09T06:55:55Z</time>
      </trkpt>
      <trkpt lat="43.94742" lon="7.4166">
        <ele>826.6</ele>
        <time>2024-07-09T06:55:56Z</time>
      </trkpt>
      <trkpt lat="43.94744" lon="7.41659">
        <ele>826.6</ele>
        <time>2024-07-09T06:55:57Z</time>
      </trkpt>
      <trkpt lat="43.94745" lon="7.41657">
        <ele>826.6</ele>
        <time>2024-07-09T06:55:58Z</time>
      </trkpt>
      <trkpt lat="43.94745" lon="7.41655">
        <ele>827</ele>
        <time>2024-07-09T06:55:59Z</time>
      </trkpt>
      <trkpt lat="43.94747" lon="7.41654">
        <ele>827.2</ele>
        <time>2024-07-09T06:56:00Z</time>
      </trkpt>
      <trkpt lat="43.94747" lon="7.41652">
        <ele>827.2</ele>
        <time>2024-07-09T06:56:01Z</time>
      </trkpt>
      <trkpt lat="43.94748" lon="7.41651">
        <ele>827.2</ele>
        <time>2024-07-09T06:56:02Z</time>
      </trkpt>
      <trkpt lat="43.94748" lon="7.41649">
        <ele>827.2</ele>
        <time>2024-07-09T06:56:03Z</time>
      </trkpt>
      <trkpt lat="43.94749" lon="7.41647">
        <ele>827.6</ele>
        <time>2024-07-09T06:56:04Z</time>
      </trkpt>
      <trkpt lat="43.9475" lon="7.41645">
        <ele>827.8</ele>
        <time>2024-07-09T06:56:05Z</time>
      </trkpt>
      <trkpt lat="43.94751" lon="7.41643">
        <ele>827.8</ele>
        <time>2024-07-09T06:56:06Z</time>
      </trkpt>
      <trkpt lat="43.94751" lon="7.41641">
        <ele>827.8</ele>
        <time>2024-07-09T06:56:07Z</time>
      </trkpt>
      <trkpt lat="43.94752" lon="7.41639">
        <ele>827.8</ele>
        <time>2024-07-09T06:56:08Z</time>
      </trkpt>
      <trkpt lat="43.94753" lon="7.41637">
        <ele>828.2</ele>
        <time>2024-07-09T06:56:09Z</time>
      </trkpt>
      <trkpt lat="43.94754" lon="7.41635">
        <ele>828.2</ele>
        <time>2024-07-09T06:56:10Z</time>
      </trkpt>
      <trkpt lat="43.94754" lon="7.41632">
        <ele>828.2</ele>
        <time>2024-07-09T06:56:11Z</time>
      </trkpt>
      <trkpt lat="43.94755" lon="7.4163">
        <ele>828.8</ele>
        <time>2024-07-09T06:56:12Z</time>
      </trkpt>
      <trkpt lat="43.94756" lon="7.41628">
        <ele>829</ele>
        <time>2024-07-09T06:56:13Z</time>
      </trkpt>
      <trkpt lat="43.94757" lon="7.41626">
        <ele>829</ele>
        <time>2024-07-09T06:56:14Z</time>
      </trkpt>
      <trkpt lat="43.94758" lon="7.41624">
        <ele>829</ele>
        <time>2024-07-09T06:56:15Z</time>
      </trkpt>
      <trkpt lat="43.94759" lon="7.41622">
        <ele>829</ele>
        <time>2024-07-09T06:56:16Z</time>
      </trkpt>
      <trkpt lat="43.9476" lon="7.4162">
        <ele>829.6</ele>
        <time>2024-07-09T06:56:17Z</time>
      </trkpt>
      <trkpt lat="43.94761" lon="7.41618">
        <ele>829.8</ele>
        <time>2024-07-09T06:56:18Z</time>
      </trkpt>
      <trkpt lat="43.94761" lon="7.41616">
        <ele>829.8</ele>
        <time>2024-07-09T06:56:19Z</time>
      </trkpt>
      <trkpt lat="43.94762" lon="7.41614">
        <ele>829.8</ele>
        <time>2024-07-09T06:56:20Z</time>
      </trkpt>
      <trkpt lat="43.94763" lon="7.41611">
        <ele>830.4</ele>
        <time>2024-07-09T06:56:21Z</time>
      </trkpt>
      <trkpt lat="43.94764" lon="7.4161">
        <ele>830.2</ele>
        <time>2024-07-09T06:56:22Z</time>
      </trkpt>
      <trkpt lat="43.94764" lon="7.41608">
        <ele>830.2</ele>
        <time>2024-07-09T06:56:23Z</time>
      </trkpt>
      <trkpt lat="43.94765" lon="7.41605">
        <ele>830.2</ele>
        <time>2024-07-09T06:56:24Z</time>
      </trkpt>
      <trkpt lat="43.94765" lon="7.41602">
        <ele>830.2</ele>
        <time>2024-07-09T06:56:25Z</time>
      </trkpt>
      <trkpt lat="43.94766" lon="7.416">
        <ele>830.6</ele>
        <time>2024-07-09T06:56:26Z</time>
      </trkpt>
      <trkpt lat="43.94766" lon="7.41598">
        <ele>830.6</ele>
        <time>2024-07-09T06:56:27Z</time>
      </trkpt>
      <trkpt lat="43.94767" lon="7.41596">
        <ele>830.8</ele>
        <time>2024-07-09T06:56:28Z</time>
      </trkpt>
      <trkpt lat="43.94768" lon="7.41594">
        <ele>830.8</ele>
        <time>2024-07-09T06:56:29Z</time>
      </trkpt>
      <trkpt lat="43.94768" lon="7.41592">
        <ele>830.8</ele>
        <time>2024-07-09T06:56:30Z</time>
      </trkpt>
      <trkpt lat="43.94769" lon="7.41589">
        <ele>831.2</ele>
        <time>2024-07-09T06:56:31Z</time>
      </trkpt>
      <trkpt lat="43.9477" lon="7.41587">
        <ele>831.2</ele>
        <time>2024-07-09T06:56:32Z</time>
      </trkpt>
      <trkpt lat="43.94771" lon="7.41586">
        <ele>831.2</ele>
        <time>2024-07-09T06:56:33Z</time>
      </trkpt>
      <trkpt lat="43.94772" lon="7.41585">
        <ele>831.2</ele>
        <time>2024-07-09T06:56:34Z</time>
      </trkpt>
      <trkpt lat="43.94772" lon="7.41583">
        <ele>831.8</ele>
        <time>2024-07-09T06:56:35Z</time>
      </trkpt>
      <trkpt lat="43.94773" lon="7.41582">
        <ele>831.8</ele>
        <time>2024-07-09T06:56:36Z</time>
      </trkpt>
      <trkpt lat="43.94774" lon="7.4158">
        <ele>831.8</ele>
        <time>2024-07-09T06:56:37Z</time>
      </trkpt>
      <trkpt lat="43.94775" lon="7.41578">
        <ele>831.8</ele>
        <time>2024-07-09T06:56:38Z</time>
      </trkpt>
      <trkpt lat="43.94776" lon="7.41576">
        <ele>831.8</ele>
        <time>2024-07-09T06:56:39Z</time>
      </trkpt>
      <trkpt lat="43.94776" lon="7.41574">
        <ele>832.4</ele>
        <time>2024-07-09T06:56:40Z</time>
      </trkpt>
      <trkpt lat="43.94776" lon="7.41572">
        <ele>832.6</ele>
        <time>2024-07-09T06:56:41Z</time>
      </trkpt>
      <trkpt lat="43.94777" lon="7.41572">
        <ele>832.6</ele>
        <time>2024-07-09T06:56:42Z</time>
      </trkpt>
      <trkpt lat="43.94778" lon="7.41572">
        <ele>832.6</ele>
        <time>2024-07-09T06:56:43Z</time>
      </trkpt>
      <trkpt lat="43.94779" lon="7.41571">
        <ele>833</ele>
        <time>2024-07-09T06:56:44Z</time>
      </trkpt>
      <trkpt lat="43.9478" lon="7.41569">
        <ele>833.2</ele>
        <time>2024-07-09T06:56:45Z</time>
      </trkpt>
      <trkpt lat="43.94781" lon="7.41567">
        <ele>833.2</ele>
        <time>2024-07-09T06:56:46Z</time>
      </trkpt>
      <trkpt lat="43.94783" lon="7.41565">
        <ele>833.2</ele>
        <time>2024-07-09T06:56:47Z</time>
      </trkpt>
      <trkpt lat="43.94784" lon="7.41564">
        <ele>833.8</ele>
        <time>2024-07-09T06:56:48Z</time>
      </trkpt>
      <trkpt lat="43.94786" lon="7.41564">
        <ele>833.6</ele>
        <time>2024-07-09T06:56:49Z</time>
      </trkpt>
      <trkpt lat="43.94787" lon="7.41563">
        <ele>833.6</ele>
        <time>2024-07-09T06:56:50Z</time>
      </trkpt>
      <trkpt lat="43.94788" lon="7.41563">
        <ele>833.6</ele>
        <time>2024-07-09T06:56:51Z</time>
      </trkpt>
      <trkpt lat="43.9479" lon="7.41562">
        <ele>833.6</ele>
        <time>2024-07-09T06:56:52Z</time>
      </trkpt>
      <trkpt lat="43.94791" lon="7.41562">
        <ele>834.2</ele>
        <time>2024-07-09T06:56:53Z</time>
      </trkpt>
      <trkpt lat="43.94793" lon="7.41562">
        <ele>834.4</ele>
        <time>2024-07-09T06:56:54Z</time>
      </trkpt>
      <trkpt lat="43.94795" lon="7.41562">
        <ele>834.4</ele>
        <time>2024-07-09T06:56:55Z</time>
      </trkpt>
      <trkpt lat="43.94796" lon="7.41562">
        <ele>834.4</ele>
        <time>2024-07-09T06:56:56Z</time>
      </trkpt>
      <trkpt lat="43.94798" lon="7.41562">
        <ele>834.8</ele>
        <time>2024-07-09T06:56:57Z</time>
      </trkpt>
      <trkpt lat="43.948" lon="7.41562">
        <ele>835</ele>
        <time>2024-07-09T06:56:58Z</time>
      </trkpt>
      <trkpt lat="43.94802" lon="7.41562">
        <ele>835</ele>
        <time>2024-07-09T06:56:59Z</time>
      </trkpt>
      <trkpt lat="43.94803" lon="7.41561">
        <ele>835</ele>
        <time>2024-07-09T06:57:00Z</time>
      </trkpt>
      <trkpt lat="43.94805" lon="7.4156">
        <ele>835.6</ele>
        <time>2024-07-09T06:57:01Z</time>
      </trkpt>
      <trkpt lat="43.94806" lon="7.41559">
        <ele>835.6</ele>
        <time>2024-07-09T06:57:02Z</time>
      </trkpt>
      <trkpt lat="43.94808" lon="7.41559">
        <ele>835.6</ele>
        <time>2024-07-09T06:57:03Z</time>
      </trkpt>
      <trkpt lat="43.94809" lon="7.41558">
        <ele>835.6</ele>
        <time>2024-07-09T06:57:04Z</time>
      </trkpt>
      <trkpt lat="43.94811" lon="7.41558">
        <ele>836</ele>
        <time>2024-07-09T06:57:05Z</time>
      </trkpt>
      <trkpt lat="43.94812" lon="7.41557">
        <ele>836</ele>
        <time>2024-07-09T06:57:06Z</time>
      </trkpt>
      <trkpt lat="43.94814" lon="7.41558">
        <ele>836.4</ele>
        <time>2024-07-09T06:57:07Z</time>
      </trkpt>
      <trkpt lat="43.94815" lon="7.41557">
        <ele>836.4</ele>
        <time>2024-07-09T06:57:08Z</time>
      </trkpt>
      <trkpt lat="43.94817" lon="7.41557">
        <ele>836.4</ele>
        <time>2024-07-09T06:57:09Z</time>
      </trkpt>
      <trkpt lat="43.94818" lon="7.41557">
        <ele>836.4</ele>
        <time>2024-07-09T06:57:10Z</time>
      </trkpt>
      <trkpt lat="43.9482" lon="7.41557">
        <ele>836.8</ele>
        <time>2024-07-09T06:57:11Z</time>
      </trkpt>
      <trkpt lat="43.94821" lon="7.41556">
        <ele>837</ele>
        <time>2024-07-09T06:57:12Z</time>
      </trkpt>
      <trkpt lat="43.94823" lon="7.41555">
        <ele>837</ele>
        <time>2024-07-09T06:57:13Z</time>
      </trkpt>
      <trkpt lat="43.94824" lon="7.41555">
        <ele>837</ele>
        <time>2024-07-09T06:57:14Z</time>
      </trkpt>
      <trkpt lat="43.94826" lon="7.41556">
        <ele>837.4</ele>
        <time>2024-07-09T06:57:15Z</time>
      </trkpt>
      <trkpt lat="43.94827" lon="7.41556">
        <ele>837.6</ele>
        <time>2024-07-09T06:57:16Z</time>
      </trkpt>
      <trkpt lat="43.94829" lon="7.41555">
        <ele>837.6</ele>
        <time>2024-07-09T06:57:17Z</time>
      </trkpt>
      <trkpt lat="43.94831" lon="7.41555">
        <ele>837.6</ele>
        <time>2024-07-09T06:57:18Z</time>
      </trkpt>
      <trkpt lat="43.94833" lon="7.41554">
        <ele>837.6</ele>
        <time>2024-07-09T06:57:19Z</time>
      </trkpt>
      <trkpt lat="43.94835" lon="7.41554">
        <ele>838</ele>
        <time>2024-07-09T06:57:20Z</time>
      </trkpt>
      <trkpt lat="43.94837" lon="7.41553">
        <ele>838</ele>
        <time>2024-07-09T06:57:21Z</time>
      </trkpt>
      <trkpt lat="43.94839" lon="7.41553">
        <ele>838</ele>
        <time>2024-07-09T06:57:22Z</time>
      </trkpt>
      <trkpt lat="43.94841" lon="7.41552">
        <ele>838</ele>
        <time>2024-07-09T06:57:23Z</time>
      </trkpt>
      <trkpt lat="43.94842" lon="7.41552">
        <ele>838.6</ele>
        <time>2024-07-09T06:57:24Z</time>
      </trkpt>
      <trkpt lat="43.94844" lon="7.41552">
        <ele>838.8</ele>
        <time>2024-07-09T06:57:25Z</time>
      </trkpt>
      <trkpt lat="43.94846" lon="7.41552">
        <ele>838.8</ele>
        <time>2024-07-09T06:57:26Z</time>
      </trkpt>
      <trkpt lat="43.94848" lon="7.41552">
        <ele>838.8</ele>
        <time>2024-07-09T06:57:27Z</time>
      </trkpt>
      <trkpt lat="43.9485" lon="7.41552">
        <ele>838.8</ele>
        <time>2024-07-09T06:57:28Z</time>
      </trkpt>
      <trkpt lat="43.94852" lon="7.41552">
        <ele>839.2</ele>
        <time>2024-07-09T06:57:29Z</time>
      </trkpt>
      <trkpt lat="43.94853" lon="7.41552">
        <ele>839.2</ele>
        <time>2024-07-09T06:57:30Z</time>
      </trkpt>
      <trkpt lat="43.94855" lon="7.41553">
        <ele>839.2</ele>
        <time>2024-07-09T06:57:31Z</time>
      </trkpt>
      <trkpt lat="43.94856" lon="7.41552">
        <ele>839.2</ele>
        <time>2024-07-09T06:57:32Z</time>
      </trkpt>
      <trkpt lat="43.94858" lon="7.41552">
        <ele>839.8</ele>
        <time>2024-07-09T06:57:33Z</time>
      </trkpt>
      <trkpt lat="43.94859" lon="7.41552">
        <ele>840</ele>
        <time>2024-07-09T06:57:34Z</time>
      </trkpt>
      <trkpt lat="43.94861" lon="7.41552">
        <ele>840</ele>
        <time>2024-07-09T06:57:35Z</time>
      </trkpt>
      <trkpt lat="43.94863" lon="7.41552">
        <ele>840</ele>
        <time>2024-07-09T06:57:36Z</time>
      </trkpt>
      <trkpt lat="43.94864" lon="7.41552">
        <ele>840</ele>
        <time>2024-07-09T06:57:37Z</time>
      </trkpt>
      <trkpt lat="43.94866" lon="7.41551">
        <ele>840.6</ele>
        <time>2024-07-09T06:57:38Z</time>
      </trkpt>
      <trkpt lat="43.94867" lon="7.41551">
        <ele>840.6</ele>
        <time>2024-07-09T06:57:39Z</time>
      </trkpt>
      <trkpt lat="43.94868" lon="7.41552">
        <ele>840.6</ele>
        <time>2024-07-09T06:57:40Z</time>
      </trkpt>
      <trkpt lat="43.9487" lon="7.41552">
        <ele>840.6</ele>
        <time>2024-07-09T06:57:41Z</time>
      </trkpt>
      <trkpt lat="43.94871" lon="7.41552">
        <ele>841</ele>
        <time>2024-07-09T06:57:42Z</time>
      </trkpt>
      <trkpt lat="43.94873" lon="7.41551">
        <ele>841.2</ele>
        <time>2024-07-09T06:57:43Z</time>
      </trkpt>
      <trkpt lat="43.94874" lon="7.4155">
        <ele>841.2</ele>
        <time>2024-07-09T06:57:44Z</time>
      </trkpt>
      <trkpt lat="43.94875" lon="7.41549">
        <ele>841.2</ele>
        <time>2024-07-09T06:57:45Z</time>
      </trkpt>
      <trkpt lat="43.94877" lon="7.4155">
        <ele>841.6</ele>
        <time>2024-07-09T06:57:46Z</time>
      </trkpt>
      <trkpt lat="43.94878" lon="7.41551">
        <ele>841.8</ele>
        <time>2024-07-09T06:57:47Z</time>
      </trkpt>
      <trkpt lat="43.9488" lon="7.41551">
        <ele>841.8</ele>
        <time>2024-07-09T06:57:48Z</time>
      </trkpt>
      <trkpt lat="43.94882" lon="7.4155">
        <ele>841.8</ele>
        <time>2024-07-09T06:57:49Z</time>
      </trkpt>
      <trkpt lat="43.94883" lon="7.4155">
        <ele>841.8</ele>
        <time>2024-07-09T06:57:50Z</time>
      </trkpt>
      <trkpt lat="43.94885" lon="7.41549">
        <ele>841.8</ele>
        <time>2024-07-09T06:57:51Z</time>
      </trkpt>
      <trkpt lat="43.94887" lon="7.41548">
        <ele>842.4</ele>
        <time>2024-07-09T06:57:52Z</time>
      </trkpt>
      <trkpt lat="43.94889" lon="7.41548">
        <ele>842.6</ele>
        <time>2024-07-09T06:57:53Z</time>
      </trkpt>
      <trkpt lat="43.94891" lon="7.41548">
        <ele>842.6</ele>
        <time>2024-07-09T06:57:54Z</time>
      </trkpt>
      <trkpt lat="43.94893" lon="7.41548">
        <ele>842.6</ele>
        <time>2024-07-09T06:57:55Z</time>
      </trkpt>
      <trkpt lat="43.94895" lon="7.41547">
        <ele>843</ele>
        <time>2024-07-09T06:57:56Z</time>
      </trkpt>
      <trkpt lat="43.94897" lon="7.41547">
        <ele>843.2</ele>
        <time>2024-07-09T06:57:57Z</time>
      </trkpt>
      <trkpt lat="43.94899" lon="7.41546">
        <ele>843.2</ele>
        <time>2024-07-09T06:57:58Z</time>
      </trkpt>
      <trkpt lat="43.94901" lon="7.41546">
        <ele>843.2</ele>
        <time>2024-07-09T06:57:59Z</time>
      </trkpt>
      <trkpt lat="43.94903" lon="7.41546">
        <ele>843.6</ele>
        <time>2024-07-09T06:58:00Z</time>
      </trkpt>
      <trkpt lat="43.94905" lon="7.41545">
        <ele>843.6</ele>
        <time>2024-07-09T06:58:01Z</time>
      </trkpt>
      <trkpt lat="43.94906" lon="7.41545">
        <ele>843.8</ele>
        <time>2024-07-09T06:58:02Z</time>
      </trkpt>
      <trkpt lat="43.94908" lon="7.41544">
        <ele>843.8</ele>
        <time>2024-07-09T06:58:03Z</time>
      </trkpt>
      <trkpt lat="43.9491" lon="7.41544">
        <ele>843.8</ele>
        <time>2024-07-09T06:58:04Z</time>
      </trkpt>
      <trkpt lat="43.94912" lon="7.41543">
        <ele>844.4</ele>
        <time>2024-07-09T06:58:05Z</time>
      </trkpt>
      <trkpt lat="43.94914" lon="7.41543">
        <ele>844.6</ele>
        <time>2024-07-09T06:58:06Z</time>
      </trkpt>
      <trkpt lat="43.94916" lon="7.41542">
        <ele>844.6</ele>
        <time>2024-07-09T06:58:07Z</time>
      </trkpt>
      <trkpt lat="43.94918" lon="7.41542">
        <ele>844.6</ele>
        <time>2024-07-09T06:58:08Z</time>
      </trkpt>
      <trkpt lat="43.94919" lon="7.41542">
        <ele>844.8</ele>
        <time>2024-07-09T06:58:09Z</time>
      </trkpt>
      <trkpt lat="43.94921" lon="7.41542">
        <ele>845</ele>
        <time>2024-07-09T06:58:10Z</time>
      </trkpt>
      <trkpt lat="43.94923" lon="7.41541">
        <ele>845</ele>
        <time>2024-07-09T06:58:11Z</time>
      </trkpt>
      <trkpt lat="43.94924" lon="7.4154">
        <ele>845</ele>
        <time>2024-07-09T06:58:12Z</time>
      </trkpt>
      <trkpt lat="43.94926" lon="7.4154">
        <ele>845</ele>
        <time>2024-07-09T06:58:13Z</time>
      </trkpt>
      <trkpt lat="43.94927" lon="7.4154">
        <ele>845.4</ele>
        <time>2024-07-09T06:58:14Z</time>
      </trkpt>
      <trkpt lat="43.94929" lon="7.4154">
        <ele>845.6</ele>
        <time>2024-07-09T06:58:15Z</time>
      </trkpt>
      <trkpt lat="43.94931" lon="7.41539">
        <ele>845.6</ele>
        <time>2024-07-09T06:58:16Z</time>
      </trkpt>
      <trkpt lat="43.94933" lon="7.41539">
        <ele>845.6</ele>
        <time>2024-07-09T06:58:17Z</time>
      </trkpt>
      <trkpt lat="43.94934" lon="7.41539">
        <ele>846</ele>
        <time>2024-07-09T06:58:18Z</time>
      </trkpt>
      <trkpt lat="43.94936" lon="7.41539">
        <ele>846</ele>
        <time>2024-07-09T06:58:19Z</time>
      </trkpt>
      <trkpt lat="43.94938" lon="7.41539">
        <ele>846</ele>
        <time>2024-07-09T06:58:20Z</time>
      </trkpt>
      <trkpt lat="43.9494" lon="7.4154">
        <ele>846</ele>
        <time>2024-07-09T06:58:21Z</time>
      </trkpt>
      <trkpt lat="43.94941" lon="7.4154">
        <ele>846.4</ele>
        <time>2024-07-09T06:58:22Z</time>
      </trkpt>
      <trkpt lat="43.94943" lon="7.41541">
        <ele>846.6</ele>
        <time>2024-07-09T06:58:23Z</time>
      </trkpt>
      <trkpt lat="43.94945" lon="7.41541">
        <ele>846.6</ele>
        <time>2024-07-09T06:58:24Z</time>
      </trkpt>
      <trkpt lat="43.94947" lon="7.41542">
        <ele>846.6</ele>
        <time>2024-07-09T06:58:25Z</time>
      </trkpt>
      <trkpt lat="43.94948" lon="7.41543">
        <ele>846.6</ele>
        <time>2024-07-09T06:58:26Z</time>
      </trkpt>
      <trkpt lat="43.9495" lon="7.41543">
        <ele>847</ele>
        <time>2024-07-09T06:58:27Z</time>
      </trkpt>
      <trkpt lat="43.94952" lon="7.41543">
        <ele>847</ele>
        <time>2024-07-09T06:58:28Z</time>
      </trkpt>
      <trkpt lat="43.94954" lon="7.41543">
        <ele>847</ele>
        <time>2024-07-09T06:58:29Z</time>
      </trkpt>
      <trkpt lat="43.94956" lon="7.41544">
        <ele>847</ele>
        <time>2024-07-09T06:58:30Z</time>
      </trkpt>
      <trkpt lat="43.94958" lon="7.41544">
        <ele>847</ele>
        <time>2024-07-09T06:58:31Z</time>
      </trkpt>
      <trkpt lat="43.94959" lon="7.41545">
        <ele>847.6</ele>
        <time>2024-07-09T06:58:32Z</time>
      </trkpt>
      <trkpt lat="43.94961" lon="7.41545">
        <ele>847.8</ele>
        <time>2024-07-09T06:58:33Z</time>
      </trkpt>
      <trkpt lat="43.94963" lon="7.41546">
        <ele>847.8</ele>
        <time>2024-07-09T06:58:34Z</time>
      </trkpt>
      <trkpt lat="43.94964" lon="7.41547">
        <ele>847.8</ele>
        <time>2024-07-09T06:58:35Z</time>
      </trkpt>
      <trkpt lat="43.94966" lon="7.41548">
        <ele>847.8</ele>
        <time>2024-07-09T06:58:36Z</time>
      </trkpt>
      <trkpt lat="43.94968" lon="7.41549">
        <ele>848.4</ele>
        <time>2024-07-09T06:58:37Z</time>
      </trkpt>
      <trkpt lat="43.94969" lon="7.41549">
        <ele>848.4</ele>
        <time>2024-07-09T06:58:38Z</time>
      </trkpt>
      <trkpt lat="43.94971" lon="7.4155">
        <ele>848.4</ele>
        <time>2024-07-09T06:58:39Z</time>
      </trkpt>
      <trkpt lat="43.94972" lon="7.4155">
        <ele>848.4</ele>
        <time>2024-07-09T06:58:40Z</time>
      </trkpt>
      <trkpt lat="43.94973" lon="7.41551">
        <ele>849</ele>
        <time>2024-07-09T06:58:41Z</time>
      </trkpt>
      <trkpt lat="43.94975" lon="7.41551">
        <ele>849</ele>
        <time>2024-07-09T06:58:42Z</time>
      </trkpt>
      <trkpt lat="43.94977" lon="7.41551">
        <ele>849</ele>
        <time>2024-07-09T06:58:43Z</time>
      </trkpt>
      <trkpt lat="43.94978" lon="7.41551">
        <ele>849</ele>
        <time>2024-07-09T06:58:44Z</time>
      </trkpt>
      <trkpt lat="43.9498" lon="7.41551">
        <ele>849.6</ele>
        <time>2024-07-09T06:58:45Z</time>
      </trkpt>
      <trkpt lat="43.94981" lon="7.41552">
        <ele>849.6</ele>
        <time>2024-07-09T06:58:46Z</time>
      </trkpt>
      <trkpt lat="43.94983" lon="7.41552">
        <ele>849.6</ele>
        <time>2024-07-09T06:58:47Z</time>
      </trkpt>
      <trkpt lat="43.94984" lon="7.41553">
        <ele>849.6</ele>
        <time>2024-07-09T06:58:48Z</time>
      </trkpt>
      <trkpt lat="43.94986" lon="7.41554">
        <ele>850</ele>
        <time>2024-07-09T06:58:49Z</time>
      </trkpt>
      <trkpt lat="43.94987" lon="7.41555">
        <ele>850</ele>
        <time>2024-07-09T06:58:50Z</time>
      </trkpt>
      <trkpt lat="43.94989" lon="7.41555">
        <ele>850.4</ele>
        <time>2024-07-09T06:58:51Z</time>
      </trkpt>
      <trkpt lat="43.94991" lon="7.41556">
        <ele>850.4</ele>
        <time>2024-07-09T06:58:52Z</time>
      </trkpt>
      <trkpt lat="43.94993" lon="7.41557">
        <ele>850.4</ele>
        <time>2024-07-09T06:58:53Z</time>
      </trkpt>
      <trkpt lat="43.94994" lon="7.41557">
        <ele>850.8</ele>
        <time>2024-07-09T06:58:54Z</time>
      </trkpt>
      <trkpt lat="43.94996" lon="7.41558">
        <ele>851</ele>
        <time>2024-07-09T06:58:55Z</time>
      </trkpt>
      <trkpt lat="43.94997" lon="7.41559">
        <ele>851</ele>
        <time>2024-07-09T06:58:56Z</time>
      </trkpt>
      <trkpt lat="43.94999" lon="7.4156">
        <ele>851</ele>
        <time>2024-07-09T06:58:57Z</time>
      </trkpt>
      <trkpt lat="43.95001" lon="7.41562">
        <ele>851.4</ele>
        <time>2024-07-09T06:58:58Z</time>
      </trkpt>
      <trkpt lat="43.95002" lon="7.41562">
        <ele>851.6</ele>
        <time>2024-07-09T06:58:59Z</time>
      </trkpt>
      <trkpt lat="43.95004" lon="7.41563">
        <ele>851.6</ele>
        <time>2024-07-09T06:59:00Z</time>
      </trkpt>
      <trkpt lat="43.95006" lon="7.41564">
        <ele>851.6</ele>
        <time>2024-07-09T06:59:01Z</time>
      </trkpt>
      <trkpt lat="43.95007" lon="7.41564">
        <ele>851.6</ele>
        <time>2024-07-09T06:59:02Z</time>
      </trkpt>
      <trkpt lat="43.95009" lon="7.41565">
        <ele>852.2</ele>
        <time>2024-07-09T06:59:03Z</time>
      </trkpt>
      <trkpt lat="43.95011" lon="7.41566">
        <ele>852.2</ele>
        <time>2024-07-09T06:59:04Z</time>
      </trkpt>
      <trkpt lat="43.95012" lon="7.41567">
        <ele>852.2</ele>
        <time>2024-07-09T06:59:05Z</time>
      </trkpt>
      <trkpt lat="43.95013" lon="7.41568">
        <ele>852.2</ele>
        <time>2024-07-09T06:59:06Z</time>
      </trkpt>
      <trkpt lat="43.95015" lon="7.41569">
        <ele>852.8</ele>
        <time>2024-07-09T06:59:07Z</time>
      </trkpt>
      <trkpt lat="43.95017" lon="7.4157">
        <ele>853</ele>
        <time>2024-07-09T06:59:08Z</time>
      </trkpt>
      <trkpt lat="43.95018" lon="7.41571">
        <ele>853</ele>
        <time>2024-07-09T06:59:09Z</time>
      </trkpt>
      <trkpt lat="43.9502" lon="7.41572">
        <ele>853</ele>
        <time>2024-07-09T06:59:10Z</time>
      </trkpt>
      <trkpt lat="43.95021" lon="7.41573">
        <ele>853</ele>
        <time>2024-07-09T06:59:11Z</time>
      </trkpt>
      <trkpt lat="43.95022" lon="7.41574">
        <ele>853.8</ele>
        <time>2024-07-09T06:59:12Z</time>
      </trkpt>
      <trkpt lat="43.95024" lon="7.41574">
        <ele>853.8</ele>
        <time>2024-07-09T06:59:13Z</time>
      </trkpt>
      <trkpt lat="43.95025" lon="7.41575">
        <ele>853.8</ele>
        <time>2024-07-09T06:59:14Z</time>
      </trkpt>
      <trkpt lat="43.95027" lon="7.41576">
        <ele>853.8</ele>
        <time>2024-07-09T06:59:15Z</time>
      </trkpt>
      <trkpt lat="43.95028" lon="7.41578">
        <ele>853.8</ele>
        <time>2024-07-09T06:59:16Z</time>
      </trkpt>
      <trkpt lat="43.9503" lon="7.41579">
        <ele>854.4</ele>
        <time>2024-07-09T06:59:17Z</time>
      </trkpt>
      <trkpt lat="43.95032" lon="7.4158">
        <ele>854.4</ele>
        <time>2024-07-09T06:59:18Z</time>
      </trkpt>
      <trkpt lat="43.95033" lon="7.41581">
        <ele>854.4</ele>
        <time>2024-07-09T06:59:19Z</time>
      </trkpt>
      <trkpt lat="43.95035" lon="7.41583">
        <ele>854.4</ele>
        <time>2024-07-09T06:59:20Z</time>
      </trkpt>
      <trkpt lat="43.95036" lon="7.41584">
        <ele>854.8</ele>
        <time>2024-07-09T06:59:21Z</time>
      </trkpt>
      <trkpt lat="43.95038" lon="7.41585">
        <ele>855</ele>
        <time>2024-07-09T06:59:22Z</time>
      </trkpt>
      <trkpt lat="43.95039" lon="7.41586">
        <ele>855</ele>
        <time>2024-07-09T06:59:23Z</time>
      </trkpt>
      <trkpt lat="43.9504" lon="7.41587">
        <ele>855</ele>
        <time>2024-07-09T06:59:24Z</time>
      </trkpt>
      <trkpt lat="43.95042" lon="7.41587">
        <ele>855</ele>
        <time>2024-07-09T06:59:25Z</time>
      </trkpt>
      <trkpt lat="43.95043" lon="7.41588">
        <ele>855.6</ele>
        <time>2024-07-09T06:59:26Z</time>
      </trkpt>
      <trkpt lat="43.95045" lon="7.41589">
        <ele>855.8</ele>
        <time>2024-07-09T06:59:27Z</time>
      </trkpt>
      <trkpt lat="43.95046" lon="7.4159">
        <ele>855.8</ele>
        <time>2024-07-09T06:59:28Z</time>
      </trkpt>
      <trkpt lat="43.95047" lon="7.41591">
        <ele>855.8</ele>
        <time>2024-07-09T06:59:29Z</time>
      </trkpt>
      <trkpt lat="43.95049" lon="7.41592">
        <ele>856.4</ele>
        <time>2024-07-09T06:59:30Z</time>
      </trkpt>
      <trkpt lat="43.9505" lon="7.41593">
        <ele>856.4</ele>
        <time>2024-07-09T06:59:31Z</time>
      </trkpt>
      <trkpt lat="43.95052" lon="7.41593">
        <ele>856.4</ele>
        <time>2024-07-09T06:59:32Z</time>
      </trkpt>
      <trkpt lat="43.95053" lon="7.41594">
        <ele>856.4</ele>
        <time>2024-07-09T06:59:33Z</time>
      </trkpt>
      <trkpt lat="43.95055" lon="7.41596">
        <ele>857</ele>
        <time>2024-07-09T06:59:34Z</time>
      </trkpt>
      <trkpt lat="43.95056" lon="7.41596">
        <ele>857</ele>
        <time>2024-07-09T06:59:35Z</time>
      </trkpt>
      <trkpt lat="43.95057" lon="7.41597">
        <ele>857</ele>
        <time>2024-07-09T06:59:36Z</time>
      </trkpt>
      <trkpt lat="43.95058" lon="7.41598">
        <ele>857</ele>
        <time>2024-07-09T06:59:37Z</time>
      </trkpt>
      <trkpt lat="43.9506" lon="7.41599">
        <ele>857</ele>
        <time>2024-07-09T06:59:38Z</time>
      </trkpt>
      <trkpt lat="43.95061" lon="7.41599">
        <ele>857</ele>
        <time>2024-07-09T06:59:39Z</time>
      </trkpt>
      <trkpt lat="43.95063" lon="7.416">
        <ele>857.6</ele>
        <time>2024-07-09T06:59:40Z</time>
      </trkpt>
      <trkpt lat="43.95065" lon="7.41601">
        <ele>857.6</ele>
        <time>2024-07-09T06:59:41Z</time>
      </trkpt>
      <trkpt lat="43.95067" lon="7.41601">
        <ele>857.6</ele>
        <time>2024-07-09T06:59:42Z</time>
      </trkpt>
      <trkpt lat="43.95069" lon="7.41601">
        <ele>858.2</ele>
        <time>2024-07-09T06:59:43Z</time>
      </trkpt>
      <trkpt lat="43.95071" lon="7.41602">
        <ele>858.4</ele>
        <time>2024-07-09T06:59:44Z</time>
      </trkpt>
      <trkpt lat="43.95072" lon="7.41602">
        <ele>858.4</ele>
        <time>2024-07-09T06:59:45Z</time>
      </trkpt>
      <trkpt lat="43.95074" lon="7.41603">
        <ele>858.4</ele>
        <time>2024-07-09T06:59:46Z</time>
      </trkpt>
      <trkpt lat="43.95076" lon="7.41603">
        <ele>859</ele>
        <time>2024-07-09T06:59:47Z</time>
      </trkpt>
      <trkpt lat="43.95078" lon="7.41603">
        <ele>859.2</ele>
        <time>2024-07-09T06:59:48Z</time>
      </trkpt>
      <trkpt lat="43.9508" lon="7.41603">
        <ele>859.2</ele>
        <time>2024-07-09T06:59:49Z</time>
      </trkpt>
      <trkpt lat="43.95082" lon="7.41603">
        <ele>859.2</ele>
        <time>2024-07-09T06:59:50Z</time>
      </trkpt>
      <trkpt lat="43.95084" lon="7.41603">
        <ele>859.2</ele>
        <time>2024-07-09T06:59:51Z</time>
      </trkpt>
      <trkpt lat="43.95086" lon="7.41603">
        <ele>859.6</ele>
        <time>2024-07-09T06:59:52Z</time>
      </trkpt>
      <trkpt lat="43.95087" lon="7.41603">
        <ele>859.6</ele>
        <time>2024-07-09T06:59:53Z</time>
      </trkpt>
      <trkpt lat="43.95089" lon="7.41602">
        <ele>859.6</ele>
        <time>2024-07-09T06:59:54Z</time>
      </trkpt>
      <trkpt lat="43.95091" lon="7.41602">
        <ele>859.6</ele>
        <time>2024-07-09T06:59:55Z</time>
      </trkpt>
      <trkpt lat="43.95093" lon="7.41602">
        <ele>859.6</ele>
        <time>2024-07-09T06:59:56Z</time>
      </trkpt>
      <trkpt lat="43.95094" lon="7.41602">
        <ele>860</ele>
        <time>2024-07-09T06:59:57Z</time>
      </trkpt>
      <trkpt lat="43.95096" lon="7.41602">
        <ele>860.2</ele>
        <time>2024-07-09T06:59:58Z</time>
      </trkpt>
      <trkpt lat="43.95098" lon="7.41601">
        <ele>860.2</ele>
        <time>2024-07-09T06:59:59Z</time>
      </trkpt>
      <trkpt lat="43.951" lon="7.41602">
        <ele>860.2</ele>
        <time>2024-07-09T07:00:00Z</time>
      </trkpt>
      <trkpt lat="43.95102" lon="7.41602">
        <ele>860.6</ele>
        <time>2024-07-09T07:00:01Z</time>
      </trkpt>
      <trkpt lat="43.95103" lon="7.41603">
        <ele>860.6</ele>
        <time>2024-07-09T07:00:02Z</time>
      </trkpt>
      <trkpt lat="43.95105" lon="7.41603">
        <ele>860.8</ele>
        <time>2024-07-09T07:00:03Z</time>
      </trkpt>
      <trkpt lat="43.95107" lon="7.41602">
        <ele>860.8</ele>
        <time>2024-07-09T07:00:04Z</time>
      </trkpt>
      <trkpt lat="43.95109" lon="7.416">
        <ele>860.8</ele>
        <time>2024-07-09T07:00:05Z</time>
      </trkpt>
      <trkpt lat="43.95111" lon="7.41599">
        <ele>860.8</ele>
        <time>2024-07-09T07:00:06Z</time>
      </trkpt>
      <trkpt lat="43.95112" lon="7.41599">
        <ele>861.2</ele>
        <time>2024-07-09T07:00:07Z</time>
      </trkpt>
      <trkpt lat="43.95114" lon="7.41599">
        <ele>861.2</ele>
        <time>2024-07-09T07:00:08Z</time>
      </trkpt>
      <trkpt lat="43.95116" lon="7.41599">
        <ele>861.2</ele>
        <time>2024-07-09T07:00:09Z</time>
      </trkpt>
      <trkpt lat="43.95118" lon="7.41599">
        <ele>861.8</ele>
        <time>2024-07-09T07:00:10Z</time>
      </trkpt>
      <trkpt lat="43.95119" lon="7.41598">
        <ele>861.8</ele>
        <time>2024-07-09T07:00:11Z</time>
      </trkpt>
      <trkpt lat="43.95121" lon="7.41596">
        <ele>861.8</ele>
        <time>2024-07-09T07:00:12Z</time>
      </trkpt>
      <trkpt lat="43.95123" lon="7.41596">
        <ele>861.8</ele>
        <time>2024-07-09T07:00:13Z</time>
      </trkpt>
      <trkpt lat="43.95124" lon="7.41595">
        <ele>861.8</ele>
        <time>2024-07-09T07:00:14Z</time>
      </trkpt>
      <trkpt lat="43.95126" lon="7.41593">
        <ele>862.2</ele>
        <time>2024-07-09T07:00:15Z</time>
      </trkpt>
      <trkpt lat="43.95127" lon="7.41592">
        <ele>862.4</ele>
        <time>2024-07-09T07:00:16Z</time>
      </trkpt>
      <trkpt lat="43.95129" lon="7.41591">
        <ele>862.4</ele>
        <time>2024-07-09T07:00:17Z</time>
      </trkpt>
      <trkpt lat="43.95131" lon="7.4159">
        <ele>862.4</ele>
        <time>2024-07-09T07:00:18Z</time>
      </trkpt>
      <trkpt lat="43.95132" lon="7.41589">
        <ele>863</ele>
        <time>2024-07-09T07:00:19Z</time>
      </trkpt>
      <trkpt lat="43.95134" lon="7.41588">
        <ele>863.2</ele>
        <time>2024-07-09T07:00:20Z</time>
      </trkpt>
      <trkpt lat="43.95135" lon="7.41587">
        <ele>863.2</ele>
        <time>2024-07-09T07:00:21Z</time>
      </trkpt>
      <trkpt lat="43.95137" lon="7.41585">
        <ele>863.2</ele>
        <time>2024-07-09T07:00:22Z</time>
      </trkpt>
      <trkpt lat="43.95138" lon="7.41584">
        <ele>863.4</ele>
        <time>2024-07-09T07:00:23Z</time>
      </trkpt>
      <trkpt lat="43.9514" lon="7.41583">
        <ele>863.4</ele>
        <time>2024-07-09T07:00:24Z</time>
      </trkpt>
      <trkpt lat="43.95141" lon="7.41582">
        <ele>863.6</ele>
        <time>2024-07-09T07:00:25Z</time>
      </trkpt>
      <trkpt lat="43.95143" lon="7.4158">
        <ele>863.6</ele>
        <time>2024-07-09T07:00:26Z</time>
      </trkpt>
      <trkpt lat="43.95145" lon="7.41579">
        <ele>863.6</ele>
        <time>2024-07-09T07:00:27Z</time>
      </trkpt>
      <trkpt lat="43.95146" lon="7.41577">
        <ele>863.8</ele>
        <time>2024-07-09T07:00:28Z</time>
      </trkpt>
      <trkpt lat="43.95147" lon="7.41576">
        <ele>864</ele>
        <time>2024-07-09T07:00:29Z</time>
      </trkpt>
      <trkpt lat="43.95148" lon="7.41574">
        <ele>864</ele>
        <time>2024-07-09T07:00:30Z</time>
      </trkpt>
      <trkpt lat="43.95149" lon="7.41573">
        <ele>864</ele>
        <time>2024-07-09T07:00:31Z</time>
      </trkpt>
      <trkpt lat="43.95149" lon="7.41571">
        <ele>864.4</ele>
        <time>2024-07-09T07:00:32Z</time>
      </trkpt>
      <trkpt lat="43.9515" lon="7.41569">
        <ele>864.6</ele>
        <time>2024-07-09T07:00:33Z</time>
      </trkpt>
      <trkpt lat="43.9515" lon="7.41567">
        <ele>864.6</ele>
        <time>2024-07-09T07:00:34Z</time>
      </trkpt>
      <trkpt lat="43.95151" lon="7.41564">
        <ele>864.6</ele>
        <time>2024-07-09T07:00:35Z</time>
      </trkpt>
      <trkpt lat="43.95151" lon="7.41562">
        <ele>864.6</ele>
        <time>2024-07-09T07:00:36Z</time>
      </trkpt>
      <trkpt lat="43.95152" lon="7.4156">
        <ele>865.4</ele>
        <time>2024-07-09T07:00:37Z</time>
      </trkpt>
      <trkpt lat="43.95153" lon="7.41558">
        <ele>865.4</ele>
        <time>2024-07-09T07:00:38Z</time>
      </trkpt>
      <trkpt lat="43.95153" lon="7.41556">
        <ele>865.4</ele>
        <time>2024-07-09T07:00:39Z</time>
      </trkpt>
      <trkpt lat="43.95153" lon="7.41554">
        <ele>865.4</ele>
        <time>2024-07-09T07:00:40Z</time>
      </trkpt>
      <trkpt lat="43.95154" lon="7.41552">
        <ele>865.4</ele>
        <time>2024-07-09T07:00:41Z</time>
      </trkpt>
      <trkpt lat="43.95154" lon="7.4155">
        <ele>866</ele>
        <time>2024-07-09T07:00:42Z</time>
      </trkpt>
      <trkpt lat="43.95154" lon="7.41548">
        <ele>866.2</ele>
        <time>2024-07-09T07:00:43Z</time>
      </trkpt>
      <trkpt lat="43.95155" lon="7.41545">
        <ele>866.2</ele>
        <time>2024-07-09T07:00:44Z</time>
      </trkpt>
      <trkpt lat="43.95155" lon="7.41543">
        <ele>866.2</ele>
        <time>2024-07-09T07:00:45Z</time>
      </trkpt>
      <trkpt lat="43.95154" lon="7.41541">
        <ele>866.6</ele>
        <time>2024-07-09T07:00:46Z</time>
      </trkpt>
      <trkpt lat="43.95154" lon="7.41538">
        <ele>866.6</ele>
        <time>2024-07-09T07:00:47Z</time>
      </trkpt>
      <trkpt lat="43.95153" lon="7.41536">
        <ele>866.8</ele>
        <time>2024-07-09T07:00:48Z</time>
      </trkpt>
      <trkpt lat="43.95153" lon="7.41534">
        <ele>866.8</ele>
        <time>2024-07-09T07:00:49Z</time>
      </trkpt>
      <trkpt lat="43.95152" lon="7.41532">
        <ele>866.8</ele>
        <time>2024-07-09T07:00:50Z</time>
      </trkpt>
      <trkpt lat="43.95151" lon="7.4153">
        <ele>866.8</ele>
        <time>2024-07-09T07:00:51Z</time>
      </trkpt>
      <trkpt lat="43.95151" lon="7.41528">
        <ele>867.2</ele>
        <time>2024-07-09T07:00:52Z</time>
      </trkpt>
      <trkpt lat="43.95151" lon="7.41527">
        <ele>867.2</ele>
        <time>2024-07-09T07:00:53Z</time>
      </trkpt>
      <trkpt lat="43.9515" lon="7.41525">
        <ele>867.2</ele>
        <time>2024-07-09T07:00:54Z</time>
      </trkpt>
      <trkpt lat="43.9515" lon="7.41523">
        <ele>867.6</ele>
        <time>2024-07-09T07:00:55Z</time>
      </trkpt>
      <trkpt lat="43.95149" lon="7.4152">
        <ele>868</ele>
        <time>2024-07-09T07:00:56Z</time>
      </trkpt>
      <trkpt lat="43.95148" lon="7.41518">
        <ele>868</ele>
        <time>2024-07-09T07:00:57Z</time>
      </trkpt>
      <trkpt lat="43.95148" lon="7.41516">
        <ele>868</ele>
        <time>2024-07-09T07:00:58Z</time>
      </trkpt>
      <trkpt lat="43.95147" lon="7.41514">
        <ele>868</ele>
        <time>2024-07-09T07:00:59Z</time>
      </trkpt>
      <trkpt lat="43.95147" lon="7.41512">
        <ele>868.4</ele>
        <time>2024-07-09T07:01:00Z</time>
      </trkpt>
      <trkpt lat="43.95146" lon="7.4151">
        <ele>868.4</ele>
        <time>2024-07-09T07:01:01Z</time>
      </trkpt>
      <trkpt lat="43.95145" lon="7.41508">
        <ele>868.4</ele>
        <time>2024-07-09T07:01:02Z</time>
      </trkpt>
      <trkpt lat="43.95144" lon="7.41506">
        <ele>868.4</ele>
        <time>2024-07-09T07:01:03Z</time>
      </trkpt>
      <trkpt lat="43.95144" lon="7.41503">
        <ele>869</ele>
        <time>2024-07-09T07:01:04Z</time>
      </trkpt>
      <trkpt lat="43.95143" lon="7.41501">
        <ele>869.2</ele>
        <time>2024-07-09T07:01:05Z</time>
      </trkpt>
      <trkpt lat="43.95142" lon="7.41499">
        <ele>869.2</ele>
        <time>2024-07-09T07:01:06Z</time>
      </trkpt>
      <trkpt lat="43.9514" lon="7.41497">
        <ele>869.2</ele>
        <time>2024-07-09T07:01:07Z</time>
      </trkpt>
      <trkpt lat="43.95139" lon="7.41494">
        <ele>869.6</ele>
        <time>2024-07-09T07:01:08Z</time>
      </trkpt>
      <trkpt lat="43.95138" lon="7.41492">
        <ele>869.8</ele>
        <time>2024-07-09T07:01:09Z</time>
      </trkpt>
      <trkpt lat="43.95138" lon="7.41489">
        <ele>869.8</ele>
        <time>2024-07-09T07:01:10Z</time>
      </trkpt>
      <trkpt lat="43.95137" lon="7.41487">
        <ele>869.8</ele>
        <time>2024-07-09T07:01:11Z</time>
      </trkpt>
      <trkpt lat="43.95137" lon="7.41485">
        <ele>869.8</ele>
        <time>2024-07-09T07:01:12Z</time>
      </trkpt>
      <trkpt lat="43.95136" lon="7.41484">
        <ele>870.2</ele>
        <time>2024-07-09T07:01:13Z</time>
      </trkpt>
      <trkpt lat="43.95135" lon="7.41483">
        <ele>870.2</ele>
        <time>2024-07-09T07:01:14Z</time>
      </trkpt>
      <trkpt lat="43.95134" lon="7.41482">
        <ele>870.2</ele>
        <time>2024-07-09T07:01:15Z</time>
      </trkpt>
      <trkpt lat="43.95135" lon="7.41481">
        <ele>870.2</ele>
        <time>2024-07-09T07:01:16Z</time>
      </trkpt>
      <trkpt lat="43.95135" lon="7.4148">
        <ele>870.8</ele>
        <time>2024-07-09T07:01:17Z</time>
      </trkpt>
      <trkpt lat="43.95134" lon="7.41478">
        <ele>871</ele>
        <time>2024-07-09T07:01:18Z</time>
      </trkpt>
      <trkpt lat="43.95133" lon="7.41475">
        <ele>871</ele>
        <time>2024-07-09T07:01:19Z</time>
      </trkpt>
      <trkpt lat="43.95132" lon="7.41473">
        <ele>871</ele>
        <time>2024-07-09T07:01:20Z</time>
      </trkpt>
      <trkpt lat="43.95131" lon="7.41472">
        <ele>871</ele>
        <time>2024-07-09T07:01:21Z</time>
      </trkpt>
      <trkpt lat="43.9513" lon="7.4147">
        <ele>871.6</ele>
        <time>2024-07-09T07:01:22Z</time>
      </trkpt>
      <trkpt lat="43.95129" lon="7.41469">
        <ele>871.6</ele>
        <time>2024-07-09T07:01:23Z</time>
      </trkpt>
      <trkpt lat="43.95128" lon="7.41467">
        <ele>871.6</ele>
        <time>2024-07-09T07:01:24Z</time>
      </trkpt>
      <trkpt lat="43.95127" lon="7.41466">
        <ele>871.6</ele>
        <time>2024-07-09T07:01:25Z</time>
      </trkpt>
      <trkpt lat="43.95126" lon="7.41464">
        <ele>871.6</ele>
        <time>2024-07-09T07:01:26Z</time>
      </trkpt>
      <trkpt lat="43.95126" lon="7.41462">
        <ele>872.2</ele>
        <time>2024-07-09T07:01:27Z</time>
      </trkpt>
      <trkpt lat="43.95125" lon="7.41461">
        <ele>872.2</ele>
        <time>2024-07-09T07:01:28Z</time>
      </trkpt>
      <trkpt lat="43.95124" lon="7.4146">
        <ele>872.2</ele>
        <time>2024-07-09T07:01:29Z</time>
      </trkpt>
      <trkpt lat="43.95123" lon="7.41459">
        <ele>872.2</ele>
        <time>2024-07-09T07:01:30Z</time>
      </trkpt>
      <trkpt lat="43.95121" lon="7.41458">
        <ele>872.8</ele>
        <time>2024-07-09T07:01:31Z</time>
      </trkpt>
      <trkpt lat="43.95121" lon="7.41456">
        <ele>872.8</ele>
        <time>2024-07-09T07:01:32Z</time>
      </trkpt>
      <trkpt lat="43.95121" lon="7.41455">
        <ele>872.8</ele>
        <time>2024-07-09T07:01:33Z</time>
      </trkpt>
      <trkpt lat="43.95121" lon="7.41455">
        <ele>872.8</ele>
        <time>2024-07-09T07:01:34Z</time>
      </trkpt>
      <trkpt lat="43.95121" lon="7.41455">
        <ele>873.4</ele>
        <time>2024-07-09T07:01:35Z</time>
      </trkpt>
      <trkpt lat="43.95122" lon="7.41453">
        <ele>873.6</ele>
        <time>2024-07-09T07:01:36Z</time>
      </trkpt>
      <trkpt lat="43.95121" lon="7.41451">
        <ele>873.6</ele>
        <time>2024-07-09T07:01:37Z</time>
      </trkpt>
      <trkpt lat="43.95119" lon="7.41449">
        <ele>873.6</ele>
        <time>2024-07-09T07:01:38Z</time>
      </trkpt>
      <trkpt lat="43.95118" lon="7.41448">
        <ele>873.6</ele>
        <time>2024-07-09T07:01:39Z</time>
      </trkpt>
      <trkpt lat="43.95117" lon="7.41447">
        <ele>874</ele>
        <time>2024-07-09T07:01:40Z</time>
      </trkpt>
      <trkpt lat="43.95117" lon="7.41446">
        <ele>874.2</ele>
        <time>2024-07-09T07:01:41Z</time>
      </trkpt>
      <trkpt lat="43.95116" lon="7.41444">
        <ele>874.2</ele>
        <time>2024-07-09T07:01:42Z</time>
      </trkpt>
      <trkpt lat="43.95116" lon="7.41443">
        <ele>874.2</ele>
        <time>2024-07-09T07:01:43Z</time>
      </trkpt>
      <trkpt lat="43.95116" lon="7.41442">
        <ele>874.6</ele>
        <time>2024-07-09T07:01:44Z</time>
      </trkpt>
      <trkpt lat="43.95116" lon="7.41439">
        <ele>874.8</ele>
        <time>2024-07-09T07:01:45Z</time>
      </trkpt>
      <trkpt lat="43.95116" lon="7.41438">
        <ele>874.8</ele>
        <time>2024-07-09T07:01:46Z</time>
      </trkpt>
      <trkpt lat="43.95116" lon="7.41437">
        <ele>874.8</ele>
        <time>2024-07-09T07:01:47Z</time>
      </trkpt>
      <trkpt lat="43.95115" lon="7.41437">
        <ele>875.2</ele>
        <time>2024-07-09T07:01:48Z</time>
      </trkpt>
      <trkpt lat="43.95114" lon="7.41436">
        <ele>875.4</ele>
        <time>2024-07-09T07:01:49Z</time>
      </trkpt>
      <trkpt lat="43.95113" lon="7.41434">
        <ele>875.4</ele>
        <time>2024-07-09T07:01:50Z</time>
      </trkpt>
      <trkpt lat="43.95112" lon="7.41431">
        <ele>875.4</ele>
        <time>2024-07-09T07:01:51Z</time>
      </trkpt>
      <trkpt lat="43.95113" lon="7.41428">
        <ele>875.4</ele>
        <time>2024-07-09T07:01:52Z</time>
      </trkpt>
      <trkpt lat="43.95113" lon="7.41424">
        <ele>876</ele>
        <time>2024-07-09T07:01:53Z</time>
      </trkpt>
      <trkpt lat="43.95113" lon="7.41422">
        <ele>876.2</ele>
        <time>2024-07-09T07:01:54Z</time>
      </trkpt>
      <trkpt lat="43.95113" lon="7.4142">
        <ele>876.2</ele>
        <time>2024-07-09T07:01:55Z</time>
      </trkpt>
      <trkpt lat="43.95112" lon="7.41417">
        <ele>876.2</ele>
        <time>2024-07-09T07:01:56Z</time>
      </trkpt>
      <trkpt lat="43.95112" lon="7.41415">
        <ele>876.6</ele>
        <time>2024-07-09T07:01:57Z</time>
      </trkpt>
      <trkpt lat="43.95112" lon="7.41412">
        <ele>876.8</ele>
        <time>2024-07-09T07:01:58Z</time>
      </trkpt>
      <trkpt lat="43.95111" lon="7.4141">
        <ele>876.8</ele>
        <time>2024-07-09T07:01:59Z</time>
      </trkpt>
      <trkpt lat="43.95111" lon="7.41408">
        <ele>876.8</ele>
        <time>2024-07-09T07:02:00Z</time>
      </trkpt>
      <trkpt lat="43.9511" lon="7.41407">
        <ele>877.2</ele>
        <time>2024-07-09T07:02:01Z</time>
      </trkpt>
      <trkpt lat="43.9511" lon="7.41405">
        <ele>877.4</ele>
        <time>2024-07-09T07:02:02Z</time>
      </trkpt>
      <trkpt lat="43.95109" lon="7.41403">
        <ele>877.4</ele>
        <time>2024-07-09T07:02:03Z</time>
      </trkpt>
      <trkpt lat="43.95109" lon="7.41402">
        <ele>877.4</ele>
        <time>2024-07-09T07:02:04Z</time>
      </trkpt>
      <trkpt lat="43.95108" lon="7.414">
        <ele>877.4</ele>
        <time>2024-07-09T07:02:05Z</time>
      </trkpt>
      <trkpt lat="43.95108" lon="7.41398">
        <ele>877.4</ele>
        <time>2024-07-09T07:02:06Z</time>
      </trkpt>
      <trkpt lat="43.95108" lon="7.41395">
        <ele>878</ele>
        <time>2024-07-09T07:02:07Z</time>
      </trkpt>
      <trkpt lat="43.95108" lon="7.41393">
        <ele>878</ele>
        <time>2024-07-09T07:02:08Z</time>
      </trkpt>
      <trkpt lat="43.95109" lon="7.4139">
        <ele>878</ele>
        <time>2024-07-09T07:02:09Z</time>
      </trkpt>
      <trkpt lat="43.95109" lon="7.41387">
        <ele>878</ele>
        <time>2024-07-09T07:02:10Z</time>
      </trkpt>
      <trkpt lat="43.95109" lon="7.41385">
        <ele>878.4</ele>
        <time>2024-07-09T07:02:11Z</time>
      </trkpt>
      <trkpt lat="43.95109" lon="7.41382">
        <ele>878.8</ele>
        <time>2024-07-09T07:02:12Z</time>
      </trkpt>
      <trkpt lat="43.9511" lon="7.4138">
        <ele>878.8</ele>
        <time>2024-07-09T07:02:13Z</time>
      </trkpt>
      <trkpt lat="43.95111" lon="7.41378">
        <ele>878.8</ele>
        <time>2024-07-09T07:02:14Z</time>
      </trkpt>
      <trkpt lat="43.95112" lon="7.41375">
        <ele>879</ele>
        <time>2024-07-09T07:02:15Z</time>
      </trkpt>
      <trkpt lat="43.95112" lon="7.41373">
        <ele>879.2</ele>
        <time>2024-07-09T07:02:16Z</time>
      </trkpt>
      <trkpt lat="43.95112" lon="7.41371">
        <ele>879.2</ele>
        <time>2024-07-09T07:02:17Z</time>
      </trkpt>
      <trkpt lat="43.95112" lon="7.4137">
        <ele>879.2</ele>
        <time>2024-07-09T07:02:18Z</time>
      </trkpt>
      <trkpt lat="43.95113" lon="7.41369">
        <ele>879.6</ele>
        <time>2024-07-09T07:02:19Z</time>
      </trkpt>
      <trkpt lat="43.95112" lon="7.4137">
        <ele>879.8</ele>
        <time>2024-07-09T07:02:20Z</time>
      </trkpt>
      <trkpt lat="43.95112" lon="7.41368">
        <ele>879.8</ele>
        <time>2024-07-09T07:02:21Z</time>
      </trkpt>
      <trkpt lat="43.95112" lon="7.41366">
        <ele>879.8</ele>
        <time>2024-07-09T07:02:22Z</time>
      </trkpt>
      <trkpt lat="43.95112" lon="7.41366">
        <ele>879.8</ele>
        <time>2024-07-09T07:02:23Z</time>
      </trkpt>
      <trkpt lat="43.95113" lon="7.41364">
        <ele>880.2</ele>
        <time>2024-07-09T07:02:24Z</time>
      </trkpt>
      <trkpt lat="43.95114" lon="7.41364">
        <ele>880.4</ele>
        <time>2024-07-09T07:02:25Z</time>
      </trkpt>
      <trkpt lat="43.95114" lon="7.41363">
        <ele>880.4</ele>
        <time>2024-07-09T07:02:26Z</time>
      </trkpt>
      <trkpt lat="43.95115" lon="7.41364">
        <ele>880.4</ele>
        <time>2024-07-09T07:02:27Z</time>
      </trkpt>
      <trkpt lat="43.95115" lon="7.41364">
        <ele>881</ele>
        <time>2024-07-09T07:02:28Z</time>
      </trkpt>
      <trkpt lat="43.95116" lon="7.41362">
        <ele>881</ele>
        <time>2024-07-09T07:02:29Z</time>
      </trkpt>
      <trkpt lat="43.95117" lon="7.41361">
        <ele>881</ele>
        <time>2024-07-09T07:02:30Z</time>
      </trkpt>
      <trkpt lat="43.95117" lon="7.4136">
        <ele>881</ele>
        <time>2024-07-09T07:02:31Z</time>
      </trkpt>
      <trkpt lat="43.95119" lon="7.41359">
        <ele>881.4</ele>
        <time>2024-07-09T07:02:32Z</time>
      </trkpt>
      <trkpt lat="43.9512" lon="7.41358">
        <ele>881.6</ele>
        <time>2024-07-09T07:02:33Z</time>
      </trkpt>
      <trkpt lat="43.95121" lon="7.41356">
        <ele>881.6</ele>
        <time>2024-07-09T07:02:34Z</time>
      </trkpt>
      <trkpt lat="43.95122" lon="7.41356">
        <ele>881.6</ele>
        <time>2024-07-09T07:02:35Z</time>
      </trkpt>
      <trkpt lat="43.95123" lon="7.41355">
        <ele>881.6</ele>
        <time>2024-07-09T07:02:36Z</time>
      </trkpt>
      <trkpt lat="43.95125" lon="7.41353">
        <ele>882.2</ele>
        <time>2024-07-09T07:02:37Z</time>
      </trkpt>
      <trkpt lat="43.95126" lon="7.41352">
        <ele>882.4</ele>
        <time>2024-07-09T07:02:38Z</time>
      </trkpt>
      <trkpt lat="43.95128" lon="7.4135">
        <ele>882.4</ele>
        <time>2024-07-09T07:02:39Z</time>
      </trkpt>
      <trkpt lat="43.95129" lon="7.41348">
        <ele>882.4</ele>
        <time>2024-07-09T07:02:40Z</time>
      </trkpt>
      <trkpt lat="43.95131" lon="7.41346">
        <ele>882.8</ele>
        <time>2024-07-09T07:02:41Z</time>
      </trkpt>
      <trkpt lat="43.95132" lon="7.41345">
        <ele>883</ele>
        <time>2024-07-09T07:02:42Z</time>
      </trkpt>
      <trkpt lat="43.95133" lon="7.41342">
        <ele>883</ele>
        <time>2024-07-09T07:02:43Z</time>
      </trkpt>
      <trkpt lat="43.95134" lon="7.4134">
        <ele>883</ele>
        <time>2024-07-09T07:02:44Z</time>
      </trkpt>
      <trkpt lat="43.95135" lon="7.41337">
        <ele>883</ele>
        <time>2024-07-09T07:02:45Z</time>
      </trkpt>
      <trkpt lat="43.95136" lon="7.41334">
        <ele>883</ele>
        <time>2024-07-09T07:02:46Z</time>
      </trkpt>
      <trkpt lat="43.95138" lon="7.41331">
        <ele>883</ele>
        <time>2024-07-09T07:02:47Z</time>
      </trkpt>
      <trkpt lat="43.95139" lon="7.41329">
        <ele>883.2</ele>
        <time>2024-07-09T07:02:48Z</time>
      </trkpt>
      <trkpt lat="43.9514" lon="7.41327">
        <ele>883.2</ele>
        <time>2024-07-09T07:02:49Z</time>
      </trkpt>
      <trkpt lat="43.95141" lon="7.41325">
        <ele>883.2</ele>
        <time>2024-07-09T07:02:50Z</time>
      </trkpt>
      <trkpt lat="43.95143" lon="7.41323">
        <ele>883.8</ele>
        <time>2024-07-09T07:02:51Z</time>
      </trkpt>
      <trkpt lat="43.95144" lon="7.41322">
        <ele>883.8</ele>
        <time>2024-07-09T07:02:52Z</time>
      </trkpt>
      <trkpt lat="43.95145" lon="7.4132">
        <ele>883.8</ele>
        <time>2024-07-09T07:02:53Z</time>
      </trkpt>
      <trkpt lat="43.95147" lon="7.41318">
        <ele>883.8</ele>
        <time>2024-07-09T07:02:54Z</time>
      </trkpt>
      <trkpt lat="43.95148" lon="7.41316">
        <ele>883.8</ele>
        <time>2024-07-09T07:02:55Z</time>
      </trkpt>
      <trkpt lat="43.95151" lon="7.41313">
        <ele>884.4</ele>
        <time>2024-07-09T07:02:56Z</time>
      </trkpt>
      <trkpt lat="43.95152" lon="7.4131">
        <ele>884.4</ele>
        <time>2024-07-09T07:02:57Z</time>
      </trkpt>
      <trkpt lat="43.95153" lon="7.41309">
        <ele>884.4</ele>
        <time>2024-07-09T07:02:58Z</time>
      </trkpt>
      <trkpt lat="43.95154" lon="7.41307">
        <ele>884.8</ele>
        <time>2024-07-09T07:02:59Z</time>
      </trkpt>
      <trkpt lat="43.95155" lon="7.41305">
        <ele>884.8</ele>
        <time>2024-07-09T07:03:00Z</time>
      </trkpt>
      <trkpt lat="43.95156" lon="7.41303">
        <ele>884.8</ele>
        <time>2024-07-09T07:03:01Z</time>
      </trkpt>
      <trkpt lat="43.95157" lon="7.41301">
        <ele>884.8</ele>
        <time>2024-07-09T07:03:02Z</time>
      </trkpt>
      <trkpt lat="43.95159" lon="7.413">
        <ele>884.8</ele>
        <time>2024-07-09T07:03:03Z</time>
      </trkpt>
      <trkpt lat="43.9516" lon="7.41298">
        <ele>885.6</ele>
        <time>2024-07-09T07:03:04Z</time>
      </trkpt>
      <trkpt lat="43.95162" lon="7.41296">
        <ele>885.6</ele>
        <time>2024-07-09T07:03:05Z</time>
      </trkpt>
      <trkpt lat="43.95162" lon="7.41294">
        <ele>885.6</ele>
        <time>2024-07-09T07:03:06Z</time>
      </trkpt>
      <trkpt lat="43.95164" lon="7.41292">
        <ele>885.6</ele>
        <time>2024-07-09T07:03:07Z</time>
      </trkpt>
      <trkpt lat="43.95165" lon="7.4129">
        <ele>886.2</ele>
        <time>2024-07-09T07:03:08Z</time>
      </trkpt>
      <trkpt lat="43.95166" lon="7.4129">
        <ele>886.6</ele>
        <time>2024-07-09T07:03:09Z</time>
      </trkpt>
      <trkpt lat="43.95167" lon="7.41289">
        <ele>886.6</ele>
        <time>2024-07-09T07:03:10Z</time>
      </trkpt>
      <trkpt lat="43.95169" lon="7.41287">
        <ele>886.6</ele>
        <time>2024-07-09T07:03:11Z</time>
      </trkpt>
      <trkpt lat="43.95169" lon="7.41286">
        <ele>886.6</ele>
        <time>2024-07-09T07:03:12Z</time>
      </trkpt>
      <trkpt lat="43.9517" lon="7.41285">
        <ele>886.8</ele>
        <time>2024-07-09T07:03:13Z</time>
      </trkpt>
      <trkpt lat="43.95171" lon="7.41284">
        <ele>887.2</ele>
        <time>2024-07-09T07:03:14Z</time>
      </trkpt>
      <trkpt lat="43.95173" lon="7.41283">
        <ele>887.2</ele>
        <time>2024-07-09T07:03:15Z</time>
      </trkpt>
      <trkpt lat="43.95174" lon="7.41284">
        <ele>887.2</ele>
        <time>2024-07-09T07:03:16Z</time>
      </trkpt>
      <trkpt lat="43.95175" lon="7.41283">
        <ele>887.6</ele>
        <time>2024-07-09T07:03:17Z</time>
      </trkpt>
      <trkpt lat="43.95177" lon="7.41281">
        <ele>887.8</ele>
        <time>2024-07-09T07:03:18Z</time>
      </trkpt>
      <trkpt lat="43.95179" lon="7.4128">
        <ele>887.8</ele>
        <time>2024-07-09T07:03:19Z</time>
      </trkpt>
      <trkpt lat="43.95181" lon="7.41279">
        <ele>887.8</ele>
        <time>2024-07-09T07:03:20Z</time>
      </trkpt>
      <trkpt lat="43.95183" lon="7.41278">
        <ele>888.4</ele>
        <time>2024-07-09T07:03:21Z</time>
      </trkpt>
      <trkpt lat="43.95185" lon="7.41278">
        <ele>888.6</ele>
        <time>2024-07-09T07:03:22Z</time>
      </trkpt>
      <trkpt lat="43.95187" lon="7.41279">
        <ele>888.6</ele>
        <time>2024-07-09T07:03:23Z</time>
      </trkpt>
      <trkpt lat="43.95189" lon="7.41278">
        <ele>888.6</ele>
        <time>2024-07-09T07:03:24Z</time>
      </trkpt>
      <trkpt lat="43.9519" lon="7.41279">
        <ele>888.6</ele>
        <time>2024-07-09T07:03:25Z</time>
      </trkpt>
      <trkpt lat="43.95192" lon="7.4128">
        <ele>889</ele>
        <time>2024-07-09T07:03:26Z</time>
      </trkpt>
      <trkpt lat="43.95194" lon="7.4128">
        <ele>889.4</ele>
        <time>2024-07-09T07:03:27Z</time>
      </trkpt>
      <trkpt lat="43.95195" lon="7.4128">
        <ele>889.4</ele>
        <time>2024-07-09T07:03:28Z</time>
      </trkpt>
      <trkpt lat="43.95197" lon="7.41279">
        <ele>889.4</ele>
        <time>2024-07-09T07:03:29Z</time>
      </trkpt>
      <trkpt lat="43.95199" lon="7.4128">
        <ele>889.4</ele>
        <time>2024-07-09T07:03:30Z</time>
      </trkpt>
      <trkpt lat="43.952" lon="7.4128">
        <ele>889.6</ele>
        <time>2024-07-09T07:03:31Z</time>
      </trkpt>
      <trkpt lat="43.95202" lon="7.41281">
        <ele>889.8</ele>
        <time>2024-07-09T07:03:32Z</time>
      </trkpt>
      <trkpt lat="43.95204" lon="7.41282">
        <ele>889.8</ele>
        <time>2024-07-09T07:03:33Z</time>
      </trkpt>
      <trkpt lat="43.95206" lon="7.41282">
        <ele>889.8</ele>
        <time>2024-07-09T07:03:34Z</time>
      </trkpt>
      <trkpt lat="43.95208" lon="7.41284">
        <ele>890.6</ele>
        <time>2024-07-09T07:03:35Z</time>
      </trkpt>
      <trkpt lat="43.9521" lon="7.41284">
        <ele>890.6</ele>
        <time>2024-07-09T07:03:36Z</time>
      </trkpt>
      <trkpt lat="43.95212" lon="7.41285">
        <ele>890.8</ele>
        <time>2024-07-09T07:03:37Z</time>
      </trkpt>
      <trkpt lat="43.95214" lon="7.41286">
        <ele>890.8</ele>
        <time>2024-07-09T07:03:38Z</time>
      </trkpt>
      <trkpt lat="43.95215" lon="7.41288">
        <ele>890.8</ele>
        <time>2024-07-09T07:03:39Z</time>
      </trkpt>
      <trkpt lat="43.95216" lon="7.41289">
        <ele>891.4</ele>
        <time>2024-07-09T07:03:40Z</time>
      </trkpt>
      <trkpt lat="43.95218" lon="7.4129">
        <ele>891.4</ele>
        <time>2024-07-09T07:03:41Z</time>
      </trkpt>
      <trkpt lat="43.95219" lon="7.41291">
        <ele>891.4</ele>
        <time>2024-07-09T07:03:42Z</time>
      </trkpt>
      <trkpt lat="43.9522" lon="7.41293">
        <ele>891.4</ele>
        <time>2024-07-09T07:03:43Z</time>
      </trkpt>
      <trkpt lat="43.95222" lon="7.41294">
        <ele>892</ele>
        <time>2024-07-09T07:03:44Z</time>
      </trkpt>
      <trkpt lat="43.95223" lon="7.41295">
        <ele>892</ele>
        <time>2024-07-09T07:03:45Z</time>
      </trkpt>
      <trkpt lat="43.95224" lon="7.41297">
        <ele>892</ele>
        <time>2024-07-09T07:03:46Z</time>
      </trkpt>
      <trkpt lat="43.95226" lon="7.41299">
        <ele>892</ele>
        <time>2024-07-09T07:03:47Z</time>
      </trkpt>
      <trkpt lat="43.95227" lon="7.41301">
        <ele>892</ele>
        <time>2024-07-09T07:03:48Z</time>
      </trkpt>
      <trkpt lat="43.95228" lon="7.41302">
        <ele>892.6</ele>
        <time>2024-07-09T07:03:49Z</time>
      </trkpt>
      <trkpt lat="43.9523" lon="7.41303">
        <ele>892.6</ele>
        <time>2024-07-09T07:03:50Z</time>
      </trkpt>
      <trkpt lat="43.95231" lon="7.41304">
        <ele>892.6</ele>
        <time>2024-07-09T07:03:51Z</time>
      </trkpt>
      <trkpt lat="43.95232" lon="7.41305">
        <ele>892.6</ele>
        <time>2024-07-09T07:03:52Z</time>
      </trkpt>
      <trkpt lat="43.95234" lon="7.41306">
        <ele>893.2</ele>
        <time>2024-07-09T07:03:53Z</time>
      </trkpt>
      <trkpt lat="43.95235" lon="7.41307">
        <ele>893.4</ele>
        <time>2024-07-09T07:03:54Z</time>
      </trkpt>
      <trkpt lat="43.95237" lon="7.41308">
        <ele>893.4</ele>
        <time>2024-07-09T07:03:55Z</time>
      </trkpt>
      <trkpt lat="43.95238" lon="7.41309">
        <ele>893.4</ele>
        <time>2024-07-09T07:03:56Z</time>
      </trkpt>
      <trkpt lat="43.9524" lon="7.4131">
        <ele>893.8</ele>
        <time>2024-07-09T07:03:57Z</time>
      </trkpt>
      <trkpt lat="43.95241" lon="7.41311">
        <ele>893.8</ele>
        <time>2024-07-09T07:03:58Z</time>
      </trkpt>
      <trkpt lat="43.95243" lon="7.41311">
        <ele>893.8</ele>
        <time>2024-07-09T07:03:59Z</time>
      </trkpt>
      <trkpt lat="43.95244" lon="7.41312">
        <ele>893.8</ele>
        <time>2024-07-09T07:04:00Z</time>
      </trkpt>
      <trkpt lat="43.95245" lon="7.41313">
        <ele>893.8</ele>
        <time>2024-07-09T07:04:01Z</time>
      </trkpt>
      <trkpt lat="43.95247" lon="7.41314">
        <ele>894.4</ele>
        <time>2024-07-09T07:04:02Z</time>
      </trkpt>
      <trkpt lat="43.95249" lon="7.41314">
        <ele>894.4</ele>
        <time>2024-07-09T07:04:03Z</time>
      </trkpt>
      <trkpt lat="43.9525" lon="7.41315">
        <ele>894.4</ele>
        <time>2024-07-09T07:04:04Z</time>
      </trkpt>
      <trkpt lat="43.95252" lon="7.41315">
        <ele>894.4</ele>
        <time>2024-07-09T07:04:05Z</time>
      </trkpt>
      <trkpt lat="43.95254" lon="7.41315">
        <ele>894.8</ele>
        <time>2024-07-09T07:04:06Z</time>
      </trkpt>
      <trkpt lat="43.95255" lon="7.41315">
        <ele>894.8</ele>
        <time>2024-07-09T07:04:07Z</time>
      </trkpt>
      <trkpt lat="43.95257" lon="7.41315">
        <ele>894.8</ele>
        <time>2024-07-09T07:04:08Z</time>
      </trkpt>
      <trkpt lat="43.95258" lon="7.41315">
        <ele>894.8</ele>
        <time>2024-07-09T07:04:09Z</time>
      </trkpt>
      <trkpt lat="43.9526" lon="7.41315">
        <ele>894.8</ele>
        <time>2024-07-09T07:04:10Z</time>
      </trkpt>
      <trkpt lat="43.95262" lon="7.41315">
        <ele>895.2</ele>
        <time>2024-07-09T07:04:11Z</time>
      </trkpt>
      <trkpt lat="43.95264" lon="7.41316">
        <ele>895.4</ele>
        <time>2024-07-09T07:04:12Z</time>
      </trkpt>
      <trkpt lat="43.95265" lon="7.41316">
        <ele>895.4</ele>
        <time>2024-07-09T07:04:13Z</time>
      </trkpt>
      <trkpt lat="43.95267" lon="7.41315">
        <ele>895.4</ele>
        <time>2024-07-09T07:04:14Z</time>
      </trkpt>
      <trkpt lat="43.95269" lon="7.41316">
        <ele>895.8</ele>
        <time>2024-07-09T07:04:15Z</time>
      </trkpt>
      <trkpt lat="43.9527" lon="7.41316">
        <ele>895.8</ele>
        <time>2024-07-09T07:04:16Z</time>
      </trkpt>
      <trkpt lat="43.95272" lon="7.41316">
        <ele>895.8</ele>
        <time>2024-07-09T07:04:17Z</time>
      </trkpt>
      <trkpt lat="43.95273" lon="7.41316">
        <ele>895.8</ele>
        <time>2024-07-09T07:04:18Z</time>
      </trkpt>
      <trkpt lat="43.95275" lon="7.41316">
        <ele>895.8</ele>
        <time>2024-07-09T07:04:19Z</time>
      </trkpt>
      <trkpt lat="43.95277" lon="7.41316">
        <ele>896.2</ele>
        <time>2024-07-09T07:04:20Z</time>
      </trkpt>
      <trkpt lat="43.95278" lon="7.41316">
        <ele>896.4</ele>
        <time>2024-07-09T07:04:21Z</time>
      </trkpt>
      <trkpt lat="43.9528" lon="7.41317">
        <ele>896.4</ele>
        <time>2024-07-09T07:04:22Z</time>
      </trkpt>
      <trkpt lat="43.95281" lon="7.41317">
        <ele>896.4</ele>
        <time>2024-07-09T07:04:23Z</time>
      </trkpt>
      <trkpt lat="43.95283" lon="7.41317">
        <ele>896.8</ele>
        <time>2024-07-09T07:04:24Z</time>
      </trkpt>
      <trkpt lat="43.95284" lon="7.41317">
        <ele>896.8</ele>
        <time>2024-07-09T07:04:25Z</time>
      </trkpt>
      <trkpt lat="43.95286" lon="7.41318">
        <ele>896.8</ele>
        <time>2024-07-09T07:04:26Z</time>
      </trkpt>
      <trkpt lat="43.95288" lon="7.41318">
        <ele>896.8</ele>
        <time>2024-07-09T07:04:27Z</time>
      </trkpt>
      <trkpt lat="43.95289" lon="7.41318">
        <ele>896.8</ele>
        <time>2024-07-09T07:04:28Z</time>
      </trkpt>
      <trkpt lat="43.95291" lon="7.41318">
        <ele>897.4</ele>
        <time>2024-07-09T07:04:29Z</time>
      </trkpt>
      <trkpt lat="43.95293" lon="7.41318">
        <ele>897.6</ele>
        <time>2024-07-09T07:04:30Z</time>
      </trkpt>
      <trkpt lat="43.95295" lon="7.41319">
        <ele>897.6</ele>
        <time>2024-07-09T07:04:31Z</time>
      </trkpt>
      <trkpt lat="43.95296" lon="7.41319">
        <ele>897.6</ele>
        <time>2024-07-09T07:04:32Z</time>
      </trkpt>
      <trkpt lat="43.95298" lon="7.4132">
        <ele>898.2</ele>
        <time>2024-07-09T07:04:33Z</time>
      </trkpt>
      <trkpt lat="43.95299" lon="7.4132">
        <ele>898.2</ele>
        <time>2024-07-09T07:04:34Z</time>
      </trkpt>
      <trkpt lat="43.95301" lon="7.41321">
        <ele>898.2</ele>
        <time>2024-07-09T07:04:35Z</time>
      </trkpt>
      <trkpt lat="43.95302" lon="7.41321">
        <ele>898.2</ele>
        <time>2024-07-09T07:04:36Z</time>
      </trkpt>
      <trkpt lat="43.95304" lon="7.41322">
        <ele>898.2</ele>
        <time>2024-07-09T07:04:37Z</time>
      </trkpt>
      <trkpt lat="43.95306" lon="7.41322">
        <ele>898.4</ele>
        <time>2024-07-09T07:04:38Z</time>
      </trkpt>
      <trkpt lat="43.95307" lon="7.41322">
        <ele>898.8</ele>
        <time>2024-07-09T07:04:39Z</time>
      </trkpt>
      <trkpt lat="43.95309" lon="7.41322">
        <ele>898.8</ele>
        <time>2024-07-09T07:04:40Z</time>
      </trkpt>
      <trkpt lat="43.95311" lon="7.41323">
        <ele>898.8</ele>
        <time>2024-07-09T07:04:41Z</time>
      </trkpt>
      <trkpt lat="43.95313" lon="7.41323">
        <ele>899.2</ele>
        <time>2024-07-09T07:04:42Z</time>
      </trkpt>
      <trkpt lat="43.95314" lon="7.41323">
        <ele>899.4</ele>
        <time>2024-07-09T07:04:43Z</time>
      </trkpt>
      <trkpt lat="43.95316" lon="7.41324">
        <ele>899.4</ele>
        <time>2024-07-09T07:04:44Z</time>
      </trkpt>
      <trkpt lat="43.95318" lon="7.41324">
        <ele>899.4</ele>
        <time>2024-07-09T07:04:45Z</time>
      </trkpt>
      <trkpt lat="43.95319" lon="7.41325">
        <ele>900</ele>
        <time>2024-07-09T07:04:46Z</time>
      </trkpt>
      <trkpt lat="43.95321" lon="7.41325">
        <ele>900</ele>
        <time>2024-07-09T07:04:47Z</time>
      </trkpt>
      <trkpt lat="43.95322" lon="7.41326">
        <ele>900</ele>
        <time>2024-07-09T07:04:48Z</time>
      </trkpt>
      <trkpt lat="43.95324" lon="7.41326">
        <ele>900</ele>
        <time>2024-07-09T07:04:49Z</time>
      </trkpt>
      <trkpt lat="43.95326" lon="7.41327">
        <ele>900</ele>
        <time>2024-07-09T07:04:50Z</time>
      </trkpt>
      <trkpt lat="43.95327" lon="7.41327">
        <ele>900.6</ele>
        <time>2024-07-09T07:04:51Z</time>
      </trkpt>
      <trkpt lat="43.95329" lon="7.41328">
        <ele>900.6</ele>
        <time>2024-07-09T07:04:52Z</time>
      </trkpt>
      <trkpt lat="43.95331" lon="7.41328">
        <ele>900.8</ele>
        <time>2024-07-09T07:04:53Z</time>
      </trkpt>
      <trkpt lat="43.95333" lon="7.41329">
        <ele>900.8</ele>
        <time>2024-07-09T07:04:54Z</time>
      </trkpt>
      <trkpt lat="43.95334" lon="7.41329">
        <ele>901.4</ele>
        <time>2024-07-09T07:04:55Z</time>
      </trkpt>
      <trkpt lat="43.95336" lon="7.4133">
        <ele>901.4</ele>
        <time>2024-07-09T07:04:56Z</time>
      </trkpt>
      <trkpt lat="43.95338" lon="7.41331">
        <ele>901.6</ele>
        <time>2024-07-09T07:04:57Z</time>
      </trkpt>
      <trkpt lat="43.95339" lon="7.41332">
        <ele>901.6</ele>
        <time>2024-07-09T07:04:58Z</time>
      </trkpt>
      <trkpt lat="43.95341" lon="7.41332">
        <ele>901.6</ele>
        <time>2024-07-09T07:04:59Z</time>
      </trkpt>
      <trkpt lat="43.95343" lon="7.41332">
        <ele>901.6</ele>
        <time>2024-07-09T07:05:00Z</time>
      </trkpt>
      <trkpt lat="43.95344" lon="7.41332">
        <ele>902.2</ele>
        <time>2024-07-09T07:05:01Z</time>
      </trkpt>
      <trkpt lat="43.95346" lon="7.41332">
        <ele>902.4</ele>
        <time>2024-07-09T07:05:02Z</time>
      </trkpt>
      <trkpt lat="43.95348" lon="7.41332">
        <ele>902.4</ele>
        <time>2024-07-09T07:05:03Z</time>
      </trkpt>
      <trkpt lat="43.9535" lon="7.41332">
        <ele>902.4</ele>
        <time>2024-07-09T07:05:04Z</time>
      </trkpt>
      <trkpt lat="43.95352" lon="7.41331">
        <ele>902.6</ele>
        <time>2024-07-09T07:05:05Z</time>
      </trkpt>
      <trkpt lat="43.95353" lon="7.4133">
        <ele>902.8</ele>
        <time>2024-07-09T07:05:06Z</time>
      </trkpt>
      <trkpt lat="43.95355" lon="7.4133">
        <ele>902.8</ele>
        <time>2024-07-09T07:05:07Z</time>
      </trkpt>
      <trkpt lat="43.95357" lon="7.41328">
        <ele>902.8</ele>
        <time>2024-07-09T07:05:08Z</time>
      </trkpt>
      <trkpt lat="43.95359" lon="7.41327">
        <ele>902.8</ele>
        <time>2024-07-09T07:05:09Z</time>
      </trkpt>
      <trkpt lat="43.95361" lon="7.41325">
        <ele>903.4</ele>
        <time>2024-07-09T07:05:10Z</time>
      </trkpt>
      <trkpt lat="43.95363" lon="7.41324">
        <ele>903.4</ele>
        <time>2024-07-09T07:05:11Z</time>
      </trkpt>
      <trkpt lat="43.95364" lon="7.41322">
        <ele>903.4</ele>
        <time>2024-07-09T07:05:12Z</time>
      </trkpt>
      <trkpt lat="43.95366" lon="7.4132">
        <ele>903.4</ele>
        <time>2024-07-09T07:05:13Z</time>
      </trkpt>
      <trkpt lat="43.95368" lon="7.41319">
        <ele>904.2</ele>
        <time>2024-07-09T07:05:14Z</time>
      </trkpt>
      <trkpt lat="43.95369" lon="7.41316">
        <ele>904.2</ele>
        <time>2024-07-09T07:05:15Z</time>
      </trkpt>
      <trkpt lat="43.9537" lon="7.41314">
        <ele>904.2</ele>
        <time>2024-07-09T07:05:16Z</time>
      </trkpt>
      <trkpt lat="43.95371" lon="7.41312">
        <ele>904.2</ele>
        <time>2024-07-09T07:05:17Z</time>
      </trkpt>
      <trkpt lat="43.95373" lon="7.4131">
        <ele>904.6</ele>
        <time>2024-07-09T07:05:18Z</time>
      </trkpt>
      <trkpt lat="43.95374" lon="7.41308">
        <ele>904.6</ele>
        <time>2024-07-09T07:05:19Z</time>
      </trkpt>
      <trkpt lat="43.95376" lon="7.41306">
        <ele>904.8</ele>
        <time>2024-07-09T07:05:20Z</time>
      </trkpt>
      <trkpt lat="43.95377" lon="7.41303">
        <ele>904.8</ele>
        <time>2024-07-09T07:05:21Z</time>
      </trkpt>
      <trkpt lat="43.95378" lon="7.41301">
        <ele>904.8</ele>
        <time>2024-07-09T07:05:22Z</time>
      </trkpt>
      <trkpt lat="43.95379" lon="7.41299">
        <ele>905.4</ele>
        <time>2024-07-09T07:05:23Z</time>
      </trkpt>
      <trkpt lat="43.9538" lon="7.41296">
        <ele>905.6</ele>
        <time>2024-07-09T07:05:24Z</time>
      </trkpt>
      <trkpt lat="43.95381" lon="7.41294">
        <ele>905.6</ele>
        <time>2024-07-09T07:05:25Z</time>
      </trkpt>
      <trkpt lat="43.95382" lon="7.41293">
        <ele>905.6</ele>
        <time>2024-07-09T07:05:26Z</time>
      </trkpt>
      <trkpt lat="43.95384" lon="7.41291">
        <ele>905.6</ele>
        <time>2024-07-09T07:05:27Z</time>
      </trkpt>
      <trkpt lat="43.95385" lon="7.41289">
        <ele>906</ele>
        <time>2024-07-09T07:05:28Z</time>
      </trkpt>
      <trkpt lat="43.95386" lon="7.41286">
        <ele>906</ele>
        <time>2024-07-09T07:05:29Z</time>
      </trkpt>
      <trkpt lat="43.95388" lon="7.41284">
        <ele>906</ele>
        <time>2024-07-09T07:05:30Z</time>
      </trkpt>
      <trkpt lat="43.95389" lon="7.41282">
        <ele>906</ele>
        <time>2024-07-09T07:05:31Z</time>
      </trkpt>
      <trkpt lat="43.95391" lon="7.4128">
        <ele>906.2</ele>
        <time>2024-07-09T07:05:32Z</time>
      </trkpt>
      <trkpt lat="43.95392" lon="7.41278">
        <ele>906.2</ele>
        <time>2024-07-09T07:05:33Z</time>
      </trkpt>
      <trkpt lat="43.95393" lon="7.41278">
        <ele>906.2</ele>
        <time>2024-07-09T07:05:34Z</time>
      </trkpt>
      <trkpt lat="43.95393" lon="7.41278">
        <ele>906.2</ele>
        <time>2024-07-09T07:05:35Z</time>
      </trkpt>
      <trkpt lat="43.95394" lon="7.41278">
        <ele>906.2</ele>
        <time>2024-07-09T07:05:36Z</time>
      </trkpt>
      <trkpt lat="43.95396" lon="7.41278">
        <ele>906.6</ele>
        <time>2024-07-09T07:05:37Z</time>
      </trkpt>
      <trkpt lat="43.95396" lon="7.41279">
        <ele>907</ele>
        <time>2024-07-09T07:05:38Z</time>
      </trkpt>
      <trkpt lat="43.95396" lon="7.41279">
        <ele>907</ele>
        <time>2024-07-09T07:05:39Z</time>
      </trkpt>
      <trkpt lat="43.95396" lon="7.41279">
        <ele>907</ele>
        <time>2024-07-09T07:05:40Z</time>
      </trkpt>
      <trkpt lat="43.95435" lon="7.41224">
        <ele>911.8</ele>
        <time>2024-07-09T07:06:12Z</time>
      </trkpt>
      <trkpt lat="43.95437" lon="7.41224">
        <ele>911.8</ele>
        <time>2024-07-09T07:06:13Z</time>
      </trkpt>
      <trkpt lat="43.95439" lon="7.41223">
        <ele>911.8</ele>
        <time>2024-07-09T07:06:14Z</time>
      </trkpt>
      <trkpt lat="43.95447" lon="7.4122">
        <ele>911.8</ele>
        <time>2024-07-09T07:06:15Z</time>
      </trkpt>
      <trkpt lat="43.95453" lon="7.41218">
        <ele>912.2</ele>
        <time>2024-07-09T07:06:16Z</time>
      </trkpt>
      <trkpt lat="43.95465" lon="7.41214">
        <ele>912.2</ele>
        <time>2024-07-09T07:06:17Z</time>
      </trkpt>
      <trkpt lat="43.9547" lon="7.41211">
        <ele>912.2</ele>
        <time>2024-07-09T07:06:18Z</time>
      </trkpt>
      <trkpt lat="43.95471" lon="7.41211">
        <ele>912.2</ele>
        <time>2024-07-09T07:06:19Z</time>
      </trkpt>
      <trkpt lat="43.95472" lon="7.41211">
        <ele>912.8</ele>
        <time>2024-07-09T07:06:20Z</time>
      </trkpt>
      <trkpt lat="43.95472" lon="7.41211">
        <ele>912.8</ele>
        <time>2024-07-09T07:06:21Z</time>
      </trkpt>
      <trkpt lat="43.95472" lon="7.41211">
        <ele>912.8</ele>
        <time>2024-07-09T07:06:22Z</time>
      </trkpt>
      <trkpt lat="43.95473" lon="7.41211">
        <ele>912.8</ele>
        <time>2024-07-09T07:06:23Z</time>
      </trkpt>
      <trkpt lat="43.95473" lon="7.41211">
        <ele>913.4</ele>
        <time>2024-07-09T07:06:24Z</time>
      </trkpt>
      <trkpt lat="43.95474" lon="7.41212">
        <ele>913.4</ele>
        <time>2024-07-09T07:06:25Z</time>
      </trkpt>
      <trkpt lat="43.95475" lon="7.41212">
        <ele>913.4</ele>
        <time>2024-07-09T07:06:26Z</time>
      </trkpt>
      <trkpt lat="43.95476" lon="7.41211">
        <ele>913.4</ele>
        <time>2024-07-09T07:06:27Z</time>
      </trkpt>
      <trkpt lat="43.95478" lon="7.4121">
        <ele>914</ele>
        <time>2024-07-09T07:06:28Z</time>
      </trkpt>
      <trkpt lat="43.95479" lon="7.4121">
        <ele>914</ele>
        <time>2024-07-09T07:06:29Z</time>
      </trkpt>
      <trkpt lat="43.95479" lon="7.41209">
        <ele>914</ele>
        <time>2024-07-09T07:06:30Z</time>
      </trkpt>
      <trkpt lat="43.9548" lon="7.41208">
        <ele>914</ele>
        <time>2024-07-09T07:06:31Z</time>
      </trkpt>
      <trkpt lat="43.9548" lon="7.41207">
        <ele>914</ele>
        <time>2024-07-09T07:06:32Z</time>
      </trkpt>
      <trkpt lat="43.95481" lon="7.41206">
        <ele>914.4</ele>
        <time>2024-07-09T07:06:33Z</time>
      </trkpt>
      <trkpt lat="43.95482" lon="7.41206">
        <ele>914.4</ele>
        <time>2024-07-09T07:06:34Z</time>
      </trkpt>
      <trkpt lat="43.95484" lon="7.41204">
        <ele>914.4</ele>
        <time>2024-07-09T07:06:35Z</time>
      </trkpt>
      <trkpt lat="43.95485" lon="7.41203">
        <ele>914.4</ele>
        <time>2024-07-09T07:06:36Z</time>
      </trkpt>
      <trkpt lat="43.95487" lon="7.41202">
        <ele>914.4</ele>
        <time>2024-07-09T07:06:37Z</time>
      </trkpt>
      <trkpt lat="43.95488" lon="7.41201">
        <ele>914.6</ele>
        <time>2024-07-09T07:06:38Z</time>
      </trkpt>
      <trkpt lat="43.9549" lon="7.41201">
        <ele>914.6</ele>
        <time>2024-07-09T07:06:39Z</time>
      </trkpt>
      <trkpt lat="43.95492" lon="7.41201">
        <ele>915</ele>
        <time>2024-07-09T07:06:40Z</time>
      </trkpt>
      <trkpt lat="43.95493" lon="7.412">
        <ele>915</ele>
        <time>2024-07-09T07:06:41Z</time>
      </trkpt>
      <trkpt lat="43.95494" lon="7.41199">
        <ele>915</ele>
        <time>2024-07-09T07:06:42Z</time>
      </trkpt>
      <trkpt lat="43.95496" lon="7.41198">
        <ele>915.2</ele>
        <time>2024-07-09T07:06:43Z</time>
      </trkpt>
      <trkpt lat="43.95497" lon="7.41198">
        <ele>915.2</ele>
        <time>2024-07-09T07:06:44Z</time>
      </trkpt>
      <trkpt lat="43.95499" lon="7.41198">
        <ele>915.2</ele>
        <time>2024-07-09T07:06:45Z</time>
      </trkpt>
      <trkpt lat="43.95501" lon="7.41198">
        <ele>915.2</ele>
        <time>2024-07-09T07:06:46Z</time>
      </trkpt>
      <trkpt lat="43.95502" lon="7.41198">
        <ele>915.6</ele>
        <time>2024-07-09T07:06:47Z</time>
      </trkpt>
      <trkpt lat="43.95504" lon="7.41198">
        <ele>915.8</ele>
        <time>2024-07-09T07:06:48Z</time>
      </trkpt>
      <trkpt lat="43.95505" lon="7.41198">
        <ele>915.8</ele>
        <time>2024-07-09T07:06:49Z</time>
      </trkpt>
      <trkpt lat="43.95507" lon="7.41198">
        <ele>915.8</ele>
        <time>2024-07-09T07:06:50Z</time>
      </trkpt>
      <trkpt lat="43.95508" lon="7.41197">
        <ele>916.2</ele>
        <time>2024-07-09T07:06:51Z</time>
      </trkpt>
      <trkpt lat="43.95509" lon="7.41197">
        <ele>916.6</ele>
        <time>2024-07-09T07:06:52Z</time>
      </trkpt>
      <trkpt lat="43.95511" lon="7.41197">
        <ele>916.6</ele>
        <time>2024-07-09T07:06:53Z</time>
      </trkpt>
      <trkpt lat="43.95513" lon="7.41198">
        <ele>916.6</ele>
        <time>2024-07-09T07:06:54Z</time>
      </trkpt>
      <trkpt lat="43.95514" lon="7.41198">
        <ele>916.6</ele>
        <time>2024-07-09T07:06:55Z</time>
      </trkpt>
      <trkpt lat="43.95515" lon="7.41199">
        <ele>917</ele>
        <time>2024-07-09T07:06:56Z</time>
      </trkpt>
      <trkpt lat="43.95516" lon="7.41199">
        <ele>917.4</ele>
        <time>2024-07-09T07:06:57Z</time>
      </trkpt>
      <trkpt lat="43.95517" lon="7.412">
        <ele>917.4</ele>
        <time>2024-07-09T07:06:58Z</time>
      </trkpt>
      <trkpt lat="43.95519" lon="7.412">
        <ele>917.4</ele>
        <time>2024-07-09T07:06:59Z</time>
      </trkpt>
      <trkpt lat="43.95521" lon="7.41199">
        <ele>917.8</ele>
        <time>2024-07-09T07:07:00Z</time>
      </trkpt>
      <trkpt lat="43.95523" lon="7.41199">
        <ele>918</ele>
        <time>2024-07-09T07:07:01Z</time>
      </trkpt>
      <trkpt lat="43.95524" lon="7.41199">
        <ele>918</ele>
        <time>2024-07-09T07:07:02Z</time>
      </trkpt>
      <trkpt lat="43.95526" lon="7.41199">
        <ele>918</ele>
        <time>2024-07-09T07:07:03Z</time>
      </trkpt>
      <trkpt lat="43.95528" lon="7.41199">
        <ele>918</ele>
        <time>2024-07-09T07:07:04Z</time>
      </trkpt>
      <trkpt lat="43.9553" lon="7.41199">
        <ele>918.6</ele>
        <time>2024-07-09T07:07:05Z</time>
      </trkpt>
      <trkpt lat="43.95531" lon="7.41198">
        <ele>918.6</ele>
        <time>2024-07-09T07:07:06Z</time>
      </trkpt>
      <trkpt lat="43.95533" lon="7.41198">
        <ele>918.6</ele>
        <time>2024-07-09T07:07:07Z</time>
      </trkpt>
      <trkpt lat="43.95535" lon="7.41198">
        <ele>918.6</ele>
        <time>2024-07-09T07:07:08Z</time>
      </trkpt>
      <trkpt lat="43.95536" lon="7.41198">
        <ele>918.6</ele>
        <time>2024-07-09T07:07:09Z</time>
      </trkpt>
      <trkpt lat="43.95538" lon="7.41198">
        <ele>919</ele>
        <time>2024-07-09T07:07:10Z</time>
      </trkpt>
      <trkpt lat="43.9554" lon="7.41198">
        <ele>919</ele>
        <time>2024-07-09T07:07:11Z</time>
      </trkpt>
      <trkpt lat="43.95541" lon="7.41198">
        <ele>919</ele>
        <time>2024-07-09T07:07:12Z</time>
      </trkpt>
      <trkpt lat="43.95543" lon="7.41198">
        <ele>919.6</ele>
        <time>2024-07-09T07:07:13Z</time>
      </trkpt>
      <trkpt lat="43.95544" lon="7.41198">
        <ele>919.8</ele>
        <time>2024-07-09T07:07:14Z</time>
      </trkpt>
      <trkpt lat="43.95546" lon="7.41198">
        <ele>919.8</ele>
        <time>2024-07-09T07:07:15Z</time>
      </trkpt>
      <trkpt lat="43.95548" lon="7.41198">
        <ele>919.8</ele>
        <time>2024-07-09T07:07:16Z</time>
      </trkpt>
      <trkpt lat="43.95549" lon="7.41198">
        <ele>919.8</ele>
        <time>2024-07-09T07:07:17Z</time>
      </trkpt>
      <trkpt lat="43.9555" lon="7.41198">
        <ele>920.2</ele>
        <time>2024-07-09T07:07:18Z</time>
      </trkpt>
      <trkpt lat="43.95552" lon="7.41198">
        <ele>920.2</ele>
        <time>2024-07-09T07:07:19Z</time>
      </trkpt>
      <trkpt lat="43.95554" lon="7.41198">
        <ele>920.4</ele>
        <time>2024-07-09T07:07:20Z</time>
      </trkpt>
      <trkpt lat="43.95555" lon="7.41198">
        <ele>920.4</ele>
        <time>2024-07-09T07:07:21Z</time>
      </trkpt>
      <trkpt lat="43.95557" lon="7.41197">
        <ele>920.4</ele>
        <time>2024-07-09T07:07:22Z</time>
      </trkpt>
      <trkpt lat="43.95558" lon="7.41197">
        <ele>920.8</ele>
        <time>2024-07-09T07:07:23Z</time>
      </trkpt>
      <trkpt lat="43.9556" lon="7.41195">
        <ele>921</ele>
        <time>2024-07-09T07:07:24Z</time>
      </trkpt>
      <trkpt lat="43.95561" lon="7.41194">
        <ele>921</ele>
        <time>2024-07-09T07:07:25Z</time>
      </trkpt>
      <trkpt lat="43.95562" lon="7.41192">
        <ele>921</ele>
        <time>2024-07-09T07:07:26Z</time>
      </trkpt>
      <trkpt lat="43.95563" lon="7.41192">
        <ele>921.4</ele>
        <time>2024-07-09T07:07:27Z</time>
      </trkpt>
      <trkpt lat="43.95565" lon="7.41191">
        <ele>921.4</ele>
        <time>2024-07-09T07:07:28Z</time>
      </trkpt>
      <trkpt lat="43.95566" lon="7.4119">
        <ele>921.6</ele>
        <time>2024-07-09T07:07:29Z</time>
      </trkpt>
      <trkpt lat="43.95568" lon="7.41189">
        <ele>921.6</ele>
        <time>2024-07-09T07:07:30Z</time>
      </trkpt>
      <trkpt lat="43.95569" lon="7.41189">
        <ele>921.6</ele>
        <time>2024-07-09T07:07:31Z</time>
      </trkpt>
      <trkpt lat="43.95571" lon="7.41188">
        <ele>922.2</ele>
        <time>2024-07-09T07:07:32Z</time>
      </trkpt>
      <trkpt lat="43.95572" lon="7.41188">
        <ele>922.2</ele>
        <time>2024-07-09T07:07:33Z</time>
      </trkpt>
      <trkpt lat="43.95574" lon="7.41187">
        <ele>922.2</ele>
        <time>2024-07-09T07:07:34Z</time>
      </trkpt>
      <trkpt lat="43.95575" lon="7.41187">
        <ele>922.2</ele>
        <time>2024-07-09T07:07:35Z</time>
      </trkpt>
      <trkpt lat="43.95577" lon="7.41186">
        <ele>922.6</ele>
        <time>2024-07-09T07:07:36Z</time>
      </trkpt>
      <trkpt lat="43.95578" lon="7.41186">
        <ele>922.8</ele>
        <time>2024-07-09T07:07:37Z</time>
      </trkpt>
      <trkpt lat="43.9558" lon="7.41186">
        <ele>922.8</ele>
        <time>2024-07-09T07:07:38Z</time>
      </trkpt>
      <trkpt lat="43.95582" lon="7.41186">
        <ele>922.8</ele>
        <time>2024-07-09T07:07:39Z</time>
      </trkpt>
      <trkpt lat="43.95583" lon="7.41186">
        <ele>923</ele>
        <time>2024-07-09T07:07:40Z</time>
      </trkpt>
      <trkpt lat="43.95584" lon="7.41187">
        <ele>923</ele>
        <time>2024-07-09T07:07:41Z</time>
      </trkpt>
      <trkpt lat="43.95586" lon="7.41189">
        <ele>923.4</ele>
        <time>2024-07-09T07:07:42Z</time>
      </trkpt>
      <trkpt lat="43.95587" lon="7.4119">
        <ele>923.4</ele>
        <time>2024-07-09T07:07:43Z</time>
      </trkpt>
      <trkpt lat="43.95589" lon="7.41191">
        <ele>923.4</ele>
        <time>2024-07-09T07:07:44Z</time>
      </trkpt>
      <trkpt lat="43.9559" lon="7.41192">
        <ele>923.8</ele>
        <time>2024-07-09T07:07:45Z</time>
      </trkpt>
      <trkpt lat="43.95591" lon="7.41193">
        <ele>924.2</ele>
        <time>2024-07-09T07:07:46Z</time>
      </trkpt>
      <trkpt lat="43.95592" lon="7.41195">
        <ele>924.2</ele>
        <time>2024-07-09T07:07:47Z</time>
      </trkpt>
      <trkpt lat="43.95593" lon="7.41196">
        <ele>924.2</ele>
        <time>2024-07-09T07:07:48Z</time>
      </trkpt>
      <trkpt lat="43.95595" lon="7.41197">
        <ele>924.6</ele>
        <time>2024-07-09T07:07:49Z</time>
      </trkpt>
      <trkpt lat="43.95596" lon="7.41198">
        <ele>924.8</ele>
        <time>2024-07-09T07:07:50Z</time>
      </trkpt>
      <trkpt lat="43.95598" lon="7.41199">
        <ele>924.8</ele>
        <time>2024-07-09T07:07:51Z</time>
      </trkpt>
      <trkpt lat="43.95599" lon="7.412">
        <ele>924.8</ele>
        <time>2024-07-09T07:07:52Z</time>
      </trkpt>
      <trkpt lat="43.956" lon="7.41201">
        <ele>924.8</ele>
        <time>2024-07-09T07:07:53Z</time>
      </trkpt>
      <trkpt lat="43.95602" lon="7.41202">
        <ele>925.4</ele>
        <time>2024-07-09T07:07:54Z</time>
      </trkpt>
      <trkpt lat="43.95603" lon="7.41203">
        <ele>925.4</ele>
        <time>2024-07-09T07:07:55Z</time>
      </trkpt>
      <trkpt lat="43.95604" lon="7.41204">
        <ele>925.4</ele>
        <time>2024-07-09T07:07:56Z</time>
      </trkpt>
      <trkpt lat="43.95605" lon="7.41205">
        <ele>925.4</ele>
        <time>2024-07-09T07:07:57Z</time>
      </trkpt>
      <trkpt lat="43.95607" lon="7.41206">
        <ele>926</ele>
        <time>2024-07-09T07:07:58Z</time>
      </trkpt>
      <trkpt lat="43.95608" lon="7.41207">
        <ele>926</ele>
        <time>2024-07-09T07:07:59Z</time>
      </trkpt>
      <trkpt lat="43.9561" lon="7.41209">
        <ele>926</ele>
        <time>2024-07-09T07:08:00Z</time>
      </trkpt>
      <trkpt lat="43.95611" lon="7.4121">
        <ele>926</ele>
        <time>2024-07-09T07:08:01Z</time>
      </trkpt>
      <trkpt lat="43.95612" lon="7.41211">
        <ele>926</ele>
        <time>2024-07-09T07:08:02Z</time>
      </trkpt>
      <trkpt lat="43.95613" lon="7.41211">
        <ele>926</ele>
        <time>2024-07-09T07:08:03Z</time>
      </trkpt>
      <trkpt lat="43.95615" lon="7.41211">
        <ele>926.6</ele>
        <time>2024-07-09T07:08:04Z</time>
      </trkpt>
      <trkpt lat="43.95616" lon="7.41211">
        <ele>926.6</ele>
        <time>2024-07-09T07:08:05Z</time>
      </trkpt>
      <trkpt lat="43.95618" lon="7.4121">
        <ele>926.6</ele>
        <time>2024-07-09T07:08:06Z</time>
      </trkpt>
      <trkpt lat="43.95619" lon="7.41209">
        <ele>926.6</ele>
        <time>2024-07-09T07:08:07Z</time>
      </trkpt>
      <trkpt lat="43.9562" lon="7.41206">
        <ele>926.6</ele>
        <time>2024-07-09T07:08:08Z</time>
      </trkpt>
      <trkpt lat="43.95619" lon="7.41204">
        <ele>926.8</ele>
        <time>2024-07-09T07:08:09Z</time>
      </trkpt>
      <trkpt lat="43.95617" lon="7.41203">
        <ele>926.8</ele>
        <time>2024-07-09T07:08:10Z</time>
      </trkpt>
      <trkpt lat="43.95615" lon="7.41202">
        <ele>926.8</ele>
        <time>2024-07-09T07:08:11Z</time>
      </trkpt>
      <trkpt lat="43.95613" lon="7.412">
        <ele>927</ele>
        <time>2024-07-09T07:08:12Z</time>
      </trkpt>
      <trkpt lat="43.95611" lon="7.41198">
        <ele>927.2</ele>
        <time>2024-07-09T07:08:13Z</time>
      </trkpt>
      <trkpt lat="43.95609" lon="7.41196">
        <ele>927.2</ele>
        <time>2024-07-09T07:08:14Z</time>
      </trkpt>
      <trkpt lat="43.95608" lon="7.41194">
        <ele>927.2</ele>
        <time>2024-07-09T07:08:15Z</time>
      </trkpt>
      <trkpt lat="43.95606" lon="7.41191">
        <ele>927.6</ele>
        <time>2024-07-09T07:08:16Z</time>
      </trkpt>
      <trkpt lat="43.95604" lon="7.4119">
        <ele>927.6</ele>
        <time>2024-07-09T07:08:17Z</time>
      </trkpt>
      <trkpt lat="43.95602" lon="7.41188">
        <ele>927.6</ele>
        <time>2024-07-09T07:08:18Z</time>
      </trkpt>
      <trkpt lat="43.95601" lon="7.41187">
        <ele>927.6</ele>
        <time>2024-07-09T07:08:19Z</time>
      </trkpt>
      <trkpt lat="43.95599" lon="7.41185">
        <ele>927.6</ele>
        <time>2024-07-09T07:08:20Z</time>
      </trkpt>
      <trkpt lat="43.95597" lon="7.41183">
        <ele>928.2</ele>
        <time>2024-07-09T07:08:21Z</time>
      </trkpt>
      <trkpt lat="43.95596" lon="7.41181">
        <ele>928.2</ele>
        <time>2024-07-09T07:08:22Z</time>
      </trkpt>
      <trkpt lat="43.95595" lon="7.41179">
        <ele>928.2</ele>
        <time>2024-07-09T07:08:23Z</time>
      </trkpt>
      <trkpt lat="43.95594" lon="7.41177">
        <ele>928.2</ele>
        <time>2024-07-09T07:08:24Z</time>
      </trkpt>
      <trkpt lat="43.95592" lon="7.41176">
        <ele>929</ele>
        <time>2024-07-09T07:08:25Z</time>
      </trkpt>
      <trkpt lat="43.95591" lon="7.41174">
        <ele>928.8</ele>
        <time>2024-07-09T07:08:26Z</time>
      </trkpt>
      <trkpt lat="43.95589" lon="7.41173">
        <ele>928.8</ele>
        <time>2024-07-09T07:08:27Z</time>
      </trkpt>
      <trkpt lat="43.95588" lon="7.41173">
        <ele>928.8</ele>
        <time>2024-07-09T07:08:28Z</time>
      </trkpt>
      <trkpt lat="43.95586" lon="7.41171">
        <ele>928.8</ele>
        <time>2024-07-09T07:08:29Z</time>
      </trkpt>
      <trkpt lat="43.95585" lon="7.4117">
        <ele>929.4</ele>
        <time>2024-07-09T07:08:30Z</time>
      </trkpt>
      <trkpt lat="43.95583" lon="7.4117">
        <ele>929.6</ele>
        <time>2024-07-09T07:08:31Z</time>
      </trkpt>
      <trkpt lat="43.95581" lon="7.41169">
        <ele>929.6</ele>
        <time>2024-07-09T07:08:32Z</time>
      </trkpt>
      <trkpt lat="43.95579" lon="7.41168">
        <ele>929.6</ele>
        <time>2024-07-09T07:08:33Z</time>
      </trkpt>
      <trkpt lat="43.95578" lon="7.41168">
        <ele>930</ele>
        <time>2024-07-09T07:08:34Z</time>
      </trkpt>
      <trkpt lat="43.95576" lon="7.41168">
        <ele>930.2</ele>
        <time>2024-07-09T07:08:35Z</time>
      </trkpt>
      <trkpt lat="43.95575" lon="7.41169">
        <ele>930.2</ele>
        <time>2024-07-09T07:08:36Z</time>
      </trkpt>
      <trkpt lat="43.95573" lon="7.41169">
        <ele>930.2</ele>
        <time>2024-07-09T07:08:37Z</time>
      </trkpt>
      <trkpt lat="43.95571" lon="7.4117">
        <ele>930.2</ele>
        <time>2024-07-09T07:08:38Z</time>
      </trkpt>
      <trkpt lat="43.95569" lon="7.4117">
        <ele>930.4</ele>
        <time>2024-07-09T07:08:39Z</time>
      </trkpt>
      <trkpt lat="43.95568" lon="7.41171">
        <ele>930.6</ele>
        <time>2024-07-09T07:08:40Z</time>
      </trkpt>
      <trkpt lat="43.95566" lon="7.41172">
        <ele>930.6</ele>
        <time>2024-07-09T07:08:41Z</time>
      </trkpt>
      <trkpt lat="43.95565" lon="7.41173">
        <ele>930.6</ele>
        <time>2024-07-09T07:08:42Z</time>
      </trkpt>
      <trkpt lat="43.95563" lon="7.41175">
        <ele>930.6</ele>
        <time>2024-07-09T07:08:43Z</time>
      </trkpt>
      <trkpt lat="43.95561" lon="7.41176">
        <ele>930.6</ele>
        <time>2024-07-09T07:08:44Z</time>
      </trkpt>
      <trkpt lat="43.9556" lon="7.41177">
        <ele>931.2</ele>
        <time>2024-07-09T07:08:45Z</time>
      </trkpt>
      <trkpt lat="43.95559" lon="7.41178">
        <ele>931.2</ele>
        <time>2024-07-09T07:08:46Z</time>
      </trkpt>
      <trkpt lat="43.95557" lon="7.41178">
        <ele>931.2</ele>
        <time>2024-07-09T07:08:47Z</time>
      </trkpt>
      <trkpt lat="43.95556" lon="7.41179">
        <ele>931.2</ele>
        <time>2024-07-09T07:08:48Z</time>
      </trkpt>
      <trkpt lat="43.95555" lon="7.41181">
        <ele>931.8</ele>
        <time>2024-07-09T07:08:49Z</time>
      </trkpt>
      <trkpt lat="43.95554" lon="7.41181">
        <ele>931.8</ele>
        <time>2024-07-09T07:08:50Z</time>
      </trkpt>
      <trkpt lat="43.95552" lon="7.4118">
        <ele>931.8</ele>
        <time>2024-07-09T07:08:51Z</time>
      </trkpt>
      <trkpt lat="43.95551" lon="7.41178">
        <ele>931.8</ele>
        <time>2024-07-09T07:08:52Z</time>
      </trkpt>
      <trkpt lat="43.95551" lon="7.41176">
        <ele>932.6</ele>
        <time>2024-07-09T07:08:53Z</time>
      </trkpt>
      <trkpt lat="43.95552" lon="7.41174">
        <ele>932.4</ele>
        <time>2024-07-09T07:08:54Z</time>
      </trkpt>
      <trkpt lat="43.95553" lon="7.41172">
        <ele>932.4</ele>
        <time>2024-07-09T07:08:55Z</time>
      </trkpt>
      <trkpt lat="43.95554" lon="7.4117">
        <ele>932.4</ele>
        <time>2024-07-09T07:08:56Z</time>
      </trkpt>
      <trkpt lat="43.95556" lon="7.41169">
        <ele>933</ele>
        <time>2024-07-09T07:08:57Z</time>
      </trkpt>
      <trkpt lat="43.95558" lon="7.41167">
        <ele>933.2</ele>
        <time>2024-07-09T07:08:58Z</time>
      </trkpt>
      <trkpt lat="43.95559" lon="7.41166">
        <ele>933.2</ele>
        <time>2024-07-09T07:08:59Z</time>
      </trkpt>
      <trkpt lat="43.95561" lon="7.41165">
        <ele>933.2</ele>
        <time>2024-07-09T07:09:00Z</time>
      </trkpt>
      <trkpt lat="43.95562" lon="7.41163">
        <ele>933.2</ele>
        <time>2024-07-09T07:09:01Z</time>
      </trkpt>
      <trkpt lat="43.95564" lon="7.41162">
        <ele>933.8</ele>
        <time>2024-07-09T07:09:02Z</time>
      </trkpt>
      <trkpt lat="43.95565" lon="7.4116">
        <ele>934</ele>
        <time>2024-07-09T07:09:03Z</time>
      </trkpt>
      <trkpt lat="43.95566" lon="7.41159">
        <ele>934</ele>
        <time>2024-07-09T07:09:04Z</time>
      </trkpt>
      <trkpt lat="43.95568" lon="7.41158">
        <ele>934</ele>
        <time>2024-07-09T07:09:05Z</time>
      </trkpt>
      <trkpt lat="43.9557" lon="7.41157">
        <ele>934</ele>
        <time>2024-07-09T07:09:06Z</time>
      </trkpt>
      <trkpt lat="43.95571" lon="7.41156">
        <ele>934</ele>
        <time>2024-07-09T07:09:07Z</time>
      </trkpt>
      <trkpt lat="43.95573" lon="7.41156">
        <ele>934</ele>
        <time>2024-07-09T07:09:08Z</time>
      </trkpt>
      <trkpt lat="43.95575" lon="7.41155">
        <ele>934</ele>
        <time>2024-07-09T07:09:09Z</time>
      </trkpt>
      <trkpt lat="43.95576" lon="7.41154">
        <ele>934</ele>
        <time>2024-07-09T07:09:10Z</time>
      </trkpt>
      <trkpt lat="43.95578" lon="7.41154">
        <ele>934.8</ele>
        <time>2024-07-09T07:09:11Z</time>
      </trkpt>
      <trkpt lat="43.95579" lon="7.41154">
        <ele>935</ele>
        <time>2024-07-09T07:09:12Z</time>
      </trkpt>
      <trkpt lat="43.95581" lon="7.41155">
        <ele>935</ele>
        <time>2024-07-09T07:09:13Z</time>
      </trkpt>
      <trkpt lat="43.95583" lon="7.41155">
        <ele>935</ele>
        <time>2024-07-09T07:09:14Z</time>
      </trkpt>
      <trkpt lat="43.95585" lon="7.41156">
        <ele>935.6</ele>
        <time>2024-07-09T07:09:15Z</time>
      </trkpt>
      <trkpt lat="43.95586" lon="7.41157">
        <ele>935.6</ele>
        <time>2024-07-09T07:09:16Z</time>
      </trkpt>
      <trkpt lat="43.95588" lon="7.41158">
        <ele>935.6</ele>
        <time>2024-07-09T07:09:17Z</time>
      </trkpt>
      <trkpt lat="43.95589" lon="7.4116">
        <ele>935.6</ele>
        <time>2024-07-09T07:09:18Z</time>
      </trkpt>
      <trkpt lat="43.9559" lon="7.41161">
        <ele>936.4</ele>
        <time>2024-07-09T07:09:19Z</time>
      </trkpt>
      <trkpt lat="43.95592" lon="7.41163">
        <ele>936.6</ele>
        <time>2024-07-09T07:09:20Z</time>
      </trkpt>
      <trkpt lat="43.95593" lon="7.41164">
        <ele>936.6</ele>
        <time>2024-07-09T07:09:21Z</time>
      </trkpt>
      <trkpt lat="43.95594" lon="7.41166">
        <ele>936.6</ele>
        <time>2024-07-09T07:09:22Z</time>
      </trkpt>
      <trkpt lat="43.95595" lon="7.41167">
        <ele>936.6</ele>
        <time>2024-07-09T07:09:23Z</time>
      </trkpt>
      <trkpt lat="43.95596" lon="7.41169">
        <ele>937</ele>
        <time>2024-07-09T07:09:24Z</time>
      </trkpt>
      <trkpt lat="43.95597" lon="7.4117">
        <ele>937</ele>
        <time>2024-07-09T07:09:25Z</time>
      </trkpt>
      <trkpt lat="43.95599" lon="7.41172">
        <ele>937.2</ele>
        <time>2024-07-09T07:09:26Z</time>
      </trkpt>
      <trkpt lat="43.956" lon="7.41173">
        <ele>937.2</ele>
        <time>2024-07-09T07:09:27Z</time>
      </trkpt>
      <trkpt lat="43.95601" lon="7.41175">
        <ele>937.2</ele>
        <time>2024-07-09T07:09:28Z</time>
      </trkpt>
      <trkpt lat="43.95603" lon="7.41175">
        <ele>937.6</ele>
        <time>2024-07-09T07:09:29Z</time>
      </trkpt>
      <trkpt lat="43.95604" lon="7.41177">
        <ele>937.8</ele>
        <time>2024-07-09T07:09:30Z</time>
      </trkpt>
      <trkpt lat="43.95605" lon="7.41178">
        <ele>937.8</ele>
        <time>2024-07-09T07:09:31Z</time>
      </trkpt>
      <trkpt lat="43.95607" lon="7.41179">
        <ele>937.8</ele>
        <time>2024-07-09T07:09:32Z</time>
      </trkpt>
      <trkpt lat="43.95608" lon="7.41181">
        <ele>937.8</ele>
        <time>2024-07-09T07:09:33Z</time>
      </trkpt>
      <trkpt lat="43.95609" lon="7.41182">
        <ele>938.4</ele>
        <time>2024-07-09T07:09:34Z</time>
      </trkpt>
      <trkpt lat="43.9561" lon="7.41183">
        <ele>938.6</ele>
        <time>2024-07-09T07:09:35Z</time>
      </trkpt>
      <trkpt lat="43.95612" lon="7.41184">
        <ele>938.6</ele>
        <time>2024-07-09T07:09:36Z</time>
      </trkpt>
      <trkpt lat="43.95613" lon="7.41185">
        <ele>938.6</ele>
        <time>2024-07-09T07:09:37Z</time>
      </trkpt>
      <trkpt lat="43.95615" lon="7.41186">
        <ele>939.2</ele>
        <time>2024-07-09T07:09:38Z</time>
      </trkpt>
      <trkpt lat="43.95616" lon="7.41187">
        <ele>939.2</ele>
        <time>2024-07-09T07:09:39Z</time>
      </trkpt>
      <trkpt lat="43.95618" lon="7.41188">
        <ele>939.2</ele>
        <time>2024-07-09T07:09:40Z</time>
      </trkpt>
      <trkpt lat="43.95619" lon="7.41189">
        <ele>939.2</ele>
        <time>2024-07-09T07:09:41Z</time>
      </trkpt>
      <trkpt lat="43.95621" lon="7.4119">
        <ele>939.6</ele>
        <time>2024-07-09T07:09:42Z</time>
      </trkpt>
      <trkpt lat="43.95622" lon="7.41191">
        <ele>940</ele>
        <time>2024-07-09T07:09:43Z</time>
      </trkpt>
      <trkpt lat="43.95624" lon="7.41192">
        <ele>940</ele>
        <time>2024-07-09T07:09:44Z</time>
      </trkpt>
      <trkpt lat="43.95625" lon="7.41192">
        <ele>940</ele>
        <time>2024-07-09T07:09:45Z</time>
      </trkpt>
      <trkpt lat="43.95626" lon="7.41193">
        <ele>940</ele>
        <time>2024-07-09T07:09:46Z</time>
      </trkpt>
      <trkpt lat="43.95628" lon="7.41194">
        <ele>940</ele>
        <time>2024-07-09T07:09:47Z</time>
      </trkpt>
      <trkpt lat="43.95629" lon="7.41195">
        <ele>940.6</ele>
        <time>2024-07-09T07:09:48Z</time>
      </trkpt>
      <trkpt lat="43.9563" lon="7.41196">
        <ele>940.6</ele>
        <time>2024-07-09T07:09:49Z</time>
      </trkpt>
      <trkpt lat="43.95631" lon="7.41197">
        <ele>940.6</ele>
        <time>2024-07-09T07:09:50Z</time>
      </trkpt>
      <trkpt lat="43.95632" lon="7.41199">
        <ele>941</ele>
        <time>2024-07-09T07:09:51Z</time>
      </trkpt>
      <trkpt lat="43.95633" lon="7.412">
        <ele>941.2</ele>
        <time>2024-07-09T07:09:52Z</time>
      </trkpt>
      <trkpt lat="43.95634" lon="7.41201">
        <ele>941.2</ele>
        <time>2024-07-09T07:09:53Z</time>
      </trkpt>
      <trkpt lat="43.95635" lon="7.41203">
        <ele>941.2</ele>
        <time>2024-07-09T07:09:54Z</time>
      </trkpt>
      <trkpt lat="43.95637" lon="7.41204">
        <ele>941.2</ele>
        <time>2024-07-09T07:09:55Z</time>
      </trkpt>
      <trkpt lat="43.95638" lon="7.41205">
        <ele>941.8</ele>
        <time>2024-07-09T07:09:56Z</time>
      </trkpt>
      <trkpt lat="43.95639" lon="7.41206">
        <ele>942</ele>
        <time>2024-07-09T07:09:57Z</time>
      </trkpt>
      <trkpt lat="43.9564" lon="7.41208">
        <ele>942</ele>
        <time>2024-07-09T07:09:58Z</time>
      </trkpt>
      <trkpt lat="43.95642" lon="7.41209">
        <ele>942</ele>
        <time>2024-07-09T07:09:59Z</time>
      </trkpt>
      <trkpt lat="43.95643" lon="7.41211">
        <ele>942.4</ele>
        <time>2024-07-09T07:10:00Z</time>
      </trkpt>
      <trkpt lat="43.95644" lon="7.41212">
        <ele>942.6</ele>
        <time>2024-07-09T07:10:01Z</time>
      </trkpt>
      <trkpt lat="43.95646" lon="7.41214">
        <ele>942.6</ele>
        <time>2024-07-09T07:10:02Z</time>
      </trkpt>
      <trkpt lat="43.95647" lon="7.41215">
        <ele>942.6</ele>
        <time>2024-07-09T07:10:03Z</time>
      </trkpt>
      <trkpt lat="43.95648" lon="7.41216">
        <ele>942.6</ele>
        <time>2024-07-09T07:10:04Z</time>
      </trkpt>
      <trkpt lat="43.9565" lon="7.41217">
        <ele>943.2</ele>
        <time>2024-07-09T07:10:05Z</time>
      </trkpt>
      <trkpt lat="43.95651" lon="7.41219">
        <ele>943.4</ele>
        <time>2024-07-09T07:10:06Z</time>
      </trkpt>
      <trkpt lat="43.95652" lon="7.4122">
        <ele>943.4</ele>
        <time>2024-07-09T07:10:07Z</time>
      </trkpt>
      <trkpt lat="43.95654" lon="7.41221">
        <ele>943.4</ele>
        <time>2024-07-09T07:10:08Z</time>
      </trkpt>
      <trkpt lat="43.95655" lon="7.41221">
        <ele>943.4</ele>
        <time>2024-07-09T07:10:09Z</time>
      </trkpt>
      <trkpt lat="43.95657" lon="7.41221">
        <ele>943.6</ele>
        <time>2024-07-09T07:10:10Z</time>
      </trkpt>
      <trkpt lat="43.95658" lon="7.41222">
        <ele>943.6</ele>
        <time>2024-07-09T07:10:11Z</time>
      </trkpt>
      <trkpt lat="43.9566" lon="7.41222">
        <ele>943.6</ele>
        <time>2024-07-09T07:10:12Z</time>
      </trkpt>
      <trkpt lat="43.95662" lon="7.41223">
        <ele>943.6</ele>
        <time>2024-07-09T07:10:13Z</time>
      </trkpt>
      <trkpt lat="43.95663" lon="7.41223">
        <ele>944</ele>
        <time>2024-07-09T07:10:14Z</time>
      </trkpt>
      <trkpt lat="43.95665" lon="7.41223">
        <ele>944</ele>
        <time>2024-07-09T07:10:15Z</time>
      </trkpt>
      <trkpt lat="43.95666" lon="7.41224">
        <ele>944</ele>
        <time>2024-07-09T07:10:16Z</time>
      </trkpt>
      <trkpt lat="43.95668" lon="7.41224">
        <ele>944</ele>
        <time>2024-07-09T07:10:17Z</time>
      </trkpt>
      <trkpt lat="43.9567" lon="7.41225">
        <ele>944</ele>
        <time>2024-07-09T07:10:18Z</time>
      </trkpt>
      <trkpt lat="43.95671" lon="7.41225">
        <ele>944.4</ele>
        <time>2024-07-09T07:10:19Z</time>
      </trkpt>
      <trkpt lat="43.95673" lon="7.41225">
        <ele>944.4</ele>
        <time>2024-07-09T07:10:20Z</time>
      </trkpt>
      <trkpt lat="43.95675" lon="7.41226">
        <ele>944.4</ele>
        <time>2024-07-09T07:10:21Z</time>
      </trkpt>
      <trkpt lat="43.95676" lon="7.41226">
        <ele>944.4</ele>
        <time>2024-07-09T07:10:22Z</time>
      </trkpt>
      <trkpt lat="43.95678" lon="7.41226">
        <ele>944.8</ele>
        <time>2024-07-09T07:10:23Z</time>
      </trkpt>
      <trkpt lat="43.9568" lon="7.41226">
        <ele>945</ele>
        <time>2024-07-09T07:10:24Z</time>
      </trkpt>
      <trkpt lat="43.95681" lon="7.41226">
        <ele>945</ele>
        <time>2024-07-09T07:10:25Z</time>
      </trkpt>
      <trkpt lat="43.95683" lon="7.41226">
        <ele>945</ele>
        <time>2024-07-09T07:10:26Z</time>
      </trkpt>
      <trkpt lat="43.95685" lon="7.41227">
        <ele>945</ele>
        <time>2024-07-09T07:10:27Z</time>
      </trkpt>
      <trkpt lat="43.95687" lon="7.41228">
        <ele>945.4</ele>
        <time>2024-07-09T07:10:28Z</time>
      </trkpt>
      <trkpt lat="43.95688" lon="7.41229">
        <ele>945.6</ele>
        <time>2024-07-09T07:10:29Z</time>
      </trkpt>
      <trkpt lat="43.9569" lon="7.41229">
        <ele>945.6</ele>
        <time>2024-07-09T07:10:30Z</time>
      </trkpt>
      <trkpt lat="43.95691" lon="7.4123">
        <ele>945.6</ele>
        <time>2024-07-09T07:10:31Z</time>
      </trkpt>
      <trkpt lat="43.95693" lon="7.41231">
        <ele>945.8</ele>
        <time>2024-07-09T07:10:32Z</time>
      </trkpt>
      <trkpt lat="43.95694" lon="7.41231">
        <ele>946</ele>
        <time>2024-07-09T07:10:33Z</time>
      </trkpt>
      <trkpt lat="43.95696" lon="7.41231">
        <ele>946</ele>
        <time>2024-07-09T07:10:34Z</time>
      </trkpt>
      <trkpt lat="43.95698" lon="7.41231">
        <ele>946</ele>
        <time>2024-07-09T07:10:35Z</time>
      </trkpt>
      <trkpt lat="43.95699" lon="7.41231">
        <ele>946.8</ele>
        <time>2024-07-09T07:10:36Z</time>
      </trkpt>
      <trkpt lat="43.95701" lon="7.41231">
        <ele>947</ele>
        <time>2024-07-09T07:10:37Z</time>
      </trkpt>
      <trkpt lat="43.95702" lon="7.41232">
        <ele>947</ele>
        <time>2024-07-09T07:10:38Z</time>
      </trkpt>
      <trkpt lat="43.95704" lon="7.41232">
        <ele>947</ele>
        <time>2024-07-09T07:10:39Z</time>
      </trkpt>
      <trkpt lat="43.95706" lon="7.41231">
        <ele>947</ele>
        <time>2024-07-09T07:10:40Z</time>
      </trkpt>
      <trkpt lat="43.95708" lon="7.41231">
        <ele>947</ele>
        <time>2024-07-09T07:10:41Z</time>
      </trkpt>
      <trkpt lat="43.95709" lon="7.41231">
        <ele>947.2</ele>
        <time>2024-07-09T07:10:42Z</time>
      </trkpt>
      <trkpt lat="43.95711" lon="7.41231">
        <ele>947.2</ele>
        <time>2024-07-09T07:10:43Z</time>
      </trkpt>
      <trkpt lat="43.95713" lon="7.41231">
        <ele>947.2</ele>
        <time>2024-07-09T07:10:44Z</time>
      </trkpt>
      <trkpt lat="43.95714" lon="7.41232">
        <ele>948</ele>
        <time>2024-07-09T07:10:45Z</time>
      </trkpt>
      <trkpt lat="43.95716" lon="7.41233">
        <ele>948.2</ele>
        <time>2024-07-09T07:10:46Z</time>
      </trkpt>
      <trkpt lat="43.95718" lon="7.41233">
        <ele>948.2</ele>
        <time>2024-07-09T07:10:47Z</time>
      </trkpt>
      <trkpt lat="43.95719" lon="7.41234">
        <ele>948.2</ele>
        <time>2024-07-09T07:10:48Z</time>
      </trkpt>
      <trkpt lat="43.95721" lon="7.41235">
        <ele>948.2</ele>
        <time>2024-07-09T07:10:49Z</time>
      </trkpt>
      <trkpt lat="43.95722" lon="7.41236">
        <ele>948.6</ele>
        <time>2024-07-09T07:10:50Z</time>
      </trkpt>
      <trkpt lat="43.95724" lon="7.41236">
        <ele>948.6</ele>
        <time>2024-07-09T07:10:51Z</time>
      </trkpt>
      <trkpt lat="43.95726" lon="7.41237">
        <ele>948.8</ele>
        <time>2024-07-09T07:10:52Z</time>
      </trkpt>
      <trkpt lat="43.95727" lon="7.41238">
        <ele>948.8</ele>
        <time>2024-07-09T07:10:53Z</time>
      </trkpt>
      <trkpt lat="43.95728" lon="7.4124">
        <ele>948.8</ele>
        <time>2024-07-09T07:10:54Z</time>
      </trkpt>
      <trkpt lat="43.95729" lon="7.41242">
        <ele>949.2</ele>
        <time>2024-07-09T07:10:55Z</time>
      </trkpt>
      <trkpt lat="43.9573" lon="7.41244">
        <ele>949.4</ele>
        <time>2024-07-09T07:10:56Z</time>
      </trkpt>
      <trkpt lat="43.95731" lon="7.41246">
        <ele>949.4</ele>
        <time>2024-07-09T07:10:57Z</time>
      </trkpt>
      <trkpt lat="43.95732" lon="7.41248">
        <ele>949.4</ele>
        <time>2024-07-09T07:10:58Z</time>
      </trkpt>
      <trkpt lat="43.95733" lon="7.4125">
        <ele>949.8</ele>
        <time>2024-07-09T07:10:59Z</time>
      </trkpt>
      <trkpt lat="43.95734" lon="7.41251">
        <ele>950</ele>
        <time>2024-07-09T07:11:00Z</time>
      </trkpt>
      <trkpt lat="43.95735" lon="7.41253">
        <ele>950</ele>
        <time>2024-07-09T07:11:01Z</time>
      </trkpt>
      <trkpt lat="43.95737" lon="7.41255">
        <ele>950</ele>
        <time>2024-07-09T07:11:02Z</time>
      </trkpt>
      <trkpt lat="43.95738" lon="7.41258">
        <ele>950</ele>
        <time>2024-07-09T07:11:03Z</time>
      </trkpt>
      <trkpt lat="43.95739" lon="7.4126">
        <ele>950.6</ele>
        <time>2024-07-09T07:11:04Z</time>
      </trkpt>
      <trkpt lat="43.9574" lon="7.41261">
        <ele>950.8</ele>
        <time>2024-07-09T07:11:05Z</time>
      </trkpt>
      <trkpt lat="43.95742" lon="7.41263">
        <ele>950.8</ele>
        <time>2024-07-09T07:11:06Z</time>
      </trkpt>
      <trkpt lat="43.95743" lon="7.41265">
        <ele>950.8</ele>
        <time>2024-07-09T07:11:07Z</time>
      </trkpt>
      <trkpt lat="43.95744" lon="7.41267">
        <ele>951.2</ele>
        <time>2024-07-09T07:11:08Z</time>
      </trkpt>
      <trkpt lat="43.95745" lon="7.41269">
        <ele>951.6</ele>
        <time>2024-07-09T07:11:09Z</time>
      </trkpt>
      <trkpt lat="43.95746" lon="7.4127">
        <ele>951.6</ele>
        <time>2024-07-09T07:11:10Z</time>
      </trkpt>
      <trkpt lat="43.95747" lon="7.41272">
        <ele>951.6</ele>
        <time>2024-07-09T07:11:11Z</time>
      </trkpt>
      <trkpt lat="43.95748" lon="7.41273">
        <ele>952</ele>
        <time>2024-07-09T07:11:12Z</time>
      </trkpt>
      <trkpt lat="43.9575" lon="7.41275">
        <ele>952</ele>
        <time>2024-07-09T07:11:13Z</time>
      </trkpt>
      <trkpt lat="43.95751" lon="7.41277">
        <ele>952</ele>
        <time>2024-07-09T07:11:14Z</time>
      </trkpt>
      <trkpt lat="43.95752" lon="7.41278">
        <ele>952</ele>
        <time>2024-07-09T07:11:15Z</time>
      </trkpt>
      <trkpt lat="43.95753" lon="7.41279">
        <ele>952</ele>
        <time>2024-07-09T07:11:16Z</time>
      </trkpt>
      <trkpt lat="43.95754" lon="7.41281">
        <ele>952</ele>
        <time>2024-07-09T07:11:17Z</time>
      </trkpt>
      <trkpt lat="43.95756" lon="7.41282">
        <ele>952.6</ele>
        <time>2024-07-09T07:11:18Z</time>
      </trkpt>
      <trkpt lat="43.95758" lon="7.41283">
        <ele>952.6</ele>
        <time>2024-07-09T07:11:19Z</time>
      </trkpt>
      <trkpt lat="43.95759" lon="7.41283">
        <ele>952.6</ele>
        <time>2024-07-09T07:11:20Z</time>
      </trkpt>
      <trkpt lat="43.9576" lon="7.41284">
        <ele>953.2</ele>
        <time>2024-07-09T07:11:21Z</time>
      </trkpt>
      <trkpt lat="43.95762" lon="7.41284">
        <ele>953.2</ele>
        <time>2024-07-09T07:11:22Z</time>
      </trkpt>
      <trkpt lat="43.95763" lon="7.41284">
        <ele>953.2</ele>
        <time>2024-07-09T07:11:23Z</time>
      </trkpt>
      <trkpt lat="43.95765" lon="7.41284">
        <ele>953.2</ele>
        <time>2024-07-09T07:11:24Z</time>
      </trkpt>
      <trkpt lat="43.95767" lon="7.41284">
        <ele>953.6</ele>
        <time>2024-07-09T07:11:25Z</time>
      </trkpt>
      <trkpt lat="43.95769" lon="7.41284">
        <ele>953.6</ele>
        <time>2024-07-09T07:11:26Z</time>
      </trkpt>
      <trkpt lat="43.95771" lon="7.41284">
        <ele>953.6</ele>
        <time>2024-07-09T07:11:27Z</time>
      </trkpt>
      <trkpt lat="43.95773" lon="7.41283">
        <ele>953.6</ele>
        <time>2024-07-09T07:11:28Z</time>
      </trkpt>
      <trkpt lat="43.95775" lon="7.41282">
        <ele>953.6</ele>
        <time>2024-07-09T07:11:29Z</time>
      </trkpt>
      <trkpt lat="43.95777" lon="7.41282">
        <ele>954</ele>
        <time>2024-07-09T07:11:30Z</time>
      </trkpt>
      <trkpt lat="43.95778" lon="7.4128">
        <ele>954</ele>
        <time>2024-07-09T07:11:31Z</time>
      </trkpt>
      <trkpt lat="43.9578" lon="7.41279">
        <ele>954</ele>
        <time>2024-07-09T07:11:32Z</time>
      </trkpt>
      <trkpt lat="43.95782" lon="7.41277">
        <ele>954</ele>
        <time>2024-07-09T07:11:33Z</time>
      </trkpt>
      <trkpt lat="43.95784" lon="7.41276">
        <ele>954</ele>
        <time>2024-07-09T07:11:34Z</time>
      </trkpt>
      <trkpt lat="43.95786" lon="7.41275">
        <ele>954.4</ele>
        <time>2024-07-09T07:11:35Z</time>
      </trkpt>
      <trkpt lat="43.95787" lon="7.41273">
        <ele>954.6</ele>
        <time>2024-07-09T07:11:36Z</time>
      </trkpt>
      <trkpt lat="43.95789" lon="7.41271">
        <ele>954.6</ele>
        <time>2024-07-09T07:11:37Z</time>
      </trkpt>
      <trkpt lat="43.95791" lon="7.41269">
        <ele>954.6</ele>
        <time>2024-07-09T07:11:38Z</time>
      </trkpt>
      <trkpt lat="43.95792" lon="7.41267">
        <ele>954.6</ele>
        <time>2024-07-09T07:11:39Z</time>
      </trkpt>
      <trkpt lat="43.95794" lon="7.41266">
        <ele>954.6</ele>
        <time>2024-07-09T07:11:40Z</time>
      </trkpt>
      <trkpt lat="43.95796" lon="7.41264">
        <ele>954.8</ele>
        <time>2024-07-09T07:11:41Z</time>
      </trkpt>
      <trkpt lat="43.95797" lon="7.41263">
        <ele>954.8</ele>
        <time>2024-07-09T07:11:42Z</time>
      </trkpt>
      <trkpt lat="43.95799" lon="7.41261">
        <ele>954.8</ele>
        <time>2024-07-09T07:11:43Z</time>
      </trkpt>
      <trkpt lat="43.958" lon="7.4126">
        <ele>955.4</ele>
        <time>2024-07-09T07:11:44Z</time>
      </trkpt>
      <trkpt lat="43.95802" lon="7.41258">
        <ele>955.6</ele>
        <time>2024-07-09T07:11:45Z</time>
      </trkpt>
      <trkpt lat="43.95804" lon="7.41255">
        <ele>955.6</ele>
        <time>2024-07-09T07:11:46Z</time>
      </trkpt>
      <trkpt lat="43.95805" lon="7.41254">
        <ele>955.6</ele>
        <time>2024-07-09T07:11:47Z</time>
      </trkpt>
      <trkpt lat="43.95806" lon="7.41252">
        <ele>955.8</ele>
        <time>2024-07-09T07:11:48Z</time>
      </trkpt>
      <trkpt lat="43.95807" lon="7.41251">
        <ele>956</ele>
        <time>2024-07-09T07:11:49Z</time>
      </trkpt>
      <trkpt lat="43.95809" lon="7.4125">
        <ele>956</ele>
        <time>2024-07-09T07:11:50Z</time>
      </trkpt>
      <trkpt lat="43.9581" lon="7.41249">
        <ele>956</ele>
        <time>2024-07-09T07:11:51Z</time>
      </trkpt>
      <trkpt lat="43.95812" lon="7.41249">
        <ele>956.4</ele>
        <time>2024-07-09T07:11:52Z</time>
      </trkpt>
      <trkpt lat="43.95813" lon="7.41248">
        <ele>956.4</ele>
        <time>2024-07-09T07:11:53Z</time>
      </trkpt>
      <trkpt lat="43.95815" lon="7.41248">
        <ele>956.4</ele>
        <time>2024-07-09T07:11:54Z</time>
      </trkpt>
      <trkpt lat="43.95817" lon="7.41247">
        <ele>956.4</ele>
        <time>2024-07-09T07:11:55Z</time>
      </trkpt>
      <trkpt lat="43.95819" lon="7.41246">
        <ele>956.4</ele>
        <time>2024-07-09T07:11:56Z</time>
      </trkpt>
      <trkpt lat="43.95821" lon="7.41246">
        <ele>957.2</ele>
        <time>2024-07-09T07:11:57Z</time>
      </trkpt>
      <trkpt lat="43.95823" lon="7.41245">
        <ele>957.4</ele>
        <time>2024-07-09T07:11:58Z</time>
      </trkpt>
      <trkpt lat="43.95825" lon="7.41244">
        <ele>957.4</ele>
        <time>2024-07-09T07:11:59Z</time>
      </trkpt>
      <trkpt lat="43.95827" lon="7.41244">
        <ele>957.4</ele>
        <time>2024-07-09T07:12:00Z</time>
      </trkpt>
      <trkpt lat="43.95829" lon="7.41244">
        <ele>957.8</ele>
        <time>2024-07-09T07:12:01Z</time>
      </trkpt>
      <trkpt lat="43.95831" lon="7.41244">
        <ele>957.8</ele>
        <time>2024-07-09T07:12:02Z</time>
      </trkpt>
      <trkpt lat="43.95833" lon="7.41243">
        <ele>957.8</ele>
        <time>2024-07-09T07:12:03Z</time>
      </trkpt>
      <trkpt lat="43.95835" lon="7.41243">
        <ele>957.8</ele>
        <time>2024-07-09T07:12:04Z</time>
      </trkpt>
      <trkpt lat="43.95837" lon="7.41243">
        <ele>957.8</ele>
        <time>2024-07-09T07:12:05Z</time>
      </trkpt>
      <trkpt lat="43.95839" lon="7.41242">
        <ele>958.4</ele>
        <time>2024-07-09T07:12:06Z</time>
      </trkpt>
      <trkpt lat="43.9584" lon="7.41242">
        <ele>958.4</ele>
        <time>2024-07-09T07:12:07Z</time>
      </trkpt>
      <trkpt lat="43.95842" lon="7.41241">
        <ele>958.4</ele>
        <time>2024-07-09T07:12:08Z</time>
      </trkpt>
      <trkpt lat="43.95843" lon="7.41241">
        <ele>958.4</ele>
        <time>2024-07-09T07:12:09Z</time>
      </trkpt>
      <trkpt lat="43.95845" lon="7.41239">
        <ele>958.8</ele>
        <time>2024-07-09T07:12:10Z</time>
      </trkpt>
      <trkpt lat="43.95846" lon="7.41238">
        <ele>958.8</ele>
        <time>2024-07-09T07:12:11Z</time>
      </trkpt>
      <trkpt lat="43.95848" lon="7.41236">
        <ele>959.2</ele>
        <time>2024-07-09T07:12:12Z</time>
      </trkpt>
      <trkpt lat="43.95849" lon="7.41235">
        <ele>959.2</ele>
        <time>2024-07-09T07:12:13Z</time>
      </trkpt>
      <trkpt lat="43.95851" lon="7.41233">
        <ele>959.2</ele>
        <time>2024-07-09T07:12:14Z</time>
      </trkpt>
      <trkpt lat="43.95852" lon="7.41232">
        <ele>959.2</ele>
        <time>2024-07-09T07:12:15Z</time>
      </trkpt>
      <trkpt lat="43.95854" lon="7.41231">
        <ele>959.8</ele>
        <time>2024-07-09T07:12:16Z</time>
      </trkpt>
      <trkpt lat="43.95855" lon="7.4123">
        <ele>960</ele>
        <time>2024-07-09T07:12:17Z</time>
      </trkpt>
      <trkpt lat="43.95857" lon="7.41229">
        <ele>960</ele>
        <time>2024-07-09T07:12:18Z</time>
      </trkpt>
      <trkpt lat="43.95859" lon="7.41228">
        <ele>960</ele>
        <time>2024-07-09T07:12:19Z</time>
      </trkpt>
      <trkpt lat="43.9586" lon="7.41225">
        <ele>960.2</ele>
        <time>2024-07-09T07:12:20Z</time>
      </trkpt>
      <trkpt lat="43.95861" lon="7.41223">
        <ele>960.4</ele>
        <time>2024-07-09T07:12:21Z</time>
      </trkpt>
      <trkpt lat="43.95862" lon="7.41221">
        <ele>960.4</ele>
        <time>2024-07-09T07:12:22Z</time>
      </trkpt>
      <trkpt lat="43.95863" lon="7.41219">
        <ele>960.4</ele>
        <time>2024-07-09T07:12:23Z</time>
      </trkpt>
      <trkpt lat="43.95864" lon="7.41217">
        <ele>960.6</ele>
        <time>2024-07-09T07:12:24Z</time>
      </trkpt>
      <trkpt lat="43.95865" lon="7.41214">
        <ele>960.6</ele>
        <time>2024-07-09T07:12:25Z</time>
      </trkpt>
      <trkpt lat="43.95867" lon="7.41212">
        <ele>960.6</ele>
        <time>2024-07-09T07:12:26Z</time>
      </trkpt>
      <trkpt lat="43.95868" lon="7.41211">
        <ele>960.6</ele>
        <time>2024-07-09T07:12:27Z</time>
      </trkpt>
      <trkpt lat="43.9587" lon="7.41209">
        <ele>960.6</ele>
        <time>2024-07-09T07:12:28Z</time>
      </trkpt>
      <trkpt lat="43.95871" lon="7.41209">
        <ele>961</ele>
        <time>2024-07-09T07:12:29Z</time>
      </trkpt>
      <trkpt lat="43.95873" lon="7.41208">
        <ele>961</ele>
        <time>2024-07-09T07:12:30Z</time>
      </trkpt>
      <trkpt lat="43.95875" lon="7.41208">
        <ele>961</ele>
        <time>2024-07-09T07:12:31Z</time>
      </trkpt>
      <trkpt lat="43.95877" lon="7.41208">
        <ele>961</ele>
        <time>2024-07-09T07:12:32Z</time>
      </trkpt>
      <trkpt lat="43.95879" lon="7.41209">
        <ele>961</ele>
        <time>2024-07-09T07:12:33Z</time>
      </trkpt>
      <trkpt lat="43.95881" lon="7.41209">
        <ele>961.6</ele>
        <time>2024-07-09T07:12:34Z</time>
      </trkpt>
      <trkpt lat="43.95883" lon="7.41209">
        <ele>961.6</ele>
        <time>2024-07-09T07:12:35Z</time>
      </trkpt>
      <trkpt lat="43.95884" lon="7.4121">
        <ele>961.6</ele>
        <time>2024-07-09T07:12:36Z</time>
      </trkpt>
      <trkpt lat="43.95885" lon="7.41212">
        <ele>961.6</ele>
        <time>2024-07-09T07:12:37Z</time>
      </trkpt>
      <trkpt lat="43.95885" lon="7.41214">
        <ele>962</ele>
        <time>2024-07-09T07:12:38Z</time>
      </trkpt>
      <trkpt lat="43.95886" lon="7.41216">
        <ele>962</ele>
        <time>2024-07-09T07:12:39Z</time>
      </trkpt>
      <trkpt lat="43.95887" lon="7.41219">
        <ele>962</ele>
        <time>2024-07-09T07:12:40Z</time>
      </trkpt>
      <trkpt lat="43.95887" lon="7.41222">
        <ele>962</ele>
        <time>2024-07-09T07:12:41Z</time>
      </trkpt>
      <trkpt lat="43.95887" lon="7.41226">
        <ele>962.6</ele>
        <time>2024-07-09T07:12:42Z</time>
      </trkpt>
      <trkpt lat="43.95887" lon="7.41229">
        <ele>962.8</ele>
        <time>2024-07-09T07:12:43Z</time>
      </trkpt>
      <trkpt lat="43.95888" lon="7.41231">
        <ele>962.8</ele>
        <time>2024-07-09T07:12:44Z</time>
      </trkpt>
      <trkpt lat="43.95888" lon="7.41234">
        <ele>962.8</ele>
        <time>2024-07-09T07:12:45Z</time>
      </trkpt>
      <trkpt lat="43.95889" lon="7.41237">
        <ele>963.2</ele>
        <time>2024-07-09T07:12:46Z</time>
      </trkpt>
      <trkpt lat="43.95889" lon="7.41241">
        <ele>963.4</ele>
        <time>2024-07-09T07:12:47Z</time>
      </trkpt>
      <trkpt lat="43.9589" lon="7.41244">
        <ele>963.4</ele>
        <time>2024-07-09T07:12:48Z</time>
      </trkpt>
      <trkpt lat="43.95891" lon="7.41248">
        <ele>963.4</ele>
        <time>2024-07-09T07:12:49Z</time>
      </trkpt>
      <trkpt lat="43.95891" lon="7.41251">
        <ele>963.4</ele>
        <time>2024-07-09T07:12:50Z</time>
      </trkpt>
      <trkpt lat="43.95892" lon="7.41254">
        <ele>963.8</ele>
        <time>2024-07-09T07:12:51Z</time>
      </trkpt>
      <trkpt lat="43.95893" lon="7.41258">
        <ele>964</ele>
        <time>2024-07-09T07:12:52Z</time>
      </trkpt>
      <trkpt lat="43.95895" lon="7.41261">
        <ele>964</ele>
        <time>2024-07-09T07:12:53Z</time>
      </trkpt>
      <trkpt lat="43.95896" lon="7.41264">
        <ele>964</ele>
        <time>2024-07-09T07:12:54Z</time>
      </trkpt>
      <trkpt lat="43.95897" lon="7.41268">
        <ele>964.4</ele>
        <time>2024-07-09T07:12:55Z</time>
      </trkpt>
      <trkpt lat="43.95899" lon="7.4127">
        <ele>964.4</ele>
        <time>2024-07-09T07:12:56Z</time>
      </trkpt>
      <trkpt lat="43.959" lon="7.41273">
        <ele>964.6</ele>
        <time>2024-07-09T07:12:57Z</time>
      </trkpt>
      <trkpt lat="43.95902" lon="7.41275">
        <ele>964.6</ele>
        <time>2024-07-09T07:12:58Z</time>
      </trkpt>
      <trkpt lat="43.95904" lon="7.41278">
        <ele>964.6</ele>
        <time>2024-07-09T07:12:59Z</time>
      </trkpt>
      <trkpt lat="43.95906" lon="7.4128">
        <ele>964.6</ele>
        <time>2024-07-09T07:13:00Z</time>
      </trkpt>
      <trkpt lat="43.95908" lon="7.41282">
        <ele>965</ele>
        <time>2024-07-09T07:13:01Z</time>
      </trkpt>
      <trkpt lat="43.95909" lon="7.41285">
        <ele>965.2</ele>
        <time>2024-07-09T07:13:02Z</time>
      </trkpt>
      <trkpt lat="43.95911" lon="7.41286">
        <ele>965.2</ele>
        <time>2024-07-09T07:13:03Z</time>
      </trkpt>
      <trkpt lat="43.95913" lon="7.41287">
        <ele>965.2</ele>
        <time>2024-07-09T07:13:04Z</time>
      </trkpt>
      <trkpt lat="43.95916" lon="7.41289">
        <ele>965.2</ele>
        <time>2024-07-09T07:13:05Z</time>
      </trkpt>
      <trkpt lat="43.95918" lon="7.4129">
        <ele>965.2</ele>
        <time>2024-07-09T07:13:06Z</time>
      </trkpt>
      <trkpt lat="43.9592" lon="7.41292">
        <ele>965.2</ele>
        <time>2024-07-09T07:13:07Z</time>
      </trkpt>
      <trkpt lat="43.95922" lon="7.41292">
        <ele>965.2</ele>
        <time>2024-07-09T07:13:08Z</time>
      </trkpt>
      <trkpt lat="43.95924" lon="7.41293">
        <ele>965.8</ele>
        <time>2024-07-09T07:13:09Z</time>
      </trkpt>
      <trkpt lat="43.95926" lon="7.41294">
        <ele>965.8</ele>
        <time>2024-07-09T07:13:10Z</time>
      </trkpt>
      <trkpt lat="43.95929" lon="7.41294">
        <ele>965.8</ele>
        <time>2024-07-09T07:13:11Z</time>
      </trkpt>
      <trkpt lat="43.95931" lon="7.41293">
        <ele>965.8</ele>
        <time>2024-07-09T07:13:12Z</time>
      </trkpt>
      <trkpt lat="43.95933" lon="7.41293">
        <ele>965.8</ele>
        <time>2024-07-09T07:13:13Z</time>
      </trkpt>
      <trkpt lat="43.95935" lon="7.41293">
        <ele>965.8</ele>
        <time>2024-07-09T07:13:14Z</time>
      </trkpt>
      <trkpt lat="43.95938" lon="7.41294">
        <ele>965.6</ele>
        <time>2024-07-09T07:13:15Z</time>
      </trkpt>
      <trkpt lat="43.9594" lon="7.41294">
        <ele>965.6</ele>
        <time>2024-07-09T07:13:16Z</time>
      </trkpt>
      <trkpt lat="43.95942" lon="7.41294">
        <ele>965.6</ele>
        <time>2024-07-09T07:13:17Z</time>
      </trkpt>
      <trkpt lat="43.95945" lon="7.41295">
        <ele>966</ele>
        <time>2024-07-09T07:13:18Z</time>
      </trkpt>
      <trkpt lat="43.95947" lon="7.41295">
        <ele>966.2</ele>
        <time>2024-07-09T07:13:19Z</time>
      </trkpt>
      <trkpt lat="43.9595" lon="7.41295">
        <ele>966.2</ele>
        <time>2024-07-09T07:13:20Z</time>
      </trkpt>
      <trkpt lat="43.95952" lon="7.41296">
        <ele>966.2</ele>
        <time>2024-07-09T07:13:21Z</time>
      </trkpt>
      <trkpt lat="43.95955" lon="7.41296">
        <ele>966.4</ele>
        <time>2024-07-09T07:13:22Z</time>
      </trkpt>
      <trkpt lat="43.95957" lon="7.41296">
        <ele>966.4</ele>
        <time>2024-07-09T07:13:23Z</time>
      </trkpt>
      <trkpt lat="43.9596" lon="7.41296">
        <ele>967</ele>
        <time>2024-07-09T07:13:24Z</time>
      </trkpt>
      <trkpt lat="43.95962" lon="7.41297">
        <ele>967</ele>
        <time>2024-07-09T07:13:25Z</time>
      </trkpt>
      <trkpt lat="43.95964" lon="7.41296">
        <ele>967</ele>
        <time>2024-07-09T07:13:26Z</time>
      </trkpt>
      <trkpt lat="43.95967" lon="7.41296">
        <ele>967</ele>
        <time>2024-07-09T07:13:27Z</time>
      </trkpt>
      <trkpt lat="43.95969" lon="7.41297">
        <ele>967</ele>
        <time>2024-07-09T07:13:28Z</time>
      </trkpt>
      <trkpt lat="43.95971" lon="7.41297">
        <ele>967</ele>
        <time>2024-07-09T07:13:29Z</time>
      </trkpt>
      <trkpt lat="43.95973" lon="7.41297">
        <ele>967</ele>
        <time>2024-07-09T07:13:30Z</time>
      </trkpt>
      <trkpt lat="43.95976" lon="7.41297">
        <ele>967.4</ele>
        <time>2024-07-09T07:13:31Z</time>
      </trkpt>
      <trkpt lat="43.95978" lon="7.41297">
        <ele>967.6</ele>
        <time>2024-07-09T07:13:32Z</time>
      </trkpt>
      <trkpt lat="43.95981" lon="7.41296">
        <ele>967.6</ele>
        <time>2024-07-09T07:13:33Z</time>
      </trkpt>
      <trkpt lat="43.95983" lon="7.41295">
        <ele>967.6</ele>
        <time>2024-07-09T07:13:34Z</time>
      </trkpt>
      <trkpt lat="43.95985" lon="7.41294">
        <ele>967.6</ele>
        <time>2024-07-09T07:13:35Z</time>
      </trkpt>
      <trkpt lat="43.95987" lon="7.41293">
        <ele>968</ele>
        <time>2024-07-09T07:13:36Z</time>
      </trkpt>
      <trkpt lat="43.95989" lon="7.41293">
        <ele>968</ele>
        <time>2024-07-09T07:13:37Z</time>
      </trkpt>
      <trkpt lat="43.95991" lon="7.41293">
        <ele>968</ele>
        <time>2024-07-09T07:13:38Z</time>
      </trkpt>
      <trkpt lat="43.95993" lon="7.41293">
        <ele>968</ele>
        <time>2024-07-09T07:13:39Z</time>
      </trkpt>
      <trkpt lat="43.95995" lon="7.41292">
        <ele>968</ele>
        <time>2024-07-09T07:13:40Z</time>
      </trkpt>
      <trkpt lat="43.95998" lon="7.41292">
        <ele>968.2</ele>
        <time>2024-07-09T07:13:41Z</time>
      </trkpt>
      <trkpt lat="43.96" lon="7.41293">
        <ele>968.6</ele>
        <time>2024-07-09T07:13:42Z</time>
      </trkpt>
      <trkpt lat="43.96002" lon="7.41294">
        <ele>968.6</ele>
        <time>2024-07-09T07:13:43Z</time>
      </trkpt>
      <trkpt lat="43.96005" lon="7.41295">
        <ele>968.6</ele>
        <time>2024-07-09T07:13:44Z</time>
      </trkpt>
      <trkpt lat="43.96008" lon="7.41296">
        <ele>968.6</ele>
        <time>2024-07-09T07:13:45Z</time>
      </trkpt>
      <trkpt lat="43.96011" lon="7.41298">
        <ele>968.6</ele>
        <time>2024-07-09T07:13:46Z</time>
      </trkpt>
      <trkpt lat="43.96013" lon="7.413">
        <ele>968.6</ele>
        <time>2024-07-09T07:13:47Z</time>
      </trkpt>
      <trkpt lat="43.96016" lon="7.41301">
        <ele>968.6</ele>
        <time>2024-07-09T07:13:48Z</time>
      </trkpt>
      <trkpt lat="43.96018" lon="7.41302">
        <ele>968.6</ele>
        <time>2024-07-09T07:13:49Z</time>
      </trkpt>
      <trkpt lat="43.96021" lon="7.41304">
        <ele>969.2</ele>
        <time>2024-07-09T07:13:50Z</time>
      </trkpt>
      <trkpt lat="43.96024" lon="7.41306">
        <ele>969.2</ele>
        <time>2024-07-09T07:13:51Z</time>
      </trkpt>
      <trkpt lat="43.96026" lon="7.41308">
        <ele>969.2</ele>
        <time>2024-07-09T07:13:52Z</time>
      </trkpt>
      <trkpt lat="43.96029" lon="7.4131">
        <ele>969.2</ele>
        <time>2024-07-09T07:13:53Z</time>
      </trkpt>
      <trkpt lat="43.96031" lon="7.41312">
        <ele>969.6</ele>
        <time>2024-07-09T07:13:54Z</time>
      </trkpt>
      <trkpt lat="43.96032" lon="7.41316">
        <ele>969.6</ele>
        <time>2024-07-09T07:13:55Z</time>
      </trkpt>
      <trkpt lat="43.96034" lon="7.41318">
        <ele>969.8</ele>
        <time>2024-07-09T07:13:56Z</time>
      </trkpt>
      <trkpt lat="43.96035" lon="7.41321">
        <ele>969.8</ele>
        <time>2024-07-09T07:13:57Z</time>
      </trkpt>
      <trkpt lat="43.96037" lon="7.41324">
        <ele>969.8</ele>
        <time>2024-07-09T07:13:58Z</time>
      </trkpt>
      <trkpt lat="43.96038" lon="7.41327">
        <ele>969.8</ele>
        <time>2024-07-09T07:13:59Z</time>
      </trkpt>
      <trkpt lat="43.96039" lon="7.41329">
        <ele>970.2</ele>
        <time>2024-07-09T07:14:00Z</time>
      </trkpt>
      <trkpt lat="43.9604" lon="7.41331">
        <ele>970.2</ele>
        <time>2024-07-09T07:14:01Z</time>
      </trkpt>
      <trkpt lat="43.96041" lon="7.41334">
        <ele>970.2</ele>
        <time>2024-07-09T07:14:02Z</time>
      </trkpt>
      <trkpt lat="43.96041" lon="7.41338">
        <ele>970.6</ele>
        <time>2024-07-09T07:14:03Z</time>
      </trkpt>
      <trkpt lat="43.96042" lon="7.41341">
        <ele>970.8</ele>
        <time>2024-07-09T07:14:04Z</time>
      </trkpt>
      <trkpt lat="43.96042" lon="7.41345">
        <ele>970.8</ele>
        <time>2024-07-09T07:14:05Z</time>
      </trkpt>
      <trkpt lat="43.96042" lon="7.41347">
        <ele>970.8</ele>
        <time>2024-07-09T07:14:06Z</time>
      </trkpt>
      <trkpt lat="43.96042" lon="7.41351">
        <ele>970.8</ele>
        <time>2024-07-09T07:14:07Z</time>
      </trkpt>
      <trkpt lat="43.96042" lon="7.41354">
        <ele>970.8</ele>
        <time>2024-07-09T07:14:08Z</time>
      </trkpt>
      <trkpt lat="43.96043" lon="7.41357">
        <ele>971.4</ele>
        <time>2024-07-09T07:14:09Z</time>
      </trkpt>
      <trkpt lat="43.96043" lon="7.4136">
        <ele>971.4</ele>
        <time>2024-07-09T07:14:10Z</time>
      </trkpt>
      <trkpt lat="43.96043" lon="7.41363">
        <ele>971.4</ele>
        <time>2024-07-09T07:14:11Z</time>
      </trkpt>
      <trkpt lat="43.96042" lon="7.41367">
        <ele>971.8</ele>
        <time>2024-07-09T07:14:12Z</time>
      </trkpt>
      <trkpt lat="43.96041" lon="7.4137">
        <ele>971.8</ele>
        <time>2024-07-09T07:14:13Z</time>
      </trkpt>
      <trkpt lat="43.96041" lon="7.41372">
        <ele>971.8</ele>
        <time>2024-07-09T07:14:14Z</time>
      </trkpt>
      <trkpt lat="43.9604" lon="7.41375">
        <ele>971.8</ele>
        <time>2024-07-09T07:14:15Z</time>
      </trkpt>
      <trkpt lat="43.96039" lon="7.41378">
        <ele>972.4</ele>
        <time>2024-07-09T07:14:16Z</time>
      </trkpt>
      <trkpt lat="43.96039" lon="7.41381">
        <ele>972.6</ele>
        <time>2024-07-09T07:14:17Z</time>
      </trkpt>
      <trkpt lat="43.96038" lon="7.41383">
        <ele>972.6</ele>
        <time>2024-07-09T07:14:18Z</time>
      </trkpt>
      <trkpt lat="43.96037" lon="7.41386">
        <ele>972.6</ele>
        <time>2024-07-09T07:14:19Z</time>
      </trkpt>
      <trkpt lat="43.96037" lon="7.41389">
        <ele>973.4</ele>
        <time>2024-07-09T07:14:20Z</time>
      </trkpt>
      <trkpt lat="43.96036" lon="7.41391">
        <ele>973.4</ele>
        <time>2024-07-09T07:14:21Z</time>
      </trkpt>
      <trkpt lat="43.96036" lon="7.41393">
        <ele>973.4</ele>
        <time>2024-07-09T07:14:22Z</time>
      </trkpt>
      <trkpt lat="43.96036" lon="7.41397">
        <ele>973.4</ele>
        <time>2024-07-09T07:14:23Z</time>
      </trkpt>
      <trkpt lat="43.96035" lon="7.414">
        <ele>973.4</ele>
        <time>2024-07-09T07:14:24Z</time>
      </trkpt>
      <trkpt lat="43.96034" lon="7.41403">
        <ele>973.4</ele>
        <time>2024-07-09T07:14:25Z</time>
      </trkpt>
      <trkpt lat="43.96033" lon="7.41405">
        <ele>974.4</ele>
        <time>2024-07-09T07:14:26Z</time>
      </trkpt>
      <trkpt lat="43.96032" lon="7.41407">
        <ele>974.8</ele>
        <time>2024-07-09T07:14:27Z</time>
      </trkpt>
      <trkpt lat="43.96031" lon="7.4141">
        <ele>974.8</ele>
        <time>2024-07-09T07:14:28Z</time>
      </trkpt>
      <trkpt lat="43.9603" lon="7.41412">
        <ele>974.8</ele>
        <time>2024-07-09T07:14:29Z</time>
      </trkpt>
      <trkpt lat="43.96029" lon="7.41415">
        <ele>974.8</ele>
        <time>2024-07-09T07:14:30Z</time>
      </trkpt>
      <trkpt lat="43.96029" lon="7.41418">
        <ele>975.6</ele>
        <time>2024-07-09T07:14:31Z</time>
      </trkpt>
      <trkpt lat="43.96028" lon="7.41421">
        <ele>975.6</ele>
        <time>2024-07-09T07:14:32Z</time>
      </trkpt>
      <trkpt lat="43.96027" lon="7.41422">
        <ele>975.6</ele>
        <time>2024-07-09T07:14:33Z</time>
      </trkpt>
      <trkpt lat="43.96025" lon="7.41425">
        <ele>976</ele>
        <time>2024-07-09T07:14:34Z</time>
      </trkpt>
      <trkpt lat="43.96024" lon="7.41428">
        <ele>976</ele>
        <time>2024-07-09T07:14:35Z</time>
      </trkpt>
      <trkpt lat="43.96023" lon="7.41429">
        <ele>976.2</ele>
        <time>2024-07-09T07:14:36Z</time>
      </trkpt>
      <trkpt lat="43.96022" lon="7.41431">
        <ele>976.2</ele>
        <time>2024-07-09T07:14:37Z</time>
      </trkpt>
      <trkpt lat="43.96021" lon="7.41433">
        <ele>976.2</ele>
        <time>2024-07-09T07:14:38Z</time>
      </trkpt>
      <trkpt lat="43.9602" lon="7.41435">
        <ele>976.6</ele>
        <time>2024-07-09T07:14:39Z</time>
      </trkpt>
      <trkpt lat="43.96018" lon="7.41436">
        <ele>976.8</ele>
        <time>2024-07-09T07:14:40Z</time>
      </trkpt>
      <trkpt lat="43.96017" lon="7.41438">
        <ele>976.8</ele>
        <time>2024-07-09T07:14:41Z</time>
      </trkpt>
      <trkpt lat="43.96016" lon="7.4144">
        <ele>976.8</ele>
        <time>2024-07-09T07:14:42Z</time>
      </trkpt>
      <trkpt lat="43.96015" lon="7.41442">
        <ele>977.4</ele>
        <time>2024-07-09T07:14:43Z</time>
      </trkpt>
      <trkpt lat="43.96013" lon="7.41443">
        <ele>977.4</ele>
        <time>2024-07-09T07:14:44Z</time>
      </trkpt>
      <trkpt lat="43.96011" lon="7.41445">
        <ele>977.4</ele>
        <time>2024-07-09T07:14:45Z</time>
      </trkpt>
      <trkpt lat="43.9601" lon="7.41448">
        <ele>977.4</ele>
        <time>2024-07-09T07:14:46Z</time>
      </trkpt>
      <trkpt lat="43.96009" lon="7.4145">
        <ele>977.4</ele>
        <time>2024-07-09T07:14:47Z</time>
      </trkpt>
      <trkpt lat="43.96007" lon="7.41452">
        <ele>978</ele>
        <time>2024-07-09T07:14:48Z</time>
      </trkpt>
      <trkpt lat="43.96006" lon="7.41454">
        <ele>978.2</ele>
        <time>2024-07-09T07:14:49Z</time>
      </trkpt>
      <trkpt lat="43.96006" lon="7.41456">
        <ele>978.2</ele>
        <time>2024-07-09T07:14:50Z</time>
      </trkpt>
      <trkpt lat="43.96005" lon="7.41459">
        <ele>978.2</ele>
        <time>2024-07-09T07:14:51Z</time>
      </trkpt>
      <trkpt lat="43.96004" lon="7.41462">
        <ele>978.8</ele>
        <time>2024-07-09T07:14:52Z</time>
      </trkpt>
      <trkpt lat="43.96003" lon="7.41464">
        <ele>978.8</ele>
        <time>2024-07-09T07:14:53Z</time>
      </trkpt>
      <trkpt lat="43.96002" lon="7.41467">
        <ele>978.8</ele>
        <time>2024-07-09T07:14:54Z</time>
      </trkpt>
      <trkpt lat="43.96001" lon="7.4147">
        <ele>978.8</ele>
        <time>2024-07-09T07:14:55Z</time>
      </trkpt>
      <trkpt lat="43.96" lon="7.41472">
        <ele>979.2</ele>
        <time>2024-07-09T07:14:56Z</time>
      </trkpt>
      <trkpt lat="43.96" lon="7.41475">
        <ele>979.6</ele>
        <time>2024-07-09T07:14:57Z</time>
      </trkpt>
      <trkpt lat="43.95999" lon="7.41477">
        <ele>979.6</ele>
        <time>2024-07-09T07:14:58Z</time>
      </trkpt>
      <trkpt lat="43.95999" lon="7.41479">
        <ele>979.6</ele>
        <time>2024-07-09T07:14:59Z</time>
      </trkpt>
      <trkpt lat="43.95998" lon="7.41482">
        <ele>979.6</ele>
        <time>2024-07-09T07:15:00Z</time>
      </trkpt>
      <trkpt lat="43.95998" lon="7.41484">
        <ele>979.6</ele>
        <time>2024-07-09T07:15:01Z</time>
      </trkpt>
      <trkpt lat="43.95997" lon="7.41486">
        <ele>980</ele>
        <time>2024-07-09T07:15:02Z</time>
      </trkpt>
      <trkpt lat="43.95997" lon="7.41489">
        <ele>980.2</ele>
        <time>2024-07-09T07:15:03Z</time>
      </trkpt>
      <trkpt lat="43.95996" lon="7.41492">
        <ele>980.2</ele>
        <time>2024-07-09T07:15:04Z</time>
      </trkpt>
      <trkpt lat="43.95996" lon="7.41494">
        <ele>980.2</ele>
        <time>2024-07-09T07:15:05Z</time>
      </trkpt>
      <trkpt lat="43.95995" lon="7.41496">
        <ele>980.8</ele>
        <time>2024-07-09T07:15:06Z</time>
      </trkpt>
      <trkpt lat="43.95995" lon="7.41499">
        <ele>980.8</ele>
        <time>2024-07-09T07:15:07Z</time>
      </trkpt>
      <trkpt lat="43.95995" lon="7.41501">
        <ele>980.8</ele>
        <time>2024-07-09T07:15:08Z</time>
      </trkpt>
      <trkpt lat="43.95995" lon="7.41502">
        <ele>980.8</ele>
        <time>2024-07-09T07:15:09Z</time>
      </trkpt>
      <trkpt lat="43.95995" lon="7.41504">
        <ele>980.8</ele>
        <time>2024-07-09T07:15:10Z</time>
      </trkpt>
      <trkpt lat="43.95995" lon="7.41507">
        <ele>981.2</ele>
        <time>2024-07-09T07:15:11Z</time>
      </trkpt>
      <trkpt lat="43.95996" lon="7.41509">
        <ele>981.4</ele>
        <time>2024-07-09T07:15:12Z</time>
      </trkpt>
      <trkpt lat="43.95997" lon="7.41511">
        <ele>981.4</ele>
        <time>2024-07-09T07:15:13Z</time>
      </trkpt>
      <trkpt lat="43.95997" lon="7.41514">
        <ele>981.4</ele>
        <time>2024-07-09T07:15:14Z</time>
      </trkpt>
      <trkpt lat="43.95998" lon="7.41516">
        <ele>981.8</ele>
        <time>2024-07-09T07:15:15Z</time>
      </trkpt>
      <trkpt lat="43.95998" lon="7.41518">
        <ele>982</ele>
        <time>2024-07-09T07:15:16Z</time>
      </trkpt>
      <trkpt lat="43.95999" lon="7.4152">
        <ele>982</ele>
        <time>2024-07-09T07:15:17Z</time>
      </trkpt>
      <trkpt lat="43.96" lon="7.41522">
        <ele>982</ele>
        <time>2024-07-09T07:15:18Z</time>
      </trkpt>
      <trkpt lat="43.96001" lon="7.41524">
        <ele>982.2</ele>
        <time>2024-07-09T07:15:19Z</time>
      </trkpt>
      <trkpt lat="43.96003" lon="7.41525">
        <ele>982.2</ele>
        <time>2024-07-09T07:15:20Z</time>
      </trkpt>
      <trkpt lat="43.96004" lon="7.41527">
        <ele>982.2</ele>
        <time>2024-07-09T07:15:21Z</time>
      </trkpt>
      <trkpt lat="43.96005" lon="7.41528">
        <ele>982.2</ele>
        <time>2024-07-09T07:15:22Z</time>
      </trkpt>
      <trkpt lat="43.96007" lon="7.4153">
        <ele>982.2</ele>
        <time>2024-07-09T07:15:23Z</time>
      </trkpt>
      <trkpt lat="43.96008" lon="7.41531">
        <ele>982.8</ele>
        <time>2024-07-09T07:15:24Z</time>
      </trkpt>
      <trkpt lat="43.9601" lon="7.41532">
        <ele>982.8</ele>
        <time>2024-07-09T07:15:25Z</time>
      </trkpt>
      <trkpt lat="43.96012" lon="7.41533">
        <ele>982.8</ele>
        <time>2024-07-09T07:15:26Z</time>
      </trkpt>
      <trkpt lat="43.96013" lon="7.41534">
        <ele>982.8</ele>
        <time>2024-07-09T07:15:27Z</time>
      </trkpt>
      <trkpt lat="43.96015" lon="7.41535">
        <ele>982.8</ele>
        <time>2024-07-09T07:15:28Z</time>
      </trkpt>
      <trkpt lat="43.96017" lon="7.41535">
        <ele>983.2</ele>
        <time>2024-07-09T07:15:29Z</time>
      </trkpt>
      <trkpt lat="43.96018" lon="7.41535">
        <ele>983.2</ele>
        <time>2024-07-09T07:15:30Z</time>
      </trkpt>
      <trkpt lat="43.9602" lon="7.41534">
        <ele>983.2</ele>
        <time>2024-07-09T07:15:31Z</time>
      </trkpt>
      <trkpt lat="43.96022" lon="7.41534">
        <ele>983.2</ele>
        <time>2024-07-09T07:15:32Z</time>
      </trkpt>
      <trkpt lat="43.96023" lon="7.41534">
        <ele>983.4</ele>
        <time>2024-07-09T07:15:33Z</time>
      </trkpt>
      <trkpt lat="43.96025" lon="7.41534">
        <ele>983.4</ele>
        <time>2024-07-09T07:15:34Z</time>
      </trkpt>
      <trkpt lat="43.96027" lon="7.41534">
        <ele>983.4</ele>
        <time>2024-07-09T07:15:35Z</time>
      </trkpt>
      <trkpt lat="43.96028" lon="7.41533">
        <ele>983.4</ele>
        <time>2024-07-09T07:15:36Z</time>
      </trkpt>
      <trkpt lat="43.9603" lon="7.41533">
        <ele>983.6</ele>
        <time>2024-07-09T07:15:37Z</time>
      </trkpt>
      <trkpt lat="43.96032" lon="7.41532">
        <ele>983.8</ele>
        <time>2024-07-09T07:15:38Z</time>
      </trkpt>
      <trkpt lat="43.96034" lon="7.41531">
        <ele>983.8</ele>
        <time>2024-07-09T07:15:39Z</time>
      </trkpt>
      <trkpt lat="43.96036" lon="7.4153">
        <ele>983.8</ele>
        <time>2024-07-09T07:15:40Z</time>
      </trkpt>
      <trkpt lat="43.96037" lon="7.41529">
        <ele>984.2</ele>
        <time>2024-07-09T07:15:41Z</time>
      </trkpt>
      <trkpt lat="43.96039" lon="7.41527">
        <ele>984.2</ele>
        <time>2024-07-09T07:15:42Z</time>
      </trkpt>
      <trkpt lat="43.9604" lon="7.41525">
        <ele>984.2</ele>
        <time>2024-07-09T07:15:43Z</time>
      </trkpt>
      <trkpt lat="43.96042" lon="7.41524">
        <ele>984.2</ele>
        <time>2024-07-09T07:15:44Z</time>
      </trkpt>
      <trkpt lat="43.96043" lon="7.41522">
        <ele>984.2</ele>
        <time>2024-07-09T07:15:45Z</time>
      </trkpt>
      <trkpt lat="43.96044" lon="7.4152">
        <ele>984.2</ele>
        <time>2024-07-09T07:15:46Z</time>
      </trkpt>
      <trkpt lat="43.96045" lon="7.41518">
        <ele>984.4</ele>
        <time>2024-07-09T07:15:47Z</time>
      </trkpt>
      <trkpt lat="43.96046" lon="7.41516">
        <ele>984.4</ele>
        <time>2024-07-09T07:15:48Z</time>
      </trkpt>
      <trkpt lat="43.96048" lon="7.41514">
        <ele>984.4</ele>
        <time>2024-07-09T07:15:49Z</time>
      </trkpt>
      <trkpt lat="43.96048" lon="7.41512">
        <ele>984.4</ele>
        <time>2024-07-09T07:15:50Z</time>
      </trkpt>
      <trkpt lat="43.96049" lon="7.4151">
        <ele>984.8</ele>
        <time>2024-07-09T07:15:51Z</time>
      </trkpt>
      <trkpt lat="43.9605" lon="7.41507">
        <ele>985</ele>
        <time>2024-07-09T07:15:52Z</time>
      </trkpt>
      <trkpt lat="43.96051" lon="7.41505">
        <ele>985</ele>
        <time>2024-07-09T07:15:53Z</time>
      </trkpt>
      <trkpt lat="43.96052" lon="7.41503">
        <ele>985</ele>
        <time>2024-07-09T07:15:54Z</time>
      </trkpt>
      <trkpt lat="43.96052" lon="7.41503">
        <ele>985</ele>
        <time>2024-07-09T07:15:55Z</time>
      </trkpt>
      <trkpt lat="43.96052" lon="7.41502">
        <ele>985</ele>
        <time>2024-07-09T07:15:56Z</time>
      </trkpt>
      <trkpt lat="43.96052" lon="7.41502">
        <ele>985.4</ele>
        <time>2024-07-09T07:15:57Z</time>
      </trkpt>
      <trkpt lat="43.96066" lon="7.41497">
        <ele>985.8</ele>
        <time>2024-07-09T07:16:44Z</time>
      </trkpt>
      <trkpt lat="43.96066" lon="7.41496">
        <ele>985.8</ele>
        <time>2024-07-09T07:16:45Z</time>
      </trkpt>
      <trkpt lat="43.96067" lon="7.41494">
        <ele>986.2</ele>
        <time>2024-07-09T07:16:46Z</time>
      </trkpt>
      <trkpt lat="43.96066" lon="7.41492">
        <ele>986.2</ele>
        <time>2024-07-09T07:16:47Z</time>
      </trkpt>
      <trkpt lat="43.96066" lon="7.4149">
        <ele>986.2</ele>
        <time>2024-07-09T07:16:48Z</time>
      </trkpt>
      <trkpt lat="43.96066" lon="7.41488">
        <ele>986.4</ele>
        <time>2024-07-09T07:16:49Z</time>
      </trkpt>
      <trkpt lat="43.96067" lon="7.41486">
        <ele>986.8</ele>
        <time>2024-07-09T07:16:50Z</time>
      </trkpt>
      <trkpt lat="43.96067" lon="7.41484">
        <ele>986.8</ele>
        <time>2024-07-09T07:16:51Z</time>
      </trkpt>
      <trkpt lat="43.96068" lon="7.41483">
        <ele>986.8</ele>
        <time>2024-07-09T07:16:52Z</time>
      </trkpt>
      <trkpt lat="43.96069" lon="7.41481">
        <ele>986.8</ele>
        <time>2024-07-09T07:16:53Z</time>
      </trkpt>
      <trkpt lat="43.9607" lon="7.4148">
        <ele>987</ele>
        <time>2024-07-09T07:16:54Z</time>
      </trkpt>
      <trkpt lat="43.96071" lon="7.41478">
        <ele>987.2</ele>
        <time>2024-07-09T07:16:55Z</time>
      </trkpt>
      <trkpt lat="43.96072" lon="7.41476">
        <ele>987.2</ele>
        <time>2024-07-09T07:16:56Z</time>
      </trkpt>
      <trkpt lat="43.96073" lon="7.41475">
        <ele>987.2</ele>
        <time>2024-07-09T07:16:57Z</time>
      </trkpt>
      <trkpt lat="43.96074" lon="7.41474">
        <ele>987.6</ele>
        <time>2024-07-09T07:16:58Z</time>
      </trkpt>
      <trkpt lat="43.96076" lon="7.41473">
        <ele>987.8</ele>
        <time>2024-07-09T07:16:59Z</time>
      </trkpt>
      <trkpt lat="43.96077" lon="7.41472">
        <ele>987.8</ele>
        <time>2024-07-09T07:17:00Z</time>
      </trkpt>
      <trkpt lat="43.96078" lon="7.41471">
        <ele>987.8</ele>
        <time>2024-07-09T07:17:01Z</time>
      </trkpt>
      <trkpt lat="43.9608" lon="7.4147">
        <ele>987.8</ele>
        <time>2024-07-09T07:17:02Z</time>
      </trkpt>
      <trkpt lat="43.96082" lon="7.41469">
        <ele>987.8</ele>
        <time>2024-07-09T07:17:03Z</time>
      </trkpt>
      <trkpt lat="43.96084" lon="7.41468">
        <ele>988</ele>
        <time>2024-07-09T07:17:04Z</time>
      </trkpt>
      <trkpt lat="43.96085" lon="7.41468">
        <ele>988</ele>
        <time>2024-07-09T07:17:05Z</time>
      </trkpt>
      <trkpt lat="43.96087" lon="7.41467">
        <ele>988</ele>
        <time>2024-07-09T07:17:06Z</time>
      </trkpt>
      <trkpt lat="43.96088" lon="7.41466">
        <ele>988.6</ele>
        <time>2024-07-09T07:17:07Z</time>
      </trkpt>
      <trkpt lat="43.9609" lon="7.41465">
        <ele>988.6</ele>
        <time>2024-07-09T07:17:08Z</time>
      </trkpt>
      <trkpt lat="43.96091" lon="7.41465">
        <ele>988.8</ele>
        <time>2024-07-09T07:17:09Z</time>
      </trkpt>
      <trkpt lat="43.96093" lon="7.41464">
        <ele>988.8</ele>
        <time>2024-07-09T07:17:10Z</time>
      </trkpt>
      <trkpt lat="43.96094" lon="7.41464">
        <ele>988.8</ele>
        <time>2024-07-09T07:17:11Z</time>
      </trkpt>
      <trkpt lat="43.96096" lon="7.41463">
        <ele>988.8</ele>
        <time>2024-07-09T07:17:12Z</time>
      </trkpt>
      <trkpt lat="43.96097" lon="7.41463">
        <ele>989.2</ele>
        <time>2024-07-09T07:17:13Z</time>
      </trkpt>
      <trkpt lat="43.96098" lon="7.41463">
        <ele>989.2</ele>
        <time>2024-07-09T07:17:14Z</time>
      </trkpt>
      <trkpt lat="43.96099" lon="7.41463">
        <ele>989.2</ele>
        <time>2024-07-09T07:17:15Z</time>
      </trkpt>
      <trkpt lat="43.96101" lon="7.41463">
        <ele>989.2</ele>
        <time>2024-07-09T07:17:16Z</time>
      </trkpt>
      <trkpt lat="43.96101" lon="7.41464">
        <ele>989.6</ele>
        <time>2024-07-09T07:17:17Z</time>
      </trkpt>
      <trkpt lat="43.96103" lon="7.41464">
        <ele>989.8</ele>
        <time>2024-07-09T07:17:18Z</time>
      </trkpt>
      <trkpt lat="43.96104" lon="7.41464">
        <ele>989.8</ele>
        <time>2024-07-09T07:17:19Z</time>
      </trkpt>
      <trkpt lat="43.96106" lon="7.41464">
        <ele>989.8</ele>
        <time>2024-07-09T07:17:20Z</time>
      </trkpt>
      <trkpt lat="43.96107" lon="7.41465">
        <ele>990</ele>
        <time>2024-07-09T07:17:21Z</time>
      </trkpt>
      <trkpt lat="43.96109" lon="7.41466">
        <ele>990.2</ele>
        <time>2024-07-09T07:17:22Z</time>
      </trkpt>
      <trkpt lat="43.96111" lon="7.41466">
        <ele>990.2</ele>
        <time>2024-07-09T07:17:23Z</time>
      </trkpt>
      <trkpt lat="43.96112" lon="7.41466">
        <ele>990.2</ele>
        <time>2024-07-09T07:17:24Z</time>
      </trkpt>
      <trkpt lat="43.96114" lon="7.41467">
        <ele>990.6</ele>
        <time>2024-07-09T07:17:25Z</time>
      </trkpt>
      <trkpt lat="43.96116" lon="7.41466">
        <ele>990.6</ele>
        <time>2024-07-09T07:17:26Z</time>
      </trkpt>
      <trkpt lat="43.96118" lon="7.41466">
        <ele>990.6</ele>
        <time>2024-07-09T07:17:27Z</time>
      </trkpt>
      <trkpt lat="43.96119" lon="7.41464">
        <ele>990.6</ele>
        <time>2024-07-09T07:17:28Z</time>
      </trkpt>
      <trkpt lat="43.96121" lon="7.41462">
        <ele>990.6</ele>
        <time>2024-07-09T07:17:29Z</time>
      </trkpt>
      <trkpt lat="43.96123" lon="7.41461">
        <ele>991.2</ele>
        <time>2024-07-09T07:17:30Z</time>
      </trkpt>
      <trkpt lat="43.96124" lon="7.41459">
        <ele>991.2</ele>
        <time>2024-07-09T07:17:31Z</time>
      </trkpt>
      <trkpt lat="43.96126" lon="7.41458">
        <ele>991.2</ele>
        <time>2024-07-09T07:17:32Z</time>
      </trkpt>
      <trkpt lat="43.96127" lon="7.41456">
        <ele>991.2</ele>
        <time>2024-07-09T07:17:33Z</time>
      </trkpt>
      <trkpt lat="43.96129" lon="7.41454">
        <ele>991.4</ele>
        <time>2024-07-09T07:17:34Z</time>
      </trkpt>
      <trkpt lat="43.96131" lon="7.41453">
        <ele>991.6</ele>
        <time>2024-07-09T07:17:35Z</time>
      </trkpt>
      <trkpt lat="43.96132" lon="7.41451">
        <ele>991.6</ele>
        <time>2024-07-09T07:17:36Z</time>
      </trkpt>
      <trkpt lat="43.96134" lon="7.41449">
        <ele>991.6</ele>
        <time>2024-07-09T07:17:37Z</time>
      </trkpt>
      <trkpt lat="43.96135" lon="7.41446">
        <ele>991.6</ele>
        <time>2024-07-09T07:17:38Z</time>
      </trkpt>
      <trkpt lat="43.96135" lon="7.41444">
        <ele>991.6</ele>
        <time>2024-07-09T07:17:39Z</time>
      </trkpt>
      <trkpt lat="43.96138" lon="7.41442">
        <ele>991.6</ele>
        <time>2024-07-09T07:17:40Z</time>
      </trkpt>
      <trkpt lat="43.96139" lon="7.4144">
        <ele>991.6</ele>
        <time>2024-07-09T07:17:41Z</time>
      </trkpt>
      <trkpt lat="43.9614" lon="7.41438">
        <ele>992.6</ele>
        <time>2024-07-09T07:17:42Z</time>
      </trkpt>
      <trkpt lat="43.96142" lon="7.41436">
        <ele>992.6</ele>
        <time>2024-07-09T07:17:43Z</time>
      </trkpt>
      <trkpt lat="43.96143" lon="7.41435">
        <ele>992.6</ele>
        <time>2024-07-09T07:17:44Z</time>
      </trkpt>
      <trkpt lat="43.96145" lon="7.41433">
        <ele>992.6</ele>
        <time>2024-07-09T07:17:45Z</time>
      </trkpt>
      <trkpt lat="43.96146" lon="7.41431">
        <ele>992.6</ele>
        <time>2024-07-09T07:17:46Z</time>
      </trkpt>
      <trkpt lat="43.96148" lon="7.41429">
        <ele>992.8</ele>
        <time>2024-07-09T07:17:47Z</time>
      </trkpt>
      <trkpt lat="43.96149" lon="7.41427">
        <ele>992.8</ele>
        <time>2024-07-09T07:17:48Z</time>
      </trkpt>
      <trkpt lat="43.96151" lon="7.41425">
        <ele>992.8</ele>
        <time>2024-07-09T07:17:49Z</time>
      </trkpt>
      <trkpt lat="43.96153" lon="7.41423">
        <ele>992.8</ele>
        <time>2024-07-09T07:17:50Z</time>
      </trkpt>
      <trkpt lat="43.96154" lon="7.41421">
        <ele>992.8</ele>
        <time>2024-07-09T07:17:51Z</time>
      </trkpt>
      <trkpt lat="43.96156" lon="7.4142">
        <ele>993.2</ele>
        <time>2024-07-09T07:17:52Z</time>
      </trkpt>
      <trkpt lat="43.96157" lon="7.41419">
        <ele>993.6</ele>
        <time>2024-07-09T07:17:53Z</time>
      </trkpt>
      <trkpt lat="43.96159" lon="7.41418">
        <ele>993.6</ele>
        <time>2024-07-09T07:17:54Z</time>
      </trkpt>
      <trkpt lat="43.96162" lon="7.41417">
        <ele>993.6</ele>
        <time>2024-07-09T07:17:55Z</time>
      </trkpt>
      <trkpt lat="43.96164" lon="7.41417">
        <ele>993.6</ele>
        <time>2024-07-09T07:17:56Z</time>
      </trkpt>
      <trkpt lat="43.96166" lon="7.41417">
        <ele>993.6</ele>
        <time>2024-07-09T07:17:57Z</time>
      </trkpt>
      <trkpt lat="43.96168" lon="7.41417">
        <ele>993.8</ele>
        <time>2024-07-09T07:17:58Z</time>
      </trkpt>
      <trkpt lat="43.9617" lon="7.41418">
        <ele>993.8</ele>
        <time>2024-07-09T07:17:59Z</time>
      </trkpt>
      <trkpt lat="43.96172" lon="7.41418">
        <ele>993.8</ele>
        <time>2024-07-09T07:18:00Z</time>
      </trkpt>
      <trkpt lat="43.96173" lon="7.41419">
        <ele>994.4</ele>
        <time>2024-07-09T07:18:01Z</time>
      </trkpt>
      <trkpt lat="43.96175" lon="7.41419">
        <ele>994.4</ele>
        <time>2024-07-09T07:18:02Z</time>
      </trkpt>
      <trkpt lat="43.96176" lon="7.4142">
        <ele>994.4</ele>
        <time>2024-07-09T07:18:03Z</time>
      </trkpt>
      <trkpt lat="43.96178" lon="7.41421">
        <ele>994.4</ele>
        <time>2024-07-09T07:18:04Z</time>
      </trkpt>
      <trkpt lat="43.9618" lon="7.41422">
        <ele>994.4</ele>
        <time>2024-07-09T07:18:05Z</time>
      </trkpt>
      <trkpt lat="43.96182" lon="7.41423">
        <ele>994.8</ele>
        <time>2024-07-09T07:18:06Z</time>
      </trkpt>
      <trkpt lat="43.96183" lon="7.41424">
        <ele>995</ele>
        <time>2024-07-09T07:18:07Z</time>
      </trkpt>
      <trkpt lat="43.96185" lon="7.41425">
        <ele>995</ele>
        <time>2024-07-09T07:18:08Z</time>
      </trkpt>
      <trkpt lat="43.96187" lon="7.41426">
        <ele>995</ele>
        <time>2024-07-09T07:18:09Z</time>
      </trkpt>
      <trkpt lat="43.96189" lon="7.41427">
        <ele>995.4</ele>
        <time>2024-07-09T07:18:10Z</time>
      </trkpt>
      <trkpt lat="43.96191" lon="7.41428">
        <ele>995.6</ele>
        <time>2024-07-09T07:18:11Z</time>
      </trkpt>
      <trkpt lat="43.96193" lon="7.41429">
        <ele>995.6</ele>
        <time>2024-07-09T07:18:12Z</time>
      </trkpt>
      <trkpt lat="43.96195" lon="7.4143">
        <ele>995.6</ele>
        <time>2024-07-09T07:18:13Z</time>
      </trkpt>
      <trkpt lat="43.96197" lon="7.4143">
        <ele>995.8</ele>
        <time>2024-07-09T07:18:14Z</time>
      </trkpt>
      <trkpt lat="43.96198" lon="7.41431">
        <ele>995.8</ele>
        <time>2024-07-09T07:18:15Z</time>
      </trkpt>
      <trkpt lat="43.962" lon="7.41432">
        <ele>995.8</ele>
        <time>2024-07-09T07:18:16Z</time>
      </trkpt>
      <trkpt lat="43.96202" lon="7.41432">
        <ele>995.8</ele>
        <time>2024-07-09T07:18:17Z</time>
      </trkpt>
      <trkpt lat="43.96204" lon="7.41433">
        <ele>995.8</ele>
        <time>2024-07-09T07:18:18Z</time>
      </trkpt>
      <trkpt lat="43.96206" lon="7.41434">
        <ele>996.2</ele>
        <time>2024-07-09T07:18:19Z</time>
      </trkpt>
      <trkpt lat="43.96207" lon="7.41435">
        <ele>996.2</ele>
        <time>2024-07-09T07:18:20Z</time>
      </trkpt>
      <trkpt lat="43.96209" lon="7.41435">
        <ele>996.2</ele>
        <time>2024-07-09T07:18:21Z</time>
      </trkpt>
      <trkpt lat="43.96211" lon="7.41436">
        <ele>996.2</ele>
        <time>2024-07-09T07:18:22Z</time>
      </trkpt>
      <trkpt lat="43.96213" lon="7.41436">
        <ele>996.2</ele>
        <time>2024-07-09T07:18:23Z</time>
      </trkpt>
      <trkpt lat="43.96215" lon="7.41437">
        <ele>996.8</ele>
        <time>2024-07-09T07:18:24Z</time>
      </trkpt>
      <trkpt lat="43.96217" lon="7.41437">
        <ele>996.8</ele>
        <time>2024-07-09T07:18:25Z</time>
      </trkpt>
      <trkpt lat="43.96219" lon="7.41438">
        <ele>996.8</ele>
        <time>2024-07-09T07:18:26Z</time>
      </trkpt>
      <trkpt lat="43.96221" lon="7.41438">
        <ele>997.2</ele>
        <time>2024-07-09T07:18:27Z</time>
      </trkpt>
      <trkpt lat="43.96223" lon="7.41438">
        <ele>997.4</ele>
        <time>2024-07-09T07:18:28Z</time>
      </trkpt>
      <trkpt lat="43.96225" lon="7.41438">
        <ele>997.4</ele>
        <time>2024-07-09T07:18:29Z</time>
      </trkpt>
      <trkpt lat="43.96226" lon="7.41439">
        <ele>997.4</ele>
        <time>2024-07-09T07:18:30Z</time>
      </trkpt>
      <trkpt lat="43.96228" lon="7.41438">
        <ele>997.4</ele>
        <time>2024-07-09T07:18:31Z</time>
      </trkpt>
      <trkpt lat="43.96229" lon="7.41439">
        <ele>997.4</ele>
        <time>2024-07-09T07:18:32Z</time>
      </trkpt>
      <trkpt lat="43.96231" lon="7.4144">
        <ele>997.4</ele>
        <time>2024-07-09T07:18:33Z</time>
      </trkpt>
      <trkpt lat="43.96233" lon="7.4144">
        <ele>997.8</ele>
        <time>2024-07-09T07:18:34Z</time>
      </trkpt>
      <trkpt lat="43.96235" lon="7.41441">
        <ele>997.8</ele>
        <time>2024-07-09T07:18:35Z</time>
      </trkpt>
      <trkpt lat="43.96237" lon="7.41441">
        <ele>997.8</ele>
        <time>2024-07-09T07:18:36Z</time>
      </trkpt>
      <trkpt lat="43.96239" lon="7.41441">
        <ele>998.4</ele>
        <time>2024-07-09T07:18:37Z</time>
      </trkpt>
      <trkpt lat="43.96241" lon="7.41442">
        <ele>998.6</ele>
        <time>2024-07-09T07:18:38Z</time>
      </trkpt>
      <trkpt lat="43.96242" lon="7.41444">
        <ele>998.6</ele>
        <time>2024-07-09T07:18:39Z</time>
      </trkpt>
      <trkpt lat="43.96244" lon="7.41446">
        <ele>998.6</ele>
        <time>2024-07-09T07:18:40Z</time>
      </trkpt>
      <trkpt lat="43.96246" lon="7.41446">
        <ele>999.2</ele>
        <time>2024-07-09T07:18:41Z</time>
      </trkpt>
      <trkpt lat="43.96248" lon="7.41448">
        <ele>999.2</ele>
        <time>2024-07-09T07:18:42Z</time>
      </trkpt>
      <trkpt lat="43.96249" lon="7.41449">
        <ele>999.2</ele>
        <time>2024-07-09T07:18:43Z</time>
      </trkpt>
      <trkpt lat="43.96251" lon="7.4145">
        <ele>999.2</ele>
        <time>2024-07-09T07:18:44Z</time>
      </trkpt>
      <trkpt lat="43.96252" lon="7.41451">
        <ele>999.2</ele>
        <time>2024-07-09T07:18:45Z</time>
      </trkpt>
      <trkpt lat="43.96253" lon="7.41451">
        <ele>999.6</ele>
        <time>2024-07-09T07:18:46Z</time>
      </trkpt>
      <trkpt lat="43.96253" lon="7.41451">
        <ele>999.6</ele>
        <time>2024-07-09T07:18:47Z</time>
      </trkpt>
      <trkpt lat="43.96254" lon="7.41451">
        <ele>999.6</ele>
        <time>2024-07-09T07:18:48Z</time>
      </trkpt>
      <trkpt lat="43.96256" lon="7.41452">
        <ele>999.6</ele>
        <time>2024-07-09T07:18:49Z</time>
      </trkpt>
      <trkpt lat="43.96258" lon="7.41453">
        <ele>1000.4</ele>
        <time>2024-07-09T07:18:50Z</time>
      </trkpt>
      <trkpt lat="43.9626" lon="7.41455">
        <ele>1000.4</ele>
        <time>2024-07-09T07:18:51Z</time>
      </trkpt>
      <trkpt lat="43.96262" lon="7.41456">
        <ele>1000.4</ele>
        <time>2024-07-09T07:18:52Z</time>
      </trkpt>
      <trkpt lat="43.96263" lon="7.41456">
        <ele>1000.4</ele>
        <time>2024-07-09T07:18:53Z</time>
      </trkpt>
      <trkpt lat="43.96265" lon="7.41456">
        <ele>1000.8</ele>
        <time>2024-07-09T07:18:54Z</time>
      </trkpt>
      <trkpt lat="43.96267" lon="7.41457">
        <ele>1000.8</ele>
        <time>2024-07-09T07:18:55Z</time>
      </trkpt>
      <trkpt lat="43.96269" lon="7.41457">
        <ele>1001.2</ele>
        <time>2024-07-09T07:18:56Z</time>
      </trkpt>
      <trkpt lat="43.96271" lon="7.41459">
        <ele>1001.2</ele>
        <time>2024-07-09T07:18:57Z</time>
      </trkpt>
      <trkpt lat="43.96274" lon="7.4146">
        <ele>1001.2</ele>
        <time>2024-07-09T07:18:58Z</time>
      </trkpt>
      <trkpt lat="43.96276" lon="7.41461">
        <ele>1001.6</ele>
        <time>2024-07-09T07:18:59Z</time>
      </trkpt>
      <trkpt lat="43.96278" lon="7.41462">
        <ele>1001.6</ele>
        <time>2024-07-09T07:19:00Z</time>
      </trkpt>
      <trkpt lat="43.9628" lon="7.41462">
        <ele>1001.6</ele>
        <time>2024-07-09T07:19:01Z</time>
      </trkpt>
      <trkpt lat="43.96282" lon="7.41462">
        <ele>1001.6</ele>
        <time>2024-07-09T07:19:02Z</time>
      </trkpt>
      <trkpt lat="43.96284" lon="7.41462">
        <ele>1002.2</ele>
        <time>2024-07-09T07:19:03Z</time>
      </trkpt>
      <trkpt lat="43.96285" lon="7.41462">
        <ele>1002.2</ele>
        <time>2024-07-09T07:19:04Z</time>
      </trkpt>
      <trkpt lat="43.96288" lon="7.41462">
        <ele>1002.4</ele>
        <time>2024-07-09T07:19:05Z</time>
      </trkpt>
      <trkpt lat="43.9629" lon="7.41462">
        <ele>1002.4</ele>
        <time>2024-07-09T07:19:06Z</time>
      </trkpt>
      <trkpt lat="43.96292" lon="7.41462">
        <ele>1002.4</ele>
        <time>2024-07-09T07:19:07Z</time>
      </trkpt>
      <trkpt lat="43.96294" lon="7.41462">
        <ele>1002.8</ele>
        <time>2024-07-09T07:19:08Z</time>
      </trkpt>
      <trkpt lat="43.96296" lon="7.41463">
        <ele>1003</ele>
        <time>2024-07-09T07:19:09Z</time>
      </trkpt>
      <trkpt lat="43.96298" lon="7.41464">
        <ele>1003</ele>
        <time>2024-07-09T07:19:10Z</time>
      </trkpt>
      <trkpt lat="43.963" lon="7.41464">
        <ele>1003</ele>
        <time>2024-07-09T07:19:11Z</time>
      </trkpt>
      <trkpt lat="43.96301" lon="7.41465">
        <ele>1003</ele>
        <time>2024-07-09T07:19:12Z</time>
      </trkpt>
      <trkpt lat="43.96303" lon="7.41464">
        <ele>1003.2</ele>
        <time>2024-07-09T07:19:13Z</time>
      </trkpt>
      <trkpt lat="43.96305" lon="7.41464">
        <ele>1003.2</ele>
        <time>2024-07-09T07:19:14Z</time>
      </trkpt>
      <trkpt lat="43.96306" lon="7.41463">
        <ele>1003.2</ele>
        <time>2024-07-09T07:19:15Z</time>
      </trkpt>
      <trkpt lat="43.96308" lon="7.41464">
        <ele>1003.2</ele>
        <time>2024-07-09T07:19:16Z</time>
      </trkpt>
      <trkpt lat="43.9631" lon="7.41464">
        <ele>1003.2</ele>
        <time>2024-07-09T07:19:17Z</time>
      </trkpt>
      <trkpt lat="43.96311" lon="7.41465">
        <ele>1003.8</ele>
        <time>2024-07-09T07:19:18Z</time>
      </trkpt>
      <trkpt lat="43.96313" lon="7.41465">
        <ele>1004</ele>
        <time>2024-07-09T07:19:19Z</time>
      </trkpt>
      <trkpt lat="43.96315" lon="7.41467">
        <ele>1004</ele>
        <time>2024-07-09T07:19:20Z</time>
      </trkpt>
      <trkpt lat="43.96317" lon="7.41468">
        <ele>1004</ele>
        <time>2024-07-09T07:19:21Z</time>
      </trkpt>
      <trkpt lat="43.96318" lon="7.41469">
        <ele>1004.6</ele>
        <time>2024-07-09T07:19:22Z</time>
      </trkpt>
      <trkpt lat="43.9632" lon="7.4147">
        <ele>1004.6</ele>
        <time>2024-07-09T07:19:23Z</time>
      </trkpt>
      <trkpt lat="43.96322" lon="7.41471">
        <ele>1004.6</ele>
        <time>2024-07-09T07:19:24Z</time>
      </trkpt>
      <trkpt lat="43.96324" lon="7.4147">
        <ele>1004.6</ele>
        <time>2024-07-09T07:19:25Z</time>
      </trkpt>
      <trkpt lat="43.96326" lon="7.4147">
        <ele>1005</ele>
        <time>2024-07-09T07:19:26Z</time>
      </trkpt>
      <trkpt lat="43.96329" lon="7.41469">
        <ele>1005</ele>
        <time>2024-07-09T07:19:27Z</time>
      </trkpt>
      <trkpt lat="43.96331" lon="7.41469">
        <ele>1005.4</ele>
        <time>2024-07-09T07:19:28Z</time>
      </trkpt>
      <trkpt lat="43.96334" lon="7.41469">
        <ele>1005.4</ele>
        <time>2024-07-09T07:19:29Z</time>
      </trkpt>
      <trkpt lat="43.96336" lon="7.4147">
        <ele>1005.4</ele>
        <time>2024-07-09T07:19:30Z</time>
      </trkpt>
      <trkpt lat="43.96337" lon="7.4147">
        <ele>1005.6</ele>
        <time>2024-07-09T07:19:31Z</time>
      </trkpt>
      <trkpt lat="43.96339" lon="7.41471">
        <ele>1005.8</ele>
        <time>2024-07-09T07:19:32Z</time>
      </trkpt>
      <trkpt lat="43.96341" lon="7.41472">
        <ele>1005.8</ele>
        <time>2024-07-09T07:19:33Z</time>
      </trkpt>
      <trkpt lat="43.96343" lon="7.41471">
        <ele>1005.8</ele>
        <time>2024-07-09T07:19:34Z</time>
      </trkpt>
      <trkpt lat="43.96345" lon="7.41469">
        <ele>1006.2</ele>
        <time>2024-07-09T07:19:35Z</time>
      </trkpt>
      <trkpt lat="43.96348" lon="7.41469">
        <ele>1006.4</ele>
        <time>2024-07-09T07:19:36Z</time>
      </trkpt>
      <trkpt lat="43.9635" lon="7.41469">
        <ele>1006.4</ele>
        <time>2024-07-09T07:19:37Z</time>
      </trkpt>
      <trkpt lat="43.96351" lon="7.41469">
        <ele>1006.4</ele>
        <time>2024-07-09T07:19:38Z</time>
      </trkpt>
      <trkpt lat="43.96353" lon="7.41467">
        <ele>1006.4</ele>
        <time>2024-07-09T07:19:39Z</time>
      </trkpt>
      <trkpt lat="43.96355" lon="7.41466">
        <ele>1006.8</ele>
        <time>2024-07-09T07:19:40Z</time>
      </trkpt>
      <trkpt lat="43.96357" lon="7.41464">
        <ele>1006.8</ele>
        <time>2024-07-09T07:19:41Z</time>
      </trkpt>
      <trkpt lat="43.96359" lon="7.41463">
        <ele>1006.8</ele>
        <time>2024-07-09T07:19:42Z</time>
      </trkpt>
      <trkpt lat="43.96361" lon="7.41461">
        <ele>1006.8</ele>
        <time>2024-07-09T07:19:43Z</time>
      </trkpt>
      <trkpt lat="43.96362" lon="7.41459">
        <ele>1007.4</ele>
        <time>2024-07-09T07:19:44Z</time>
      </trkpt>
      <trkpt lat="43.96364" lon="7.41458">
        <ele>1007.6</ele>
        <time>2024-07-09T07:19:45Z</time>
      </trkpt>
      <trkpt lat="43.96365" lon="7.41456">
        <ele>1007.6</ele>
        <time>2024-07-09T07:19:46Z</time>
      </trkpt>
      <trkpt lat="43.96367" lon="7.41455">
        <ele>1007.6</ele>
        <time>2024-07-09T07:19:47Z</time>
      </trkpt>
      <trkpt lat="43.96369" lon="7.41454">
        <ele>1007.8</ele>
        <time>2024-07-09T07:19:48Z</time>
      </trkpt>
      <trkpt lat="43.96372" lon="7.41453">
        <ele>1007.8</ele>
        <time>2024-07-09T07:19:49Z</time>
      </trkpt>
      <trkpt lat="43.96374" lon="7.41452">
        <ele>1008</ele>
        <time>2024-07-09T07:19:50Z</time>
      </trkpt>
      <trkpt lat="43.96376" lon="7.41452">
        <ele>1008</ele>
        <time>2024-07-09T07:19:51Z</time>
      </trkpt>
      <trkpt lat="43.96378" lon="7.41451">
        <ele>1008</ele>
        <time>2024-07-09T07:19:52Z</time>
      </trkpt>
      <trkpt lat="43.9638" lon="7.41451">
        <ele>1008.4</ele>
        <time>2024-07-09T07:19:53Z</time>
      </trkpt>
      <trkpt lat="43.96382" lon="7.41451">
        <ele>1008.6</ele>
        <time>2024-07-09T07:19:54Z</time>
      </trkpt>
      <trkpt lat="43.96383" lon="7.41451">
        <ele>1008.6</ele>
        <time>2024-07-09T07:19:55Z</time>
      </trkpt>
      <trkpt lat="43.96385" lon="7.41451">
        <ele>1008.6</ele>
        <time>2024-07-09T07:19:56Z</time>
      </trkpt>
      <trkpt lat="43.96387" lon="7.41451">
        <ele>1008.6</ele>
        <time>2024-07-09T07:19:57Z</time>
      </trkpt>
      <trkpt lat="43.96389" lon="7.41452">
        <ele>1008.6</ele>
        <time>2024-07-09T07:19:58Z</time>
      </trkpt>
      <trkpt lat="43.96391" lon="7.41452">
        <ele>1009.2</ele>
        <time>2024-07-09T07:19:59Z</time>
      </trkpt>
      <trkpt lat="43.96393" lon="7.41453">
        <ele>1009.2</ele>
        <time>2024-07-09T07:20:00Z</time>
      </trkpt>
      <trkpt lat="43.96396" lon="7.41453">
        <ele>1009.2</ele>
        <time>2024-07-09T07:20:01Z</time>
      </trkpt>
      <trkpt lat="43.96398" lon="7.41453">
        <ele>1009.2</ele>
        <time>2024-07-09T07:20:02Z</time>
      </trkpt>
      <trkpt lat="43.964" lon="7.41453">
        <ele>1009.6</ele>
        <time>2024-07-09T07:20:03Z</time>
      </trkpt>
      <trkpt lat="43.96401" lon="7.41453">
        <ele>1009.6</ele>
        <time>2024-07-09T07:20:04Z</time>
      </trkpt>
      <trkpt lat="43.96403" lon="7.41453">
        <ele>1009.6</ele>
        <time>2024-07-09T07:20:05Z</time>
      </trkpt>
      <trkpt lat="43.96406" lon="7.41451">
        <ele>1009.6</ele>
        <time>2024-07-09T07:20:06Z</time>
      </trkpt>
      <trkpt lat="43.96408" lon="7.41451">
        <ele>1010.2</ele>
        <time>2024-07-09T07:20:07Z</time>
      </trkpt>
      <trkpt lat="43.9641" lon="7.41452">
        <ele>1010</ele>
        <time>2024-07-09T07:20:08Z</time>
      </trkpt>
      <trkpt lat="43.96413" lon="7.41452">
        <ele>1010</ele>
        <time>2024-07-09T07:20:09Z</time>
      </trkpt>
      <trkpt lat="43.96415" lon="7.41452">
        <ele>1010</ele>
        <time>2024-07-09T07:20:10Z</time>
      </trkpt>
      <trkpt lat="43.96417" lon="7.41452">
        <ele>1010</ele>
        <time>2024-07-09T07:20:11Z</time>
      </trkpt>
      <trkpt lat="43.96419" lon="7.41453">
        <ele>1010.6</ele>
        <time>2024-07-09T07:20:12Z</time>
      </trkpt>
      <trkpt lat="43.96421" lon="7.41453">
        <ele>1010.8</ele>
        <time>2024-07-09T07:20:13Z</time>
      </trkpt>
      <trkpt lat="43.96423" lon="7.41451">
        <ele>1010.8</ele>
        <time>2024-07-09T07:20:14Z</time>
      </trkpt>
      <trkpt lat="43.96426" lon="7.41449">
        <ele>1010.8</ele>
        <time>2024-07-09T07:20:15Z</time>
      </trkpt>
      <trkpt lat="43.96429" lon="7.41449">
        <ele>1011.2</ele>
        <time>2024-07-09T07:20:16Z</time>
      </trkpt>
      <trkpt lat="43.96432" lon="7.4145">
        <ele>1011.2</ele>
        <time>2024-07-09T07:20:17Z</time>
      </trkpt>
      <trkpt lat="43.96434" lon="7.41451">
        <ele>1011.2</ele>
        <time>2024-07-09T07:20:18Z</time>
      </trkpt>
      <trkpt lat="43.96436" lon="7.41452">
        <ele>1011.2</ele>
        <time>2024-07-09T07:20:19Z</time>
      </trkpt>
      <trkpt lat="43.96438" lon="7.41453">
        <ele>1011.8</ele>
        <time>2024-07-09T07:20:20Z</time>
      </trkpt>
      <trkpt lat="43.96439" lon="7.41454">
        <ele>1011.8</ele>
        <time>2024-07-09T07:20:21Z</time>
      </trkpt>
      <trkpt lat="43.96441" lon="7.41454">
        <ele>1012</ele>
        <time>2024-07-09T07:20:22Z</time>
      </trkpt>
      <trkpt lat="43.96444" lon="7.41455">
        <ele>1012</ele>
        <time>2024-07-09T07:20:23Z</time>
      </trkpt>
      <trkpt lat="43.96446" lon="7.41456">
        <ele>1012</ele>
        <time>2024-07-09T07:20:24Z</time>
      </trkpt>
      <trkpt lat="43.96448" lon="7.41456">
        <ele>1012.4</ele>
        <time>2024-07-09T07:20:25Z</time>
      </trkpt>
      <trkpt lat="43.96449" lon="7.41457">
        <ele>1012.4</ele>
        <time>2024-07-09T07:20:26Z</time>
      </trkpt>
      <trkpt lat="43.96451" lon="7.41458">
        <ele>1012.4</ele>
        <time>2024-07-09T07:20:27Z</time>
      </trkpt>
      <trkpt lat="43.96454" lon="7.41459">
        <ele>1012.4</ele>
        <time>2024-07-09T07:20:28Z</time>
      </trkpt>
      <trkpt lat="43.96456" lon="7.41459">
        <ele>1012.8</ele>
        <time>2024-07-09T07:20:29Z</time>
      </trkpt>
      <trkpt lat="43.96457" lon="7.41459">
        <ele>1013.2</ele>
        <time>2024-07-09T07:20:30Z</time>
      </trkpt>
      <trkpt lat="43.96459" lon="7.41459">
        <ele>1013.2</ele>
        <time>2024-07-09T07:20:31Z</time>
      </trkpt>
      <trkpt lat="43.96461" lon="7.4146">
        <ele>1013.2</ele>
        <time>2024-07-09T07:20:32Z</time>
      </trkpt>
      <trkpt lat="43.96463" lon="7.41462">
        <ele>1013.2</ele>
        <time>2024-07-09T07:20:33Z</time>
      </trkpt>
      <trkpt lat="43.96464" lon="7.41463">
        <ele>1013.8</ele>
        <time>2024-07-09T07:20:34Z</time>
      </trkpt>
      <trkpt lat="43.96465" lon="7.41463">
        <ele>1013.8</ele>
        <time>2024-07-09T07:20:35Z</time>
      </trkpt>
      <trkpt lat="43.96467" lon="7.41463">
        <ele>1013.8</ele>
        <time>2024-07-09T07:20:36Z</time>
      </trkpt>
      <trkpt lat="43.96468" lon="7.41463">
        <ele>1013.8</ele>
        <time>2024-07-09T07:20:37Z</time>
      </trkpt>
      <trkpt lat="43.9647" lon="7.41464">
        <ele>1014</ele>
        <time>2024-07-09T07:20:38Z</time>
      </trkpt>
      <trkpt lat="43.96472" lon="7.41466">
        <ele>1014</ele>
        <time>2024-07-09T07:20:39Z</time>
      </trkpt>
      <trkpt lat="43.96473" lon="7.41467">
        <ele>1014</ele>
        <time>2024-07-09T07:20:40Z</time>
      </trkpt>
      <trkpt lat="43.96475" lon="7.41467">
        <ele>1014</ele>
        <time>2024-07-09T07:20:41Z</time>
      </trkpt>
      <trkpt lat="43.96477" lon="7.41467">
        <ele>1014</ele>
        <time>2024-07-09T07:20:42Z</time>
      </trkpt>
      <trkpt lat="43.96479" lon="7.41468">
        <ele>1014.4</ele>
        <time>2024-07-09T07:20:43Z</time>
      </trkpt>
      <trkpt lat="43.96481" lon="7.41469">
        <ele>1014.8</ele>
        <time>2024-07-09T07:20:44Z</time>
      </trkpt>
      <trkpt lat="43.96483" lon="7.4147">
        <ele>1014.8</ele>
        <time>2024-07-09T07:20:45Z</time>
      </trkpt>
      <trkpt lat="43.96485" lon="7.4147">
        <ele>1014.8</ele>
        <time>2024-07-09T07:20:46Z</time>
      </trkpt>
      <trkpt lat="43.96487" lon="7.41471">
        <ele>1014.8</ele>
        <time>2024-07-09T07:20:47Z</time>
      </trkpt>
      <trkpt lat="43.96488" lon="7.41471">
        <ele>1015</ele>
        <time>2024-07-09T07:20:48Z</time>
      </trkpt>
      <trkpt lat="43.9649" lon="7.41472">
        <ele>1015.2</ele>
        <time>2024-07-09T07:20:49Z</time>
      </trkpt>
      <trkpt lat="43.96492" lon="7.41474">
        <ele>1015.2</ele>
        <time>2024-07-09T07:20:50Z</time>
      </trkpt>
      <trkpt lat="43.96494" lon="7.41474">
        <ele>1015.2</ele>
        <time>2024-07-09T07:20:51Z</time>
      </trkpt>
      <trkpt lat="43.96496" lon="7.41475">
        <ele>1015.8</ele>
        <time>2024-07-09T07:20:52Z</time>
      </trkpt>
      <trkpt lat="43.96497" lon="7.41475">
        <ele>1015.8</ele>
        <time>2024-07-09T07:20:53Z</time>
      </trkpt>
      <trkpt lat="43.96498" lon="7.41475">
        <ele>1015.8</ele>
        <time>2024-07-09T07:20:54Z</time>
      </trkpt>
      <trkpt lat="43.96499" lon="7.41475">
        <ele>1015.8</ele>
        <time>2024-07-09T07:20:55Z</time>
      </trkpt>
      <trkpt lat="43.965" lon="7.41476">
        <ele>1016.2</ele>
        <time>2024-07-09T07:20:56Z</time>
      </trkpt>
      <trkpt lat="43.96502" lon="7.41477">
        <ele>1016.2</ele>
        <time>2024-07-09T07:20:57Z</time>
      </trkpt>
      <trkpt lat="43.96504" lon="7.41478">
        <ele>1016.4</ele>
        <time>2024-07-09T07:20:58Z</time>
      </trkpt>
      <trkpt lat="43.96506" lon="7.41478">
        <ele>1016.4</ele>
        <time>2024-07-09T07:20:59Z</time>
      </trkpt>
      <trkpt lat="43.96508" lon="7.41479">
        <ele>1016.4</ele>
        <time>2024-07-09T07:21:00Z</time>
      </trkpt>
      <trkpt lat="43.9651" lon="7.41479">
        <ele>1016.8</ele>
        <time>2024-07-09T07:21:01Z</time>
      </trkpt>
      <trkpt lat="43.96513" lon="7.41478">
        <ele>1017</ele>
        <time>2024-07-09T07:21:02Z</time>
      </trkpt>
      <trkpt lat="43.96515" lon="7.41476">
        <ele>1017</ele>
        <time>2024-07-09T07:21:03Z</time>
      </trkpt>
      <trkpt lat="43.96516" lon="7.41473">
        <ele>1017</ele>
        <time>2024-07-09T07:21:04Z</time>
      </trkpt>
      <trkpt lat="43.96515" lon="7.41471">
        <ele>1017</ele>
        <time>2024-07-09T07:21:05Z</time>
      </trkpt>
      <trkpt lat="43.96514" lon="7.41469">
        <ele>1017.6</ele>
        <time>2024-07-09T07:21:06Z</time>
      </trkpt>
      <trkpt lat="43.96512" lon="7.41468">
        <ele>1017.6</ele>
        <time>2024-07-09T07:21:07Z</time>
      </trkpt>
      <trkpt lat="43.9651" lon="7.41467">
        <ele>1017.6</ele>
        <time>2024-07-09T07:21:08Z</time>
      </trkpt>
      <trkpt lat="43.96507" lon="7.41466">
        <ele>1017.6</ele>
        <time>2024-07-09T07:21:09Z</time>
      </trkpt>
      <trkpt lat="43.96505" lon="7.41465">
        <ele>1017.6</ele>
        <time>2024-07-09T07:21:10Z</time>
      </trkpt>
      <trkpt lat="43.96503" lon="7.41464">
        <ele>1017.8</ele>
        <time>2024-07-09T07:21:11Z</time>
      </trkpt>
      <trkpt lat="43.96501" lon="7.41464">
        <ele>1017.8</ele>
        <time>2024-07-09T07:21:12Z</time>
      </trkpt>
      <trkpt lat="43.96499" lon="7.41464">
        <ele>1017.8</ele>
        <time>2024-07-09T07:21:13Z</time>
      </trkpt>
      <trkpt lat="43.96497" lon="7.41462">
        <ele>1018.2</ele>
        <time>2024-07-09T07:21:14Z</time>
      </trkpt>
      <trkpt lat="43.96494" lon="7.41461">
        <ele>1018</ele>
        <time>2024-07-09T07:21:15Z</time>
      </trkpt>
      <trkpt lat="43.96492" lon="7.4146">
        <ele>1018</ele>
        <time>2024-07-09T07:21:16Z</time>
      </trkpt>
      <trkpt lat="43.9649" lon="7.41458">
        <ele>1018</ele>
        <time>2024-07-09T07:21:17Z</time>
      </trkpt>
      <trkpt lat="43.96488" lon="7.41457">
        <ele>1018.6</ele>
        <time>2024-07-09T07:21:18Z</time>
      </trkpt>
      <trkpt lat="43.96486" lon="7.41456">
        <ele>1018.8</ele>
        <time>2024-07-09T07:21:19Z</time>
      </trkpt>
      <trkpt lat="43.96484" lon="7.41456">
        <ele>1018.8</ele>
        <time>2024-07-09T07:21:20Z</time>
      </trkpt>
      <trkpt lat="43.96483" lon="7.41455">
        <ele>1018.8</ele>
        <time>2024-07-09T07:21:21Z</time>
      </trkpt>
      <trkpt lat="43.96481" lon="7.41453">
        <ele>1018.8</ele>
        <time>2024-07-09T07:21:22Z</time>
      </trkpt>
      <trkpt lat="43.96479" lon="7.41453">
        <ele>1018.8</ele>
        <time>2024-07-09T07:21:23Z</time>
      </trkpt>
      <trkpt lat="43.96477" lon="7.41452">
        <ele>1019</ele>
        <time>2024-07-09T07:21:24Z</time>
      </trkpt>
      <trkpt lat="43.96476" lon="7.41451">
        <ele>1019</ele>
        <time>2024-07-09T07:21:25Z</time>
      </trkpt>
      <trkpt lat="43.96476" lon="7.4145">
        <ele>1019</ele>
        <time>2024-07-09T07:21:26Z</time>
      </trkpt>
      <trkpt lat="43.96476" lon="7.4145">
        <ele>1019</ele>
        <time>2024-07-09T07:21:27Z</time>
      </trkpt>
      <trkpt lat="43.9647" lon="7.41448">
        <ele>1019.6</ele>
        <time>2024-07-09T07:21:51Z</time>
      </trkpt>
      <trkpt lat="43.96468" lon="7.41448">
        <ele>1019.6</ele>
        <time>2024-07-09T07:21:52Z</time>
      </trkpt>
      <trkpt lat="43.96467" lon="7.41448">
        <ele>1019.6</ele>
        <time>2024-07-09T07:21:53Z</time>
      </trkpt>
      <trkpt lat="43.96466" lon="7.41447">
        <ele>1019.6</ele>
        <time>2024-07-09T07:21:54Z</time>
      </trkpt>
      <trkpt lat="43.96465" lon="7.41446">
        <ele>1019.6</ele>
        <time>2024-07-09T07:21:55Z</time>
      </trkpt>
      <trkpt lat="43.96464" lon="7.41446">
        <ele>1020</ele>
        <time>2024-07-09T07:21:56Z</time>
      </trkpt>
      <trkpt lat="43.96464" lon="7.41446">
        <ele>1020</ele>
        <time>2024-07-09T07:21:57Z</time>
      </trkpt>
      <trkpt lat="43.96463" lon="7.41443">
        <ele>1019.8</ele>
        <time>2024-07-09T07:22:33Z</time>
      </trkpt>
      <trkpt lat="43.96462" lon="7.41443">
        <ele>1019.8</ele>
        <time>2024-07-09T07:22:34Z</time>
      </trkpt>
      <trkpt lat="43.9646" lon="7.41442">
        <ele>1020</ele>
        <time>2024-07-09T07:22:35Z</time>
      </trkpt>
      <trkpt lat="43.96458" lon="7.4144">
        <ele>1020.2</ele>
        <time>2024-07-09T07:22:36Z</time>
      </trkpt>
      <trkpt lat="43.96456" lon="7.41438">
        <ele>1020.2</ele>
        <time>2024-07-09T07:22:37Z</time>
      </trkpt>
      <trkpt lat="43.96455" lon="7.41437">
        <ele>1020.2</ele>
        <time>2024-07-09T07:22:38Z</time>
      </trkpt>
      <trkpt lat="43.96453" lon="7.41436">
        <ele>1020.6</ele>
        <time>2024-07-09T07:22:39Z</time>
      </trkpt>
      <trkpt lat="43.96452" lon="7.41435">
        <ele>1020.6</ele>
        <time>2024-07-09T07:22:40Z</time>
      </trkpt>
      <trkpt lat="43.9645" lon="7.41434">
        <ele>1020.6</ele>
        <time>2024-07-09T07:22:41Z</time>
      </trkpt>
      <trkpt lat="43.96448" lon="7.41433">
        <ele>1020.6</ele>
        <time>2024-07-09T07:22:42Z</time>
      </trkpt>
      <trkpt lat="43.96446" lon="7.41432">
        <ele>1020.6</ele>
        <time>2024-07-09T07:22:43Z</time>
      </trkpt>
      <trkpt lat="43.96445" lon="7.4143">
        <ele>1021.2</ele>
        <time>2024-07-09T07:22:44Z</time>
      </trkpt>
      <trkpt lat="43.96443" lon="7.4143">
        <ele>1021.4</ele>
        <time>2024-07-09T07:22:45Z</time>
      </trkpt>
      <trkpt lat="43.96441" lon="7.4143">
        <ele>1021.4</ele>
        <time>2024-07-09T07:22:46Z</time>
      </trkpt>
      <trkpt lat="43.96439" lon="7.41429">
        <ele>1021.4</ele>
        <time>2024-07-09T07:22:47Z</time>
      </trkpt>
      <trkpt lat="43.96437" lon="7.41428">
        <ele>1021.4</ele>
        <time>2024-07-09T07:22:48Z</time>
      </trkpt>
      <trkpt lat="43.96435" lon="7.41428">
        <ele>1021.8</ele>
        <time>2024-07-09T07:22:49Z</time>
      </trkpt>
      <trkpt lat="43.96433" lon="7.41428">
        <ele>1022.2</ele>
        <time>2024-07-09T07:22:50Z</time>
      </trkpt>
      <trkpt lat="43.96431" lon="7.41426">
        <ele>1022.2</ele>
        <time>2024-07-09T07:22:51Z</time>
      </trkpt>
      <trkpt lat="43.96429" lon="7.41425">
        <ele>1022.2</ele>
        <time>2024-07-09T07:22:52Z</time>
      </trkpt>
      <trkpt lat="43.96427" lon="7.41426">
        <ele>1022.2</ele>
        <time>2024-07-09T07:22:53Z</time>
      </trkpt>
      <trkpt lat="43.96425" lon="7.41428">
        <ele>1022.6</ele>
        <time>2024-07-09T07:22:54Z</time>
      </trkpt>
      <trkpt lat="43.96423" lon="7.41428">
        <ele>1022.6</ele>
        <time>2024-07-09T07:22:55Z</time>
      </trkpt>
      <trkpt lat="43.96421" lon="7.41428">
        <ele>1022.6</ele>
        <time>2024-07-09T07:22:56Z</time>
      </trkpt>
      <trkpt lat="43.9642" lon="7.41428">
        <ele>1022.6</ele>
        <time>2024-07-09T07:22:57Z</time>
      </trkpt>
      <trkpt lat="43.96418" lon="7.41427">
        <ele>1023.2</ele>
        <time>2024-07-09T07:22:58Z</time>
      </trkpt>
      <trkpt lat="43.96417" lon="7.41427">
        <ele>1023.2</ele>
        <time>2024-07-09T07:22:59Z</time>
      </trkpt>
      <trkpt lat="43.96416" lon="7.41427">
        <ele>1023.2</ele>
        <time>2024-07-09T07:23:00Z</time>
      </trkpt>
      <trkpt lat="43.96416" lon="7.41427">
        <ele>1023.2</ele>
        <time>2024-07-09T07:23:01Z</time>
      </trkpt>
      <trkpt lat="43.96416" lon="7.41427">
        <ele>1023.2</ele>
        <time>2024-07-09T07:23:02Z</time>
      </trkpt>
      <trkpt lat="43.96413" lon="7.41425">
        <ele>1023.6</ele>
        <time>2024-07-09T07:25:38Z</time>
      </trkpt>
      <trkpt lat="43.96412" lon="7.41424">
        <ele>1023.6</ele>
        <time>2024-07-09T07:25:39Z</time>
      </trkpt>
      <trkpt lat="43.96411" lon="7.41422">
        <ele>1023.8</ele>
        <time>2024-07-09T07:25:40Z</time>
      </trkpt>
      <trkpt lat="43.9641" lon="7.41421">
        <ele>1024.2</ele>
        <time>2024-07-09T07:25:41Z</time>
      </trkpt>
      <trkpt lat="43.96409" lon="7.4142">
        <ele>1024.2</ele>
        <time>2024-07-09T07:25:42Z</time>
      </trkpt>
      <trkpt lat="43.96407" lon="7.4142">
        <ele>1024.2</ele>
        <time>2024-07-09T07:25:43Z</time>
      </trkpt>
      <trkpt lat="43.96405" lon="7.4142">
        <ele>1024.2</ele>
        <time>2024-07-09T07:25:44Z</time>
      </trkpt>
      <trkpt lat="43.96403" lon="7.4142">
        <ele>1024.6</ele>
        <time>2024-07-09T07:25:45Z</time>
      </trkpt>
      <trkpt lat="43.96402" lon="7.41419">
        <ele>1024.6</ele>
        <time>2024-07-09T07:25:46Z</time>
      </trkpt>
      <trkpt lat="43.964" lon="7.41419">
        <ele>1024.6</ele>
        <time>2024-07-09T07:25:47Z</time>
      </trkpt>
      <trkpt lat="43.96398" lon="7.41418">
        <ele>1024.6</ele>
        <time>2024-07-09T07:25:48Z</time>
      </trkpt>
      <trkpt lat="43.96397" lon="7.41417">
        <ele>1025.2</ele>
        <time>2024-07-09T07:25:49Z</time>
      </trkpt>
      <trkpt lat="43.96395" lon="7.41416">
        <ele>1025.4</ele>
        <time>2024-07-09T07:25:50Z</time>
      </trkpt>
      <trkpt lat="43.96393" lon="7.41417">
        <ele>1025.4</ele>
        <time>2024-07-09T07:25:51Z</time>
      </trkpt>
      <trkpt lat="43.96391" lon="7.41417">
        <ele>1025.4</ele>
        <time>2024-07-09T07:25:52Z</time>
      </trkpt>
      <trkpt lat="43.9639" lon="7.41417">
        <ele>1025.4</ele>
        <time>2024-07-09T07:25:53Z</time>
      </trkpt>
      <trkpt lat="43.96388" lon="7.41416">
        <ele>1026</ele>
        <time>2024-07-09T07:25:54Z</time>
      </trkpt>
      <trkpt lat="43.96386" lon="7.41416">
        <ele>1026</ele>
        <time>2024-07-09T07:25:55Z</time>
      </trkpt>
      <trkpt lat="43.96385" lon="7.41416">
        <ele>1026</ele>
        <time>2024-07-09T07:25:56Z</time>
      </trkpt>
      <trkpt lat="43.96383" lon="7.41416">
        <ele>1026</ele>
        <time>2024-07-09T07:25:57Z</time>
      </trkpt>
      <trkpt lat="43.96381" lon="7.41417">
        <ele>1026.6</ele>
        <time>2024-07-09T07:25:58Z</time>
      </trkpt>
      <trkpt lat="43.96379" lon="7.41417">
        <ele>1026.6</ele>
        <time>2024-07-09T07:25:59Z</time>
      </trkpt>
      <trkpt lat="43.96377" lon="7.41417">
        <ele>1026.6</ele>
        <time>2024-07-09T07:26:00Z</time>
      </trkpt>
      <trkpt lat="43.96375" lon="7.41417">
        <ele>1026.6</ele>
        <time>2024-07-09T07:26:01Z</time>
      </trkpt>
      <trkpt lat="43.96373" lon="7.41418">
        <ele>1027</ele>
        <time>2024-07-09T07:26:02Z</time>
      </trkpt>
      <trkpt lat="43.96372" lon="7.41418">
        <ele>1027.2</ele>
        <time>2024-07-09T07:26:03Z</time>
      </trkpt>
      <trkpt lat="43.9637" lon="7.41418">
        <ele>1027.2</ele>
        <time>2024-07-09T07:26:04Z</time>
      </trkpt>
      <trkpt lat="43.96368" lon="7.41418">
        <ele>1027.2</ele>
        <time>2024-07-09T07:26:05Z</time>
      </trkpt>
      <trkpt lat="43.96366" lon="7.41417">
        <ele>1027.6</ele>
        <time>2024-07-09T07:26:06Z</time>
      </trkpt>
      <trkpt lat="43.96364" lon="7.41417">
        <ele>1027.8</ele>
        <time>2024-07-09T07:26:07Z</time>
      </trkpt>
      <trkpt lat="43.96362" lon="7.41418">
        <ele>1027.8</ele>
        <time>2024-07-09T07:26:08Z</time>
      </trkpt>
      <trkpt lat="43.9636" lon="7.41418">
        <ele>1027.8</ele>
        <time>2024-07-09T07:26:09Z</time>
      </trkpt>
      <trkpt lat="43.96358" lon="7.41418">
        <ele>1027.8</ele>
        <time>2024-07-09T07:26:10Z</time>
      </trkpt>
      <trkpt lat="43.96356" lon="7.41418">
        <ele>1028.2</ele>
        <time>2024-07-09T07:26:11Z</time>
      </trkpt>
      <trkpt lat="43.96354" lon="7.41418">
        <ele>1028.2</ele>
        <time>2024-07-09T07:26:12Z</time>
      </trkpt>
      <trkpt lat="43.96352" lon="7.41417">
        <ele>1028.2</ele>
        <time>2024-07-09T07:26:13Z</time>
      </trkpt>
      <trkpt lat="43.9635" lon="7.41417">
        <ele>1028.2</ele>
        <time>2024-07-09T07:26:14Z</time>
      </trkpt>
      <trkpt lat="43.96348" lon="7.41416">
        <ele>1028.8</ele>
        <time>2024-07-09T07:26:15Z</time>
      </trkpt>
      <trkpt lat="43.96346" lon="7.41416">
        <ele>1029</ele>
        <time>2024-07-09T07:26:16Z</time>
      </trkpt>
      <trkpt lat="43.96345" lon="7.41415">
        <ele>1029</ele>
        <time>2024-07-09T07:26:17Z</time>
      </trkpt>
      <trkpt lat="43.96343" lon="7.41415">
        <ele>1029</ele>
        <time>2024-07-09T07:26:18Z</time>
      </trkpt>
      <trkpt lat="43.96341" lon="7.41413">
        <ele>1029</ele>
        <time>2024-07-09T07:26:19Z</time>
      </trkpt>
      <trkpt lat="43.9634" lon="7.41413">
        <ele>1029.6</ele>
        <time>2024-07-09T07:26:20Z</time>
      </trkpt>
      <trkpt lat="43.96338" lon="7.41412">
        <ele>1029.6</ele>
        <time>2024-07-09T07:26:21Z</time>
      </trkpt>
      <trkpt lat="43.96336" lon="7.41411">
        <ele>1029.6</ele>
        <time>2024-07-09T07:26:22Z</time>
      </trkpt>
      <trkpt lat="43.96335" lon="7.4141">
        <ele>1029.6</ele>
        <time>2024-07-09T07:26:23Z</time>
      </trkpt>
      <trkpt lat="43.96333" lon="7.41408">
        <ele>1029.6</ele>
        <time>2024-07-09T07:26:24Z</time>
      </trkpt>
      <trkpt lat="43.96331" lon="7.41408">
        <ele>1030.2</ele>
        <time>2024-07-09T07:26:25Z</time>
      </trkpt>
      <trkpt lat="43.96329" lon="7.41407">
        <ele>1030.4</ele>
        <time>2024-07-09T07:26:26Z</time>
      </trkpt>
      <trkpt lat="43.96327" lon="7.41406">
        <ele>1030.4</ele>
        <time>2024-07-09T07:26:27Z</time>
      </trkpt>
      <trkpt lat="43.96325" lon="7.41406">
        <ele>1030.4</ele>
        <time>2024-07-09T07:26:28Z</time>
      </trkpt>
      <trkpt lat="43.96324" lon="7.41405">
        <ele>1031</ele>
        <time>2024-07-09T07:26:29Z</time>
      </trkpt>
      <trkpt lat="43.96322" lon="7.41405">
        <ele>1031.2</ele>
        <time>2024-07-09T07:26:30Z</time>
      </trkpt>
      <trkpt lat="43.9632" lon="7.41404">
        <ele>1031.2</ele>
        <time>2024-07-09T07:26:31Z</time>
      </trkpt>
      <trkpt lat="43.96318" lon="7.41404">
        <ele>1031.2</ele>
        <time>2024-07-09T07:26:32Z</time>
      </trkpt>
      <trkpt lat="43.96317" lon="7.41404">
        <ele>1031.6</ele>
        <time>2024-07-09T07:26:33Z</time>
      </trkpt>
      <trkpt lat="43.96315" lon="7.41403">
        <ele>1031.8</ele>
        <time>2024-07-09T07:26:34Z</time>
      </trkpt>
      <trkpt lat="43.96313" lon="7.41402">
        <ele>1031.8</ele>
        <time>2024-07-09T07:26:35Z</time>
      </trkpt>
      <trkpt lat="43.96312" lon="7.41401">
        <ele>1031.8</ele>
        <time>2024-07-09T07:26:36Z</time>
      </trkpt>
      <trkpt lat="43.9631" lon="7.414">
        <ele>1031.8</ele>
        <time>2024-07-09T07:26:37Z</time>
      </trkpt>
      <trkpt lat="43.96308" lon="7.41399">
        <ele>1032.2</ele>
        <time>2024-07-09T07:26:38Z</time>
      </trkpt>
      <trkpt lat="43.96306" lon="7.41398">
        <ele>1032.4</ele>
        <time>2024-07-09T07:26:39Z</time>
      </trkpt>
      <trkpt lat="43.96304" lon="7.41398">
        <ele>1032.4</ele>
        <time>2024-07-09T07:26:40Z</time>
      </trkpt>
      <trkpt lat="43.96302" lon="7.41398">
        <ele>1032.4</ele>
        <time>2024-07-09T07:26:41Z</time>
      </trkpt>
      <trkpt lat="43.963" lon="7.41397">
        <ele>1032.8</ele>
        <time>2024-07-09T07:26:42Z</time>
      </trkpt>
      <trkpt lat="43.96298" lon="7.41397">
        <ele>1033</ele>
        <time>2024-07-09T07:26:43Z</time>
      </trkpt>
      <trkpt lat="43.96296" lon="7.41397">
        <ele>1033</ele>
        <time>2024-07-09T07:26:44Z</time>
      </trkpt>
      <trkpt lat="43.96295" lon="7.41397">
        <ele>1033</ele>
        <time>2024-07-09T07:26:45Z</time>
      </trkpt>
      <trkpt lat="43.96293" lon="7.41396">
        <ele>1033</ele>
        <time>2024-07-09T07:26:46Z</time>
      </trkpt>
      <trkpt lat="43.96291" lon="7.41396">
        <ele>1033</ele>
        <time>2024-07-09T07:26:47Z</time>
      </trkpt>
      <trkpt lat="43.96289" lon="7.41396">
        <ele>1033.6</ele>
        <time>2024-07-09T07:26:48Z</time>
      </trkpt>
      <trkpt lat="43.96287" lon="7.41396">
        <ele>1033.6</ele>
        <time>2024-07-09T07:26:49Z</time>
      </trkpt>
      <trkpt lat="43.96285" lon="7.41396">
        <ele>1033.6</ele>
        <time>2024-07-09T07:26:50Z</time>
      </trkpt>
      <trkpt lat="43.96283" lon="7.41396">
        <ele>1033.8</ele>
        <time>2024-07-09T07:26:51Z</time>
      </trkpt>
      <trkpt lat="43.96282" lon="7.41396">
        <ele>1034</ele>
        <time>2024-07-09T07:26:52Z</time>
      </trkpt>
      <trkpt lat="43.9628" lon="7.41396">
        <ele>1034</ele>
        <time>2024-07-09T07:26:53Z</time>
      </trkpt>
      <trkpt lat="43.96278" lon="7.41396">
        <ele>1034</ele>
        <time>2024-07-09T07:26:54Z</time>
      </trkpt>
      <trkpt lat="43.96276" lon="7.41396">
        <ele>1034.6</ele>
        <time>2024-07-09T07:26:55Z</time>
      </trkpt>
      <trkpt lat="43.96274" lon="7.41396">
        <ele>1034.6</ele>
        <time>2024-07-09T07:26:56Z</time>
      </trkpt>
      <trkpt lat="43.96272" lon="7.41396">
        <ele>1034.6</ele>
        <time>2024-07-09T07:26:57Z</time>
      </trkpt>
      <trkpt lat="43.96271" lon="7.41395">
        <ele>1034.6</ele>
        <time>2024-07-09T07:26:58Z</time>
      </trkpt>
      <trkpt lat="43.96269" lon="7.41395">
        <ele>1034.6</ele>
        <time>2024-07-09T07:26:59Z</time>
      </trkpt>
      <trkpt lat="43.96267" lon="7.41395">
        <ele>1035</ele>
        <time>2024-07-09T07:27:00Z</time>
      </trkpt>
      <trkpt lat="43.96265" lon="7.41394">
        <ele>1035</ele>
        <time>2024-07-09T07:27:01Z</time>
      </trkpt>
      <trkpt lat="43.96264" lon="7.41394">
        <ele>1035</ele>
        <time>2024-07-09T07:27:02Z</time>
      </trkpt>
      <trkpt lat="43.96262" lon="7.41393">
        <ele>1035</ele>
        <time>2024-07-09T07:27:03Z</time>
      </trkpt>
      <trkpt lat="43.9626" lon="7.41392">
        <ele>1035</ele>
        <time>2024-07-09T07:27:04Z</time>
      </trkpt>
      <trkpt lat="43.96258" lon="7.41392">
        <ele>1035.8</ele>
        <time>2024-07-09T07:27:05Z</time>
      </trkpt>
      <trkpt lat="43.96257" lon="7.41392">
        <ele>1035.8</ele>
        <time>2024-07-09T07:27:06Z</time>
      </trkpt>
      <trkpt lat="43.96255" lon="7.41391">
        <ele>1035.8</ele>
        <time>2024-07-09T07:27:07Z</time>
      </trkpt>
      <trkpt lat="43.96253" lon="7.41391">
        <ele>1035.8</ele>
        <time>2024-07-09T07:27:08Z</time>
      </trkpt>
      <trkpt lat="43.96251" lon="7.4139">
        <ele>1036.2</ele>
        <time>2024-07-09T07:27:09Z</time>
      </trkpt>
      <trkpt lat="43.96249" lon="7.4139">
        <ele>1036.4</ele>
        <time>2024-07-09T07:27:10Z</time>
      </trkpt>
      <trkpt lat="43.96246" lon="7.41389">
        <ele>1036.4</ele>
        <time>2024-07-09T07:27:11Z</time>
      </trkpt>
      <trkpt lat="43.96245" lon="7.41387">
        <ele>1036.4</ele>
        <time>2024-07-09T07:27:12Z</time>
      </trkpt>
      <trkpt lat="43.96243" lon="7.41385">
        <ele>1036.4</ele>
        <time>2024-07-09T07:27:13Z</time>
      </trkpt>
      <trkpt lat="43.96243" lon="7.41383">
        <ele>1036.8</ele>
        <time>2024-07-09T07:27:14Z</time>
      </trkpt>
      <trkpt lat="43.96245" lon="7.41381">
        <ele>1036.8</ele>
        <time>2024-07-09T07:27:15Z</time>
      </trkpt>
      <trkpt lat="43.96247" lon="7.41381">
        <ele>1036.8</ele>
        <time>2024-07-09T07:27:16Z</time>
      </trkpt>
      <trkpt lat="43.96249" lon="7.41382">
        <ele>1036.8</ele>
        <time>2024-07-09T07:27:17Z</time>
      </trkpt>
      <trkpt lat="43.96251" lon="7.41382">
        <ele>1037.2</ele>
        <time>2024-07-09T07:27:18Z</time>
      </trkpt>
      <trkpt lat="43.96253" lon="7.41383">
        <ele>1037.2</ele>
        <time>2024-07-09T07:27:19Z</time>
      </trkpt>
      <trkpt lat="43.96256" lon="7.41383">
        <ele>1037.2</ele>
        <time>2024-07-09T07:27:20Z</time>
      </trkpt>
      <trkpt lat="43.96258" lon="7.41384">
        <ele>1037.2</ele>
        <time>2024-07-09T07:27:21Z</time>
      </trkpt>
      <trkpt lat="43.96261" lon="7.41384">
        <ele>1037.2</ele>
        <time>2024-07-09T07:27:22Z</time>
      </trkpt>
      <trkpt lat="43.96263" lon="7.41384">
        <ele>1037.6</ele>
        <time>2024-07-09T07:27:23Z</time>
      </trkpt>
      <trkpt lat="43.96265" lon="7.41384">
        <ele>1037.8</ele>
        <time>2024-07-09T07:27:24Z</time>
      </trkpt>
      <trkpt lat="43.96267" lon="7.41385">
        <ele>1037.8</ele>
        <time>2024-07-09T07:27:25Z</time>
      </trkpt>
      <trkpt lat="43.9627" lon="7.41385">
        <ele>1037.8</ele>
        <time>2024-07-09T07:27:26Z</time>
      </trkpt>
      <trkpt lat="43.96272" lon="7.41386">
        <ele>1038</ele>
        <time>2024-07-09T07:27:27Z</time>
      </trkpt>
      <trkpt lat="43.96274" lon="7.41386">
        <ele>1038</ele>
        <time>2024-07-09T07:27:28Z</time>
      </trkpt>
      <trkpt lat="43.96276" lon="7.41387">
        <ele>1038</ele>
        <time>2024-07-09T07:27:29Z</time>
      </trkpt>
      <trkpt lat="43.96278" lon="7.41387">
        <ele>1038</ele>
        <time>2024-07-09T07:27:30Z</time>
      </trkpt>
      <trkpt lat="43.9628" lon="7.41388">
        <ele>1038.2</ele>
        <time>2024-07-09T07:27:31Z</time>
      </trkpt>
      <trkpt lat="43.96282" lon="7.41388">
        <ele>1038.6</ele>
        <time>2024-07-09T07:27:32Z</time>
      </trkpt>
      <trkpt lat="43.96285" lon="7.41388">
        <ele>1038.6</ele>
        <time>2024-07-09T07:27:33Z</time>
      </trkpt>
      <trkpt lat="43.96287" lon="7.41388">
        <ele>1038.6</ele>
        <time>2024-07-09T07:27:34Z</time>
      </trkpt>
      <trkpt lat="43.96289" lon="7.41388">
        <ele>1038.6</ele>
        <time>2024-07-09T07:27:35Z</time>
      </trkpt>
      <trkpt lat="43.96291" lon="7.41389">
        <ele>1038.6</ele>
        <time>2024-07-09T07:27:36Z</time>
      </trkpt>
      <trkpt lat="43.96293" lon="7.41389">
        <ele>1038.8</ele>
        <time>2024-07-09T07:27:37Z</time>
      </trkpt>
      <trkpt lat="43.96295" lon="7.41389">
        <ele>1038.8</ele>
        <time>2024-07-09T07:27:38Z</time>
      </trkpt>
      <trkpt lat="43.96297" lon="7.41389">
        <ele>1038.8</ele>
        <time>2024-07-09T07:27:39Z</time>
      </trkpt>
      <trkpt lat="43.96299" lon="7.4139">
        <ele>1039.2</ele>
        <time>2024-07-09T07:27:40Z</time>
      </trkpt>
      <trkpt lat="43.96301" lon="7.4139">
        <ele>1039.2</ele>
        <time>2024-07-09T07:27:41Z</time>
      </trkpt>
      <trkpt lat="43.96303" lon="7.4139">
        <ele>1039.2</ele>
        <time>2024-07-09T07:27:42Z</time>
      </trkpt>
      <trkpt lat="43.96305" lon="7.4139">
        <ele>1039.2</ele>
        <time>2024-07-09T07:27:43Z</time>
      </trkpt>
      <trkpt lat="43.96307" lon="7.4139">
        <ele>1039.2</ele>
        <time>2024-07-09T07:27:44Z</time>
      </trkpt>
      <trkpt lat="43.96309" lon="7.4139">
        <ele>1039.2</ele>
        <time>2024-07-09T07:27:45Z</time>
      </trkpt>
      <trkpt lat="43.9631" lon="7.4139">
        <ele>1040</ele>
        <time>2024-07-09T07:27:46Z</time>
      </trkpt>
      <trkpt lat="43.96312" lon="7.4139">
        <ele>1040.2</ele>
        <time>2024-07-09T07:27:47Z</time>
      </trkpt>
      <trkpt lat="43.96314" lon="7.41391">
        <ele>1040.2</ele>
        <time>2024-07-09T07:27:48Z</time>
      </trkpt>
      <trkpt lat="43.96316" lon="7.41391">
        <ele>1040.2</ele>
        <time>2024-07-09T07:27:49Z</time>
      </trkpt>
      <trkpt lat="43.96317" lon="7.41391">
        <ele>1040.6</ele>
        <time>2024-07-09T07:27:50Z</time>
      </trkpt>
      <trkpt lat="43.96319" lon="7.41391">
        <ele>1040.6</ele>
        <time>2024-07-09T07:27:51Z</time>
      </trkpt>
      <trkpt lat="43.96321" lon="7.41391">
        <ele>1040.6</ele>
        <time>2024-07-09T07:27:52Z</time>
      </trkpt>
      <trkpt lat="43.96323" lon="7.41391">
        <ele>1040.6</ele>
        <time>2024-07-09T07:27:53Z</time>
      </trkpt>
      <trkpt lat="43.96325" lon="7.41391">
        <ele>1040.6</ele>
        <time>2024-07-09T07:27:54Z</time>
      </trkpt>
      <trkpt lat="43.96327" lon="7.41391">
        <ele>1041.2</ele>
        <time>2024-07-09T07:27:55Z</time>
      </trkpt>
      <trkpt lat="43.96329" lon="7.41391">
        <ele>1041.2</ele>
        <time>2024-07-09T07:27:56Z</time>
      </trkpt>
      <trkpt lat="43.96331" lon="7.4139">
        <ele>1041.2</ele>
        <time>2024-07-09T07:27:57Z</time>
      </trkpt>
      <trkpt lat="43.96332" lon="7.4139">
        <ele>1041.2</ele>
        <time>2024-07-09T07:27:58Z</time>
      </trkpt>
      <trkpt lat="43.96334" lon="7.4139">
        <ele>1041.8</ele>
        <time>2024-07-09T07:27:59Z</time>
      </trkpt>
      <trkpt lat="43.96335" lon="7.41389">
        <ele>1041.8</ele>
        <time>2024-07-09T07:28:00Z</time>
      </trkpt>
      <trkpt lat="43.96337" lon="7.41389">
        <ele>1041.8</ele>
        <time>2024-07-09T07:28:01Z</time>
      </trkpt>
      <trkpt lat="43.96339" lon="7.41389">
        <ele>1041.8</ele>
        <time>2024-07-09T07:28:02Z</time>
      </trkpt>
      <trkpt lat="43.96341" lon="7.41389">
        <ele>1042.6</ele>
        <time>2024-07-09T07:28:03Z</time>
      </trkpt>
      <trkpt lat="43.96342" lon="7.41389">
        <ele>1042.8</ele>
        <time>2024-07-09T07:28:04Z</time>
      </trkpt>
      <trkpt lat="43.96344" lon="7.41389">
        <ele>1042.8</ele>
        <time>2024-07-09T07:28:05Z</time>
      </trkpt>
      <trkpt lat="43.96346" lon="7.41389">
        <ele>1042.8</ele>
        <time>2024-07-09T07:28:06Z</time>
      </trkpt>
      <trkpt lat="43.96347" lon="7.41389">
        <ele>1042.8</ele>
        <time>2024-07-09T07:28:07Z</time>
      </trkpt>
      <trkpt lat="43.96349" lon="7.41389">
        <ele>1043</ele>
        <time>2024-07-09T07:28:08Z</time>
      </trkpt>
      <trkpt lat="43.9635" lon="7.41388">
        <ele>1043.2</ele>
        <time>2024-07-09T07:28:09Z</time>
      </trkpt>
      <trkpt lat="43.96351" lon="7.41388">
        <ele>1043.2</ele>
        <time>2024-07-09T07:28:10Z</time>
      </trkpt>
      <trkpt lat="43.96353" lon="7.41389">
        <ele>1043.2</ele>
        <time>2024-07-09T07:28:11Z</time>
      </trkpt>
      <trkpt lat="43.96355" lon="7.41388">
        <ele>1043.8</ele>
        <time>2024-07-09T07:28:12Z</time>
      </trkpt>
      <trkpt lat="43.96356" lon="7.41388">
        <ele>1043.8</ele>
        <time>2024-07-09T07:28:13Z</time>
      </trkpt>
      <trkpt lat="43.96358" lon="7.41387">
        <ele>1043.8</ele>
        <time>2024-07-09T07:28:14Z</time>
      </trkpt>
      <trkpt lat="43.96359" lon="7.41387">
        <ele>1043.8</ele>
        <time>2024-07-09T07:28:15Z</time>
      </trkpt>
      <trkpt lat="43.9636" lon="7.41386">
        <ele>1043.8</ele>
        <time>2024-07-09T07:28:16Z</time>
      </trkpt>
      <trkpt lat="43.96362" lon="7.41386">
        <ele>1044.8</ele>
        <time>2024-07-09T07:28:17Z</time>
      </trkpt>
      <trkpt lat="43.96364" lon="7.41385">
        <ele>1045</ele>
        <time>2024-07-09T07:28:18Z</time>
      </trkpt>
      <trkpt lat="43.96365" lon="7.41385">
        <ele>1045</ele>
        <time>2024-07-09T07:28:19Z</time>
      </trkpt>
      <trkpt lat="43.96367" lon="7.41384">
        <ele>1045</ele>
        <time>2024-07-09T07:28:20Z</time>
      </trkpt>
      <trkpt lat="43.96368" lon="7.41384">
        <ele>1045</ele>
        <time>2024-07-09T07:28:21Z</time>
      </trkpt>
      <trkpt lat="43.9637" lon="7.41383">
        <ele>1045.6</ele>
        <time>2024-07-09T07:28:22Z</time>
      </trkpt>
      <trkpt lat="43.96371" lon="7.41383">
        <ele>1045.6</ele>
        <time>2024-07-09T07:28:23Z</time>
      </trkpt>
      <trkpt lat="43.96373" lon="7.41382">
        <ele>1045.6</ele>
        <time>2024-07-09T07:28:24Z</time>
      </trkpt>
      <trkpt lat="43.96374" lon="7.41381">
        <ele>1045.6</ele>
        <time>2024-07-09T07:28:25Z</time>
      </trkpt>
      <trkpt lat="43.96376" lon="7.4138">
        <ele>1045.6</ele>
        <time>2024-07-09T07:28:26Z</time>
      </trkpt>
      <trkpt lat="43.96378" lon="7.41379">
        <ele>1046.2</ele>
        <time>2024-07-09T07:28:27Z</time>
      </trkpt>
      <trkpt lat="43.96379" lon="7.41379">
        <ele>1046.2</ele>
        <time>2024-07-09T07:28:28Z</time>
      </trkpt>
      <trkpt lat="43.96381" lon="7.41379">
        <ele>1046.2</ele>
        <time>2024-07-09T07:28:29Z</time>
      </trkpt>
      <trkpt lat="43.96383" lon="7.41378">
        <ele>1046.2</ele>
        <time>2024-07-09T07:28:30Z</time>
      </trkpt>
      <trkpt lat="43.96384" lon="7.41378">
        <ele>1046.8</ele>
        <time>2024-07-09T07:28:31Z</time>
      </trkpt>
      <trkpt lat="43.96386" lon="7.41377">
        <ele>1047.2</ele>
        <time>2024-07-09T07:28:32Z</time>
      </trkpt>
      <trkpt lat="43.96387" lon="7.41376">
        <ele>1047.2</ele>
        <time>2024-07-09T07:28:33Z</time>
      </trkpt>
      <trkpt lat="43.96388" lon="7.41375">
        <ele>1047.2</ele>
        <time>2024-07-09T07:28:34Z</time>
      </trkpt>
      <trkpt lat="43.96389" lon="7.41375">
        <ele>1047.8</ele>
        <time>2024-07-09T07:28:35Z</time>
      </trkpt>
      <trkpt lat="43.96391" lon="7.41374">
        <ele>1047.8</ele>
        <time>2024-07-09T07:28:36Z</time>
      </trkpt>
      <trkpt lat="43.96393" lon="7.41374">
        <ele>1047.8</ele>
        <time>2024-07-09T07:28:37Z</time>
      </trkpt>
      <trkpt lat="43.96394" lon="7.41374">
        <ele>1047.8</ele>
        <time>2024-07-09T07:28:38Z</time>
      </trkpt>
      <trkpt lat="43.96396" lon="7.41373">
        <ele>1047.8</ele>
        <time>2024-07-09T07:28:39Z</time>
      </trkpt>
      <trkpt lat="43.96398" lon="7.41372">
        <ele>1047.8</ele>
        <time>2024-07-09T07:28:40Z</time>
      </trkpt>
      <trkpt lat="43.964" lon="7.41372">
        <ele>1048.6</ele>
        <time>2024-07-09T07:28:41Z</time>
      </trkpt>
      <trkpt lat="43.96401" lon="7.41372">
        <ele>1048.6</ele>
        <time>2024-07-09T07:28:42Z</time>
      </trkpt>
      <trkpt lat="43.96403" lon="7.41373">
        <ele>1048.6</ele>
        <time>2024-07-09T07:28:43Z</time>
      </trkpt>
      <trkpt lat="43.96405" lon="7.41373">
        <ele>1049.2</ele>
        <time>2024-07-09T07:28:44Z</time>
      </trkpt>
      <trkpt lat="43.96406" lon="7.41373">
        <ele>1049.2</ele>
        <time>2024-07-09T07:28:45Z</time>
      </trkpt>
      <trkpt lat="43.96408" lon="7.41373">
        <ele>1049.2</ele>
        <time>2024-07-09T07:28:46Z</time>
      </trkpt>
      <trkpt lat="43.9641" lon="7.41373">
        <ele>1049.2</ele>
        <time>2024-07-09T07:28:47Z</time>
      </trkpt>
      <trkpt lat="43.96412" lon="7.41373">
        <ele>1049.2</ele>
        <time>2024-07-09T07:28:48Z</time>
      </trkpt>
      <trkpt lat="43.96414" lon="7.41373">
        <ele>1049.8</ele>
        <time>2024-07-09T07:28:49Z</time>
      </trkpt>
      <trkpt lat="43.96416" lon="7.41373">
        <ele>1049.8</ele>
        <time>2024-07-09T07:28:50Z</time>
      </trkpt>
      <trkpt lat="43.96417" lon="7.41373">
        <ele>1049.8</ele>
        <time>2024-07-09T07:28:51Z</time>
      </trkpt>
      <trkpt lat="43.96419" lon="7.41374">
        <ele>1049.8</ele>
        <time>2024-07-09T07:28:52Z</time>
      </trkpt>
      <trkpt lat="43.9642" lon="7.41375">
        <ele>1049.8</ele>
        <time>2024-07-09T07:28:53Z</time>
      </trkpt>
      <trkpt lat="43.96422" lon="7.41375">
        <ele>1049.8</ele>
        <time>2024-07-09T07:28:54Z</time>
      </trkpt>
      <trkpt lat="43.96423" lon="7.41375">
        <ele>1050.4</ele>
        <time>2024-07-09T07:28:55Z</time>
      </trkpt>
      <trkpt lat="43.96425" lon="7.41374">
        <ele>1050.4</ele>
        <time>2024-07-09T07:28:56Z</time>
      </trkpt>
      <trkpt lat="43.96426" lon="7.41373">
        <ele>1050.8</ele>
        <time>2024-07-09T07:28:57Z</time>
      </trkpt>
      <trkpt lat="43.96428" lon="7.41373">
        <ele>1050.8</ele>
        <time>2024-07-09T07:28:58Z</time>
      </trkpt>
      <trkpt lat="43.9643" lon="7.41372">
        <ele>1051</ele>
        <time>2024-07-09T07:28:59Z</time>
      </trkpt>
      <trkpt lat="43.96431" lon="7.41372">
        <ele>1051</ele>
        <time>2024-07-09T07:29:00Z</time>
      </trkpt>
      <trkpt lat="43.96432" lon="7.41371">
        <ele>1051</ele>
        <time>2024-07-09T07:29:01Z</time>
      </trkpt>
      <trkpt lat="43.96433" lon="7.41371">
        <ele>1051.4</ele>
        <time>2024-07-09T07:29:02Z</time>
      </trkpt>
      <trkpt lat="43.96435" lon="7.4137">
        <ele>1051.8</ele>
        <time>2024-07-09T07:29:03Z</time>
      </trkpt>
      <trkpt lat="43.96436" lon="7.41369">
        <ele>1051.8</ele>
        <time>2024-07-09T07:29:04Z</time>
      </trkpt>
      <trkpt lat="43.96438" lon="7.41369">
        <ele>1051.8</ele>
        <time>2024-07-09T07:29:05Z</time>
      </trkpt>
      <trkpt lat="43.9644" lon="7.41368">
        <ele>1051.8</ele>
        <time>2024-07-09T07:29:06Z</time>
      </trkpt>
      <trkpt lat="43.96441" lon="7.41367">
        <ele>1052.4</ele>
        <time>2024-07-09T07:29:07Z</time>
      </trkpt>
      <trkpt lat="43.96443" lon="7.41366">
        <ele>1052.4</ele>
        <time>2024-07-09T07:29:08Z</time>
      </trkpt>
      <trkpt lat="43.96444" lon="7.41366">
        <ele>1052.4</ele>
        <time>2024-07-09T07:29:09Z</time>
      </trkpt>
      <trkpt lat="43.96447" lon="7.41366">
        <ele>1052.4</ele>
        <time>2024-07-09T07:29:10Z</time>
      </trkpt>
      <trkpt lat="43.96448" lon="7.41366">
        <ele>1052.4</ele>
        <time>2024-07-09T07:29:11Z</time>
      </trkpt>
      <trkpt lat="43.9645" lon="7.41367">
        <ele>1052.4</ele>
        <time>2024-07-09T07:29:12Z</time>
      </trkpt>
      <trkpt lat="43.96452" lon="7.41368">
        <ele>1053.2</ele>
        <time>2024-07-09T07:29:13Z</time>
      </trkpt>
      <trkpt lat="43.96454" lon="7.41368">
        <ele>1053.2</ele>
        <time>2024-07-09T07:29:14Z</time>
      </trkpt>
      <trkpt lat="43.96456" lon="7.41369">
        <ele>1053.2</ele>
        <time>2024-07-09T07:29:15Z</time>
      </trkpt>
      <trkpt lat="43.96457" lon="7.4137">
        <ele>1053.8</ele>
        <time>2024-07-09T07:29:16Z</time>
      </trkpt>
      <trkpt lat="43.96459" lon="7.41372">
        <ele>1054.2</ele>
        <time>2024-07-09T07:29:17Z</time>
      </trkpt>
      <trkpt lat="43.9646" lon="7.41374">
        <ele>1054.2</ele>
        <time>2024-07-09T07:29:18Z</time>
      </trkpt>
      <trkpt lat="43.96461" lon="7.41375">
        <ele>1054.2</ele>
        <time>2024-07-09T07:29:19Z</time>
      </trkpt>
      <trkpt lat="43.96462" lon="7.41377">
        <ele>1054.2</ele>
        <time>2024-07-09T07:29:20Z</time>
      </trkpt>
      <trkpt lat="43.96463" lon="7.41378">
        <ele>1054.6</ele>
        <time>2024-07-09T07:29:21Z</time>
      </trkpt>
      <trkpt lat="43.96465" lon="7.4138">
        <ele>1054.8</ele>
        <time>2024-07-09T07:29:22Z</time>
      </trkpt>
      <trkpt lat="43.96466" lon="7.41381">
        <ele>1054.8</ele>
        <time>2024-07-09T07:29:23Z</time>
      </trkpt>
      <trkpt lat="43.96467" lon="7.41383">
        <ele>1054.8</ele>
        <time>2024-07-09T07:29:24Z</time>
      </trkpt>
      <trkpt lat="43.96468" lon="7.41383">
        <ele>1055.4</ele>
        <time>2024-07-09T07:29:25Z</time>
      </trkpt>
      <trkpt lat="43.9647" lon="7.41385">
        <ele>1055.8</ele>
        <time>2024-07-09T07:29:26Z</time>
      </trkpt>
      <trkpt lat="43.96471" lon="7.41387">
        <ele>1055.8</ele>
        <time>2024-07-09T07:29:27Z</time>
      </trkpt>
      <trkpt lat="43.96472" lon="7.41388">
        <ele>1055.8</ele>
        <time>2024-07-09T07:29:28Z</time>
      </trkpt>
      <trkpt lat="43.96474" lon="7.4139">
        <ele>1056.2</ele>
        <time>2024-07-09T07:29:29Z</time>
      </trkpt>
      <trkpt lat="43.96475" lon="7.41391">
        <ele>1056.2</ele>
        <time>2024-07-09T07:29:30Z</time>
      </trkpt>
      <trkpt lat="43.96476" lon="7.41392">
        <ele>1056.2</ele>
        <time>2024-07-09T07:29:31Z</time>
      </trkpt>
      <trkpt lat="43.96478" lon="7.41393">
        <ele>1056.2</ele>
        <time>2024-07-09T07:29:32Z</time>
      </trkpt>
      <trkpt lat="43.96479" lon="7.41394">
        <ele>1056.2</ele>
        <time>2024-07-09T07:29:33Z</time>
      </trkpt>
      <trkpt lat="43.96481" lon="7.41394">
        <ele>1056.6</ele>
        <time>2024-07-09T07:29:34Z</time>
      </trkpt>
      <trkpt lat="43.96482" lon="7.41395">
        <ele>1056.6</ele>
        <time>2024-07-09T07:29:35Z</time>
      </trkpt>
      <trkpt lat="43.96484" lon="7.41395">
        <ele>1056.6</ele>
        <time>2024-07-09T07:29:36Z</time>
      </trkpt>
      <trkpt lat="43.96485" lon="7.41396">
        <ele>1056.6</ele>
        <time>2024-07-09T07:29:37Z</time>
      </trkpt>
      <trkpt lat="43.96487" lon="7.41397">
        <ele>1057</ele>
        <time>2024-07-09T07:29:38Z</time>
      </trkpt>
      <trkpt lat="43.96488" lon="7.41397">
        <ele>1057</ele>
        <time>2024-07-09T07:29:39Z</time>
      </trkpt>
      <trkpt lat="43.9649" lon="7.41397">
        <ele>1057</ele>
        <time>2024-07-09T07:29:40Z</time>
      </trkpt>
      <trkpt lat="43.96491" lon="7.41397">
        <ele>1057</ele>
        <time>2024-07-09T07:29:41Z</time>
      </trkpt>
      <trkpt lat="43.96493" lon="7.41397">
        <ele>1057</ele>
        <time>2024-07-09T07:29:42Z</time>
      </trkpt>
      <trkpt lat="43.96495" lon="7.41397">
        <ele>1057.4</ele>
        <time>2024-07-09T07:29:43Z</time>
      </trkpt>
      <trkpt lat="43.96496" lon="7.41397">
        <ele>1057.8</ele>
        <time>2024-07-09T07:29:44Z</time>
      </trkpt>
      <trkpt lat="43.96498" lon="7.41397">
        <ele>1057.8</ele>
        <time>2024-07-09T07:29:45Z</time>
      </trkpt>
      <trkpt lat="43.96499" lon="7.41397">
        <ele>1057.8</ele>
        <time>2024-07-09T07:29:46Z</time>
      </trkpt>
      <trkpt lat="43.96501" lon="7.41398">
        <ele>1058.2</ele>
        <time>2024-07-09T07:29:47Z</time>
      </trkpt>
      <trkpt lat="43.96502" lon="7.41399">
        <ele>1058.4</ele>
        <time>2024-07-09T07:29:48Z</time>
      </trkpt>
      <trkpt lat="43.96504" lon="7.41399">
        <ele>1058.4</ele>
        <time>2024-07-09T07:29:49Z</time>
      </trkpt>
      <trkpt lat="43.96505" lon="7.414">
        <ele>1058.4</ele>
        <time>2024-07-09T07:29:50Z</time>
      </trkpt>
      <trkpt lat="43.96507" lon="7.414">
        <ele>1058.4</ele>
        <time>2024-07-09T07:29:51Z</time>
      </trkpt>
      <trkpt lat="43.96508" lon="7.414">
        <ele>1059</ele>
        <time>2024-07-09T07:29:52Z</time>
      </trkpt>
      <trkpt lat="43.96509" lon="7.41401">
        <ele>1059</ele>
        <time>2024-07-09T07:29:53Z</time>
      </trkpt>
      <trkpt lat="43.96511" lon="7.41401">
        <ele>1059.2</ele>
        <time>2024-07-09T07:29:54Z</time>
      </trkpt>
      <trkpt lat="43.96512" lon="7.41401">
        <ele>1059.2</ele>
        <time>2024-07-09T07:29:55Z</time>
      </trkpt>
      <trkpt lat="43.96514" lon="7.41402">
        <ele>1059.2</ele>
        <time>2024-07-09T07:29:56Z</time>
      </trkpt>
      <trkpt lat="43.96515" lon="7.41402">
        <ele>1059.6</ele>
        <time>2024-07-09T07:29:57Z</time>
      </trkpt>
      <trkpt lat="43.96517" lon="7.41402">
        <ele>1059.8</ele>
        <time>2024-07-09T07:29:58Z</time>
      </trkpt>
      <trkpt lat="43.96518" lon="7.41403">
        <ele>1059.8</ele>
        <time>2024-07-09T07:29:59Z</time>
      </trkpt>
      <trkpt lat="43.9652" lon="7.41404">
        <ele>1059.8</ele>
        <time>2024-07-09T07:30:00Z</time>
      </trkpt>
      <trkpt lat="43.96521" lon="7.41404">
        <ele>1060.4</ele>
        <time>2024-07-09T07:30:01Z</time>
      </trkpt>
      <trkpt lat="43.96523" lon="7.41405">
        <ele>1060.6</ele>
        <time>2024-07-09T07:30:02Z</time>
      </trkpt>
      <trkpt lat="43.96524" lon="7.41406">
        <ele>1060.6</ele>
        <time>2024-07-09T07:30:03Z</time>
      </trkpt>
      <trkpt lat="43.96526" lon="7.41407">
        <ele>1060.6</ele>
        <time>2024-07-09T07:30:04Z</time>
      </trkpt>
      <trkpt lat="43.96527" lon="7.41408">
        <ele>1060.6</ele>
        <time>2024-07-09T07:30:05Z</time>
      </trkpt>
      <trkpt lat="43.96529" lon="7.41408">
        <ele>1061.2</ele>
        <time>2024-07-09T07:30:06Z</time>
      </trkpt>
      <trkpt lat="43.9653" lon="7.41409">
        <ele>1061.4</ele>
        <time>2024-07-09T07:30:07Z</time>
      </trkpt>
      <trkpt lat="43.96532" lon="7.4141">
        <ele>1061.4</ele>
        <time>2024-07-09T07:30:08Z</time>
      </trkpt>
      <trkpt lat="43.96533" lon="7.41411">
        <ele>1061.4</ele>
        <time>2024-07-09T07:30:09Z</time>
      </trkpt>
      <trkpt lat="43.96534" lon="7.41412">
        <ele>1062</ele>
        <time>2024-07-09T07:30:10Z</time>
      </trkpt>
      <trkpt lat="43.96536" lon="7.41412">
        <ele>1062.2</ele>
        <time>2024-07-09T07:30:11Z</time>
      </trkpt>
      <trkpt lat="43.96538" lon="7.41413">
        <ele>1062.2</ele>
        <time>2024-07-09T07:30:12Z</time>
      </trkpt>
      <trkpt lat="43.9654" lon="7.41413">
        <ele>1062.2</ele>
        <time>2024-07-09T07:30:13Z</time>
      </trkpt>
      <trkpt lat="43.96541" lon="7.41414">
        <ele>1062.4</ele>
        <time>2024-07-09T07:30:14Z</time>
      </trkpt>
      <trkpt lat="43.96543" lon="7.41415">
        <ele>1062.4</ele>
        <time>2024-07-09T07:30:15Z</time>
      </trkpt>
      <trkpt lat="43.96544" lon="7.41416">
        <ele>1062.6</ele>
        <time>2024-07-09T07:30:16Z</time>
      </trkpt>
      <trkpt lat="43.96546" lon="7.41417">
        <ele>1062.6</ele>
        <time>2024-07-09T07:30:17Z</time>
      </trkpt>
      <trkpt lat="43.96547" lon="7.41417">
        <ele>1062.6</ele>
        <time>2024-07-09T07:30:18Z</time>
      </trkpt>
      <trkpt lat="43.96548" lon="7.41418">
        <ele>1063.2</ele>
        <time>2024-07-09T07:30:19Z</time>
      </trkpt>
      <trkpt lat="43.9655" lon="7.41419">
        <ele>1063.4</ele>
        <time>2024-07-09T07:30:20Z</time>
      </trkpt>
      <trkpt lat="43.96552" lon="7.4142">
        <ele>1063.4</ele>
        <time>2024-07-09T07:30:21Z</time>
      </trkpt>
      <trkpt lat="43.96553" lon="7.4142">
        <ele>1063.4</ele>
        <time>2024-07-09T07:30:22Z</time>
      </trkpt>
      <trkpt lat="43.96555" lon="7.41421">
        <ele>1063.8</ele>
        <time>2024-07-09T07:30:23Z</time>
      </trkpt>
      <trkpt lat="43.96557" lon="7.41422">
        <ele>1063.8</ele>
        <time>2024-07-09T07:30:24Z</time>
      </trkpt>
      <trkpt lat="43.96559" lon="7.41423">
        <ele>1063.8</ele>
        <time>2024-07-09T07:30:25Z</time>
      </trkpt>
      <trkpt lat="43.9656" lon="7.41424">
        <ele>1063.8</ele>
        <time>2024-07-09T07:30:26Z</time>
      </trkpt>
      <trkpt lat="43.96562" lon="7.41425">
        <ele>1063.8</ele>
        <time>2024-07-09T07:30:27Z</time>
      </trkpt>
      <trkpt lat="43.96564" lon="7.41425">
        <ele>1064.2</ele>
        <time>2024-07-09T07:30:28Z</time>
      </trkpt>
      <trkpt lat="43.96566" lon="7.41426">
        <ele>1064.4</ele>
        <time>2024-07-09T07:30:29Z</time>
      </trkpt>
      <trkpt lat="43.96567" lon="7.41427">
        <ele>1064.4</ele>
        <time>2024-07-09T07:30:30Z</time>
      </trkpt>
      <trkpt lat="43.96569" lon="7.41428">
        <ele>1064.4</ele>
        <time>2024-07-09T07:30:31Z</time>
      </trkpt>
      <trkpt lat="43.96571" lon="7.41429">
        <ele>1064.4</ele>
        <time>2024-07-09T07:30:32Z</time>
      </trkpt>
      <trkpt lat="43.96573" lon="7.41429">
        <ele>1064.6</ele>
        <time>2024-07-09T07:30:33Z</time>
      </trkpt>
      <trkpt lat="43.96575" lon="7.41429">
        <ele>1064.6</ele>
        <time>2024-07-09T07:30:34Z</time>
      </trkpt>
      <trkpt lat="43.96577" lon="7.41429">
        <ele>1064.8</ele>
        <time>2024-07-09T07:30:35Z</time>
      </trkpt>
      <trkpt lat="43.96578" lon="7.41429">
        <ele>1064.8</ele>
        <time>2024-07-09T07:30:36Z</time>
      </trkpt>
      <trkpt lat="43.9658" lon="7.4143">
        <ele>1064.8</ele>
        <time>2024-07-09T07:30:37Z</time>
      </trkpt>
      <trkpt lat="43.96582" lon="7.4143">
        <ele>1065.6</ele>
        <time>2024-07-09T07:30:38Z</time>
      </trkpt>
      <trkpt lat="43.96583" lon="7.4143">
        <ele>1065.6</ele>
        <time>2024-07-09T07:30:39Z</time>
      </trkpt>
      <trkpt lat="43.96585" lon="7.41431">
        <ele>1065.6</ele>
        <time>2024-07-09T07:30:40Z</time>
      </trkpt>
      <trkpt lat="43.96587" lon="7.41431">
        <ele>1065.6</ele>
        <time>2024-07-09T07:30:41Z</time>
      </trkpt>
      <trkpt lat="43.96589" lon="7.41431">
        <ele>1065.6</ele>
        <time>2024-07-09T07:30:42Z</time>
      </trkpt>
      <trkpt lat="43.96591" lon="7.41431">
        <ele>1065.6</ele>
        <time>2024-07-09T07:30:43Z</time>
      </trkpt>
      <trkpt lat="43.96592" lon="7.41432">
        <ele>1066.4</ele>
        <time>2024-07-09T07:30:44Z</time>
      </trkpt>
      <trkpt lat="43.96594" lon="7.41433">
        <ele>1066.4</ele>
        <time>2024-07-09T07:30:45Z</time>
      </trkpt>
      <trkpt lat="43.96595" lon="7.41434">
        <ele>1066.4</ele>
        <time>2024-07-09T07:30:46Z</time>
      </trkpt>
      <trkpt lat="43.96596" lon="7.41435">
        <ele>1066.8</ele>
        <time>2024-07-09T07:30:47Z</time>
      </trkpt>
      <trkpt lat="43.96597" lon="7.41435">
        <ele>1067</ele>
        <time>2024-07-09T07:30:48Z</time>
      </trkpt>
      <trkpt lat="43.96599" lon="7.41435">
        <ele>1067</ele>
        <time>2024-07-09T07:30:49Z</time>
      </trkpt>
      <trkpt lat="43.966" lon="7.41436">
        <ele>1067</ele>
        <time>2024-07-09T07:30:50Z</time>
      </trkpt>
      <trkpt lat="43.96602" lon="7.41437">
        <ele>1067.6</ele>
        <time>2024-07-09T07:30:51Z</time>
      </trkpt>
      <trkpt lat="43.96603" lon="7.41438">
        <ele>1067.6</ele>
        <time>2024-07-09T07:30:52Z</time>
      </trkpt>
      <trkpt lat="43.96604" lon="7.41439">
        <ele>1067.6</ele>
        <time>2024-07-09T07:30:53Z</time>
      </trkpt>
      <trkpt lat="43.96606" lon="7.4144">
        <ele>1067.6</ele>
        <time>2024-07-09T07:30:54Z</time>
      </trkpt>
      <trkpt lat="43.96607" lon="7.41441">
        <ele>1067.6</ele>
        <time>2024-07-09T07:30:55Z</time>
      </trkpt>
      <trkpt lat="43.96609" lon="7.41442">
        <ele>1068.2</ele>
        <time>2024-07-09T07:30:56Z</time>
      </trkpt>
      <trkpt lat="43.96609" lon="7.41443">
        <ele>1068.4</ele>
        <time>2024-07-09T07:30:57Z</time>
      </trkpt>
      <trkpt lat="43.9661" lon="7.41444">
        <ele>1068.4</ele>
        <time>2024-07-09T07:30:58Z</time>
      </trkpt>
      <trkpt lat="43.96611" lon="7.41445">
        <ele>1068.4</ele>
        <time>2024-07-09T07:30:59Z</time>
      </trkpt>
      <trkpt lat="43.96612" lon="7.41447">
        <ele>1069.2</ele>
        <time>2024-07-09T07:31:00Z</time>
      </trkpt>
      <trkpt lat="43.96614" lon="7.41448">
        <ele>1069.2</ele>
        <time>2024-07-09T07:31:01Z</time>
      </trkpt>
      <trkpt lat="43.96615" lon="7.41449">
        <ele>1069.4</ele>
        <time>2024-07-09T07:31:02Z</time>
      </trkpt>
      <trkpt lat="43.96616" lon="7.41451">
        <ele>1069.4</ele>
        <time>2024-07-09T07:31:03Z</time>
      </trkpt>
      <trkpt lat="43.96618" lon="7.41453">
        <ele>1069.8</ele>
        <time>2024-07-09T07:31:04Z</time>
      </trkpt>
      <trkpt lat="43.96619" lon="7.41454">
        <ele>1069.8</ele>
        <time>2024-07-09T07:31:05Z</time>
      </trkpt>
      <trkpt lat="43.9662" lon="7.41455">
        <ele>1070</ele>
        <time>2024-07-09T07:31:06Z</time>
      </trkpt>
      <trkpt lat="43.96622" lon="7.41457">
        <ele>1070</ele>
        <time>2024-07-09T07:31:07Z</time>
      </trkpt>
      <trkpt lat="43.96623" lon="7.41458">
        <ele>1070</ele>
        <time>2024-07-09T07:31:08Z</time>
      </trkpt>
      <trkpt lat="43.96625" lon="7.41459">
        <ele>1070.4</ele>
        <time>2024-07-09T07:31:09Z</time>
      </trkpt>
      <trkpt lat="43.96626" lon="7.4146">
        <ele>1070.6</ele>
        <time>2024-07-09T07:31:10Z</time>
      </trkpt>
      <trkpt lat="43.96628" lon="7.41461">
        <ele>1070.6</ele>
        <time>2024-07-09T07:31:11Z</time>
      </trkpt>
      <trkpt lat="43.96629" lon="7.41462">
        <ele>1070.6</ele>
        <time>2024-07-09T07:31:12Z</time>
      </trkpt>
      <trkpt lat="43.96631" lon="7.41463">
        <ele>1070.6</ele>
        <time>2024-07-09T07:31:13Z</time>
      </trkpt>
      <trkpt lat="43.96633" lon="7.41464">
        <ele>1071</ele>
        <time>2024-07-09T07:31:14Z</time>
      </trkpt>
      <trkpt lat="43.96634" lon="7.41465">
        <ele>1071</ele>
        <time>2024-07-09T07:31:15Z</time>
      </trkpt>
      <trkpt lat="43.96636" lon="7.41465">
        <ele>1071</ele>
        <time>2024-07-09T07:31:16Z</time>
      </trkpt>
      <trkpt lat="43.96637" lon="7.41466">
        <ele>1071</ele>
        <time>2024-07-09T07:31:17Z</time>
      </trkpt>
      <trkpt lat="43.96639" lon="7.41466">
        <ele>1071</ele>
        <time>2024-07-09T07:31:18Z</time>
      </trkpt>
      <trkpt lat="43.9664" lon="7.41467">
        <ele>1071.8</ele>
        <time>2024-07-09T07:31:19Z</time>
      </trkpt>
      <trkpt lat="43.96642" lon="7.41467">
        <ele>1071.8</ele>
        <time>2024-07-09T07:31:20Z</time>
      </trkpt>
      <trkpt lat="43.96643" lon="7.41467">
        <ele>1071.8</ele>
        <time>2024-07-09T07:31:21Z</time>
      </trkpt>
      <trkpt lat="43.96645" lon="7.41467">
        <ele>1071.8</ele>
        <time>2024-07-09T07:31:22Z</time>
      </trkpt>
      <trkpt lat="43.96646" lon="7.41468">
        <ele>1071.8</ele>
        <time>2024-07-09T07:31:23Z</time>
      </trkpt>
      <trkpt lat="43.96647" lon="7.41468">
        <ele>1072.6</ele>
        <time>2024-07-09T07:31:24Z</time>
      </trkpt>
      <trkpt lat="43.96648" lon="7.41468">
        <ele>1072.6</ele>
        <time>2024-07-09T07:31:25Z</time>
      </trkpt>
      <trkpt lat="43.96649" lon="7.41469">
        <ele>1072.6</ele>
        <time>2024-07-09T07:31:26Z</time>
      </trkpt>
      <trkpt lat="43.96651" lon="7.41469">
        <ele>1072.6</ele>
        <time>2024-07-09T07:31:27Z</time>
      </trkpt>
      <trkpt lat="43.96653" lon="7.41469">
        <ele>1072.8</ele>
        <time>2024-07-09T07:31:28Z</time>
      </trkpt>
      <trkpt lat="43.96655" lon="7.4147">
        <ele>1073</ele>
        <time>2024-07-09T07:31:29Z</time>
      </trkpt>
      <trkpt lat="43.96656" lon="7.41471">
        <ele>1073</ele>
        <time>2024-07-09T07:31:30Z</time>
      </trkpt>
      <trkpt lat="43.96658" lon="7.41472">
        <ele>1073</ele>
        <time>2024-07-09T07:31:31Z</time>
      </trkpt>
      <trkpt lat="43.96659" lon="7.41474">
        <ele>1073.6</ele>
        <time>2024-07-09T07:31:32Z</time>
      </trkpt>
      <trkpt lat="43.96661" lon="7.41475">
        <ele>1073.8</ele>
        <time>2024-07-09T07:31:33Z</time>
      </trkpt>
      <trkpt lat="43.96662" lon="7.41476">
        <ele>1073.8</ele>
        <time>2024-07-09T07:31:34Z</time>
      </trkpt>
      <trkpt lat="43.96663" lon="7.41477">
        <ele>1073.8</ele>
        <time>2024-07-09T07:31:35Z</time>
      </trkpt>
      <trkpt lat="43.96664" lon="7.41479">
        <ele>1073.8</ele>
        <time>2024-07-09T07:31:36Z</time>
      </trkpt>
      <trkpt lat="43.96665" lon="7.41481">
        <ele>1074.2</ele>
        <time>2024-07-09T07:31:37Z</time>
      </trkpt>
      <trkpt lat="43.96666" lon="7.41482">
        <ele>1074.6</ele>
        <time>2024-07-09T07:31:38Z</time>
      </trkpt>
      <trkpt lat="43.96667" lon="7.41484">
        <ele>1074.6</ele>
        <time>2024-07-09T07:31:39Z</time>
      </trkpt>
      <trkpt lat="43.96668" lon="7.41486">
        <ele>1074.6</ele>
        <time>2024-07-09T07:31:40Z</time>
      </trkpt>
      <trkpt lat="43.96669" lon="7.41488">
        <ele>1075</ele>
        <time>2024-07-09T07:31:41Z</time>
      </trkpt>
      <trkpt lat="43.9667" lon="7.4149">
        <ele>1075.2</ele>
        <time>2024-07-09T07:31:42Z</time>
      </trkpt>
      <trkpt lat="43.96671" lon="7.41493">
        <ele>1075.2</ele>
        <time>2024-07-09T07:31:43Z</time>
      </trkpt>
      <trkpt lat="43.96673" lon="7.41495">
        <ele>1075.2</ele>
        <time>2024-07-09T07:31:44Z</time>
      </trkpt>
      <trkpt lat="43.96674" lon="7.41497">
        <ele>1075.8</ele>
        <time>2024-07-09T07:31:45Z</time>
      </trkpt>
      <trkpt lat="43.96675" lon="7.41499">
        <ele>1076</ele>
        <time>2024-07-09T07:31:46Z</time>
      </trkpt>
      <trkpt lat="43.96676" lon="7.41501">
        <ele>1076</ele>
        <time>2024-07-09T07:31:47Z</time>
      </trkpt>
      <trkpt lat="43.96677" lon="7.41502">
        <ele>1076</ele>
        <time>2024-07-09T07:31:48Z</time>
      </trkpt>
      <trkpt lat="43.96678" lon="7.41504">
        <ele>1076</ele>
        <time>2024-07-09T07:31:49Z</time>
      </trkpt>
      <trkpt lat="43.96679" lon="7.41506">
        <ele>1076.4</ele>
        <time>2024-07-09T07:31:50Z</time>
      </trkpt>
      <trkpt lat="43.9668" lon="7.41507">
        <ele>1076.6</ele>
        <time>2024-07-09T07:31:51Z</time>
      </trkpt>
      <trkpt lat="43.96681" lon="7.41509">
        <ele>1076.6</ele>
        <time>2024-07-09T07:31:52Z</time>
      </trkpt>
      <trkpt lat="43.96683" lon="7.4151">
        <ele>1076.6</ele>
        <time>2024-07-09T07:31:53Z</time>
      </trkpt>
      <trkpt lat="43.96684" lon="7.41512">
        <ele>1077</ele>
        <time>2024-07-09T07:31:54Z</time>
      </trkpt>
      <trkpt lat="43.96685" lon="7.41513">
        <ele>1077</ele>
        <time>2024-07-09T07:31:55Z</time>
      </trkpt>
      <trkpt lat="43.96687" lon="7.41514">
        <ele>1077</ele>
        <time>2024-07-09T07:31:56Z</time>
      </trkpt>
      <trkpt lat="43.96688" lon="7.41516">
        <ele>1077</ele>
        <time>2024-07-09T07:31:57Z</time>
      </trkpt>
      <trkpt lat="43.9669" lon="7.41517">
        <ele>1077</ele>
        <time>2024-07-09T07:31:58Z</time>
      </trkpt>
      <trkpt lat="43.96692" lon="7.41518">
        <ele>1077</ele>
        <time>2024-07-09T07:31:59Z</time>
      </trkpt>
      <trkpt lat="43.96693" lon="7.41519">
        <ele>1077</ele>
        <time>2024-07-09T07:32:00Z</time>
      </trkpt>
      <trkpt lat="43.96695" lon="7.4152">
        <ele>1077.4</ele>
        <time>2024-07-09T07:32:01Z</time>
      </trkpt>
      <trkpt lat="43.96697" lon="7.41521">
        <ele>1077.4</ele>
        <time>2024-07-09T07:32:02Z</time>
      </trkpt>
      <trkpt lat="43.96699" lon="7.41521">
        <ele>1077.4</ele>
        <time>2024-07-09T07:32:03Z</time>
      </trkpt>
      <trkpt lat="43.967" lon="7.4152">
        <ele>1078</ele>
        <time>2024-07-09T07:32:04Z</time>
      </trkpt>
      <trkpt lat="43.96702" lon="7.4152">
        <ele>1078.2</ele>
        <time>2024-07-09T07:32:05Z</time>
      </trkpt>
      <trkpt lat="43.96704" lon="7.41519">
        <ele>1078.2</ele>
        <time>2024-07-09T07:32:06Z</time>
      </trkpt>
      <trkpt lat="43.96706" lon="7.41519">
        <ele>1078.2</ele>
        <time>2024-07-09T07:32:07Z</time>
      </trkpt>
      <trkpt lat="43.96708" lon="7.41518">
        <ele>1078.2</ele>
        <time>2024-07-09T07:32:08Z</time>
      </trkpt>
      <trkpt lat="43.9671" lon="7.41517">
        <ele>1078.6</ele>
        <time>2024-07-09T07:32:09Z</time>
      </trkpt>
      <trkpt lat="43.96712" lon="7.41516">
        <ele>1078.6</ele>
        <time>2024-07-09T07:32:10Z</time>
      </trkpt>
      <trkpt lat="43.96713" lon="7.41514">
        <ele>1078.6</ele>
        <time>2024-07-09T07:32:11Z</time>
      </trkpt>
      <trkpt lat="43.96715" lon="7.41513">
        <ele>1078.6</ele>
        <time>2024-07-09T07:32:12Z</time>
      </trkpt>
      <trkpt lat="43.96717" lon="7.41511">
        <ele>1079.2</ele>
        <time>2024-07-09T07:32:13Z</time>
      </trkpt>
      <trkpt lat="43.96719" lon="7.41509">
        <ele>1079.2</ele>
        <time>2024-07-09T07:32:14Z</time>
      </trkpt>
      <trkpt lat="43.96721" lon="7.41508">
        <ele>1079.2</ele>
        <time>2024-07-09T07:32:15Z</time>
      </trkpt>
      <trkpt lat="43.96722" lon="7.41506">
        <ele>1079.2</ele>
        <time>2024-07-09T07:32:16Z</time>
      </trkpt>
      <trkpt lat="43.96724" lon="7.41505">
        <ele>1079.6</ele>
        <time>2024-07-09T07:32:17Z</time>
      </trkpt>
      <trkpt lat="43.96726" lon="7.41503">
        <ele>1079.8</ele>
        <time>2024-07-09T07:32:18Z</time>
      </trkpt>
      <trkpt lat="43.96727" lon="7.41501">
        <ele>1079.8</ele>
        <time>2024-07-09T07:32:19Z</time>
      </trkpt>
      <trkpt lat="43.96729" lon="7.41499">
        <ele>1079.8</ele>
        <time>2024-07-09T07:32:20Z</time>
      </trkpt>
      <trkpt lat="43.9673" lon="7.41497">
        <ele>1080.4</ele>
        <time>2024-07-09T07:32:21Z</time>
      </trkpt>
      <trkpt lat="43.96732" lon="7.41496">
        <ele>1080.4</ele>
        <time>2024-07-09T07:32:22Z</time>
      </trkpt>
      <trkpt lat="43.96733" lon="7.41494">
        <ele>1080.4</ele>
        <time>2024-07-09T07:32:23Z</time>
      </trkpt>
      <trkpt lat="43.96735" lon="7.41492">
        <ele>1080.4</ele>
        <time>2024-07-09T07:32:24Z</time>
      </trkpt>
      <trkpt lat="43.96736" lon="7.4149">
        <ele>1080.4</ele>
        <time>2024-07-09T07:32:25Z</time>
      </trkpt>
      <trkpt lat="43.96737" lon="7.41488">
        <ele>1080.8</ele>
        <time>2024-07-09T07:32:26Z</time>
      </trkpt>
      <trkpt lat="43.96739" lon="7.41486">
        <ele>1081.2</ele>
        <time>2024-07-09T07:32:27Z</time>
      </trkpt>
      <trkpt lat="43.96741" lon="7.41485">
        <ele>1081.2</ele>
        <time>2024-07-09T07:32:28Z</time>
      </trkpt>
      <trkpt lat="43.96742" lon="7.41483">
        <ele>1081.2</ele>
        <time>2024-07-09T07:32:29Z</time>
      </trkpt>
      <trkpt lat="43.96744" lon="7.41482">
        <ele>1081.2</ele>
        <time>2024-07-09T07:32:30Z</time>
      </trkpt>
      <trkpt lat="43.96745" lon="7.41479">
        <ele>1081.6</ele>
        <time>2024-07-09T07:32:31Z</time>
      </trkpt>
      <trkpt lat="43.96747" lon="7.41478">
        <ele>1081.6</ele>
        <time>2024-07-09T07:32:32Z</time>
      </trkpt>
      <trkpt lat="43.96748" lon="7.41476">
        <ele>1081.6</ele>
        <time>2024-07-09T07:32:33Z</time>
      </trkpt>
      <trkpt lat="43.9675" lon="7.41474">
        <ele>1081.6</ele>
        <time>2024-07-09T07:32:34Z</time>
      </trkpt>
      <trkpt lat="43.96751" lon="7.41472">
        <ele>1082.2</ele>
        <time>2024-07-09T07:32:35Z</time>
      </trkpt>
      <trkpt lat="43.96753" lon="7.4147">
        <ele>1082.4</ele>
        <time>2024-07-09T07:32:36Z</time>
      </trkpt>
      <trkpt lat="43.96754" lon="7.41469">
        <ele>1082.4</ele>
        <time>2024-07-09T07:32:37Z</time>
      </trkpt>
      <trkpt lat="43.96755" lon="7.41467">
        <ele>1082.4</ele>
        <time>2024-07-09T07:32:38Z</time>
      </trkpt>
      <trkpt lat="43.96756" lon="7.41465">
        <ele>1083</ele>
        <time>2024-07-09T07:32:39Z</time>
      </trkpt>
      <trkpt lat="43.96758" lon="7.41463">
        <ele>1083</ele>
        <time>2024-07-09T07:32:40Z</time>
      </trkpt>
      <trkpt lat="43.96759" lon="7.41462">
        <ele>1083.2</ele>
        <time>2024-07-09T07:32:41Z</time>
      </trkpt>
      <trkpt lat="43.9676" lon="7.4146">
        <ele>1083.2</ele>
        <time>2024-07-09T07:32:42Z</time>
      </trkpt>
      <trkpt lat="43.96761" lon="7.41459">
        <ele>1083.2</ele>
        <time>2024-07-09T07:32:43Z</time>
      </trkpt>
      <trkpt lat="43.96763" lon="7.41458">
        <ele>1083.2</ele>
        <time>2024-07-09T07:32:44Z</time>
      </trkpt>
      <trkpt lat="43.96765" lon="7.41456">
        <ele>1083.6</ele>
        <time>2024-07-09T07:32:45Z</time>
      </trkpt>
      <trkpt lat="43.96766" lon="7.41455">
        <ele>1083.6</ele>
        <time>2024-07-09T07:32:46Z</time>
      </trkpt>
      <trkpt lat="43.96768" lon="7.41454">
        <ele>1083.6</ele>
        <time>2024-07-09T07:32:47Z</time>
      </trkpt>
      <trkpt lat="43.9677" lon="7.41453">
        <ele>1083.6</ele>
        <time>2024-07-09T07:32:48Z</time>
      </trkpt>
      <trkpt lat="43.96772" lon="7.41451">
        <ele>1084.4</ele>
        <time>2024-07-09T07:32:49Z</time>
      </trkpt>
      <trkpt lat="43.96774" lon="7.4145">
        <ele>1084.6</ele>
        <time>2024-07-09T07:32:50Z</time>
      </trkpt>
      <trkpt lat="43.96775" lon="7.41448">
        <ele>1084.6</ele>
        <time>2024-07-09T07:32:51Z</time>
      </trkpt>
      <trkpt lat="43.96777" lon="7.41447">
        <ele>1084.6</ele>
        <time>2024-07-09T07:32:52Z</time>
      </trkpt>
      <trkpt lat="43.96779" lon="7.41445">
        <ele>1084.6</ele>
        <time>2024-07-09T07:32:53Z</time>
      </trkpt>
      <trkpt lat="43.96781" lon="7.41443">
        <ele>1085</ele>
        <time>2024-07-09T07:32:54Z</time>
      </trkpt>
      <trkpt lat="43.96782" lon="7.41441">
        <ele>1085</ele>
        <time>2024-07-09T07:32:55Z</time>
      </trkpt>
      <trkpt lat="43.96785" lon="7.41441">
        <ele>1085</ele>
        <time>2024-07-09T07:32:56Z</time>
      </trkpt>
      <trkpt lat="43.96786" lon="7.41439">
        <ele>1085</ele>
        <time>2024-07-09T07:32:57Z</time>
      </trkpt>
      <trkpt lat="43.96788" lon="7.41437">
        <ele>1085.8</ele>
        <time>2024-07-09T07:32:58Z</time>
      </trkpt>
      <trkpt lat="43.96789" lon="7.41436">
        <ele>1085.8</ele>
        <time>2024-07-09T07:32:59Z</time>
      </trkpt>
      <trkpt lat="43.96791" lon="7.41435">
        <ele>1085.8</ele>
        <time>2024-07-09T07:33:00Z</time>
      </trkpt>
      <trkpt lat="43.96793" lon="7.41434">
        <ele>1085.8</ele>
        <time>2024-07-09T07:33:01Z</time>
      </trkpt>
      <trkpt lat="43.96795" lon="7.41433">
        <ele>1086.4</ele>
        <time>2024-07-09T07:33:02Z</time>
      </trkpt>
      <trkpt lat="43.96797" lon="7.41431">
        <ele>1086.4</ele>
        <time>2024-07-09T07:33:03Z</time>
      </trkpt>
      <trkpt lat="43.96799" lon="7.4143">
        <ele>1086.4</ele>
        <time>2024-07-09T07:33:04Z</time>
      </trkpt>
      <trkpt lat="43.96801" lon="7.41428">
        <ele>1086.4</ele>
        <time>2024-07-09T07:33:05Z</time>
      </trkpt>
      <trkpt lat="43.96802" lon="7.41426">
        <ele>1086.6</ele>
        <time>2024-07-09T07:33:06Z</time>
      </trkpt>
      <trkpt lat="43.96804" lon="7.41425">
        <ele>1087</ele>
        <time>2024-07-09T07:33:07Z</time>
      </trkpt>
      <trkpt lat="43.96806" lon="7.41424">
        <ele>1087</ele>
        <time>2024-07-09T07:33:08Z</time>
      </trkpt>
      <trkpt lat="43.96808" lon="7.41423">
        <ele>1087</ele>
        <time>2024-07-09T07:33:09Z</time>
      </trkpt>
      <trkpt lat="43.96811" lon="7.41422">
        <ele>1087</ele>
        <time>2024-07-09T07:33:10Z</time>
      </trkpt>
      <trkpt lat="43.96813" lon="7.41421">
        <ele>1087.2</ele>
        <time>2024-07-09T07:33:11Z</time>
      </trkpt>
      <trkpt lat="43.96815" lon="7.41421">
        <ele>1087.6</ele>
        <time>2024-07-09T07:33:12Z</time>
      </trkpt>
      <trkpt lat="43.96817" lon="7.4142">
        <ele>1087.6</ele>
        <time>2024-07-09T07:33:13Z</time>
      </trkpt>
      <trkpt lat="43.9682" lon="7.4142">
        <ele>1087.6</ele>
        <time>2024-07-09T07:33:14Z</time>
      </trkpt>
      <trkpt lat="43.96822" lon="7.41419">
        <ele>1088.2</ele>
        <time>2024-07-09T07:33:15Z</time>
      </trkpt>
      <trkpt lat="43.96824" lon="7.41419">
        <ele>1088</ele>
        <time>2024-07-09T07:33:16Z</time>
      </trkpt>
      <trkpt lat="43.96825" lon="7.41418">
        <ele>1088</ele>
        <time>2024-07-09T07:33:17Z</time>
      </trkpt>
      <trkpt lat="43.96828" lon="7.41418">
        <ele>1088</ele>
        <time>2024-07-09T07:33:18Z</time>
      </trkpt>
      <trkpt lat="43.9683" lon="7.41417">
        <ele>1088</ele>
        <time>2024-07-09T07:33:19Z</time>
      </trkpt>
      <trkpt lat="43.96832" lon="7.41417">
        <ele>1088.4</ele>
        <time>2024-07-09T07:33:20Z</time>
      </trkpt>
      <trkpt lat="43.96834" lon="7.41416">
        <ele>1088.4</ele>
        <time>2024-07-09T07:33:21Z</time>
      </trkpt>
      <trkpt lat="43.96836" lon="7.41416">
        <ele>1088.4</ele>
        <time>2024-07-09T07:33:22Z</time>
      </trkpt>
      <trkpt lat="43.96839" lon="7.41416">
        <ele>1088.4</ele>
        <time>2024-07-09T07:33:23Z</time>
      </trkpt>
      <trkpt lat="43.96841" lon="7.41415">
        <ele>1088.4</ele>
        <time>2024-07-09T07:33:24Z</time>
      </trkpt>
      <trkpt lat="43.96843" lon="7.41414">
        <ele>1089.2</ele>
        <time>2024-07-09T07:33:25Z</time>
      </trkpt>
      <trkpt lat="43.96845" lon="7.41413">
        <ele>1089.2</ele>
        <time>2024-07-09T07:33:26Z</time>
      </trkpt>
      <trkpt lat="43.96847" lon="7.41412">
        <ele>1089.2</ele>
        <time>2024-07-09T07:33:27Z</time>
      </trkpt>
      <trkpt lat="43.96848" lon="7.41411">
        <ele>1089.2</ele>
        <time>2024-07-09T07:33:28Z</time>
      </trkpt>
      <trkpt lat="43.9685" lon="7.4141">
        <ele>1089.6</ele>
        <time>2024-07-09T07:33:29Z</time>
      </trkpt>
      <trkpt lat="43.96852" lon="7.4141">
        <ele>1089.6</ele>
        <time>2024-07-09T07:33:30Z</time>
      </trkpt>
      <trkpt lat="43.96854" lon="7.41409">
        <ele>1089.6</ele>
        <time>2024-07-09T07:33:31Z</time>
      </trkpt>
      <trkpt lat="43.96856" lon="7.4141">
        <ele>1089.6</ele>
        <time>2024-07-09T07:33:32Z</time>
      </trkpt>
      <trkpt lat="43.96858" lon="7.4141">
        <ele>1089.6</ele>
        <time>2024-07-09T07:33:33Z</time>
      </trkpt>
      <trkpt lat="43.9686" lon="7.41411">
        <ele>1090.2</ele>
        <time>2024-07-09T07:33:34Z</time>
      </trkpt>
      <trkpt lat="43.96861" lon="7.41412">
        <ele>1090.6</ele>
        <time>2024-07-09T07:33:35Z</time>
      </trkpt>
      <trkpt lat="43.96863" lon="7.41413">
        <ele>1090.6</ele>
        <time>2024-07-09T07:33:36Z</time>
      </trkpt>
      <trkpt lat="43.96864" lon="7.41415">
        <ele>1090.6</ele>
        <time>2024-07-09T07:33:37Z</time>
      </trkpt>
      <trkpt lat="43.96866" lon="7.41417">
        <ele>1090.6</ele>
        <time>2024-07-09T07:33:38Z</time>
      </trkpt>
      <trkpt lat="43.96868" lon="7.41419">
        <ele>1091</ele>
        <time>2024-07-09T07:33:39Z</time>
      </trkpt>
      <trkpt lat="43.9687" lon="7.41421">
        <ele>1091</ele>
        <time>2024-07-09T07:33:40Z</time>
      </trkpt>
      <trkpt lat="43.96872" lon="7.41424">
        <ele>1091</ele>
        <time>2024-07-09T07:33:41Z</time>
      </trkpt>
      <trkpt lat="43.96874" lon="7.41426">
        <ele>1091</ele>
        <time>2024-07-09T07:33:42Z</time>
      </trkpt>
      <trkpt lat="43.96875" lon="7.41427">
        <ele>1091.6</ele>
        <time>2024-07-09T07:33:43Z</time>
      </trkpt>
      <trkpt lat="43.96877" lon="7.41429">
        <ele>1091.6</ele>
        <time>2024-07-09T07:33:44Z</time>
      </trkpt>
      <trkpt lat="43.96878" lon="7.41431">
        <ele>1091.6</ele>
        <time>2024-07-09T07:33:45Z</time>
      </trkpt>
      <trkpt lat="43.96879" lon="7.41434">
        <ele>1091.6</ele>
        <time>2024-07-09T07:33:46Z</time>
      </trkpt>
      <trkpt lat="43.96881" lon="7.41435">
        <ele>1092.2</ele>
        <time>2024-07-09T07:33:47Z</time>
      </trkpt>
      <trkpt lat="43.96882" lon="7.41437">
        <ele>1092.4</ele>
        <time>2024-07-09T07:33:48Z</time>
      </trkpt>
      <trkpt lat="43.96884" lon="7.41439">
        <ele>1092.4</ele>
        <time>2024-07-09T07:33:49Z</time>
      </trkpt>
      <trkpt lat="43.96886" lon="7.4144">
        <ele>1092.4</ele>
        <time>2024-07-09T07:33:50Z</time>
      </trkpt>
      <trkpt lat="43.96887" lon="7.41442">
        <ele>1093</ele>
        <time>2024-07-09T07:33:51Z</time>
      </trkpt>
      <trkpt lat="43.96889" lon="7.41443">
        <ele>1093</ele>
        <time>2024-07-09T07:33:52Z</time>
      </trkpt>
      <trkpt lat="43.96891" lon="7.41445">
        <ele>1093.2</ele>
        <time>2024-07-09T07:33:53Z</time>
      </trkpt>
      <trkpt lat="43.96894" lon="7.41445">
        <ele>1093.2</ele>
        <time>2024-07-09T07:33:54Z</time>
      </trkpt>
      <trkpt lat="43.96896" lon="7.41445">
        <ele>1093.2</ele>
        <time>2024-07-09T07:33:55Z</time>
      </trkpt>
      <trkpt lat="43.96898" lon="7.41446">
        <ele>1093.8</ele>
        <time>2024-07-09T07:33:56Z</time>
      </trkpt>
      <trkpt lat="43.969" lon="7.41445">
        <ele>1094</ele>
        <time>2024-07-09T07:33:57Z</time>
      </trkpt>
      <trkpt lat="43.96902" lon="7.41445">
        <ele>1094</ele>
        <time>2024-07-09T07:33:58Z</time>
      </trkpt>
      <trkpt lat="43.96904" lon="7.41444">
        <ele>1094</ele>
        <time>2024-07-09T07:33:59Z</time>
      </trkpt>
      <trkpt lat="43.96905" lon="7.41443">
        <ele>1094.6</ele>
        <time>2024-07-09T07:34:00Z</time>
      </trkpt>
      <trkpt lat="43.96907" lon="7.41442">
        <ele>1094.8</ele>
        <time>2024-07-09T07:34:01Z</time>
      </trkpt>
      <trkpt lat="43.96909" lon="7.41441">
        <ele>1094.8</ele>
        <time>2024-07-09T07:34:02Z</time>
      </trkpt>
      <trkpt lat="43.9691" lon="7.41439">
        <ele>1094.8</ele>
        <time>2024-07-09T07:34:03Z</time>
      </trkpt>
      <trkpt lat="43.96912" lon="7.41438">
        <ele>1094.8</ele>
        <time>2024-07-09T07:34:04Z</time>
      </trkpt>
      <trkpt lat="43.96913" lon="7.41437">
        <ele>1094.8</ele>
        <time>2024-07-09T07:34:05Z</time>
      </trkpt>
      <trkpt lat="43.96915" lon="7.41436">
        <ele>1094.8</ele>
        <time>2024-07-09T07:34:06Z</time>
      </trkpt>
      <trkpt lat="43.96916" lon="7.41434">
        <ele>1095.6</ele>
        <time>2024-07-09T07:34:07Z</time>
      </trkpt>
      <trkpt lat="43.96917" lon="7.41433">
        <ele>1095.6</ele>
        <time>2024-07-09T07:34:08Z</time>
      </trkpt>
      <trkpt lat="43.96918" lon="7.41431">
        <ele>1095.6</ele>
        <time>2024-07-09T07:34:09Z</time>
      </trkpt>
      <trkpt lat="43.96919" lon="7.4143">
        <ele>1095.6</ele>
        <time>2024-07-09T07:34:10Z</time>
      </trkpt>
      <trkpt lat="43.9692" lon="7.41428">
        <ele>1096.2</ele>
        <time>2024-07-09T07:34:11Z</time>
      </trkpt>
      <trkpt lat="43.96921" lon="7.41427">
        <ele>1096.2</ele>
        <time>2024-07-09T07:34:12Z</time>
      </trkpt>
      <trkpt lat="43.96922" lon="7.41425">
        <ele>1096.2</ele>
        <time>2024-07-09T07:34:13Z</time>
      </trkpt>
      <trkpt lat="43.96923" lon="7.41424">
        <ele>1096.2</ele>
        <time>2024-07-09T07:34:14Z</time>
      </trkpt>
      <trkpt lat="43.96925" lon="7.41422">
        <ele>1096.6</ele>
        <time>2024-07-09T07:34:15Z</time>
      </trkpt>
      <trkpt lat="43.96926" lon="7.41421">
        <ele>1096.6</ele>
        <time>2024-07-09T07:34:16Z</time>
      </trkpt>
      <trkpt lat="43.96927" lon="7.41419">
        <ele>1096.6</ele>
        <time>2024-07-09T07:34:17Z</time>
      </trkpt>
      <trkpt lat="43.96929" lon="7.41417">
        <ele>1096.6</ele>
        <time>2024-07-09T07:34:18Z</time>
      </trkpt>
      <trkpt lat="43.9693" lon="7.41414">
        <ele>1097.2</ele>
        <time>2024-07-09T07:34:19Z</time>
      </trkpt>
      <trkpt lat="43.96931" lon="7.41413">
        <ele>1097.2</ele>
        <time>2024-07-09T07:34:20Z</time>
      </trkpt>
      <trkpt lat="43.96933" lon="7.41411">
        <ele>1097.2</ele>
        <time>2024-07-09T07:34:21Z</time>
      </trkpt>
      <trkpt lat="43.96934" lon="7.41409">
        <ele>1097.2</ele>
        <time>2024-07-09T07:34:22Z</time>
      </trkpt>
      <trkpt lat="43.96935" lon="7.41407">
        <ele>1097.2</ele>
        <time>2024-07-09T07:34:23Z</time>
      </trkpt>
      <trkpt lat="43.96936" lon="7.41405">
        <ele>1097.6</ele>
        <time>2024-07-09T07:34:24Z</time>
      </trkpt>
      <trkpt lat="43.96937" lon="7.41404">
        <ele>1097.8</ele>
        <time>2024-07-09T07:34:25Z</time>
      </trkpt>
      <trkpt lat="43.96938" lon="7.41402">
        <ele>1097.8</ele>
        <time>2024-07-09T07:34:26Z</time>
      </trkpt>
      <trkpt lat="43.96939" lon="7.414">
        <ele>1097.8</ele>
        <time>2024-07-09T07:34:27Z</time>
      </trkpt>
      <trkpt lat="43.9694" lon="7.41398">
        <ele>1098.2</ele>
        <time>2024-07-09T07:34:28Z</time>
      </trkpt>
      <trkpt lat="43.96941" lon="7.41397">
        <ele>1098.4</ele>
        <time>2024-07-09T07:34:29Z</time>
      </trkpt>
      <trkpt lat="43.96942" lon="7.41396">
        <ele>1098.4</ele>
        <time>2024-07-09T07:34:30Z</time>
      </trkpt>
      <trkpt lat="43.96943" lon="7.41394">
        <ele>1098.4</ele>
        <time>2024-07-09T07:34:31Z</time>
      </trkpt>
      <trkpt lat="43.96944" lon="7.41393">
        <ele>1099</ele>
        <time>2024-07-09T07:34:32Z</time>
      </trkpt>
      <trkpt lat="43.96946" lon="7.41391">
        <ele>1099</ele>
        <time>2024-07-09T07:34:33Z</time>
      </trkpt>
      <trkpt lat="43.96947" lon="7.41389">
        <ele>1099</ele>
        <time>2024-07-09T07:34:34Z</time>
      </trkpt>
      <trkpt lat="43.96948" lon="7.41388">
        <ele>1099</ele>
        <time>2024-07-09T07:34:35Z</time>
      </trkpt>
      <trkpt lat="43.96949" lon="7.41387">
        <ele>1099</ele>
        <time>2024-07-09T07:34:36Z</time>
      </trkpt>
      <trkpt lat="43.9695" lon="7.41385">
        <ele>1099</ele>
        <time>2024-07-09T07:34:37Z</time>
      </trkpt>
      <trkpt lat="43.96951" lon="7.41384">
        <ele>1099.4</ele>
        <time>2024-07-09T07:34:38Z</time>
      </trkpt>
      <trkpt lat="43.96952" lon="7.41381">
        <ele>1099.4</ele>
        <time>2024-07-09T07:34:39Z</time>
      </trkpt>
      <trkpt lat="43.96953" lon="7.41379">
        <ele>1099.4</ele>
        <time>2024-07-09T07:34:40Z</time>
      </trkpt>
      <trkpt lat="43.96954" lon="7.41377">
        <ele>1099.8</ele>
        <time>2024-07-09T07:34:41Z</time>
      </trkpt>
      <trkpt lat="43.96956" lon="7.41375">
        <ele>1100.2</ele>
        <time>2024-07-09T07:34:42Z</time>
      </trkpt>
      <trkpt lat="43.96957" lon="7.41373">
        <ele>1100.2</ele>
        <time>2024-07-09T07:34:43Z</time>
      </trkpt>
      <trkpt lat="43.96959" lon="7.41372">
        <ele>1100.2</ele>
        <time>2024-07-09T07:34:44Z</time>
      </trkpt>
      <trkpt lat="43.9696" lon="7.41371">
        <ele>1100.6</ele>
        <time>2024-07-09T07:34:45Z</time>
      </trkpt>
      <trkpt lat="43.96961" lon="7.41369">
        <ele>1100.6</ele>
        <time>2024-07-09T07:34:46Z</time>
      </trkpt>
      <trkpt lat="43.96963" lon="7.41367">
        <ele>1100.6</ele>
        <time>2024-07-09T07:34:47Z</time>
      </trkpt>
      <trkpt lat="43.96964" lon="7.41365">
        <ele>1100.6</ele>
        <time>2024-07-09T07:34:48Z</time>
      </trkpt>
      <trkpt lat="43.96964" lon="7.41364">
        <ele>1100.6</ele>
        <time>2024-07-09T07:34:49Z</time>
      </trkpt>
      <trkpt lat="43.96965" lon="7.41363">
        <ele>1100.6</ele>
        <time>2024-07-09T07:34:50Z</time>
      </trkpt>
      <trkpt lat="43.96966" lon="7.41362">
        <ele>1101.2</ele>
        <time>2024-07-09T07:34:51Z</time>
      </trkpt>
      <trkpt lat="43.96967" lon="7.41361">
        <ele>1101.2</ele>
        <time>2024-07-09T07:34:52Z</time>
      </trkpt>
      <trkpt lat="43.96968" lon="7.41358">
        <ele>1101.2</ele>
        <time>2024-07-09T07:34:53Z</time>
      </trkpt>
      <trkpt lat="43.9697" lon="7.41356">
        <ele>1101.2</ele>
        <time>2024-07-09T07:34:54Z</time>
      </trkpt>
      <trkpt lat="43.96972" lon="7.41355">
        <ele>1101.6</ele>
        <time>2024-07-09T07:34:55Z</time>
      </trkpt>
      <trkpt lat="43.96974" lon="7.41354">
        <ele>1101.8</ele>
        <time>2024-07-09T07:34:56Z</time>
      </trkpt>
      <trkpt lat="43.96975" lon="7.41353">
        <ele>1101.8</ele>
        <time>2024-07-09T07:34:57Z</time>
      </trkpt>
      <trkpt lat="43.96978" lon="7.41353">
        <ele>1101.8</ele>
        <time>2024-07-09T07:34:58Z</time>
      </trkpt>
      <trkpt lat="43.9698" lon="7.41352">
        <ele>1101.8</ele>
        <time>2024-07-09T07:34:59Z</time>
      </trkpt>
      <trkpt lat="43.96982" lon="7.41351">
        <ele>1102.4</ele>
        <time>2024-07-09T07:35:00Z</time>
      </trkpt>
      <trkpt lat="43.96984" lon="7.41351">
        <ele>1102.6</ele>
        <time>2024-07-09T07:35:01Z</time>
      </trkpt>
      <trkpt lat="43.96986" lon="7.41349">
        <ele>1102.6</ele>
        <time>2024-07-09T07:35:02Z</time>
      </trkpt>
      <trkpt lat="43.96988" lon="7.41348">
        <ele>1102.6</ele>
        <time>2024-07-09T07:35:03Z</time>
      </trkpt>
      <trkpt lat="43.9699" lon="7.41347">
        <ele>1103.4</ele>
        <time>2024-07-09T07:35:04Z</time>
      </trkpt>
      <trkpt lat="43.96992" lon="7.41346">
        <ele>1103.4</ele>
        <time>2024-07-09T07:35:05Z</time>
      </trkpt>
      <trkpt lat="43.96994" lon="7.41345">
        <ele>1103.4</ele>
        <time>2024-07-09T07:35:06Z</time>
      </trkpt>
      <trkpt lat="43.96996" lon="7.41344">
        <ele>1103.4</ele>
        <time>2024-07-09T07:35:07Z</time>
      </trkpt>
      <trkpt lat="43.96997" lon="7.41343">
        <ele>1104</ele>
        <time>2024-07-09T07:35:08Z</time>
      </trkpt>
      <trkpt lat="43.96999" lon="7.41342">
        <ele>1103.8</ele>
        <time>2024-07-09T07:35:09Z</time>
      </trkpt>
      <trkpt lat="43.97001" lon="7.4134">
        <ele>1103.8</ele>
        <time>2024-07-09T07:35:10Z</time>
      </trkpt>
      <trkpt lat="43.97002" lon="7.41339">
        <ele>1103.8</ele>
        <time>2024-07-09T07:35:11Z</time>
      </trkpt>
      <trkpt lat="43.97004" lon="7.41337">
        <ele>1103.8</ele>
        <time>2024-07-09T07:35:12Z</time>
      </trkpt>
      <trkpt lat="43.97005" lon="7.41336">
        <ele>1104.6</ele>
        <time>2024-07-09T07:35:13Z</time>
      </trkpt>
      <trkpt lat="43.97007" lon="7.41334">
        <ele>1104.6</ele>
        <time>2024-07-09T07:35:14Z</time>
      </trkpt>
      <trkpt lat="43.97008" lon="7.41333">
        <ele>1104.6</ele>
        <time>2024-07-09T07:35:15Z</time>
      </trkpt>
      <trkpt lat="43.9701" lon="7.41331">
        <ele>1104.6</ele>
        <time>2024-07-09T07:35:16Z</time>
      </trkpt>
      <trkpt lat="43.97012" lon="7.4133">
        <ele>1105</ele>
        <time>2024-07-09T07:35:17Z</time>
      </trkpt>
      <trkpt lat="43.97014" lon="7.41328">
        <ele>1105.4</ele>
        <time>2024-07-09T07:35:18Z</time>
      </trkpt>
      <trkpt lat="43.97015" lon="7.41327">
        <ele>1105.4</ele>
        <time>2024-07-09T07:35:19Z</time>
      </trkpt>
      <trkpt lat="43.97017" lon="7.41325">
        <ele>1105.4</ele>
        <time>2024-07-09T07:35:20Z</time>
      </trkpt>
      <trkpt lat="43.97018" lon="7.41324">
        <ele>1105.4</ele>
        <time>2024-07-09T07:35:21Z</time>
      </trkpt>
      <trkpt lat="43.9702" lon="7.41322">
        <ele>1105.6</ele>
        <time>2024-07-09T07:35:22Z</time>
      </trkpt>
      <trkpt lat="43.97022" lon="7.41321">
        <ele>1105.8</ele>
        <time>2024-07-09T07:35:23Z</time>
      </trkpt>
      <trkpt lat="43.97024" lon="7.4132">
        <ele>1105.8</ele>
        <time>2024-07-09T07:35:24Z</time>
      </trkpt>
      <trkpt lat="43.97025" lon="7.41318">
        <ele>1105.8</ele>
        <time>2024-07-09T07:35:25Z</time>
      </trkpt>
      <trkpt lat="43.97026" lon="7.41316">
        <ele>1105.8</ele>
        <time>2024-07-09T07:35:26Z</time>
      </trkpt>
      <trkpt lat="43.97028" lon="7.41314">
        <ele>1106</ele>
        <time>2024-07-09T07:35:27Z</time>
      </trkpt>
      <trkpt lat="43.97029" lon="7.41313">
        <ele>1106</ele>
        <time>2024-07-09T07:35:28Z</time>
      </trkpt>
      <trkpt lat="43.9703" lon="7.41312">
        <ele>1106</ele>
        <time>2024-07-09T07:35:29Z</time>
      </trkpt>
      <trkpt lat="43.97032" lon="7.4131">
        <ele>1106.6</ele>
        <time>2024-07-09T07:35:30Z</time>
      </trkpt>
      <trkpt lat="43.97033" lon="7.41308">
        <ele>1106.6</ele>
        <time>2024-07-09T07:35:31Z</time>
      </trkpt>
      <trkpt lat="43.97035" lon="7.41307">
        <ele>1106.8</ele>
        <time>2024-07-09T07:35:32Z</time>
      </trkpt>
      <trkpt lat="43.97037" lon="7.41306">
        <ele>1106.8</ele>
        <time>2024-07-09T07:35:33Z</time>
      </trkpt>
      <trkpt lat="43.97038" lon="7.41305">
        <ele>1106.8</ele>
        <time>2024-07-09T07:35:34Z</time>
      </trkpt>
      <trkpt lat="43.9704" lon="7.41303">
        <ele>1106.8</ele>
        <time>2024-07-09T07:35:35Z</time>
      </trkpt>
      <trkpt lat="43.97041" lon="7.41302">
        <ele>1107.4</ele>
        <time>2024-07-09T07:35:36Z</time>
      </trkpt>
      <trkpt lat="43.97042" lon="7.41302">
        <ele>1107.4</ele>
        <time>2024-07-09T07:35:37Z</time>
      </trkpt>
      <trkpt lat="43.97044" lon="7.41301">
        <ele>1107.4</ele>
        <time>2024-07-09T07:35:38Z</time>
      </trkpt>
      <trkpt lat="43.97046" lon="7.41301">
        <ele>1107.4</ele>
        <time>2024-07-09T07:35:39Z</time>
      </trkpt>
      <trkpt lat="43.97047" lon="7.41301">
        <ele>1108</ele>
        <time>2024-07-09T07:35:40Z</time>
      </trkpt>
      <trkpt lat="43.97049" lon="7.41301">
        <ele>1107.8</ele>
        <time>2024-07-09T07:35:41Z</time>
      </trkpt>
      <trkpt lat="43.9705" lon="7.413">
        <ele>1107.8</ele>
        <time>2024-07-09T07:35:42Z</time>
      </trkpt>
      <trkpt lat="43.97051" lon="7.413">
        <ele>1107.8</ele>
        <time>2024-07-09T07:35:43Z</time>
      </trkpt>
      <trkpt lat="43.97053" lon="7.41299">
        <ele>1108.6</ele>
        <time>2024-07-09T07:35:44Z</time>
      </trkpt>
      <trkpt lat="43.97054" lon="7.41299">
        <ele>1108.6</ele>
        <time>2024-07-09T07:35:45Z</time>
      </trkpt>
      <trkpt lat="43.97055" lon="7.41299">
        <ele>1108.8</ele>
        <time>2024-07-09T07:35:46Z</time>
      </trkpt>
      <trkpt lat="43.97056" lon="7.41298">
        <ele>1108.8</ele>
        <time>2024-07-09T07:35:47Z</time>
      </trkpt>
      <trkpt lat="43.97058" lon="7.41297">
        <ele>1108.8</ele>
        <time>2024-07-09T07:35:48Z</time>
      </trkpt>
      <trkpt lat="43.97059" lon="7.41296">
        <ele>1108.8</ele>
        <time>2024-07-09T07:35:49Z</time>
      </trkpt>
      <trkpt lat="43.9706" lon="7.41296">
        <ele>1109.2</ele>
        <time>2024-07-09T07:35:50Z</time>
      </trkpt>
      <trkpt lat="43.97061" lon="7.41296">
        <ele>1109.2</ele>
        <time>2024-07-09T07:35:51Z</time>
      </trkpt>
      <trkpt lat="43.97063" lon="7.41296">
        <ele>1109.2</ele>
        <time>2024-07-09T07:35:52Z</time>
      </trkpt>
      <trkpt lat="43.97064" lon="7.41295">
        <ele>1109.6</ele>
        <time>2024-07-09T07:35:53Z</time>
      </trkpt>
      <trkpt lat="43.97065" lon="7.41294">
        <ele>1109.8</ele>
        <time>2024-07-09T07:35:54Z</time>
      </trkpt>
      <trkpt lat="43.97066" lon="7.41294">
        <ele>1109.8</ele>
        <time>2024-07-09T07:35:55Z</time>
      </trkpt>
      <trkpt lat="43.97067" lon="7.41293">
        <ele>1109.8</ele>
        <time>2024-07-09T07:35:56Z</time>
      </trkpt>
      <trkpt lat="43.97069" lon="7.41292">
        <ele>1109.8</ele>
        <time>2024-07-09T07:35:57Z</time>
      </trkpt>
      <trkpt lat="43.9707" lon="7.41291">
        <ele>1110.2</ele>
        <time>2024-07-09T07:35:58Z</time>
      </trkpt>
      <trkpt lat="43.97072" lon="7.4129">
        <ele>1110.4</ele>
        <time>2024-07-09T07:35:59Z</time>
      </trkpt>
      <trkpt lat="43.97073" lon="7.41289">
        <ele>1110.4</ele>
        <time>2024-07-09T07:36:00Z</time>
      </trkpt>
      <trkpt lat="43.97074" lon="7.41289">
        <ele>1110.4</ele>
        <time>2024-07-09T07:36:01Z</time>
      </trkpt>
      <trkpt lat="43.97075" lon="7.41288">
        <ele>1111.2</ele>
        <time>2024-07-09T07:36:02Z</time>
      </trkpt>
      <trkpt lat="43.97077" lon="7.41288">
        <ele>1111.2</ele>
        <time>2024-07-09T07:36:03Z</time>
      </trkpt>
      <trkpt lat="43.97078" lon="7.41287">
        <ele>1111.2</ele>
        <time>2024-07-09T07:36:04Z</time>
      </trkpt>
      <trkpt lat="43.9708" lon="7.41287">
        <ele>1111.2</ele>
        <time>2024-07-09T07:36:05Z</time>
      </trkpt>
      <trkpt lat="43.97082" lon="7.41286">
        <ele>1111.8</ele>
        <time>2024-07-09T07:36:06Z</time>
      </trkpt>
      <trkpt lat="43.97083" lon="7.41285">
        <ele>1111.8</ele>
        <time>2024-07-09T07:36:07Z</time>
      </trkpt>
      <trkpt lat="43.97085" lon="7.41285">
        <ele>1111.8</ele>
        <time>2024-07-09T07:36:08Z</time>
      </trkpt>
      <trkpt lat="43.97086" lon="7.41284">
        <ele>1111.8</ele>
        <time>2024-07-09T07:36:09Z</time>
      </trkpt>
      <trkpt lat="43.97087" lon="7.41284">
        <ele>1111.8</ele>
        <time>2024-07-09T07:36:10Z</time>
      </trkpt>
      <trkpt lat="43.97089" lon="7.41283">
        <ele>1112.2</ele>
        <time>2024-07-09T07:36:11Z</time>
      </trkpt>
      <trkpt lat="43.9709" lon="7.41281">
        <ele>1112.6</ele>
        <time>2024-07-09T07:36:12Z</time>
      </trkpt>
      <trkpt lat="43.97092" lon="7.4128">
        <ele>1112.6</ele>
        <time>2024-07-09T07:36:13Z</time>
      </trkpt>
      <trkpt lat="43.97094" lon="7.41278">
        <ele>1112.6</ele>
        <time>2024-07-09T07:36:14Z</time>
      </trkpt>
      <trkpt lat="43.97096" lon="7.41276">
        <ele>1112.6</ele>
        <time>2024-07-09T07:36:15Z</time>
      </trkpt>
      <trkpt lat="43.97097" lon="7.41275">
        <ele>1113.2</ele>
        <time>2024-07-09T07:36:16Z</time>
      </trkpt>
      <trkpt lat="43.97098" lon="7.41272">
        <ele>1113.2</ele>
        <time>2024-07-09T07:36:17Z</time>
      </trkpt>
      <trkpt lat="43.97099" lon="7.4127">
        <ele>1113.2</ele>
        <time>2024-07-09T07:36:18Z</time>
      </trkpt>
      <trkpt lat="43.971" lon="7.41267">
        <ele>1113.2</ele>
        <time>2024-07-09T07:36:19Z</time>
      </trkpt>
      <trkpt lat="43.97101" lon="7.41265">
        <ele>1113.2</ele>
        <time>2024-07-09T07:36:20Z</time>
      </trkpt>
      <trkpt lat="43.97102" lon="7.41262">
        <ele>1113.8</ele>
        <time>2024-07-09T07:36:21Z</time>
      </trkpt>
      <trkpt lat="43.97103" lon="7.41261">
        <ele>1114.2</ele>
        <time>2024-07-09T07:36:22Z</time>
      </trkpt>
      <trkpt lat="43.97104" lon="7.41259">
        <ele>1114.2</ele>
        <time>2024-07-09T07:36:23Z</time>
      </trkpt>
      <trkpt lat="43.97105" lon="7.41258">
        <ele>1114.2</ele>
        <time>2024-07-09T07:36:24Z</time>
      </trkpt>
      <trkpt lat="43.97106" lon="7.41256">
        <ele>1114.8</ele>
        <time>2024-07-09T07:36:25Z</time>
      </trkpt>
      <trkpt lat="43.97108" lon="7.41255">
        <ele>1115.2</ele>
        <time>2024-07-09T07:36:26Z</time>
      </trkpt>
      <trkpt lat="43.97109" lon="7.41254">
        <ele>1115.2</ele>
        <time>2024-07-09T07:36:27Z</time>
      </trkpt>
      <trkpt lat="43.9711" lon="7.41253">
        <ele>1115.2</ele>
        <time>2024-07-09T07:36:28Z</time>
      </trkpt>
      <trkpt lat="43.9711" lon="7.41252">
        <ele>1115.2</ele>
        <time>2024-07-09T07:36:29Z</time>
      </trkpt>
      <trkpt lat="43.97111" lon="7.4125">
        <ele>1115.6</ele>
        <time>2024-07-09T07:36:30Z</time>
      </trkpt>
      <trkpt lat="43.97112" lon="7.41249">
        <ele>1115.6</ele>
        <time>2024-07-09T07:36:31Z</time>
      </trkpt>
      <trkpt lat="43.97112" lon="7.41248">
        <ele>1115.6</ele>
        <time>2024-07-09T07:36:32Z</time>
      </trkpt>
      <trkpt lat="43.97112" lon="7.41247">
        <ele>1115.6</ele>
        <time>2024-07-09T07:36:33Z</time>
      </trkpt>
      <trkpt lat="43.97113" lon="7.41245">
        <ele>1116.2</ele>
        <time>2024-07-09T07:36:34Z</time>
      </trkpt>
      <trkpt lat="43.97114" lon="7.41244">
        <ele>1116.4</ele>
        <time>2024-07-09T07:36:35Z</time>
      </trkpt>
      <trkpt lat="43.97115" lon="7.41242">
        <ele>1116.4</ele>
        <time>2024-07-09T07:36:36Z</time>
      </trkpt>
      <trkpt lat="43.97115" lon="7.4124">
        <ele>1116.4</ele>
        <time>2024-07-09T07:36:37Z</time>
      </trkpt>
      <trkpt lat="43.97116" lon="7.41238">
        <ele>1116.4</ele>
        <time>2024-07-09T07:36:38Z</time>
      </trkpt>
      <trkpt lat="43.97116" lon="7.41235">
        <ele>1117</ele>
        <time>2024-07-09T07:36:39Z</time>
      </trkpt>
      <trkpt lat="43.97117" lon="7.41234">
        <ele>1117</ele>
        <time>2024-07-09T07:36:40Z</time>
      </trkpt>
      <trkpt lat="43.97118" lon="7.41232">
        <ele>1117</ele>
        <time>2024-07-09T07:36:41Z</time>
      </trkpt>
      <trkpt lat="43.97119" lon="7.41231">
        <ele>1117.8</ele>
        <time>2024-07-09T07:36:42Z</time>
      </trkpt>
      <trkpt lat="43.9712" lon="7.41229">
        <ele>1117.8</ele>
        <time>2024-07-09T07:36:43Z</time>
      </trkpt>
      <trkpt lat="43.97121" lon="7.41227">
        <ele>1117.8</ele>
        <time>2024-07-09T07:36:44Z</time>
      </trkpt>
      <trkpt lat="43.97122" lon="7.41226">
        <ele>1117.8</ele>
        <time>2024-07-09T07:36:45Z</time>
      </trkpt>
      <trkpt lat="43.97123" lon="7.41224">
        <ele>1117.8</ele>
        <time>2024-07-09T07:36:46Z</time>
      </trkpt>
      <trkpt lat="43.97124" lon="7.41222">
        <ele>1118.2</ele>
        <time>2024-07-09T07:36:47Z</time>
      </trkpt>
      <trkpt lat="43.97125" lon="7.4122">
        <ele>1118.4</ele>
        <time>2024-07-09T07:36:48Z</time>
      </trkpt>
      <trkpt lat="43.97126" lon="7.41217">
        <ele>1118.4</ele>
        <time>2024-07-09T07:36:49Z</time>
      </trkpt>
      <trkpt lat="43.97127" lon="7.41214">
        <ele>1118.4</ele>
        <time>2024-07-09T07:36:50Z</time>
      </trkpt>
      <trkpt lat="43.97128" lon="7.41212">
        <ele>1119.2</ele>
        <time>2024-07-09T07:36:51Z</time>
      </trkpt>
      <trkpt lat="43.97129" lon="7.4121">
        <ele>1119.2</ele>
        <time>2024-07-09T07:36:52Z</time>
      </trkpt>
      <trkpt lat="43.97131" lon="7.41209">
        <ele>1119.2</ele>
        <time>2024-07-09T07:36:53Z</time>
      </trkpt>
      <trkpt lat="43.97132" lon="7.41207">
        <ele>1119.2</ele>
        <time>2024-07-09T07:36:54Z</time>
      </trkpt>
      <trkpt lat="43.97133" lon="7.41205">
        <ele>1119.2</ele>
        <time>2024-07-09T07:36:55Z</time>
      </trkpt>
      <trkpt lat="43.97135" lon="7.41204">
        <ele>1119.2</ele>
        <time>2024-07-09T07:36:56Z</time>
      </trkpt>
      <trkpt lat="43.97136" lon="7.41204">
        <ele>1119.8</ele>
        <time>2024-07-09T07:36:57Z</time>
      </trkpt>
      <trkpt lat="43.97138" lon="7.41204">
        <ele>1119.8</ele>
        <time>2024-07-09T07:36:58Z</time>
      </trkpt>
      <trkpt lat="43.9714" lon="7.41204">
        <ele>1119.8</ele>
        <time>2024-07-09T07:36:59Z</time>
      </trkpt>
      <trkpt lat="43.97142" lon="7.41204">
        <ele>1119.8</ele>
        <time>2024-07-09T07:37:00Z</time>
      </trkpt>
      <trkpt lat="43.97143" lon="7.41204">
        <ele>1119.8</ele>
        <time>2024-07-09T07:37:01Z</time>
      </trkpt>
      <trkpt lat="43.97145" lon="7.41205">
        <ele>1120.2</ele>
        <time>2024-07-09T07:37:02Z</time>
      </trkpt>
      <trkpt lat="43.97146" lon="7.41205">
        <ele>1120.2</ele>
        <time>2024-07-09T07:37:03Z</time>
      </trkpt>
      <trkpt lat="43.97147" lon="7.41206">
        <ele>1120.2</ele>
        <time>2024-07-09T07:37:04Z</time>
      </trkpt>
      <trkpt lat="43.97149" lon="7.41208">
        <ele>1120.2</ele>
        <time>2024-07-09T07:37:05Z</time>
      </trkpt>
      <trkpt lat="43.9715" lon="7.4121">
        <ele>1120.8</ele>
        <time>2024-07-09T07:37:06Z</time>
      </trkpt>
      <trkpt lat="43.9715" lon="7.41212">
        <ele>1120.8</ele>
        <time>2024-07-09T07:37:07Z</time>
      </trkpt>
      <trkpt lat="43.97151" lon="7.41214">
        <ele>1120.8</ele>
        <time>2024-07-09T07:37:08Z</time>
      </trkpt>
      <trkpt lat="43.97152" lon="7.41216">
        <ele>1120.8</ele>
        <time>2024-07-09T07:37:09Z</time>
      </trkpt>
      <trkpt lat="43.97152" lon="7.41218">
        <ele>1121.4</ele>
        <time>2024-07-09T07:37:10Z</time>
      </trkpt>
      <trkpt lat="43.97154" lon="7.4122">
        <ele>1121.4</ele>
        <time>2024-07-09T07:37:11Z</time>
      </trkpt>
      <trkpt lat="43.97155" lon="7.41221">
        <ele>1121.4</ele>
        <time>2024-07-09T07:37:12Z</time>
      </trkpt>
      <trkpt lat="43.97155" lon="7.41223">
        <ele>1121.4</ele>
        <time>2024-07-09T07:37:13Z</time>
      </trkpt>
      <trkpt lat="43.97156" lon="7.41225">
        <ele>1121.6</ele>
        <time>2024-07-09T07:37:14Z</time>
      </trkpt>
      <trkpt lat="43.97157" lon="7.41227">
        <ele>1122</ele>
        <time>2024-07-09T07:37:15Z</time>
      </trkpt>
      <trkpt lat="43.97158" lon="7.41228">
        <ele>1122</ele>
        <time>2024-07-09T07:37:16Z</time>
      </trkpt>
      <trkpt lat="43.97159" lon="7.4123">
        <ele>1122</ele>
        <time>2024-07-09T07:37:17Z</time>
      </trkpt>
      <trkpt lat="43.9716" lon="7.41231">
        <ele>1122</ele>
        <time>2024-07-09T07:37:18Z</time>
      </trkpt>
      <trkpt lat="43.97161" lon="7.41233">
        <ele>1122.4</ele>
        <time>2024-07-09T07:37:19Z</time>
      </trkpt>
      <trkpt lat="43.97162" lon="7.41234">
        <ele>1122.4</ele>
        <time>2024-07-09T07:37:20Z</time>
      </trkpt>
      <trkpt lat="43.97164" lon="7.41234">
        <ele>1122.4</ele>
        <time>2024-07-09T07:37:21Z</time>
      </trkpt>
      <trkpt lat="43.97165" lon="7.41235">
        <ele>1122.4</ele>
        <time>2024-07-09T07:37:22Z</time>
      </trkpt>
      <trkpt lat="43.97167" lon="7.41235">
        <ele>1122.8</ele>
        <time>2024-07-09T07:37:23Z</time>
      </trkpt>
      <trkpt lat="43.97168" lon="7.41236">
        <ele>1123</ele>
        <time>2024-07-09T07:37:24Z</time>
      </trkpt>
      <trkpt lat="43.9717" lon="7.41236">
        <ele>1123</ele>
        <time>2024-07-09T07:37:25Z</time>
      </trkpt>
      <trkpt lat="43.97172" lon="7.41237">
        <ele>1123</ele>
        <time>2024-07-09T07:37:26Z</time>
      </trkpt>
      <trkpt lat="43.97173" lon="7.41237">
        <ele>1123</ele>
        <time>2024-07-09T07:37:27Z</time>
      </trkpt>
      <trkpt lat="43.97175" lon="7.41237">
        <ele>1123.2</ele>
        <time>2024-07-09T07:37:28Z</time>
      </trkpt>
      <trkpt lat="43.97176" lon="7.41237">
        <ele>1123.6</ele>
        <time>2024-07-09T07:37:29Z</time>
      </trkpt>
      <trkpt lat="43.97178" lon="7.41236">
        <ele>1123.6</ele>
        <time>2024-07-09T07:37:30Z</time>
      </trkpt>
      <trkpt lat="43.97179" lon="7.41235">
        <ele>1123.6</ele>
        <time>2024-07-09T07:37:31Z</time>
      </trkpt>
      <trkpt lat="43.97181" lon="7.41235">
        <ele>1123.6</ele>
        <time>2024-07-09T07:37:32Z</time>
      </trkpt>
      <trkpt lat="43.97182" lon="7.41235">
        <ele>1124.2</ele>
        <time>2024-07-09T07:37:33Z</time>
      </trkpt>
      <trkpt lat="43.97183" lon="7.41235">
        <ele>1124.2</ele>
        <time>2024-07-09T07:37:34Z</time>
      </trkpt>
      <trkpt lat="43.97185" lon="7.41235">
        <ele>1124.2</ele>
        <time>2024-07-09T07:37:35Z</time>
      </trkpt>
      <trkpt lat="43.97187" lon="7.41234">
        <ele>1124.4</ele>
        <time>2024-07-09T07:37:36Z</time>
      </trkpt>
      <trkpt lat="43.97188" lon="7.41234">
        <ele>1124.4</ele>
        <time>2024-07-09T07:37:37Z</time>
      </trkpt>
      <trkpt lat="43.97189" lon="7.41233">
        <ele>1124.6</ele>
        <time>2024-07-09T07:37:38Z</time>
      </trkpt>
      <trkpt lat="43.9719" lon="7.41233">
        <ele>1124.6</ele>
        <time>2024-07-09T07:37:39Z</time>
      </trkpt>
      <trkpt lat="43.97191" lon="7.41233">
        <ele>1124.6</ele>
        <time>2024-07-09T07:37:40Z</time>
      </trkpt>
      <trkpt lat="43.97191" lon="7.41233">
        <ele>1124.6</ele>
        <time>2024-07-09T07:37:41Z</time>
      </trkpt>
      <trkpt lat="43.97198" lon="7.41234">
        <ele>1125.4</ele>
        <time>2024-07-09T07:43:01Z</time>
      </trkpt>
      <trkpt lat="43.97199" lon="7.41232">
        <ele>1125.4</ele>
        <time>2024-07-09T07:43:02Z</time>
      </trkpt>
      <trkpt lat="43.97201" lon="7.41231">
        <ele>1125.8</ele>
        <time>2024-07-09T07:43:03Z</time>
      </trkpt>
      <trkpt lat="43.97203" lon="7.4123">
        <ele>1125.8</ele>
        <time>2024-07-09T07:43:04Z</time>
      </trkpt>
      <trkpt lat="43.97204" lon="7.41229">
        <ele>1126.2</ele>
        <time>2024-07-09T07:43:05Z</time>
      </trkpt>
      <trkpt lat="43.97206" lon="7.41228">
        <ele>1126.2</ele>
        <time>2024-07-09T07:43:06Z</time>
      </trkpt>
      <trkpt lat="43.97207" lon="7.41227">
        <ele>1126.2</ele>
        <time>2024-07-09T07:43:07Z</time>
      </trkpt>
      <trkpt lat="43.97209" lon="7.41226">
        <ele>1126.4</ele>
        <time>2024-07-09T07:43:08Z</time>
      </trkpt>
      <trkpt lat="43.97211" lon="7.41226">
        <ele>1126.6</ele>
        <time>2024-07-09T07:43:09Z</time>
      </trkpt>
      <trkpt lat="43.97213" lon="7.41225">
        <ele>1126.6</ele>
        <time>2024-07-09T07:43:10Z</time>
      </trkpt>
      <trkpt lat="43.97214" lon="7.41225">
        <ele>1126.6</ele>
        <time>2024-07-09T07:43:11Z</time>
      </trkpt>
      <trkpt lat="43.97216" lon="7.41224">
        <ele>1127.2</ele>
        <time>2024-07-09T07:43:12Z</time>
      </trkpt>
      <trkpt lat="43.97217" lon="7.41223">
        <ele>1127.2</ele>
        <time>2024-07-09T07:43:13Z</time>
      </trkpt>
      <trkpt lat="43.97219" lon="7.41222">
        <ele>1127.2</ele>
        <time>2024-07-09T07:43:14Z</time>
      </trkpt>
      <trkpt lat="43.97221" lon="7.41221">
        <ele>1127.2</ele>
        <time>2024-07-09T07:43:15Z</time>
      </trkpt>
      <trkpt lat="43.97222" lon="7.41221">
        <ele>1127.2</ele>
        <time>2024-07-09T07:43:16Z</time>
      </trkpt>
      <trkpt lat="43.97224" lon="7.4122">
        <ele>1127.2</ele>
        <time>2024-07-09T07:43:17Z</time>
      </trkpt>
      <trkpt lat="43.97226" lon="7.4122">
        <ele>1127.8</ele>
        <time>2024-07-09T07:43:18Z</time>
      </trkpt>
      <trkpt lat="43.97227" lon="7.41219">
        <ele>1128</ele>
        <time>2024-07-09T07:43:19Z</time>
      </trkpt>
      <trkpt lat="43.97229" lon="7.41218">
        <ele>1128</ele>
        <time>2024-07-09T07:43:20Z</time>
      </trkpt>
      <trkpt lat="43.9723" lon="7.41217">
        <ele>1128</ele>
        <time>2024-07-09T07:43:21Z</time>
      </trkpt>
      <trkpt lat="43.97232" lon="7.41217">
        <ele>1128.4</ele>
        <time>2024-07-09T07:43:22Z</time>
      </trkpt>
      <trkpt lat="43.97234" lon="7.41216">
        <ele>1128.4</ele>
        <time>2024-07-09T07:43:23Z</time>
      </trkpt>
      <trkpt lat="43.97235" lon="7.41216">
        <ele>1128.4</ele>
        <time>2024-07-09T07:43:24Z</time>
      </trkpt>
      <trkpt lat="43.97237" lon="7.41215">
        <ele>1128.4</ele>
        <time>2024-07-09T07:43:25Z</time>
      </trkpt>
      <trkpt lat="43.97238" lon="7.41215">
        <ele>1128.6</ele>
        <time>2024-07-09T07:43:26Z</time>
      </trkpt>
      <trkpt lat="43.9724" lon="7.41215">
        <ele>1128.6</ele>
        <time>2024-07-09T07:43:27Z</time>
      </trkpt>
      <trkpt lat="43.97241" lon="7.41214">
        <ele>1128.6</ele>
        <time>2024-07-09T07:43:28Z</time>
      </trkpt>
      <trkpt lat="43.97243" lon="7.41214">
        <ele>1128.6</ele>
        <time>2024-07-09T07:43:29Z</time>
      </trkpt>
      <trkpt lat="43.97244" lon="7.41213">
        <ele>1128.6</ele>
        <time>2024-07-09T07:43:30Z</time>
      </trkpt>
      <trkpt lat="43.97246" lon="7.41212">
        <ele>1129.2</ele>
        <time>2024-07-09T07:43:31Z</time>
      </trkpt>
      <trkpt lat="43.97247" lon="7.41211">
        <ele>1129.4</ele>
        <time>2024-07-09T07:43:32Z</time>
      </trkpt>
      <trkpt lat="43.97249" lon="7.4121">
        <ele>1129.4</ele>
        <time>2024-07-09T07:43:33Z</time>
      </trkpt>
      <trkpt lat="43.9725" lon="7.41209">
        <ele>1129.4</ele>
        <time>2024-07-09T07:43:34Z</time>
      </trkpt>
      <trkpt lat="43.97252" lon="7.41208">
        <ele>1130</ele>
        <time>2024-07-09T07:43:35Z</time>
      </trkpt>
      <trkpt lat="43.97253" lon="7.41208">
        <ele>1130</ele>
        <time>2024-07-09T07:43:36Z</time>
      </trkpt>
      <trkpt lat="43.97255" lon="7.41208">
        <ele>1130</ele>
        <time>2024-07-09T07:43:37Z</time>
      </trkpt>
      <trkpt lat="43.97256" lon="7.41207">
        <ele>1130</ele>
        <time>2024-07-09T07:43:38Z</time>
      </trkpt>
      <trkpt lat="43.97258" lon="7.41207">
        <ele>1130</ele>
        <time>2024-07-09T07:43:39Z</time>
      </trkpt>
      <trkpt lat="43.97259" lon="7.41206">
        <ele>1130.6</ele>
        <time>2024-07-09T07:43:40Z</time>
      </trkpt>
      <trkpt lat="43.97261" lon="7.41204">
        <ele>1130.8</ele>
        <time>2024-07-09T07:43:41Z</time>
      </trkpt>
      <trkpt lat="43.97262" lon="7.41203">
        <ele>1130.8</ele>
        <time>2024-07-09T07:43:42Z</time>
      </trkpt>
      <trkpt lat="43.97263" lon="7.41202">
        <ele>1130.8</ele>
        <time>2024-07-09T07:43:43Z</time>
      </trkpt>
      <trkpt lat="43.97265" lon="7.41201">
        <ele>1131.2</ele>
        <time>2024-07-09T07:43:44Z</time>
      </trkpt>
      <trkpt lat="43.97266" lon="7.412">
        <ele>1131.2</ele>
        <time>2024-07-09T07:43:45Z</time>
      </trkpt>
      <trkpt lat="43.97268" lon="7.41199">
        <ele>1131.2</ele>
        <time>2024-07-09T07:43:46Z</time>
      </trkpt>
      <trkpt lat="43.97269" lon="7.41199">
        <ele>1131.2</ele>
        <time>2024-07-09T07:43:47Z</time>
      </trkpt>
      <trkpt lat="43.97271" lon="7.41199">
        <ele>1131.2</ele>
        <time>2024-07-09T07:43:48Z</time>
      </trkpt>
      <trkpt lat="43.97273" lon="7.41198">
        <ele>1131.8</ele>
        <time>2024-07-09T07:43:49Z</time>
      </trkpt>
      <trkpt lat="43.97274" lon="7.41198">
        <ele>1131.8</ele>
        <time>2024-07-09T07:43:50Z</time>
      </trkpt>
      <trkpt lat="43.97276" lon="7.41198">
        <ele>1131.8</ele>
        <time>2024-07-09T07:43:51Z</time>
      </trkpt>
      <trkpt lat="43.97278" lon="7.41197">
        <ele>1131.8</ele>
        <time>2024-07-09T07:43:52Z</time>
      </trkpt>
      <trkpt lat="43.97279" lon="7.41196">
        <ele>1132.2</ele>
        <time>2024-07-09T07:43:53Z</time>
      </trkpt>
      <trkpt lat="43.9728" lon="7.41196">
        <ele>1132.6</ele>
        <time>2024-07-09T07:43:54Z</time>
      </trkpt>
      <trkpt lat="43.97281" lon="7.41195">
        <ele>1132.6</ele>
        <time>2024-07-09T07:43:55Z</time>
      </trkpt>
      <trkpt lat="43.97283" lon="7.41195">
        <ele>1132.6</ele>
        <time>2024-07-09T07:43:56Z</time>
      </trkpt>
      <trkpt lat="43.97284" lon="7.41194">
        <ele>1132.6</ele>
        <time>2024-07-09T07:43:57Z</time>
      </trkpt>
      <trkpt lat="43.97285" lon="7.41194">
        <ele>1132.6</ele>
        <time>2024-07-09T07:43:58Z</time>
      </trkpt>
      <trkpt lat="43.97287" lon="7.41193">
        <ele>1132.8</ele>
        <time>2024-07-09T07:43:59Z</time>
      </trkpt>
      <trkpt lat="43.97288" lon="7.41193">
        <ele>1133</ele>
        <time>2024-07-09T07:44:00Z</time>
      </trkpt>
      <trkpt lat="43.97289" lon="7.41192">
        <ele>1133</ele>
        <time>2024-07-09T07:44:01Z</time>
      </trkpt>
      <trkpt lat="43.9729" lon="7.41191">
        <ele>1133</ele>
        <time>2024-07-09T07:44:02Z</time>
      </trkpt>
      <trkpt lat="43.97291" lon="7.4119">
        <ele>1133.6</ele>
        <time>2024-07-09T07:44:03Z</time>
      </trkpt>
      <trkpt lat="43.97293" lon="7.41189">
        <ele>1133.8</ele>
        <time>2024-07-09T07:44:04Z</time>
      </trkpt>
      <trkpt lat="43.97295" lon="7.41188">
        <ele>1133.8</ele>
        <time>2024-07-09T07:44:05Z</time>
      </trkpt>
      <trkpt lat="43.97296" lon="7.41187">
        <ele>1133.8</ele>
        <time>2024-07-09T07:44:06Z</time>
      </trkpt>
      <trkpt lat="43.97298" lon="7.41187">
        <ele>1134.4</ele>
        <time>2024-07-09T07:44:07Z</time>
      </trkpt>
      <trkpt lat="43.97299" lon="7.41187">
        <ele>1134.4</ele>
        <time>2024-07-09T07:44:08Z</time>
      </trkpt>
      <trkpt lat="43.97301" lon="7.41186">
        <ele>1134.4</ele>
        <time>2024-07-09T07:44:09Z</time>
      </trkpt>
      <trkpt lat="43.97303" lon="7.41186">
        <ele>1134.4</ele>
        <time>2024-07-09T07:44:10Z</time>
      </trkpt>
      <trkpt lat="43.97305" lon="7.41185">
        <ele>1134.4</ele>
        <time>2024-07-09T07:44:11Z</time>
      </trkpt>
      <trkpt lat="43.97307" lon="7.41185">
        <ele>1135</ele>
        <time>2024-07-09T07:44:12Z</time>
      </trkpt>
      <trkpt lat="43.97308" lon="7.41184">
        <ele>1135</ele>
        <time>2024-07-09T07:44:13Z</time>
      </trkpt>
      <trkpt lat="43.9731" lon="7.41184">
        <ele>1135</ele>
        <time>2024-07-09T07:44:14Z</time>
      </trkpt>
      <trkpt lat="43.97312" lon="7.41183">
        <ele>1135</ele>
        <time>2024-07-09T07:44:15Z</time>
      </trkpt>
      <trkpt lat="43.97314" lon="7.41182">
        <ele>1135.4</ele>
        <time>2024-07-09T07:44:16Z</time>
      </trkpt>
      <trkpt lat="43.97315" lon="7.41182">
        <ele>1135.8</ele>
        <time>2024-07-09T07:44:17Z</time>
      </trkpt>
      <trkpt lat="43.97317" lon="7.41182">
        <ele>1135.8</ele>
        <time>2024-07-09T07:44:18Z</time>
      </trkpt>
      <trkpt lat="43.97318" lon="7.41183">
        <ele>1135.8</ele>
        <time>2024-07-09T07:44:19Z</time>
      </trkpt>
      <trkpt lat="43.9732" lon="7.41183">
        <ele>1136.4</ele>
        <time>2024-07-09T07:44:20Z</time>
      </trkpt>
      <trkpt lat="43.97322" lon="7.41183">
        <ele>1136.4</ele>
        <time>2024-07-09T07:44:21Z</time>
      </trkpt>
      <trkpt lat="43.97323" lon="7.41183">
        <ele>1136.4</ele>
        <time>2024-07-09T07:44:22Z</time>
      </trkpt>
      <trkpt lat="43.97325" lon="7.41183">
        <ele>1136.4</ele>
        <time>2024-07-09T07:44:23Z</time>
      </trkpt>
      <trkpt lat="43.97327" lon="7.41183">
        <ele>1136.4</ele>
        <time>2024-07-09T07:44:24Z</time>
      </trkpt>
      <trkpt lat="43.97329" lon="7.41183">
        <ele>1136.6</ele>
        <time>2024-07-09T07:44:25Z</time>
      </trkpt>
      <trkpt lat="43.9733" lon="7.41183">
        <ele>1136.8</ele>
        <time>2024-07-09T07:44:26Z</time>
      </trkpt>
      <trkpt lat="43.97332" lon="7.41183">
        <ele>1136.8</ele>
        <time>2024-07-09T07:44:27Z</time>
      </trkpt>
      <trkpt lat="43.97334" lon="7.41183">
        <ele>1136.8</ele>
        <time>2024-07-09T07:44:28Z</time>
      </trkpt>
      <trkpt lat="43.97335" lon="7.41183">
        <ele>1137</ele>
        <time>2024-07-09T07:44:29Z</time>
      </trkpt>
      <trkpt lat="43.97337" lon="7.41183">
        <ele>1137.2</ele>
        <time>2024-07-09T07:44:30Z</time>
      </trkpt>
      <trkpt lat="43.97338" lon="7.41183">
        <ele>1137.2</ele>
        <time>2024-07-09T07:44:31Z</time>
      </trkpt>
      <trkpt lat="43.9734" lon="7.41182">
        <ele>1137.2</ele>
        <time>2024-07-09T07:44:32Z</time>
      </trkpt>
      <trkpt lat="43.97342" lon="7.41182">
        <ele>1137.2</ele>
        <time>2024-07-09T07:44:33Z</time>
      </trkpt>
      <trkpt lat="43.97344" lon="7.41181">
        <ele>1137.4</ele>
        <time>2024-07-09T07:44:34Z</time>
      </trkpt>
      <trkpt lat="43.97345" lon="7.4118">
        <ele>1137.6</ele>
        <time>2024-07-09T07:44:35Z</time>
      </trkpt>
      <trkpt lat="43.97347" lon="7.4118">
        <ele>1137.6</ele>
        <time>2024-07-09T07:44:36Z</time>
      </trkpt>
      <trkpt lat="43.97349" lon="7.41179">
        <ele>1137.6</ele>
        <time>2024-07-09T07:44:37Z</time>
      </trkpt>
      <trkpt lat="43.97351" lon="7.41179">
        <ele>1137.8</ele>
        <time>2024-07-09T07:44:38Z</time>
      </trkpt>
      <trkpt lat="43.97352" lon="7.41179">
        <ele>1137.8</ele>
        <time>2024-07-09T07:44:39Z</time>
      </trkpt>
      <trkpt lat="43.97354" lon="7.41179">
        <ele>1137.8</ele>
        <time>2024-07-09T07:44:40Z</time>
      </trkpt>
      <trkpt lat="43.97356" lon="7.41179">
        <ele>1137.8</ele>
        <time>2024-07-09T07:44:41Z</time>
      </trkpt>
      <trkpt lat="43.97358" lon="7.41179">
        <ele>1137.8</ele>
        <time>2024-07-09T07:44:42Z</time>
      </trkpt>
      <trkpt lat="43.9736" lon="7.41179">
        <ele>1138.2</ele>
        <time>2024-07-09T07:44:43Z</time>
      </trkpt>
      <trkpt lat="43.97362" lon="7.41179">
        <ele>1138.2</ele>
        <time>2024-07-09T07:44:44Z</time>
      </trkpt>
      <trkpt lat="43.97364" lon="7.41179">
        <ele>1138.2</ele>
        <time>2024-07-09T07:44:45Z</time>
      </trkpt>
      <trkpt lat="43.97366" lon="7.41179">
        <ele>1138.2</ele>
        <time>2024-07-09T07:44:46Z</time>
      </trkpt>
      <trkpt lat="43.97367" lon="7.41178">
        <ele>1138.2</ele>
        <time>2024-07-09T07:44:47Z</time>
      </trkpt>
      <trkpt lat="43.97369" lon="7.41178">
        <ele>1138.4</ele>
        <time>2024-07-09T07:44:48Z</time>
      </trkpt>
      <trkpt lat="43.97371" lon="7.41178">
        <ele>1138.8</ele>
        <time>2024-07-09T07:44:49Z</time>
      </trkpt>
      <trkpt lat="43.97373" lon="7.41178">
        <ele>1138.8</ele>
        <time>2024-07-09T07:44:50Z</time>
      </trkpt>
      <trkpt lat="43.97374" lon="7.41178">
        <ele>1138.8</ele>
        <time>2024-07-09T07:44:51Z</time>
      </trkpt>
      <trkpt lat="43.97376" lon="7.41178">
        <ele>1139.2</ele>
        <time>2024-07-09T07:44:52Z</time>
      </trkpt>
      <trkpt lat="43.97378" lon="7.41178">
        <ele>1139.4</ele>
        <time>2024-07-09T07:44:53Z</time>
      </trkpt>
      <trkpt lat="43.9738" lon="7.41178">
        <ele>1139.4</ele>
        <time>2024-07-09T07:44:54Z</time>
      </trkpt>
      <trkpt lat="43.97382" lon="7.41178">
        <ele>1139.4</ele>
        <time>2024-07-09T07:44:55Z</time>
      </trkpt>
      <trkpt lat="43.97384" lon="7.41178">
        <ele>1139.6</ele>
        <time>2024-07-09T07:44:56Z</time>
      </trkpt>
      <trkpt lat="43.97386" lon="7.41179">
        <ele>1139.8</ele>
        <time>2024-07-09T07:44:57Z</time>
      </trkpt>
      <trkpt lat="43.97387" lon="7.4118">
        <ele>1139.8</ele>
        <time>2024-07-09T07:44:58Z</time>
      </trkpt>
      <trkpt lat="43.97389" lon="7.41181">
        <ele>1139.8</ele>
        <time>2024-07-09T07:44:59Z</time>
      </trkpt>
      <trkpt lat="43.9739" lon="7.41181">
        <ele>1139.8</ele>
        <time>2024-07-09T07:45:00Z</time>
      </trkpt>
      <trkpt lat="43.97392" lon="7.41182">
        <ele>1140.2</ele>
        <time>2024-07-09T07:45:01Z</time>
      </trkpt>
      <trkpt lat="43.97394" lon="7.41182">
        <ele>1140.4</ele>
        <time>2024-07-09T07:45:02Z</time>
      </trkpt>
      <trkpt lat="43.97396" lon="7.41183">
        <ele>1140.4</ele>
        <time>2024-07-09T07:45:03Z</time>
      </trkpt>
      <trkpt lat="43.97397" lon="7.41183">
        <ele>1140.4</ele>
        <time>2024-07-09T07:45:04Z</time>
      </trkpt>
      <trkpt lat="43.97399" lon="7.41183">
        <ele>1140.8</ele>
        <time>2024-07-09T07:45:05Z</time>
      </trkpt>
      <trkpt lat="43.974" lon="7.41184">
        <ele>1141</ele>
        <time>2024-07-09T07:45:06Z</time>
      </trkpt>
      <trkpt lat="43.97402" lon="7.41185">
        <ele>1141</ele>
        <time>2024-07-09T07:45:07Z</time>
      </trkpt>
      <trkpt lat="43.97404" lon="7.41186">
        <ele>1141</ele>
        <time>2024-07-09T07:45:08Z</time>
      </trkpt>
      <trkpt lat="43.97405" lon="7.41187">
        <ele>1141</ele>
        <time>2024-07-09T07:45:09Z</time>
      </trkpt>
      <trkpt lat="43.97406" lon="7.41188">
        <ele>1141.2</ele>
        <time>2024-07-09T07:45:10Z</time>
      </trkpt>
      <trkpt lat="43.97408" lon="7.41189">
        <ele>1141.2</ele>
        <time>2024-07-09T07:45:11Z</time>
      </trkpt>
      <trkpt lat="43.9741" lon="7.4119">
        <ele>1141.2</ele>
        <time>2024-07-09T07:45:12Z</time>
      </trkpt>
      <trkpt lat="43.97411" lon="7.41191">
        <ele>1141.2</ele>
        <time>2024-07-09T07:45:13Z</time>
      </trkpt>
      <trkpt lat="43.97413" lon="7.41192">
        <ele>1141.8</ele>
        <time>2024-07-09T07:45:14Z</time>
      </trkpt>
      <trkpt lat="43.97415" lon="7.41194">
        <ele>1141.8</ele>
        <time>2024-07-09T07:45:15Z</time>
      </trkpt>
      <trkpt lat="43.97417" lon="7.41195">
        <ele>1141.8</ele>
        <time>2024-07-09T07:45:16Z</time>
      </trkpt>
      <trkpt lat="43.97419" lon="7.41196">
        <ele>1141.8</ele>
        <time>2024-07-09T07:45:17Z</time>
      </trkpt>
      <trkpt lat="43.97421" lon="7.41197">
        <ele>1142.2</ele>
        <time>2024-07-09T07:45:18Z</time>
      </trkpt>
      <trkpt lat="43.97423" lon="7.41198">
        <ele>1142.4</ele>
        <time>2024-07-09T07:45:19Z</time>
      </trkpt>
      <trkpt lat="43.97424" lon="7.41199">
        <ele>1142.4</ele>
        <time>2024-07-09T07:45:20Z</time>
      </trkpt>
      <trkpt lat="43.97426" lon="7.412">
        <ele>1142.4</ele>
        <time>2024-07-09T07:45:21Z</time>
      </trkpt>
      <trkpt lat="43.97428" lon="7.41202">
        <ele>1142.4</ele>
        <time>2024-07-09T07:45:22Z</time>
      </trkpt>
      <trkpt lat="43.9743" lon="7.41203">
        <ele>1142.4</ele>
        <time>2024-07-09T07:45:23Z</time>
      </trkpt>
      <trkpt lat="43.97431" lon="7.41205">
        <ele>1142.6</ele>
        <time>2024-07-09T07:45:24Z</time>
      </trkpt>
      <trkpt lat="43.97433" lon="7.41206">
        <ele>1142.8</ele>
        <time>2024-07-09T07:45:25Z</time>
      </trkpt>
      <trkpt lat="43.97435" lon="7.41207">
        <ele>1142.8</ele>
        <time>2024-07-09T07:45:26Z</time>
      </trkpt>
      <trkpt lat="43.97437" lon="7.41208">
        <ele>1142.8</ele>
        <time>2024-07-09T07:45:27Z</time>
      </trkpt>
      <trkpt lat="43.97439" lon="7.41209">
        <ele>1143.4</ele>
        <time>2024-07-09T07:45:28Z</time>
      </trkpt>
      <trkpt lat="43.97441" lon="7.4121">
        <ele>1143.6</ele>
        <time>2024-07-09T07:45:29Z</time>
      </trkpt>
      <trkpt lat="43.97442" lon="7.41211">
        <ele>1143.6</ele>
        <time>2024-07-09T07:45:30Z</time>
      </trkpt>
      <trkpt lat="43.97444" lon="7.41213">
        <ele>1143.6</ele>
        <time>2024-07-09T07:45:31Z</time>
      </trkpt>
      <trkpt lat="43.97446" lon="7.41214">
        <ele>1143.6</ele>
        <time>2024-07-09T07:45:32Z</time>
      </trkpt>
      <trkpt lat="43.97447" lon="7.41214">
        <ele>1144.2</ele>
        <time>2024-07-09T07:45:33Z</time>
      </trkpt>
      <trkpt lat="43.97449" lon="7.41215">
        <ele>1144.4</ele>
        <time>2024-07-09T07:45:34Z</time>
      </trkpt>
      <trkpt lat="43.97451" lon="7.41216">
        <ele>1144.4</ele>
        <time>2024-07-09T07:45:35Z</time>
      </trkpt>
      <trkpt lat="43.97452" lon="7.41218">
        <ele>1144.4</ele>
        <time>2024-07-09T07:45:36Z</time>
      </trkpt>
      <trkpt lat="43.97454" lon="7.41219">
        <ele>1144.8</ele>
        <time>2024-07-09T07:45:37Z</time>
      </trkpt>
      <trkpt lat="43.97455" lon="7.41219">
        <ele>1145</ele>
        <time>2024-07-09T07:45:38Z</time>
      </trkpt>
      <trkpt lat="43.97457" lon="7.4122">
        <ele>1145</ele>
        <time>2024-07-09T07:45:39Z</time>
      </trkpt>
      <trkpt lat="43.97459" lon="7.4122">
        <ele>1145</ele>
        <time>2024-07-09T07:45:40Z</time>
      </trkpt>
      <trkpt lat="43.9746" lon="7.41221">
        <ele>1145.4</ele>
        <time>2024-07-09T07:45:41Z</time>
      </trkpt>
      <trkpt lat="43.97462" lon="7.41222">
        <ele>1145.6</ele>
        <time>2024-07-09T07:45:42Z</time>
      </trkpt>
      <trkpt lat="43.97463" lon="7.41222">
        <ele>1145.6</ele>
        <time>2024-07-09T07:45:43Z</time>
      </trkpt>
      <trkpt lat="43.97465" lon="7.41223">
        <ele>1145.6</ele>
        <time>2024-07-09T07:45:44Z</time>
      </trkpt>
      <trkpt lat="43.97467" lon="7.41225">
        <ele>1145.6</ele>
        <time>2024-07-09T07:45:45Z</time>
      </trkpt>
      <trkpt lat="43.97469" lon="7.41226">
        <ele>1146</ele>
        <time>2024-07-09T07:45:46Z</time>
      </trkpt>
      <trkpt lat="43.97471" lon="7.41227">
        <ele>1146</ele>
        <time>2024-07-09T07:45:47Z</time>
      </trkpt>
      <trkpt lat="43.97473" lon="7.41229">
        <ele>1146</ele>
        <time>2024-07-09T07:45:48Z</time>
      </trkpt>
      <trkpt lat="43.97475" lon="7.4123">
        <ele>1146</ele>
        <time>2024-07-09T07:45:49Z</time>
      </trkpt>
      <trkpt lat="43.97477" lon="7.41231">
        <ele>1146.6</ele>
        <time>2024-07-09T07:45:50Z</time>
      </trkpt>
      <trkpt lat="43.97479" lon="7.41231">
        <ele>1146.8</ele>
        <time>2024-07-09T07:45:51Z</time>
      </trkpt>
      <trkpt lat="43.97481" lon="7.41231">
        <ele>1146.8</ele>
        <time>2024-07-09T07:45:52Z</time>
      </trkpt>
      <trkpt lat="43.97483" lon="7.41231">
        <ele>1146.8</ele>
        <time>2024-07-09T07:45:53Z</time>
      </trkpt>
      <trkpt lat="43.97485" lon="7.41232">
        <ele>1146.8</ele>
        <time>2024-07-09T07:45:54Z</time>
      </trkpt>
      <trkpt lat="43.97487" lon="7.41232">
        <ele>1147.4</ele>
        <time>2024-07-09T07:45:55Z</time>
      </trkpt>
      <trkpt lat="43.97489" lon="7.41233">
        <ele>1147.2</ele>
        <time>2024-07-09T07:45:56Z</time>
      </trkpt>
      <trkpt lat="43.97491" lon="7.41234">
        <ele>1147.2</ele>
        <time>2024-07-09T07:45:57Z</time>
      </trkpt>
      <trkpt lat="43.97493" lon="7.41235">
        <ele>1147.2</ele>
        <time>2024-07-09T07:45:58Z</time>
      </trkpt>
      <trkpt lat="43.97495" lon="7.41236">
        <ele>1147.6</ele>
        <time>2024-07-09T07:45:59Z</time>
      </trkpt>
      <trkpt lat="43.97496" lon="7.41237">
        <ele>1147.8</ele>
        <time>2024-07-09T07:46:00Z</time>
      </trkpt>
      <trkpt lat="43.97499" lon="7.41237">
        <ele>1147.8</ele>
        <time>2024-07-09T07:46:01Z</time>
      </trkpt>
      <trkpt lat="43.97501" lon="7.41237">
        <ele>1147.8</ele>
        <time>2024-07-09T07:46:02Z</time>
      </trkpt>
      <trkpt lat="43.97503" lon="7.41237">
        <ele>1147.8</ele>
        <time>2024-07-09T07:46:03Z</time>
      </trkpt>
      <trkpt lat="43.97505" lon="7.41236">
        <ele>1148.2</ele>
        <time>2024-07-09T07:46:04Z</time>
      </trkpt>
      <trkpt lat="43.97508" lon="7.41236">
        <ele>1148.2</ele>
        <time>2024-07-09T07:46:05Z</time>
      </trkpt>
      <trkpt lat="43.9751" lon="7.41235">
        <ele>1148.4</ele>
        <time>2024-07-09T07:46:06Z</time>
      </trkpt>
      <trkpt lat="43.97512" lon="7.41234">
        <ele>1148.4</ele>
        <time>2024-07-09T07:46:07Z</time>
      </trkpt>
      <trkpt lat="43.97514" lon="7.41233">
        <ele>1148.4</ele>
        <time>2024-07-09T07:46:08Z</time>
      </trkpt>
      <trkpt lat="43.97516" lon="7.41232">
        <ele>1149</ele>
        <time>2024-07-09T07:46:09Z</time>
      </trkpt>
      <trkpt lat="43.97518" lon="7.41231">
        <ele>1149.2</ele>
        <time>2024-07-09T07:46:10Z</time>
      </trkpt>
      <trkpt lat="43.9752" lon="7.41231">
        <ele>1149.2</ele>
        <time>2024-07-09T07:46:11Z</time>
      </trkpt>
      <trkpt lat="43.97522" lon="7.41231">
        <ele>1149.2</ele>
        <time>2024-07-09T07:46:12Z</time>
      </trkpt>
      <trkpt lat="43.97524" lon="7.41231">
        <ele>1149.2</ele>
        <time>2024-07-09T07:46:13Z</time>
      </trkpt>
      <trkpt lat="43.97525" lon="7.41231">
        <ele>1149.8</ele>
        <time>2024-07-09T07:46:14Z</time>
      </trkpt>
      <trkpt lat="43.97527" lon="7.41231">
        <ele>1149.8</ele>
        <time>2024-07-09T07:46:15Z</time>
      </trkpt>
      <trkpt lat="43.97528" lon="7.41231">
        <ele>1149.8</ele>
        <time>2024-07-09T07:46:16Z</time>
      </trkpt>
      <trkpt lat="43.9753" lon="7.4123">
        <ele>1149.8</ele>
        <time>2024-07-09T07:46:17Z</time>
      </trkpt>
      <trkpt lat="43.97532" lon="7.41229">
        <ele>1150.2</ele>
        <time>2024-07-09T07:46:18Z</time>
      </trkpt>
      <trkpt lat="43.97534" lon="7.41229">
        <ele>1150.2</ele>
        <time>2024-07-09T07:46:19Z</time>
      </trkpt>
      <trkpt lat="43.97535" lon="7.41229">
        <ele>1150.2</ele>
        <time>2024-07-09T07:46:20Z</time>
      </trkpt>
      <trkpt lat="43.97537" lon="7.41228">
        <ele>1150.2</ele>
        <time>2024-07-09T07:46:21Z</time>
      </trkpt>
      <trkpt lat="43.9754" lon="7.41228">
        <ele>1150.8</ele>
        <time>2024-07-09T07:46:22Z</time>
      </trkpt>
      <trkpt lat="43.97542" lon="7.41227">
        <ele>1151</ele>
        <time>2024-07-09T07:46:23Z</time>
      </trkpt>
      <trkpt lat="43.97544" lon="7.41225">
        <ele>1151</ele>
        <time>2024-07-09T07:46:24Z</time>
      </trkpt>
      <trkpt lat="43.97546" lon="7.41224">
        <ele>1151</ele>
        <time>2024-07-09T07:46:25Z</time>
      </trkpt>
      <trkpt lat="43.97547" lon="7.41223">
        <ele>1151</ele>
        <time>2024-07-09T07:46:26Z</time>
      </trkpt>
      <trkpt lat="43.97549" lon="7.41222">
        <ele>1151.6</ele>
        <time>2024-07-09T07:46:27Z</time>
      </trkpt>
      <trkpt lat="43.97551" lon="7.41221">
        <ele>1151.8</ele>
        <time>2024-07-09T07:46:28Z</time>
      </trkpt>
      <trkpt lat="43.97553" lon="7.4122">
        <ele>1151.8</ele>
        <time>2024-07-09T07:46:29Z</time>
      </trkpt>
      <trkpt lat="43.97554" lon="7.41219">
        <ele>1151.8</ele>
        <time>2024-07-09T07:46:30Z</time>
      </trkpt>
      <trkpt lat="43.97556" lon="7.41218">
        <ele>1152.2</ele>
        <time>2024-07-09T07:46:31Z</time>
      </trkpt>
      <trkpt lat="43.97558" lon="7.41217">
        <ele>1152.4</ele>
        <time>2024-07-09T07:46:32Z</time>
      </trkpt>
      <trkpt lat="43.97559" lon="7.41216">
        <ele>1152.4</ele>
        <time>2024-07-09T07:46:33Z</time>
      </trkpt>
      <trkpt lat="43.97561" lon="7.41215">
        <ele>1152.4</ele>
        <time>2024-07-09T07:46:34Z</time>
      </trkpt>
      <trkpt lat="43.97562" lon="7.41214">
        <ele>1152.4</ele>
        <time>2024-07-09T07:46:35Z</time>
      </trkpt>
      <trkpt lat="43.97564" lon="7.41213">
        <ele>1152.4</ele>
        <time>2024-07-09T07:46:36Z</time>
      </trkpt>
      <trkpt lat="43.97566" lon="7.41212">
        <ele>1152.8</ele>
        <time>2024-07-09T07:46:37Z</time>
      </trkpt>
      <trkpt lat="43.97568" lon="7.41212">
        <ele>1152.8</ele>
        <time>2024-07-09T07:46:38Z</time>
      </trkpt>
      <trkpt lat="43.9757" lon="7.41211">
        <ele>1152.8</ele>
        <time>2024-07-09T07:46:39Z</time>
      </trkpt>
      <trkpt lat="43.97572" lon="7.4121">
        <ele>1153.4</ele>
        <time>2024-07-09T07:46:40Z</time>
      </trkpt>
      <trkpt lat="43.97573" lon="7.41209">
        <ele>1153.6</ele>
        <time>2024-07-09T07:46:41Z</time>
      </trkpt>
      <trkpt lat="43.97575" lon="7.41208">
        <ele>1153.6</ele>
        <time>2024-07-09T07:46:42Z</time>
      </trkpt>
      <trkpt lat="43.97577" lon="7.41208">
        <ele>1153.6</ele>
        <time>2024-07-09T07:46:43Z</time>
      </trkpt>
      <trkpt lat="43.97579" lon="7.41207">
        <ele>1153.8</ele>
        <time>2024-07-09T07:46:44Z</time>
      </trkpt>
      <trkpt lat="43.97581" lon="7.41207">
        <ele>1153.8</ele>
        <time>2024-07-09T07:46:45Z</time>
      </trkpt>
      <trkpt lat="43.97582" lon="7.41206">
        <ele>1153.8</ele>
        <time>2024-07-09T07:46:46Z</time>
      </trkpt>
      <trkpt lat="43.97584" lon="7.41205">
        <ele>1153.8</ele>
        <time>2024-07-09T07:46:47Z</time>
      </trkpt>
      <trkpt lat="43.97585" lon="7.41203">
        <ele>1153.8</ele>
        <time>2024-07-09T07:46:48Z</time>
      </trkpt>
      <trkpt lat="43.97586" lon="7.41201">
        <ele>1153.8</ele>
        <time>2024-07-09T07:46:49Z</time>
      </trkpt>
      <trkpt lat="43.97587" lon="7.41199">
        <ele>1154.4</ele>
        <time>2024-07-09T07:46:50Z</time>
      </trkpt>
      <trkpt lat="43.97587" lon="7.41197">
        <ele>1154.6</ele>
        <time>2024-07-09T07:46:51Z</time>
      </trkpt>
      <trkpt lat="43.97586" lon="7.41195">
        <ele>1154.6</ele>
        <time>2024-07-09T07:46:52Z</time>
      </trkpt>
      <trkpt lat="43.97586" lon="7.41193">
        <ele>1154.6</ele>
        <time>2024-07-09T07:46:53Z</time>
      </trkpt>
      <trkpt lat="43.97585" lon="7.41191">
        <ele>1154.6</ele>
        <time>2024-07-09T07:46:54Z</time>
      </trkpt>
      <trkpt lat="43.97584" lon="7.4119">
        <ele>1154.6</ele>
        <time>2024-07-09T07:46:55Z</time>
      </trkpt>
      <trkpt lat="43.97582" lon="7.41189">
        <ele>1154.6</ele>
        <time>2024-07-09T07:46:56Z</time>
      </trkpt>
      <trkpt lat="43.97581" lon="7.4119">
        <ele>1154.6</ele>
        <time>2024-07-09T07:46:57Z</time>
      </trkpt>
      <trkpt lat="43.97579" lon="7.4119">
        <ele>1154.6</ele>
        <time>2024-07-09T07:46:58Z</time>
      </trkpt>
      <trkpt lat="43.97577" lon="7.4119">
        <ele>1154.6</ele>
        <time>2024-07-09T07:46:59Z</time>
      </trkpt>
      <trkpt lat="43.97575" lon="7.41192">
        <ele>1155</ele>
        <time>2024-07-09T07:47:00Z</time>
      </trkpt>
      <trkpt lat="43.97573" lon="7.41193">
        <ele>1155</ele>
        <time>2024-07-09T07:47:01Z</time>
      </trkpt>
      <trkpt lat="43.97571" lon="7.41194">
        <ele>1155</ele>
        <time>2024-07-09T07:47:02Z</time>
      </trkpt>
      <trkpt lat="43.97569" lon="7.41195">
        <ele>1155.4</ele>
        <time>2024-07-09T07:47:03Z</time>
      </trkpt>
      <trkpt lat="43.97567" lon="7.41196">
        <ele>1155.2</ele>
        <time>2024-07-09T07:47:04Z</time>
      </trkpt>
      <trkpt lat="43.97565" lon="7.41198">
        <ele>1155.2</ele>
        <time>2024-07-09T07:47:05Z</time>
      </trkpt>
      <trkpt lat="43.97563" lon="7.41199">
        <ele>1155.2</ele>
        <time>2024-07-09T07:47:06Z</time>
      </trkpt>
      <trkpt lat="43.97562" lon="7.41201">
        <ele>1155.6</ele>
        <time>2024-07-09T07:47:07Z</time>
      </trkpt>
      <trkpt lat="43.9756" lon="7.41202">
        <ele>1155.8</ele>
        <time>2024-07-09T07:47:08Z</time>
      </trkpt>
      <trkpt lat="43.97558" lon="7.41203">
        <ele>1155.8</ele>
        <time>2024-07-09T07:47:09Z</time>
      </trkpt>
      <trkpt lat="43.97556" lon="7.41204">
        <ele>1155.8</ele>
        <time>2024-07-09T07:47:10Z</time>
      </trkpt>
      <trkpt lat="43.97555" lon="7.41205">
        <ele>1155.8</ele>
        <time>2024-07-09T07:47:11Z</time>
      </trkpt>
      <trkpt lat="43.97553" lon="7.41206">
        <ele>1155.8</ele>
        <time>2024-07-09T07:47:12Z</time>
      </trkpt>
      <trkpt lat="43.97551" lon="7.41207">
        <ele>1156</ele>
        <time>2024-07-09T07:47:13Z</time>
      </trkpt>
      <trkpt lat="43.97549" lon="7.41208">
        <ele>1156</ele>
        <time>2024-07-09T07:47:14Z</time>
      </trkpt>
      <trkpt lat="43.97547" lon="7.41209">
        <ele>1156</ele>
        <time>2024-07-09T07:47:15Z</time>
      </trkpt>
      <trkpt lat="43.97544" lon="7.4121">
        <ele>1156.2</ele>
        <time>2024-07-09T07:47:16Z</time>
      </trkpt>
      <trkpt lat="43.97542" lon="7.41211">
        <ele>1156.4</ele>
        <time>2024-07-09T07:47:17Z</time>
      </trkpt>
      <trkpt lat="43.9754" lon="7.41212">
        <ele>1156.4</ele>
        <time>2024-07-09T07:47:18Z</time>
      </trkpt>
      <trkpt lat="43.97538" lon="7.41212">
        <ele>1156.4</ele>
        <time>2024-07-09T07:47:19Z</time>
      </trkpt>
      <trkpt lat="43.97536" lon="7.41214">
        <ele>1156.6</ele>
        <time>2024-07-09T07:47:20Z</time>
      </trkpt>
      <trkpt lat="43.97534" lon="7.41216">
        <ele>1156.8</ele>
        <time>2024-07-09T07:47:21Z</time>
      </trkpt>
      <trkpt lat="43.97532" lon="7.41217">
        <ele>1156.8</ele>
        <time>2024-07-09T07:47:22Z</time>
      </trkpt>
      <trkpt lat="43.9753" lon="7.41217">
        <ele>1156.8</ele>
        <time>2024-07-09T07:47:23Z</time>
      </trkpt>
      <trkpt lat="43.97527" lon="7.41218">
        <ele>1156.8</ele>
        <time>2024-07-09T07:47:24Z</time>
      </trkpt>
      <trkpt lat="43.97525" lon="7.41219">
        <ele>1157</ele>
        <time>2024-07-09T07:47:25Z</time>
      </trkpt>
      <trkpt lat="43.97523" lon="7.41219">
        <ele>1157</ele>
        <time>2024-07-09T07:47:26Z</time>
      </trkpt>
      <trkpt lat="43.97521" lon="7.41219">
        <ele>1157</ele>
        <time>2024-07-09T07:47:27Z</time>
      </trkpt>
      <trkpt lat="43.97519" lon="7.41219">
        <ele>1157</ele>
        <time>2024-07-09T07:47:28Z</time>
      </trkpt>
      <trkpt lat="43.97517" lon="7.41219">
        <ele>1157.4</ele>
        <time>2024-07-09T07:47:29Z</time>
      </trkpt>
      <trkpt lat="43.97515" lon="7.41219">
        <ele>1157.4</ele>
        <time>2024-07-09T07:47:30Z</time>
      </trkpt>
      <trkpt lat="43.97513" lon="7.41218">
        <ele>1157.6</ele>
        <time>2024-07-09T07:47:31Z</time>
      </trkpt>
      <trkpt lat="43.9751" lon="7.41219">
        <ele>1157.6</ele>
        <time>2024-07-09T07:47:32Z</time>
      </trkpt>
      <trkpt lat="43.97508" lon="7.41218">
        <ele>1157.6</ele>
        <time>2024-07-09T07:47:33Z</time>
      </trkpt>
      <trkpt lat="43.97506" lon="7.41217">
        <ele>1157.6</ele>
        <time>2024-07-09T07:47:34Z</time>
      </trkpt>
      <trkpt lat="43.97504" lon="7.41216">
        <ele>1158</ele>
        <time>2024-07-09T07:47:35Z</time>
      </trkpt>
      <trkpt lat="43.97501" lon="7.41215">
        <ele>1158.4</ele>
        <time>2024-07-09T07:47:36Z</time>
      </trkpt>
      <trkpt lat="43.97499" lon="7.41214">
        <ele>1158.4</ele>
        <time>2024-07-09T07:47:37Z</time>
      </trkpt>
      <trkpt lat="43.97497" lon="7.41213">
        <ele>1158.4</ele>
        <time>2024-07-09T07:47:38Z</time>
      </trkpt>
      <trkpt lat="43.97495" lon="7.41212">
        <ele>1158.4</ele>
        <time>2024-07-09T07:47:39Z</time>
      </trkpt>
      <trkpt lat="43.97493" lon="7.41211">
        <ele>1158.6</ele>
        <time>2024-07-09T07:47:40Z</time>
      </trkpt>
      <trkpt lat="43.97492" lon="7.4121">
        <ele>1158.6</ele>
        <time>2024-07-09T07:47:41Z</time>
      </trkpt>
      <trkpt lat="43.9749" lon="7.41209">
        <ele>1158.6</ele>
        <time>2024-07-09T07:47:42Z</time>
      </trkpt>
      <trkpt lat="43.97488" lon="7.41208">
        <ele>1158.6</ele>
        <time>2024-07-09T07:47:43Z</time>
      </trkpt>
      <trkpt lat="43.97486" lon="7.41207">
        <ele>1159.2</ele>
        <time>2024-07-09T07:47:44Z</time>
      </trkpt>
      <trkpt lat="43.97485" lon="7.41205">
        <ele>1159.2</ele>
        <time>2024-07-09T07:47:45Z</time>
      </trkpt>
      <trkpt lat="43.97483" lon="7.41204">
        <ele>1159.2</ele>
        <time>2024-07-09T07:47:46Z</time>
      </trkpt>
      <trkpt lat="43.97482" lon="7.41203">
        <ele>1159.2</ele>
        <time>2024-07-09T07:47:47Z</time>
      </trkpt>
      <trkpt lat="43.9748" lon="7.41201">
        <ele>1160</ele>
        <time>2024-07-09T07:47:48Z</time>
      </trkpt>
      <trkpt lat="43.97479" lon="7.41199">
        <ele>1160.2</ele>
        <time>2024-07-09T07:47:49Z</time>
      </trkpt>
      <trkpt lat="43.97477" lon="7.41198">
        <ele>1160.2</ele>
        <time>2024-07-09T07:47:50Z</time>
      </trkpt>
      <trkpt lat="43.97476" lon="7.41196">
        <ele>1160.2</ele>
        <time>2024-07-09T07:47:51Z</time>
      </trkpt>
      <trkpt lat="43.97474" lon="7.41195">
        <ele>1160.6</ele>
        <time>2024-07-09T07:47:52Z</time>
      </trkpt>
      <trkpt lat="43.97473" lon="7.41193">
        <ele>1160.6</ele>
        <time>2024-07-09T07:47:53Z</time>
      </trkpt>
      <trkpt lat="43.97471" lon="7.41192">
        <ele>1160.6</ele>
        <time>2024-07-09T07:47:54Z</time>
      </trkpt>
      <trkpt lat="43.97469" lon="7.41191">
        <ele>1160.6</ele>
        <time>2024-07-09T07:47:55Z</time>
      </trkpt>
      <trkpt lat="43.97467" lon="7.4119">
        <ele>1160.6</ele>
        <time>2024-07-09T07:47:56Z</time>
      </trkpt>
      <trkpt lat="43.97465" lon="7.41188">
        <ele>1161.2</ele>
        <time>2024-07-09T07:47:57Z</time>
      </trkpt>
      <trkpt lat="43.97463" lon="7.41186">
        <ele>1161.4</ele>
        <time>2024-07-09T07:47:58Z</time>
      </trkpt>
      <trkpt lat="43.97461" lon="7.41185">
        <ele>1161.4</ele>
        <time>2024-07-09T07:47:59Z</time>
      </trkpt>
      <trkpt lat="43.9746" lon="7.41183">
        <ele>1161.4</ele>
        <time>2024-07-09T07:48:00Z</time>
      </trkpt>
      <trkpt lat="43.97458" lon="7.41181">
        <ele>1161.6</ele>
        <time>2024-07-09T07:48:01Z</time>
      </trkpt>
      <trkpt lat="43.97457" lon="7.4118">
        <ele>1161.8</ele>
        <time>2024-07-09T07:48:02Z</time>
      </trkpt>
      <trkpt lat="43.97455" lon="7.41179">
        <ele>1161.8</ele>
        <time>2024-07-09T07:48:03Z</time>
      </trkpt>
      <trkpt lat="43.97453" lon="7.41178">
        <ele>1161.8</ele>
        <time>2024-07-09T07:48:04Z</time>
      </trkpt>
      <trkpt lat="43.97452" lon="7.41176">
        <ele>1162</ele>
        <time>2024-07-09T07:48:05Z</time>
      </trkpt>
      <trkpt lat="43.9745" lon="7.41174">
        <ele>1162.2</ele>
        <time>2024-07-09T07:48:06Z</time>
      </trkpt>
      <trkpt lat="43.97448" lon="7.41173">
        <ele>1162.2</ele>
        <time>2024-07-09T07:48:07Z</time>
      </trkpt>
      <trkpt lat="43.97447" lon="7.41172">
        <ele>1162.2</ele>
        <time>2024-07-09T07:48:08Z</time>
      </trkpt>
      <trkpt lat="43.97445" lon="7.4117">
        <ele>1162.2</ele>
        <time>2024-07-09T07:48:09Z</time>
      </trkpt>
      <trkpt lat="43.97443" lon="7.41169">
        <ele>1162.6</ele>
        <time>2024-07-09T07:48:10Z</time>
      </trkpt>
      <trkpt lat="43.97442" lon="7.41167">
        <ele>1162.6</ele>
        <time>2024-07-09T07:48:11Z</time>
      </trkpt>
      <trkpt lat="43.9744" lon="7.41166">
        <ele>1162.6</ele>
        <time>2024-07-09T07:48:12Z</time>
      </trkpt>
      <trkpt lat="43.97438" lon="7.41165">
        <ele>1162.6</ele>
        <time>2024-07-09T07:48:13Z</time>
      </trkpt>
      <trkpt lat="43.97436" lon="7.41164">
        <ele>1162.6</ele>
        <time>2024-07-09T07:48:14Z</time>
      </trkpt>
      <trkpt lat="43.97435" lon="7.41162">
        <ele>1163</ele>
        <time>2024-07-09T07:48:15Z</time>
      </trkpt>
      <trkpt lat="43.97433" lon="7.41161">
        <ele>1163.2</ele>
        <time>2024-07-09T07:48:16Z</time>
      </trkpt>
      <trkpt lat="43.97431" lon="7.41159">
        <ele>1163.2</ele>
        <time>2024-07-09T07:48:17Z</time>
      </trkpt>
      <trkpt lat="43.9743" lon="7.41157">
        <ele>1163.2</ele>
        <time>2024-07-09T07:48:18Z</time>
      </trkpt>
      <trkpt lat="43.97428" lon="7.41155">
        <ele>1163.2</ele>
        <time>2024-07-09T07:48:19Z</time>
      </trkpt>
      <trkpt lat="43.97427" lon="7.41154">
        <ele>1163.4</ele>
        <time>2024-07-09T07:48:20Z</time>
      </trkpt>
      <trkpt lat="43.97425" lon="7.41152">
        <ele>1163.6</ele>
        <time>2024-07-09T07:48:21Z</time>
      </trkpt>
      <trkpt lat="43.97423" lon="7.41151">
        <ele>1163.6</ele>
        <time>2024-07-09T07:48:22Z</time>
      </trkpt>
      <trkpt lat="43.97422" lon="7.41149">
        <ele>1163.6</ele>
        <time>2024-07-09T07:48:23Z</time>
      </trkpt>
      <trkpt lat="43.9742" lon="7.41147">
        <ele>1164.2</ele>
        <time>2024-07-09T07:48:24Z</time>
      </trkpt>
      <trkpt lat="43.97418" lon="7.41146">
        <ele>1164.2</ele>
        <time>2024-07-09T07:48:25Z</time>
      </trkpt>
      <trkpt lat="43.97417" lon="7.41143">
        <ele>1164.2</ele>
        <time>2024-07-09T07:48:26Z</time>
      </trkpt>
      <trkpt lat="43.97416" lon="7.41142">
        <ele>1164.2</ele>
        <time>2024-07-09T07:48:27Z</time>
      </trkpt>
      <trkpt lat="43.97414" lon="7.4114">
        <ele>1164.8</ele>
        <time>2024-07-09T07:48:28Z</time>
      </trkpt>
      <trkpt lat="43.97412" lon="7.41139">
        <ele>1164.8</ele>
        <time>2024-07-09T07:48:29Z</time>
      </trkpt>
      <trkpt lat="43.9741" lon="7.41138">
        <ele>1164.8</ele>
        <time>2024-07-09T07:48:30Z</time>
      </trkpt>
      <trkpt lat="43.97408" lon="7.41137">
        <ele>1164.8</ele>
        <time>2024-07-09T07:48:31Z</time>
      </trkpt>
      <trkpt lat="43.97406" lon="7.41137">
        <ele>1164.8</ele>
        <time>2024-07-09T07:48:32Z</time>
      </trkpt>
      <trkpt lat="43.97404" lon="7.41136">
        <ele>1165.2</ele>
        <time>2024-07-09T07:48:33Z</time>
      </trkpt>
      <trkpt lat="43.97402" lon="7.41136">
        <ele>1165.4</ele>
        <time>2024-07-09T07:48:34Z</time>
      </trkpt>
      <trkpt lat="43.974" lon="7.41136">
        <ele>1165.4</ele>
        <time>2024-07-09T07:48:35Z</time>
      </trkpt>
      <trkpt lat="43.97398" lon="7.41137">
        <ele>1165.4</ele>
        <time>2024-07-09T07:48:36Z</time>
      </trkpt>
      <trkpt lat="43.97397" lon="7.41137">
        <ele>1165.8</ele>
        <time>2024-07-09T07:48:37Z</time>
      </trkpt>
      <trkpt lat="43.97394" lon="7.41137">
        <ele>1166</ele>
        <time>2024-07-09T07:48:38Z</time>
      </trkpt>
      <trkpt lat="43.97392" lon="7.41137">
        <ele>1166</ele>
        <time>2024-07-09T07:48:39Z</time>
      </trkpt>
      <trkpt lat="43.9739" lon="7.41137">
        <ele>1166</ele>
        <time>2024-07-09T07:48:40Z</time>
      </trkpt>
      <trkpt lat="43.97388" lon="7.41136">
        <ele>1166.4</ele>
        <time>2024-07-09T07:48:41Z</time>
      </trkpt>
      <trkpt lat="43.97386" lon="7.41135">
        <ele>1166.8</ele>
        <time>2024-07-09T07:48:42Z</time>
      </trkpt>
      <trkpt lat="43.97384" lon="7.41135">
        <ele>1166.8</ele>
        <time>2024-07-09T07:48:43Z</time>
      </trkpt>
      <trkpt lat="43.97382" lon="7.41135">
        <ele>1166.8</ele>
        <time>2024-07-09T07:48:44Z</time>
      </trkpt>
      <trkpt lat="43.9738" lon="7.41135">
        <ele>1166.8</ele>
        <time>2024-07-09T07:48:45Z</time>
      </trkpt>
      <trkpt lat="43.97378" lon="7.41135">
        <ele>1167.4</ele>
        <time>2024-07-09T07:48:46Z</time>
      </trkpt>
      <trkpt lat="43.97376" lon="7.41135">
        <ele>1167.4</ele>
        <time>2024-07-09T07:48:47Z</time>
      </trkpt>
      <trkpt lat="43.97374" lon="7.41135">
        <ele>1167.4</ele>
        <time>2024-07-09T07:48:48Z</time>
      </trkpt>
      <trkpt lat="43.97371" lon="7.41135">
        <ele>1167.4</ele>
        <time>2024-07-09T07:48:49Z</time>
      </trkpt>
      <trkpt lat="43.97369" lon="7.41134">
        <ele>1168.2</ele>
        <time>2024-07-09T07:48:50Z</time>
      </trkpt>
      <trkpt lat="43.97367" lon="7.41134">
        <ele>1168.4</ele>
        <time>2024-07-09T07:48:51Z</time>
      </trkpt>
      <trkpt lat="43.97365" lon="7.41135">
        <ele>1168.4</ele>
        <time>2024-07-09T07:48:52Z</time>
      </trkpt>
      <trkpt lat="43.97363" lon="7.41135">
        <ele>1168.4</ele>
        <time>2024-07-09T07:48:53Z</time>
      </trkpt>
      <trkpt lat="43.9736" lon="7.41134">
        <ele>1168.4</ele>
        <time>2024-07-09T07:48:54Z</time>
      </trkpt>
      <trkpt lat="43.97358" lon="7.41135">
        <ele>1169</ele>
        <time>2024-07-09T07:48:55Z</time>
      </trkpt>
      <trkpt lat="43.97356" lon="7.41134">
        <ele>1169</ele>
        <time>2024-07-09T07:48:56Z</time>
      </trkpt>
      <trkpt lat="43.97354" lon="7.41133">
        <ele>1169</ele>
        <time>2024-07-09T07:48:57Z</time>
      </trkpt>
      <trkpt lat="43.97352" lon="7.41132">
        <ele>1169</ele>
        <time>2024-07-09T07:48:58Z</time>
      </trkpt>
      <trkpt lat="43.97349" lon="7.41132">
        <ele>1169</ele>
        <time>2024-07-09T07:48:59Z</time>
      </trkpt>
      <trkpt lat="43.97347" lon="7.41131">
        <ele>1169.8</ele>
        <time>2024-07-09T07:49:00Z</time>
      </trkpt>
      <trkpt lat="43.97344" lon="7.41131">
        <ele>1170</ele>
        <time>2024-07-09T07:49:01Z</time>
      </trkpt>
      <trkpt lat="43.97342" lon="7.4113">
        <ele>1170</ele>
        <time>2024-07-09T07:49:02Z</time>
      </trkpt>
      <trkpt lat="43.97341" lon="7.41128">
        <ele>1170</ele>
        <time>2024-07-09T07:49:03Z</time>
      </trkpt>
      <trkpt lat="43.97339" lon="7.41126">
        <ele>1170.8</ele>
        <time>2024-07-09T07:49:04Z</time>
      </trkpt>
      <trkpt lat="43.97338" lon="7.41125">
        <ele>1171</ele>
        <time>2024-07-09T07:49:05Z</time>
      </trkpt>
      <trkpt lat="43.97337" lon="7.41123">
        <ele>1171</ele>
        <time>2024-07-09T07:49:06Z</time>
      </trkpt>
      <trkpt lat="43.97335" lon="7.41122">
        <ele>1171</ele>
        <time>2024-07-09T07:49:07Z</time>
      </trkpt>
      <trkpt lat="43.97334" lon="7.41122">
        <ele>1171</ele>
        <time>2024-07-09T07:49:08Z</time>
      </trkpt>
      <trkpt lat="43.97332" lon="7.41121">
        <ele>1171.8</ele>
        <time>2024-07-09T07:49:09Z</time>
      </trkpt>
      <trkpt lat="43.97331" lon="7.4112">
        <ele>1172</ele>
        <time>2024-07-09T07:49:10Z</time>
      </trkpt>
      <trkpt lat="43.97329" lon="7.41119">
        <ele>1172</ele>
        <time>2024-07-09T07:49:11Z</time>
      </trkpt>
      <trkpt lat="43.97327" lon="7.41118">
        <ele>1172</ele>
        <time>2024-07-09T07:49:12Z</time>
      </trkpt>
      <trkpt lat="43.97326" lon="7.41117">
        <ele>1172.6</ele>
        <time>2024-07-09T07:49:13Z</time>
      </trkpt>
      <trkpt lat="43.97324" lon="7.41117">
        <ele>1172.8</ele>
        <time>2024-07-09T07:49:14Z</time>
      </trkpt>
      <trkpt lat="43.97322" lon="7.41117">
        <ele>1172.8</ele>
        <time>2024-07-09T07:49:15Z</time>
      </trkpt>
      <trkpt lat="43.97321" lon="7.41117">
        <ele>1172.8</ele>
        <time>2024-07-09T07:49:16Z</time>
      </trkpt>
      <trkpt lat="43.97319" lon="7.41117">
        <ele>1172.8</ele>
        <time>2024-07-09T07:49:17Z</time>
      </trkpt>
      <trkpt lat="43.97318" lon="7.41117">
        <ele>1172.8</ele>
        <time>2024-07-09T07:49:18Z</time>
      </trkpt>
      <trkpt lat="43.97316" lon="7.41117">
        <ele>1173.2</ele>
        <time>2024-07-09T07:49:19Z</time>
      </trkpt>
      <trkpt lat="43.97315" lon="7.41118">
        <ele>1173.2</ele>
        <time>2024-07-09T07:49:20Z</time>
      </trkpt>
      <trkpt lat="43.97312" lon="7.41118">
        <ele>1173.2</ele>
        <time>2024-07-09T07:49:21Z</time>
      </trkpt>
      <trkpt lat="43.97311" lon="7.41119">
        <ele>1173.6</ele>
        <time>2024-07-09T07:49:22Z</time>
      </trkpt>
      <trkpt lat="43.97309" lon="7.41119">
        <ele>1173.6</ele>
        <time>2024-07-09T07:49:23Z</time>
      </trkpt>
      <trkpt lat="43.97307" lon="7.41118">
        <ele>1173.6</ele>
        <time>2024-07-09T07:49:24Z</time>
      </trkpt>
      <trkpt lat="43.97306" lon="7.41118">
        <ele>1173.6</ele>
        <time>2024-07-09T07:49:25Z</time>
      </trkpt>
      <trkpt lat="43.97304" lon="7.41119">
        <ele>1174</ele>
        <time>2024-07-09T07:49:26Z</time>
      </trkpt>
      <trkpt lat="43.97302" lon="7.4112">
        <ele>1174.2</ele>
        <time>2024-07-09T07:49:27Z</time>
      </trkpt>
      <trkpt lat="43.97301" lon="7.4112">
        <ele>1174.2</ele>
        <time>2024-07-09T07:49:28Z</time>
      </trkpt>
      <trkpt lat="43.97299" lon="7.41122">
        <ele>1174.2</ele>
        <time>2024-07-09T07:49:29Z</time>
      </trkpt>
      <trkpt lat="43.97297" lon="7.41122">
        <ele>1174.8</ele>
        <time>2024-07-09T07:49:30Z</time>
      </trkpt>
      <trkpt lat="43.97296" lon="7.41123">
        <ele>1174.8</ele>
        <time>2024-07-09T07:49:31Z</time>
      </trkpt>
      <trkpt lat="43.97294" lon="7.41124">
        <ele>1174.6</ele>
        <time>2024-07-09T07:49:32Z</time>
      </trkpt>
      <trkpt lat="43.97292" lon="7.41126">
        <ele>1174.6</ele>
        <time>2024-07-09T07:49:33Z</time>
      </trkpt>
      <trkpt lat="43.97291" lon="7.41127">
        <ele>1174.6</ele>
        <time>2024-07-09T07:49:34Z</time>
      </trkpt>
      <trkpt lat="43.97289" lon="7.41127">
        <ele>1175.2</ele>
        <time>2024-07-09T07:49:35Z</time>
      </trkpt>
      <trkpt lat="43.97287" lon="7.41128">
        <ele>1175.2</ele>
        <time>2024-07-09T07:49:36Z</time>
      </trkpt>
      <trkpt lat="43.97286" lon="7.41129">
        <ele>1175.6</ele>
        <time>2024-07-09T07:49:37Z</time>
      </trkpt>
      <trkpt lat="43.97284" lon="7.41129">
        <ele>1175.6</ele>
        <time>2024-07-09T07:49:38Z</time>
      </trkpt>
      <trkpt lat="43.97283" lon="7.4113">
        <ele>1175.6</ele>
        <time>2024-07-09T07:49:39Z</time>
      </trkpt>
      <trkpt lat="43.97281" lon="7.41131">
        <ele>1176</ele>
        <time>2024-07-09T07:49:40Z</time>
      </trkpt>
      <trkpt lat="43.9728" lon="7.41131">
        <ele>1176</ele>
        <time>2024-07-09T07:49:41Z</time>
      </trkpt>
      <trkpt lat="43.97278" lon="7.41131">
        <ele>1176</ele>
        <time>2024-07-09T07:49:42Z</time>
      </trkpt>
      <trkpt lat="43.97276" lon="7.41132">
        <ele>1176</ele>
        <time>2024-07-09T07:49:43Z</time>
      </trkpt>
      <trkpt lat="43.97275" lon="7.41133">
        <ele>1176</ele>
        <time>2024-07-09T07:49:44Z</time>
      </trkpt>
      <trkpt lat="43.97273" lon="7.41134">
        <ele>1176.6</ele>
        <time>2024-07-09T07:49:45Z</time>
      </trkpt>
      <trkpt lat="43.97272" lon="7.41135">
        <ele>1176.4</ele>
        <time>2024-07-09T07:49:46Z</time>
      </trkpt>
      <trkpt lat="43.9727" lon="7.41135">
        <ele>1176.4</ele>
        <time>2024-07-09T07:49:47Z</time>
      </trkpt>
      <trkpt lat="43.97269" lon="7.41136">
        <ele>1176.4</ele>
        <time>2024-07-09T07:49:48Z</time>
      </trkpt>
      <trkpt lat="43.97267" lon="7.41137">
        <ele>1176.8</ele>
        <time>2024-07-09T07:49:49Z</time>
      </trkpt>
      <trkpt lat="43.97265" lon="7.41138">
        <ele>1177.2</ele>
        <time>2024-07-09T07:49:50Z</time>
      </trkpt>
      <trkpt lat="43.97263" lon="7.41138">
        <ele>1177.2</ele>
        <time>2024-07-09T07:49:51Z</time>
      </trkpt>
      <trkpt lat="43.97262" lon="7.41139">
        <ele>1177.2</ele>
        <time>2024-07-09T07:49:52Z</time>
      </trkpt>
      <trkpt lat="43.9726" lon="7.41139">
        <ele>1177.2</ele>
        <time>2024-07-09T07:49:53Z</time>
      </trkpt>
      <trkpt lat="43.97259" lon="7.41139">
        <ele>1177.6</ele>
        <time>2024-07-09T07:49:54Z</time>
      </trkpt>
      <trkpt lat="43.97257" lon="7.4114">
        <ele>1177.6</ele>
        <time>2024-07-09T07:49:55Z</time>
      </trkpt>
      <trkpt lat="43.97256" lon="7.4114">
        <ele>1177.6</ele>
        <time>2024-07-09T07:49:56Z</time>
      </trkpt>
      <trkpt lat="43.97254" lon="7.4114">
        <ele>1177.6</ele>
        <time>2024-07-09T07:49:57Z</time>
      </trkpt>
      <trkpt lat="43.97253" lon="7.4114">
        <ele>1177.8</ele>
        <time>2024-07-09T07:49:58Z</time>
      </trkpt>
      <trkpt lat="43.97251" lon="7.4114">
        <ele>1178</ele>
        <time>2024-07-09T07:49:59Z</time>
      </trkpt>
      <trkpt lat="43.97249" lon="7.4114">
        <ele>1178</ele>
        <time>2024-07-09T07:50:00Z</time>
      </trkpt>
      <trkpt lat="43.97248" lon="7.41139">
        <ele>1178</ele>
        <time>2024-07-09T07:50:01Z</time>
      </trkpt>
      <trkpt lat="43.97247" lon="7.41139">
        <ele>1178</ele>
        <time>2024-07-09T07:50:02Z</time>
      </trkpt>
      <trkpt lat="43.97246" lon="7.41138">
        <ele>1178.4</ele>
        <time>2024-07-09T07:50:03Z</time>
      </trkpt>
      <trkpt lat="43.97244" lon="7.41137">
        <ele>1178.4</ele>
        <time>2024-07-09T07:50:04Z</time>
      </trkpt>
      <trkpt lat="43.97243" lon="7.41136">
        <ele>1178.4</ele>
        <time>2024-07-09T07:50:05Z</time>
      </trkpt>
      <trkpt lat="43.97241" lon="7.41136">
        <ele>1178.4</ele>
        <time>2024-07-09T07:50:06Z</time>
      </trkpt>
      <trkpt lat="43.9724" lon="7.41136">
        <ele>1179.2</ele>
        <time>2024-07-09T07:50:07Z</time>
      </trkpt>
      <trkpt lat="43.97238" lon="7.41135">
        <ele>1179.2</ele>
        <time>2024-07-09T07:50:08Z</time>
      </trkpt>
      <trkpt lat="43.97237" lon="7.41133">
        <ele>1179.2</ele>
        <time>2024-07-09T07:50:09Z</time>
      </trkpt>
      <trkpt lat="43.97237" lon="7.41131">
        <ele>1179.2</ele>
        <time>2024-07-09T07:50:10Z</time>
      </trkpt>
      <trkpt lat="43.97238" lon="7.41128">
        <ele>1179.2</ele>
        <time>2024-07-09T07:50:11Z</time>
      </trkpt>
      <trkpt lat="43.97239" lon="7.41126">
        <ele>1179.4</ele>
        <time>2024-07-09T07:50:12Z</time>
      </trkpt>
      <trkpt lat="43.97241" lon="7.41126">
        <ele>1179.4</ele>
        <time>2024-07-09T07:50:13Z</time>
      </trkpt>
      <trkpt lat="43.97243" lon="7.41126">
        <ele>1179.4</ele>
        <time>2024-07-09T07:50:14Z</time>
      </trkpt>
      <trkpt lat="43.97245" lon="7.41127">
        <ele>1180</ele>
        <time>2024-07-09T07:50:15Z</time>
      </trkpt>
      <trkpt lat="43.97247" lon="7.41128">
        <ele>1180</ele>
        <time>2024-07-09T07:50:16Z</time>
      </trkpt>
      <trkpt lat="43.97249" lon="7.41129">
        <ele>1180</ele>
        <time>2024-07-09T07:50:17Z</time>
      </trkpt>
      <trkpt lat="43.9725" lon="7.4113">
        <ele>1180</ele>
        <time>2024-07-09T07:50:18Z</time>
      </trkpt>
      <trkpt lat="43.97252" lon="7.4113">
        <ele>1180</ele>
        <time>2024-07-09T07:50:19Z</time>
      </trkpt>
      <trkpt lat="43.97254" lon="7.4113">
        <ele>1180.4</ele>
        <time>2024-07-09T07:50:20Z</time>
      </trkpt>
      <trkpt lat="43.97256" lon="7.41129">
        <ele>1180.6</ele>
        <time>2024-07-09T07:50:21Z</time>
      </trkpt>
      <trkpt lat="43.97258" lon="7.41129">
        <ele>1180.6</ele>
        <time>2024-07-09T07:50:22Z</time>
      </trkpt>
      <trkpt lat="43.9726" lon="7.41129">
        <ele>1180.6</ele>
        <time>2024-07-09T07:50:23Z</time>
      </trkpt>
      <trkpt lat="43.97262" lon="7.41129">
        <ele>1180.6</ele>
        <time>2024-07-09T07:50:24Z</time>
      </trkpt>
      <trkpt lat="43.97264" lon="7.41129">
        <ele>1181</ele>
        <time>2024-07-09T07:50:25Z</time>
      </trkpt>
      <trkpt lat="43.97265" lon="7.41129">
        <ele>1181.2</ele>
        <time>2024-07-09T07:50:26Z</time>
      </trkpt>
      <trkpt lat="43.97267" lon="7.41128">
        <ele>1181.2</ele>
        <time>2024-07-09T07:50:27Z</time>
      </trkpt>
      <trkpt lat="43.97269" lon="7.41128">
        <ele>1181.2</ele>
        <time>2024-07-09T07:50:28Z</time>
      </trkpt>
      <trkpt lat="43.97271" lon="7.41127">
        <ele>1181.8</ele>
        <time>2024-07-09T07:50:29Z</time>
      </trkpt>
      <trkpt lat="43.97272" lon="7.41127">
        <ele>1181.8</ele>
        <time>2024-07-09T07:50:30Z</time>
      </trkpt>
      <trkpt lat="43.97274" lon="7.41126">
        <ele>1182</ele>
        <time>2024-07-09T07:50:31Z</time>
      </trkpt>
      <trkpt lat="43.97275" lon="7.41124">
        <ele>1182</ele>
        <time>2024-07-09T07:50:32Z</time>
      </trkpt>
      <trkpt lat="43.97277" lon="7.41123">
        <ele>1182</ele>
        <time>2024-07-09T07:50:33Z</time>
      </trkpt>
      <trkpt lat="43.97279" lon="7.41122">
        <ele>1182.6</ele>
        <time>2024-07-09T07:50:34Z</time>
      </trkpt>
      <trkpt lat="43.97281" lon="7.41121">
        <ele>1182.6</ele>
        <time>2024-07-09T07:50:35Z</time>
      </trkpt>
      <trkpt lat="43.97282" lon="7.41121">
        <ele>1182.6</ele>
        <time>2024-07-09T07:50:36Z</time>
      </trkpt>
      <trkpt lat="43.97284" lon="7.4112">
        <ele>1182.6</ele>
        <time>2024-07-09T07:50:37Z</time>
      </trkpt>
      <trkpt lat="43.97285" lon="7.41119">
        <ele>1183.4</ele>
        <time>2024-07-09T07:50:38Z</time>
      </trkpt>
      <trkpt lat="43.97287" lon="7.41118">
        <ele>1183.6</ele>
        <time>2024-07-09T07:50:39Z</time>
      </trkpt>
      <trkpt lat="43.97289" lon="7.41117">
        <ele>1183.6</ele>
        <time>2024-07-09T07:50:40Z</time>
      </trkpt>
      <trkpt lat="43.9729" lon="7.41116">
        <ele>1183.6</ele>
        <time>2024-07-09T07:50:41Z</time>
      </trkpt>
      <trkpt lat="43.97291" lon="7.41114">
        <ele>1183.6</ele>
        <time>2024-07-09T07:50:42Z</time>
      </trkpt>
      <trkpt lat="43.97293" lon="7.41113">
        <ele>1184.2</ele>
        <time>2024-07-09T07:50:43Z</time>
      </trkpt>
      <trkpt lat="43.97294" lon="7.41112">
        <ele>1184.6</ele>
        <time>2024-07-09T07:50:44Z</time>
      </trkpt>
      <trkpt lat="43.97295" lon="7.41111">
        <ele>1184.6</ele>
        <time>2024-07-09T07:50:45Z</time>
      </trkpt>
      <trkpt lat="43.97296" lon="7.4111">
        <ele>1184.6</ele>
        <time>2024-07-09T07:50:46Z</time>
      </trkpt>
      <trkpt lat="43.97297" lon="7.41108">
        <ele>1184.6</ele>
        <time>2024-07-09T07:50:47Z</time>
      </trkpt>
      <trkpt lat="43.97299" lon="7.41107">
        <ele>1185.4</ele>
        <time>2024-07-09T07:50:48Z</time>
      </trkpt>
      <trkpt lat="43.973" lon="7.41106">
        <ele>1185.4</ele>
        <time>2024-07-09T07:50:49Z</time>
      </trkpt>
      <trkpt lat="43.97302" lon="7.41105">
        <ele>1185.4</ele>
        <time>2024-07-09T07:50:50Z</time>
      </trkpt>
      <trkpt lat="43.97303" lon="7.41104">
        <ele>1185.4</ele>
        <time>2024-07-09T07:50:51Z</time>
      </trkpt>
      <trkpt lat="43.97305" lon="7.41103">
        <ele>1186</ele>
        <time>2024-07-09T07:50:52Z</time>
      </trkpt>
      <trkpt lat="43.97306" lon="7.41101">
        <ele>1186</ele>
        <time>2024-07-09T07:50:53Z</time>
      </trkpt>
      <trkpt lat="43.97307" lon="7.411">
        <ele>1186</ele>
        <time>2024-07-09T07:50:54Z</time>
      </trkpt>
      <trkpt lat="43.97309" lon="7.41099">
        <ele>1186</ele>
        <time>2024-07-09T07:50:55Z</time>
      </trkpt>
      <trkpt lat="43.9731" lon="7.41098">
        <ele>1186.8</ele>
        <time>2024-07-09T07:50:56Z</time>
      </trkpt>
      <trkpt lat="43.97311" lon="7.41097">
        <ele>1187</ele>
        <time>2024-07-09T07:50:57Z</time>
      </trkpt>
      <trkpt lat="43.97313" lon="7.41097">
        <ele>1187</ele>
        <time>2024-07-09T07:50:58Z</time>
      </trkpt>
      <trkpt lat="43.97315" lon="7.41096">
        <ele>1187</ele>
        <time>2024-07-09T07:50:59Z</time>
      </trkpt>
      <trkpt lat="43.97316" lon="7.41095">
        <ele>1187.2</ele>
        <time>2024-07-09T07:51:00Z</time>
      </trkpt>
      <trkpt lat="43.97318" lon="7.41095">
        <ele>1187.2</ele>
        <time>2024-07-09T07:51:01Z</time>
      </trkpt>
      <trkpt lat="43.9732" lon="7.41095">
        <ele>1187.6</ele>
        <time>2024-07-09T07:51:02Z</time>
      </trkpt>
      <trkpt lat="43.97321" lon="7.41095">
        <ele>1187.6</ele>
        <time>2024-07-09T07:51:03Z</time>
      </trkpt>
      <trkpt lat="43.97322" lon="7.41095">
        <ele>1187.6</ele>
        <time>2024-07-09T07:51:04Z</time>
      </trkpt>
      <trkpt lat="43.97324" lon="7.41095">
        <ele>1187.6</ele>
        <time>2024-07-09T07:51:05Z</time>
      </trkpt>
      <trkpt lat="43.97325" lon="7.41096">
        <ele>1188</ele>
        <time>2024-07-09T07:51:06Z</time>
      </trkpt>
      <trkpt lat="43.97326" lon="7.41095">
        <ele>1188</ele>
        <time>2024-07-09T07:51:07Z</time>
      </trkpt>
      <trkpt lat="43.97328" lon="7.41095">
        <ele>1188</ele>
        <time>2024-07-09T07:51:08Z</time>
      </trkpt>
      <trkpt lat="43.9733" lon="7.41096">
        <ele>1188</ele>
        <time>2024-07-09T07:51:09Z</time>
      </trkpt>
      <trkpt lat="43.97331" lon="7.41097">
        <ele>1188.6</ele>
        <time>2024-07-09T07:51:10Z</time>
      </trkpt>
      <trkpt lat="43.97332" lon="7.41098">
        <ele>1188.8</ele>
        <time>2024-07-09T07:51:11Z</time>
      </trkpt>
      <trkpt lat="43.97334" lon="7.41098">
        <ele>1188.8</ele>
        <time>2024-07-09T07:51:12Z</time>
      </trkpt>
      <trkpt lat="43.97335" lon="7.41099">
        <ele>1188.8</ele>
        <time>2024-07-09T07:51:13Z</time>
      </trkpt>
      <trkpt lat="43.97336" lon="7.411">
        <ele>1189.4</ele>
        <time>2024-07-09T07:51:14Z</time>
      </trkpt>
      <trkpt lat="43.97338" lon="7.411">
        <ele>1189.4</ele>
        <time>2024-07-09T07:51:15Z</time>
      </trkpt>
      <trkpt lat="43.97339" lon="7.41102">
        <ele>1189.8</ele>
        <time>2024-07-09T07:51:16Z</time>
      </trkpt>
      <trkpt lat="43.97341" lon="7.41103">
        <ele>1189.8</ele>
        <time>2024-07-09T07:51:17Z</time>
      </trkpt>
      <trkpt lat="43.97343" lon="7.41104">
        <ele>1189.8</ele>
        <time>2024-07-09T07:51:18Z</time>
      </trkpt>
      <trkpt lat="43.97345" lon="7.41105">
        <ele>1190.2</ele>
        <time>2024-07-09T07:51:19Z</time>
      </trkpt>
      <trkpt lat="43.97346" lon="7.41106">
        <ele>1190.4</ele>
        <time>2024-07-09T07:51:20Z</time>
      </trkpt>
      <trkpt lat="43.97348" lon="7.41105">
        <ele>1190.4</ele>
        <time>2024-07-09T07:51:21Z</time>
      </trkpt>
      <trkpt lat="43.97349" lon="7.41105">
        <ele>1190.4</ele>
        <time>2024-07-09T07:51:22Z</time>
      </trkpt>
      <trkpt lat="43.97351" lon="7.41105">
        <ele>1191</ele>
        <time>2024-07-09T07:51:23Z</time>
      </trkpt>
      <trkpt lat="43.97352" lon="7.41106">
        <ele>1191</ele>
        <time>2024-07-09T07:51:24Z</time>
      </trkpt>
      <trkpt lat="43.97354" lon="7.41106">
        <ele>1191</ele>
        <time>2024-07-09T07:51:25Z</time>
      </trkpt>
      <trkpt lat="43.97356" lon="7.41106">
        <ele>1191</ele>
        <time>2024-07-09T07:51:26Z</time>
      </trkpt>
      <trkpt lat="43.97357" lon="7.41106">
        <ele>1191</ele>
        <time>2024-07-09T07:51:27Z</time>
      </trkpt>
      <trkpt lat="43.97359" lon="7.41106">
        <ele>1191.6</ele>
        <time>2024-07-09T07:51:28Z</time>
      </trkpt>
      <trkpt lat="43.9736" lon="7.41106">
        <ele>1191.6</ele>
        <time>2024-07-09T07:51:29Z</time>
      </trkpt>
      <trkpt lat="43.97362" lon="7.41106">
        <ele>1191.6</ele>
        <time>2024-07-09T07:51:30Z</time>
      </trkpt>
      <trkpt lat="43.97364" lon="7.41106">
        <ele>1191.6</ele>
        <time>2024-07-09T07:51:31Z</time>
      </trkpt>
      <trkpt lat="43.97365" lon="7.41105">
        <ele>1192.2</ele>
        <time>2024-07-09T07:51:32Z</time>
      </trkpt>
      <trkpt lat="43.97367" lon="7.41104">
        <ele>1192.2</ele>
        <time>2024-07-09T07:51:33Z</time>
      </trkpt>
      <trkpt lat="43.97368" lon="7.41104">
        <ele>1192.2</ele>
        <time>2024-07-09T07:51:34Z</time>
      </trkpt>
      <trkpt lat="43.97369" lon="7.41103">
        <ele>1192.2</ele>
        <time>2024-07-09T07:51:35Z</time>
      </trkpt>
      <trkpt lat="43.97371" lon="7.41102">
        <ele>1192.6</ele>
        <time>2024-07-09T07:51:36Z</time>
      </trkpt>
      <trkpt lat="43.97372" lon="7.41101">
        <ele>1192.6</ele>
        <time>2024-07-09T07:51:37Z</time>
      </trkpt>
      <trkpt lat="43.97374" lon="7.411">
        <ele>1192.8</ele>
        <time>2024-07-09T07:51:38Z</time>
      </trkpt>
      <trkpt lat="43.97375" lon="7.41099">
        <ele>1192.8</ele>
        <time>2024-07-09T07:51:39Z</time>
      </trkpt>
      <trkpt lat="43.97376" lon="7.41098">
        <ele>1192.8</ele>
        <time>2024-07-09T07:51:40Z</time>
      </trkpt>
      <trkpt lat="43.97378" lon="7.41097">
        <ele>1193.2</ele>
        <time>2024-07-09T07:51:41Z</time>
      </trkpt>
      <trkpt lat="43.97379" lon="7.41096">
        <ele>1193.2</ele>
        <time>2024-07-09T07:51:42Z</time>
      </trkpt>
      <trkpt lat="43.9738" lon="7.41095">
        <ele>1193.4</ele>
        <time>2024-07-09T07:51:43Z</time>
      </trkpt>
      <trkpt lat="43.97381" lon="7.41094">
        <ele>1193.4</ele>
        <time>2024-07-09T07:51:44Z</time>
      </trkpt>
      <trkpt lat="43.97383" lon="7.41094">
        <ele>1193.4</ele>
        <time>2024-07-09T07:51:45Z</time>
      </trkpt>
      <trkpt lat="43.97385" lon="7.41092">
        <ele>1193.8</ele>
        <time>2024-07-09T07:51:46Z</time>
      </trkpt>
      <trkpt lat="43.97386" lon="7.41091">
        <ele>1194</ele>
        <time>2024-07-09T07:51:47Z</time>
      </trkpt>
      <trkpt lat="43.97387" lon="7.4109">
        <ele>1194</ele>
        <time>2024-07-09T07:51:48Z</time>
      </trkpt>
      <trkpt lat="43.97389" lon="7.41089">
        <ele>1194</ele>
        <time>2024-07-09T07:51:49Z</time>
      </trkpt>
      <trkpt lat="43.97391" lon="7.41088">
        <ele>1194</ele>
        <time>2024-07-09T07:51:50Z</time>
      </trkpt>
      <trkpt lat="43.97392" lon="7.41088">
        <ele>1194.6</ele>
        <time>2024-07-09T07:51:51Z</time>
      </trkpt>
      <trkpt lat="43.97393" lon="7.41088">
        <ele>1194.8</ele>
        <time>2024-07-09T07:51:52Z</time>
      </trkpt>
      <trkpt lat="43.97394" lon="7.41088">
        <ele>1194.8</ele>
        <time>2024-07-09T07:51:53Z</time>
      </trkpt>
      <trkpt lat="43.97396" lon="7.41088">
        <ele>1194.8</ele>
        <time>2024-07-09T07:51:54Z</time>
      </trkpt>
      <trkpt lat="43.97398" lon="7.41088">
        <ele>1195.6</ele>
        <time>2024-07-09T07:51:55Z</time>
      </trkpt>
      <trkpt lat="43.97399" lon="7.41087">
        <ele>1195.6</ele>
        <time>2024-07-09T07:51:56Z</time>
      </trkpt>
      <trkpt lat="43.97401" lon="7.41087">
        <ele>1195.6</ele>
        <time>2024-07-09T07:51:57Z</time>
      </trkpt>
      <trkpt lat="43.97402" lon="7.41087">
        <ele>1195.6</ele>
        <time>2024-07-09T07:51:58Z</time>
      </trkpt>
      <trkpt lat="43.97404" lon="7.41087">
        <ele>1196.2</ele>
        <time>2024-07-09T07:51:59Z</time>
      </trkpt>
      <trkpt lat="43.97405" lon="7.41088">
        <ele>1196.2</ele>
        <time>2024-07-09T07:52:00Z</time>
      </trkpt>
      <trkpt lat="43.97406" lon="7.41088">
        <ele>1196.2</ele>
        <time>2024-07-09T07:52:01Z</time>
      </trkpt>
      <trkpt lat="43.97408" lon="7.41089">
        <ele>1196.2</ele>
        <time>2024-07-09T07:52:02Z</time>
      </trkpt>
      <trkpt lat="43.97409" lon="7.4109">
        <ele>1196.2</ele>
        <time>2024-07-09T07:52:03Z</time>
      </trkpt>
      <trkpt lat="43.97411" lon="7.41091">
        <ele>1196.8</ele>
        <time>2024-07-09T07:52:04Z</time>
      </trkpt>
      <trkpt lat="43.97413" lon="7.41092">
        <ele>1196.8</ele>
        <time>2024-07-09T07:52:05Z</time>
      </trkpt>
      <trkpt lat="43.97415" lon="7.41092">
        <ele>1196.8</ele>
        <time>2024-07-09T07:52:06Z</time>
      </trkpt>
      <trkpt lat="43.97416" lon="7.41093">
        <ele>1196.8</ele>
        <time>2024-07-09T07:52:07Z</time>
      </trkpt>
      <trkpt lat="43.97418" lon="7.41093">
        <ele>1197.2</ele>
        <time>2024-07-09T07:52:08Z</time>
      </trkpt>
      <trkpt lat="43.9742" lon="7.41094">
        <ele>1197.4</ele>
        <time>2024-07-09T07:52:09Z</time>
      </trkpt>
      <trkpt lat="43.97421" lon="7.41094">
        <ele>1197.4</ele>
        <time>2024-07-09T07:52:10Z</time>
      </trkpt>
      <trkpt lat="43.97423" lon="7.41095">
        <ele>1197.4</ele>
        <time>2024-07-09T07:52:11Z</time>
      </trkpt>
      <trkpt lat="43.97425" lon="7.41095">
        <ele>1197.8</ele>
        <time>2024-07-09T07:52:12Z</time>
      </trkpt>
      <trkpt lat="43.97427" lon="7.41096">
        <ele>1197.8</ele>
        <time>2024-07-09T07:52:13Z</time>
      </trkpt>
      <trkpt lat="43.97428" lon="7.41097">
        <ele>1197.8</ele>
        <time>2024-07-09T07:52:14Z</time>
      </trkpt>
      <trkpt lat="43.97429" lon="7.41098">
        <ele>1197.8</ele>
        <time>2024-07-09T07:52:15Z</time>
      </trkpt>
      <trkpt lat="43.97431" lon="7.411">
        <ele>1197.8</ele>
        <time>2024-07-09T07:52:16Z</time>
      </trkpt>
      <trkpt lat="43.97432" lon="7.41101">
        <ele>1198.6</ele>
        <time>2024-07-09T07:52:17Z</time>
      </trkpt>
      <trkpt lat="43.97433" lon="7.41101">
        <ele>1198.6</ele>
        <time>2024-07-09T07:52:18Z</time>
      </trkpt>
      <trkpt lat="43.97434" lon="7.41102">
        <ele>1198.6</ele>
        <time>2024-07-09T07:52:19Z</time>
      </trkpt>
      <trkpt lat="43.97436" lon="7.41103">
        <ele>1198.6</ele>
        <time>2024-07-09T07:52:20Z</time>
      </trkpt>
      <trkpt lat="43.97437" lon="7.41104">
        <ele>1199</ele>
        <time>2024-07-09T07:52:21Z</time>
      </trkpt>
      <trkpt lat="43.97439" lon="7.41105">
        <ele>1199.2</ele>
        <time>2024-07-09T07:52:22Z</time>
      </trkpt>
      <trkpt lat="43.97441" lon="7.41106">
        <ele>1199.2</ele>
        <time>2024-07-09T07:52:23Z</time>
      </trkpt>
      <trkpt lat="43.97442" lon="7.41108">
        <ele>1199.2</ele>
        <time>2024-07-09T07:52:24Z</time>
      </trkpt>
      <trkpt lat="43.97443" lon="7.41109">
        <ele>1199.2</ele>
        <time>2024-07-09T07:52:25Z</time>
      </trkpt>
      <trkpt lat="43.97445" lon="7.4111">
        <ele>1199.2</ele>
        <time>2024-07-09T07:52:26Z</time>
      </trkpt>
      <trkpt lat="43.97446" lon="7.41111">
        <ele>1199.6</ele>
        <time>2024-07-09T07:52:27Z</time>
      </trkpt>
      <trkpt lat="43.97448" lon="7.41111">
        <ele>1199.6</ele>
        <time>2024-07-09T07:52:28Z</time>
      </trkpt>
      <trkpt lat="43.97449" lon="7.41112">
        <ele>1199.6</ele>
        <time>2024-07-09T07:52:29Z</time>
      </trkpt>
      <trkpt lat="43.97451" lon="7.41113">
        <ele>1199.6</ele>
        <time>2024-07-09T07:52:30Z</time>
      </trkpt>
      <trkpt lat="43.97452" lon="7.41114">
        <ele>1200.2</ele>
        <time>2024-07-09T07:52:31Z</time>
      </trkpt>
      <trkpt lat="43.97453" lon="7.41114">
        <ele>1200.6</ele>
        <time>2024-07-09T07:52:32Z</time>
      </trkpt>
      <trkpt lat="43.97455" lon="7.41115">
        <ele>1200.6</ele>
        <time>2024-07-09T07:52:33Z</time>
      </trkpt>
      <trkpt lat="43.97456" lon="7.41115">
        <ele>1200.6</ele>
        <time>2024-07-09T07:52:34Z</time>
      </trkpt>
      <trkpt lat="43.97458" lon="7.41115">
        <ele>1200.6</ele>
        <time>2024-07-09T07:52:35Z</time>
      </trkpt>
      <trkpt lat="43.97459" lon="7.41116">
        <ele>1200.8</ele>
        <time>2024-07-09T07:52:36Z</time>
      </trkpt>
      <trkpt lat="43.97461" lon="7.41117">
        <ele>1201</ele>
        <time>2024-07-09T07:52:37Z</time>
      </trkpt>
      <trkpt lat="43.97463" lon="7.41118">
        <ele>1201</ele>
        <time>2024-07-09T07:52:38Z</time>
      </trkpt>
      <trkpt lat="43.97464" lon="7.41119">
        <ele>1201</ele>
        <time>2024-07-09T07:52:39Z</time>
      </trkpt>
      <trkpt lat="43.97465" lon="7.4112">
        <ele>1201.4</ele>
        <time>2024-07-09T07:52:40Z</time>
      </trkpt>
      <trkpt lat="43.97467" lon="7.41121">
        <ele>1201.6</ele>
        <time>2024-07-09T07:52:41Z</time>
      </trkpt>
      <trkpt lat="43.97468" lon="7.41121">
        <ele>1201.6</ele>
        <time>2024-07-09T07:52:42Z</time>
      </trkpt>
      <trkpt lat="43.9747" lon="7.41122">
        <ele>1201.6</ele>
        <time>2024-07-09T07:52:43Z</time>
      </trkpt>
      <trkpt lat="43.97472" lon="7.41122">
        <ele>1202</ele>
        <time>2024-07-09T07:52:44Z</time>
      </trkpt>
      <trkpt lat="43.97473" lon="7.41123">
        <ele>1202</ele>
        <time>2024-07-09T07:52:45Z</time>
      </trkpt>
      <trkpt lat="43.97475" lon="7.41124">
        <ele>1202.2</ele>
        <time>2024-07-09T07:52:46Z</time>
      </trkpt>
      <trkpt lat="43.97476" lon="7.41125">
        <ele>1202.2</ele>
        <time>2024-07-09T07:52:47Z</time>
      </trkpt>
      <trkpt lat="43.97478" lon="7.41126">
        <ele>1202.2</ele>
        <time>2024-07-09T07:52:48Z</time>
      </trkpt>
      <trkpt lat="43.97479" lon="7.41127">
        <ele>1202.2</ele>
        <time>2024-07-09T07:52:49Z</time>
      </trkpt>
      <trkpt lat="43.97481" lon="7.41127">
        <ele>1202.4</ele>
        <time>2024-07-09T07:52:50Z</time>
      </trkpt>
      <trkpt lat="43.97482" lon="7.41128">
        <ele>1202.4</ele>
        <time>2024-07-09T07:52:51Z</time>
      </trkpt>
      <trkpt lat="43.97484" lon="7.41129">
        <ele>1202.4</ele>
        <time>2024-07-09T07:52:52Z</time>
      </trkpt>
      <trkpt lat="43.97485" lon="7.41129">
        <ele>1203.2</ele>
        <time>2024-07-09T07:52:53Z</time>
      </trkpt>
      <trkpt lat="43.97487" lon="7.4113">
        <ele>1203.2</ele>
        <time>2024-07-09T07:52:54Z</time>
      </trkpt>
      <trkpt lat="43.97488" lon="7.41131">
        <ele>1203.2</ele>
        <time>2024-07-09T07:52:55Z</time>
      </trkpt>
      <trkpt lat="43.9749" lon="7.41131">
        <ele>1203.2</ele>
        <time>2024-07-09T07:52:56Z</time>
      </trkpt>
      <trkpt lat="43.97492" lon="7.41132">
        <ele>1203.2</ele>
        <time>2024-07-09T07:52:57Z</time>
      </trkpt>
      <trkpt lat="43.97493" lon="7.41132">
        <ele>1204</ele>
        <time>2024-07-09T07:52:58Z</time>
      </trkpt>
      <trkpt lat="43.97494" lon="7.41133">
        <ele>1204</ele>
        <time>2024-07-09T07:52:59Z</time>
      </trkpt>
      <trkpt lat="43.97496" lon="7.41133">
        <ele>1204</ele>
        <time>2024-07-09T07:53:00Z</time>
      </trkpt>
      <trkpt lat="43.97497" lon="7.41133">
        <ele>1204</ele>
        <time>2024-07-09T07:53:01Z</time>
      </trkpt>
      <trkpt lat="43.97499" lon="7.41133">
        <ele>1204.4</ele>
        <time>2024-07-09T07:53:02Z</time>
      </trkpt>
      <trkpt lat="43.975" lon="7.41133">
        <ele>1204.8</ele>
        <time>2024-07-09T07:53:03Z</time>
      </trkpt>
      <trkpt lat="43.97502" lon="7.41133">
        <ele>1204.8</ele>
        <time>2024-07-09T07:53:04Z</time>
      </trkpt>
      <trkpt lat="43.97503" lon="7.41133">
        <ele>1204.8</ele>
        <time>2024-07-09T07:53:05Z</time>
      </trkpt>
      <trkpt lat="43.97505" lon="7.41133">
        <ele>1205.6</ele>
        <time>2024-07-09T07:53:06Z</time>
      </trkpt>
      <trkpt lat="43.97507" lon="7.41133">
        <ele>1205.6</ele>
        <time>2024-07-09T07:53:07Z</time>
      </trkpt>
      <trkpt lat="43.97508" lon="7.41133">
        <ele>1205.6</ele>
        <time>2024-07-09T07:53:08Z</time>
      </trkpt>
      <trkpt lat="43.9751" lon="7.41133">
        <ele>1205.6</ele>
        <time>2024-07-09T07:53:09Z</time>
      </trkpt>
      <trkpt lat="43.97511" lon="7.41134">
        <ele>1205.6</ele>
        <time>2024-07-09T07:53:10Z</time>
      </trkpt>
      <trkpt lat="43.97512" lon="7.41134">
        <ele>1205.6</ele>
        <time>2024-07-09T07:53:11Z</time>
      </trkpt>
      <trkpt lat="43.97514" lon="7.41134">
        <ele>1206.2</ele>
        <time>2024-07-09T07:53:12Z</time>
      </trkpt>
      <trkpt lat="43.97515" lon="7.41134">
        <ele>1206.4</ele>
        <time>2024-07-09T07:53:13Z</time>
      </trkpt>
      <trkpt lat="43.97517" lon="7.41134">
        <ele>1206.4</ele>
        <time>2024-07-09T07:53:14Z</time>
      </trkpt>
      <trkpt lat="43.97519" lon="7.41133">
        <ele>1206.4</ele>
        <time>2024-07-09T07:53:15Z</time>
      </trkpt>
      <trkpt lat="43.9752" lon="7.41134">
        <ele>1206.6</ele>
        <time>2024-07-09T07:53:16Z</time>
      </trkpt>
      <trkpt lat="43.97522" lon="7.41134">
        <ele>1206.6</ele>
        <time>2024-07-09T07:53:17Z</time>
      </trkpt>
      <trkpt lat="43.97524" lon="7.41133">
        <ele>1206.8</ele>
        <time>2024-07-09T07:53:18Z</time>
      </trkpt>
      <trkpt lat="43.97526" lon="7.41133">
        <ele>1206.8</ele>
        <time>2024-07-09T07:53:19Z</time>
      </trkpt>
      <trkpt lat="43.97527" lon="7.41132">
        <ele>1206.8</ele>
        <time>2024-07-09T07:53:20Z</time>
      </trkpt>
      <trkpt lat="43.97529" lon="7.41131">
        <ele>1207.4</ele>
        <time>2024-07-09T07:53:21Z</time>
      </trkpt>
      <trkpt lat="43.9753" lon="7.4113">
        <ele>1207.6</ele>
        <time>2024-07-09T07:53:22Z</time>
      </trkpt>
      <trkpt lat="43.97532" lon="7.4113">
        <ele>1207.6</ele>
        <time>2024-07-09T07:53:23Z</time>
      </trkpt>
      <trkpt lat="43.97533" lon="7.41128">
        <ele>1207.6</ele>
        <time>2024-07-09T07:53:24Z</time>
      </trkpt>
      <trkpt lat="43.97535" lon="7.41126">
        <ele>1208.2</ele>
        <time>2024-07-09T07:53:25Z</time>
      </trkpt>
      <trkpt lat="43.97536" lon="7.41125">
        <ele>1208.6</ele>
        <time>2024-07-09T07:53:26Z</time>
      </trkpt>
      <trkpt lat="43.97538" lon="7.41123">
        <ele>1208.6</ele>
        <time>2024-07-09T07:53:27Z</time>
      </trkpt>
      <trkpt lat="43.9754" lon="7.41122">
        <ele>1208.6</ele>
        <time>2024-07-09T07:53:28Z</time>
      </trkpt>
      <trkpt lat="43.97541" lon="7.41121">
        <ele>1208.6</ele>
        <time>2024-07-09T07:53:29Z</time>
      </trkpt>
      <trkpt lat="43.97543" lon="7.41119">
        <ele>1208.6</ele>
        <time>2024-07-09T07:53:30Z</time>
      </trkpt>
      <trkpt lat="43.97545" lon="7.41117">
        <ele>1209</ele>
        <time>2024-07-09T07:53:31Z</time>
      </trkpt>
      <trkpt lat="43.97546" lon="7.41115">
        <ele>1209</ele>
        <time>2024-07-09T07:53:32Z</time>
      </trkpt>
      <trkpt lat="43.97546" lon="7.41113">
        <ele>1209</ele>
        <time>2024-07-09T07:53:33Z</time>
      </trkpt>
      <trkpt lat="43.97547" lon="7.41112">
        <ele>1209.8</ele>
        <time>2024-07-09T07:53:34Z</time>
      </trkpt>
      <trkpt lat="43.97548" lon="7.4111">
        <ele>1209.8</ele>
        <time>2024-07-09T07:53:35Z</time>
      </trkpt>
      <trkpt lat="43.97549" lon="7.41108">
        <ele>1209.8</ele>
        <time>2024-07-09T07:53:36Z</time>
      </trkpt>
      <trkpt lat="43.9755" lon="7.41107">
        <ele>1209.8</ele>
        <time>2024-07-09T07:53:37Z</time>
      </trkpt>
      <trkpt lat="43.97551" lon="7.41105">
        <ele>1209.8</ele>
        <time>2024-07-09T07:53:38Z</time>
      </trkpt>
      <trkpt lat="43.97552" lon="7.41103">
        <ele>1210.4</ele>
        <time>2024-07-09T07:53:39Z</time>
      </trkpt>
      <trkpt lat="43.97553" lon="7.41101">
        <ele>1210.8</ele>
        <time>2024-07-09T07:53:40Z</time>
      </trkpt>
      <trkpt lat="43.97554" lon="7.411">
        <ele>1210.8</ele>
        <time>2024-07-09T07:53:41Z</time>
      </trkpt>
      <trkpt lat="43.97555" lon="7.41098">
        <ele>1210.8</ele>
        <time>2024-07-09T07:53:42Z</time>
      </trkpt>
      <trkpt lat="43.97556" lon="7.41097">
        <ele>1211.2</ele>
        <time>2024-07-09T07:53:43Z</time>
      </trkpt>
      <trkpt lat="43.97557" lon="7.41096">
        <ele>1211.4</ele>
        <time>2024-07-09T07:53:44Z</time>
      </trkpt>
      <trkpt lat="43.97558" lon="7.41094">
        <ele>1211.4</ele>
        <time>2024-07-09T07:53:45Z</time>
      </trkpt>
      <trkpt lat="43.97558" lon="7.41092">
        <ele>1211.4</ele>
        <time>2024-07-09T07:53:46Z</time>
      </trkpt>
      <trkpt lat="43.97559" lon="7.4109">
        <ele>1211.8</ele>
        <time>2024-07-09T07:53:47Z</time>
      </trkpt>
      <trkpt lat="43.97559" lon="7.41088">
        <ele>1212</ele>
        <time>2024-07-09T07:53:48Z</time>
      </trkpt>
      <trkpt lat="43.9756" lon="7.41087">
        <ele>1212</ele>
        <time>2024-07-09T07:53:49Z</time>
      </trkpt>
      <trkpt lat="43.97561" lon="7.41085">
        <ele>1212</ele>
        <time>2024-07-09T07:53:50Z</time>
      </trkpt>
      <trkpt lat="43.97562" lon="7.41083">
        <ele>1212</ele>
        <time>2024-07-09T07:53:51Z</time>
      </trkpt>
      <trkpt lat="43.97563" lon="7.41082">
        <ele>1212</ele>
        <time>2024-07-09T07:53:52Z</time>
      </trkpt>
      <trkpt lat="43.97564" lon="7.4108">
        <ele>1212.8</ele>
        <time>2024-07-09T07:53:53Z</time>
      </trkpt>
      <trkpt lat="43.97565" lon="7.41079">
        <ele>1213</ele>
        <time>2024-07-09T07:53:54Z</time>
      </trkpt>
      <trkpt lat="43.97567" lon="7.41077">
        <ele>1213</ele>
        <time>2024-07-09T07:53:55Z</time>
      </trkpt>
      <trkpt lat="43.97567" lon="7.41075">
        <ele>1213</ele>
        <time>2024-07-09T07:53:56Z</time>
      </trkpt>
      <trkpt lat="43.97568" lon="7.41073">
        <ele>1213.2</ele>
        <time>2024-07-09T07:53:57Z</time>
      </trkpt>
      <trkpt lat="43.97569" lon="7.41071">
        <ele>1213.6</ele>
        <time>2024-07-09T07:53:58Z</time>
      </trkpt>
      <trkpt lat="43.9757" lon="7.41069">
        <ele>1213.6</ele>
        <time>2024-07-09T07:53:59Z</time>
      </trkpt>
      <trkpt lat="43.97571" lon="7.41067">
        <ele>1213.6</ele>
        <time>2024-07-09T07:54:00Z</time>
      </trkpt>
      <trkpt lat="43.97572" lon="7.41065">
        <ele>1213.6</ele>
        <time>2024-07-09T07:54:01Z</time>
      </trkpt>
      <trkpt lat="43.97573" lon="7.41063">
        <ele>1214</ele>
        <time>2024-07-09T07:54:02Z</time>
      </trkpt>
      <trkpt lat="43.97574" lon="7.41062">
        <ele>1214.2</ele>
        <time>2024-07-09T07:54:03Z</time>
      </trkpt>
      <trkpt lat="43.97575" lon="7.4106">
        <ele>1214.2</ele>
        <time>2024-07-09T07:54:04Z</time>
      </trkpt>
      <trkpt lat="43.97576" lon="7.41058">
        <ele>1214.2</ele>
        <time>2024-07-09T07:54:05Z</time>
      </trkpt>
      <trkpt lat="43.97578" lon="7.41057">
        <ele>1214.8</ele>
        <time>2024-07-09T07:54:06Z</time>
      </trkpt>
      <trkpt lat="43.97579" lon="7.41055">
        <ele>1215</ele>
        <time>2024-07-09T07:54:07Z</time>
      </trkpt>
      <trkpt lat="43.9758" lon="7.41053">
        <ele>1215</ele>
        <time>2024-07-09T07:54:08Z</time>
      </trkpt>
      <trkpt lat="43.97581" lon="7.41051">
        <ele>1215</ele>
        <time>2024-07-09T07:54:09Z</time>
      </trkpt>
      <trkpt lat="43.97582" lon="7.41049">
        <ele>1215.4</ele>
        <time>2024-07-09T07:54:10Z</time>
      </trkpt>
      <trkpt lat="43.97583" lon="7.41048">
        <ele>1215.4</ele>
        <time>2024-07-09T07:54:11Z</time>
      </trkpt>
      <trkpt lat="43.97584" lon="7.41046">
        <ele>1215.6</ele>
        <time>2024-07-09T07:54:12Z</time>
      </trkpt>
      <trkpt lat="43.97585" lon="7.41044">
        <ele>1215.6</ele>
        <time>2024-07-09T07:54:13Z</time>
      </trkpt>
      <trkpt lat="43.97586" lon="7.41042">
        <ele>1215.6</ele>
        <time>2024-07-09T07:54:14Z</time>
      </trkpt>
      <trkpt lat="43.97587" lon="7.4104">
        <ele>1216</ele>
        <time>2024-07-09T07:54:15Z</time>
      </trkpt>
      <trkpt lat="43.97588" lon="7.41038">
        <ele>1216.2</ele>
        <time>2024-07-09T07:54:16Z</time>
      </trkpt>
      <trkpt lat="43.97589" lon="7.41037">
        <ele>1216.2</ele>
        <time>2024-07-09T07:54:17Z</time>
      </trkpt>
      <trkpt lat="43.9759" lon="7.41034">
        <ele>1216.2</ele>
        <time>2024-07-09T07:54:18Z</time>
      </trkpt>
      <trkpt lat="43.9759" lon="7.41033">
        <ele>1216.8</ele>
        <time>2024-07-09T07:54:19Z</time>
      </trkpt>
      <trkpt lat="43.97591" lon="7.41031">
        <ele>1216.8</ele>
        <time>2024-07-09T07:54:20Z</time>
      </trkpt>
      <trkpt lat="43.97592" lon="7.41028">
        <ele>1216.8</ele>
        <time>2024-07-09T07:54:21Z</time>
      </trkpt>
      <trkpt lat="43.97593" lon="7.41026">
        <ele>1216.8</ele>
        <time>2024-07-09T07:54:22Z</time>
      </trkpt>
      <trkpt lat="43.97594" lon="7.41024">
        <ele>1216.8</ele>
        <time>2024-07-09T07:54:23Z</time>
      </trkpt>
      <trkpt lat="43.97595" lon="7.41022">
        <ele>1217.4</ele>
        <time>2024-07-09T07:54:24Z</time>
      </trkpt>
      <trkpt lat="43.97596" lon="7.4102">
        <ele>1217.6</ele>
        <time>2024-07-09T07:54:25Z</time>
      </trkpt>
      <trkpt lat="43.97597" lon="7.41018">
        <ele>1217.6</ele>
        <time>2024-07-09T07:54:26Z</time>
      </trkpt>
      <trkpt lat="43.97598" lon="7.41016">
        <ele>1217.6</ele>
        <time>2024-07-09T07:54:27Z</time>
      </trkpt>
      <trkpt lat="43.97599" lon="7.41014">
        <ele>1218.2</ele>
        <time>2024-07-09T07:54:28Z</time>
      </trkpt>
      <trkpt lat="43.976" lon="7.41012">
        <ele>1218.4</ele>
        <time>2024-07-09T07:54:29Z</time>
      </trkpt>
      <trkpt lat="43.976" lon="7.4101">
        <ele>1218.4</ele>
        <time>2024-07-09T07:54:30Z</time>
      </trkpt>
      <trkpt lat="43.97601" lon="7.41008">
        <ele>1218.4</ele>
        <time>2024-07-09T07:54:31Z</time>
      </trkpt>
      <trkpt lat="43.97602" lon="7.41006">
        <ele>1218.4</ele>
        <time>2024-07-09T07:54:32Z</time>
      </trkpt>
      <trkpt lat="43.97603" lon="7.41004">
        <ele>1218.8</ele>
        <time>2024-07-09T07:54:33Z</time>
      </trkpt>
      <trkpt lat="43.97604" lon="7.41003">
        <ele>1218.8</ele>
        <time>2024-07-09T07:54:34Z</time>
      </trkpt>
      <trkpt lat="43.97605" lon="7.41001">
        <ele>1218.8</ele>
        <time>2024-07-09T07:54:35Z</time>
      </trkpt>
      <trkpt lat="43.97606" lon="7.40999">
        <ele>1218.8</ele>
        <time>2024-07-09T07:54:36Z</time>
      </trkpt>
      <trkpt lat="43.97607" lon="7.40997">
        <ele>1218.8</ele>
        <time>2024-07-09T07:54:37Z</time>
      </trkpt>
      <trkpt lat="43.97608" lon="7.40995">
        <ele>1219.2</ele>
        <time>2024-07-09T07:54:38Z</time>
      </trkpt>
      <trkpt lat="43.97609" lon="7.40993">
        <ele>1219.4</ele>
        <time>2024-07-09T07:54:39Z</time>
      </trkpt>
      <trkpt lat="43.9761" lon="7.40991">
        <ele>1219.4</ele>
        <time>2024-07-09T07:54:40Z</time>
      </trkpt>
      <trkpt lat="43.9761" lon="7.40989">
        <ele>1219.4</ele>
        <time>2024-07-09T07:54:41Z</time>
      </trkpt>
      <trkpt lat="43.97611" lon="7.40987">
        <ele>1219.8</ele>
        <time>2024-07-09T07:54:42Z</time>
      </trkpt>
      <trkpt lat="43.97612" lon="7.40985">
        <ele>1220</ele>
        <time>2024-07-09T07:54:43Z</time>
      </trkpt>
      <trkpt lat="43.97613" lon="7.40983">
        <ele>1220</ele>
        <time>2024-07-09T07:54:44Z</time>
      </trkpt>
      <trkpt lat="43.97614" lon="7.40981">
        <ele>1220</ele>
        <time>2024-07-09T07:54:45Z</time>
      </trkpt>
      <trkpt lat="43.97615" lon="7.40979">
        <ele>1220</ele>
        <time>2024-07-09T07:54:46Z</time>
      </trkpt>
      <trkpt lat="43.97615" lon="7.40977">
        <ele>1220.6</ele>
        <time>2024-07-09T07:54:47Z</time>
      </trkpt>
      <trkpt lat="43.97616" lon="7.40975">
        <ele>1220.8</ele>
        <time>2024-07-09T07:54:48Z</time>
      </trkpt>
      <trkpt lat="43.97618" lon="7.40973">
        <ele>1220.8</ele>
        <time>2024-07-09T07:54:49Z</time>
      </trkpt>
      <trkpt lat="43.97619" lon="7.40972">
        <ele>1220.8</ele>
        <time>2024-07-09T07:54:50Z</time>
      </trkpt>
      <trkpt lat="43.9762" lon="7.4097">
        <ele>1221.4</ele>
        <time>2024-07-09T07:54:51Z</time>
      </trkpt>
      <trkpt lat="43.97621" lon="7.40968">
        <ele>1221.6</ele>
        <time>2024-07-09T07:54:52Z</time>
      </trkpt>
      <trkpt lat="43.97622" lon="7.40967">
        <ele>1221.6</ele>
        <time>2024-07-09T07:54:53Z</time>
      </trkpt>
      <trkpt lat="43.97623" lon="7.40965">
        <ele>1221.6</ele>
        <time>2024-07-09T07:54:54Z</time>
      </trkpt>
      <trkpt lat="43.97624" lon="7.40963">
        <ele>1222</ele>
        <time>2024-07-09T07:54:55Z</time>
      </trkpt>
      <trkpt lat="43.97625" lon="7.40961">
        <ele>1222.2</ele>
        <time>2024-07-09T07:54:56Z</time>
      </trkpt>
      <trkpt lat="43.97626" lon="7.40959">
        <ele>1222.2</ele>
        <time>2024-07-09T07:54:57Z</time>
      </trkpt>
      <trkpt lat="43.97627" lon="7.40957">
        <ele>1222.2</ele>
        <time>2024-07-09T07:54:58Z</time>
      </trkpt>
      <trkpt lat="43.97628" lon="7.40956">
        <ele>1222.2</ele>
        <time>2024-07-09T07:54:59Z</time>
      </trkpt>
      <trkpt lat="43.97629" lon="7.40954">
        <ele>1222.4</ele>
        <time>2024-07-09T07:55:00Z</time>
      </trkpt>
      <trkpt lat="43.97629" lon="7.40952">
        <ele>1222.6</ele>
        <time>2024-07-09T07:55:01Z</time>
      </trkpt>
      <trkpt lat="43.9763" lon="7.4095">
        <ele>1222.6</ele>
        <time>2024-07-09T07:55:02Z</time>
      </trkpt>
      <trkpt lat="43.97631" lon="7.40949">
        <ele>1222.6</ele>
        <time>2024-07-09T07:55:03Z</time>
      </trkpt>
      <trkpt lat="43.97632" lon="7.40947">
        <ele>1223</ele>
        <time>2024-07-09T07:55:04Z</time>
      </trkpt>
      <trkpt lat="43.97633" lon="7.40945">
        <ele>1223.2</ele>
        <time>2024-07-09T07:55:05Z</time>
      </trkpt>
      <trkpt lat="43.97634" lon="7.40943">
        <ele>1223.2</ele>
        <time>2024-07-09T07:55:06Z</time>
      </trkpt>
      <trkpt lat="43.97636" lon="7.40942">
        <ele>1223.2</ele>
        <time>2024-07-09T07:55:07Z</time>
      </trkpt>
      <trkpt lat="43.97638" lon="7.4094">
        <ele>1223.6</ele>
        <time>2024-07-09T07:55:08Z</time>
      </trkpt>
      <trkpt lat="43.97639" lon="7.40939">
        <ele>1223.8</ele>
        <time>2024-07-09T07:55:09Z</time>
      </trkpt>
      <trkpt lat="43.97641" lon="7.40937">
        <ele>1223.8</ele>
        <time>2024-07-09T07:55:10Z</time>
      </trkpt>
      <trkpt lat="43.97641" lon="7.40935">
        <ele>1223.8</ele>
        <time>2024-07-09T07:55:11Z</time>
      </trkpt>
      <trkpt lat="43.97642" lon="7.40933">
        <ele>1223.8</ele>
        <time>2024-07-09T07:55:12Z</time>
      </trkpt>
      <trkpt lat="43.97643" lon="7.40931">
        <ele>1224.4</ele>
        <time>2024-07-09T07:55:13Z</time>
      </trkpt>
      <trkpt lat="43.97644" lon="7.40929">
        <ele>1224.2</ele>
        <time>2024-07-09T07:55:14Z</time>
      </trkpt>
      <trkpt lat="43.97645" lon="7.40928">
        <ele>1224.2</ele>
        <time>2024-07-09T07:55:15Z</time>
      </trkpt>
      <trkpt lat="43.97646" lon="7.40926">
        <ele>1224.2</ele>
        <time>2024-07-09T07:55:16Z</time>
      </trkpt>
      <trkpt lat="43.97647" lon="7.40924">
        <ele>1224.2</ele>
        <time>2024-07-09T07:55:17Z</time>
      </trkpt>
      <trkpt lat="43.97647" lon="7.40923">
        <ele>1224.8</ele>
        <time>2024-07-09T07:55:18Z</time>
      </trkpt>
      <trkpt lat="43.97649" lon="7.40921">
        <ele>1225.2</ele>
        <time>2024-07-09T07:55:19Z</time>
      </trkpt>
      <trkpt lat="43.97649" lon="7.40919">
        <ele>1225.2</ele>
        <time>2024-07-09T07:55:20Z</time>
      </trkpt>
      <trkpt lat="43.9765" lon="7.40918">
        <ele>1225.2</ele>
        <time>2024-07-09T07:55:21Z</time>
      </trkpt>
      <trkpt lat="43.97652" lon="7.40916">
        <ele>1225.4</ele>
        <time>2024-07-09T07:55:22Z</time>
      </trkpt>
      <trkpt lat="43.97653" lon="7.40915">
        <ele>1225.4</ele>
        <time>2024-07-09T07:55:23Z</time>
      </trkpt>
      <trkpt lat="43.97654" lon="7.40914">
        <ele>1225.6</ele>
        <time>2024-07-09T07:55:24Z</time>
      </trkpt>
      <trkpt lat="43.97655" lon="7.40912">
        <ele>1225.6</ele>
        <time>2024-07-09T07:55:25Z</time>
      </trkpt>
      <trkpt lat="43.97656" lon="7.40911">
        <ele>1225.6</ele>
        <time>2024-07-09T07:55:26Z</time>
      </trkpt>
      <trkpt lat="43.97657" lon="7.40909">
        <ele>1226</ele>
        <time>2024-07-09T07:55:27Z</time>
      </trkpt>
      <trkpt lat="43.97658" lon="7.40907">
        <ele>1226</ele>
        <time>2024-07-09T07:55:28Z</time>
      </trkpt>
      <trkpt lat="43.97659" lon="7.40906">
        <ele>1226</ele>
        <time>2024-07-09T07:55:29Z</time>
      </trkpt>
      <trkpt lat="43.97661" lon="7.40904">
        <ele>1226</ele>
        <time>2024-07-09T07:55:30Z</time>
      </trkpt>
      <trkpt lat="43.97662" lon="7.40903">
        <ele>1226.4</ele>
        <time>2024-07-09T07:55:31Z</time>
      </trkpt>
      <trkpt lat="43.97662" lon="7.40901">
        <ele>1226.8</ele>
        <time>2024-07-09T07:55:32Z</time>
      </trkpt>
      <trkpt lat="43.97664" lon="7.409">
        <ele>1226.8</ele>
        <time>2024-07-09T07:55:33Z</time>
      </trkpt>
      <trkpt lat="43.97665" lon="7.40898">
        <ele>1226.8</ele>
        <time>2024-07-09T07:55:34Z</time>
      </trkpt>
      <trkpt lat="43.97666" lon="7.40896">
        <ele>1226.8</ele>
        <time>2024-07-09T07:55:35Z</time>
      </trkpt>
      <trkpt lat="43.97668" lon="7.40894">
        <ele>1227.4</ele>
        <time>2024-07-09T07:55:36Z</time>
      </trkpt>
      <trkpt lat="43.97668" lon="7.40892">
        <ele>1227.4</ele>
        <time>2024-07-09T07:55:37Z</time>
      </trkpt>
      <trkpt lat="43.97669" lon="7.40889">
        <ele>1227.4</ele>
        <time>2024-07-09T07:55:38Z</time>
      </trkpt>
      <trkpt lat="43.9767" lon="7.40887">
        <ele>1227.4</ele>
        <time>2024-07-09T07:55:39Z</time>
      </trkpt>
      <trkpt lat="43.9767" lon="7.40885">
        <ele>1227.4</ele>
        <time>2024-07-09T07:55:40Z</time>
      </trkpt>
      <trkpt lat="43.9767" lon="7.40882">
        <ele>1227.8</ele>
        <time>2024-07-09T07:55:41Z</time>
      </trkpt>
      <trkpt lat="43.97671" lon="7.4088">
        <ele>1227.8</ele>
        <time>2024-07-09T07:55:42Z</time>
      </trkpt>
      <trkpt lat="43.9767" lon="7.40877">
        <ele>1227.8</ele>
        <time>2024-07-09T07:55:43Z</time>
      </trkpt>
      <trkpt lat="43.9767" lon="7.40875">
        <ele>1228.4</ele>
        <time>2024-07-09T07:55:44Z</time>
      </trkpt>
      <trkpt lat="43.9767" lon="7.40873">
        <ele>1228.4</ele>
        <time>2024-07-09T07:55:45Z</time>
      </trkpt>
      <trkpt lat="43.9767" lon="7.4087">
        <ele>1228.4</ele>
        <time>2024-07-09T07:55:46Z</time>
      </trkpt>
      <trkpt lat="43.9767" lon="7.40867">
        <ele>1228.4</ele>
        <time>2024-07-09T07:55:47Z</time>
      </trkpt>
      <trkpt lat="43.9767" lon="7.40865">
        <ele>1228.4</ele>
        <time>2024-07-09T07:55:48Z</time>
      </trkpt>
      <trkpt lat="43.97669" lon="7.40863">
        <ele>1228.8</ele>
        <time>2024-07-09T07:55:49Z</time>
      </trkpt>
      <trkpt lat="43.97668" lon="7.4086">
        <ele>1228.8</ele>
        <time>2024-07-09T07:55:50Z</time>
      </trkpt>
      <trkpt lat="43.97668" lon="7.40858">
        <ele>1228.8</ele>
        <time>2024-07-09T07:55:51Z</time>
      </trkpt>
      <trkpt lat="43.97667" lon="7.40855">
        <ele>1228.8</ele>
        <time>2024-07-09T07:55:52Z</time>
      </trkpt>
      <trkpt lat="43.97666" lon="7.40853">
        <ele>1229.4</ele>
        <time>2024-07-09T07:55:53Z</time>
      </trkpt>
      <trkpt lat="43.97665" lon="7.4085">
        <ele>1229.4</ele>
        <time>2024-07-09T07:55:54Z</time>
      </trkpt>
      <trkpt lat="43.97665" lon="7.40847">
        <ele>1229.4</ele>
        <time>2024-07-09T07:55:55Z</time>
      </trkpt>
      <trkpt lat="43.97664" lon="7.40845">
        <ele>1229.4</ele>
        <time>2024-07-09T07:55:56Z</time>
      </trkpt>
      <trkpt lat="43.97663" lon="7.40843">
        <ele>1229.4</ele>
        <time>2024-07-09T07:55:57Z</time>
      </trkpt>
      <trkpt lat="43.97662" lon="7.40841">
        <ele>1229.4</ele>
        <time>2024-07-09T07:55:58Z</time>
      </trkpt>
      <trkpt lat="43.97662" lon="7.40839">
        <ele>1229.8</ele>
        <time>2024-07-09T07:55:59Z</time>
      </trkpt>
      <trkpt lat="43.97661" lon="7.40837">
        <ele>1230.2</ele>
        <time>2024-07-09T07:56:00Z</time>
      </trkpt>
      <trkpt lat="43.9766" lon="7.40835">
        <ele>1230.2</ele>
        <time>2024-07-09T07:56:01Z</time>
      </trkpt>
      <trkpt lat="43.9766" lon="7.40833">
        <ele>1230.2</ele>
        <time>2024-07-09T07:56:02Z</time>
      </trkpt>
      <trkpt lat="43.9766" lon="7.4083">
        <ele>1230.8</ele>
        <time>2024-07-09T07:56:03Z</time>
      </trkpt>
      <trkpt lat="43.97659" lon="7.40828">
        <ele>1230.8</ele>
        <time>2024-07-09T07:56:04Z</time>
      </trkpt>
      <trkpt lat="43.97659" lon="7.40826">
        <ele>1230.8</ele>
        <time>2024-07-09T07:56:05Z</time>
      </trkpt>
      <trkpt lat="43.97658" lon="7.40824">
        <ele>1230.8</ele>
        <time>2024-07-09T07:56:06Z</time>
      </trkpt>
      <trkpt lat="43.97658" lon="7.40822">
        <ele>1231.6</ele>
        <time>2024-07-09T07:56:07Z</time>
      </trkpt>
      <trkpt lat="43.97658" lon="7.4082">
        <ele>1231.6</ele>
        <time>2024-07-09T07:56:08Z</time>
      </trkpt>
      <trkpt lat="43.97658" lon="7.40817">
        <ele>1231.8</ele>
        <time>2024-07-09T07:56:09Z</time>
      </trkpt>
      <trkpt lat="43.97658" lon="7.40815">
        <ele>1231.8</ele>
        <time>2024-07-09T07:56:10Z</time>
      </trkpt>
      <trkpt lat="43.97658" lon="7.40813">
        <ele>1231.8</ele>
        <time>2024-07-09T07:56:11Z</time>
      </trkpt>
      <trkpt lat="43.9766" lon="7.40811">
        <ele>1232</ele>
        <time>2024-07-09T07:56:12Z</time>
      </trkpt>
      <trkpt lat="43.97661" lon="7.40809">
        <ele>1232.2</ele>
        <time>2024-07-09T07:56:13Z</time>
      </trkpt>
      <trkpt lat="43.97661" lon="7.40806">
        <ele>1232.2</ele>
        <time>2024-07-09T07:56:14Z</time>
      </trkpt>
      <trkpt lat="43.97662" lon="7.40804">
        <ele>1232.2</ele>
        <time>2024-07-09T07:56:15Z</time>
      </trkpt>
      <trkpt lat="43.97663" lon="7.40802">
        <ele>1232.6</ele>
        <time>2024-07-09T07:56:16Z</time>
      </trkpt>
      <trkpt lat="43.97664" lon="7.408">
        <ele>1232.8</ele>
        <time>2024-07-09T07:56:17Z</time>
      </trkpt>
      <trkpt lat="43.97665" lon="7.40799">
        <ele>1232.8</ele>
        <time>2024-07-09T07:56:18Z</time>
      </trkpt>
      <trkpt lat="43.97665" lon="7.40797">
        <ele>1232.8</ele>
        <time>2024-07-09T07:56:19Z</time>
      </trkpt>
      <trkpt lat="43.97666" lon="7.40795">
        <ele>1233.4</ele>
        <time>2024-07-09T07:56:20Z</time>
      </trkpt>
      <trkpt lat="43.97666" lon="7.40794">
        <ele>1233.4</ele>
        <time>2024-07-09T07:56:21Z</time>
      </trkpt>
      <trkpt lat="43.97667" lon="7.40792">
        <ele>1233.4</ele>
        <time>2024-07-09T07:56:22Z</time>
      </trkpt>
      <trkpt lat="43.97668" lon="7.4079">
        <ele>1233.4</ele>
        <time>2024-07-09T07:56:23Z</time>
      </trkpt>
      <trkpt lat="43.97669" lon="7.40788">
        <ele>1233.4</ele>
        <time>2024-07-09T07:56:24Z</time>
      </trkpt>
      <trkpt lat="43.97669" lon="7.40787">
        <ele>1234</ele>
        <time>2024-07-09T07:56:25Z</time>
      </trkpt>
      <trkpt lat="43.97669" lon="7.40785">
        <ele>1234.2</ele>
        <time>2024-07-09T07:56:26Z</time>
      </trkpt>
      <trkpt lat="43.97669" lon="7.40783">
        <ele>1234.2</ele>
        <time>2024-07-09T07:56:27Z</time>
      </trkpt>
      <trkpt lat="43.97669" lon="7.40781">
        <ele>1234.2</ele>
        <time>2024-07-09T07:56:28Z</time>
      </trkpt>
      <trkpt lat="43.97669" lon="7.40779">
        <ele>1234.8</ele>
        <time>2024-07-09T07:56:29Z</time>
      </trkpt>
      <trkpt lat="43.97669" lon="7.40777">
        <ele>1234.8</ele>
        <time>2024-07-09T07:56:30Z</time>
      </trkpt>
      <trkpt lat="43.97669" lon="7.40775">
        <ele>1234.8</ele>
        <time>2024-07-09T07:56:31Z</time>
      </trkpt>
      <trkpt lat="43.97669" lon="7.40773">
        <ele>1234.8</ele>
        <time>2024-07-09T07:56:32Z</time>
      </trkpt>
      <trkpt lat="43.97669" lon="7.40771">
        <ele>1234.8</ele>
        <time>2024-07-09T07:56:33Z</time>
      </trkpt>
      <trkpt lat="43.97668" lon="7.40769">
        <ele>1235.2</ele>
        <time>2024-07-09T07:56:34Z</time>
      </trkpt>
      <trkpt lat="43.97668" lon="7.40767">
        <ele>1235.6</ele>
        <time>2024-07-09T07:56:35Z</time>
      </trkpt>
      <trkpt lat="43.97668" lon="7.40765">
        <ele>1235.6</ele>
        <time>2024-07-09T07:56:36Z</time>
      </trkpt>
      <trkpt lat="43.97668" lon="7.40763">
        <ele>1235.6</ele>
        <time>2024-07-09T07:56:37Z</time>
      </trkpt>
      <trkpt lat="43.97667" lon="7.40761">
        <ele>1235.8</ele>
        <time>2024-07-09T07:56:38Z</time>
      </trkpt>
      <trkpt lat="43.97668" lon="7.40758">
        <ele>1235.8</ele>
        <time>2024-07-09T07:56:39Z</time>
      </trkpt>
      <trkpt lat="43.97667" lon="7.40756">
        <ele>1235.8</ele>
        <time>2024-07-09T07:56:40Z</time>
      </trkpt>
      <trkpt lat="43.97667" lon="7.40753">
        <ele>1235.8</ele>
        <time>2024-07-09T07:56:41Z</time>
      </trkpt>
      <trkpt lat="43.97667" lon="7.40751">
        <ele>1235.8</ele>
        <time>2024-07-09T07:56:42Z</time>
      </trkpt>
      <trkpt lat="43.97666" lon="7.40748">
        <ele>1236.4</ele>
        <time>2024-07-09T07:56:43Z</time>
      </trkpt>
      <trkpt lat="43.97666" lon="7.40746">
        <ele>1236.4</ele>
        <time>2024-07-09T07:56:44Z</time>
      </trkpt>
      <trkpt lat="43.97666" lon="7.40744">
        <ele>1236.4</ele>
        <time>2024-07-09T07:56:45Z</time>
      </trkpt>
      <trkpt lat="43.97666" lon="7.40742">
        <ele>1236.4</ele>
        <time>2024-07-09T07:56:46Z</time>
      </trkpt>
      <trkpt lat="43.97665" lon="7.4074">
        <ele>1236.4</ele>
        <time>2024-07-09T07:56:47Z</time>
      </trkpt>
      <trkpt lat="43.97664" lon="7.40737">
        <ele>1237</ele>
        <time>2024-07-09T07:56:48Z</time>
      </trkpt>
      <trkpt lat="43.97664" lon="7.40735">
        <ele>1237</ele>
        <time>2024-07-09T07:56:49Z</time>
      </trkpt>
      <trkpt lat="43.97663" lon="7.40733">
        <ele>1237</ele>
        <time>2024-07-09T07:56:50Z</time>
      </trkpt>
      <trkpt lat="43.97662" lon="7.40731">
        <ele>1237</ele>
        <time>2024-07-09T07:56:51Z</time>
      </trkpt>
      <trkpt lat="43.97661" lon="7.40728">
        <ele>1237.2</ele>
        <time>2024-07-09T07:56:52Z</time>
      </trkpt>
      <trkpt lat="43.97661" lon="7.40726">
        <ele>1237.6</ele>
        <time>2024-07-09T07:56:53Z</time>
      </trkpt>
      <trkpt lat="43.9766" lon="7.40724">
        <ele>1237.6</ele>
        <time>2024-07-09T07:56:54Z</time>
      </trkpt>
      <trkpt lat="43.97659" lon="7.40722">
        <ele>1237.6</ele>
        <time>2024-07-09T07:56:55Z</time>
      </trkpt>
      <trkpt lat="43.97658" lon="7.4072">
        <ele>1237.6</ele>
        <time>2024-07-09T07:56:56Z</time>
      </trkpt>
      <trkpt lat="43.97657" lon="7.40718">
        <ele>1238</ele>
        <time>2024-07-09T07:56:57Z</time>
      </trkpt>
      <trkpt lat="43.97657" lon="7.40715">
        <ele>1238.2</ele>
        <time>2024-07-09T07:56:58Z</time>
      </trkpt>
      <trkpt lat="43.97656" lon="7.40713">
        <ele>1238.2</ele>
        <time>2024-07-09T07:56:59Z</time>
      </trkpt>
      <trkpt lat="43.97655" lon="7.40711">
        <ele>1238.2</ele>
        <time>2024-07-09T07:57:00Z</time>
      </trkpt>
      <trkpt lat="43.97655" lon="7.40709">
        <ele>1238.6</ele>
        <time>2024-07-09T07:57:01Z</time>
      </trkpt>
      <trkpt lat="43.97655" lon="7.40708">
        <ele>1239</ele>
        <time>2024-07-09T07:57:02Z</time>
      </trkpt>
      <trkpt lat="43.97655" lon="7.40706">
        <ele>1239</ele>
        <time>2024-07-09T07:57:03Z</time>
      </trkpt>
      <trkpt lat="43.97655" lon="7.40703">
        <ele>1239</ele>
        <time>2024-07-09T07:57:04Z</time>
      </trkpt>
      <trkpt lat="43.97656" lon="7.40701">
        <ele>1239.2</ele>
        <time>2024-07-09T07:57:05Z</time>
      </trkpt>
      <trkpt lat="43.97656" lon="7.40698">
        <ele>1239.2</ele>
        <time>2024-07-09T07:57:06Z</time>
      </trkpt>
      <trkpt lat="43.97656" lon="7.40696">
        <ele>1239.6</ele>
        <time>2024-07-09T07:57:07Z</time>
      </trkpt>
      <trkpt lat="43.97656" lon="7.40694">
        <ele>1239.6</ele>
        <time>2024-07-09T07:57:08Z</time>
      </trkpt>
      <trkpt lat="43.97656" lon="7.40691">
        <ele>1239.6</ele>
        <time>2024-07-09T07:57:09Z</time>
      </trkpt>
      <trkpt lat="43.97658" lon="7.4069">
        <ele>1240</ele>
        <time>2024-07-09T07:57:10Z</time>
      </trkpt>
      <trkpt lat="43.97658" lon="7.40688">
        <ele>1240</ele>
        <time>2024-07-09T07:57:11Z</time>
      </trkpt>
      <trkpt lat="43.97658" lon="7.40686">
        <ele>1240</ele>
        <time>2024-07-09T07:57:12Z</time>
      </trkpt>
      <trkpt lat="43.97658" lon="7.40684">
        <ele>1240</ele>
        <time>2024-07-09T07:57:13Z</time>
      </trkpt>
      <trkpt lat="43.97659" lon="7.40681">
        <ele>1240.6</ele>
        <time>2024-07-09T07:57:14Z</time>
      </trkpt>
      <trkpt lat="43.9766" lon="7.40679">
        <ele>1240.6</ele>
        <time>2024-07-09T07:57:15Z</time>
      </trkpt>
      <trkpt lat="43.9766" lon="7.40677">
        <ele>1240.6</ele>
        <time>2024-07-09T07:57:16Z</time>
      </trkpt>
      <trkpt lat="43.97661" lon="7.40675">
        <ele>1240.6</ele>
        <time>2024-07-09T07:57:17Z</time>
      </trkpt>
      <trkpt lat="43.97661" lon="7.40672">
        <ele>1240.6</ele>
        <time>2024-07-09T07:57:18Z</time>
      </trkpt>
      <trkpt lat="43.97662" lon="7.4067">
        <ele>1241.2</ele>
        <time>2024-07-09T07:57:19Z</time>
      </trkpt>
      <trkpt lat="43.97663" lon="7.40668">
        <ele>1241.4</ele>
        <time>2024-07-09T07:57:20Z</time>
      </trkpt>
      <trkpt lat="43.97663" lon="7.40667">
        <ele>1241.4</ele>
        <time>2024-07-09T07:57:21Z</time>
      </trkpt>
      <trkpt lat="43.97663" lon="7.40665">
        <ele>1241.4</ele>
        <time>2024-07-09T07:57:22Z</time>
      </trkpt>
      <trkpt lat="43.97664" lon="7.40662">
        <ele>1241.4</ele>
        <time>2024-07-09T07:57:23Z</time>
      </trkpt>
      <trkpt lat="43.97664" lon="7.4066">
        <ele>1241.6</ele>
        <time>2024-07-09T07:57:24Z</time>
      </trkpt>
      <trkpt lat="43.97665" lon="7.40657">
        <ele>1241.6</ele>
        <time>2024-07-09T07:57:25Z</time>
      </trkpt>
      <trkpt lat="43.97666" lon="7.40655">
        <ele>1241.8</ele>
        <time>2024-07-09T07:57:26Z</time>
      </trkpt>
      <trkpt lat="43.97667" lon="7.40653">
        <ele>1241.8</ele>
        <time>2024-07-09T07:57:27Z</time>
      </trkpt>
      <trkpt lat="43.97667" lon="7.4065">
        <ele>1241.8</ele>
        <time>2024-07-09T07:57:28Z</time>
      </trkpt>
      <trkpt lat="43.97668" lon="7.40648">
        <ele>1242.4</ele>
        <time>2024-07-09T07:57:29Z</time>
      </trkpt>
      <trkpt lat="43.97669" lon="7.40646">
        <ele>1242.4</ele>
        <time>2024-07-09T07:57:30Z</time>
      </trkpt>
      <trkpt lat="43.9767" lon="7.40643">
        <ele>1242.4</ele>
        <time>2024-07-09T07:57:31Z</time>
      </trkpt>
      <trkpt lat="43.97671" lon="7.40641">
        <ele>1242.4</ele>
        <time>2024-07-09T07:57:32Z</time>
      </trkpt>
      <trkpt lat="43.97671" lon="7.40639">
        <ele>1242.8</ele>
        <time>2024-07-09T07:57:33Z</time>
      </trkpt>
      <trkpt lat="43.97672" lon="7.40638">
        <ele>1243</ele>
        <time>2024-07-09T07:57:34Z</time>
      </trkpt>
      <trkpt lat="43.97672" lon="7.40635">
        <ele>1243</ele>
        <time>2024-07-09T07:57:35Z</time>
      </trkpt>
      <trkpt lat="43.97673" lon="7.40633">
        <ele>1243</ele>
        <time>2024-07-09T07:57:36Z</time>
      </trkpt>
      <trkpt lat="43.97674" lon="7.4063">
        <ele>1243</ele>
        <time>2024-07-09T07:57:37Z</time>
      </trkpt>
      <trkpt lat="43.97675" lon="7.40628">
        <ele>1243</ele>
        <time>2024-07-09T07:57:38Z</time>
      </trkpt>
      <trkpt lat="43.97676" lon="7.40626">
        <ele>1243.6</ele>
        <time>2024-07-09T07:57:39Z</time>
      </trkpt>
      <trkpt lat="43.97677" lon="7.40624">
        <ele>1243.6</ele>
        <time>2024-07-09T07:57:40Z</time>
      </trkpt>
      <trkpt lat="43.97678" lon="7.40621">
        <ele>1243.6</ele>
        <time>2024-07-09T07:57:41Z</time>
      </trkpt>
      <trkpt lat="43.9768" lon="7.40619">
        <ele>1244</ele>
        <time>2024-07-09T07:57:42Z</time>
      </trkpt>
      <trkpt lat="43.97681" lon="7.40617">
        <ele>1244.2</ele>
        <time>2024-07-09T07:57:43Z</time>
      </trkpt>
      <trkpt lat="43.97682" lon="7.40616">
        <ele>1244.2</ele>
        <time>2024-07-09T07:57:44Z</time>
      </trkpt>
      <trkpt lat="43.97683" lon="7.40614">
        <ele>1244.2</ele>
        <time>2024-07-09T07:57:45Z</time>
      </trkpt>
      <trkpt lat="43.97684" lon="7.40612">
        <ele>1244.2</ele>
        <time>2024-07-09T07:57:46Z</time>
      </trkpt>
      <trkpt lat="43.97685" lon="7.4061">
        <ele>1244.8</ele>
        <time>2024-07-09T07:57:47Z</time>
      </trkpt>
      <trkpt lat="43.97686" lon="7.40608">
        <ele>1244.8</ele>
        <time>2024-07-09T07:57:48Z</time>
      </trkpt>
      <trkpt lat="43.97687" lon="7.40606">
        <ele>1244.8</ele>
        <time>2024-07-09T07:57:49Z</time>
      </trkpt>
      <trkpt lat="43.97688" lon="7.40604">
        <ele>1244.8</ele>
        <time>2024-07-09T07:57:50Z</time>
      </trkpt>
      <trkpt lat="43.97689" lon="7.40602">
        <ele>1245.2</ele>
        <time>2024-07-09T07:57:51Z</time>
      </trkpt>
      <trkpt lat="43.97691" lon="7.40601">
        <ele>1245.2</ele>
        <time>2024-07-09T07:57:52Z</time>
      </trkpt>
      <trkpt lat="43.97692" lon="7.40599">
        <ele>1245.2</ele>
        <time>2024-07-09T07:57:53Z</time>
      </trkpt>
      <trkpt lat="43.97691" lon="7.40597">
        <ele>1245.2</ele>
        <time>2024-07-09T07:57:54Z</time>
      </trkpt>
      <trkpt lat="43.97692" lon="7.40596">
        <ele>1246</ele>
        <time>2024-07-09T07:57:55Z</time>
      </trkpt>
      <trkpt lat="43.97693" lon="7.40594">
        <ele>1246</ele>
        <time>2024-07-09T07:57:56Z</time>
      </trkpt>
      <trkpt lat="43.97693" lon="7.40593">
        <ele>1246</ele>
        <time>2024-07-09T07:57:57Z</time>
      </trkpt>
      <trkpt lat="43.97695" lon="7.40591">
        <ele>1246</ele>
        <time>2024-07-09T07:57:58Z</time>
      </trkpt>
      <trkpt lat="43.97696" lon="7.40589">
        <ele>1246</ele>
        <time>2024-07-09T07:57:59Z</time>
      </trkpt>
      <trkpt lat="43.97696" lon="7.40588">
        <ele>1246.6</ele>
        <time>2024-07-09T07:58:00Z</time>
      </trkpt>
      <trkpt lat="43.97698" lon="7.40586">
        <ele>1246.8</ele>
        <time>2024-07-09T07:58:01Z</time>
      </trkpt>
      <trkpt lat="43.97699" lon="7.40584">
        <ele>1246.8</ele>
        <time>2024-07-09T07:58:02Z</time>
      </trkpt>
      <trkpt lat="43.97701" lon="7.40583">
        <ele>1246.8</ele>
        <time>2024-07-09T07:58:03Z</time>
      </trkpt>
      <trkpt lat="43.97702" lon="7.4058">
        <ele>1247.2</ele>
        <time>2024-07-09T07:58:04Z</time>
      </trkpt>
      <trkpt lat="43.97703" lon="7.40579">
        <ele>1247.2</ele>
        <time>2024-07-09T07:58:05Z</time>
      </trkpt>
      <trkpt lat="43.97704" lon="7.40577">
        <ele>1247.2</ele>
        <time>2024-07-09T07:58:06Z</time>
      </trkpt>
      <trkpt lat="43.97705" lon="7.40575">
        <ele>1247.2</ele>
        <time>2024-07-09T07:58:07Z</time>
      </trkpt>
      <trkpt lat="43.97706" lon="7.40574">
        <ele>1247.2</ele>
        <time>2024-07-09T07:58:08Z</time>
      </trkpt>
      <trkpt lat="43.97708" lon="7.40572">
        <ele>1247.6</ele>
        <time>2024-07-09T07:58:09Z</time>
      </trkpt>
      <trkpt lat="43.97709" lon="7.40571">
        <ele>1247.6</ele>
        <time>2024-07-09T07:58:10Z</time>
      </trkpt>
      <trkpt lat="43.9771" lon="7.4057">
        <ele>1247.6</ele>
        <time>2024-07-09T07:58:11Z</time>
      </trkpt>
      <trkpt lat="43.97711" lon="7.40568">
        <ele>1247.6</ele>
        <time>2024-07-09T07:58:12Z</time>
      </trkpt>
      <trkpt lat="43.97712" lon="7.40566">
        <ele>1247.8</ele>
        <time>2024-07-09T07:58:13Z</time>
      </trkpt>
      <trkpt lat="43.97714" lon="7.40565">
        <ele>1248</ele>
        <time>2024-07-09T07:58:14Z</time>
      </trkpt>
      <trkpt lat="43.97715" lon="7.40563">
        <ele>1248</ele>
        <time>2024-07-09T07:58:15Z</time>
      </trkpt>
      <trkpt lat="43.97716" lon="7.40561">
        <ele>1248</ele>
        <time>2024-07-09T07:58:16Z</time>
      </trkpt>
      <trkpt lat="43.97718" lon="7.40559">
        <ele>1248</ele>
        <time>2024-07-09T07:58:17Z</time>
      </trkpt>
      <trkpt lat="43.97719" lon="7.40557">
        <ele>1249</ele>
        <time>2024-07-09T07:58:18Z</time>
      </trkpt>
      <trkpt lat="43.9772" lon="7.40556">
        <ele>1249</ele>
        <time>2024-07-09T07:58:19Z</time>
      </trkpt>
      <trkpt lat="43.97722" lon="7.40555">
        <ele>1249</ele>
        <time>2024-07-09T07:58:20Z</time>
      </trkpt>
      <trkpt lat="43.97723" lon="7.40553">
        <ele>1249</ele>
        <time>2024-07-09T07:58:21Z</time>
      </trkpt>
      <trkpt lat="43.97724" lon="7.40552">
        <ele>1249.8</ele>
        <time>2024-07-09T07:58:22Z</time>
      </trkpt>
      <trkpt lat="43.97725" lon="7.40551">
        <ele>1250</ele>
        <time>2024-07-09T07:58:23Z</time>
      </trkpt>
      <trkpt lat="43.97726" lon="7.4055">
        <ele>1250</ele>
        <time>2024-07-09T07:58:24Z</time>
      </trkpt>
      <trkpt lat="43.97727" lon="7.40548">
        <ele>1250</ele>
        <time>2024-07-09T07:58:25Z</time>
      </trkpt>
      <trkpt lat="43.97727" lon="7.40547">
        <ele>1250.6</ele>
        <time>2024-07-09T07:58:26Z</time>
      </trkpt>
      <trkpt lat="43.97728" lon="7.40545">
        <ele>1250.8</ele>
        <time>2024-07-09T07:58:27Z</time>
      </trkpt>
      <trkpt lat="43.97728" lon="7.40543">
        <ele>1250.8</ele>
        <time>2024-07-09T07:58:28Z</time>
      </trkpt>
      <trkpt lat="43.97728" lon="7.4054">
        <ele>1250.8</ele>
        <time>2024-07-09T07:58:29Z</time>
      </trkpt>
      <trkpt lat="43.97728" lon="7.40538">
        <ele>1250.8</ele>
        <time>2024-07-09T07:58:30Z</time>
      </trkpt>
      <trkpt lat="43.97728" lon="7.40536">
        <ele>1251</ele>
        <time>2024-07-09T07:58:31Z</time>
      </trkpt>
      <trkpt lat="43.97727" lon="7.40535">
        <ele>1251</ele>
        <time>2024-07-09T07:58:32Z</time>
      </trkpt>
      <trkpt lat="43.97725" lon="7.40535">
        <ele>1251</ele>
        <time>2024-07-09T07:58:33Z</time>
      </trkpt>
      <trkpt lat="43.97724" lon="7.40534">
        <ele>1251</ele>
        <time>2024-07-09T07:58:34Z</time>
      </trkpt>
      <trkpt lat="43.97723" lon="7.40534">
        <ele>1251.4</ele>
        <time>2024-07-09T07:58:35Z</time>
      </trkpt>
      <trkpt lat="43.97721" lon="7.40534">
        <ele>1251.6</ele>
        <time>2024-07-09T07:58:36Z</time>
      </trkpt>
      <trkpt lat="43.9772" lon="7.40535">
        <ele>1251.6</ele>
        <time>2024-07-09T07:58:37Z</time>
      </trkpt>
      <trkpt lat="43.97718" lon="7.40536">
        <ele>1251.6</ele>
        <time>2024-07-09T07:58:38Z</time>
      </trkpt>
      <trkpt lat="43.97716" lon="7.40537">
        <ele>1251.8</ele>
        <time>2024-07-09T07:58:39Z</time>
      </trkpt>
      <trkpt lat="43.97714" lon="7.40538">
        <ele>1251.8</ele>
        <time>2024-07-09T07:58:40Z</time>
      </trkpt>
      <trkpt lat="43.97712" lon="7.4054">
        <ele>1251.8</ele>
        <time>2024-07-09T07:58:41Z</time>
      </trkpt>
      <trkpt lat="43.9771" lon="7.40541">
        <ele>1251.8</ele>
        <time>2024-07-09T07:58:42Z</time>
      </trkpt>
      <trkpt lat="43.97708" lon="7.40543">
        <ele>1251.8</ele>
        <time>2024-07-09T07:58:43Z</time>
      </trkpt>
      <trkpt lat="43.97707" lon="7.40545">
        <ele>1252.2</ele>
        <time>2024-07-09T07:58:44Z</time>
      </trkpt>
      <trkpt lat="43.97705" lon="7.40547">
        <ele>1252.4</ele>
        <time>2024-07-09T07:58:45Z</time>
      </trkpt>
      <trkpt lat="43.97704" lon="7.40549">
        <ele>1252.4</ele>
        <time>2024-07-09T07:58:46Z</time>
      </trkpt>
      <trkpt lat="43.97702" lon="7.40551">
        <ele>1252.4</ele>
        <time>2024-07-09T07:58:47Z</time>
      </trkpt>
      <trkpt lat="43.977" lon="7.40553">
        <ele>1252.4</ele>
        <time>2024-07-09T07:58:48Z</time>
      </trkpt>
      <trkpt lat="43.97698" lon="7.40554">
        <ele>1252.4</ele>
        <time>2024-07-09T07:58:49Z</time>
      </trkpt>
      <trkpt lat="43.97697" lon="7.40556">
        <ele>1252.6</ele>
        <time>2024-07-09T07:58:50Z</time>
      </trkpt>
      <trkpt lat="43.97695" lon="7.40559">
        <ele>1252.6</ele>
        <time>2024-07-09T07:58:51Z</time>
      </trkpt>
      <trkpt lat="43.97694" lon="7.40561">
        <ele>1252.6</ele>
        <time>2024-07-09T07:58:52Z</time>
      </trkpt>
      <trkpt lat="43.97693" lon="7.40563">
        <ele>1252.6</ele>
        <time>2024-07-09T07:58:53Z</time>
      </trkpt>
      <trkpt lat="43.97691" lon="7.40565">
        <ele>1252.6</ele>
        <time>2024-07-09T07:58:54Z</time>
      </trkpt>
      <trkpt lat="43.9769" lon="7.40567">
        <ele>1253.2</ele>
        <time>2024-07-09T07:58:55Z</time>
      </trkpt>
      <trkpt lat="43.97688" lon="7.40568">
        <ele>1253.2</ele>
        <time>2024-07-09T07:58:56Z</time>
      </trkpt>
      <trkpt lat="43.97686" lon="7.4057">
        <ele>1253.2</ele>
        <time>2024-07-09T07:58:57Z</time>
      </trkpt>
      <trkpt lat="43.97685" lon="7.40572">
        <ele>1253.2</ele>
        <time>2024-07-09T07:58:58Z</time>
      </trkpt>
      <trkpt lat="43.97683" lon="7.40574">
        <ele>1253.6</ele>
        <time>2024-07-09T07:58:59Z</time>
      </trkpt>
      <trkpt lat="43.97682" lon="7.40575">
        <ele>1253.6</ele>
        <time>2024-07-09T07:59:00Z</time>
      </trkpt>
      <trkpt lat="43.97681" lon="7.40577">
        <ele>1253.6</ele>
        <time>2024-07-09T07:59:01Z</time>
      </trkpt>
      <trkpt lat="43.9768" lon="7.40579">
        <ele>1253.6</ele>
        <time>2024-07-09T07:59:02Z</time>
      </trkpt>
      <trkpt lat="43.97678" lon="7.4058">
        <ele>1253.6</ele>
        <time>2024-07-09T07:59:03Z</time>
      </trkpt>
      <trkpt lat="43.97676" lon="7.40581">
        <ele>1254</ele>
        <time>2024-07-09T07:59:04Z</time>
      </trkpt>
      <trkpt lat="43.97674" lon="7.40582">
        <ele>1254</ele>
        <time>2024-07-09T07:59:05Z</time>
      </trkpt>
      <trkpt lat="43.97672" lon="7.40584">
        <ele>1254</ele>
        <time>2024-07-09T07:59:06Z</time>
      </trkpt>
      <trkpt lat="43.9767" lon="7.40586">
        <ele>1254</ele>
        <time>2024-07-09T07:59:07Z</time>
      </trkpt>
      <trkpt lat="43.97669" lon="7.40588">
        <ele>1254.2</ele>
        <time>2024-07-09T07:59:08Z</time>
      </trkpt>
      <trkpt lat="43.97668" lon="7.4059">
        <ele>1254.2</ele>
        <time>2024-07-09T07:59:09Z</time>
      </trkpt>
      <trkpt lat="43.97667" lon="7.40593">
        <ele>1254.2</ele>
        <time>2024-07-09T07:59:10Z</time>
      </trkpt>
      <trkpt lat="43.97665" lon="7.40594">
        <ele>1254.8</ele>
        <time>2024-07-09T07:59:11Z</time>
      </trkpt>
      <trkpt lat="43.97664" lon="7.40597">
        <ele>1254.8</ele>
        <time>2024-07-09T07:59:12Z</time>
      </trkpt>
      <trkpt lat="43.97663" lon="7.40599">
        <ele>1255</ele>
        <time>2024-07-09T07:59:13Z</time>
      </trkpt>
      <trkpt lat="43.97662" lon="7.40601">
        <ele>1255</ele>
        <time>2024-07-09T07:59:14Z</time>
      </trkpt>
      <trkpt lat="43.9766" lon="7.40604">
        <ele>1255</ele>
        <time>2024-07-09T07:59:15Z</time>
      </trkpt>
      <trkpt lat="43.9766" lon="7.40606">
        <ele>1255</ele>
        <time>2024-07-09T07:59:16Z</time>
      </trkpt>
      <trkpt lat="43.97659" lon="7.40609">
        <ele>1255.2</ele>
        <time>2024-07-09T07:59:17Z</time>
      </trkpt>
      <trkpt lat="43.97657" lon="7.40611">
        <ele>1255.2</ele>
        <time>2024-07-09T07:59:18Z</time>
      </trkpt>
      <trkpt lat="43.97657" lon="7.40614">
        <ele>1255.2</ele>
        <time>2024-07-09T07:59:19Z</time>
      </trkpt>
      <trkpt lat="43.97656" lon="7.40617">
        <ele>1255.6</ele>
        <time>2024-07-09T07:59:20Z</time>
      </trkpt>
      <trkpt lat="43.97655" lon="7.40619">
        <ele>1255.8</ele>
        <time>2024-07-09T07:59:21Z</time>
      </trkpt>
      <trkpt lat="43.97654" lon="7.40622">
        <ele>1255.8</ele>
        <time>2024-07-09T07:59:22Z</time>
      </trkpt>
      <trkpt lat="43.97652" lon="7.40625">
        <ele>1255.8</ele>
        <time>2024-07-09T07:59:23Z</time>
      </trkpt>
      <trkpt lat="43.97651" lon="7.40627">
        <ele>1256</ele>
        <time>2024-07-09T07:59:24Z</time>
      </trkpt>
      <trkpt lat="43.9765" lon="7.4063">
        <ele>1256.2</ele>
        <time>2024-07-09T07:59:25Z</time>
      </trkpt>
      <trkpt lat="43.97649" lon="7.40632">
        <ele>1256.2</ele>
        <time>2024-07-09T07:59:26Z</time>
      </trkpt>
      <trkpt lat="43.97648" lon="7.40635">
        <ele>1256.2</ele>
        <time>2024-07-09T07:59:27Z</time>
      </trkpt>
      <trkpt lat="43.97647" lon="7.40637">
        <ele>1256.2</ele>
        <time>2024-07-09T07:59:28Z</time>
      </trkpt>
      <trkpt lat="43.97645" lon="7.40638">
        <ele>1256.2</ele>
        <time>2024-07-09T07:59:29Z</time>
      </trkpt>
      <trkpt lat="43.97644" lon="7.40641">
        <ele>1256.4</ele>
        <time>2024-07-09T07:59:30Z</time>
      </trkpt>
      <trkpt lat="43.97643" lon="7.40643">
        <ele>1256.8</ele>
        <time>2024-07-09T07:59:31Z</time>
      </trkpt>
      <trkpt lat="43.97643" lon="7.40646">
        <ele>1256.8</ele>
        <time>2024-07-09T07:59:32Z</time>
      </trkpt>
      <trkpt lat="43.97641" lon="7.40648">
        <ele>1256.8</ele>
        <time>2024-07-09T07:59:33Z</time>
      </trkpt>
      <trkpt lat="43.97641" lon="7.40651">
        <ele>1257.2</ele>
        <time>2024-07-09T07:59:34Z</time>
      </trkpt>
      <trkpt lat="43.97639" lon="7.40653">
        <ele>1257.2</ele>
        <time>2024-07-09T07:59:35Z</time>
      </trkpt>
      <trkpt lat="43.97638" lon="7.40655">
        <ele>1257.2</ele>
        <time>2024-07-09T07:59:36Z</time>
      </trkpt>
      <trkpt lat="43.97638" lon="7.40658">
        <ele>1257.2</ele>
        <time>2024-07-09T07:59:37Z</time>
      </trkpt>
      <trkpt lat="43.97636" lon="7.40661">
        <ele>1257.2</ele>
        <time>2024-07-09T07:59:38Z</time>
      </trkpt>
      <trkpt lat="43.97635" lon="7.40663">
        <ele>1257.2</ele>
        <time>2024-07-09T07:59:39Z</time>
      </trkpt>
      <trkpt lat="43.97634" lon="7.40665">
        <ele>1258</ele>
        <time>2024-07-09T07:59:40Z</time>
      </trkpt>
      <trkpt lat="43.97633" lon="7.40666">
        <ele>1258</ele>
        <time>2024-07-09T07:59:41Z</time>
      </trkpt>
      <trkpt lat="43.97632" lon="7.40667">
        <ele>1258</ele>
        <time>2024-07-09T07:59:42Z</time>
      </trkpt>
      <trkpt lat="43.97632" lon="7.40669">
        <ele>1258.6</ele>
        <time>2024-07-09T07:59:43Z</time>
      </trkpt>
      <trkpt lat="43.97632" lon="7.40672">
        <ele>1259</ele>
        <time>2024-07-09T07:59:44Z</time>
      </trkpt>
      <trkpt lat="43.9763" lon="7.40674">
        <ele>1259</ele>
        <time>2024-07-09T07:59:45Z</time>
      </trkpt>
      <trkpt lat="43.97629" lon="7.40676">
        <ele>1259</ele>
        <time>2024-07-09T07:59:46Z</time>
      </trkpt>
      <trkpt lat="43.97629" lon="7.40679">
        <ele>1259.4</ele>
        <time>2024-07-09T07:59:47Z</time>
      </trkpt>
      <trkpt lat="43.97629" lon="7.40681">
        <ele>1259.6</ele>
        <time>2024-07-09T07:59:48Z</time>
      </trkpt>
      <trkpt lat="43.97628" lon="7.40684">
        <ele>1259.6</ele>
        <time>2024-07-09T07:59:49Z</time>
      </trkpt>
      <trkpt lat="43.97628" lon="7.40686">
        <ele>1259.6</ele>
        <time>2024-07-09T07:59:50Z</time>
      </trkpt>
      <trkpt lat="43.97627" lon="7.40688">
        <ele>1259.6</ele>
        <time>2024-07-09T07:59:51Z</time>
      </trkpt>
      <trkpt lat="43.97626" lon="7.4069">
        <ele>1260</ele>
        <time>2024-07-09T07:59:52Z</time>
      </trkpt>
      <trkpt lat="43.97626" lon="7.40693">
        <ele>1260</ele>
        <time>2024-07-09T07:59:53Z</time>
      </trkpt>
      <trkpt lat="43.97626" lon="7.40695">
        <ele>1260</ele>
        <time>2024-07-09T07:59:54Z</time>
      </trkpt>
      <trkpt lat="43.97627" lon="7.40698">
        <ele>1260</ele>
        <time>2024-07-09T07:59:55Z</time>
      </trkpt>
      <trkpt lat="43.97627" lon="7.40701">
        <ele>1260.6</ele>
        <time>2024-07-09T07:59:56Z</time>
      </trkpt>
      <trkpt lat="43.97627" lon="7.40703">
        <ele>1260.4</ele>
        <time>2024-07-09T07:59:57Z</time>
      </trkpt>
      <trkpt lat="43.97628" lon="7.40706">
        <ele>1260.4</ele>
        <time>2024-07-09T07:59:58Z</time>
      </trkpt>
      <trkpt lat="43.97629" lon="7.40709">
        <ele>1260.4</ele>
        <time>2024-07-09T07:59:59Z</time>
      </trkpt>
      <trkpt lat="43.97629" lon="7.40712">
        <ele>1260.4</ele>
        <time>2024-07-09T08:00:00Z</time>
      </trkpt>
      <trkpt lat="43.97628" lon="7.40714">
        <ele>1261.4</ele>
        <time>2024-07-09T08:00:01Z</time>
      </trkpt>
      <trkpt lat="43.97627" lon="7.40716">
        <ele>1261.4</ele>
        <time>2024-07-09T08:00:02Z</time>
      </trkpt>
      <trkpt lat="43.97626" lon="7.40718">
        <ele>1261.4</ele>
        <time>2024-07-09T08:00:03Z</time>
      </trkpt>
      <trkpt lat="43.97626" lon="7.4072">
        <ele>1261.4</ele>
        <time>2024-07-09T08:00:04Z</time>
      </trkpt>
      <trkpt lat="43.97627" lon="7.40722">
        <ele>1261.8</ele>
        <time>2024-07-09T08:00:05Z</time>
      </trkpt>
      <trkpt lat="43.97627" lon="7.40725">
        <ele>1262.2</ele>
        <time>2024-07-09T08:00:06Z</time>
      </trkpt>
      <trkpt lat="43.97627" lon="7.40729">
        <ele>1262.2</ele>
        <time>2024-07-09T08:00:07Z</time>
      </trkpt>
      <trkpt lat="43.97628" lon="7.40732">
        <ele>1262.2</ele>
        <time>2024-07-09T08:00:08Z</time>
      </trkpt>
      <trkpt lat="43.97629" lon="7.40735">
        <ele>1262.2</ele>
        <time>2024-07-09T08:00:09Z</time>
      </trkpt>
      <trkpt lat="43.97629" lon="7.40737">
        <ele>1262.8</ele>
        <time>2024-07-09T08:00:10Z</time>
      </trkpt>
      <trkpt lat="43.97629" lon="7.40739">
        <ele>1262.8</ele>
        <time>2024-07-09T08:00:11Z</time>
      </trkpt>
      <trkpt lat="43.9763" lon="7.40741">
        <ele>1262.8</ele>
        <time>2024-07-09T08:00:12Z</time>
      </trkpt>
      <trkpt lat="43.9763" lon="7.40745">
        <ele>1262.8</ele>
        <time>2024-07-09T08:00:13Z</time>
      </trkpt>
      <trkpt lat="43.9763" lon="7.40747">
        <ele>1263.4</ele>
        <time>2024-07-09T08:00:14Z</time>
      </trkpt>
      <trkpt lat="43.97631" lon="7.40749">
        <ele>1263.4</ele>
        <time>2024-07-09T08:00:15Z</time>
      </trkpt>
      <trkpt lat="43.97632" lon="7.40752">
        <ele>1263.8</ele>
        <time>2024-07-09T08:00:16Z</time>
      </trkpt>
      <trkpt lat="43.97632" lon="7.40755">
        <ele>1263.8</ele>
        <time>2024-07-09T08:00:17Z</time>
      </trkpt>
      <trkpt lat="43.97632" lon="7.40757">
        <ele>1263.8</ele>
        <time>2024-07-09T08:00:18Z</time>
      </trkpt>
      <trkpt lat="43.97632" lon="7.4076">
        <ele>1264.6</ele>
        <time>2024-07-09T08:00:19Z</time>
      </trkpt>
      <trkpt lat="43.97632" lon="7.40762">
        <ele>1264.8</ele>
        <time>2024-07-09T08:00:20Z</time>
      </trkpt>
      <trkpt lat="43.97631" lon="7.40765">
        <ele>1264.8</ele>
        <time>2024-07-09T08:00:21Z</time>
      </trkpt>
      <trkpt lat="43.97631" lon="7.40767">
        <ele>1264.8</ele>
        <time>2024-07-09T08:00:22Z</time>
      </trkpt>
      <trkpt lat="43.97631" lon="7.40769">
        <ele>1265.4</ele>
        <time>2024-07-09T08:00:23Z</time>
      </trkpt>
      <trkpt lat="43.97629" lon="7.40772">
        <ele>1265.4</ele>
        <time>2024-07-09T08:00:24Z</time>
      </trkpt>
      <trkpt lat="43.97628" lon="7.40774">
        <ele>1265.4</ele>
        <time>2024-07-09T08:00:25Z</time>
      </trkpt>
      <trkpt lat="43.97627" lon="7.40777">
        <ele>1265.4</ele>
        <time>2024-07-09T08:00:26Z</time>
      </trkpt>
      <trkpt lat="43.97626" lon="7.40779">
        <ele>1265.4</ele>
        <time>2024-07-09T08:00:27Z</time>
      </trkpt>
      <trkpt lat="43.97625" lon="7.40781">
        <ele>1266</ele>
        <time>2024-07-09T08:00:28Z</time>
      </trkpt>
      <trkpt lat="43.97623" lon="7.40783">
        <ele>1266.2</ele>
        <time>2024-07-09T08:00:29Z</time>
      </trkpt>
      <trkpt lat="43.97622" lon="7.40785">
        <ele>1266.2</ele>
        <time>2024-07-09T08:00:30Z</time>
      </trkpt>
      <trkpt lat="43.97621" lon="7.40787">
        <ele>1266.2</ele>
        <time>2024-07-09T08:00:31Z</time>
      </trkpt>
      <trkpt lat="43.9762" lon="7.40788">
        <ele>1266.6</ele>
        <time>2024-07-09T08:00:32Z</time>
      </trkpt>
      <trkpt lat="43.97619" lon="7.4079">
        <ele>1266.8</ele>
        <time>2024-07-09T08:00:33Z</time>
      </trkpt>
      <trkpt lat="43.97618" lon="7.40791">
        <ele>1266.8</ele>
        <time>2024-07-09T08:00:34Z</time>
      </trkpt>
      <trkpt lat="43.97617" lon="7.40793">
        <ele>1266.8</ele>
        <time>2024-07-09T08:00:35Z</time>
      </trkpt>
      <trkpt lat="43.97616" lon="7.40795">
        <ele>1267.4</ele>
        <time>2024-07-09T08:00:36Z</time>
      </trkpt>
      <trkpt lat="43.97615" lon="7.40797">
        <ele>1267.4</ele>
        <time>2024-07-09T08:00:37Z</time>
      </trkpt>
      <trkpt lat="43.97614" lon="7.40799">
        <ele>1267.4</ele>
        <time>2024-07-09T08:00:38Z</time>
      </trkpt>
      <trkpt lat="43.97613" lon="7.40801">
        <ele>1267.4</ele>
        <time>2024-07-09T08:00:39Z</time>
      </trkpt>
      <trkpt lat="43.97612" lon="7.40803">
        <ele>1267.4</ele>
        <time>2024-07-09T08:00:40Z</time>
      </trkpt>
      <trkpt lat="43.97611" lon="7.40805">
        <ele>1268</ele>
        <time>2024-07-09T08:00:41Z</time>
      </trkpt>
      <trkpt lat="43.9761" lon="7.40806">
        <ele>1268</ele>
        <time>2024-07-09T08:00:42Z</time>
      </trkpt>
      <trkpt lat="43.97609" lon="7.40807">
        <ele>1268</ele>
        <time>2024-07-09T08:00:43Z</time>
      </trkpt>
      <trkpt lat="43.97608" lon="7.40808">
        <ele>1268</ele>
        <time>2024-07-09T08:00:44Z</time>
      </trkpt>
      <trkpt lat="43.97607" lon="7.4081">
        <ele>1268.6</ele>
        <time>2024-07-09T08:00:45Z</time>
      </trkpt>
      <trkpt lat="43.97606" lon="7.40812">
        <ele>1268.8</ele>
        <time>2024-07-09T08:00:46Z</time>
      </trkpt>
      <trkpt lat="43.97605" lon="7.40813">
        <ele>1268.8</ele>
        <time>2024-07-09T08:00:47Z</time>
      </trkpt>
      <trkpt lat="43.97605" lon="7.40815">
        <ele>1268.8</ele>
        <time>2024-07-09T08:00:48Z</time>
      </trkpt>
      <trkpt lat="43.97604" lon="7.40817">
        <ele>1268.8</ele>
        <time>2024-07-09T08:00:49Z</time>
      </trkpt>
      <trkpt lat="43.97604" lon="7.40818">
        <ele>1269.2</ele>
        <time>2024-07-09T08:00:50Z</time>
      </trkpt>
      <trkpt lat="43.97603" lon="7.4082">
        <ele>1269.4</ele>
        <time>2024-07-09T08:00:51Z</time>
      </trkpt>
      <trkpt lat="43.97602" lon="7.40821">
        <ele>1269.4</ele>
        <time>2024-07-09T08:00:52Z</time>
      </trkpt>
      <trkpt lat="43.97602" lon="7.40823">
        <ele>1269.4</ele>
        <time>2024-07-09T08:00:53Z</time>
      </trkpt>
      <trkpt lat="43.97601" lon="7.40825">
        <ele>1269.4</ele>
        <time>2024-07-09T08:00:54Z</time>
      </trkpt>
      <trkpt lat="43.97601" lon="7.40827">
        <ele>1269.6</ele>
        <time>2024-07-09T08:00:55Z</time>
      </trkpt>
      <trkpt lat="43.976" lon="7.40828">
        <ele>1270</ele>
        <time>2024-07-09T08:00:56Z</time>
      </trkpt>
      <trkpt lat="43.976" lon="7.4083">
        <ele>1270</ele>
        <time>2024-07-09T08:00:57Z</time>
      </trkpt>
      <trkpt lat="43.97599" lon="7.40831">
        <ele>1270</ele>
        <time>2024-07-09T08:00:58Z</time>
      </trkpt>
      <trkpt lat="43.97599" lon="7.40833">
        <ele>1270</ele>
        <time>2024-07-09T08:00:59Z</time>
      </trkpt>
      <trkpt lat="43.97599" lon="7.40834">
        <ele>1270.4</ele>
        <time>2024-07-09T08:01:00Z</time>
      </trkpt>
      <trkpt lat="43.97598" lon="7.40836">
        <ele>1270.4</ele>
        <time>2024-07-09T08:01:01Z</time>
      </trkpt>
      <trkpt lat="43.97599" lon="7.40836">
        <ele>1270.4</ele>
        <time>2024-07-09T08:01:02Z</time>
      </trkpt>
      <trkpt lat="43.976" lon="7.40838">
        <ele>1270.4</ele>
        <time>2024-07-09T08:01:03Z</time>
      </trkpt>
      <trkpt lat="43.976" lon="7.4084">
        <ele>1271</ele>
        <time>2024-07-09T08:01:04Z</time>
      </trkpt>
      <trkpt lat="43.976" lon="7.40842">
        <ele>1271</ele>
        <time>2024-07-09T08:01:05Z</time>
      </trkpt>
      <trkpt lat="43.976" lon="7.40844">
        <ele>1271</ele>
        <time>2024-07-09T08:01:06Z</time>
      </trkpt>
      <trkpt lat="43.976" lon="7.40846">
        <ele>1271</ele>
        <time>2024-07-09T08:01:07Z</time>
      </trkpt>
      <trkpt lat="43.976" lon="7.40848">
        <ele>1271</ele>
        <time>2024-07-09T08:01:08Z</time>
      </trkpt>
      <trkpt lat="43.976" lon="7.4085">
        <ele>1271.6</ele>
        <time>2024-07-09T08:01:09Z</time>
      </trkpt>
      <trkpt lat="43.976" lon="7.40852">
        <ele>1271.8</ele>
        <time>2024-07-09T08:01:10Z</time>
      </trkpt>
      <trkpt lat="43.976" lon="7.40854">
        <ele>1271.8</ele>
        <time>2024-07-09T08:01:11Z</time>
      </trkpt>
      <trkpt lat="43.976" lon="7.40855">
        <ele>1271.8</ele>
        <time>2024-07-09T08:01:12Z</time>
      </trkpt>
      <trkpt lat="43.97599" lon="7.40857">
        <ele>1271.8</ele>
        <time>2024-07-09T08:01:13Z</time>
      </trkpt>
      <trkpt lat="43.97599" lon="7.40859">
        <ele>1272.2</ele>
        <time>2024-07-09T08:01:14Z</time>
      </trkpt>
      <trkpt lat="43.97598" lon="7.40861">
        <ele>1272.2</ele>
        <time>2024-07-09T08:01:15Z</time>
      </trkpt>
      <trkpt lat="43.97598" lon="7.40863">
        <ele>1272.2</ele>
        <time>2024-07-09T08:01:16Z</time>
      </trkpt>
      <trkpt lat="43.97597" lon="7.40865">
        <ele>1272.8</ele>
        <time>2024-07-09T08:01:17Z</time>
      </trkpt>
      <trkpt lat="43.97596" lon="7.40868">
        <ele>1272.8</ele>
        <time>2024-07-09T08:01:18Z</time>
      </trkpt>
      <trkpt lat="43.97595" lon="7.4087">
        <ele>1272.8</ele>
        <time>2024-07-09T08:01:19Z</time>
      </trkpt>
      <trkpt lat="43.97594" lon="7.40871">
        <ele>1272.8</ele>
        <time>2024-07-09T08:01:20Z</time>
      </trkpt>
      <trkpt lat="43.97593" lon="7.40873">
        <ele>1272.8</ele>
        <time>2024-07-09T08:01:21Z</time>
      </trkpt>
      <trkpt lat="43.97592" lon="7.40875">
        <ele>1273.6</ele>
        <time>2024-07-09T08:01:22Z</time>
      </trkpt>
      <trkpt lat="43.97591" lon="7.40876">
        <ele>1273.6</ele>
        <time>2024-07-09T08:01:23Z</time>
      </trkpt>
      <trkpt lat="43.9759" lon="7.40878">
        <ele>1273.6</ele>
        <time>2024-07-09T08:01:24Z</time>
      </trkpt>
      <trkpt lat="43.97588" lon="7.40878">
        <ele>1273.6</ele>
        <time>2024-07-09T08:01:25Z</time>
      </trkpt>
      <trkpt lat="43.97587" lon="7.40879">
        <ele>1273.6</ele>
        <time>2024-07-09T08:01:26Z</time>
      </trkpt>
      <trkpt lat="43.97585" lon="7.4088">
        <ele>1274.2</ele>
        <time>2024-07-09T08:01:27Z</time>
      </trkpt>
      <trkpt lat="43.97583" lon="7.40882">
        <ele>1274.2</ele>
        <time>2024-07-09T08:01:28Z</time>
      </trkpt>
      <trkpt lat="43.97582" lon="7.40883">
        <ele>1274.2</ele>
        <time>2024-07-09T08:01:29Z</time>
      </trkpt>
      <trkpt lat="43.97581" lon="7.40883">
        <ele>1274.2</ele>
        <time>2024-07-09T08:01:30Z</time>
      </trkpt>
      <trkpt lat="43.97579" lon="7.40884">
        <ele>1274.6</ele>
        <time>2024-07-09T08:01:31Z</time>
      </trkpt>
      <trkpt lat="43.97578" lon="7.40885">
        <ele>1274.6</ele>
        <time>2024-07-09T08:01:32Z</time>
      </trkpt>
      <trkpt lat="43.97576" lon="7.40887">
        <ele>1274.6</ele>
        <time>2024-07-09T08:01:33Z</time>
      </trkpt>
      <trkpt lat="43.97575" lon="7.40888">
        <ele>1274.6</ele>
        <time>2024-07-09T08:01:34Z</time>
      </trkpt>
      <trkpt lat="43.97573" lon="7.4089">
        <ele>1275</ele>
        <time>2024-07-09T08:01:35Z</time>
      </trkpt>
      <trkpt lat="43.97572" lon="7.40891">
        <ele>1275</ele>
        <time>2024-07-09T08:01:36Z</time>
      </trkpt>
      <trkpt lat="43.97571" lon="7.40892">
        <ele>1275</ele>
        <time>2024-07-09T08:01:37Z</time>
      </trkpt>
      <trkpt lat="43.9757" lon="7.40894">
        <ele>1275</ele>
        <time>2024-07-09T08:01:38Z</time>
      </trkpt>
      <trkpt lat="43.97569" lon="7.40896">
        <ele>1275</ele>
        <time>2024-07-09T08:01:39Z</time>
      </trkpt>
      <trkpt lat="43.97568" lon="7.40897">
        <ele>1275.6</ele>
        <time>2024-07-09T08:01:40Z</time>
      </trkpt>
      <trkpt lat="43.97567" lon="7.40898">
        <ele>1275.6</ele>
        <time>2024-07-09T08:01:41Z</time>
      </trkpt>
      <trkpt lat="43.97565" lon="7.40899">
        <ele>1275.6</ele>
        <time>2024-07-09T08:01:42Z</time>
      </trkpt>
      <trkpt lat="43.97564" lon="7.40901">
        <ele>1275.6</ele>
        <time>2024-07-09T08:01:43Z</time>
      </trkpt>
      <trkpt lat="43.97562" lon="7.40902">
        <ele>1275.6</ele>
        <time>2024-07-09T08:01:44Z</time>
      </trkpt>
      <trkpt lat="43.97561" lon="7.40904">
        <ele>1276.2</ele>
        <time>2024-07-09T08:01:45Z</time>
      </trkpt>
      <trkpt lat="43.9756" lon="7.40906">
        <ele>1276.4</ele>
        <time>2024-07-09T08:01:46Z</time>
      </trkpt>
      <trkpt lat="43.97558" lon="7.40907">
        <ele>1276.4</ele>
        <time>2024-07-09T08:01:47Z</time>
      </trkpt>
      <trkpt lat="43.97557" lon="7.40909">
        <ele>1276.4</ele>
        <time>2024-07-09T08:01:48Z</time>
      </trkpt>
      <trkpt lat="43.97556" lon="7.40909">
        <ele>1276.6</ele>
        <time>2024-07-09T08:01:49Z</time>
      </trkpt>
      <trkpt lat="43.97554" lon="7.40911">
        <ele>1276.8</ele>
        <time>2024-07-09T08:01:50Z</time>
      </trkpt>
      <trkpt lat="43.97553" lon="7.40912">
        <ele>1276.8</ele>
        <time>2024-07-09T08:01:51Z</time>
      </trkpt>
      <trkpt lat="43.97552" lon="7.40914">
        <ele>1276.8</ele>
        <time>2024-07-09T08:01:52Z</time>
      </trkpt>
      <trkpt lat="43.97551" lon="7.40916">
        <ele>1277.4</ele>
        <time>2024-07-09T08:01:53Z</time>
      </trkpt>
      <trkpt lat="43.9755" lon="7.40919">
        <ele>1277.4</ele>
        <time>2024-07-09T08:01:54Z</time>
      </trkpt>
      <trkpt lat="43.9755" lon="7.40921">
        <ele>1277.4</ele>
        <time>2024-07-09T08:01:55Z</time>
      </trkpt>
      <trkpt lat="43.97549" lon="7.40923">
        <ele>1277.4</ele>
        <time>2024-07-09T08:01:56Z</time>
      </trkpt>
      <trkpt lat="43.97548" lon="7.40925">
        <ele>1277.4</ele>
        <time>2024-07-09T08:01:57Z</time>
      </trkpt>
      <trkpt lat="43.97547" lon="7.40927">
        <ele>1278</ele>
        <time>2024-07-09T08:01:58Z</time>
      </trkpt>
      <trkpt lat="43.97546" lon="7.40928">
        <ele>1278.2</ele>
        <time>2024-07-09T08:01:59Z</time>
      </trkpt>
      <trkpt lat="43.97545" lon="7.4093">
        <ele>1278.2</ele>
        <time>2024-07-09T08:02:00Z</time>
      </trkpt>
      <trkpt lat="43.97544" lon="7.40931">
        <ele>1278.2</ele>
        <time>2024-07-09T08:02:01Z</time>
      </trkpt>
      <trkpt lat="43.97544" lon="7.40934">
        <ele>1278.4</ele>
        <time>2024-07-09T08:02:02Z</time>
      </trkpt>
      <trkpt lat="43.97543" lon="7.40936">
        <ele>1278.6</ele>
        <time>2024-07-09T08:02:03Z</time>
      </trkpt>
      <trkpt lat="43.97542" lon="7.40937">
        <ele>1278.6</ele>
        <time>2024-07-09T08:02:04Z</time>
      </trkpt>
      <trkpt lat="43.97541" lon="7.40939">
        <ele>1278.6</ele>
        <time>2024-07-09T08:02:05Z</time>
      </trkpt>
      <trkpt lat="43.9754" lon="7.40941">
        <ele>1278.6</ele>
        <time>2024-07-09T08:02:06Z</time>
      </trkpt>
      <trkpt lat="43.97539" lon="7.40943">
        <ele>1279.2</ele>
        <time>2024-07-09T08:02:07Z</time>
      </trkpt>
      <trkpt lat="43.97538" lon="7.40945">
        <ele>1279.4</ele>
        <time>2024-07-09T08:02:08Z</time>
      </trkpt>
      <trkpt lat="43.97538" lon="7.40947">
        <ele>1279.4</ele>
        <time>2024-07-09T08:02:09Z</time>
      </trkpt>
      <trkpt lat="43.97537" lon="7.40948">
        <ele>1279.4</ele>
        <time>2024-07-09T08:02:10Z</time>
      </trkpt>
      <trkpt lat="43.97536" lon="7.4095">
        <ele>1280</ele>
        <time>2024-07-09T08:02:11Z</time>
      </trkpt>
      <trkpt lat="43.97535" lon="7.40952">
        <ele>1280</ele>
        <time>2024-07-09T08:02:12Z</time>
      </trkpt>
      <trkpt lat="43.97534" lon="7.40954">
        <ele>1280</ele>
        <time>2024-07-09T08:02:13Z</time>
      </trkpt>
      <trkpt lat="43.97533" lon="7.40955">
        <ele>1280</ele>
        <time>2024-07-09T08:02:14Z</time>
      </trkpt>
      <trkpt lat="43.97532" lon="7.40957">
        <ele>1280.4</ele>
        <time>2024-07-09T08:02:15Z</time>
      </trkpt>
      <trkpt lat="43.97531" lon="7.40958">
        <ele>1280.6</ele>
        <time>2024-07-09T08:02:16Z</time>
      </trkpt>
      <trkpt lat="43.9753" lon="7.40959">
        <ele>1280.6</ele>
        <time>2024-07-09T08:02:17Z</time>
      </trkpt>
      <trkpt lat="43.97528" lon="7.40959">
        <ele>1280.6</ele>
        <time>2024-07-09T08:02:18Z</time>
      </trkpt>
      <trkpt lat="43.97526" lon="7.40959">
        <ele>1280.6</ele>
        <time>2024-07-09T08:02:19Z</time>
      </trkpt>
      <trkpt lat="43.97525" lon="7.40961">
        <ele>1280.6</ele>
        <time>2024-07-09T08:02:20Z</time>
      </trkpt>
      <trkpt lat="43.97523" lon="7.40961">
        <ele>1281</ele>
        <time>2024-07-09T08:02:21Z</time>
      </trkpt>
      <trkpt lat="43.97522" lon="7.40961">
        <ele>1280.8</ele>
        <time>2024-07-09T08:02:22Z</time>
      </trkpt>
      <trkpt lat="43.9752" lon="7.4096">
        <ele>1280.8</ele>
        <time>2024-07-09T08:02:23Z</time>
      </trkpt>
      <trkpt lat="43.97519" lon="7.4096">
        <ele>1280.8</ele>
        <time>2024-07-09T08:02:24Z</time>
      </trkpt>
      <trkpt lat="43.97517" lon="7.4096">
        <ele>1281</ele>
        <time>2024-07-09T08:02:25Z</time>
      </trkpt>
      <trkpt lat="43.97515" lon="7.4096">
        <ele>1281.4</ele>
        <time>2024-07-09T08:02:26Z</time>
      </trkpt>
      <trkpt lat="43.97513" lon="7.40959">
        <ele>1281.4</ele>
        <time>2024-07-09T08:02:27Z</time>
      </trkpt>
      <trkpt lat="43.97512" lon="7.40958">
        <ele>1281.4</ele>
        <time>2024-07-09T08:02:28Z</time>
      </trkpt>
      <trkpt lat="43.9751" lon="7.40957">
        <ele>1281.4</ele>
        <time>2024-07-09T08:02:29Z</time>
      </trkpt>
      <trkpt lat="43.97509" lon="7.40955">
        <ele>1281.4</ele>
        <time>2024-07-09T08:02:30Z</time>
      </trkpt>
      <trkpt lat="43.97508" lon="7.40953">
        <ele>1281.8</ele>
        <time>2024-07-09T08:02:31Z</time>
      </trkpt>
      <trkpt lat="43.97507" lon="7.40951">
        <ele>1281.8</ele>
        <time>2024-07-09T08:02:32Z</time>
      </trkpt>
      <trkpt lat="43.97506" lon="7.40949">
        <ele>1281.8</ele>
        <time>2024-07-09T08:02:33Z</time>
      </trkpt>
      <trkpt lat="43.97505" lon="7.40948">
        <ele>1282.2</ele>
        <time>2024-07-09T08:02:34Z</time>
      </trkpt>
      <trkpt lat="43.97504" lon="7.40946">
        <ele>1282.4</ele>
        <time>2024-07-09T08:02:35Z</time>
      </trkpt>
      <trkpt lat="43.97503" lon="7.40944">
        <ele>1282.4</ele>
        <time>2024-07-09T08:02:36Z</time>
      </trkpt>
      <trkpt lat="43.97502" lon="7.40942">
        <ele>1282.4</ele>
        <time>2024-07-09T08:02:37Z</time>
      </trkpt>
      <trkpt lat="43.97501" lon="7.40941">
        <ele>1283.2</ele>
        <time>2024-07-09T08:02:38Z</time>
      </trkpt>
      <trkpt lat="43.975" lon="7.40939">
        <ele>1283.4</ele>
        <time>2024-07-09T08:02:39Z</time>
      </trkpt>
      <trkpt lat="43.97499" lon="7.40937">
        <ele>1283.4</ele>
        <time>2024-07-09T08:02:40Z</time>
      </trkpt>
      <trkpt lat="43.97498" lon="7.40935">
        <ele>1283.4</ele>
        <time>2024-07-09T08:02:41Z</time>
      </trkpt>
      <trkpt lat="43.97497" lon="7.40933">
        <ele>1283.4</ele>
        <time>2024-07-09T08:02:42Z</time>
      </trkpt>
      <trkpt lat="43.97496" lon="7.40932">
        <ele>1284</ele>
        <time>2024-07-09T08:02:43Z</time>
      </trkpt>
      <trkpt lat="43.97495" lon="7.4093">
        <ele>1284.4</ele>
        <time>2024-07-09T08:02:44Z</time>
      </trkpt>
      <trkpt lat="43.97494" lon="7.40928">
        <ele>1284.4</ele>
        <time>2024-07-09T08:02:45Z</time>
      </trkpt>
      <trkpt lat="43.97493" lon="7.40926">
        <ele>1284.4</ele>
        <time>2024-07-09T08:02:46Z</time>
      </trkpt>
      <trkpt lat="43.97492" lon="7.40924">
        <ele>1285</ele>
        <time>2024-07-09T08:02:47Z</time>
      </trkpt>
      <trkpt lat="43.97492" lon="7.40923">
        <ele>1285</ele>
        <time>2024-07-09T08:02:48Z</time>
      </trkpt>
      <trkpt lat="43.97491" lon="7.40921">
        <ele>1285</ele>
        <time>2024-07-09T08:02:49Z</time>
      </trkpt>
      <trkpt lat="43.9749" lon="7.4092">
        <ele>1285</ele>
        <time>2024-07-09T08:02:50Z</time>
      </trkpt>
      <trkpt lat="43.97488" lon="7.40919">
        <ele>1285</ele>
        <time>2024-07-09T08:02:51Z</time>
      </trkpt>
      <trkpt lat="43.97487" lon="7.40918">
        <ele>1285.8</ele>
        <time>2024-07-09T08:02:52Z</time>
      </trkpt>
      <trkpt lat="43.97486" lon="7.40917">
        <ele>1286</ele>
        <time>2024-07-09T08:02:53Z</time>
      </trkpt>
      <trkpt lat="43.97485" lon="7.40916">
        <ele>1286</ele>
        <time>2024-07-09T08:02:54Z</time>
      </trkpt>
      <trkpt lat="43.97483" lon="7.40914">
        <ele>1286</ele>
        <time>2024-07-09T08:02:55Z</time>
      </trkpt>
      <trkpt lat="43.97483" lon="7.40913">
        <ele>1286.2</ele>
        <time>2024-07-09T08:02:56Z</time>
      </trkpt>
      <trkpt lat="43.97481" lon="7.40911">
        <ele>1286.6</ele>
        <time>2024-07-09T08:02:57Z</time>
      </trkpt>
      <trkpt lat="43.9748" lon="7.4091">
        <ele>1286.6</ele>
        <time>2024-07-09T08:02:58Z</time>
      </trkpt>
      <trkpt lat="43.9748" lon="7.40909">
        <ele>1286.6</ele>
        <time>2024-07-09T08:02:59Z</time>
      </trkpt>
      <trkpt lat="43.97478" lon="7.40908">
        <ele>1286.6</ele>
        <time>2024-07-09T08:03:00Z</time>
      </trkpt>
      <trkpt lat="43.97477" lon="7.40907">
        <ele>1286.6</ele>
        <time>2024-07-09T08:03:01Z</time>
      </trkpt>
      <trkpt lat="43.97476" lon="7.40905">
        <ele>1286.8</ele>
        <time>2024-07-09T08:03:02Z</time>
      </trkpt>
      <trkpt lat="43.97475" lon="7.40904">
        <ele>1287.2</ele>
        <time>2024-07-09T08:03:03Z</time>
      </trkpt>
      <trkpt lat="43.97473" lon="7.40903">
        <ele>1287.2</ele>
        <time>2024-07-09T08:03:04Z</time>
      </trkpt>
      <trkpt lat="43.97472" lon="7.40903">
        <ele>1287.2</ele>
        <time>2024-07-09T08:03:05Z</time>
      </trkpt>
      <trkpt lat="43.97471" lon="7.40902">
        <ele>1287.2</ele>
        <time>2024-07-09T08:03:06Z</time>
      </trkpt>
      <trkpt lat="43.97469" lon="7.40901">
        <ele>1288</ele>
        <time>2024-07-09T08:03:07Z</time>
      </trkpt>
      <trkpt lat="43.97467" lon="7.409">
        <ele>1288</ele>
        <time>2024-07-09T08:03:08Z</time>
      </trkpt>
      <trkpt lat="43.97465" lon="7.409">
        <ele>1288</ele>
        <time>2024-07-09T08:03:09Z</time>
      </trkpt>
      <trkpt lat="43.97463" lon="7.409">
        <ele>1288</ele>
        <time>2024-07-09T08:03:10Z</time>
      </trkpt>
      <trkpt lat="43.97461" lon="7.40899">
        <ele>1288.2</ele>
        <time>2024-07-09T08:03:11Z</time>
      </trkpt>
      <trkpt lat="43.97459" lon="7.40899">
        <ele>1288.4</ele>
        <time>2024-07-09T08:03:12Z</time>
      </trkpt>
      <trkpt lat="43.97457" lon="7.40899">
        <ele>1288.4</ele>
        <time>2024-07-09T08:03:13Z</time>
      </trkpt>
      <trkpt lat="43.97455" lon="7.40899">
        <ele>1288.4</ele>
        <time>2024-07-09T08:03:14Z</time>
      </trkpt>
      <trkpt lat="43.97453" lon="7.40899">
        <ele>1288.8</ele>
        <time>2024-07-09T08:03:15Z</time>
      </trkpt>
      <trkpt lat="43.97452" lon="7.40899">
        <ele>1289</ele>
        <time>2024-07-09T08:03:16Z</time>
      </trkpt>
      <trkpt lat="43.9745" lon="7.40899">
        <ele>1289</ele>
        <time>2024-07-09T08:03:17Z</time>
      </trkpt>
      <trkpt lat="43.97448" lon="7.40899">
        <ele>1289</ele>
        <time>2024-07-09T08:03:18Z</time>
      </trkpt>
      <trkpt lat="43.97447" lon="7.40899">
        <ele>1289</ele>
        <time>2024-07-09T08:03:19Z</time>
      </trkpt>
      <trkpt lat="43.97445" lon="7.409">
        <ele>1289.6</ele>
        <time>2024-07-09T08:03:20Z</time>
      </trkpt>
      <trkpt lat="43.97443" lon="7.409">
        <ele>1289.6</ele>
        <time>2024-07-09T08:03:21Z</time>
      </trkpt>
      <trkpt lat="43.97442" lon="7.409">
        <ele>1289.6</ele>
        <time>2024-07-09T08:03:22Z</time>
      </trkpt>
      <trkpt lat="43.9744" lon="7.409">
        <ele>1289.6</ele>
        <time>2024-07-09T08:03:23Z</time>
      </trkpt>
      <trkpt lat="43.97438" lon="7.409">
        <ele>1290</ele>
        <time>2024-07-09T08:03:24Z</time>
      </trkpt>
      <trkpt lat="43.97437" lon="7.40901">
        <ele>1290.2</ele>
        <time>2024-07-09T08:03:25Z</time>
      </trkpt>
      <trkpt lat="43.97435" lon="7.40901">
        <ele>1290.2</ele>
        <time>2024-07-09T08:03:26Z</time>
      </trkpt>
      <trkpt lat="43.97433" lon="7.40902">
        <ele>1290.2</ele>
        <time>2024-07-09T08:03:27Z</time>
      </trkpt>
      <trkpt lat="43.97431" lon="7.40902">
        <ele>1290.8</ele>
        <time>2024-07-09T08:03:28Z</time>
      </trkpt>
      <trkpt lat="43.97429" lon="7.40902">
        <ele>1290.8</ele>
        <time>2024-07-09T08:03:29Z</time>
      </trkpt>
      <trkpt lat="43.97428" lon="7.40902">
        <ele>1290.8</ele>
        <time>2024-07-09T08:03:30Z</time>
      </trkpt>
      <trkpt lat="43.97426" lon="7.40902">
        <ele>1290.8</ele>
        <time>2024-07-09T08:03:31Z</time>
      </trkpt>
      <trkpt lat="43.97424" lon="7.40902">
        <ele>1291.4</ele>
        <time>2024-07-09T08:03:32Z</time>
      </trkpt>
      <trkpt lat="43.97422" lon="7.40902">
        <ele>1291.4</ele>
        <time>2024-07-09T08:03:33Z</time>
      </trkpt>
      <trkpt lat="43.97421" lon="7.40902">
        <ele>1291.4</ele>
        <time>2024-07-09T08:03:34Z</time>
      </trkpt>
      <trkpt lat="43.97419" lon="7.40903">
        <ele>1291.4</ele>
        <time>2024-07-09T08:03:35Z</time>
      </trkpt>
      <trkpt lat="43.97417" lon="7.40903">
        <ele>1291.4</ele>
        <time>2024-07-09T08:03:36Z</time>
      </trkpt>
      <trkpt lat="43.97415" lon="7.40903">
        <ele>1292.2</ele>
        <time>2024-07-09T08:03:37Z</time>
      </trkpt>
      <trkpt lat="43.97413" lon="7.40904">
        <ele>1292.4</ele>
        <time>2024-07-09T08:03:38Z</time>
      </trkpt>
      <trkpt lat="43.97412" lon="7.40904">
        <ele>1292.4</ele>
        <time>2024-07-09T08:03:39Z</time>
      </trkpt>
      <trkpt lat="43.9741" lon="7.40904">
        <ele>1292.4</ele>
        <time>2024-07-09T08:03:40Z</time>
      </trkpt>
      <trkpt lat="43.97409" lon="7.40903">
        <ele>1292.4</ele>
        <time>2024-07-09T08:03:41Z</time>
      </trkpt>
      <trkpt lat="43.97407" lon="7.40903">
        <ele>1292.6</ele>
        <time>2024-07-09T08:03:42Z</time>
      </trkpt>
      <trkpt lat="43.97406" lon="7.40903">
        <ele>1292.6</ele>
        <time>2024-07-09T08:03:43Z</time>
      </trkpt>
      <trkpt lat="43.97404" lon="7.40902">
        <ele>1292.6</ele>
        <time>2024-07-09T08:03:44Z</time>
      </trkpt>
      <trkpt lat="43.97402" lon="7.40902">
        <ele>1292.6</ele>
        <time>2024-07-09T08:03:45Z</time>
      </trkpt>
      <trkpt lat="43.97401" lon="7.40901">
        <ele>1292.6</ele>
        <time>2024-07-09T08:03:46Z</time>
      </trkpt>
      <trkpt lat="43.97399" lon="7.40901">
        <ele>1292.8</ele>
        <time>2024-07-09T08:03:47Z</time>
      </trkpt>
      <trkpt lat="43.97398" lon="7.409">
        <ele>1293.2</ele>
        <time>2024-07-09T08:03:48Z</time>
      </trkpt>
      <trkpt lat="43.97397" lon="7.40898">
        <ele>1293.2</ele>
        <time>2024-07-09T08:03:49Z</time>
      </trkpt>
      <trkpt lat="43.97395" lon="7.40897">
        <ele>1293.2</ele>
        <time>2024-07-09T08:03:50Z</time>
      </trkpt>
      <trkpt lat="43.97394" lon="7.40895">
        <ele>1293.2</ele>
        <time>2024-07-09T08:03:51Z</time>
      </trkpt>
      <trkpt lat="43.97393" lon="7.40894">
        <ele>1293.4</ele>
        <time>2024-07-09T08:03:52Z</time>
      </trkpt>
      <trkpt lat="43.97392" lon="7.40892">
        <ele>1293.4</ele>
        <time>2024-07-09T08:03:53Z</time>
      </trkpt>
      <trkpt lat="43.97392" lon="7.4089">
        <ele>1293.4</ele>
        <time>2024-07-09T08:03:54Z</time>
      </trkpt>
      <trkpt lat="43.97391" lon="7.40888">
        <ele>1294.2</ele>
        <time>2024-07-09T08:03:55Z</time>
      </trkpt>
      <trkpt lat="43.9739" lon="7.40886">
        <ele>1294.4</ele>
        <time>2024-07-09T08:03:56Z</time>
      </trkpt>
      <trkpt lat="43.9739" lon="7.40884">
        <ele>1294.4</ele>
        <time>2024-07-09T08:03:57Z</time>
      </trkpt>
      <trkpt lat="43.97389" lon="7.40882">
        <ele>1294.4</ele>
        <time>2024-07-09T08:03:58Z</time>
      </trkpt>
      <trkpt lat="43.97389" lon="7.4088">
        <ele>1294.4</ele>
        <time>2024-07-09T08:03:59Z</time>
      </trkpt>
      <trkpt lat="43.97388" lon="7.40878">
        <ele>1295</ele>
        <time>2024-07-09T08:04:00Z</time>
      </trkpt>
      <trkpt lat="43.97388" lon="7.40876">
        <ele>1295.2</ele>
        <time>2024-07-09T08:04:01Z</time>
      </trkpt>
      <trkpt lat="43.97388" lon="7.40874">
        <ele>1295.2</ele>
        <time>2024-07-09T08:04:02Z</time>
      </trkpt>
      <trkpt lat="43.97387" lon="7.40873">
        <ele>1295.2</ele>
        <time>2024-07-09T08:04:03Z</time>
      </trkpt>
      <trkpt lat="43.97387" lon="7.4087">
        <ele>1295.8</ele>
        <time>2024-07-09T08:04:04Z</time>
      </trkpt>
      <trkpt lat="43.97387" lon="7.40868">
        <ele>1295.8</ele>
        <time>2024-07-09T08:04:05Z</time>
      </trkpt>
      <trkpt lat="43.97386" lon="7.40867">
        <ele>1295.8</ele>
        <time>2024-07-09T08:04:06Z</time>
      </trkpt>
      <trkpt lat="43.97386" lon="7.40865">
        <ele>1295.8</ele>
        <time>2024-07-09T08:04:07Z</time>
      </trkpt>
      <trkpt lat="43.97385" lon="7.40862">
        <ele>1295.8</ele>
        <time>2024-07-09T08:04:08Z</time>
      </trkpt>
      <trkpt lat="43.97385" lon="7.4086">
        <ele>1296.2</ele>
        <time>2024-07-09T08:04:09Z</time>
      </trkpt>
      <trkpt lat="43.97385" lon="7.40858">
        <ele>1296.4</ele>
        <time>2024-07-09T08:04:10Z</time>
      </trkpt>
      <trkpt lat="43.97384" lon="7.40857">
        <ele>1296.4</ele>
        <time>2024-07-09T08:04:11Z</time>
      </trkpt>
      <trkpt lat="43.97384" lon="7.40854">
        <ele>1296.4</ele>
        <time>2024-07-09T08:04:12Z</time>
      </trkpt>
      <trkpt lat="43.97384" lon="7.40852">
        <ele>1297</ele>
        <time>2024-07-09T08:04:13Z</time>
      </trkpt>
      <trkpt lat="43.97385" lon="7.4085">
        <ele>1297</ele>
        <time>2024-07-09T08:04:14Z</time>
      </trkpt>
      <trkpt lat="43.97384" lon="7.40848">
        <ele>1297</ele>
        <time>2024-07-09T08:04:15Z</time>
      </trkpt>
      <trkpt lat="43.97383" lon="7.40846">
        <ele>1297</ele>
        <time>2024-07-09T08:04:16Z</time>
      </trkpt>
      <trkpt lat="43.97383" lon="7.40843">
        <ele>1297.4</ele>
        <time>2024-07-09T08:04:17Z</time>
      </trkpt>
      <trkpt lat="43.97383" lon="7.40841">
        <ele>1297.6</ele>
        <time>2024-07-09T08:04:18Z</time>
      </trkpt>
      <trkpt lat="43.97383" lon="7.40839">
        <ele>1297.6</ele>
        <time>2024-07-09T08:04:19Z</time>
      </trkpt>
      <trkpt lat="43.97383" lon="7.40837">
        <ele>1297.6</ele>
        <time>2024-07-09T08:04:20Z</time>
      </trkpt>
      <trkpt lat="43.97383" lon="7.40834">
        <ele>1297.6</ele>
        <time>2024-07-09T08:04:21Z</time>
      </trkpt>
      <trkpt lat="43.97383" lon="7.40832">
        <ele>1298.4</ele>
        <time>2024-07-09T08:04:22Z</time>
      </trkpt>
      <trkpt lat="43.97383" lon="7.4083">
        <ele>1298.2</ele>
        <time>2024-07-09T08:04:23Z</time>
      </trkpt>
      <trkpt lat="43.97383" lon="7.40827">
        <ele>1298.2</ele>
        <time>2024-07-09T08:04:24Z</time>
      </trkpt>
      <trkpt lat="43.97383" lon="7.40825">
        <ele>1298.2</ele>
        <time>2024-07-09T08:04:25Z</time>
      </trkpt>
      <trkpt lat="43.97383" lon="7.40823">
        <ele>1298.8</ele>
        <time>2024-07-09T08:04:26Z</time>
      </trkpt>
      <trkpt lat="43.97383" lon="7.40821">
        <ele>1298.8</ele>
        <time>2024-07-09T08:04:27Z</time>
      </trkpt>
      <trkpt lat="43.97383" lon="7.40819">
        <ele>1299</ele>
        <time>2024-07-09T08:04:28Z</time>
      </trkpt>
      <trkpt lat="43.97384" lon="7.40817">
        <ele>1299</ele>
        <time>2024-07-09T08:04:29Z</time>
      </trkpt>
      <trkpt lat="43.97384" lon="7.40815">
        <ele>1299</ele>
        <time>2024-07-09T08:04:30Z</time>
      </trkpt>
      <trkpt lat="43.97384" lon="7.40813">
        <ele>1299.6</ele>
        <time>2024-07-09T08:04:31Z</time>
      </trkpt>
      <trkpt lat="43.97384" lon="7.40811">
        <ele>1299.6</ele>
        <time>2024-07-09T08:04:32Z</time>
      </trkpt>
      <trkpt lat="43.97384" lon="7.40808">
        <ele>1299.6</ele>
        <time>2024-07-09T08:04:33Z</time>
      </trkpt>
      <trkpt lat="43.97384" lon="7.40806">
        <ele>1299.6</ele>
        <time>2024-07-09T08:04:34Z</time>
      </trkpt>
      <trkpt lat="43.97384" lon="7.40803">
        <ele>1299.6</ele>
        <time>2024-07-09T08:04:35Z</time>
      </trkpt>
      <trkpt lat="43.97384" lon="7.40801">
        <ele>1300.2</ele>
        <time>2024-07-09T08:04:36Z</time>
      </trkpt>
      <trkpt lat="43.97384" lon="7.40798">
        <ele>1300.2</ele>
        <time>2024-07-09T08:04:37Z</time>
      </trkpt>
      <trkpt lat="43.97383" lon="7.40796">
        <ele>1300.2</ele>
        <time>2024-07-09T08:04:38Z</time>
      </trkpt>
      <trkpt lat="43.97383" lon="7.40794">
        <ele>1300.2</ele>
        <time>2024-07-09T08:04:39Z</time>
      </trkpt>
      <trkpt lat="43.97382" lon="7.40792">
        <ele>1300.6</ele>
        <time>2024-07-09T08:04:40Z</time>
      </trkpt>
      <trkpt lat="43.97382" lon="7.4079">
        <ele>1300.8</ele>
        <time>2024-07-09T08:04:41Z</time>
      </trkpt>
      <trkpt lat="43.97381" lon="7.40788">
        <ele>1300.8</ele>
        <time>2024-07-09T08:04:42Z</time>
      </trkpt>
      <trkpt lat="43.9738" lon="7.40786">
        <ele>1300.8</ele>
        <time>2024-07-09T08:04:43Z</time>
      </trkpt>
      <trkpt lat="43.9738" lon="7.40784">
        <ele>1300.8</ele>
        <time>2024-07-09T08:04:44Z</time>
      </trkpt>
      <trkpt lat="43.97379" lon="7.40782">
        <ele>1301</ele>
        <time>2024-07-09T08:04:45Z</time>
      </trkpt>
      <trkpt lat="43.97378" lon="7.4078">
        <ele>1301.2</ele>
        <time>2024-07-09T08:04:46Z</time>
      </trkpt>
      <trkpt lat="43.97377" lon="7.40778">
        <ele>1301.2</ele>
        <time>2024-07-09T08:04:47Z</time>
      </trkpt>
      <trkpt lat="43.97376" lon="7.40776">
        <ele>1301.2</ele>
        <time>2024-07-09T08:04:48Z</time>
      </trkpt>
      <trkpt lat="43.97375" lon="7.40774">
        <ele>1301.6</ele>
        <time>2024-07-09T08:04:49Z</time>
      </trkpt>
      <trkpt lat="43.97374" lon="7.40772">
        <ele>1301.8</ele>
        <time>2024-07-09T08:04:50Z</time>
      </trkpt>
      <trkpt lat="43.97373" lon="7.4077">
        <ele>1301.8</ele>
        <time>2024-07-09T08:04:51Z</time>
      </trkpt>
      <trkpt lat="43.97372" lon="7.40768">
        <ele>1301.8</ele>
        <time>2024-07-09T08:04:52Z</time>
      </trkpt>
      <trkpt lat="43.97372" lon="7.40766">
        <ele>1301.8</ele>
        <time>2024-07-09T08:04:53Z</time>
      </trkpt>
      <trkpt lat="43.9737" lon="7.40764">
        <ele>1302.2</ele>
        <time>2024-07-09T08:04:54Z</time>
      </trkpt>
      <trkpt lat="43.97369" lon="7.40762">
        <ele>1302.2</ele>
        <time>2024-07-09T08:04:55Z</time>
      </trkpt>
      <trkpt lat="43.97368" lon="7.40759">
        <ele>1302.2</ele>
        <time>2024-07-09T08:04:56Z</time>
      </trkpt>
      <trkpt lat="43.97367" lon="7.40757">
        <ele>1302.2</ele>
        <time>2024-07-09T08:04:57Z</time>
      </trkpt>
      <trkpt lat="43.97366" lon="7.40755">
        <ele>1302.8</ele>
        <time>2024-07-09T08:04:58Z</time>
      </trkpt>
      <trkpt lat="43.97366" lon="7.40753">
        <ele>1302.8</ele>
        <time>2024-07-09T08:04:59Z</time>
      </trkpt>
      <trkpt lat="43.97365" lon="7.4075">
        <ele>1302.8</ele>
        <time>2024-07-09T08:05:00Z</time>
      </trkpt>
      <trkpt lat="43.97364" lon="7.40748">
        <ele>1302.8</ele>
        <time>2024-07-09T08:05:01Z</time>
      </trkpt>
      <trkpt lat="43.97364" lon="7.40747">
        <ele>1303.2</ele>
        <time>2024-07-09T08:05:02Z</time>
      </trkpt>
      <trkpt lat="43.97364" lon="7.40745">
        <ele>1303.2</ele>
        <time>2024-07-09T08:05:03Z</time>
      </trkpt>
      <trkpt lat="43.97364" lon="7.40742">
        <ele>1303.4</ele>
        <time>2024-07-09T08:05:04Z</time>
      </trkpt>
      <trkpt lat="43.97363" lon="7.4074">
        <ele>1303.4</ele>
        <time>2024-07-09T08:05:05Z</time>
      </trkpt>
      <trkpt lat="43.97363" lon="7.40738">
        <ele>1303.4</ele>
        <time>2024-07-09T08:05:06Z</time>
      </trkpt>
      <trkpt lat="43.97362" lon="7.40736">
        <ele>1304</ele>
        <time>2024-07-09T08:05:07Z</time>
      </trkpt>
      <trkpt lat="43.97361" lon="7.40734">
        <ele>1304.4</ele>
        <time>2024-07-09T08:05:08Z</time>
      </trkpt>
      <trkpt lat="43.9736" lon="7.40732">
        <ele>1304.4</ele>
        <time>2024-07-09T08:05:09Z</time>
      </trkpt>
      <trkpt lat="43.9736" lon="7.4073">
        <ele>1304.4</ele>
        <time>2024-07-09T08:05:10Z</time>
      </trkpt>
      <trkpt lat="43.97359" lon="7.40728">
        <ele>1304.4</ele>
        <time>2024-07-09T08:05:11Z</time>
      </trkpt>
      <trkpt lat="43.97358" lon="7.40726">
        <ele>1304.6</ele>
        <time>2024-07-09T08:05:12Z</time>
      </trkpt>
      <trkpt lat="43.97357" lon="7.40724">
        <ele>1304.6</ele>
        <time>2024-07-09T08:05:13Z</time>
      </trkpt>
      <trkpt lat="43.97356" lon="7.40722">
        <ele>1304.6</ele>
        <time>2024-07-09T08:05:14Z</time>
      </trkpt>
      <trkpt lat="43.97355" lon="7.4072">
        <ele>1304.6</ele>
        <time>2024-07-09T08:05:15Z</time>
      </trkpt>
      <trkpt lat="43.97353" lon="7.40719">
        <ele>1304.6</ele>
        <time>2024-07-09T08:05:16Z</time>
      </trkpt>
      <trkpt lat="43.97352" lon="7.40717">
        <ele>1305.6</ele>
        <time>2024-07-09T08:05:17Z</time>
      </trkpt>
      <trkpt lat="43.97351" lon="7.40715">
        <ele>1305.4</ele>
        <time>2024-07-09T08:05:18Z</time>
      </trkpt>
      <trkpt lat="43.97349" lon="7.40713">
        <ele>1305.4</ele>
        <time>2024-07-09T08:05:19Z</time>
      </trkpt>
      <trkpt lat="43.97347" lon="7.40712">
        <ele>1305.4</ele>
        <time>2024-07-09T08:05:20Z</time>
      </trkpt>
      <trkpt lat="43.97346" lon="7.4071">
        <ele>1305.6</ele>
        <time>2024-07-09T08:05:21Z</time>
      </trkpt>
      <trkpt lat="43.97344" lon="7.40709">
        <ele>1306</ele>
        <time>2024-07-09T08:05:22Z</time>
      </trkpt>
      <trkpt lat="43.97343" lon="7.40707">
        <ele>1306</ele>
        <time>2024-07-09T08:05:23Z</time>
      </trkpt>
      <trkpt lat="43.97342" lon="7.40705">
        <ele>1306</ele>
        <time>2024-07-09T08:05:24Z</time>
      </trkpt>
      <trkpt lat="43.9734" lon="7.40704">
        <ele>1306</ele>
        <time>2024-07-09T08:05:25Z</time>
      </trkpt>
      <trkpt lat="43.97339" lon="7.40702">
        <ele>1306</ele>
        <time>2024-07-09T08:05:26Z</time>
      </trkpt>
      <trkpt lat="43.97338" lon="7.40701">
        <ele>1306.4</ele>
        <time>2024-07-09T08:05:27Z</time>
      </trkpt>
      <trkpt lat="43.97337" lon="7.40699">
        <ele>1306.4</ele>
        <time>2024-07-09T08:05:28Z</time>
      </trkpt>
      <trkpt lat="43.97335" lon="7.40698">
        <ele>1306.4</ele>
        <time>2024-07-09T08:05:29Z</time>
      </trkpt>
      <trkpt lat="43.97334" lon="7.40696">
        <ele>1306.6</ele>
        <time>2024-07-09T08:05:30Z</time>
      </trkpt>
      <trkpt lat="43.97333" lon="7.40695">
        <ele>1306.6</ele>
        <time>2024-07-09T08:05:31Z</time>
      </trkpt>
      <trkpt lat="43.97332" lon="7.40694">
        <ele>1306.6</ele>
        <time>2024-07-09T08:05:32Z</time>
      </trkpt>
      <trkpt lat="43.97331" lon="7.40692">
        <ele>1306.6</ele>
        <time>2024-07-09T08:05:33Z</time>
      </trkpt>
      <trkpt lat="43.9733" lon="7.4069">
        <ele>1306.6</ele>
        <time>2024-07-09T08:05:34Z</time>
      </trkpt>
      <trkpt lat="43.97329" lon="7.40689">
        <ele>1307.2</ele>
        <time>2024-07-09T08:05:35Z</time>
      </trkpt>
      <trkpt lat="43.97328" lon="7.40687">
        <ele>1307.2</ele>
        <time>2024-07-09T08:05:36Z</time>
      </trkpt>
      <trkpt lat="43.97327" lon="7.40686">
        <ele>1307.2</ele>
        <time>2024-07-09T08:05:37Z</time>
      </trkpt>
      <trkpt lat="43.97326" lon="7.40684">
        <ele>1307.2</ele>
        <time>2024-07-09T08:05:38Z</time>
      </trkpt>
      <trkpt lat="43.97325" lon="7.40683">
        <ele>1307.6</ele>
        <time>2024-07-09T08:05:39Z</time>
      </trkpt>
      <trkpt lat="43.97323" lon="7.40682">
        <ele>1307.6</ele>
        <time>2024-07-09T08:05:40Z</time>
      </trkpt>
      <trkpt lat="43.97322" lon="7.40681">
        <ele>1307.6</ele>
        <time>2024-07-09T08:05:41Z</time>
      </trkpt>
      <trkpt lat="43.97321" lon="7.40679">
        <ele>1307.6</ele>
        <time>2024-07-09T08:05:42Z</time>
      </trkpt>
      <trkpt lat="43.97319" lon="7.40678">
        <ele>1307.6</ele>
        <time>2024-07-09T08:05:43Z</time>
      </trkpt>
      <trkpt lat="43.97318" lon="7.40676">
        <ele>1308</ele>
        <time>2024-07-09T08:05:44Z</time>
      </trkpt>
      <trkpt lat="43.97317" lon="7.40675">
        <ele>1308</ele>
        <time>2024-07-09T08:05:45Z</time>
      </trkpt>
      <trkpt lat="43.97316" lon="7.40674">
        <ele>1308</ele>
        <time>2024-07-09T08:05:46Z</time>
      </trkpt>
      <trkpt lat="43.97315" lon="7.40672">
        <ele>1308</ele>
        <time>2024-07-09T08:05:47Z</time>
      </trkpt>
      <trkpt lat="43.97314" lon="7.40671">
        <ele>1308.8</ele>
        <time>2024-07-09T08:05:48Z</time>
      </trkpt>
      <trkpt lat="43.97313" lon="7.4067">
        <ele>1308.8</ele>
        <time>2024-07-09T08:05:49Z</time>
      </trkpt>
      <trkpt lat="43.97312" lon="7.40668">
        <ele>1308.8</ele>
        <time>2024-07-09T08:05:50Z</time>
      </trkpt>
      <trkpt lat="43.9731" lon="7.40667">
        <ele>1308.8</ele>
        <time>2024-07-09T08:05:51Z</time>
      </trkpt>
      <trkpt lat="43.97309" lon="7.40666">
        <ele>1308.8</ele>
        <time>2024-07-09T08:05:52Z</time>
      </trkpt>
      <trkpt lat="43.97307" lon="7.40665">
        <ele>1309</ele>
        <time>2024-07-09T08:05:53Z</time>
      </trkpt>
      <trkpt lat="43.97306" lon="7.40664">
        <ele>1309.2</ele>
        <time>2024-07-09T08:05:54Z</time>
      </trkpt>
      <trkpt lat="43.97304" lon="7.40663">
        <ele>1309.2</ele>
        <time>2024-07-09T08:05:55Z</time>
      </trkpt>
      <trkpt lat="43.97303" lon="7.40662">
        <ele>1309.2</ele>
        <time>2024-07-09T08:05:56Z</time>
      </trkpt>
      <trkpt lat="43.97301" lon="7.40661">
        <ele>1309.2</ele>
        <time>2024-07-09T08:05:57Z</time>
      </trkpt>
      <trkpt lat="43.973" lon="7.4066">
        <ele>1309.2</ele>
        <time>2024-07-09T08:05:58Z</time>
      </trkpt>
      <trkpt lat="43.97298" lon="7.40659">
        <ele>1310</ele>
        <time>2024-07-09T08:05:59Z</time>
      </trkpt>
      <trkpt lat="43.97297" lon="7.40658">
        <ele>1310</ele>
        <time>2024-07-09T08:06:00Z</time>
      </trkpt>
      <trkpt lat="43.97296" lon="7.40657">
        <ele>1310</ele>
        <time>2024-07-09T08:06:01Z</time>
      </trkpt>
      <trkpt lat="43.97294" lon="7.40657">
        <ele>1310</ele>
        <time>2024-07-09T08:06:02Z</time>
      </trkpt>
      <trkpt lat="43.97292" lon="7.40656">
        <ele>1310.6</ele>
        <time>2024-07-09T08:06:03Z</time>
      </trkpt>
      <trkpt lat="43.9729" lon="7.40656">
        <ele>1310.6</ele>
        <time>2024-07-09T08:06:04Z</time>
      </trkpt>
      <trkpt lat="43.97289" lon="7.40655">
        <ele>1310.6</ele>
        <time>2024-07-09T08:06:05Z</time>
      </trkpt>
      <trkpt lat="43.97287" lon="7.40654">
        <ele>1311</ele>
        <time>2024-07-09T08:06:06Z</time>
      </trkpt>
      <trkpt lat="43.97286" lon="7.40653">
        <ele>1311</ele>
        <time>2024-07-09T08:06:07Z</time>
      </trkpt>
      <trkpt lat="43.97283" lon="7.40653">
        <ele>1311</ele>
        <time>2024-07-09T08:06:08Z</time>
      </trkpt>
      <trkpt lat="43.97283" lon="7.4065">
        <ele>1311</ele>
        <time>2024-07-09T08:06:09Z</time>
      </trkpt>
      <trkpt lat="43.97281" lon="7.4065">
        <ele>1311</ele>
        <time>2024-07-09T08:06:10Z</time>
      </trkpt>
      <trkpt lat="43.9728" lon="7.40649">
        <ele>1311.4</ele>
        <time>2024-07-09T08:06:11Z</time>
      </trkpt>
      <trkpt lat="43.97278" lon="7.40649">
        <ele>1311.4</ele>
        <time>2024-07-09T08:06:12Z</time>
      </trkpt>
      <trkpt lat="43.97276" lon="7.40648">
        <ele>1311.4</ele>
        <time>2024-07-09T08:06:13Z</time>
      </trkpt>
      <trkpt lat="43.97274" lon="7.40648">
        <ele>1311.4</ele>
        <time>2024-07-09T08:06:14Z</time>
      </trkpt>
      <trkpt lat="43.97272" lon="7.40648">
        <ele>1311.4</ele>
        <time>2024-07-09T08:06:15Z</time>
      </trkpt>
      <trkpt lat="43.9727" lon="7.40647">
        <ele>1312.4</ele>
        <time>2024-07-09T08:06:16Z</time>
      </trkpt>
      <trkpt lat="43.97269" lon="7.40647">
        <ele>1312.4</ele>
        <time>2024-07-09T08:06:17Z</time>
      </trkpt>
      <trkpt lat="43.97267" lon="7.40647">
        <ele>1312.4</ele>
        <time>2024-07-09T08:06:18Z</time>
      </trkpt>
      <trkpt lat="43.97265" lon="7.40647">
        <ele>1312.4</ele>
        <time>2024-07-09T08:06:19Z</time>
      </trkpt>
      <trkpt lat="43.97264" lon="7.40646">
        <ele>1312.6</ele>
        <time>2024-07-09T08:06:20Z</time>
      </trkpt>
      <trkpt lat="43.97262" lon="7.40646">
        <ele>1312.8</ele>
        <time>2024-07-09T08:06:21Z</time>
      </trkpt>
      <trkpt lat="43.9726" lon="7.40647">
        <ele>1312.8</ele>
        <time>2024-07-09T08:06:22Z</time>
      </trkpt>
      <trkpt lat="43.97258" lon="7.40647">
        <ele>1312.8</ele>
        <time>2024-07-09T08:06:23Z</time>
      </trkpt>
      <trkpt lat="43.97257" lon="7.40648">
        <ele>1313.4</ele>
        <time>2024-07-09T08:06:24Z</time>
      </trkpt>
      <trkpt lat="43.97256" lon="7.40649">
        <ele>1313.8</ele>
        <time>2024-07-09T08:06:25Z</time>
      </trkpt>
      <trkpt lat="43.97254" lon="7.4065">
        <ele>1313.8</ele>
        <time>2024-07-09T08:06:26Z</time>
      </trkpt>
      <trkpt lat="43.97252" lon="7.40651">
        <ele>1313.8</ele>
        <time>2024-07-09T08:06:27Z</time>
      </trkpt>
      <trkpt lat="43.97251" lon="7.40652">
        <ele>1314.4</ele>
        <time>2024-07-09T08:06:28Z</time>
      </trkpt>
      <trkpt lat="43.9725" lon="7.40654">
        <ele>1314.4</ele>
        <time>2024-07-09T08:06:29Z</time>
      </trkpt>
      <trkpt lat="43.97249" lon="7.40655">
        <ele>1314.4</ele>
        <time>2024-07-09T08:06:30Z</time>
      </trkpt>
      <trkpt lat="43.97248" lon="7.40656">
        <ele>1314.4</ele>
        <time>2024-07-09T08:06:31Z</time>
      </trkpt>
      <trkpt lat="43.97246" lon="7.40657">
        <ele>1314.4</ele>
        <time>2024-07-09T08:06:32Z</time>
      </trkpt>
      <trkpt lat="43.97244" lon="7.40658">
        <ele>1314.4</ele>
        <time>2024-07-09T08:06:33Z</time>
      </trkpt>
      <trkpt lat="43.97243" lon="7.40659">
        <ele>1315.2</ele>
        <time>2024-07-09T08:06:34Z</time>
      </trkpt>
      <trkpt lat="43.97242" lon="7.4066">
        <ele>1315.4</ele>
        <time>2024-07-09T08:06:35Z</time>
      </trkpt>
      <trkpt lat="43.9724" lon="7.40661">
        <ele>1315.4</ele>
        <time>2024-07-09T08:06:36Z</time>
      </trkpt>
      <trkpt lat="43.97238" lon="7.40662">
        <ele>1315.4</ele>
        <time>2024-07-09T08:06:37Z</time>
      </trkpt>
      <trkpt lat="43.97237" lon="7.40663">
        <ele>1316</ele>
        <time>2024-07-09T08:06:38Z</time>
      </trkpt>
      <trkpt lat="43.97235" lon="7.40664">
        <ele>1316.2</ele>
        <time>2024-07-09T08:06:39Z</time>
      </trkpt>
      <trkpt lat="43.97233" lon="7.40665">
        <ele>1316.2</ele>
        <time>2024-07-09T08:06:40Z</time>
      </trkpt>
      <trkpt lat="43.97231" lon="7.40666">
        <ele>1316.2</ele>
        <time>2024-07-09T08:06:41Z</time>
      </trkpt>
      <trkpt lat="43.9723" lon="7.40667">
        <ele>1316.2</ele>
        <time>2024-07-09T08:06:42Z</time>
      </trkpt>
      <trkpt lat="43.97228" lon="7.40668">
        <ele>1316.8</ele>
        <time>2024-07-09T08:06:43Z</time>
      </trkpt>
      <trkpt lat="43.97227" lon="7.40669">
        <ele>1317</ele>
        <time>2024-07-09T08:06:44Z</time>
      </trkpt>
      <trkpt lat="43.97226" lon="7.4067">
        <ele>1317</ele>
        <time>2024-07-09T08:06:45Z</time>
      </trkpt>
      <trkpt lat="43.97224" lon="7.40671">
        <ele>1317</ele>
        <time>2024-07-09T08:06:46Z</time>
      </trkpt>
      <trkpt lat="43.97223" lon="7.40673">
        <ele>1317.4</ele>
        <time>2024-07-09T08:06:47Z</time>
      </trkpt>
      <trkpt lat="43.97221" lon="7.40674">
        <ele>1317.6</ele>
        <time>2024-07-09T08:06:48Z</time>
      </trkpt>
      <trkpt lat="43.9722" lon="7.40676">
        <ele>1317.6</ele>
        <time>2024-07-09T08:06:49Z</time>
      </trkpt>
      <trkpt lat="43.97218" lon="7.40677">
        <ele>1317.6</ele>
        <time>2024-07-09T08:06:50Z</time>
      </trkpt>
      <trkpt lat="43.97217" lon="7.40679">
        <ele>1317.6</ele>
        <time>2024-07-09T08:06:51Z</time>
      </trkpt>
      <trkpt lat="43.97215" lon="7.4068">
        <ele>1318.2</ele>
        <time>2024-07-09T08:06:52Z</time>
      </trkpt>
      <trkpt lat="43.97214" lon="7.40681">
        <ele>1318.4</ele>
        <time>2024-07-09T08:06:53Z</time>
      </trkpt>
      <trkpt lat="43.97212" lon="7.40682">
        <ele>1318.4</ele>
        <time>2024-07-09T08:06:54Z</time>
      </trkpt>
      <trkpt lat="43.97211" lon="7.40683">
        <ele>1318.4</ele>
        <time>2024-07-09T08:06:55Z</time>
      </trkpt>
      <trkpt lat="43.97209" lon="7.40684">
        <ele>1318.4</ele>
        <time>2024-07-09T08:06:56Z</time>
      </trkpt>
      <trkpt lat="43.97208" lon="7.40685">
        <ele>1318.8</ele>
        <time>2024-07-09T08:06:57Z</time>
      </trkpt>
      <trkpt lat="43.97206" lon="7.40686">
        <ele>1318.8</ele>
        <time>2024-07-09T08:06:58Z</time>
      </trkpt>
      <trkpt lat="43.97205" lon="7.40687">
        <ele>1318.8</ele>
        <time>2024-07-09T08:06:59Z</time>
      </trkpt>
      <trkpt lat="43.97203" lon="7.40689">
        <ele>1319.2</ele>
        <time>2024-07-09T08:07:00Z</time>
      </trkpt>
      <trkpt lat="43.97202" lon="7.4069">
        <ele>1319.4</ele>
        <time>2024-07-09T08:07:01Z</time>
      </trkpt>
      <trkpt lat="43.972" lon="7.40691">
        <ele>1319.4</ele>
        <time>2024-07-09T08:07:02Z</time>
      </trkpt>
      <trkpt lat="43.97198" lon="7.40691">
        <ele>1319.4</ele>
        <time>2024-07-09T08:07:03Z</time>
      </trkpt>
      <trkpt lat="43.97196" lon="7.40692">
        <ele>1319.4</ele>
        <time>2024-07-09T08:07:04Z</time>
      </trkpt>
      <trkpt lat="43.97195" lon="7.40693">
        <ele>1319.8</ele>
        <time>2024-07-09T08:07:05Z</time>
      </trkpt>
      <trkpt lat="43.97193" lon="7.40694">
        <ele>1319.8</ele>
        <time>2024-07-09T08:07:06Z</time>
      </trkpt>
      <trkpt lat="43.97192" lon="7.40695">
        <ele>1319.8</ele>
        <time>2024-07-09T08:07:07Z</time>
      </trkpt>
      <trkpt lat="43.97191" lon="7.40695">
        <ele>1319.8</ele>
        <time>2024-07-09T08:07:08Z</time>
      </trkpt>
      <trkpt lat="43.97189" lon="7.40695">
        <ele>1320</ele>
        <time>2024-07-09T08:07:09Z</time>
      </trkpt>
      <trkpt lat="43.97188" lon="7.40695">
        <ele>1320.2</ele>
        <time>2024-07-09T08:07:10Z</time>
      </trkpt>
      <trkpt lat="43.97187" lon="7.40693">
        <ele>1320.2</ele>
        <time>2024-07-09T08:07:11Z</time>
      </trkpt>
      <trkpt lat="43.97187" lon="7.40691">
        <ele>1320.2</ele>
        <time>2024-07-09T08:07:12Z</time>
      </trkpt>
      <trkpt lat="43.97187" lon="7.40689">
        <ele>1320.2</ele>
        <time>2024-07-09T08:07:13Z</time>
      </trkpt>
      <trkpt lat="43.97188" lon="7.40688">
        <ele>1320.6</ele>
        <time>2024-07-09T08:07:14Z</time>
      </trkpt>
      <trkpt lat="43.97189" lon="7.40686">
        <ele>1320.6</ele>
        <time>2024-07-09T08:07:15Z</time>
      </trkpt>
      <trkpt lat="43.9719" lon="7.40685">
        <ele>1320.8</ele>
        <time>2024-07-09T08:07:16Z</time>
      </trkpt>
      <trkpt lat="43.97191" lon="7.40684">
        <ele>1320.8</ele>
        <time>2024-07-09T08:07:17Z</time>
      </trkpt>
      <trkpt lat="43.97192" lon="7.40684">
        <ele>1320.8</ele>
        <time>2024-07-09T08:07:18Z</time>
      </trkpt>
      <trkpt lat="43.97194" lon="7.40682">
        <ele>1321</ele>
        <time>2024-07-09T08:07:19Z</time>
      </trkpt>
      <trkpt lat="43.97195" lon="7.40682">
        <ele>1321.2</ele>
        <time>2024-07-09T08:07:20Z</time>
      </trkpt>
      <trkpt lat="43.97196" lon="7.40681">
        <ele>1321.2</ele>
        <time>2024-07-09T08:07:21Z</time>
      </trkpt>
      <trkpt lat="43.97197" lon="7.4068">
        <ele>1321.2</ele>
        <time>2024-07-09T08:07:22Z</time>
      </trkpt>
      <trkpt lat="43.97199" lon="7.40679">
        <ele>1321.6</ele>
        <time>2024-07-09T08:07:23Z</time>
      </trkpt>
      <trkpt lat="43.972" lon="7.40678">
        <ele>1321.6</ele>
        <time>2024-07-09T08:07:24Z</time>
      </trkpt>
      <trkpt lat="43.97202" lon="7.40677">
        <ele>1321.6</ele>
        <time>2024-07-09T08:07:25Z</time>
      </trkpt>
      <trkpt lat="43.97204" lon="7.40676">
        <ele>1321.6</ele>
        <time>2024-07-09T08:07:26Z</time>
      </trkpt>
      <trkpt lat="43.97205" lon="7.40675">
        <ele>1322.4</ele>
        <time>2024-07-09T08:07:27Z</time>
      </trkpt>
      <trkpt lat="43.97207" lon="7.40675">
        <ele>1322.4</ele>
        <time>2024-07-09T08:07:28Z</time>
      </trkpt>
      <trkpt lat="43.97208" lon="7.40674">
        <ele>1322.6</ele>
        <time>2024-07-09T08:07:29Z</time>
      </trkpt>
      <trkpt lat="43.9721" lon="7.40673">
        <ele>1322.6</ele>
        <time>2024-07-09T08:07:30Z</time>
      </trkpt>
      <trkpt lat="43.97211" lon="7.40672">
        <ele>1322.6</ele>
        <time>2024-07-09T08:07:31Z</time>
      </trkpt>
      <trkpt lat="43.97213" lon="7.40671">
        <ele>1323.2</ele>
        <time>2024-07-09T08:07:32Z</time>
      </trkpt>
      <trkpt lat="43.97214" lon="7.4067">
        <ele>1323.4</ele>
        <time>2024-07-09T08:07:33Z</time>
      </trkpt>
      <trkpt lat="43.97216" lon="7.40669">
        <ele>1323.4</ele>
        <time>2024-07-09T08:07:34Z</time>
      </trkpt>
      <trkpt lat="43.97217" lon="7.40668">
        <ele>1323.4</ele>
        <time>2024-07-09T08:07:35Z</time>
      </trkpt>
      <trkpt lat="43.97218" lon="7.40667">
        <ele>1324</ele>
        <time>2024-07-09T08:07:36Z</time>
      </trkpt>
      <trkpt lat="43.97219" lon="7.40666">
        <ele>1324</ele>
        <time>2024-07-09T08:07:37Z</time>
      </trkpt>
      <trkpt lat="43.97221" lon="7.40664">
        <ele>1324</ele>
        <time>2024-07-09T08:07:38Z</time>
      </trkpt>
      <trkpt lat="43.97222" lon="7.40663">
        <ele>1324</ele>
        <time>2024-07-09T08:07:39Z</time>
      </trkpt>
      <trkpt lat="43.97223" lon="7.40661">
        <ele>1324</ele>
        <time>2024-07-09T08:07:40Z</time>
      </trkpt>
      <trkpt lat="43.97225" lon="7.40659">
        <ele>1324.2</ele>
        <time>2024-07-09T08:07:41Z</time>
      </trkpt>
      <trkpt lat="43.97226" lon="7.40658">
        <ele>1324.2</ele>
        <time>2024-07-09T08:07:42Z</time>
      </trkpt>
      <trkpt lat="43.97228" lon="7.40656">
        <ele>1324.2</ele>
        <time>2024-07-09T08:07:43Z</time>
      </trkpt>
      <trkpt lat="43.97229" lon="7.40654">
        <ele>1324.2</ele>
        <time>2024-07-09T08:07:44Z</time>
      </trkpt>
      <trkpt lat="43.97231" lon="7.40652">
        <ele>1325</ele>
        <time>2024-07-09T08:07:45Z</time>
      </trkpt>
      <trkpt lat="43.97232" lon="7.4065">
        <ele>1325.2</ele>
        <time>2024-07-09T08:07:46Z</time>
      </trkpt>
      <trkpt lat="43.97234" lon="7.40649">
        <ele>1325.2</ele>
        <time>2024-07-09T08:07:47Z</time>
      </trkpt>
      <trkpt lat="43.97235" lon="7.40648">
        <ele>1325.2</ele>
        <time>2024-07-09T08:07:48Z</time>
      </trkpt>
      <trkpt lat="43.97237" lon="7.40646">
        <ele>1325.8</ele>
        <time>2024-07-09T08:07:49Z</time>
      </trkpt>
      <trkpt lat="43.97238" lon="7.40645">
        <ele>1325.8</ele>
        <time>2024-07-09T08:07:50Z</time>
      </trkpt>
      <trkpt lat="43.97239" lon="7.40643">
        <ele>1326</ele>
        <time>2024-07-09T08:07:51Z</time>
      </trkpt>
      <trkpt lat="43.97241" lon="7.40642">
        <ele>1326</ele>
        <time>2024-07-09T08:07:52Z</time>
      </trkpt>
      <trkpt lat="43.97242" lon="7.40641">
        <ele>1326</ele>
        <time>2024-07-09T08:07:53Z</time>
      </trkpt>
      <trkpt lat="43.97243" lon="7.4064">
        <ele>1326.8</ele>
        <time>2024-07-09T08:07:54Z</time>
      </trkpt>
      <trkpt lat="43.97244" lon="7.4064">
        <ele>1326.8</ele>
        <time>2024-07-09T08:07:55Z</time>
      </trkpt>
      <trkpt lat="43.97245" lon="7.40638">
        <ele>1326.8</ele>
        <time>2024-07-09T08:07:56Z</time>
      </trkpt>
      <trkpt lat="43.97247" lon="7.40637">
        <ele>1326.8</ele>
        <time>2024-07-09T08:07:57Z</time>
      </trkpt>
      <trkpt lat="43.97249" lon="7.40636">
        <ele>1326.8</ele>
        <time>2024-07-09T08:07:58Z</time>
      </trkpt>
      <trkpt lat="43.9725" lon="7.40635">
        <ele>1327.2</ele>
        <time>2024-07-09T08:07:59Z</time>
      </trkpt>
      <trkpt lat="43.97252" lon="7.40634">
        <ele>1327.2</ele>
        <time>2024-07-09T08:08:00Z</time>
      </trkpt>
      <trkpt lat="43.97253" lon="7.40633">
        <ele>1327.2</ele>
        <time>2024-07-09T08:08:01Z</time>
      </trkpt>
      <trkpt lat="43.97255" lon="7.40632">
        <ele>1327.2</ele>
        <time>2024-07-09T08:08:02Z</time>
      </trkpt>
      <trkpt lat="43.97256" lon="7.40631">
        <ele>1327.2</ele>
        <time>2024-07-09T08:08:03Z</time>
      </trkpt>
      <trkpt lat="43.97258" lon="7.40631">
        <ele>1327.6</ele>
        <time>2024-07-09T08:08:04Z</time>
      </trkpt>
      <trkpt lat="43.9726" lon="7.4063">
        <ele>1327.6</ele>
        <time>2024-07-09T08:08:05Z</time>
      </trkpt>
      <trkpt lat="43.97262" lon="7.40629">
        <ele>1327.6</ele>
        <time>2024-07-09T08:08:06Z</time>
      </trkpt>
      <trkpt lat="43.97263" lon="7.40628">
        <ele>1327.6</ele>
        <time>2024-07-09T08:08:07Z</time>
      </trkpt>
      <trkpt lat="43.97265" lon="7.40627">
        <ele>1327.6</ele>
        <time>2024-07-09T08:08:08Z</time>
      </trkpt>
      <trkpt lat="43.97267" lon="7.40627">
        <ele>1328.2</ele>
        <time>2024-07-09T08:08:09Z</time>
      </trkpt>
      <trkpt lat="43.97268" lon="7.40627">
        <ele>1328.2</ele>
        <time>2024-07-09T08:08:10Z</time>
      </trkpt>
      <trkpt lat="43.97269" lon="7.40626">
        <ele>1328.2</ele>
        <time>2024-07-09T08:08:11Z</time>
      </trkpt>
      <trkpt lat="43.9727" lon="7.40626">
        <ele>1328.2</ele>
        <time>2024-07-09T08:08:12Z</time>
      </trkpt>
      <trkpt lat="43.97272" lon="7.40626">
        <ele>1328.6</ele>
        <time>2024-07-09T08:08:13Z</time>
      </trkpt>
      <trkpt lat="43.97274" lon="7.40626">
        <ele>1328.8</ele>
        <time>2024-07-09T08:08:14Z</time>
      </trkpt>
      <trkpt lat="43.97275" lon="7.40625">
        <ele>1328.8</ele>
        <time>2024-07-09T08:08:15Z</time>
      </trkpt>
      <trkpt lat="43.97277" lon="7.40625">
        <ele>1328.8</ele>
        <time>2024-07-09T08:08:16Z</time>
      </trkpt>
      <trkpt lat="43.97279" lon="7.40625">
        <ele>1328.8</ele>
        <time>2024-07-09T08:08:17Z</time>
      </trkpt>
      <trkpt lat="43.9728" lon="7.40626">
        <ele>1329</ele>
        <time>2024-07-09T08:08:18Z</time>
      </trkpt>
      <trkpt lat="43.97282" lon="7.40626">
        <ele>1329</ele>
        <time>2024-07-09T08:08:19Z</time>
      </trkpt>
      <trkpt lat="43.97284" lon="7.40626">
        <ele>1329</ele>
        <time>2024-07-09T08:08:20Z</time>
      </trkpt>
      <trkpt lat="43.97286" lon="7.40626">
        <ele>1329.4</ele>
        <time>2024-07-09T08:08:21Z</time>
      </trkpt>
      <trkpt lat="43.97287" lon="7.40626">
        <ele>1329.4</ele>
        <time>2024-07-09T08:08:22Z</time>
      </trkpt>
      <trkpt lat="43.97289" lon="7.40626">
        <ele>1329.4</ele>
        <time>2024-07-09T08:08:23Z</time>
      </trkpt>
      <trkpt lat="43.9729" lon="7.40626">
        <ele>1329.4</ele>
        <time>2024-07-09T08:08:24Z</time>
      </trkpt>
      <trkpt lat="43.97292" lon="7.40626">
        <ele>1329.4</ele>
        <time>2024-07-09T08:08:25Z</time>
      </trkpt>
      <trkpt lat="43.97293" lon="7.40626">
        <ele>1330</ele>
        <time>2024-07-09T08:08:26Z</time>
      </trkpt>
      <trkpt lat="43.97295" lon="7.40626">
        <ele>1330.2</ele>
        <time>2024-07-09T08:08:27Z</time>
      </trkpt>
      <trkpt lat="43.97296" lon="7.40626">
        <ele>1330.2</ele>
        <time>2024-07-09T08:08:28Z</time>
      </trkpt>
      <trkpt lat="43.97298" lon="7.40626">
        <ele>1330.2</ele>
        <time>2024-07-09T08:08:29Z</time>
      </trkpt>
      <trkpt lat="43.97299" lon="7.40626">
        <ele>1330.6</ele>
        <time>2024-07-09T08:08:30Z</time>
      </trkpt>
      <trkpt lat="43.973" lon="7.40626">
        <ele>1330.6</ele>
        <time>2024-07-09T08:08:31Z</time>
      </trkpt>
      <trkpt lat="43.97302" lon="7.40627">
        <ele>1330.8</ele>
        <time>2024-07-09T08:08:32Z</time>
      </trkpt>
      <trkpt lat="43.97303" lon="7.40626">
        <ele>1330.8</ele>
        <time>2024-07-09T08:08:33Z</time>
      </trkpt>
      <trkpt lat="43.97305" lon="7.40626">
        <ele>1330.8</ele>
        <time>2024-07-09T08:08:34Z</time>
      </trkpt>
      <trkpt lat="43.97306" lon="7.40627">
        <ele>1331.4</ele>
        <time>2024-07-09T08:08:35Z</time>
      </trkpt>
      <trkpt lat="43.97307" lon="7.40627">
        <ele>1331.6</ele>
        <time>2024-07-09T08:08:36Z</time>
      </trkpt>
      <trkpt lat="43.97309" lon="7.40627">
        <ele>1331.6</ele>
        <time>2024-07-09T08:08:37Z</time>
      </trkpt>
      <trkpt lat="43.9731" lon="7.40628">
        <ele>1331.6</ele>
        <time>2024-07-09T08:08:38Z</time>
      </trkpt>
      <trkpt lat="43.97312" lon="7.40628">
        <ele>1332</ele>
        <time>2024-07-09T08:08:39Z</time>
      </trkpt>
      <trkpt lat="43.97314" lon="7.40629">
        <ele>1332</ele>
        <time>2024-07-09T08:08:40Z</time>
      </trkpt>
      <trkpt lat="43.97315" lon="7.4063">
        <ele>1332.4</ele>
        <time>2024-07-09T08:08:41Z</time>
      </trkpt>
      <trkpt lat="43.97316" lon="7.40631">
        <ele>1332.4</ele>
        <time>2024-07-09T08:08:42Z</time>
      </trkpt>
      <trkpt lat="43.97317" lon="7.40631">
        <ele>1332.4</ele>
        <time>2024-07-09T08:08:43Z</time>
      </trkpt>
      <trkpt lat="43.97318" lon="7.40632">
        <ele>1333</ele>
        <time>2024-07-09T08:08:44Z</time>
      </trkpt>
      <trkpt lat="43.97319" lon="7.40633">
        <ele>1333</ele>
        <time>2024-07-09T08:08:45Z</time>
      </trkpt>
      <trkpt lat="43.9732" lon="7.40634">
        <ele>1333.2</ele>
        <time>2024-07-09T08:08:46Z</time>
      </trkpt>
      <trkpt lat="43.97321" lon="7.40635">
        <ele>1333.2</ele>
        <time>2024-07-09T08:08:47Z</time>
      </trkpt>
      <trkpt lat="43.97322" lon="7.40636">
        <ele>1333.2</ele>
        <time>2024-07-09T08:08:48Z</time>
      </trkpt>
      <trkpt lat="43.97324" lon="7.40637">
        <ele>1333.2</ele>
        <time>2024-07-09T08:08:49Z</time>
      </trkpt>
      <trkpt lat="43.97325" lon="7.40639">
        <ele>1333.2</ele>
        <time>2024-07-09T08:08:50Z</time>
      </trkpt>
      <trkpt lat="43.97327" lon="7.4064">
        <ele>1333.2</ele>
        <time>2024-07-09T08:08:51Z</time>
      </trkpt>
      <trkpt lat="43.97328" lon="7.40641">
        <ele>1333.2</ele>
        <time>2024-07-09T08:08:52Z</time>
      </trkpt>
      <trkpt lat="43.9733" lon="7.40643">
        <ele>1334</ele>
        <time>2024-07-09T08:08:53Z</time>
      </trkpt>
      <trkpt lat="43.97331" lon="7.40645">
        <ele>1334</ele>
        <time>2024-07-09T08:08:54Z</time>
      </trkpt>
      <trkpt lat="43.97333" lon="7.40647">
        <ele>1334</ele>
        <time>2024-07-09T08:08:55Z</time>
      </trkpt>
      <trkpt lat="43.97334" lon="7.40648">
        <ele>1334</ele>
        <time>2024-07-09T08:08:56Z</time>
      </trkpt>
      <trkpt lat="43.97335" lon="7.40649">
        <ele>1334</ele>
        <time>2024-07-09T08:08:57Z</time>
      </trkpt>
      <trkpt lat="43.97337" lon="7.40651">
        <ele>1334.4</ele>
        <time>2024-07-09T08:08:58Z</time>
      </trkpt>
      <trkpt lat="43.97338" lon="7.40652">
        <ele>1334.6</ele>
        <time>2024-07-09T08:08:59Z</time>
      </trkpt>
      <trkpt lat="43.9734" lon="7.40653">
        <ele>1334.6</ele>
        <time>2024-07-09T08:09:00Z</time>
      </trkpt>
      <trkpt lat="43.97342" lon="7.40654">
        <ele>1334.6</ele>
        <time>2024-07-09T08:09:01Z</time>
      </trkpt>
      <trkpt lat="43.97343" lon="7.40655">
        <ele>1334.6</ele>
        <time>2024-07-09T08:09:02Z</time>
      </trkpt>
      <trkpt lat="43.97345" lon="7.40656">
        <ele>1335</ele>
        <time>2024-07-09T08:09:03Z</time>
      </trkpt>
      <trkpt lat="43.97346" lon="7.40657">
        <ele>1335</ele>
        <time>2024-07-09T08:09:04Z</time>
      </trkpt>
      <trkpt lat="43.97348" lon="7.40658">
        <ele>1335</ele>
        <time>2024-07-09T08:09:05Z</time>
      </trkpt>
      <trkpt lat="43.97349" lon="7.4066">
        <ele>1335.4</ele>
        <time>2024-07-09T08:09:06Z</time>
      </trkpt>
      <trkpt lat="43.9735" lon="7.40661">
        <ele>1335.4</ele>
        <time>2024-07-09T08:09:07Z</time>
      </trkpt>
      <trkpt lat="43.97351" lon="7.40662">
        <ele>1335.8</ele>
        <time>2024-07-09T08:09:08Z</time>
      </trkpt>
      <trkpt lat="43.97353" lon="7.40663">
        <ele>1335.8</ele>
        <time>2024-07-09T08:09:09Z</time>
      </trkpt>
      <trkpt lat="43.97355" lon="7.40663">
        <ele>1335.8</ele>
        <time>2024-07-09T08:09:10Z</time>
      </trkpt>
      <trkpt lat="43.97357" lon="7.40664">
        <ele>1336.2</ele>
        <time>2024-07-09T08:09:11Z</time>
      </trkpt>
      <trkpt lat="43.97359" lon="7.40664">
        <ele>1336.4</ele>
        <time>2024-07-09T08:09:12Z</time>
      </trkpt>
      <trkpt lat="43.9736" lon="7.40665">
        <ele>1336.4</ele>
        <time>2024-07-09T08:09:13Z</time>
      </trkpt>
      <trkpt lat="43.97362" lon="7.40665">
        <ele>1336.4</ele>
        <time>2024-07-09T08:09:14Z</time>
      </trkpt>
      <trkpt lat="43.97364" lon="7.40666">
        <ele>1336.4</ele>
        <time>2024-07-09T08:09:15Z</time>
      </trkpt>
      <trkpt lat="43.97365" lon="7.40667">
        <ele>1336.8</ele>
        <time>2024-07-09T08:09:16Z</time>
      </trkpt>
      <trkpt lat="43.97366" lon="7.40668">
        <ele>1336.8</ele>
        <time>2024-07-09T08:09:17Z</time>
      </trkpt>
      <trkpt lat="43.97368" lon="7.4067">
        <ele>1336.8</ele>
        <time>2024-07-09T08:09:18Z</time>
      </trkpt>
      <trkpt lat="43.9737" lon="7.40671">
        <ele>1336.8</ele>
        <time>2024-07-09T08:09:19Z</time>
      </trkpt>
      <trkpt lat="43.97372" lon="7.40673">
        <ele>1337.4</ele>
        <time>2024-07-09T08:09:20Z</time>
      </trkpt>
      <trkpt lat="43.97374" lon="7.40675">
        <ele>1337.6</ele>
        <time>2024-07-09T08:09:21Z</time>
      </trkpt>
      <trkpt lat="43.97376" lon="7.40677">
        <ele>1337.6</ele>
        <time>2024-07-09T08:09:22Z</time>
      </trkpt>
      <trkpt lat="43.97378" lon="7.40678">
        <ele>1337.6</ele>
        <time>2024-07-09T08:09:23Z</time>
      </trkpt>
      <trkpt lat="43.9738" lon="7.40679">
        <ele>1337.6</ele>
        <time>2024-07-09T08:09:24Z</time>
      </trkpt>
      <trkpt lat="43.97382" lon="7.40682">
        <ele>1337.8</ele>
        <time>2024-07-09T08:09:25Z</time>
      </trkpt>
      <trkpt lat="43.97384" lon="7.40683">
        <ele>1338</ele>
        <time>2024-07-09T08:09:26Z</time>
      </trkpt>
      <trkpt lat="43.97385" lon="7.40685">
        <ele>1338</ele>
        <time>2024-07-09T08:09:27Z</time>
      </trkpt>
      <trkpt lat="43.97387" lon="7.40687">
        <ele>1338</ele>
        <time>2024-07-09T08:09:28Z</time>
      </trkpt>
      <trkpt lat="43.97389" lon="7.40689">
        <ele>1338.4</ele>
        <time>2024-07-09T08:09:29Z</time>
      </trkpt>
      <trkpt lat="43.97391" lon="7.40691">
        <ele>1338.4</ele>
        <time>2024-07-09T08:09:30Z</time>
      </trkpt>
      <trkpt lat="43.97392" lon="7.40693">
        <ele>1338.8</ele>
        <time>2024-07-09T08:09:31Z</time>
      </trkpt>
      <trkpt lat="43.97394" lon="7.40695">
        <ele>1338.8</ele>
        <time>2024-07-09T08:09:32Z</time>
      </trkpt>
      <trkpt lat="43.97395" lon="7.40697">
        <ele>1338.8</ele>
        <time>2024-07-09T08:09:33Z</time>
      </trkpt>
      <trkpt lat="43.97396" lon="7.407">
        <ele>1339</ele>
        <time>2024-07-09T08:09:34Z</time>
      </trkpt>
      <trkpt lat="43.97398" lon="7.40702">
        <ele>1339.2</ele>
        <time>2024-07-09T08:09:35Z</time>
      </trkpt>
      <trkpt lat="43.97399" lon="7.40704">
        <ele>1339.2</ele>
        <time>2024-07-09T08:09:36Z</time>
      </trkpt>
      <trkpt lat="43.974" lon="7.40707">
        <ele>1339.2</ele>
        <time>2024-07-09T08:09:37Z</time>
      </trkpt>
      <trkpt lat="43.97401" lon="7.40709">
        <ele>1339.6</ele>
        <time>2024-07-09T08:09:38Z</time>
      </trkpt>
      <trkpt lat="43.97403" lon="7.40711">
        <ele>1339.6</ele>
        <time>2024-07-09T08:09:39Z</time>
      </trkpt>
      <trkpt lat="43.97404" lon="7.40713">
        <ele>1339.8</ele>
        <time>2024-07-09T08:09:40Z</time>
      </trkpt>
      <trkpt lat="43.97405" lon="7.40715">
        <ele>1339.8</ele>
        <time>2024-07-09T08:09:41Z</time>
      </trkpt>
      <trkpt lat="43.97406" lon="7.40718">
        <ele>1339.8</ele>
        <time>2024-07-09T08:09:42Z</time>
      </trkpt>
      <trkpt lat="43.97407" lon="7.40719">
        <ele>1340.4</ele>
        <time>2024-07-09T08:09:43Z</time>
      </trkpt>
      <trkpt lat="43.97408" lon="7.40721">
        <ele>1340.4</ele>
        <time>2024-07-09T08:09:44Z</time>
      </trkpt>
      <trkpt lat="43.97409" lon="7.40724">
        <ele>1340.4</ele>
        <time>2024-07-09T08:09:45Z</time>
      </trkpt>
      <trkpt lat="43.9741" lon="7.40725">
        <ele>1340.4</ele>
        <time>2024-07-09T08:09:46Z</time>
      </trkpt>
      <trkpt lat="43.97411" lon="7.40727">
        <ele>1340.8</ele>
        <time>2024-07-09T08:09:47Z</time>
      </trkpt>
      <trkpt lat="43.97413" lon="7.40729">
        <ele>1340.8</ele>
        <time>2024-07-09T08:09:48Z</time>
      </trkpt>
      <trkpt lat="43.97413" lon="7.40732">
        <ele>1341</ele>
        <time>2024-07-09T08:09:49Z</time>
      </trkpt>
      <trkpt lat="43.97414" lon="7.40734">
        <ele>1341</ele>
        <time>2024-07-09T08:09:50Z</time>
      </trkpt>
      <trkpt lat="43.97415" lon="7.40736">
        <ele>1341</ele>
        <time>2024-07-09T08:09:51Z</time>
      </trkpt>
      <trkpt lat="43.97416" lon="7.40738">
        <ele>1341.6</ele>
        <time>2024-07-09T08:09:52Z</time>
      </trkpt>
      <trkpt lat="43.97417" lon="7.4074">
        <ele>1341.6</ele>
        <time>2024-07-09T08:09:53Z</time>
      </trkpt>
      <trkpt lat="43.97418" lon="7.40741">
        <ele>1341.6</ele>
        <time>2024-07-09T08:09:54Z</time>
      </trkpt>
      <trkpt lat="43.97419" lon="7.40743">
        <ele>1341.6</ele>
        <time>2024-07-09T08:09:55Z</time>
      </trkpt>
      <trkpt lat="43.97419" lon="7.40745">
        <ele>1342</ele>
        <time>2024-07-09T08:09:56Z</time>
      </trkpt>
      <trkpt lat="43.9742" lon="7.40747">
        <ele>1342</ele>
        <time>2024-07-09T08:09:57Z</time>
      </trkpt>
      <trkpt lat="43.97422" lon="7.40748">
        <ele>1342</ele>
        <time>2024-07-09T08:09:58Z</time>
      </trkpt>
      <trkpt lat="43.97423" lon="7.4075">
        <ele>1342</ele>
        <time>2024-07-09T08:09:59Z</time>
      </trkpt>
      <trkpt lat="43.97424" lon="7.40752">
        <ele>1342</ele>
        <time>2024-07-09T08:10:00Z</time>
      </trkpt>
      <trkpt lat="43.97425" lon="7.40754">
        <ele>1342.8</ele>
        <time>2024-07-09T08:10:01Z</time>
      </trkpt>
      <trkpt lat="43.97425" lon="7.40756">
        <ele>1342.8</ele>
        <time>2024-07-09T08:10:02Z</time>
      </trkpt>
      <trkpt lat="43.97426" lon="7.40758">
        <ele>1342.8</ele>
        <time>2024-07-09T08:10:03Z</time>
      </trkpt>
      <trkpt lat="43.97427" lon="7.4076">
        <ele>1342.8</ele>
        <time>2024-07-09T08:10:04Z</time>
      </trkpt>
      <trkpt lat="43.97428" lon="7.40762">
        <ele>1342.8</ele>
        <time>2024-07-09T08:10:05Z</time>
      </trkpt>
      <trkpt lat="43.97429" lon="7.40764">
        <ele>1343.6</ele>
        <time>2024-07-09T08:10:06Z</time>
      </trkpt>
      <trkpt lat="43.9743" lon="7.40766">
        <ele>1343.6</ele>
        <time>2024-07-09T08:10:07Z</time>
      </trkpt>
      <trkpt lat="43.97431" lon="7.40768">
        <ele>1343.6</ele>
        <time>2024-07-09T08:10:08Z</time>
      </trkpt>
      <trkpt lat="43.97432" lon="7.4077">
        <ele>1343.6</ele>
        <time>2024-07-09T08:10:09Z</time>
      </trkpt>
      <trkpt lat="43.97432" lon="7.40771">
        <ele>1344.2</ele>
        <time>2024-07-09T08:10:10Z</time>
      </trkpt>
      <trkpt lat="43.97434" lon="7.40773">
        <ele>1344.4</ele>
        <time>2024-07-09T08:10:11Z</time>
      </trkpt>
      <trkpt lat="43.97435" lon="7.40774">
        <ele>1344.4</ele>
        <time>2024-07-09T08:10:12Z</time>
      </trkpt>
      <trkpt lat="43.97436" lon="7.40776">
        <ele>1344.4</ele>
        <time>2024-07-09T08:10:13Z</time>
      </trkpt>
      <trkpt lat="43.97437" lon="7.40777">
        <ele>1344.4</ele>
        <time>2024-07-09T08:10:14Z</time>
      </trkpt>
      <trkpt lat="43.97438" lon="7.40778">
        <ele>1344.6</ele>
        <time>2024-07-09T08:10:15Z</time>
      </trkpt>
      <trkpt lat="43.97439" lon="7.4078">
        <ele>1344.8</ele>
        <time>2024-07-09T08:10:16Z</time>
      </trkpt>
      <trkpt lat="43.9744" lon="7.40783">
        <ele>1344.8</ele>
        <time>2024-07-09T08:10:17Z</time>
      </trkpt>
      <trkpt lat="43.97441" lon="7.40784">
        <ele>1344.8</ele>
        <time>2024-07-09T08:10:18Z</time>
      </trkpt>
      <trkpt lat="43.97442" lon="7.40786">
        <ele>1345.2</ele>
        <time>2024-07-09T08:10:19Z</time>
      </trkpt>
      <trkpt lat="43.97443" lon="7.40788">
        <ele>1345.2</ele>
        <time>2024-07-09T08:10:20Z</time>
      </trkpt>
      <trkpt lat="43.97445" lon="7.40789">
        <ele>1345.2</ele>
        <time>2024-07-09T08:10:21Z</time>
      </trkpt>
      <trkpt lat="43.97446" lon="7.4079">
        <ele>1345.2</ele>
        <time>2024-07-09T08:10:22Z</time>
      </trkpt>
      <trkpt lat="43.97448" lon="7.40791">
        <ele>1345.6</ele>
        <time>2024-07-09T08:10:23Z</time>
      </trkpt>
      <trkpt lat="43.97449" lon="7.40792">
        <ele>1345.6</ele>
        <time>2024-07-09T08:10:24Z</time>
      </trkpt>
      <trkpt lat="43.9745" lon="7.40792">
        <ele>1345.8</ele>
        <time>2024-07-09T08:10:25Z</time>
      </trkpt>
      <trkpt lat="43.97452" lon="7.40792">
        <ele>1345.8</ele>
        <time>2024-07-09T08:10:26Z</time>
      </trkpt>
      <trkpt lat="43.97454" lon="7.40792">
        <ele>1345.8</ele>
        <time>2024-07-09T08:10:27Z</time>
      </trkpt>
      <trkpt lat="43.97455" lon="7.40793">
        <ele>1346.4</ele>
        <time>2024-07-09T08:10:28Z</time>
      </trkpt>
      <trkpt lat="43.97456" lon="7.40793">
        <ele>1346.6</ele>
        <time>2024-07-09T08:10:29Z</time>
      </trkpt>
      <trkpt lat="43.97458" lon="7.40793">
        <ele>1346.6</ele>
        <time>2024-07-09T08:10:30Z</time>
      </trkpt>
      <trkpt lat="43.97459" lon="7.40792">
        <ele>1346.6</ele>
        <time>2024-07-09T08:10:31Z</time>
      </trkpt>
      <trkpt lat="43.97461" lon="7.4079">
        <ele>1347</ele>
        <time>2024-07-09T08:10:32Z</time>
      </trkpt>
      <trkpt lat="43.97462" lon="7.40789">
        <ele>1347.2</ele>
        <time>2024-07-09T08:10:33Z</time>
      </trkpt>
      <trkpt lat="43.97463" lon="7.40788">
        <ele>1347.2</ele>
        <time>2024-07-09T08:10:34Z</time>
      </trkpt>
      <trkpt lat="43.97464" lon="7.40787">
        <ele>1347.2</ele>
        <time>2024-07-09T08:10:35Z</time>
      </trkpt>
      <trkpt lat="43.97465" lon="7.40785">
        <ele>1347.2</ele>
        <time>2024-07-09T08:10:36Z</time>
      </trkpt>
      <trkpt lat="43.97466" lon="7.40783">
        <ele>1347.2</ele>
        <time>2024-07-09T08:10:37Z</time>
      </trkpt>
      <trkpt lat="43.97467" lon="7.40781">
        <ele>1348</ele>
        <time>2024-07-09T08:10:38Z</time>
      </trkpt>
      <trkpt lat="43.97468" lon="7.4078">
        <ele>1348</ele>
        <time>2024-07-09T08:10:39Z</time>
      </trkpt>
      <trkpt lat="43.97469" lon="7.40777">
        <ele>1348</ele>
        <time>2024-07-09T08:10:40Z</time>
      </trkpt>
      <trkpt lat="43.9747" lon="7.40776">
        <ele>1348.4</ele>
        <time>2024-07-09T08:10:41Z</time>
      </trkpt>
      <trkpt lat="43.97471" lon="7.40774">
        <ele>1348.8</ele>
        <time>2024-07-09T08:10:42Z</time>
      </trkpt>
      <trkpt lat="43.97472" lon="7.40772">
        <ele>1348.8</ele>
        <time>2024-07-09T08:10:43Z</time>
      </trkpt>
      <trkpt lat="43.97473" lon="7.4077">
        <ele>1348.8</ele>
        <time>2024-07-09T08:10:44Z</time>
      </trkpt>
      <trkpt lat="43.97474" lon="7.40768">
        <ele>1349.2</ele>
        <time>2024-07-09T08:10:45Z</time>
      </trkpt>
      <trkpt lat="43.97475" lon="7.40766">
        <ele>1349.2</ele>
        <time>2024-07-09T08:10:46Z</time>
      </trkpt>
      <trkpt lat="43.97475" lon="7.40764">
        <ele>1349.2</ele>
        <time>2024-07-09T08:10:47Z</time>
      </trkpt>
      <trkpt lat="43.97476" lon="7.40762">
        <ele>1349.2</ele>
        <time>2024-07-09T08:10:48Z</time>
      </trkpt>
      <trkpt lat="43.97477" lon="7.40759">
        <ele>1349.2</ele>
        <time>2024-07-09T08:10:49Z</time>
      </trkpt>
      <trkpt lat="43.97478" lon="7.40757">
        <ele>1349.2</ele>
        <time>2024-07-09T08:10:50Z</time>
      </trkpt>
      <trkpt lat="43.97478" lon="7.40756">
        <ele>1349.8</ele>
        <time>2024-07-09T08:10:51Z</time>
      </trkpt>
      <trkpt lat="43.97479" lon="7.40754">
        <ele>1349.8</ele>
        <time>2024-07-09T08:10:52Z</time>
      </trkpt>
      <trkpt lat="43.97481" lon="7.40752">
        <ele>1349.8</ele>
        <time>2024-07-09T08:10:53Z</time>
      </trkpt>
      <trkpt lat="43.97482" lon="7.4075">
        <ele>1349.8</ele>
        <time>2024-07-09T08:10:54Z</time>
      </trkpt>
      <trkpt lat="43.97483" lon="7.40748">
        <ele>1350.2</ele>
        <time>2024-07-09T08:10:55Z</time>
      </trkpt>
      <trkpt lat="43.97483" lon="7.40745">
        <ele>1350.4</ele>
        <time>2024-07-09T08:10:56Z</time>
      </trkpt>
      <trkpt lat="43.97484" lon="7.40742">
        <ele>1350.4</ele>
        <time>2024-07-09T08:10:57Z</time>
      </trkpt>
      <trkpt lat="43.97484" lon="7.40739">
        <ele>1350.4</ele>
        <time>2024-07-09T08:10:58Z</time>
      </trkpt>
      <trkpt lat="43.97485" lon="7.40737">
        <ele>1350.4</ele>
        <time>2024-07-09T08:10:59Z</time>
      </trkpt>
      <trkpt lat="43.97486" lon="7.40735">
        <ele>1350.8</ele>
        <time>2024-07-09T08:11:00Z</time>
      </trkpt>
      <trkpt lat="43.97486" lon="7.40733">
        <ele>1351</ele>
        <time>2024-07-09T08:11:01Z</time>
      </trkpt>
      <trkpt lat="43.97487" lon="7.40731">
        <ele>1351</ele>
        <time>2024-07-09T08:11:02Z</time>
      </trkpt>
      <trkpt lat="43.97488" lon="7.40729">
        <ele>1351</ele>
        <time>2024-07-09T08:11:03Z</time>
      </trkpt>
      <trkpt lat="43.97489" lon="7.40727">
        <ele>1351.4</ele>
        <time>2024-07-09T08:11:04Z</time>
      </trkpt>
      <trkpt lat="43.9749" lon="7.40724">
        <ele>1351.4</ele>
        <time>2024-07-09T08:11:05Z</time>
      </trkpt>
      <trkpt lat="43.97491" lon="7.40722">
        <ele>1351.4</ele>
        <time>2024-07-09T08:11:06Z</time>
      </trkpt>
      <trkpt lat="43.97492" lon="7.4072">
        <ele>1351.4</ele>
        <time>2024-07-09T08:11:07Z</time>
      </trkpt>
      <trkpt lat="43.97492" lon="7.40717">
        <ele>1352</ele>
        <time>2024-07-09T08:11:08Z</time>
      </trkpt>
      <trkpt lat="43.97493" lon="7.40715">
        <ele>1352</ele>
        <time>2024-07-09T08:11:09Z</time>
      </trkpt>
      <trkpt lat="43.97495" lon="7.40713">
        <ele>1352</ele>
        <time>2024-07-09T08:11:10Z</time>
      </trkpt>
      <trkpt lat="43.97496" lon="7.40711">
        <ele>1352</ele>
        <time>2024-07-09T08:11:11Z</time>
      </trkpt>
      <trkpt lat="43.97497" lon="7.40709">
        <ele>1352</ele>
        <time>2024-07-09T08:11:12Z</time>
      </trkpt>
      <trkpt lat="43.97498" lon="7.40707">
        <ele>1352.6</ele>
        <time>2024-07-09T08:11:13Z</time>
      </trkpt>
      <trkpt lat="43.97499" lon="7.40704">
        <ele>1352.6</ele>
        <time>2024-07-09T08:11:14Z</time>
      </trkpt>
      <trkpt lat="43.975" lon="7.40702">
        <ele>1352.6</ele>
        <time>2024-07-09T08:11:15Z</time>
      </trkpt>
      <trkpt lat="43.975" lon="7.407">
        <ele>1352.6</ele>
        <time>2024-07-09T08:11:16Z</time>
      </trkpt>
      <trkpt lat="43.97501" lon="7.40698">
        <ele>1353</ele>
        <time>2024-07-09T08:11:17Z</time>
      </trkpt>
      <trkpt lat="43.97502" lon="7.40695">
        <ele>1353.2</ele>
        <time>2024-07-09T08:11:18Z</time>
      </trkpt>
      <trkpt lat="43.97502" lon="7.40693">
        <ele>1353.2</ele>
        <time>2024-07-09T08:11:19Z</time>
      </trkpt>
      <trkpt lat="43.97503" lon="7.4069">
        <ele>1353.2</ele>
        <time>2024-07-09T08:11:20Z</time>
      </trkpt>
      <trkpt lat="43.97503" lon="7.40688">
        <ele>1353.6</ele>
        <time>2024-07-09T08:11:21Z</time>
      </trkpt>
      <trkpt lat="43.97504" lon="7.40686">
        <ele>1353.6</ele>
        <time>2024-07-09T08:11:22Z</time>
      </trkpt>
      <trkpt lat="43.97505" lon="7.40684">
        <ele>1353.6</ele>
        <time>2024-07-09T08:11:23Z</time>
      </trkpt>
      <trkpt lat="43.97505" lon="7.40681">
        <ele>1353.6</ele>
        <time>2024-07-09T08:11:24Z</time>
      </trkpt>
      <trkpt lat="43.97506" lon="7.40679">
        <ele>1353.6</ele>
        <time>2024-07-09T08:11:25Z</time>
      </trkpt>
      <trkpt lat="43.97506" lon="7.40677">
        <ele>1354.2</ele>
        <time>2024-07-09T08:11:26Z</time>
      </trkpt>
      <trkpt lat="43.97506" lon="7.40674">
        <ele>1354.4</ele>
        <time>2024-07-09T08:11:27Z</time>
      </trkpt>
      <trkpt lat="43.97507" lon="7.40671">
        <ele>1354.4</ele>
        <time>2024-07-09T08:11:28Z</time>
      </trkpt>
      <trkpt lat="43.97507" lon="7.40669">
        <ele>1354.4</ele>
        <time>2024-07-09T08:11:29Z</time>
      </trkpt>
      <trkpt lat="43.97508" lon="7.40667">
        <ele>1354.4</ele>
        <time>2024-07-09T08:11:30Z</time>
      </trkpt>
      <trkpt lat="43.97508" lon="7.40665">
        <ele>1354.8</ele>
        <time>2024-07-09T08:11:31Z</time>
      </trkpt>
      <trkpt lat="43.97509" lon="7.40662">
        <ele>1355</ele>
        <time>2024-07-09T08:11:32Z</time>
      </trkpt>
      <trkpt lat="43.9751" lon="7.4066">
        <ele>1355</ele>
        <time>2024-07-09T08:11:33Z</time>
      </trkpt>
      <trkpt lat="43.9751" lon="7.40657">
        <ele>1355</ele>
        <time>2024-07-09T08:11:34Z</time>
      </trkpt>
      <trkpt lat="43.9751" lon="7.40655">
        <ele>1355</ele>
        <time>2024-07-09T08:11:35Z</time>
      </trkpt>
      <trkpt lat="43.9751" lon="7.40652">
        <ele>1355.4</ele>
        <time>2024-07-09T08:11:36Z</time>
      </trkpt>
      <trkpt lat="43.9751" lon="7.4065">
        <ele>1355.6</ele>
        <time>2024-07-09T08:11:37Z</time>
      </trkpt>
      <trkpt lat="43.9751" lon="7.40648">
        <ele>1355.6</ele>
        <time>2024-07-09T08:11:38Z</time>
      </trkpt>
      <trkpt lat="43.9751" lon="7.40646">
        <ele>1355.6</ele>
        <time>2024-07-09T08:11:39Z</time>
      </trkpt>
      <trkpt lat="43.9751" lon="7.40644">
        <ele>1356</ele>
        <time>2024-07-09T08:11:40Z</time>
      </trkpt>
      <trkpt lat="43.9751" lon="7.40641">
        <ele>1356.2</ele>
        <time>2024-07-09T08:11:41Z</time>
      </trkpt>
      <trkpt lat="43.9751" lon="7.40639">
        <ele>1356.2</ele>
        <time>2024-07-09T08:11:42Z</time>
      </trkpt>
      <trkpt lat="43.9751" lon="7.40636">
        <ele>1356.2</ele>
        <time>2024-07-09T08:11:43Z</time>
      </trkpt>
      <trkpt lat="43.9751" lon="7.40634">
        <ele>1356.6</ele>
        <time>2024-07-09T08:11:44Z</time>
      </trkpt>
      <trkpt lat="43.97511" lon="7.40632">
        <ele>1356.6</ele>
        <time>2024-07-09T08:11:45Z</time>
      </trkpt>
      <trkpt lat="43.9751" lon="7.40631">
        <ele>1356.8</ele>
        <time>2024-07-09T08:11:46Z</time>
      </trkpt>
      <trkpt lat="43.9751" lon="7.40628">
        <ele>1356.8</ele>
        <time>2024-07-09T08:11:47Z</time>
      </trkpt>
      <trkpt lat="43.9751" lon="7.40626">
        <ele>1356.8</ele>
        <time>2024-07-09T08:11:48Z</time>
      </trkpt>
      <trkpt lat="43.9751" lon="7.40624">
        <ele>1357.2</ele>
        <time>2024-07-09T08:11:49Z</time>
      </trkpt>
      <trkpt lat="43.9751" lon="7.40621">
        <ele>1357.2</ele>
        <time>2024-07-09T08:11:50Z</time>
      </trkpt>
      <trkpt lat="43.9751" lon="7.40619">
        <ele>1357.2</ele>
        <time>2024-07-09T08:11:51Z</time>
      </trkpt>
      <trkpt lat="43.9751" lon="7.40617">
        <ele>1357.2</ele>
        <time>2024-07-09T08:11:52Z</time>
      </trkpt>
      <trkpt lat="43.97511" lon="7.40615">
        <ele>1357.8</ele>
        <time>2024-07-09T08:11:53Z</time>
      </trkpt>
      <trkpt lat="43.97511" lon="7.40612">
        <ele>1358</ele>
        <time>2024-07-09T08:11:54Z</time>
      </trkpt>
      <trkpt lat="43.97511" lon="7.4061">
        <ele>1358</ele>
        <time>2024-07-09T08:11:55Z</time>
      </trkpt>
      <trkpt lat="43.97512" lon="7.40607">
        <ele>1358</ele>
        <time>2024-07-09T08:11:56Z</time>
      </trkpt>
      <trkpt lat="43.97512" lon="7.40605">
        <ele>1358</ele>
        <time>2024-07-09T08:11:57Z</time>
      </trkpt>
      <trkpt lat="43.97512" lon="7.40603">
        <ele>1358.6</ele>
        <time>2024-07-09T08:11:58Z</time>
      </trkpt>
      <trkpt lat="43.97512" lon="7.40601">
        <ele>1358.8</ele>
        <time>2024-07-09T08:11:59Z</time>
      </trkpt>
      <trkpt lat="43.97513" lon="7.40598">
        <ele>1358.8</ele>
        <time>2024-07-09T08:12:00Z</time>
      </trkpt>
      <trkpt lat="43.97512" lon="7.40597">
        <ele>1358.8</ele>
        <time>2024-07-09T08:12:01Z</time>
      </trkpt>
      <trkpt lat="43.97513" lon="7.40594">
        <ele>1359</ele>
        <time>2024-07-09T08:12:02Z</time>
      </trkpt>
      <trkpt lat="43.97513" lon="7.40592">
        <ele>1359.2</ele>
        <time>2024-07-09T08:12:03Z</time>
      </trkpt>
      <trkpt lat="43.97513" lon="7.40589">
        <ele>1359.2</ele>
        <time>2024-07-09T08:12:04Z</time>
      </trkpt>
      <trkpt lat="43.97514" lon="7.40587">
        <ele>1359.2</ele>
        <time>2024-07-09T08:12:05Z</time>
      </trkpt>
      <trkpt lat="43.97514" lon="7.40584">
        <ele>1359.8</ele>
        <time>2024-07-09T08:12:06Z</time>
      </trkpt>
      <trkpt lat="43.97515" lon="7.40582">
        <ele>1359.8</ele>
        <time>2024-07-09T08:12:07Z</time>
      </trkpt>
      <trkpt lat="43.97515" lon="7.4058">
        <ele>1359.8</ele>
        <time>2024-07-09T08:12:08Z</time>
      </trkpt>
      <trkpt lat="43.97515" lon="7.40578">
        <ele>1359.8</ele>
        <time>2024-07-09T08:12:09Z</time>
      </trkpt>
      <trkpt lat="43.97516" lon="7.40576">
        <ele>1359.8</ele>
        <time>2024-07-09T08:12:10Z</time>
      </trkpt>
      <trkpt lat="43.97516" lon="7.40573">
        <ele>1359.8</ele>
        <time>2024-07-09T08:12:11Z</time>
      </trkpt>
      <trkpt lat="43.97516" lon="7.40571">
        <ele>1360.2</ele>
        <time>2024-07-09T08:12:12Z</time>
      </trkpt>
      <trkpt lat="43.97517" lon="7.40568">
        <ele>1360.4</ele>
        <time>2024-07-09T08:12:13Z</time>
      </trkpt>
      <trkpt lat="43.97518" lon="7.40566">
        <ele>1360.4</ele>
        <time>2024-07-09T08:12:14Z</time>
      </trkpt>
      <trkpt lat="43.97518" lon="7.40563">
        <ele>1360.4</ele>
        <time>2024-07-09T08:12:15Z</time>
      </trkpt>
      <trkpt lat="43.97518" lon="7.40561">
        <ele>1360.4</ele>
        <time>2024-07-09T08:12:16Z</time>
      </trkpt>
      <trkpt lat="43.97519" lon="7.40559">
        <ele>1361</ele>
        <time>2024-07-09T08:12:17Z</time>
      </trkpt>
      <trkpt lat="43.9752" lon="7.40557">
        <ele>1361</ele>
        <time>2024-07-09T08:12:18Z</time>
      </trkpt>
      <trkpt lat="43.97521" lon="7.40555">
        <ele>1361</ele>
        <time>2024-07-09T08:12:19Z</time>
      </trkpt>
      <trkpt lat="43.97522" lon="7.40552">
        <ele>1361</ele>
        <time>2024-07-09T08:12:20Z</time>
      </trkpt>
      <trkpt lat="43.97523" lon="7.4055">
        <ele>1361.2</ele>
        <time>2024-07-09T08:12:21Z</time>
      </trkpt>
      <trkpt lat="43.97524" lon="7.40548">
        <ele>1361.2</ele>
        <time>2024-07-09T08:12:22Z</time>
      </trkpt>
      <trkpt lat="43.97525" lon="7.40546">
        <ele>1361.2</ele>
        <time>2024-07-09T08:12:23Z</time>
      </trkpt>
      <trkpt lat="43.97526" lon="7.40544">
        <ele>1361.8</ele>
        <time>2024-07-09T08:12:24Z</time>
      </trkpt>
      <trkpt lat="43.97526" lon="7.40542">
        <ele>1361.8</ele>
        <time>2024-07-09T08:12:25Z</time>
      </trkpt>
      <trkpt lat="43.97527" lon="7.4054">
        <ele>1362</ele>
        <time>2024-07-09T08:12:26Z</time>
      </trkpt>
      <trkpt lat="43.97527" lon="7.40538">
        <ele>1362</ele>
        <time>2024-07-09T08:12:27Z</time>
      </trkpt>
      <trkpt lat="43.97528" lon="7.40536">
        <ele>1362</ele>
        <time>2024-07-09T08:12:28Z</time>
      </trkpt>
      <trkpt lat="43.97528" lon="7.40534">
        <ele>1362</ele>
        <time>2024-07-09T08:12:29Z</time>
      </trkpt>
      <trkpt lat="43.9753" lon="7.40532">
        <ele>1362</ele>
        <time>2024-07-09T08:12:30Z</time>
      </trkpt>
      <trkpt lat="43.97532" lon="7.40531">
        <ele>1362</ele>
        <time>2024-07-09T08:12:31Z</time>
      </trkpt>
      <trkpt lat="43.97533" lon="7.40529">
        <ele>1362</ele>
        <time>2024-07-09T08:12:32Z</time>
      </trkpt>
      <trkpt lat="43.97534" lon="7.40527">
        <ele>1362.6</ele>
        <time>2024-07-09T08:12:33Z</time>
      </trkpt>
      <trkpt lat="43.97535" lon="7.40525">
        <ele>1362.6</ele>
        <time>2024-07-09T08:12:34Z</time>
      </trkpt>
      <trkpt lat="43.97536" lon="7.40523">
        <ele>1362.6</ele>
        <time>2024-07-09T08:12:35Z</time>
      </trkpt>
      <trkpt lat="43.97537" lon="7.40521">
        <ele>1362.6</ele>
        <time>2024-07-09T08:12:36Z</time>
      </trkpt>
      <trkpt lat="43.97538" lon="7.4052">
        <ele>1362.6</ele>
        <time>2024-07-09T08:12:37Z</time>
      </trkpt>
      <trkpt lat="43.97539" lon="7.40518">
        <ele>1363</ele>
        <time>2024-07-09T08:12:38Z</time>
      </trkpt>
      <trkpt lat="43.97541" lon="7.40517">
        <ele>1363</ele>
        <time>2024-07-09T08:12:39Z</time>
      </trkpt>
      <trkpt lat="43.97542" lon="7.40515">
        <ele>1363</ele>
        <time>2024-07-09T08:12:40Z</time>
      </trkpt>
      <trkpt lat="43.97543" lon="7.40513">
        <ele>1363</ele>
        <time>2024-07-09T08:12:41Z</time>
      </trkpt>
      <trkpt lat="43.97544" lon="7.40511">
        <ele>1363.6</ele>
        <time>2024-07-09T08:12:42Z</time>
      </trkpt>
      <trkpt lat="43.97546" lon="7.40509">
        <ele>1363.6</ele>
        <time>2024-07-09T08:12:43Z</time>
      </trkpt>
      <trkpt lat="43.97547" lon="7.40507">
        <ele>1363.6</ele>
        <time>2024-07-09T08:12:44Z</time>
      </trkpt>
      <trkpt lat="43.97548" lon="7.40505">
        <ele>1363.6</ele>
        <time>2024-07-09T08:12:45Z</time>
      </trkpt>
      <trkpt lat="43.9755" lon="7.40504">
        <ele>1364.2</ele>
        <time>2024-07-09T08:12:46Z</time>
      </trkpt>
      <trkpt lat="43.97551" lon="7.40502">
        <ele>1364.2</ele>
        <time>2024-07-09T08:12:47Z</time>
      </trkpt>
      <trkpt lat="43.97552" lon="7.405">
        <ele>1364.2</ele>
        <time>2024-07-09T08:12:48Z</time>
      </trkpt>
      <trkpt lat="43.97552" lon="7.40498">
        <ele>1364.2</ele>
        <time>2024-07-09T08:12:49Z</time>
      </trkpt>
      <trkpt lat="43.97553" lon="7.40496">
        <ele>1364.2</ele>
        <time>2024-07-09T08:12:50Z</time>
      </trkpt>
      <trkpt lat="43.97554" lon="7.40493">
        <ele>1364.8</ele>
        <time>2024-07-09T08:12:51Z</time>
      </trkpt>
      <trkpt lat="43.97555" lon="7.40491">
        <ele>1365</ele>
        <time>2024-07-09T08:12:52Z</time>
      </trkpt>
      <trkpt lat="43.97556" lon="7.40489">
        <ele>1365</ele>
        <time>2024-07-09T08:12:53Z</time>
      </trkpt>
      <trkpt lat="43.97556" lon="7.40487">
        <ele>1365</ele>
        <time>2024-07-09T08:12:54Z</time>
      </trkpt>
      <trkpt lat="43.97557" lon="7.40485">
        <ele>1365</ele>
        <time>2024-07-09T08:12:55Z</time>
      </trkpt>
      <trkpt lat="43.97557" lon="7.40483">
        <ele>1365.4</ele>
        <time>2024-07-09T08:12:56Z</time>
      </trkpt>
      <trkpt lat="43.97558" lon="7.40481">
        <ele>1365.6</ele>
        <time>2024-07-09T08:12:57Z</time>
      </trkpt>
      <trkpt lat="43.97558" lon="7.40479">
        <ele>1365.6</ele>
        <time>2024-07-09T08:12:58Z</time>
      </trkpt>
      <trkpt lat="43.97558" lon="7.40476">
        <ele>1365.6</ele>
        <time>2024-07-09T08:12:59Z</time>
      </trkpt>
      <trkpt lat="43.97559" lon="7.40474">
        <ele>1365.6</ele>
        <time>2024-07-09T08:13:00Z</time>
      </trkpt>
      <trkpt lat="43.97559" lon="7.40472">
        <ele>1366</ele>
        <time>2024-07-09T08:13:01Z</time>
      </trkpt>
      <trkpt lat="43.9756" lon="7.4047">
        <ele>1366.2</ele>
        <time>2024-07-09T08:13:02Z</time>
      </trkpt>
      <trkpt lat="43.97561" lon="7.40468">
        <ele>1366.2</ele>
        <time>2024-07-09T08:13:03Z</time>
      </trkpt>
      <trkpt lat="43.97561" lon="7.40466">
        <ele>1366.2</ele>
        <time>2024-07-09T08:13:04Z</time>
      </trkpt>
      <trkpt lat="43.97562" lon="7.40465">
        <ele>1366.2</ele>
        <time>2024-07-09T08:13:05Z</time>
      </trkpt>
      <trkpt lat="43.97563" lon="7.40463">
        <ele>1366.4</ele>
        <time>2024-07-09T08:13:06Z</time>
      </trkpt>
      <trkpt lat="43.97564" lon="7.40461">
        <ele>1366.4</ele>
        <time>2024-07-09T08:13:07Z</time>
      </trkpt>
      <trkpt lat="43.97565" lon="7.40459">
        <ele>1366.4</ele>
        <time>2024-07-09T08:13:08Z</time>
      </trkpt>
      <trkpt lat="43.97564" lon="7.40456">
        <ele>1366.8</ele>
        <time>2024-07-09T08:13:09Z</time>
      </trkpt>
      <trkpt lat="43.97564" lon="7.40453">
        <ele>1367.2</ele>
        <time>2024-07-09T08:13:10Z</time>
      </trkpt>
      <trkpt lat="43.97564" lon="7.40451">
        <ele>1367.2</ele>
        <time>2024-07-09T08:13:11Z</time>
      </trkpt>
      <trkpt lat="43.97564" lon="7.40449">
        <ele>1367.2</ele>
        <time>2024-07-09T08:13:12Z</time>
      </trkpt>
      <trkpt lat="43.97564" lon="7.40446">
        <ele>1367.2</ele>
        <time>2024-07-09T08:13:13Z</time>
      </trkpt>
      <trkpt lat="43.97565" lon="7.40444">
        <ele>1367.8</ele>
        <time>2024-07-09T08:13:14Z</time>
      </trkpt>
      <trkpt lat="43.97566" lon="7.40442">
        <ele>1367.8</ele>
        <time>2024-07-09T08:13:15Z</time>
      </trkpt>
      <trkpt lat="43.97566" lon="7.4044">
        <ele>1367.8</ele>
        <time>2024-07-09T08:13:16Z</time>
      </trkpt>
      <trkpt lat="43.97567" lon="7.40439">
        <ele>1367.8</ele>
        <time>2024-07-09T08:13:17Z</time>
      </trkpt>
      <trkpt lat="43.97568" lon="7.40437">
        <ele>1368.4</ele>
        <time>2024-07-09T08:13:18Z</time>
      </trkpt>
      <trkpt lat="43.97569" lon="7.40435">
        <ele>1368.4</ele>
        <time>2024-07-09T08:13:19Z</time>
      </trkpt>
      <trkpt lat="43.9757" lon="7.40433">
        <ele>1368.4</ele>
        <time>2024-07-09T08:13:20Z</time>
      </trkpt>
      <trkpt lat="43.9757" lon="7.40431">
        <ele>1368.4</ele>
        <time>2024-07-09T08:13:21Z</time>
      </trkpt>
      <trkpt lat="43.97571" lon="7.40429">
        <ele>1368.8</ele>
        <time>2024-07-09T08:13:22Z</time>
      </trkpt>
      <trkpt lat="43.97573" lon="7.40428">
        <ele>1369.2</ele>
        <time>2024-07-09T08:13:23Z</time>
      </trkpt>
      <trkpt lat="43.97574" lon="7.40427">
        <ele>1369.2</ele>
        <time>2024-07-09T08:13:24Z</time>
      </trkpt>
      <trkpt lat="43.97576" lon="7.40425">
        <ele>1369.2</ele>
        <time>2024-07-09T08:13:25Z</time>
      </trkpt>
      <trkpt lat="43.97577" lon="7.40423">
        <ele>1369.4</ele>
        <time>2024-07-09T08:13:26Z</time>
      </trkpt>
      <trkpt lat="43.97579" lon="7.40422">
        <ele>1369.4</ele>
        <time>2024-07-09T08:13:27Z</time>
      </trkpt>
      <trkpt lat="43.9758" lon="7.4042">
        <ele>1369.6</ele>
        <time>2024-07-09T08:13:28Z</time>
      </trkpt>
      <trkpt lat="43.97582" lon="7.40419">
        <ele>1369.6</ele>
        <time>2024-07-09T08:13:29Z</time>
      </trkpt>
      <trkpt lat="43.97583" lon="7.40417">
        <ele>1369.6</ele>
        <time>2024-07-09T08:13:30Z</time>
      </trkpt>
      <trkpt lat="43.97584" lon="7.40415">
        <ele>1370.2</ele>
        <time>2024-07-09T08:13:31Z</time>
      </trkpt>
      <trkpt lat="43.97586" lon="7.40413">
        <ele>1370.4</ele>
        <time>2024-07-09T08:13:32Z</time>
      </trkpt>
      <trkpt lat="43.97587" lon="7.40412">
        <ele>1370.4</ele>
        <time>2024-07-09T08:13:33Z</time>
      </trkpt>
      <trkpt lat="43.97588" lon="7.4041">
        <ele>1370.4</ele>
        <time>2024-07-09T08:13:34Z</time>
      </trkpt>
      <trkpt lat="43.97589" lon="7.40407">
        <ele>1370.8</ele>
        <time>2024-07-09T08:13:35Z</time>
      </trkpt>
      <trkpt lat="43.97589" lon="7.40405">
        <ele>1370.8</ele>
        <time>2024-07-09T08:13:36Z</time>
      </trkpt>
      <trkpt lat="43.9759" lon="7.40403">
        <ele>1370.8</ele>
        <time>2024-07-09T08:13:37Z</time>
      </trkpt>
      <trkpt lat="43.97592" lon="7.40401">
        <ele>1370.8</ele>
        <time>2024-07-09T08:13:38Z</time>
      </trkpt>
      <trkpt lat="43.97592" lon="7.40399">
        <ele>1370.8</ele>
        <time>2024-07-09T08:13:39Z</time>
      </trkpt>
      <trkpt lat="43.97593" lon="7.40397">
        <ele>1370.8</ele>
        <time>2024-07-09T08:13:40Z</time>
      </trkpt>
      <trkpt lat="43.97594" lon="7.40395">
        <ele>1371.6</ele>
        <time>2024-07-09T08:13:41Z</time>
      </trkpt>
      <trkpt lat="43.97594" lon="7.40392">
        <ele>1371.8</ele>
        <time>2024-07-09T08:13:42Z</time>
      </trkpt>
      <trkpt lat="43.97594" lon="7.4039">
        <ele>1371.8</ele>
        <time>2024-07-09T08:13:43Z</time>
      </trkpt>
      <trkpt lat="43.97595" lon="7.40388">
        <ele>1371.8</ele>
        <time>2024-07-09T08:13:44Z</time>
      </trkpt>
      <trkpt lat="43.97596" lon="7.40386">
        <ele>1371.8</ele>
        <time>2024-07-09T08:13:45Z</time>
      </trkpt>
      <trkpt lat="43.97596" lon="7.40384">
        <ele>1372.2</ele>
        <time>2024-07-09T08:13:46Z</time>
      </trkpt>
      <trkpt lat="43.97597" lon="7.40382">
        <ele>1372.2</ele>
        <time>2024-07-09T08:13:47Z</time>
      </trkpt>
      <trkpt lat="43.97597" lon="7.40379">
        <ele>1372.2</ele>
        <time>2024-07-09T08:13:48Z</time>
      </trkpt>
      <trkpt lat="43.97598" lon="7.40377">
        <ele>1372.2</ele>
        <time>2024-07-09T08:13:49Z</time>
      </trkpt>
      <trkpt lat="43.97599" lon="7.40375">
        <ele>1372.6</ele>
        <time>2024-07-09T08:13:50Z</time>
      </trkpt>
      <trkpt lat="43.97599" lon="7.40372">
        <ele>1372.6</ele>
        <time>2024-07-09T08:13:51Z</time>
      </trkpt>
      <trkpt lat="43.976" lon="7.4037">
        <ele>1372.6</ele>
        <time>2024-07-09T08:13:52Z</time>
      </trkpt>
      <trkpt lat="43.976" lon="7.40367">
        <ele>1372.6</ele>
        <time>2024-07-09T08:13:53Z</time>
      </trkpt>
      <trkpt lat="43.97601" lon="7.40364">
        <ele>1373.4</ele>
        <time>2024-07-09T08:13:54Z</time>
      </trkpt>
      <trkpt lat="43.97602" lon="7.40362">
        <ele>1373.6</ele>
        <time>2024-07-09T08:13:55Z</time>
      </trkpt>
      <trkpt lat="43.97603" lon="7.40359">
        <ele>1373.6</ele>
        <time>2024-07-09T08:13:56Z</time>
      </trkpt>
      <trkpt lat="43.97603" lon="7.40356">
        <ele>1373.6</ele>
        <time>2024-07-09T08:13:57Z</time>
      </trkpt>
      <trkpt lat="43.97604" lon="7.40354">
        <ele>1374</ele>
        <time>2024-07-09T08:13:58Z</time>
      </trkpt>
      <trkpt lat="43.97605" lon="7.40351">
        <ele>1374.2</ele>
        <time>2024-07-09T08:13:59Z</time>
      </trkpt>
      <trkpt lat="43.97606" lon="7.40349">
        <ele>1374.2</ele>
        <time>2024-07-09T08:14:00Z</time>
      </trkpt>
      <trkpt lat="43.97607" lon="7.40346">
        <ele>1374.2</ele>
        <time>2024-07-09T08:14:01Z</time>
      </trkpt>
      <trkpt lat="43.97607" lon="7.40344">
        <ele>1374.2</ele>
        <time>2024-07-09T08:14:02Z</time>
      </trkpt>
      <trkpt lat="43.97608" lon="7.40341">
        <ele>1374.6</ele>
        <time>2024-07-09T08:14:03Z</time>
      </trkpt>
      <trkpt lat="43.97608" lon="7.40339">
        <ele>1374.6</ele>
        <time>2024-07-09T08:14:04Z</time>
      </trkpt>
      <trkpt lat="43.97608" lon="7.40337">
        <ele>1374.6</ele>
        <time>2024-07-09T08:14:05Z</time>
      </trkpt>
      <trkpt lat="43.97609" lon="7.40334">
        <ele>1374.6</ele>
        <time>2024-07-09T08:14:06Z</time>
      </trkpt>
      <trkpt lat="43.97609" lon="7.40332">
        <ele>1375.2</ele>
        <time>2024-07-09T08:14:07Z</time>
      </trkpt>
      <trkpt lat="43.97609" lon="7.40329">
        <ele>1375.2</ele>
        <time>2024-07-09T08:14:08Z</time>
      </trkpt>
      <trkpt lat="43.97608" lon="7.40327">
        <ele>1375.4</ele>
        <time>2024-07-09T08:14:09Z</time>
      </trkpt>
      <trkpt lat="43.97608" lon="7.40324">
        <ele>1375.4</ele>
        <time>2024-07-09T08:14:10Z</time>
      </trkpt>
      <trkpt lat="43.97609" lon="7.40322">
        <ele>1375.4</ele>
        <time>2024-07-09T08:14:11Z</time>
      </trkpt>
      <trkpt lat="43.97608" lon="7.40319">
        <ele>1375.8</ele>
        <time>2024-07-09T08:14:12Z</time>
      </trkpt>
      <trkpt lat="43.97608" lon="7.40317">
        <ele>1376</ele>
        <time>2024-07-09T08:14:13Z</time>
      </trkpt>
      <trkpt lat="43.97609" lon="7.40314">
        <ele>1376</ele>
        <time>2024-07-09T08:14:14Z</time>
      </trkpt>
      <trkpt lat="43.97609" lon="7.40312">
        <ele>1376</ele>
        <time>2024-07-09T08:14:15Z</time>
      </trkpt>
      <trkpt lat="43.97609" lon="7.4031">
        <ele>1376.6</ele>
        <time>2024-07-09T08:14:16Z</time>
      </trkpt>
      <trkpt lat="43.97608" lon="7.40308">
        <ele>1376.6</ele>
        <time>2024-07-09T08:14:17Z</time>
      </trkpt>
      <trkpt lat="43.97608" lon="7.40305">
        <ele>1376.6</ele>
        <time>2024-07-09T08:14:18Z</time>
      </trkpt>
      <trkpt lat="43.97608" lon="7.40303">
        <ele>1376.6</ele>
        <time>2024-07-09T08:14:19Z</time>
      </trkpt>
      <trkpt lat="43.97607" lon="7.40301">
        <ele>1376.6</ele>
        <time>2024-07-09T08:14:20Z</time>
      </trkpt>
      <trkpt lat="43.97607" lon="7.40298">
        <ele>1376.6</ele>
        <time>2024-07-09T08:14:21Z</time>
      </trkpt>
      <trkpt lat="43.97608" lon="7.40296">
        <ele>1377.2</ele>
        <time>2024-07-09T08:14:22Z</time>
      </trkpt>
      <trkpt lat="43.97607" lon="7.40293">
        <ele>1377.2</ele>
        <time>2024-07-09T08:14:23Z</time>
      </trkpt>
      <trkpt lat="43.97607" lon="7.40291">
        <ele>1377.2</ele>
        <time>2024-07-09T08:14:24Z</time>
      </trkpt>
      <trkpt lat="43.97607" lon="7.40289">
        <ele>1377.2</ele>
        <time>2024-07-09T08:14:25Z</time>
      </trkpt>
      <trkpt lat="43.97606" lon="7.40287">
        <ele>1378</ele>
        <time>2024-07-09T08:14:26Z</time>
      </trkpt>
      <trkpt lat="43.97606" lon="7.40284">
        <ele>1378</ele>
        <time>2024-07-09T08:14:27Z</time>
      </trkpt>
      <trkpt lat="43.97605" lon="7.40282">
        <ele>1378</ele>
        <time>2024-07-09T08:14:28Z</time>
      </trkpt>
      <trkpt lat="43.97604" lon="7.4028">
        <ele>1378</ele>
        <time>2024-07-09T08:14:29Z</time>
      </trkpt>
      <trkpt lat="43.97603" lon="7.40278">
        <ele>1378</ele>
        <time>2024-07-09T08:14:30Z</time>
      </trkpt>
      <trkpt lat="43.97602" lon="7.40275">
        <ele>1378.4</ele>
        <time>2024-07-09T08:14:31Z</time>
      </trkpt>
      <trkpt lat="43.97601" lon="7.40273">
        <ele>1378.8</ele>
        <time>2024-07-09T08:14:32Z</time>
      </trkpt>
      <trkpt lat="43.97599" lon="7.40271">
        <ele>1378.8</ele>
        <time>2024-07-09T08:14:33Z</time>
      </trkpt>
      <trkpt lat="43.97598" lon="7.40269">
        <ele>1378.8</ele>
        <time>2024-07-09T08:14:34Z</time>
      </trkpt>
      <trkpt lat="43.97597" lon="7.40266">
        <ele>1378.8</ele>
        <time>2024-07-09T08:14:35Z</time>
      </trkpt>
      <trkpt lat="43.97596" lon="7.40264">
        <ele>1378.8</ele>
        <time>2024-07-09T08:14:36Z</time>
      </trkpt>
      <trkpt lat="43.97594" lon="7.40263">
        <ele>1379.2</ele>
        <time>2024-07-09T08:14:37Z</time>
      </trkpt>
      <trkpt lat="43.97592" lon="7.40261">
        <ele>1379.2</ele>
        <time>2024-07-09T08:14:38Z</time>
      </trkpt>
      <trkpt lat="43.97591" lon="7.40258">
        <ele>1379.2</ele>
        <time>2024-07-09T08:14:39Z</time>
      </trkpt>
      <trkpt lat="43.9759" lon="7.40256">
        <ele>1379.8</ele>
        <time>2024-07-09T08:14:40Z</time>
      </trkpt>
      <trkpt lat="43.9759" lon="7.40254">
        <ele>1380</ele>
        <time>2024-07-09T08:14:41Z</time>
      </trkpt>
      <trkpt lat="43.97589" lon="7.40251">
        <ele>1380</ele>
        <time>2024-07-09T08:14:42Z</time>
      </trkpt>
      <trkpt lat="43.97588" lon="7.4025">
        <ele>1380</ele>
        <time>2024-07-09T08:14:43Z</time>
      </trkpt>
      <trkpt lat="43.97587" lon="7.40248">
        <ele>1380</ele>
        <time>2024-07-09T08:14:44Z</time>
      </trkpt>
      <trkpt lat="43.97586" lon="7.40246">
        <ele>1380.8</ele>
        <time>2024-07-09T08:14:45Z</time>
      </trkpt>
      <trkpt lat="43.97585" lon="7.40245">
        <ele>1380.8</ele>
        <time>2024-07-09T08:14:46Z</time>
      </trkpt>
      <trkpt lat="43.97584" lon="7.40243">
        <ele>1380.8</ele>
        <time>2024-07-09T08:14:47Z</time>
      </trkpt>
      <trkpt lat="43.97583" lon="7.40241">
        <ele>1380.8</ele>
        <time>2024-07-09T08:14:48Z</time>
      </trkpt>
      <trkpt lat="43.97582" lon="7.40239">
        <ele>1381.2</ele>
        <time>2024-07-09T08:14:49Z</time>
      </trkpt>
      <trkpt lat="43.97582" lon="7.40237">
        <ele>1381.4</ele>
        <time>2024-07-09T08:14:50Z</time>
      </trkpt>
      <trkpt lat="43.97581" lon="7.40234">
        <ele>1381.4</ele>
        <time>2024-07-09T08:14:51Z</time>
      </trkpt>
      <trkpt lat="43.97579" lon="7.40232">
        <ele>1381.4</ele>
        <time>2024-07-09T08:14:52Z</time>
      </trkpt>
      <trkpt lat="43.97578" lon="7.40231">
        <ele>1381.8</ele>
        <time>2024-07-09T08:14:53Z</time>
      </trkpt>
      <trkpt lat="43.97576" lon="7.4023">
        <ele>1382</ele>
        <time>2024-07-09T08:14:54Z</time>
      </trkpt>
      <trkpt lat="43.97575" lon="7.40228">
        <ele>1382</ele>
        <time>2024-07-09T08:14:55Z</time>
      </trkpt>
      <trkpt lat="43.97574" lon="7.40227">
        <ele>1382</ele>
        <time>2024-07-09T08:14:56Z</time>
      </trkpt>
      <trkpt lat="43.97573" lon="7.40225">
        <ele>1382</ele>
        <time>2024-07-09T08:14:57Z</time>
      </trkpt>
      <trkpt lat="43.97572" lon="7.40224">
        <ele>1382</ele>
        <time>2024-07-09T08:14:58Z</time>
      </trkpt>
      <trkpt lat="43.97571" lon="7.40222">
        <ele>1382.6</ele>
        <time>2024-07-09T08:14:59Z</time>
      </trkpt>
      <trkpt lat="43.9757" lon="7.4022">
        <ele>1382.6</ele>
        <time>2024-07-09T08:15:00Z</time>
      </trkpt>
      <trkpt lat="43.97569" lon="7.40218">
        <ele>1382.6</ele>
        <time>2024-07-09T08:15:01Z</time>
      </trkpt>
      <trkpt lat="43.97568" lon="7.40216">
        <ele>1382.6</ele>
        <time>2024-07-09T08:15:02Z</time>
      </trkpt>
      <trkpt lat="43.97566" lon="7.40215">
        <ele>1382.6</ele>
        <time>2024-07-09T08:15:03Z</time>
      </trkpt>
      <trkpt lat="43.97565" lon="7.40213">
        <ele>1383.2</ele>
        <time>2024-07-09T08:15:04Z</time>
      </trkpt>
      <trkpt lat="43.97564" lon="7.40211">
        <ele>1383.2</ele>
        <time>2024-07-09T08:15:05Z</time>
      </trkpt>
      <trkpt lat="43.97563" lon="7.4021">
        <ele>1383.2</ele>
        <time>2024-07-09T08:15:06Z</time>
      </trkpt>
      <trkpt lat="43.97562" lon="7.40209">
        <ele>1383.6</ele>
        <time>2024-07-09T08:15:07Z</time>
      </trkpt>
      <trkpt lat="43.97561" lon="7.40207">
        <ele>1383.4</ele>
        <time>2024-07-09T08:15:08Z</time>
      </trkpt>
      <trkpt lat="43.9756" lon="7.40205">
        <ele>1383.4</ele>
        <time>2024-07-09T08:15:09Z</time>
      </trkpt>
      <trkpt lat="43.97559" lon="7.40204">
        <ele>1383.4</ele>
        <time>2024-07-09T08:15:10Z</time>
      </trkpt>
      <trkpt lat="43.97558" lon="7.40202">
        <ele>1383.4</ele>
        <time>2024-07-09T08:15:11Z</time>
      </trkpt>
      <trkpt lat="43.97558" lon="7.40199">
        <ele>1384.2</ele>
        <time>2024-07-09T08:15:12Z</time>
      </trkpt>
      <trkpt lat="43.97557" lon="7.40197">
        <ele>1384.4</ele>
        <time>2024-07-09T08:15:13Z</time>
      </trkpt>
      <trkpt lat="43.97557" lon="7.40194">
        <ele>1384.4</ele>
        <time>2024-07-09T08:15:14Z</time>
      </trkpt>
      <trkpt lat="43.97556" lon="7.40192">
        <ele>1384.4</ele>
        <time>2024-07-09T08:15:15Z</time>
      </trkpt>
      <trkpt lat="43.97556" lon="7.40189">
        <ele>1384.8</ele>
        <time>2024-07-09T08:15:16Z</time>
      </trkpt>
      <trkpt lat="43.97555" lon="7.40187">
        <ele>1385</ele>
        <time>2024-07-09T08:15:17Z</time>
      </trkpt>
      <trkpt lat="43.97555" lon="7.40184">
        <ele>1385</ele>
        <time>2024-07-09T08:15:18Z</time>
      </trkpt>
      <trkpt lat="43.97554" lon="7.40182">
        <ele>1385</ele>
        <time>2024-07-09T08:15:19Z</time>
      </trkpt>
      <trkpt lat="43.97553" lon="7.40179">
        <ele>1385</ele>
        <time>2024-07-09T08:15:20Z</time>
      </trkpt>
      <trkpt lat="43.97552" lon="7.40177">
        <ele>1385.6</ele>
        <time>2024-07-09T08:15:21Z</time>
      </trkpt>
      <trkpt lat="43.97551" lon="7.40175">
        <ele>1385.8</ele>
        <time>2024-07-09T08:15:22Z</time>
      </trkpt>
      <trkpt lat="43.9755" lon="7.40173">
        <ele>1385.8</ele>
        <time>2024-07-09T08:15:23Z</time>
      </trkpt>
      <trkpt lat="43.9755" lon="7.40171">
        <ele>1385.8</ele>
        <time>2024-07-09T08:15:24Z</time>
      </trkpt>
      <trkpt lat="43.97549" lon="7.40169">
        <ele>1386.2</ele>
        <time>2024-07-09T08:15:25Z</time>
      </trkpt>
      <trkpt lat="43.97548" lon="7.40167">
        <ele>1386</ele>
        <time>2024-07-09T08:15:26Z</time>
      </trkpt>
      <trkpt lat="43.97547" lon="7.40165">
        <ele>1386</ele>
        <time>2024-07-09T08:15:27Z</time>
      </trkpt>
      <trkpt lat="43.97546" lon="7.40163">
        <ele>1386</ele>
        <time>2024-07-09T08:15:28Z</time>
      </trkpt>
      <trkpt lat="43.97544" lon="7.40161">
        <ele>1386</ele>
        <time>2024-07-09T08:15:29Z</time>
      </trkpt>
      <trkpt lat="43.97543" lon="7.4016">
        <ele>1386</ele>
        <time>2024-07-09T08:15:30Z</time>
      </trkpt>
      <trkpt lat="43.97541" lon="7.4016">
        <ele>1386.2</ele>
        <time>2024-07-09T08:15:31Z</time>
      </trkpt>
      <trkpt lat="43.9754" lon="7.40161">
        <ele>1386.2</ele>
        <time>2024-07-09T08:15:32Z</time>
      </trkpt>
      <trkpt lat="43.97538" lon="7.40161">
        <ele>1386.2</ele>
        <time>2024-07-09T08:15:33Z</time>
      </trkpt>
      <trkpt lat="43.97536" lon="7.40162">
        <ele>1387</ele>
        <time>2024-07-09T08:15:34Z</time>
      </trkpt>
      <trkpt lat="43.97536" lon="7.40164">
        <ele>1387.2</ele>
        <time>2024-07-09T08:15:35Z</time>
      </trkpt>
      <trkpt lat="43.97536" lon="7.40166">
        <ele>1387.2</ele>
        <time>2024-07-09T08:15:36Z</time>
      </trkpt>
      <trkpt lat="43.97536" lon="7.40168">
        <ele>1387.2</ele>
        <time>2024-07-09T08:15:37Z</time>
      </trkpt>
      <trkpt lat="43.97536" lon="7.4017">
        <ele>1388</ele>
        <time>2024-07-09T08:15:38Z</time>
      </trkpt>
      <trkpt lat="43.97536" lon="7.40172">
        <ele>1388</ele>
        <time>2024-07-09T08:15:39Z</time>
      </trkpt>
      <trkpt lat="43.97536" lon="7.40174">
        <ele>1388</ele>
        <time>2024-07-09T08:15:40Z</time>
      </trkpt>
      <trkpt lat="43.97537" lon="7.40177">
        <ele>1388</ele>
        <time>2024-07-09T08:15:41Z</time>
      </trkpt>
      <trkpt lat="43.97537" lon="7.40179">
        <ele>1388</ele>
        <time>2024-07-09T08:15:42Z</time>
      </trkpt>
      <trkpt lat="43.97538" lon="7.40181">
        <ele>1388</ele>
        <time>2024-07-09T08:15:43Z</time>
      </trkpt>
      <trkpt lat="43.97538" lon="7.40184">
        <ele>1388.8</ele>
        <time>2024-07-09T08:15:44Z</time>
      </trkpt>
      <trkpt lat="43.97539" lon="7.40186">
        <ele>1388.8</ele>
        <time>2024-07-09T08:15:45Z</time>
      </trkpt>
      <trkpt lat="43.97539" lon="7.40188">
        <ele>1388.8</ele>
        <time>2024-07-09T08:15:46Z</time>
      </trkpt>
      <trkpt lat="43.9754" lon="7.40191">
        <ele>1388.8</ele>
        <time>2024-07-09T08:15:47Z</time>
      </trkpt>
      <trkpt lat="43.97542" lon="7.40193">
        <ele>1389.2</ele>
        <time>2024-07-09T08:15:48Z</time>
      </trkpt>
      <trkpt lat="43.97543" lon="7.40195">
        <ele>1389.4</ele>
        <time>2024-07-09T08:15:49Z</time>
      </trkpt>
      <trkpt lat="43.97544" lon="7.40198">
        <ele>1389.4</ele>
        <time>2024-07-09T08:15:50Z</time>
      </trkpt>
      <trkpt lat="43.97545" lon="7.402">
        <ele>1389.4</ele>
        <time>2024-07-09T08:15:51Z</time>
      </trkpt>
      <trkpt lat="43.97547" lon="7.40202">
        <ele>1389.4</ele>
        <time>2024-07-09T08:15:52Z</time>
      </trkpt>
      <trkpt lat="43.97548" lon="7.40205">
        <ele>1389.8</ele>
        <time>2024-07-09T08:15:53Z</time>
      </trkpt>
      <trkpt lat="43.97549" lon="7.40207">
        <ele>1390</ele>
        <time>2024-07-09T08:15:54Z</time>
      </trkpt>
      <trkpt lat="43.9755" lon="7.40209">
        <ele>1390</ele>
        <time>2024-07-09T08:15:55Z</time>
      </trkpt>
      <trkpt lat="43.97551" lon="7.40212">
        <ele>1390</ele>
        <time>2024-07-09T08:15:56Z</time>
      </trkpt>
      <trkpt lat="43.97552" lon="7.40214">
        <ele>1390.4</ele>
        <time>2024-07-09T08:15:57Z</time>
      </trkpt>
      <trkpt lat="43.97553" lon="7.40216">
        <ele>1390.6</ele>
        <time>2024-07-09T08:15:58Z</time>
      </trkpt>
      <trkpt lat="43.97554" lon="7.40218">
        <ele>1390.6</ele>
        <time>2024-07-09T08:15:59Z</time>
      </trkpt>
      <trkpt lat="43.97555" lon="7.4022">
        <ele>1390.6</ele>
        <time>2024-07-09T08:16:00Z</time>
      </trkpt>
      <trkpt lat="43.97556" lon="7.40221">
        <ele>1390.6</ele>
        <time>2024-07-09T08:16:01Z</time>
      </trkpt>
      <trkpt lat="43.97556" lon="7.40223">
        <ele>1391.2</ele>
        <time>2024-07-09T08:16:02Z</time>
      </trkpt>
      <trkpt lat="43.97557" lon="7.40226">
        <ele>1391.2</ele>
        <time>2024-07-09T08:16:03Z</time>
      </trkpt>
      <trkpt lat="43.97558" lon="7.40228">
        <ele>1391.2</ele>
        <time>2024-07-09T08:16:04Z</time>
      </trkpt>
      <trkpt lat="43.97558" lon="7.4023">
        <ele>1391.2</ele>
        <time>2024-07-09T08:16:05Z</time>
      </trkpt>
      <trkpt lat="43.97559" lon="7.40232">
        <ele>1391.6</ele>
        <time>2024-07-09T08:16:06Z</time>
      </trkpt>
      <trkpt lat="43.9756" lon="7.40234">
        <ele>1391.8</ele>
        <time>2024-07-09T08:16:07Z</time>
      </trkpt>
      <trkpt lat="43.9756" lon="7.40237">
        <ele>1391.8</ele>
        <time>2024-07-09T08:16:08Z</time>
      </trkpt>
      <trkpt lat="43.9756" lon="7.40239">
        <ele>1391.8</ele>
        <time>2024-07-09T08:16:09Z</time>
      </trkpt>
      <trkpt lat="43.9756" lon="7.40242">
        <ele>1391.8</ele>
        <time>2024-07-09T08:16:10Z</time>
      </trkpt>
      <trkpt lat="43.9756" lon="7.40245">
        <ele>1392.2</ele>
        <time>2024-07-09T08:16:11Z</time>
      </trkpt>
      <trkpt lat="43.97561" lon="7.40247">
        <ele>1392.2</ele>
        <time>2024-07-09T08:16:12Z</time>
      </trkpt>
      <trkpt lat="43.97562" lon="7.4025">
        <ele>1392.2</ele>
        <time>2024-07-09T08:16:13Z</time>
      </trkpt>
      <trkpt lat="43.97562" lon="7.40251">
        <ele>1392.2</ele>
        <time>2024-07-09T08:16:14Z</time>
      </trkpt>
      <trkpt lat="43.97563" lon="7.40253">
        <ele>1393</ele>
        <time>2024-07-09T08:16:15Z</time>
      </trkpt>
      <trkpt lat="43.97563" lon="7.40256">
        <ele>1393.2</ele>
        <time>2024-07-09T08:16:16Z</time>
      </trkpt>
      <trkpt lat="43.97564" lon="7.40258">
        <ele>1393.2</ele>
        <time>2024-07-09T08:16:17Z</time>
      </trkpt>
      <trkpt lat="43.97564" lon="7.4026">
        <ele>1393.2</ele>
        <time>2024-07-09T08:16:18Z</time>
      </trkpt>
      <trkpt lat="43.97565" lon="7.40262">
        <ele>1393.2</ele>
        <time>2024-07-09T08:16:19Z</time>
      </trkpt>
      <trkpt lat="43.97566" lon="7.40264">
        <ele>1393.8</ele>
        <time>2024-07-09T08:16:20Z</time>
      </trkpt>
      <trkpt lat="43.97566" lon="7.40267">
        <ele>1393.8</ele>
        <time>2024-07-09T08:16:21Z</time>
      </trkpt>
      <trkpt lat="43.97567" lon="7.40269">
        <ele>1393.8</ele>
        <time>2024-07-09T08:16:22Z</time>
      </trkpt>
      <trkpt lat="43.97567" lon="7.40272">
        <ele>1394.4</ele>
        <time>2024-07-09T08:16:23Z</time>
      </trkpt>
      <trkpt lat="43.97567" lon="7.40274">
        <ele>1394.4</ele>
        <time>2024-07-09T08:16:24Z</time>
      </trkpt>
      <trkpt lat="43.97567" lon="7.40277">
        <ele>1394.4</ele>
        <time>2024-07-09T08:16:25Z</time>
      </trkpt>
      <trkpt lat="43.97567" lon="7.4028">
        <ele>1394.4</ele>
        <time>2024-07-09T08:16:26Z</time>
      </trkpt>
      <trkpt lat="43.97568" lon="7.40282">
        <ele>1394.4</ele>
        <time>2024-07-09T08:16:27Z</time>
      </trkpt>
      <trkpt lat="43.97568" lon="7.40285">
        <ele>1394.4</ele>
        <time>2024-07-09T08:16:28Z</time>
      </trkpt>
      <trkpt lat="43.97568" lon="7.40287">
        <ele>1394.8</ele>
        <time>2024-07-09T08:16:29Z</time>
      </trkpt>
      <trkpt lat="43.97568" lon="7.4029">
        <ele>1395.2</ele>
        <time>2024-07-09T08:16:30Z</time>
      </trkpt>
      <trkpt lat="43.97568" lon="7.40292">
        <ele>1395.2</ele>
        <time>2024-07-09T08:16:31Z</time>
      </trkpt>
      <trkpt lat="43.97569" lon="7.40293">
        <ele>1395.2</ele>
        <time>2024-07-09T08:16:32Z</time>
      </trkpt>
      <trkpt lat="43.9757" lon="7.40295">
        <ele>1395.6</ele>
        <time>2024-07-09T08:16:33Z</time>
      </trkpt>
      <trkpt lat="43.9757" lon="7.40297">
        <ele>1395.6</ele>
        <time>2024-07-09T08:16:34Z</time>
      </trkpt>
      <trkpt lat="43.9757" lon="7.40299">
        <ele>1395.6</ele>
        <time>2024-07-09T08:16:35Z</time>
      </trkpt>
      <trkpt lat="43.9757" lon="7.40301">
        <ele>1395.6</ele>
        <time>2024-07-09T08:16:36Z</time>
      </trkpt>
      <trkpt lat="43.97571" lon="7.40303">
        <ele>1395.6</ele>
        <time>2024-07-09T08:16:37Z</time>
      </trkpt>
      <trkpt lat="43.9757" lon="7.40304">
        <ele>1396.2</ele>
        <time>2024-07-09T08:16:38Z</time>
      </trkpt>
      <trkpt lat="43.97569" lon="7.40306">
        <ele>1396.6</ele>
        <time>2024-07-09T08:16:39Z</time>
      </trkpt>
      <trkpt lat="43.97568" lon="7.40309">
        <ele>1396.6</ele>
        <time>2024-07-09T08:16:40Z</time>
      </trkpt>
      <trkpt lat="43.97567" lon="7.40312">
        <ele>1396.6</ele>
        <time>2024-07-09T08:16:41Z</time>
      </trkpt>
      <trkpt lat="43.97566" lon="7.40313">
        <ele>1396.6</ele>
        <time>2024-07-09T08:16:42Z</time>
      </trkpt>
      <trkpt lat="43.97566" lon="7.40316">
        <ele>1397</ele>
        <time>2024-07-09T08:16:43Z</time>
      </trkpt>
      <trkpt lat="43.97565" lon="7.40318">
        <ele>1397</ele>
        <time>2024-07-09T08:16:44Z</time>
      </trkpt>
      <trkpt lat="43.97564" lon="7.4032">
        <ele>1397</ele>
        <time>2024-07-09T08:16:45Z</time>
      </trkpt>
      <trkpt lat="43.97564" lon="7.40322">
        <ele>1397.4</ele>
        <time>2024-07-09T08:16:46Z</time>
      </trkpt>
      <trkpt lat="43.97563" lon="7.40325">
        <ele>1397.4</ele>
        <time>2024-07-09T08:16:47Z</time>
      </trkpt>
      <trkpt lat="43.97562" lon="7.40327">
        <ele>1397.6</ele>
        <time>2024-07-09T08:16:48Z</time>
      </trkpt>
      <trkpt lat="43.97561" lon="7.40329">
        <ele>1397.6</ele>
        <time>2024-07-09T08:16:49Z</time>
      </trkpt>
      <trkpt lat="43.97561" lon="7.40331">
        <ele>1397.6</ele>
        <time>2024-07-09T08:16:50Z</time>
      </trkpt>
      <trkpt lat="43.9756" lon="7.40333">
        <ele>1398</ele>
        <time>2024-07-09T08:16:51Z</time>
      </trkpt>
      <trkpt lat="43.97559" lon="7.40336">
        <ele>1398.4</ele>
        <time>2024-07-09T08:16:52Z</time>
      </trkpt>
      <trkpt lat="43.97558" lon="7.40338">
        <ele>1398.4</ele>
        <time>2024-07-09T08:16:53Z</time>
      </trkpt>
      <trkpt lat="43.97557" lon="7.40339">
        <ele>1398.4</ele>
        <time>2024-07-09T08:16:54Z</time>
      </trkpt>
      <trkpt lat="43.97556" lon="7.4034">
        <ele>1398.8</ele>
        <time>2024-07-09T08:16:55Z</time>
      </trkpt>
      <trkpt lat="43.97555" lon="7.40341">
        <ele>1398.8</ele>
        <time>2024-07-09T08:16:56Z</time>
      </trkpt>
      <trkpt lat="43.97555" lon="7.40343">
        <ele>1398.8</ele>
        <time>2024-07-09T08:16:57Z</time>
      </trkpt>
      <trkpt lat="43.97554" lon="7.40344">
        <ele>1398.8</ele>
        <time>2024-07-09T08:16:58Z</time>
      </trkpt>
      <trkpt lat="43.97554" lon="7.40346">
        <ele>1398.8</ele>
        <time>2024-07-09T08:16:59Z</time>
      </trkpt>
      <trkpt lat="43.97553" lon="7.40348">
        <ele>1399.2</ele>
        <time>2024-07-09T08:17:00Z</time>
      </trkpt>
      <trkpt lat="43.97553" lon="7.40351">
        <ele>1399.6</ele>
        <time>2024-07-09T08:17:01Z</time>
      </trkpt>
      <trkpt lat="43.97552" lon="7.40353">
        <ele>1399.6</ele>
        <time>2024-07-09T08:17:02Z</time>
      </trkpt>
      <trkpt lat="43.97552" lon="7.40355">
        <ele>1399.6</ele>
        <time>2024-07-09T08:17:03Z</time>
      </trkpt>
      <trkpt lat="43.97551" lon="7.40356">
        <ele>1399.6</ele>
        <time>2024-07-09T08:17:04Z</time>
      </trkpt>
      <trkpt lat="43.9755" lon="7.40358">
        <ele>1400.2</ele>
        <time>2024-07-09T08:17:05Z</time>
      </trkpt>
      <trkpt lat="43.97549" lon="7.4036">
        <ele>1400.2</ele>
        <time>2024-07-09T08:17:06Z</time>
      </trkpt>
      <trkpt lat="43.97549" lon="7.40361">
        <ele>1400.2</ele>
        <time>2024-07-09T08:17:07Z</time>
      </trkpt>
      <trkpt lat="43.97548" lon="7.40363">
        <ele>1400.2</ele>
        <time>2024-07-09T08:17:08Z</time>
      </trkpt>
      <trkpt lat="43.97547" lon="7.40365">
        <ele>1400.2</ele>
        <time>2024-07-09T08:17:09Z</time>
      </trkpt>
      <trkpt lat="43.97546" lon="7.40367">
        <ele>1400.6</ele>
        <time>2024-07-09T08:17:10Z</time>
      </trkpt>
      <trkpt lat="43.97545" lon="7.40369">
        <ele>1400.8</ele>
        <time>2024-07-09T08:17:11Z</time>
      </trkpt>
      <trkpt lat="43.97544" lon="7.40371">
        <ele>1400.8</ele>
        <time>2024-07-09T08:17:12Z</time>
      </trkpt>
      <trkpt lat="43.97543" lon="7.40374">
        <ele>1400.8</ele>
        <time>2024-07-09T08:17:13Z</time>
      </trkpt>
      <trkpt lat="43.97542" lon="7.40375">
        <ele>1400.8</ele>
        <time>2024-07-09T08:17:14Z</time>
      </trkpt>
      <trkpt lat="43.97541" lon="7.40377">
        <ele>1401.4</ele>
        <time>2024-07-09T08:17:15Z</time>
      </trkpt>
      <trkpt lat="43.9754" lon="7.40378">
        <ele>1401.4</ele>
        <time>2024-07-09T08:17:16Z</time>
      </trkpt>
      <trkpt lat="43.97539" lon="7.4038">
        <ele>1401.4</ele>
        <time>2024-07-09T08:17:17Z</time>
      </trkpt>
      <trkpt lat="43.97538" lon="7.40382">
        <ele>1401.4</ele>
        <time>2024-07-09T08:17:18Z</time>
      </trkpt>
      <trkpt lat="43.97537" lon="7.40384">
        <ele>1402</ele>
        <time>2024-07-09T08:17:19Z</time>
      </trkpt>
      <trkpt lat="43.97536" lon="7.40386">
        <ele>1402.2</ele>
        <time>2024-07-09T08:17:20Z</time>
      </trkpt>
      <trkpt lat="43.97535" lon="7.40387">
        <ele>1402.2</ele>
        <time>2024-07-09T08:17:21Z</time>
      </trkpt>
      <trkpt lat="43.97534" lon="7.40389">
        <ele>1402.2</ele>
        <time>2024-07-09T08:17:22Z</time>
      </trkpt>
      <trkpt lat="43.97533" lon="7.40391">
        <ele>1402.8</ele>
        <time>2024-07-09T08:17:23Z</time>
      </trkpt>
      <trkpt lat="43.97531" lon="7.40392">
        <ele>1402.8</ele>
        <time>2024-07-09T08:17:24Z</time>
      </trkpt>
      <trkpt lat="43.9753" lon="7.40394">
        <ele>1403</ele>
        <time>2024-07-09T08:17:25Z</time>
      </trkpt>
      <trkpt lat="43.97528" lon="7.40396">
        <ele>1403</ele>
        <time>2024-07-09T08:17:26Z</time>
      </trkpt>
      <trkpt lat="43.97527" lon="7.40397">
        <ele>1403</ele>
        <time>2024-07-09T08:17:27Z</time>
      </trkpt>
      <trkpt lat="43.97526" lon="7.40398">
        <ele>1403.4</ele>
        <time>2024-07-09T08:17:28Z</time>
      </trkpt>
      <trkpt lat="43.97524" lon="7.404">
        <ele>1403.4</ele>
        <time>2024-07-09T08:17:29Z</time>
      </trkpt>
      <trkpt lat="43.97523" lon="7.40402">
        <ele>1403.4</ele>
        <time>2024-07-09T08:17:30Z</time>
      </trkpt>
      <trkpt lat="43.97522" lon="7.40404">
        <ele>1403.4</ele>
        <time>2024-07-09T08:17:31Z</time>
      </trkpt>
      <trkpt lat="43.9752" lon="7.40405">
        <ele>1404</ele>
        <time>2024-07-09T08:17:32Z</time>
      </trkpt>
      <trkpt lat="43.97519" lon="7.40407">
        <ele>1404</ele>
        <time>2024-07-09T08:17:33Z</time>
      </trkpt>
      <trkpt lat="43.97518" lon="7.40408">
        <ele>1404</ele>
        <time>2024-07-09T08:17:34Z</time>
      </trkpt>
      <trkpt lat="43.97517" lon="7.40408">
        <ele>1404</ele>
        <time>2024-07-09T08:17:35Z</time>
      </trkpt>
      <trkpt lat="43.97516" lon="7.4041">
        <ele>1404</ele>
        <time>2024-07-09T08:17:36Z</time>
      </trkpt>
      <trkpt lat="43.97515" lon="7.40412">
        <ele>1404.6</ele>
        <time>2024-07-09T08:17:37Z</time>
      </trkpt>
      <trkpt lat="43.97514" lon="7.40413">
        <ele>1404.6</ele>
        <time>2024-07-09T08:17:38Z</time>
      </trkpt>
      <trkpt lat="43.97514" lon="7.40416">
        <ele>1404.6</ele>
        <time>2024-07-09T08:17:39Z</time>
      </trkpt>
      <trkpt lat="43.97512" lon="7.40416">
        <ele>1404.6</ele>
        <time>2024-07-09T08:17:40Z</time>
      </trkpt>
      <trkpt lat="43.97511" lon="7.40418">
        <ele>1405</ele>
        <time>2024-07-09T08:17:41Z</time>
      </trkpt>
      <trkpt lat="43.9751" lon="7.40421">
        <ele>1405</ele>
        <time>2024-07-09T08:17:42Z</time>
      </trkpt>
      <trkpt lat="43.9751" lon="7.40423">
        <ele>1405</ele>
        <time>2024-07-09T08:17:43Z</time>
      </trkpt>
      <trkpt lat="43.97509" lon="7.40425">
        <ele>1405</ele>
        <time>2024-07-09T08:17:44Z</time>
      </trkpt>
      <trkpt lat="43.97508" lon="7.40426">
        <ele>1405</ele>
        <time>2024-07-09T08:17:45Z</time>
      </trkpt>
      <trkpt lat="43.97507" lon="7.40428">
        <ele>1405.4</ele>
        <time>2024-07-09T08:17:46Z</time>
      </trkpt>
      <trkpt lat="43.97506" lon="7.4043">
        <ele>1405.6</ele>
        <time>2024-07-09T08:17:47Z</time>
      </trkpt>
      <trkpt lat="43.97505" lon="7.40432">
        <ele>1405.6</ele>
        <time>2024-07-09T08:17:48Z</time>
      </trkpt>
      <trkpt lat="43.97504" lon="7.40434">
        <ele>1405.6</ele>
        <time>2024-07-09T08:17:49Z</time>
      </trkpt>
      <trkpt lat="43.97502" lon="7.40436">
        <ele>1405.6</ele>
        <time>2024-07-09T08:17:50Z</time>
      </trkpt>
      <trkpt lat="43.97501" lon="7.40439">
        <ele>1405.8</ele>
        <time>2024-07-09T08:17:51Z</time>
      </trkpt>
      <trkpt lat="43.97501" lon="7.40441">
        <ele>1406</ele>
        <time>2024-07-09T08:17:52Z</time>
      </trkpt>
      <trkpt lat="43.975" lon="7.40444">
        <ele>1406</ele>
        <time>2024-07-09T08:17:53Z</time>
      </trkpt>
      <trkpt lat="43.975" lon="7.40446">
        <ele>1406</ele>
        <time>2024-07-09T08:17:54Z</time>
      </trkpt>
      <trkpt lat="43.97499" lon="7.40448">
        <ele>1406.6</ele>
        <time>2024-07-09T08:17:55Z</time>
      </trkpt>
      <trkpt lat="43.97498" lon="7.4045">
        <ele>1406.6</ele>
        <time>2024-07-09T08:17:56Z</time>
      </trkpt>
      <trkpt lat="43.97498" lon="7.40452">
        <ele>1406.6</ele>
        <time>2024-07-09T08:17:57Z</time>
      </trkpt>
      <trkpt lat="43.97496" lon="7.40454">
        <ele>1406.6</ele>
        <time>2024-07-09T08:17:58Z</time>
      </trkpt>
      <trkpt lat="43.97495" lon="7.40455">
        <ele>1406.6</ele>
        <time>2024-07-09T08:17:59Z</time>
      </trkpt>
      <trkpt lat="43.97494" lon="7.40457">
        <ele>1407</ele>
        <time>2024-07-09T08:18:00Z</time>
      </trkpt>
      <trkpt lat="43.97493" lon="7.4046">
        <ele>1407.2</ele>
        <time>2024-07-09T08:18:01Z</time>
      </trkpt>
      <trkpt lat="43.97492" lon="7.40462">
        <ele>1407.2</ele>
        <time>2024-07-09T08:18:02Z</time>
      </trkpt>
      <trkpt lat="43.97491" lon="7.40465">
        <ele>1407.2</ele>
        <time>2024-07-09T08:18:03Z</time>
      </trkpt>
      <trkpt lat="43.97491" lon="7.40467">
        <ele>1407.4</ele>
        <time>2024-07-09T08:18:04Z</time>
      </trkpt>
      <trkpt lat="43.9749" lon="7.40469">
        <ele>1407.6</ele>
        <time>2024-07-09T08:18:05Z</time>
      </trkpt>
      <trkpt lat="43.9749" lon="7.40471">
        <ele>1407.6</ele>
        <time>2024-07-09T08:18:06Z</time>
      </trkpt>
      <trkpt lat="43.97489" lon="7.40473">
        <ele>1407.6</ele>
        <time>2024-07-09T08:18:07Z</time>
      </trkpt>
      <trkpt lat="43.97488" lon="7.40474">
        <ele>1407.6</ele>
        <time>2024-07-09T08:18:08Z</time>
      </trkpt>
      <trkpt lat="43.97487" lon="7.40476">
        <ele>1408</ele>
        <time>2024-07-09T08:18:09Z</time>
      </trkpt>
      <trkpt lat="43.97486" lon="7.40478">
        <ele>1408.2</ele>
        <time>2024-07-09T08:18:10Z</time>
      </trkpt>
      <trkpt lat="43.97485" lon="7.4048">
        <ele>1408.2</ele>
        <time>2024-07-09T08:18:11Z</time>
      </trkpt>
      <trkpt lat="43.97484" lon="7.40482">
        <ele>1408.2</ele>
        <time>2024-07-09T08:18:12Z</time>
      </trkpt>
      <trkpt lat="43.97483" lon="7.40483">
        <ele>1408.6</ele>
        <time>2024-07-09T08:18:13Z</time>
      </trkpt>
      <trkpt lat="43.97482" lon="7.40485">
        <ele>1408.6</ele>
        <time>2024-07-09T08:18:14Z</time>
      </trkpt>
      <trkpt lat="43.97481" lon="7.40488">
        <ele>1408.6</ele>
        <time>2024-07-09T08:18:15Z</time>
      </trkpt>
      <trkpt lat="43.97481" lon="7.4049">
        <ele>1408.6</ele>
        <time>2024-07-09T08:18:16Z</time>
      </trkpt>
      <trkpt lat="43.9748" lon="7.40492">
        <ele>1409.2</ele>
        <time>2024-07-09T08:18:17Z</time>
      </trkpt>
      <trkpt lat="43.97478" lon="7.40493">
        <ele>1409.2</ele>
        <time>2024-07-09T08:18:18Z</time>
      </trkpt>
      <trkpt lat="43.97477" lon="7.40494">
        <ele>1409.2</ele>
        <time>2024-07-09T08:18:19Z</time>
      </trkpt>
      <trkpt lat="43.97476" lon="7.40495">
        <ele>1409.2</ele>
        <time>2024-07-09T08:18:20Z</time>
      </trkpt>
      <trkpt lat="43.97475" lon="7.40497">
        <ele>1409.2</ele>
        <time>2024-07-09T08:18:21Z</time>
      </trkpt>
      <trkpt lat="43.97473" lon="7.40498">
        <ele>1409.6</ele>
        <time>2024-07-09T08:18:22Z</time>
      </trkpt>
      <trkpt lat="43.97472" lon="7.40499">
        <ele>1409.8</ele>
        <time>2024-07-09T08:18:23Z</time>
      </trkpt>
      <trkpt lat="43.97471" lon="7.40501">
        <ele>1409.8</ele>
        <time>2024-07-09T08:18:24Z</time>
      </trkpt>
      <trkpt lat="43.9747" lon="7.40503">
        <ele>1409.8</ele>
        <time>2024-07-09T08:18:25Z</time>
      </trkpt>
      <trkpt lat="43.97469" lon="7.40505">
        <ele>1410.2</ele>
        <time>2024-07-09T08:18:26Z</time>
      </trkpt>
      <trkpt lat="43.97468" lon="7.40507">
        <ele>1410.4</ele>
        <time>2024-07-09T08:18:27Z</time>
      </trkpt>
      <trkpt lat="43.97468" lon="7.4051">
        <ele>1410.4</ele>
        <time>2024-07-09T08:18:28Z</time>
      </trkpt>
      <trkpt lat="43.97467" lon="7.40512">
        <ele>1410.4</ele>
        <time>2024-07-09T08:18:29Z</time>
      </trkpt>
      <trkpt lat="43.97466" lon="7.40513">
        <ele>1410.4</ele>
        <time>2024-07-09T08:18:30Z</time>
      </trkpt>
      <trkpt lat="43.97466" lon="7.40515">
        <ele>1410.4</ele>
        <time>2024-07-09T08:18:31Z</time>
      </trkpt>
      <trkpt lat="43.97465" lon="7.40518">
        <ele>1410.8</ele>
        <time>2024-07-09T08:18:32Z</time>
      </trkpt>
      <trkpt lat="43.97465" lon="7.40519">
        <ele>1410.8</ele>
        <time>2024-07-09T08:18:33Z</time>
      </trkpt>
      <trkpt lat="43.97464" lon="7.40521">
        <ele>1410.8</ele>
        <time>2024-07-09T08:18:34Z</time>
      </trkpt>
      <trkpt lat="43.97463" lon="7.40523">
        <ele>1410.8</ele>
        <time>2024-07-09T08:18:35Z</time>
      </trkpt>
      <trkpt lat="43.97462" lon="7.40525">
        <ele>1411.2</ele>
        <time>2024-07-09T08:18:36Z</time>
      </trkpt>
      <trkpt lat="43.9746" lon="7.40526">
        <ele>1411.2</ele>
        <time>2024-07-09T08:18:37Z</time>
      </trkpt>
      <trkpt lat="43.97459" lon="7.40528">
        <ele>1411.2</ele>
        <time>2024-07-09T08:18:38Z</time>
      </trkpt>
      <trkpt lat="43.97458" lon="7.4053">
        <ele>1411.2</ele>
        <time>2024-07-09T08:18:39Z</time>
      </trkpt>
      <trkpt lat="43.97457" lon="7.40532">
        <ele>1411.6</ele>
        <time>2024-07-09T08:18:40Z</time>
      </trkpt>
      <trkpt lat="43.97456" lon="7.40533">
        <ele>1411.6</ele>
        <time>2024-07-09T08:18:41Z</time>
      </trkpt>
      <trkpt lat="43.97455" lon="7.40535">
        <ele>1411.6</ele>
        <time>2024-07-09T08:18:42Z</time>
      </trkpt>
      <trkpt lat="43.97454" lon="7.40537">
        <ele>1411.6</ele>
        <time>2024-07-09T08:18:43Z</time>
      </trkpt>
      <trkpt lat="43.97453" lon="7.40539">
        <ele>1411.6</ele>
        <time>2024-07-09T08:18:44Z</time>
      </trkpt>
      <trkpt lat="43.97452" lon="7.40541">
        <ele>1412</ele>
        <time>2024-07-09T08:18:45Z</time>
      </trkpt>
      <trkpt lat="43.97452" lon="7.40543">
        <ele>1412.2</ele>
        <time>2024-07-09T08:18:46Z</time>
      </trkpt>
      <trkpt lat="43.97451" lon="7.40546">
        <ele>1412.2</ele>
        <time>2024-07-09T08:18:47Z</time>
      </trkpt>
      <trkpt lat="43.97451" lon="7.40549">
        <ele>1412.2</ele>
        <time>2024-07-09T08:18:48Z</time>
      </trkpt>
      <trkpt lat="43.9745" lon="7.40552">
        <ele>1412.4</ele>
        <time>2024-07-09T08:18:49Z</time>
      </trkpt>
      <trkpt lat="43.97449" lon="7.40555">
        <ele>1412.4</ele>
        <time>2024-07-09T08:18:50Z</time>
      </trkpt>
      <trkpt lat="43.97448" lon="7.40557">
        <ele>1412.4</ele>
        <time>2024-07-09T08:18:51Z</time>
      </trkpt>
      <trkpt lat="43.97448" lon="7.4056">
        <ele>1412.4</ele>
        <time>2024-07-09T08:18:52Z</time>
      </trkpt>
      <trkpt lat="43.97447" lon="7.40562">
        <ele>1412.4</ele>
        <time>2024-07-09T08:18:53Z</time>
      </trkpt>
      <trkpt lat="43.97446" lon="7.40565">
        <ele>1412.6</ele>
        <time>2024-07-09T08:18:54Z</time>
      </trkpt>
      <trkpt lat="43.97445" lon="7.40567">
        <ele>1412.8</ele>
        <time>2024-07-09T08:18:55Z</time>
      </trkpt>
      <trkpt lat="43.97444" lon="7.40569">
        <ele>1412.8</ele>
        <time>2024-07-09T08:18:56Z</time>
      </trkpt>
      <trkpt lat="43.97443" lon="7.40572">
        <ele>1412.8</ele>
        <time>2024-07-09T08:18:57Z</time>
      </trkpt>
      <trkpt lat="43.97442" lon="7.40574">
        <ele>1413</ele>
        <time>2024-07-09T08:18:58Z</time>
      </trkpt>
      <trkpt lat="43.97441" lon="7.40578">
        <ele>1413</ele>
        <time>2024-07-09T08:18:59Z</time>
      </trkpt>
      <trkpt lat="43.97439" lon="7.40579">
        <ele>1413.2</ele>
        <time>2024-07-09T08:19:00Z</time>
      </trkpt>
      <trkpt lat="43.97438" lon="7.40581">
        <ele>1413.2</ele>
        <time>2024-07-09T08:19:01Z</time>
      </trkpt>
      <trkpt lat="43.97436" lon="7.40583">
        <ele>1413.2</ele>
        <time>2024-07-09T08:19:02Z</time>
      </trkpt>
      <trkpt lat="43.97433" lon="7.40583">
        <ele>1413.2</ele>
        <time>2024-07-09T08:19:03Z</time>
      </trkpt>
      <trkpt lat="43.97431" lon="7.40583">
        <ele>1413.6</ele>
        <time>2024-07-09T08:19:04Z</time>
      </trkpt>
      <trkpt lat="43.97429" lon="7.40581">
        <ele>1413.6</ele>
        <time>2024-07-09T08:19:05Z</time>
      </trkpt>
      <trkpt lat="43.97428" lon="7.40579">
        <ele>1413.6</ele>
        <time>2024-07-09T08:19:06Z</time>
      </trkpt>
      <trkpt lat="43.97427" lon="7.40575">
        <ele>1414.2</ele>
        <time>2024-07-09T08:19:07Z</time>
      </trkpt>
      <trkpt lat="43.97428" lon="7.40572">
        <ele>1414.2</ele>
        <time>2024-07-09T08:19:08Z</time>
      </trkpt>
      <trkpt lat="43.97428" lon="7.4057">
        <ele>1414.2</ele>
        <time>2024-07-09T08:19:09Z</time>
      </trkpt>
      <trkpt lat="43.9743" lon="7.40568">
        <ele>1414.2</ele>
        <time>2024-07-09T08:19:10Z</time>
      </trkpt>
      <trkpt lat="43.97431" lon="7.40566">
        <ele>1414.2</ele>
        <time>2024-07-09T08:19:11Z</time>
      </trkpt>
      <trkpt lat="43.97433" lon="7.40564">
        <ele>1414.6</ele>
        <time>2024-07-09T08:19:12Z</time>
      </trkpt>
      <trkpt lat="43.97434" lon="7.40562">
        <ele>1414.6</ele>
        <time>2024-07-09T08:19:13Z</time>
      </trkpt>
      <trkpt lat="43.97435" lon="7.40561">
        <ele>1414.6</ele>
        <time>2024-07-09T08:19:14Z</time>
      </trkpt>
      <trkpt lat="43.97436" lon="7.4056">
        <ele>1414.6</ele>
        <time>2024-07-09T08:19:15Z</time>
      </trkpt>
      <trkpt lat="43.97438" lon="7.40558">
        <ele>1414.6</ele>
        <time>2024-07-09T08:19:16Z</time>
      </trkpt>
      <trkpt lat="43.97439" lon="7.40557">
        <ele>1415</ele>
        <time>2024-07-09T08:19:17Z</time>
      </trkpt>
      <trkpt lat="43.9744" lon="7.40555">
        <ele>1415.2</ele>
        <time>2024-07-09T08:19:18Z</time>
      </trkpt>
      <trkpt lat="43.97441" lon="7.40553">
        <ele>1415.2</ele>
        <time>2024-07-09T08:19:19Z</time>
      </trkpt>
      <trkpt lat="43.97442" lon="7.4055">
        <ele>1415.2</ele>
        <time>2024-07-09T08:19:20Z</time>
      </trkpt>
      <trkpt lat="43.97442" lon="7.40548">
        <ele>1415.8</ele>
        <time>2024-07-09T08:19:21Z</time>
      </trkpt>
      <trkpt lat="43.97443" lon="7.40546">
        <ele>1415.8</ele>
        <time>2024-07-09T08:19:22Z</time>
      </trkpt>
      <trkpt lat="43.97444" lon="7.40544">
        <ele>1415.8</ele>
        <time>2024-07-09T08:19:23Z</time>
      </trkpt>
      <trkpt lat="43.97444" lon="7.40542">
        <ele>1415.8</ele>
        <time>2024-07-09T08:19:24Z</time>
      </trkpt>
      <trkpt lat="43.97445" lon="7.4054">
        <ele>1415.8</ele>
        <time>2024-07-09T08:19:25Z</time>
      </trkpt>
      <trkpt lat="43.97446" lon="7.40538">
        <ele>1416.4</ele>
        <time>2024-07-09T08:19:26Z</time>
      </trkpt>
      <trkpt lat="43.97447" lon="7.40536">
        <ele>1416.6</ele>
        <time>2024-07-09T08:19:27Z</time>
      </trkpt>
      <trkpt lat="43.97448" lon="7.40534">
        <ele>1416.6</ele>
        <time>2024-07-09T08:19:28Z</time>
      </trkpt>
      <trkpt lat="43.97449" lon="7.40532">
        <ele>1416.6</ele>
        <time>2024-07-09T08:19:29Z</time>
      </trkpt>
      <trkpt lat="43.9745" lon="7.4053">
        <ele>1417</ele>
        <time>2024-07-09T08:19:30Z</time>
      </trkpt>
      <trkpt lat="43.97451" lon="7.40528">
        <ele>1417.2</ele>
        <time>2024-07-09T08:19:31Z</time>
      </trkpt>
      <trkpt lat="43.97452" lon="7.40526">
        <ele>1417.2</ele>
        <time>2024-07-09T08:19:32Z</time>
      </trkpt>
      <trkpt lat="43.97452" lon="7.40523">
        <ele>1417.2</ele>
        <time>2024-07-09T08:19:33Z</time>
      </trkpt>
      <trkpt lat="43.97453" lon="7.40521">
        <ele>1417.8</ele>
        <time>2024-07-09T08:19:34Z</time>
      </trkpt>
      <trkpt lat="43.97454" lon="7.40519">
        <ele>1417.8</ele>
        <time>2024-07-09T08:19:35Z</time>
      </trkpt>
      <trkpt lat="43.97454" lon="7.40516">
        <ele>1417.8</ele>
        <time>2024-07-09T08:19:36Z</time>
      </trkpt>
      <trkpt lat="43.97455" lon="7.40514">
        <ele>1417.8</ele>
        <time>2024-07-09T08:19:37Z</time>
      </trkpt>
      <trkpt lat="43.97456" lon="7.40512">
        <ele>1417.8</ele>
        <time>2024-07-09T08:19:38Z</time>
      </trkpt>
      <trkpt lat="43.97456" lon="7.4051">
        <ele>1418.4</ele>
        <time>2024-07-09T08:19:39Z</time>
      </trkpt>
      <trkpt lat="43.97457" lon="7.40508">
        <ele>1418.6</ele>
        <time>2024-07-09T08:19:40Z</time>
      </trkpt>
      <trkpt lat="43.97458" lon="7.40506">
        <ele>1418.6</ele>
        <time>2024-07-09T08:19:41Z</time>
      </trkpt>
      <trkpt lat="43.97459" lon="7.40503">
        <ele>1418.6</ele>
        <time>2024-07-09T08:19:42Z</time>
      </trkpt>
      <trkpt lat="43.97459" lon="7.40501">
        <ele>1418.6</ele>
        <time>2024-07-09T08:19:43Z</time>
      </trkpt>
      <trkpt lat="43.9746" lon="7.40499">
        <ele>1419</ele>
        <time>2024-07-09T08:19:44Z</time>
      </trkpt>
      <trkpt lat="43.9746" lon="7.40497">
        <ele>1419.2</ele>
        <time>2024-07-09T08:19:45Z</time>
      </trkpt>
      <trkpt lat="43.97461" lon="7.40495">
        <ele>1419.2</ele>
        <time>2024-07-09T08:19:46Z</time>
      </trkpt>
      <trkpt lat="43.97462" lon="7.40493">
        <ele>1419.2</ele>
        <time>2024-07-09T08:19:47Z</time>
      </trkpt>
      <trkpt lat="43.97463" lon="7.40491">
        <ele>1419.6</ele>
        <time>2024-07-09T08:19:48Z</time>
      </trkpt>
      <trkpt lat="43.97464" lon="7.40488">
        <ele>1419.8</ele>
        <time>2024-07-09T08:19:49Z</time>
      </trkpt>
      <trkpt lat="43.97465" lon="7.40486">
        <ele>1419.8</ele>
        <time>2024-07-09T08:19:50Z</time>
      </trkpt>
      <trkpt lat="43.97465" lon="7.40484">
        <ele>1419.8</ele>
        <time>2024-07-09T08:19:51Z</time>
      </trkpt>
      <trkpt lat="43.97466" lon="7.40482">
        <ele>1420.4</ele>
        <time>2024-07-09T08:19:52Z</time>
      </trkpt>
      <trkpt lat="43.97466" lon="7.4048">
        <ele>1420.4</ele>
        <time>2024-07-09T08:19:53Z</time>
      </trkpt>
      <trkpt lat="43.97467" lon="7.40478">
        <ele>1420.4</ele>
        <time>2024-07-09T08:19:54Z</time>
      </trkpt>
      <trkpt lat="43.97468" lon="7.40476">
        <ele>1420.4</ele>
        <time>2024-07-09T08:19:55Z</time>
      </trkpt>
      <trkpt lat="43.97468" lon="7.40474">
        <ele>1420.4</ele>
        <time>2024-07-09T08:19:56Z</time>
      </trkpt>
      <trkpt lat="43.97469" lon="7.40472">
        <ele>1420.4</ele>
        <time>2024-07-09T08:19:57Z</time>
      </trkpt>
      <trkpt lat="43.97469" lon="7.4047">
        <ele>1420.8</ele>
        <time>2024-07-09T08:19:58Z</time>
      </trkpt>
      <trkpt lat="43.9747" lon="7.40467">
        <ele>1421</ele>
        <time>2024-07-09T08:19:59Z</time>
      </trkpt>
      <trkpt lat="43.97471" lon="7.40465">
        <ele>1421</ele>
        <time>2024-07-09T08:20:00Z</time>
      </trkpt>
      <trkpt lat="43.97472" lon="7.40463">
        <ele>1421</ele>
        <time>2024-07-09T08:20:01Z</time>
      </trkpt>
      <trkpt lat="43.97472" lon="7.40461">
        <ele>1421.6</ele>
        <time>2024-07-09T08:20:02Z</time>
      </trkpt>
      <trkpt lat="43.97473" lon="7.40459">
        <ele>1421.8</ele>
        <time>2024-07-09T08:20:03Z</time>
      </trkpt>
      <trkpt lat="43.97474" lon="7.40457">
        <ele>1421.8</ele>
        <time>2024-07-09T08:20:04Z</time>
      </trkpt>
      <trkpt lat="43.97474" lon="7.40455">
        <ele>1421.8</ele>
        <time>2024-07-09T08:20:05Z</time>
      </trkpt>
      <trkpt lat="43.97475" lon="7.40453">
        <ele>1421.8</ele>
        <time>2024-07-09T08:20:06Z</time>
      </trkpt>
      <trkpt lat="43.97476" lon="7.40451">
        <ele>1421.8</ele>
        <time>2024-07-09T08:20:07Z</time>
      </trkpt>
      <trkpt lat="43.97477" lon="7.40449">
        <ele>1422.6</ele>
        <time>2024-07-09T08:20:08Z</time>
      </trkpt>
      <trkpt lat="43.97478" lon="7.40447">
        <ele>1422.6</ele>
        <time>2024-07-09T08:20:09Z</time>
      </trkpt>
      <trkpt lat="43.97479" lon="7.40446">
        <ele>1422.6</ele>
        <time>2024-07-09T08:20:10Z</time>
      </trkpt>
      <trkpt lat="43.97479" lon="7.40444">
        <ele>1423.2</ele>
        <time>2024-07-09T08:20:11Z</time>
      </trkpt>
      <trkpt lat="43.9748" lon="7.40442">
        <ele>1423.2</ele>
        <time>2024-07-09T08:20:12Z</time>
      </trkpt>
      <trkpt lat="43.97481" lon="7.4044">
        <ele>1423.2</ele>
        <time>2024-07-09T08:20:13Z</time>
      </trkpt>
      <trkpt lat="43.97481" lon="7.40438">
        <ele>1423.2</ele>
        <time>2024-07-09T08:20:14Z</time>
      </trkpt>
      <trkpt lat="43.97481" lon="7.40436">
        <ele>1423.2</ele>
        <time>2024-07-09T08:20:15Z</time>
      </trkpt>
      <trkpt lat="43.97481" lon="7.40434">
        <ele>1423.8</ele>
        <time>2024-07-09T08:20:16Z</time>
      </trkpt>
      <trkpt lat="43.97481" lon="7.40431">
        <ele>1424</ele>
        <time>2024-07-09T08:20:17Z</time>
      </trkpt>
      <trkpt lat="43.97482" lon="7.40429">
        <ele>1424</ele>
        <time>2024-07-09T08:20:18Z</time>
      </trkpt>
      <trkpt lat="43.97482" lon="7.40427">
        <ele>1424</ele>
        <time>2024-07-09T08:20:19Z</time>
      </trkpt>
      <trkpt lat="43.97483" lon="7.40425">
        <ele>1424.4</ele>
        <time>2024-07-09T08:20:20Z</time>
      </trkpt>
      <trkpt lat="43.97483" lon="7.40423">
        <ele>1424.8</ele>
        <time>2024-07-09T08:20:21Z</time>
      </trkpt>
      <trkpt lat="43.97483" lon="7.40421">
        <ele>1424.8</ele>
        <time>2024-07-09T08:20:22Z</time>
      </trkpt>
      <trkpt lat="43.97484" lon="7.40419">
        <ele>1424.8</ele>
        <time>2024-07-09T08:20:23Z</time>
      </trkpt>
      <trkpt lat="43.97484" lon="7.40417">
        <ele>1425.2</ele>
        <time>2024-07-09T08:20:24Z</time>
      </trkpt>
      <trkpt lat="43.97485" lon="7.40415">
        <ele>1425.2</ele>
        <time>2024-07-09T08:20:25Z</time>
      </trkpt>
      <trkpt lat="43.97486" lon="7.40414">
        <ele>1425.2</ele>
        <time>2024-07-09T08:20:26Z</time>
      </trkpt>
      <trkpt lat="43.97487" lon="7.40412">
        <ele>1425.2</ele>
        <time>2024-07-09T08:20:27Z</time>
      </trkpt>
      <trkpt lat="43.97487" lon="7.4041">
        <ele>1425.2</ele>
        <time>2024-07-09T08:20:28Z</time>
      </trkpt>
      <trkpt lat="43.97488" lon="7.40408">
        <ele>1425.8</ele>
        <time>2024-07-09T08:20:29Z</time>
      </trkpt>
      <trkpt lat="43.97489" lon="7.40406">
        <ele>1426</ele>
        <time>2024-07-09T08:20:30Z</time>
      </trkpt>
      <trkpt lat="43.9749" lon="7.40404">
        <ele>1426</ele>
        <time>2024-07-09T08:20:31Z</time>
      </trkpt>
      <trkpt lat="43.9749" lon="7.40402">
        <ele>1426</ele>
        <time>2024-07-09T08:20:32Z</time>
      </trkpt>
      <trkpt lat="43.97491" lon="7.404">
        <ele>1426.6</ele>
        <time>2024-07-09T08:20:33Z</time>
      </trkpt>
      <trkpt lat="43.97491" lon="7.40398">
        <ele>1426.6</ele>
        <time>2024-07-09T08:20:34Z</time>
      </trkpt>
      <trkpt lat="43.97492" lon="7.40396">
        <ele>1426.6</ele>
        <time>2024-07-09T08:20:35Z</time>
      </trkpt>
      <trkpt lat="43.97493" lon="7.40394">
        <ele>1426.6</ele>
        <time>2024-07-09T08:20:36Z</time>
      </trkpt>
      <trkpt lat="43.97494" lon="7.40392">
        <ele>1426.6</ele>
        <time>2024-07-09T08:20:37Z</time>
      </trkpt>
      <trkpt lat="43.97494" lon="7.4039">
        <ele>1427.2</ele>
        <time>2024-07-09T08:20:38Z</time>
      </trkpt>
      <trkpt lat="43.97495" lon="7.40389">
        <ele>1427.4</ele>
        <time>2024-07-09T08:20:39Z</time>
      </trkpt>
      <trkpt lat="43.97495" lon="7.40387">
        <ele>1427.4</ele>
        <time>2024-07-09T08:20:40Z</time>
      </trkpt>
      <trkpt lat="43.97496" lon="7.40385">
        <ele>1427.4</ele>
        <time>2024-07-09T08:20:41Z</time>
      </trkpt>
      <trkpt lat="43.97496" lon="7.40383">
        <ele>1427.4</ele>
        <time>2024-07-09T08:20:42Z</time>
      </trkpt>
      <trkpt lat="43.97497" lon="7.40381">
        <ele>1427.8</ele>
        <time>2024-07-09T08:20:43Z</time>
      </trkpt>
      <trkpt lat="43.97497" lon="7.40379">
        <ele>1427.8</ele>
        <time>2024-07-09T08:20:44Z</time>
      </trkpt>
      <trkpt lat="43.97498" lon="7.40378">
        <ele>1427.8</ele>
        <time>2024-07-09T08:20:45Z</time>
      </trkpt>
      <trkpt lat="43.97498" lon="7.40376">
        <ele>1427.8</ele>
        <time>2024-07-09T08:20:46Z</time>
      </trkpt>
      <trkpt lat="43.97498" lon="7.40374">
        <ele>1427.8</ele>
        <time>2024-07-09T08:20:47Z</time>
      </trkpt>
      <trkpt lat="43.97498" lon="7.40372">
        <ele>1428.4</ele>
        <time>2024-07-09T08:20:48Z</time>
      </trkpt>
      <trkpt lat="43.97499" lon="7.4037">
        <ele>1428.4</ele>
        <time>2024-07-09T08:20:49Z</time>
      </trkpt>
      <trkpt lat="43.97499" lon="7.40368">
        <ele>1428.4</ele>
        <time>2024-07-09T08:20:50Z</time>
      </trkpt>
      <trkpt lat="43.975" lon="7.40367">
        <ele>1428.4</ele>
        <time>2024-07-09T08:20:51Z</time>
      </trkpt>
      <trkpt lat="43.975" lon="7.40365">
        <ele>1429</ele>
        <time>2024-07-09T08:20:52Z</time>
      </trkpt>
      <trkpt lat="43.975" lon="7.40362">
        <ele>1429</ele>
        <time>2024-07-09T08:20:53Z</time>
      </trkpt>
      <trkpt lat="43.97501" lon="7.4036">
        <ele>1429</ele>
        <time>2024-07-09T08:20:54Z</time>
      </trkpt>
      <trkpt lat="43.97501" lon="7.40358">
        <ele>1429</ele>
        <time>2024-07-09T08:20:55Z</time>
      </trkpt>
      <trkpt lat="43.97501" lon="7.40356">
        <ele>1429.4</ele>
        <time>2024-07-09T08:20:56Z</time>
      </trkpt>
      <trkpt lat="43.975" lon="7.40354">
        <ele>1429.4</ele>
        <time>2024-07-09T08:20:57Z</time>
      </trkpt>
      <trkpt lat="43.975" lon="7.40352">
        <ele>1429.6</ele>
        <time>2024-07-09T08:20:58Z</time>
      </trkpt>
      <trkpt lat="43.97499" lon="7.4035">
        <ele>1429.6</ele>
        <time>2024-07-09T08:20:59Z</time>
      </trkpt>
      <trkpt lat="43.97498" lon="7.40348">
        <ele>1429.6</ele>
        <time>2024-07-09T08:21:00Z</time>
      </trkpt>
      <trkpt lat="43.97498" lon="7.40346">
        <ele>1430.2</ele>
        <time>2024-07-09T08:21:01Z</time>
      </trkpt>
      <trkpt lat="43.97496" lon="7.40344">
        <ele>1430.2</ele>
        <time>2024-07-09T08:21:02Z</time>
      </trkpt>
      <trkpt lat="43.97495" lon="7.40342">
        <ele>1430.2</ele>
        <time>2024-07-09T08:21:03Z</time>
      </trkpt>
      <trkpt lat="43.97494" lon="7.4034">
        <ele>1430.2</ele>
        <time>2024-07-09T08:21:04Z</time>
      </trkpt>
      <trkpt lat="43.97493" lon="7.40338">
        <ele>1430.8</ele>
        <time>2024-07-09T08:21:05Z</time>
      </trkpt>
      <trkpt lat="43.97493" lon="7.40336">
        <ele>1430.8</ele>
        <time>2024-07-09T08:21:06Z</time>
      </trkpt>
      <trkpt lat="43.97492" lon="7.40334">
        <ele>1430.8</ele>
        <time>2024-07-09T08:21:07Z</time>
      </trkpt>
      <trkpt lat="43.97491" lon="7.40332">
        <ele>1430.8</ele>
        <time>2024-07-09T08:21:08Z</time>
      </trkpt>
      <trkpt lat="43.9749" lon="7.4033">
        <ele>1430.8</ele>
        <time>2024-07-09T08:21:09Z</time>
      </trkpt>
      <trkpt lat="43.97489" lon="7.40329">
        <ele>1431.4</ele>
        <time>2024-07-09T08:21:10Z</time>
      </trkpt>
      <trkpt lat="43.97488" lon="7.40327">
        <ele>1431.6</ele>
        <time>2024-07-09T08:21:11Z</time>
      </trkpt>
      <trkpt lat="43.97488" lon="7.40325">
        <ele>1431.6</ele>
        <time>2024-07-09T08:21:12Z</time>
      </trkpt>
      <trkpt lat="43.97487" lon="7.40323">
        <ele>1431.6</ele>
        <time>2024-07-09T08:21:13Z</time>
      </trkpt>
      <trkpt lat="43.97486" lon="7.40321">
        <ele>1432.2</ele>
        <time>2024-07-09T08:21:14Z</time>
      </trkpt>
      <trkpt lat="43.97486" lon="7.40319">
        <ele>1432.4</ele>
        <time>2024-07-09T08:21:15Z</time>
      </trkpt>
      <trkpt lat="43.97485" lon="7.40317">
        <ele>1432.4</ele>
        <time>2024-07-09T08:21:16Z</time>
      </trkpt>
      <trkpt lat="43.97485" lon="7.40315">
        <ele>1432.4</ele>
        <time>2024-07-09T08:21:17Z</time>
      </trkpt>
      <trkpt lat="43.97485" lon="7.40313">
        <ele>1432.4</ele>
        <time>2024-07-09T08:21:18Z</time>
      </trkpt>
      <trkpt lat="43.97486" lon="7.40311">
        <ele>1433</ele>
        <time>2024-07-09T08:21:19Z</time>
      </trkpt>
      <trkpt lat="43.97486" lon="7.40309">
        <ele>1433</ele>
        <time>2024-07-09T08:21:20Z</time>
      </trkpt>
      <trkpt lat="43.97485" lon="7.40307">
        <ele>1433</ele>
        <time>2024-07-09T08:21:21Z</time>
      </trkpt>
      <trkpt lat="43.97485" lon="7.40305">
        <ele>1433</ele>
        <time>2024-07-09T08:21:22Z</time>
      </trkpt>
      <trkpt lat="43.97485" lon="7.40303">
        <ele>1433</ele>
        <time>2024-07-09T08:21:23Z</time>
      </trkpt>
      <trkpt lat="43.97485" lon="7.40301">
        <ele>1433.6</ele>
        <time>2024-07-09T08:21:24Z</time>
      </trkpt>
      <trkpt lat="43.97486" lon="7.40299">
        <ele>1433.6</ele>
        <time>2024-07-09T08:21:25Z</time>
      </trkpt>
      <trkpt lat="43.97486" lon="7.40297">
        <ele>1433.6</ele>
        <time>2024-07-09T08:21:26Z</time>
      </trkpt>
      <trkpt lat="43.97487" lon="7.40295">
        <ele>1433.6</ele>
        <time>2024-07-09T08:21:27Z</time>
      </trkpt>
      <trkpt lat="43.97487" lon="7.40293">
        <ele>1434.2</ele>
        <time>2024-07-09T08:21:28Z</time>
      </trkpt>
      <trkpt lat="43.97487" lon="7.40291">
        <ele>1434.4</ele>
        <time>2024-07-09T08:21:29Z</time>
      </trkpt>
      <trkpt lat="43.97488" lon="7.40289">
        <ele>1434.4</ele>
        <time>2024-07-09T08:21:30Z</time>
      </trkpt>
      <trkpt lat="43.97488" lon="7.40287">
        <ele>1434.4</ele>
        <time>2024-07-09T08:21:31Z</time>
      </trkpt>
      <trkpt lat="43.97488" lon="7.40284">
        <ele>1434.4</ele>
        <time>2024-07-09T08:21:32Z</time>
      </trkpt>
      <trkpt lat="43.97488" lon="7.40282">
        <ele>1434.8</ele>
        <time>2024-07-09T08:21:33Z</time>
      </trkpt>
      <trkpt lat="43.97489" lon="7.4028">
        <ele>1435</ele>
        <time>2024-07-09T08:21:34Z</time>
      </trkpt>
      <trkpt lat="43.97489" lon="7.40278">
        <ele>1435</ele>
        <time>2024-07-09T08:21:35Z</time>
      </trkpt>
      <trkpt lat="43.9749" lon="7.40275">
        <ele>1435</ele>
        <time>2024-07-09T08:21:36Z</time>
      </trkpt>
      <trkpt lat="43.9749" lon="7.40273">
        <ele>1435.4</ele>
        <time>2024-07-09T08:21:37Z</time>
      </trkpt>
      <trkpt lat="43.9749" lon="7.40271">
        <ele>1435.4</ele>
        <time>2024-07-09T08:21:38Z</time>
      </trkpt>
      <trkpt lat="43.9749" lon="7.40269">
        <ele>1435.4</ele>
        <time>2024-07-09T08:21:39Z</time>
      </trkpt>
      <trkpt lat="43.97489" lon="7.40267">
        <ele>1435.4</ele>
        <time>2024-07-09T08:21:40Z</time>
      </trkpt>
      <trkpt lat="43.97489" lon="7.40265">
        <ele>1435.4</ele>
        <time>2024-07-09T08:21:41Z</time>
      </trkpt>
      <trkpt lat="43.97488" lon="7.40263">
        <ele>1435.8</ele>
        <time>2024-07-09T08:21:42Z</time>
      </trkpt>
      <trkpt lat="43.97488" lon="7.4026">
        <ele>1436</ele>
        <time>2024-07-09T08:21:43Z</time>
      </trkpt>
      <trkpt lat="43.97488" lon="7.40258">
        <ele>1436</ele>
        <time>2024-07-09T08:21:44Z</time>
      </trkpt>
      <trkpt lat="43.97488" lon="7.40256">
        <ele>1436</ele>
        <time>2024-07-09T08:21:45Z</time>
      </trkpt>
      <trkpt lat="43.97488" lon="7.40254">
        <ele>1436.4</ele>
        <time>2024-07-09T08:21:46Z</time>
      </trkpt>
      <trkpt lat="43.97488" lon="7.40252">
        <ele>1436.6</ele>
        <time>2024-07-09T08:21:47Z</time>
      </trkpt>
      <trkpt lat="43.97487" lon="7.4025">
        <ele>1436.6</ele>
        <time>2024-07-09T08:21:48Z</time>
      </trkpt>
      <trkpt lat="43.97486" lon="7.40248">
        <ele>1436.6</ele>
        <time>2024-07-09T08:21:49Z</time>
      </trkpt>
      <trkpt lat="43.97485" lon="7.40247">
        <ele>1436.6</ele>
        <time>2024-07-09T08:21:50Z</time>
      </trkpt>
      <trkpt lat="43.97484" lon="7.40245">
        <ele>1437.2</ele>
        <time>2024-07-09T08:21:51Z</time>
      </trkpt>
      <trkpt lat="43.97483" lon="7.40243">
        <ele>1437.2</ele>
        <time>2024-07-09T08:21:52Z</time>
      </trkpt>
      <trkpt lat="43.97483" lon="7.40241">
        <ele>1437.2</ele>
        <time>2024-07-09T08:21:53Z</time>
      </trkpt>
      <trkpt lat="43.97483" lon="7.40239">
        <ele>1437.2</ele>
        <time>2024-07-09T08:21:54Z</time>
      </trkpt>
      <trkpt lat="43.97482" lon="7.40236">
        <ele>1437.8</ele>
        <time>2024-07-09T08:21:55Z</time>
      </trkpt>
      <trkpt lat="43.97483" lon="7.40234">
        <ele>1438</ele>
        <time>2024-07-09T08:21:56Z</time>
      </trkpt>
      <trkpt lat="43.97483" lon="7.40232">
        <ele>1438</ele>
        <time>2024-07-09T08:21:57Z</time>
      </trkpt>
      <trkpt lat="43.97483" lon="7.4023">
        <ele>1438</ele>
        <time>2024-07-09T08:21:58Z</time>
      </trkpt>
      <trkpt lat="43.97483" lon="7.40228">
        <ele>1438.4</ele>
        <time>2024-07-09T08:21:59Z</time>
      </trkpt>
      <trkpt lat="43.97482" lon="7.40225">
        <ele>1438.4</ele>
        <time>2024-07-09T08:22:00Z</time>
      </trkpt>
      <trkpt lat="43.97482" lon="7.40223">
        <ele>1438.8</ele>
        <time>2024-07-09T08:22:01Z</time>
      </trkpt>
      <trkpt lat="43.9748" lon="7.40221">
        <ele>1438.8</ele>
        <time>2024-07-09T08:22:02Z</time>
      </trkpt>
      <trkpt lat="43.97479" lon="7.40219">
        <ele>1438.8</ele>
        <time>2024-07-09T08:22:03Z</time>
      </trkpt>
      <trkpt lat="43.97478" lon="7.40217">
        <ele>1439.4</ele>
        <time>2024-07-09T08:22:04Z</time>
      </trkpt>
      <trkpt lat="43.97478" lon="7.40216">
        <ele>1439.4</ele>
        <time>2024-07-09T08:22:05Z</time>
      </trkpt>
      <trkpt lat="43.97477" lon="7.40214">
        <ele>1439.4</ele>
        <time>2024-07-09T08:22:06Z</time>
      </trkpt>
      <trkpt lat="43.97477" lon="7.40212">
        <ele>1439.4</ele>
        <time>2024-07-09T08:22:07Z</time>
      </trkpt>
      <trkpt lat="43.97476" lon="7.4021">
        <ele>1439.4</ele>
        <time>2024-07-09T08:22:08Z</time>
      </trkpt>
      <trkpt lat="43.97475" lon="7.40208">
        <ele>1439.8</ele>
        <time>2024-07-09T08:22:09Z</time>
      </trkpt>
      <trkpt lat="43.97474" lon="7.40206">
        <ele>1440</ele>
        <time>2024-07-09T08:22:10Z</time>
      </trkpt>
      <trkpt lat="43.97474" lon="7.40205">
        <ele>1440</ele>
        <time>2024-07-09T08:22:11Z</time>
      </trkpt>
      <trkpt lat="43.97473" lon="7.40203">
        <ele>1440</ele>
        <time>2024-07-09T08:22:12Z</time>
      </trkpt>
      <trkpt lat="43.97473" lon="7.40201">
        <ele>1440.6</ele>
        <time>2024-07-09T08:22:13Z</time>
      </trkpt>
      <trkpt lat="43.97472" lon="7.40199">
        <ele>1440.6</ele>
        <time>2024-07-09T08:22:14Z</time>
      </trkpt>
      <trkpt lat="43.97471" lon="7.40197">
        <ele>1440.6</ele>
        <time>2024-07-09T08:22:15Z</time>
      </trkpt>
      <trkpt lat="43.97471" lon="7.40195">
        <ele>1440.6</ele>
        <time>2024-07-09T08:22:16Z</time>
      </trkpt>
      <trkpt lat="43.9747" lon="7.40193">
        <ele>1440.6</ele>
        <time>2024-07-09T08:22:17Z</time>
      </trkpt>
      <trkpt lat="43.97469" lon="7.40191">
        <ele>1441.4</ele>
        <time>2024-07-09T08:22:18Z</time>
      </trkpt>
      <trkpt lat="43.97468" lon="7.40189">
        <ele>1441.4</ele>
        <time>2024-07-09T08:22:19Z</time>
      </trkpt>
      <trkpt lat="43.97467" lon="7.40187">
        <ele>1441.4</ele>
        <time>2024-07-09T08:22:20Z</time>
      </trkpt>
      <trkpt lat="43.97466" lon="7.40185">
        <ele>1441.4</ele>
        <time>2024-07-09T08:22:21Z</time>
      </trkpt>
      <trkpt lat="43.97465" lon="7.40182">
        <ele>1441.4</ele>
        <time>2024-07-09T08:22:22Z</time>
      </trkpt>
      <trkpt lat="43.97464" lon="7.40181">
        <ele>1441.8</ele>
        <time>2024-07-09T08:22:23Z</time>
      </trkpt>
      <trkpt lat="43.97463" lon="7.40179">
        <ele>1442.2</ele>
        <time>2024-07-09T08:22:24Z</time>
      </trkpt>
      <trkpt lat="43.97463" lon="7.40177">
        <ele>1442.2</ele>
        <time>2024-07-09T08:22:25Z</time>
      </trkpt>
      <trkpt lat="43.97462" lon="7.40175">
        <ele>1442.2</ele>
        <time>2024-07-09T08:22:26Z</time>
      </trkpt>
      <trkpt lat="43.97461" lon="7.40174">
        <ele>1442.6</ele>
        <time>2024-07-09T08:22:27Z</time>
      </trkpt>
      <trkpt lat="43.97461" lon="7.40172">
        <ele>1442.8</ele>
        <time>2024-07-09T08:22:28Z</time>
      </trkpt>
      <trkpt lat="43.9746" lon="7.40171">
        <ele>1442.8</ele>
        <time>2024-07-09T08:22:29Z</time>
      </trkpt>
      <trkpt lat="43.97459" lon="7.4017">
        <ele>1442.8</ele>
        <time>2024-07-09T08:22:30Z</time>
      </trkpt>
      <trkpt lat="43.97459" lon="7.40168">
        <ele>1443.2</ele>
        <time>2024-07-09T08:22:31Z</time>
      </trkpt>
      <trkpt lat="43.97458" lon="7.40167">
        <ele>1443.2</ele>
        <time>2024-07-09T08:22:32Z</time>
      </trkpt>
      <trkpt lat="43.97458" lon="7.40165">
        <ele>1443.4</ele>
        <time>2024-07-09T08:22:33Z</time>
      </trkpt>
      <trkpt lat="43.97457" lon="7.40163">
        <ele>1443.4</ele>
        <time>2024-07-09T08:22:34Z</time>
      </trkpt>
      <trkpt lat="43.97456" lon="7.4016">
        <ele>1443.4</ele>
        <time>2024-07-09T08:22:35Z</time>
      </trkpt>
      <trkpt lat="43.97455" lon="7.40159">
        <ele>1444</ele>
        <time>2024-07-09T08:22:36Z</time>
      </trkpt>
      <trkpt lat="43.97455" lon="7.40157">
        <ele>1444</ele>
        <time>2024-07-09T08:22:37Z</time>
      </trkpt>
      <trkpt lat="43.97454" lon="7.40155">
        <ele>1444</ele>
        <time>2024-07-09T08:22:38Z</time>
      </trkpt>
      <trkpt lat="43.97454" lon="7.40153">
        <ele>1444</ele>
        <time>2024-07-09T08:22:39Z</time>
      </trkpt>
      <trkpt lat="43.97452" lon="7.40151">
        <ele>1444.6</ele>
        <time>2024-07-09T08:22:40Z</time>
      </trkpt>
      <trkpt lat="43.97451" lon="7.40149">
        <ele>1444.8</ele>
        <time>2024-07-09T08:22:41Z</time>
      </trkpt>
      <trkpt lat="43.97451" lon="7.40146">
        <ele>1444.8</ele>
        <time>2024-07-09T08:22:42Z</time>
      </trkpt>
      <trkpt lat="43.97451" lon="7.40144">
        <ele>1444.8</ele>
        <time>2024-07-09T08:22:43Z</time>
      </trkpt>
      <trkpt lat="43.97451" lon="7.40142">
        <ele>1444.8</ele>
        <time>2024-07-09T08:22:44Z</time>
      </trkpt>
      <trkpt lat="43.9745" lon="7.4014">
        <ele>1445.2</ele>
        <time>2024-07-09T08:22:45Z</time>
      </trkpt>
      <trkpt lat="43.9745" lon="7.40138">
        <ele>1445.4</ele>
        <time>2024-07-09T08:22:46Z</time>
      </trkpt>
      <trkpt lat="43.9745" lon="7.40135">
        <ele>1445.4</ele>
        <time>2024-07-09T08:22:47Z</time>
      </trkpt>
      <trkpt lat="43.97449" lon="7.40133">
        <ele>1445.4</ele>
        <time>2024-07-09T08:22:48Z</time>
      </trkpt>
      <trkpt lat="43.97448" lon="7.40131">
        <ele>1445.4</ele>
        <time>2024-07-09T08:22:49Z</time>
      </trkpt>
      <trkpt lat="43.97448" lon="7.40129">
        <ele>1445.6</ele>
        <time>2024-07-09T08:22:50Z</time>
      </trkpt>
      <trkpt lat="43.97448" lon="7.40127">
        <ele>1445.8</ele>
        <time>2024-07-09T08:22:51Z</time>
      </trkpt>
      <trkpt lat="43.97448" lon="7.40124">
        <ele>1445.8</ele>
        <time>2024-07-09T08:22:52Z</time>
      </trkpt>
      <trkpt lat="43.97447" lon="7.40122">
        <ele>1445.8</ele>
        <time>2024-07-09T08:22:53Z</time>
      </trkpt>
      <trkpt lat="43.97446" lon="7.40119">
        <ele>1446.4</ele>
        <time>2024-07-09T08:22:54Z</time>
      </trkpt>
      <trkpt lat="43.97446" lon="7.40117">
        <ele>1446.4</ele>
        <time>2024-07-09T08:22:55Z</time>
      </trkpt>
      <trkpt lat="43.97446" lon="7.40115">
        <ele>1446.6</ele>
        <time>2024-07-09T08:22:56Z</time>
      </trkpt>
      <trkpt lat="43.97445" lon="7.40113">
        <ele>1446.6</ele>
        <time>2024-07-09T08:22:57Z</time>
      </trkpt>
      <trkpt lat="43.97445" lon="7.40111">
        <ele>1446.6</ele>
        <time>2024-07-09T08:22:58Z</time>
      </trkpt>
      <trkpt lat="43.97444" lon="7.40109">
        <ele>1446.8</ele>
        <time>2024-07-09T08:22:59Z</time>
      </trkpt>
      <trkpt lat="43.97443" lon="7.40106">
        <ele>1447</ele>
        <time>2024-07-09T08:23:00Z</time>
      </trkpt>
      <trkpt lat="43.97443" lon="7.40104">
        <ele>1447</ele>
        <time>2024-07-09T08:23:01Z</time>
      </trkpt>
      <trkpt lat="43.97443" lon="7.40102">
        <ele>1447</ele>
        <time>2024-07-09T08:23:02Z</time>
      </trkpt>
      <trkpt lat="43.97442" lon="7.401">
        <ele>1447</ele>
        <time>2024-07-09T08:23:03Z</time>
      </trkpt>
      <trkpt lat="43.97441" lon="7.40098">
        <ele>1447.4</ele>
        <time>2024-07-09T08:23:04Z</time>
      </trkpt>
      <trkpt lat="43.97441" lon="7.40096">
        <ele>1447.6</ele>
        <time>2024-07-09T08:23:05Z</time>
      </trkpt>
      <trkpt lat="43.9744" lon="7.40094">
        <ele>1447.6</ele>
        <time>2024-07-09T08:23:06Z</time>
      </trkpt>
      <trkpt lat="43.9744" lon="7.40092">
        <ele>1447.6</ele>
        <time>2024-07-09T08:23:07Z</time>
      </trkpt>
      <trkpt lat="43.97439" lon="7.40089">
        <ele>1448</ele>
        <time>2024-07-09T08:23:08Z</time>
      </trkpt>
      <trkpt lat="43.97438" lon="7.40087">
        <ele>1448</ele>
        <time>2024-07-09T08:23:09Z</time>
      </trkpt>
      <trkpt lat="43.97438" lon="7.40085">
        <ele>1448</ele>
        <time>2024-07-09T08:23:10Z</time>
      </trkpt>
      <trkpt lat="43.97437" lon="7.40083">
        <ele>1448</ele>
        <time>2024-07-09T08:23:11Z</time>
      </trkpt>
      <trkpt lat="43.97437" lon="7.40081">
        <ele>1448.4</ele>
        <time>2024-07-09T08:23:12Z</time>
      </trkpt>
      <trkpt lat="43.97436" lon="7.40078">
        <ele>1448.8</ele>
        <time>2024-07-09T08:23:13Z</time>
      </trkpt>
      <trkpt lat="43.97436" lon="7.40076">
        <ele>1448.8</ele>
        <time>2024-07-09T08:23:14Z</time>
      </trkpt>
      <trkpt lat="43.97435" lon="7.40074">
        <ele>1448.8</ele>
        <time>2024-07-09T08:23:15Z</time>
      </trkpt>
      <trkpt lat="43.97436" lon="7.40072">
        <ele>1448.8</ele>
        <time>2024-07-09T08:23:16Z</time>
      </trkpt>
      <trkpt lat="43.97434" lon="7.4007">
        <ele>1449</ele>
        <time>2024-07-09T08:23:17Z</time>
      </trkpt>
      <trkpt lat="43.97432" lon="7.40068">
        <ele>1449.2</ele>
        <time>2024-07-09T08:23:18Z</time>
      </trkpt>
      <trkpt lat="43.97432" lon="7.40066">
        <ele>1449.2</ele>
        <time>2024-07-09T08:23:19Z</time>
      </trkpt>
      <trkpt lat="43.97432" lon="7.40063">
        <ele>1449.2</ele>
        <time>2024-07-09T08:23:20Z</time>
      </trkpt>
      <trkpt lat="43.97432" lon="7.40061">
        <ele>1449.4</ele>
        <time>2024-07-09T08:23:21Z</time>
      </trkpt>
      <trkpt lat="43.97432" lon="7.40059">
        <ele>1449.8</ele>
        <time>2024-07-09T08:23:22Z</time>
      </trkpt>
      <trkpt lat="43.97432" lon="7.40057">
        <ele>1449.8</ele>
        <time>2024-07-09T08:23:23Z</time>
      </trkpt>
      <trkpt lat="43.97432" lon="7.40055">
        <ele>1449.8</ele>
        <time>2024-07-09T08:23:24Z</time>
      </trkpt>
      <trkpt lat="43.97432" lon="7.40053">
        <ele>1450.2</ele>
        <time>2024-07-09T08:23:25Z</time>
      </trkpt>
      <trkpt lat="43.97432" lon="7.40051">
        <ele>1450.2</ele>
        <time>2024-07-09T08:23:26Z</time>
      </trkpt>
      <trkpt lat="43.97431" lon="7.40049">
        <ele>1450.2</ele>
        <time>2024-07-09T08:23:27Z</time>
      </trkpt>
      <trkpt lat="43.97431" lon="7.40046">
        <ele>1450.4</ele>
        <time>2024-07-09T08:23:28Z</time>
      </trkpt>
      <trkpt lat="43.9743" lon="7.40044">
        <ele>1450.4</ele>
        <time>2024-07-09T08:23:29Z</time>
      </trkpt>
      <trkpt lat="43.9743" lon="7.40041">
        <ele>1450.4</ele>
        <time>2024-07-09T08:23:30Z</time>
      </trkpt>
      <trkpt lat="43.9743" lon="7.40039">
        <ele>1451</ele>
        <time>2024-07-09T08:23:31Z</time>
      </trkpt>
      <trkpt lat="43.9743" lon="7.40036">
        <ele>1451</ele>
        <time>2024-07-09T08:23:32Z</time>
      </trkpt>
      <trkpt lat="43.9743" lon="7.40034">
        <ele>1451</ele>
        <time>2024-07-09T08:23:33Z</time>
      </trkpt>
      <trkpt lat="43.97429" lon="7.40032">
        <ele>1451</ele>
        <time>2024-07-09T08:23:34Z</time>
      </trkpt>
      <trkpt lat="43.97429" lon="7.4003">
        <ele>1451.6</ele>
        <time>2024-07-09T08:23:35Z</time>
      </trkpt>
      <trkpt lat="43.97428" lon="7.40028">
        <ele>1451.6</ele>
        <time>2024-07-09T08:23:36Z</time>
      </trkpt>
      <trkpt lat="43.97427" lon="7.40025">
        <ele>1451.8</ele>
        <time>2024-07-09T08:23:37Z</time>
      </trkpt>
      <trkpt lat="43.97428" lon="7.40023">
        <ele>1451.8</ele>
        <time>2024-07-09T08:23:38Z</time>
      </trkpt>
      <trkpt lat="43.97427" lon="7.40021">
        <ele>1451.8</ele>
        <time>2024-07-09T08:23:39Z</time>
      </trkpt>
      <trkpt lat="43.97427" lon="7.40019">
        <ele>1452.2</ele>
        <time>2024-07-09T08:23:40Z</time>
      </trkpt>
      <trkpt lat="43.97428" lon="7.40016">
        <ele>1452.4</ele>
        <time>2024-07-09T08:23:41Z</time>
      </trkpt>
      <trkpt lat="43.97428" lon="7.40014">
        <ele>1452.4</ele>
        <time>2024-07-09T08:23:42Z</time>
      </trkpt>
      <trkpt lat="43.97428" lon="7.40011">
        <ele>1452.4</ele>
        <time>2024-07-09T08:23:43Z</time>
      </trkpt>
      <trkpt lat="43.97428" lon="7.40009">
        <ele>1452.4</ele>
        <time>2024-07-09T08:23:44Z</time>
      </trkpt>
      <trkpt lat="43.97428" lon="7.40006">
        <ele>1452.8</ele>
        <time>2024-07-09T08:23:45Z</time>
      </trkpt>
      <trkpt lat="43.97428" lon="7.40004">
        <ele>1452.8</ele>
        <time>2024-07-09T08:23:46Z</time>
      </trkpt>
      <trkpt lat="43.97428" lon="7.40001">
        <ele>1452.8</ele>
        <time>2024-07-09T08:23:47Z</time>
      </trkpt>
      <trkpt lat="43.97428" lon="7.39999">
        <ele>1452.8</ele>
        <time>2024-07-09T08:23:48Z</time>
      </trkpt>
      <trkpt lat="43.97428" lon="7.39996">
        <ele>1453.6</ele>
        <time>2024-07-09T08:23:49Z</time>
      </trkpt>
      <trkpt lat="43.9743" lon="7.39994">
        <ele>1453.6</ele>
        <time>2024-07-09T08:23:50Z</time>
      </trkpt>
      <trkpt lat="43.97431" lon="7.39993">
        <ele>1453.6</ele>
        <time>2024-07-09T08:23:51Z</time>
      </trkpt>
      <trkpt lat="43.97432" lon="7.39991">
        <ele>1453.6</ele>
        <time>2024-07-09T08:23:52Z</time>
      </trkpt>
      <trkpt lat="43.97433" lon="7.39989">
        <ele>1454</ele>
        <time>2024-07-09T08:23:53Z</time>
      </trkpt>
      <trkpt lat="43.97434" lon="7.39988">
        <ele>1454.2</ele>
        <time>2024-07-09T08:23:54Z</time>
      </trkpt>
      <trkpt lat="43.97435" lon="7.39986">
        <ele>1454.2</ele>
        <time>2024-07-09T08:23:55Z</time>
      </trkpt>
      <trkpt lat="43.97436" lon="7.39985">
        <ele>1454.2</ele>
        <time>2024-07-09T08:23:56Z</time>
      </trkpt>
      <trkpt lat="43.97437" lon="7.39983">
        <ele>1454.2</ele>
        <time>2024-07-09T08:23:57Z</time>
      </trkpt>
      <trkpt lat="43.97438" lon="7.39981">
        <ele>1454.8</ele>
        <time>2024-07-09T08:23:58Z</time>
      </trkpt>
      <trkpt lat="43.97439" lon="7.39979">
        <ele>1455</ele>
        <time>2024-07-09T08:23:59Z</time>
      </trkpt>
      <trkpt lat="43.9744" lon="7.39977">
        <ele>1455</ele>
        <time>2024-07-09T08:24:00Z</time>
      </trkpt>
      <trkpt lat="43.9744" lon="7.39975">
        <ele>1455</ele>
        <time>2024-07-09T08:24:01Z</time>
      </trkpt>
      <trkpt lat="43.9744" lon="7.39972">
        <ele>1455</ele>
        <time>2024-07-09T08:24:02Z</time>
      </trkpt>
      <trkpt lat="43.9744" lon="7.3997">
        <ele>1455.4</ele>
        <time>2024-07-09T08:24:03Z</time>
      </trkpt>
      <trkpt lat="43.97439" lon="7.39968">
        <ele>1455.4</ele>
        <time>2024-07-09T08:24:04Z</time>
      </trkpt>
      <trkpt lat="43.97438" lon="7.39966">
        <ele>1455.4</ele>
        <time>2024-07-09T08:24:05Z</time>
      </trkpt>
      <trkpt lat="43.97437" lon="7.39965">
        <ele>1456</ele>
        <time>2024-07-09T08:24:06Z</time>
      </trkpt>
      <trkpt lat="43.97436" lon="7.39966">
        <ele>1456</ele>
        <time>2024-07-09T08:24:07Z</time>
      </trkpt>
      <trkpt lat="43.97434" lon="7.39966">
        <ele>1456</ele>
        <time>2024-07-09T08:24:08Z</time>
      </trkpt>
      <trkpt lat="43.97432" lon="7.39966">
        <ele>1456</ele>
        <time>2024-07-09T08:24:09Z</time>
      </trkpt>
      <trkpt lat="43.97431" lon="7.39968">
        <ele>1456</ele>
        <time>2024-07-09T08:24:10Z</time>
      </trkpt>
      <trkpt lat="43.9743" lon="7.39969">
        <ele>1456.6</ele>
        <time>2024-07-09T08:24:11Z</time>
      </trkpt>
      <trkpt lat="43.97428" lon="7.39971">
        <ele>1456.6</ele>
        <time>2024-07-09T08:24:12Z</time>
      </trkpt>
      <trkpt lat="43.97427" lon="7.39973">
        <ele>1456.8</ele>
        <time>2024-07-09T08:24:13Z</time>
      </trkpt>
      <trkpt lat="43.97426" lon="7.39974">
        <ele>1456.8</ele>
        <time>2024-07-09T08:24:14Z</time>
      </trkpt>
      <trkpt lat="43.97425" lon="7.39976">
        <ele>1456.8</ele>
        <time>2024-07-09T08:24:15Z</time>
      </trkpt>
      <trkpt lat="43.97424" lon="7.39979">
        <ele>1457.2</ele>
        <time>2024-07-09T08:24:16Z</time>
      </trkpt>
      <trkpt lat="43.97424" lon="7.39981">
        <ele>1457.6</ele>
        <time>2024-07-09T08:24:17Z</time>
      </trkpt>
      <trkpt lat="43.97422" lon="7.39984">
        <ele>1457.6</ele>
        <time>2024-07-09T08:24:18Z</time>
      </trkpt>
      <trkpt lat="43.9742" lon="7.39986">
        <ele>1457.6</ele>
        <time>2024-07-09T08:24:19Z</time>
      </trkpt>
      <trkpt lat="43.9742" lon="7.39988">
        <ele>1457.6</ele>
        <time>2024-07-09T08:24:20Z</time>
      </trkpt>
      <trkpt lat="43.97419" lon="7.3999">
        <ele>1457.6</ele>
        <time>2024-07-09T08:24:21Z</time>
      </trkpt>
      <trkpt lat="43.97419" lon="7.39993">
        <ele>1458</ele>
        <time>2024-07-09T08:24:22Z</time>
      </trkpt>
      <trkpt lat="43.97419" lon="7.39996">
        <ele>1458</ele>
        <time>2024-07-09T08:24:23Z</time>
      </trkpt>
      <trkpt lat="43.97419" lon="7.39999">
        <ele>1458</ele>
        <time>2024-07-09T08:24:24Z</time>
      </trkpt>
      <trkpt lat="43.97419" lon="7.4">
        <ele>1458.4</ele>
        <time>2024-07-09T08:24:25Z</time>
      </trkpt>
      <trkpt lat="43.97418" lon="7.40003">
        <ele>1458.6</ele>
        <time>2024-07-09T08:24:26Z</time>
      </trkpt>
      <trkpt lat="43.97418" lon="7.40005">
        <ele>1458.6</ele>
        <time>2024-07-09T08:24:27Z</time>
      </trkpt>
      <trkpt lat="43.97417" lon="7.40006">
        <ele>1458.6</ele>
        <time>2024-07-09T08:24:28Z</time>
      </trkpt>
      <trkpt lat="43.97417" lon="7.40009">
        <ele>1458.6</ele>
        <time>2024-07-09T08:24:29Z</time>
      </trkpt>
      <trkpt lat="43.97418" lon="7.40012">
        <ele>1459.2</ele>
        <time>2024-07-09T08:24:30Z</time>
      </trkpt>
      <trkpt lat="43.97418" lon="7.40015">
        <ele>1459.2</ele>
        <time>2024-07-09T08:24:31Z</time>
      </trkpt>
      <trkpt lat="43.97418" lon="7.40017">
        <ele>1459.2</ele>
        <time>2024-07-09T08:24:32Z</time>
      </trkpt>
      <trkpt lat="43.97419" lon="7.40019">
        <ele>1459.2</ele>
        <time>2024-07-09T08:24:33Z</time>
      </trkpt>
      <trkpt lat="43.97418" lon="7.40021">
        <ele>1459.6</ele>
        <time>2024-07-09T08:24:34Z</time>
      </trkpt>
      <trkpt lat="43.97418" lon="7.40023">
        <ele>1459.8</ele>
        <time>2024-07-09T08:24:35Z</time>
      </trkpt>
      <trkpt lat="43.97418" lon="7.40026">
        <ele>1459.8</ele>
        <time>2024-07-09T08:24:36Z</time>
      </trkpt>
      <trkpt lat="43.97417" lon="7.40028">
        <ele>1459.8</ele>
        <time>2024-07-09T08:24:37Z</time>
      </trkpt>
      <trkpt lat="43.97417" lon="7.40031">
        <ele>1460.2</ele>
        <time>2024-07-09T08:24:38Z</time>
      </trkpt>
      <trkpt lat="43.97416" lon="7.40033">
        <ele>1460.2</ele>
        <time>2024-07-09T08:24:39Z</time>
      </trkpt>
      <trkpt lat="43.97416" lon="7.40034">
        <ele>1460.2</ele>
        <time>2024-07-09T08:24:40Z</time>
      </trkpt>
      <trkpt lat="43.97416" lon="7.40037">
        <ele>1460.2</ele>
        <time>2024-07-09T08:24:41Z</time>
      </trkpt>
      <trkpt lat="43.97415" lon="7.40038">
        <ele>1460.2</ele>
        <time>2024-07-09T08:24:42Z</time>
      </trkpt>
      <trkpt lat="43.97415" lon="7.4004">
        <ele>1461</ele>
        <time>2024-07-09T08:24:43Z</time>
      </trkpt>
      <trkpt lat="43.97415" lon="7.40042">
        <ele>1461.2</ele>
        <time>2024-07-09T08:24:44Z</time>
      </trkpt>
      <trkpt lat="43.97415" lon="7.40045">
        <ele>1461.2</ele>
        <time>2024-07-09T08:24:45Z</time>
      </trkpt>
      <trkpt lat="43.97416" lon="7.40048">
        <ele>1461.2</ele>
        <time>2024-07-09T08:24:46Z</time>
      </trkpt>
      <trkpt lat="43.97416" lon="7.4005">
        <ele>1461.6</ele>
        <time>2024-07-09T08:24:47Z</time>
      </trkpt>
      <trkpt lat="43.97415" lon="7.40053">
        <ele>1462</ele>
        <time>2024-07-09T08:24:48Z</time>
      </trkpt>
      <trkpt lat="43.97415" lon="7.40055">
        <ele>1462</ele>
        <time>2024-07-09T08:24:49Z</time>
      </trkpt>
      <trkpt lat="43.97414" lon="7.40057">
        <ele>1462</ele>
        <time>2024-07-09T08:24:50Z</time>
      </trkpt>
      <trkpt lat="43.97413" lon="7.40058">
        <ele>1462.4</ele>
        <time>2024-07-09T08:24:51Z</time>
      </trkpt>
      <trkpt lat="43.97413" lon="7.4006">
        <ele>1462.4</ele>
        <time>2024-07-09T08:24:52Z</time>
      </trkpt>
      <trkpt lat="43.97413" lon="7.40063">
        <ele>1462.2</ele>
        <time>2024-07-09T08:24:53Z</time>
      </trkpt>
      <trkpt lat="43.97413" lon="7.40064">
        <ele>1462.2</ele>
        <time>2024-07-09T08:24:54Z</time>
      </trkpt>
      <trkpt lat="43.97412" lon="7.40067">
        <ele>1462.2</ele>
        <time>2024-07-09T08:24:55Z</time>
      </trkpt>
      <trkpt lat="43.97412" lon="7.40069">
        <ele>1462.2</ele>
        <time>2024-07-09T08:24:56Z</time>
      </trkpt>
      <trkpt lat="43.97412" lon="7.40071">
        <ele>1462.8</ele>
        <time>2024-07-09T08:24:57Z</time>
      </trkpt>
      <trkpt lat="43.97413" lon="7.40074">
        <ele>1463</ele>
        <time>2024-07-09T08:24:58Z</time>
      </trkpt>
      <trkpt lat="43.97413" lon="7.40076">
        <ele>1463</ele>
        <time>2024-07-09T08:24:59Z</time>
      </trkpt>
      <trkpt lat="43.97413" lon="7.40079">
        <ele>1463</ele>
        <time>2024-07-09T08:25:00Z</time>
      </trkpt>
      <trkpt lat="43.97413" lon="7.40082">
        <ele>1463.4</ele>
        <time>2024-07-09T08:25:01Z</time>
      </trkpt>
      <trkpt lat="43.97413" lon="7.40083">
        <ele>1463.4</ele>
        <time>2024-07-09T08:25:02Z</time>
      </trkpt>
      <trkpt lat="43.97413" lon="7.40086">
        <ele>1463.4</ele>
        <time>2024-07-09T08:25:03Z</time>
      </trkpt>
      <trkpt lat="43.97413" lon="7.40088">
        <ele>1463.4</ele>
        <time>2024-07-09T08:25:04Z</time>
      </trkpt>
      <trkpt lat="43.97413" lon="7.4009">
        <ele>1463.4</ele>
        <time>2024-07-09T08:25:05Z</time>
      </trkpt>
      <trkpt lat="43.97413" lon="7.40092">
        <ele>1464</ele>
        <time>2024-07-09T08:25:06Z</time>
      </trkpt>
      <trkpt lat="43.97412" lon="7.40094">
        <ele>1464.2</ele>
        <time>2024-07-09T08:25:07Z</time>
      </trkpt>
      <trkpt lat="43.97412" lon="7.40096">
        <ele>1464.2</ele>
        <time>2024-07-09T08:25:08Z</time>
      </trkpt>
      <trkpt lat="43.97412" lon="7.40098">
        <ele>1464.2</ele>
        <time>2024-07-09T08:25:09Z</time>
      </trkpt>
      <trkpt lat="43.97413" lon="7.401">
        <ele>1464.8</ele>
        <time>2024-07-09T08:25:10Z</time>
      </trkpt>
      <trkpt lat="43.97413" lon="7.40103">
        <ele>1465</ele>
        <time>2024-07-09T08:25:11Z</time>
      </trkpt>
      <trkpt lat="43.97412" lon="7.40105">
        <ele>1465</ele>
        <time>2024-07-09T08:25:12Z</time>
      </trkpt>
      <trkpt lat="43.97413" lon="7.40107">
        <ele>1465</ele>
        <time>2024-07-09T08:25:13Z</time>
      </trkpt>
      <trkpt lat="43.97414" lon="7.40109">
        <ele>1465.6</ele>
        <time>2024-07-09T08:25:14Z</time>
      </trkpt>
      <trkpt lat="43.97414" lon="7.40111">
        <ele>1465.6</ele>
        <time>2024-07-09T08:25:15Z</time>
      </trkpt>
      <trkpt lat="43.97413" lon="7.40114">
        <ele>1465.6</ele>
        <time>2024-07-09T08:25:16Z</time>
      </trkpt>
      <trkpt lat="43.97413" lon="7.40116">
        <ele>1465.6</ele>
        <time>2024-07-09T08:25:17Z</time>
      </trkpt>
      <trkpt lat="43.97413" lon="7.40118">
        <ele>1465.6</ele>
        <time>2024-07-09T08:25:18Z</time>
      </trkpt>
      <trkpt lat="43.97413" lon="7.4012">
        <ele>1466.2</ele>
        <time>2024-07-09T08:25:19Z</time>
      </trkpt>
      <trkpt lat="43.97413" lon="7.40122">
        <ele>1466.2</ele>
        <time>2024-07-09T08:25:20Z</time>
      </trkpt>
      <trkpt lat="43.97413" lon="7.40124">
        <ele>1466.2</ele>
        <time>2024-07-09T08:25:21Z</time>
      </trkpt>
      <trkpt lat="43.97413" lon="7.40126">
        <ele>1466.2</ele>
        <time>2024-07-09T08:25:22Z</time>
      </trkpt>
      <trkpt lat="43.97413" lon="7.40129">
        <ele>1466.6</ele>
        <time>2024-07-09T08:25:23Z</time>
      </trkpt>
      <trkpt lat="43.97414" lon="7.4013">
        <ele>1466.8</ele>
        <time>2024-07-09T08:25:24Z</time>
      </trkpt>
      <trkpt lat="43.97415" lon="7.40133">
        <ele>1466.8</ele>
        <time>2024-07-09T08:25:25Z</time>
      </trkpt>
      <trkpt lat="43.97415" lon="7.40135">
        <ele>1466.8</ele>
        <time>2024-07-09T08:25:26Z</time>
      </trkpt>
      <trkpt lat="43.97416" lon="7.40137">
        <ele>1466.8</ele>
        <time>2024-07-09T08:25:27Z</time>
      </trkpt>
      <trkpt lat="43.97416" lon="7.40139">
        <ele>1467.2</ele>
        <time>2024-07-09T08:25:28Z</time>
      </trkpt>
      <trkpt lat="43.97417" lon="7.40142">
        <ele>1467.6</ele>
        <time>2024-07-09T08:25:29Z</time>
      </trkpt>
      <trkpt lat="43.97417" lon="7.40144">
        <ele>1467.6</ele>
        <time>2024-07-09T08:25:30Z</time>
      </trkpt>
      <trkpt lat="43.97418" lon="7.40147">
        <ele>1467.6</ele>
        <time>2024-07-09T08:25:31Z</time>
      </trkpt>
      <trkpt lat="43.97418" lon="7.40149">
        <ele>1468</ele>
        <time>2024-07-09T08:25:32Z</time>
      </trkpt>
      <trkpt lat="43.97418" lon="7.40151">
        <ele>1468.2</ele>
        <time>2024-07-09T08:25:33Z</time>
      </trkpt>
      <trkpt lat="43.97417" lon="7.40153">
        <ele>1468.2</ele>
        <time>2024-07-09T08:25:34Z</time>
      </trkpt>
      <trkpt lat="43.97417" lon="7.40155">
        <ele>1468.2</ele>
        <time>2024-07-09T08:25:35Z</time>
      </trkpt>
      <trkpt lat="43.97417" lon="7.40158">
        <ele>1468.2</ele>
        <time>2024-07-09T08:25:36Z</time>
      </trkpt>
      <trkpt lat="43.97417" lon="7.4016">
        <ele>1468.4</ele>
        <time>2024-07-09T08:25:37Z</time>
      </trkpt>
      <trkpt lat="43.97418" lon="7.40163">
        <ele>1468.4</ele>
        <time>2024-07-09T08:25:38Z</time>
      </trkpt>
      <trkpt lat="43.97418" lon="7.40165">
        <ele>1468.6</ele>
        <time>2024-07-09T08:25:39Z</time>
      </trkpt>
      <trkpt lat="43.97419" lon="7.40167">
        <ele>1468.6</ele>
        <time>2024-07-09T08:25:40Z</time>
      </trkpt>
      <trkpt lat="43.97419" lon="7.4017">
        <ele>1468.6</ele>
        <time>2024-07-09T08:25:41Z</time>
      </trkpt>
      <trkpt lat="43.9742" lon="7.40172">
        <ele>1468.8</ele>
        <time>2024-07-09T08:25:42Z</time>
      </trkpt>
      <trkpt lat="43.9742" lon="7.40175">
        <ele>1469</ele>
        <time>2024-07-09T08:25:43Z</time>
      </trkpt>
      <trkpt lat="43.9742" lon="7.40177">
        <ele>1469</ele>
        <time>2024-07-09T08:25:44Z</time>
      </trkpt>
      <trkpt lat="43.9742" lon="7.40179">
        <ele>1469</ele>
        <time>2024-07-09T08:25:45Z</time>
      </trkpt>
      <trkpt lat="43.9742" lon="7.40182">
        <ele>1469.6</ele>
        <time>2024-07-09T08:25:46Z</time>
      </trkpt>
      <trkpt lat="43.9742" lon="7.40184">
        <ele>1469.6</ele>
        <time>2024-07-09T08:25:47Z</time>
      </trkpt>
      <trkpt lat="43.97421" lon="7.40186">
        <ele>1469.8</ele>
        <time>2024-07-09T08:25:48Z</time>
      </trkpt>
      <trkpt lat="43.97421" lon="7.40188">
        <ele>1469.8</ele>
        <time>2024-07-09T08:25:49Z</time>
      </trkpt>
      <trkpt lat="43.97422" lon="7.40191">
        <ele>1469.8</ele>
        <time>2024-07-09T08:25:50Z</time>
      </trkpt>
      <trkpt lat="43.97422" lon="7.40192">
        <ele>1470.4</ele>
        <time>2024-07-09T08:25:51Z</time>
      </trkpt>
      <trkpt lat="43.97423" lon="7.40194">
        <ele>1470.4</ele>
        <time>2024-07-09T08:25:52Z</time>
      </trkpt>
      <trkpt lat="43.97423" lon="7.40196">
        <ele>1470.4</ele>
        <time>2024-07-09T08:25:53Z</time>
      </trkpt>
      <trkpt lat="43.97423" lon="7.40199">
        <ele>1470.4</ele>
        <time>2024-07-09T08:25:54Z</time>
      </trkpt>
      <trkpt lat="43.97424" lon="7.40201">
        <ele>1471</ele>
        <time>2024-07-09T08:25:55Z</time>
      </trkpt>
      <trkpt lat="43.97424" lon="7.40203">
        <ele>1471.2</ele>
        <time>2024-07-09T08:25:56Z</time>
      </trkpt>
      <trkpt lat="43.97424" lon="7.40205">
        <ele>1471.2</ele>
        <time>2024-07-09T08:25:57Z</time>
      </trkpt>
      <trkpt lat="43.97424" lon="7.40207">
        <ele>1471.2</ele>
        <time>2024-07-09T08:25:58Z</time>
      </trkpt>
      <trkpt lat="43.97424" lon="7.4021">
        <ele>1471.6</ele>
        <time>2024-07-09T08:25:59Z</time>
      </trkpt>
      <trkpt lat="43.97424" lon="7.40212">
        <ele>1471.6</ele>
        <time>2024-07-09T08:26:00Z</time>
      </trkpt>
      <trkpt lat="43.97424" lon="7.40214">
        <ele>1471.6</ele>
        <time>2024-07-09T08:26:01Z</time>
      </trkpt>
      <trkpt lat="43.97424" lon="7.40217">
        <ele>1471.6</ele>
        <time>2024-07-09T08:26:02Z</time>
      </trkpt>
      <trkpt lat="43.97424" lon="7.40219">
        <ele>1471.6</ele>
        <time>2024-07-09T08:26:03Z</time>
      </trkpt>
      <trkpt lat="43.97424" lon="7.40222">
        <ele>1472.2</ele>
        <time>2024-07-09T08:26:04Z</time>
      </trkpt>
      <trkpt lat="43.97424" lon="7.40224">
        <ele>1472.2</ele>
        <time>2024-07-09T08:26:05Z</time>
      </trkpt>
      <trkpt lat="43.97424" lon="7.40227">
        <ele>1472.2</ele>
        <time>2024-07-09T08:26:06Z</time>
      </trkpt>
      <trkpt lat="43.97423" lon="7.4023">
        <ele>1472.2</ele>
        <time>2024-07-09T08:26:07Z</time>
      </trkpt>
      <trkpt lat="43.97424" lon="7.40232">
        <ele>1472.8</ele>
        <time>2024-07-09T08:26:08Z</time>
      </trkpt>
      <trkpt lat="43.97423" lon="7.40235">
        <ele>1472.8</ele>
        <time>2024-07-09T08:26:09Z</time>
      </trkpt>
      <trkpt lat="43.97424" lon="7.40238">
        <ele>1472.8</ele>
        <time>2024-07-09T08:26:10Z</time>
      </trkpt>
      <trkpt lat="43.97424" lon="7.40241">
        <ele>1472.8</ele>
        <time>2024-07-09T08:26:11Z</time>
      </trkpt>
      <trkpt lat="43.97424" lon="7.40244">
        <ele>1473.2</ele>
        <time>2024-07-09T08:26:12Z</time>
      </trkpt>
      <trkpt lat="43.97424" lon="7.40247">
        <ele>1473.2</ele>
        <time>2024-07-09T08:26:13Z</time>
      </trkpt>
      <trkpt lat="43.97425" lon="7.4025">
        <ele>1473.4</ele>
        <time>2024-07-09T08:26:14Z</time>
      </trkpt>
      <trkpt lat="43.97425" lon="7.40253">
        <ele>1473.4</ele>
        <time>2024-07-09T08:26:15Z</time>
      </trkpt>
      <trkpt lat="43.97426" lon="7.40257">
        <ele>1473.4</ele>
        <time>2024-07-09T08:26:16Z</time>
      </trkpt>
      <trkpt lat="43.97426" lon="7.4026">
        <ele>1473.8</ele>
        <time>2024-07-09T08:26:17Z</time>
      </trkpt>
      <trkpt lat="43.97426" lon="7.40263">
        <ele>1473.8</ele>
        <time>2024-07-09T08:26:18Z</time>
      </trkpt>
      <trkpt lat="43.97427" lon="7.40265">
        <ele>1473.8</ele>
        <time>2024-07-09T08:26:19Z</time>
      </trkpt>
      <trkpt lat="43.97427" lon="7.40268">
        <ele>1473.8</ele>
        <time>2024-07-09T08:26:20Z</time>
      </trkpt>
      <trkpt lat="43.97428" lon="7.40271">
        <ele>1473.8</ele>
        <time>2024-07-09T08:26:21Z</time>
      </trkpt>
      <trkpt lat="43.97429" lon="7.40274">
        <ele>1473.8</ele>
        <time>2024-07-09T08:26:22Z</time>
      </trkpt>
      <trkpt lat="43.97429" lon="7.40277">
        <ele>1474.2</ele>
        <time>2024-07-09T08:26:23Z</time>
      </trkpt>
      <trkpt lat="43.9743" lon="7.40279">
        <ele>1474.4</ele>
        <time>2024-07-09T08:26:24Z</time>
      </trkpt>
      <trkpt lat="43.97431" lon="7.40282">
        <ele>1474.4</ele>
        <time>2024-07-09T08:26:25Z</time>
      </trkpt>
      <trkpt lat="43.97431" lon="7.40285">
        <ele>1474.4</ele>
        <time>2024-07-09T08:26:26Z</time>
      </trkpt>
      <trkpt lat="43.9743" lon="7.40287">
        <ele>1474.8</ele>
        <time>2024-07-09T08:26:27Z</time>
      </trkpt>
      <trkpt lat="43.97429" lon="7.40289">
        <ele>1475</ele>
        <time>2024-07-09T08:26:28Z</time>
      </trkpt>
      <trkpt lat="43.97428" lon="7.4029">
        <ele>1475</ele>
        <time>2024-07-09T08:26:29Z</time>
      </trkpt>
      <trkpt lat="43.97427" lon="7.40292">
        <ele>1475</ele>
        <time>2024-07-09T08:26:30Z</time>
      </trkpt>
      <trkpt lat="43.97425" lon="7.40293">
        <ele>1475.6</ele>
        <time>2024-07-09T08:26:31Z</time>
      </trkpt>
      <trkpt lat="43.97424" lon="7.40293">
        <ele>1475.6</ele>
        <time>2024-07-09T08:26:32Z</time>
      </trkpt>
      <trkpt lat="43.97421" lon="7.40291">
        <ele>1475.8</ele>
        <time>2024-07-09T08:26:33Z</time>
      </trkpt>
      <trkpt lat="43.97421" lon="7.40289">
        <ele>1475.8</ele>
        <time>2024-07-09T08:26:34Z</time>
      </trkpt>
      <trkpt lat="43.9742" lon="7.40286">
        <ele>1475.8</ele>
        <time>2024-07-09T08:26:35Z</time>
      </trkpt>
      <trkpt lat="43.9742" lon="7.40284">
        <ele>1476.6</ele>
        <time>2024-07-09T08:26:36Z</time>
      </trkpt>
      <trkpt lat="43.97419" lon="7.40281">
        <ele>1476.6</ele>
        <time>2024-07-09T08:26:37Z</time>
      </trkpt>
      <trkpt lat="43.97419" lon="7.40278">
        <ele>1476.6</ele>
        <time>2024-07-09T08:26:38Z</time>
      </trkpt>
      <trkpt lat="43.97419" lon="7.40276">
        <ele>1476.6</ele>
        <time>2024-07-09T08:26:39Z</time>
      </trkpt>
      <trkpt lat="43.97419" lon="7.40274">
        <ele>1477.2</ele>
        <time>2024-07-09T08:26:40Z</time>
      </trkpt>
      <trkpt lat="43.97419" lon="7.40271">
        <ele>1477.4</ele>
        <time>2024-07-09T08:26:41Z</time>
      </trkpt>
      <trkpt lat="43.97419" lon="7.40269">
        <ele>1477.4</ele>
        <time>2024-07-09T08:26:42Z</time>
      </trkpt>
      <trkpt lat="43.97419" lon="7.40266">
        <ele>1477.4</ele>
        <time>2024-07-09T08:26:43Z</time>
      </trkpt>
      <trkpt lat="43.97419" lon="7.40264">
        <ele>1477.4</ele>
        <time>2024-07-09T08:26:44Z</time>
      </trkpt>
      <trkpt lat="43.97419" lon="7.40261">
        <ele>1477.8</ele>
        <time>2024-07-09T08:26:45Z</time>
      </trkpt>
      <trkpt lat="43.97419" lon="7.40259">
        <ele>1477.8</ele>
        <time>2024-07-09T08:26:46Z</time>
      </trkpt>
      <trkpt lat="43.97419" lon="7.40256">
        <ele>1477.8</ele>
        <time>2024-07-09T08:26:47Z</time>
      </trkpt>
      <trkpt lat="43.97419" lon="7.40254">
        <ele>1477.8</ele>
        <time>2024-07-09T08:26:48Z</time>
      </trkpt>
      <trkpt lat="43.97419" lon="7.40251">
        <ele>1478.2</ele>
        <time>2024-07-09T08:26:49Z</time>
      </trkpt>
      <trkpt lat="43.9742" lon="7.40248">
        <ele>1478.4</ele>
        <time>2024-07-09T08:26:50Z</time>
      </trkpt>
      <trkpt lat="43.9742" lon="7.40246">
        <ele>1478.4</ele>
        <time>2024-07-09T08:26:51Z</time>
      </trkpt>
      <trkpt lat="43.9742" lon="7.40243">
        <ele>1478.4</ele>
        <time>2024-07-09T08:26:52Z</time>
      </trkpt>
      <trkpt lat="43.9742" lon="7.4024">
        <ele>1478.8</ele>
        <time>2024-07-09T08:26:53Z</time>
      </trkpt>
      <trkpt lat="43.9742" lon="7.40237">
        <ele>1479</ele>
        <time>2024-07-09T08:26:54Z</time>
      </trkpt>
      <trkpt lat="43.9742" lon="7.40235">
        <ele>1479</ele>
        <time>2024-07-09T08:26:55Z</time>
      </trkpt>
      <trkpt lat="43.9742" lon="7.40232">
        <ele>1479</ele>
        <time>2024-07-09T08:26:56Z</time>
      </trkpt>
      <trkpt lat="43.9742" lon="7.4023">
        <ele>1479</ele>
        <time>2024-07-09T08:26:57Z</time>
      </trkpt>
      <trkpt lat="43.97419" lon="7.40227">
        <ele>1479.4</ele>
        <time>2024-07-09T08:26:58Z</time>
      </trkpt>
      <trkpt lat="43.97418" lon="7.40225">
        <ele>1479.6</ele>
        <time>2024-07-09T08:26:59Z</time>
      </trkpt>
      <trkpt lat="43.97418" lon="7.40222">
        <ele>1479.6</ele>
        <time>2024-07-09T08:27:00Z</time>
      </trkpt>
      <trkpt lat="43.97418" lon="7.40219">
        <ele>1479.6</ele>
        <time>2024-07-09T08:27:01Z</time>
      </trkpt>
      <trkpt lat="43.97417" lon="7.40217">
        <ele>1479.6</ele>
        <time>2024-07-09T08:27:02Z</time>
      </trkpt>
      <trkpt lat="43.97417" lon="7.40214">
        <ele>1480</ele>
        <time>2024-07-09T08:27:03Z</time>
      </trkpt>
      <trkpt lat="43.97417" lon="7.40211">
        <ele>1480</ele>
        <time>2024-07-09T08:27:04Z</time>
      </trkpt>
      <trkpt lat="43.97417" lon="7.40209">
        <ele>1480</ele>
        <time>2024-07-09T08:27:05Z</time>
      </trkpt>
      <trkpt lat="43.97417" lon="7.40207">
        <ele>1480</ele>
        <time>2024-07-09T08:27:06Z</time>
      </trkpt>
      <trkpt lat="43.97416" lon="7.40204">
        <ele>1480</ele>
        <time>2024-07-09T08:27:07Z</time>
      </trkpt>
      <trkpt lat="43.97415" lon="7.40202">
        <ele>1480.4</ele>
        <time>2024-07-09T08:27:08Z</time>
      </trkpt>
      <trkpt lat="43.97414" lon="7.402">
        <ele>1480.6</ele>
        <time>2024-07-09T08:27:09Z</time>
      </trkpt>
      <trkpt lat="43.97414" lon="7.40197">
        <ele>1480.6</ele>
        <time>2024-07-09T08:27:10Z</time>
      </trkpt>
      <trkpt lat="43.97413" lon="7.40194">
        <ele>1480.6</ele>
        <time>2024-07-09T08:27:11Z</time>
      </trkpt>
      <trkpt lat="43.97412" lon="7.40192">
        <ele>1481</ele>
        <time>2024-07-09T08:27:12Z</time>
      </trkpt>
      <trkpt lat="43.97411" lon="7.4019">
        <ele>1481</ele>
        <time>2024-07-09T08:27:13Z</time>
      </trkpt>
      <trkpt lat="43.97411" lon="7.40187">
        <ele>1481</ele>
        <time>2024-07-09T08:27:14Z</time>
      </trkpt>
      <trkpt lat="43.9741" lon="7.40185">
        <ele>1481</ele>
        <time>2024-07-09T08:27:15Z</time>
      </trkpt>
      <trkpt lat="43.97409" lon="7.40182">
        <ele>1481.4</ele>
        <time>2024-07-09T08:27:16Z</time>
      </trkpt>
      <trkpt lat="43.97408" lon="7.4018">
        <ele>1481.4</ele>
        <time>2024-07-09T08:27:17Z</time>
      </trkpt>
      <trkpt lat="43.97407" lon="7.40177">
        <ele>1481.8</ele>
        <time>2024-07-09T08:27:18Z</time>
      </trkpt>
      <trkpt lat="43.97406" lon="7.40175">
        <ele>1481.8</ele>
        <time>2024-07-09T08:27:19Z</time>
      </trkpt>
      <trkpt lat="43.97405" lon="7.40172">
        <ele>1481.8</ele>
        <time>2024-07-09T08:27:20Z</time>
      </trkpt>
      <trkpt lat="43.97405" lon="7.4017">
        <ele>1482</ele>
        <time>2024-07-09T08:27:21Z</time>
      </trkpt>
      <trkpt lat="43.97404" lon="7.40167">
        <ele>1482.2</ele>
        <time>2024-07-09T08:27:22Z</time>
      </trkpt>
      <trkpt lat="43.97403" lon="7.40165">
        <ele>1482.2</ele>
        <time>2024-07-09T08:27:23Z</time>
      </trkpt>
      <trkpt lat="43.97403" lon="7.40162">
        <ele>1482.2</ele>
        <time>2024-07-09T08:27:24Z</time>
      </trkpt>
      <trkpt lat="43.97402" lon="7.4016">
        <ele>1482.6</ele>
        <time>2024-07-09T08:27:25Z</time>
      </trkpt>
      <trkpt lat="43.97402" lon="7.40157">
        <ele>1482.8</ele>
        <time>2024-07-09T08:27:26Z</time>
      </trkpt>
      <trkpt lat="43.97401" lon="7.40155">
        <ele>1482.8</ele>
        <time>2024-07-09T08:27:27Z</time>
      </trkpt>
      <trkpt lat="43.97401" lon="7.40152">
        <ele>1482.8</ele>
        <time>2024-07-09T08:27:28Z</time>
      </trkpt>
      <trkpt lat="43.97399" lon="7.4015">
        <ele>1482.8</ele>
        <time>2024-07-09T08:27:29Z</time>
      </trkpt>
      <trkpt lat="43.97398" lon="7.40148">
        <ele>1483.4</ele>
        <time>2024-07-09T08:27:30Z</time>
      </trkpt>
      <trkpt lat="43.97398" lon="7.40146">
        <ele>1483.2</ele>
        <time>2024-07-09T08:27:31Z</time>
      </trkpt>
      <trkpt lat="43.97397" lon="7.40143">
        <ele>1483.2</ele>
        <time>2024-07-09T08:27:32Z</time>
      </trkpt>
      <trkpt lat="43.97396" lon="7.40141">
        <ele>1483.2</ele>
        <time>2024-07-09T08:27:33Z</time>
      </trkpt>
      <trkpt lat="43.97396" lon="7.40139">
        <ele>1484</ele>
        <time>2024-07-09T08:27:34Z</time>
      </trkpt>
      <trkpt lat="43.97395" lon="7.40136">
        <ele>1484</ele>
        <time>2024-07-09T08:27:35Z</time>
      </trkpt>
      <trkpt lat="43.97394" lon="7.40134">
        <ele>1484</ele>
        <time>2024-07-09T08:27:36Z</time>
      </trkpt>
      <trkpt lat="43.97392" lon="7.40132">
        <ele>1484</ele>
        <time>2024-07-09T08:27:37Z</time>
      </trkpt>
      <trkpt lat="43.97391" lon="7.40129">
        <ele>1484.6</ele>
        <time>2024-07-09T08:27:38Z</time>
      </trkpt>
      <trkpt lat="43.9739" lon="7.40127">
        <ele>1484.8</ele>
        <time>2024-07-09T08:27:39Z</time>
      </trkpt>
      <trkpt lat="43.9739" lon="7.40124">
        <ele>1484.8</ele>
        <time>2024-07-09T08:27:40Z</time>
      </trkpt>
      <trkpt lat="43.97389" lon="7.40122">
        <ele>1484.8</ele>
        <time>2024-07-09T08:27:41Z</time>
      </trkpt>
      <trkpt lat="43.97389" lon="7.4012">
        <ele>1484.8</ele>
        <time>2024-07-09T08:27:42Z</time>
      </trkpt>
      <trkpt lat="43.97389" lon="7.40118">
        <ele>1485.2</ele>
        <time>2024-07-09T08:27:43Z</time>
      </trkpt>
      <trkpt lat="43.97388" lon="7.40116">
        <ele>1485.2</ele>
        <time>2024-07-09T08:27:44Z</time>
      </trkpt>
      <trkpt lat="43.97388" lon="7.40114">
        <ele>1485.2</ele>
        <time>2024-07-09T08:27:45Z</time>
      </trkpt>
      <trkpt lat="43.97387" lon="7.40111">
        <ele>1485.2</ele>
        <time>2024-07-09T08:27:46Z</time>
      </trkpt>
      <trkpt lat="43.97386" lon="7.40109">
        <ele>1485.2</ele>
        <time>2024-07-09T08:27:47Z</time>
      </trkpt>
      <trkpt lat="43.97385" lon="7.40106">
        <ele>1485.8</ele>
        <time>2024-07-09T08:27:48Z</time>
      </trkpt>
      <trkpt lat="43.97385" lon="7.40104">
        <ele>1485.8</ele>
        <time>2024-07-09T08:27:49Z</time>
      </trkpt>
      <trkpt lat="43.97384" lon="7.40102">
        <ele>1485.8</ele>
        <time>2024-07-09T08:27:50Z</time>
      </trkpt>
      <trkpt lat="43.97383" lon="7.401">
        <ele>1485.8</ele>
        <time>2024-07-09T08:27:51Z</time>
      </trkpt>
      <trkpt lat="43.97383" lon="7.40098">
        <ele>1486.2</ele>
        <time>2024-07-09T08:27:52Z</time>
      </trkpt>
      <trkpt lat="43.97382" lon="7.40096">
        <ele>1486.2</ele>
        <time>2024-07-09T08:27:53Z</time>
      </trkpt>
      <trkpt lat="43.97382" lon="7.40093">
        <ele>1486.6</ele>
        <time>2024-07-09T08:27:54Z</time>
      </trkpt>
      <trkpt lat="43.97382" lon="7.4009">
        <ele>1486.6</ele>
        <time>2024-07-09T08:27:55Z</time>
      </trkpt>
      <trkpt lat="43.97381" lon="7.40088">
        <ele>1486.6</ele>
        <time>2024-07-09T08:27:56Z</time>
      </trkpt>
      <trkpt lat="43.97381" lon="7.40086">
        <ele>1486.8</ele>
        <time>2024-07-09T08:27:57Z</time>
      </trkpt>
      <trkpt lat="43.97381" lon="7.40083">
        <ele>1487</ele>
        <time>2024-07-09T08:27:58Z</time>
      </trkpt>
      <trkpt lat="43.97381" lon="7.40081">
        <ele>1487</ele>
        <time>2024-07-09T08:27:59Z</time>
      </trkpt>
      <trkpt lat="43.97381" lon="7.40079">
        <ele>1487</ele>
        <time>2024-07-09T08:28:00Z</time>
      </trkpt>
      <trkpt lat="43.9738" lon="7.40077">
        <ele>1487.4</ele>
        <time>2024-07-09T08:28:01Z</time>
      </trkpt>
      <trkpt lat="43.9738" lon="7.40074">
        <ele>1487.6</ele>
        <time>2024-07-09T08:28:02Z</time>
      </trkpt>
      <trkpt lat="43.97379" lon="7.40072">
        <ele>1487.6</ele>
        <time>2024-07-09T08:28:03Z</time>
      </trkpt>
      <trkpt lat="43.97379" lon="7.4007">
        <ele>1487.6</ele>
        <time>2024-07-09T08:28:04Z</time>
      </trkpt>
      <trkpt lat="43.9738" lon="7.40067">
        <ele>1487.6</ele>
        <time>2024-07-09T08:28:05Z</time>
      </trkpt>
      <trkpt lat="43.9738" lon="7.40065">
        <ele>1487.8</ele>
        <time>2024-07-09T08:28:06Z</time>
      </trkpt>
      <trkpt lat="43.9738" lon="7.40062">
        <ele>1488</ele>
        <time>2024-07-09T08:28:07Z</time>
      </trkpt>
      <trkpt lat="43.9738" lon="7.4006">
        <ele>1488</ele>
        <time>2024-07-09T08:28:08Z</time>
      </trkpt>
      <trkpt lat="43.9738" lon="7.40058">
        <ele>1488</ele>
        <time>2024-07-09T08:28:09Z</time>
      </trkpt>
      <trkpt lat="43.97379" lon="7.40056">
        <ele>1488.4</ele>
        <time>2024-07-09T08:28:10Z</time>
      </trkpt>
      <trkpt lat="43.97379" lon="7.40054">
        <ele>1488.4</ele>
        <time>2024-07-09T08:28:11Z</time>
      </trkpt>
      <trkpt lat="43.97379" lon="7.40051">
        <ele>1488.4</ele>
        <time>2024-07-09T08:28:12Z</time>
      </trkpt>
      <trkpt lat="43.97378" lon="7.40049">
        <ele>1488.4</ele>
        <time>2024-07-09T08:28:13Z</time>
      </trkpt>
      <trkpt lat="43.97378" lon="7.40047">
        <ele>1488.4</ele>
        <time>2024-07-09T08:28:14Z</time>
      </trkpt>
      <trkpt lat="43.97378" lon="7.40045">
        <ele>1488.4</ele>
        <time>2024-07-09T08:28:15Z</time>
      </trkpt>
      <trkpt lat="43.97377" lon="7.40043">
        <ele>1489</ele>
        <time>2024-07-09T08:28:16Z</time>
      </trkpt>
      <trkpt lat="43.97377" lon="7.40041">
        <ele>1489</ele>
        <time>2024-07-09T08:28:17Z</time>
      </trkpt>
      <trkpt lat="43.97377" lon="7.40038">
        <ele>1489</ele>
        <time>2024-07-09T08:28:18Z</time>
      </trkpt>
      <trkpt lat="43.97377" lon="7.40036">
        <ele>1489.4</ele>
        <time>2024-07-09T08:28:19Z</time>
      </trkpt>
      <trkpt lat="43.97377" lon="7.40034">
        <ele>1489.6</ele>
        <time>2024-07-09T08:28:20Z</time>
      </trkpt>
      <trkpt lat="43.97377" lon="7.40031">
        <ele>1489.6</ele>
        <time>2024-07-09T08:28:21Z</time>
      </trkpt>
      <trkpt lat="43.97377" lon="7.40029">
        <ele>1489.6</ele>
        <time>2024-07-09T08:28:22Z</time>
      </trkpt>
      <trkpt lat="43.97377" lon="7.40027">
        <ele>1489.6</ele>
        <time>2024-07-09T08:28:23Z</time>
      </trkpt>
      <trkpt lat="43.97377" lon="7.40025">
        <ele>1490</ele>
        <time>2024-07-09T08:28:24Z</time>
      </trkpt>
      <trkpt lat="43.97376" lon="7.40023">
        <ele>1490</ele>
        <time>2024-07-09T08:28:25Z</time>
      </trkpt>
      <trkpt lat="43.97377" lon="7.40021">
        <ele>1490</ele>
        <time>2024-07-09T08:28:26Z</time>
      </trkpt>
      <trkpt lat="43.97377" lon="7.40018">
        <ele>1490</ele>
        <time>2024-07-09T08:28:27Z</time>
      </trkpt>
      <trkpt lat="43.97377" lon="7.40016">
        <ele>1490</ele>
        <time>2024-07-09T08:28:28Z</time>
      </trkpt>
      <trkpt lat="43.97377" lon="7.40014">
        <ele>1490</ele>
        <time>2024-07-09T08:28:29Z</time>
      </trkpt>
      <trkpt lat="43.97377" lon="7.40012">
        <ele>1490.8</ele>
        <time>2024-07-09T08:28:30Z</time>
      </trkpt>
      <trkpt lat="43.97377" lon="7.4001">
        <ele>1490.8</ele>
        <time>2024-07-09T08:28:31Z</time>
      </trkpt>
      <trkpt lat="43.97377" lon="7.40008">
        <ele>1490.8</ele>
        <time>2024-07-09T08:28:32Z</time>
      </trkpt>
      <trkpt lat="43.97377" lon="7.40005">
        <ele>1491.2</ele>
        <time>2024-07-09T08:28:33Z</time>
      </trkpt>
      <trkpt lat="43.97376" lon="7.40003">
        <ele>1491.2</ele>
        <time>2024-07-09T08:28:34Z</time>
      </trkpt>
      <trkpt lat="43.97376" lon="7.40001">
        <ele>1491.2</ele>
        <time>2024-07-09T08:28:35Z</time>
      </trkpt>
      <trkpt lat="43.97376" lon="7.39999">
        <ele>1491.2</ele>
        <time>2024-07-09T08:28:36Z</time>
      </trkpt>
      <trkpt lat="43.97376" lon="7.39997">
        <ele>1491.2</ele>
        <time>2024-07-09T08:28:37Z</time>
      </trkpt>
      <trkpt lat="43.97375" lon="7.39995">
        <ele>1491.8</ele>
        <time>2024-07-09T08:28:38Z</time>
      </trkpt>
      <trkpt lat="43.97375" lon="7.39992">
        <ele>1492.2</ele>
        <time>2024-07-09T08:28:39Z</time>
      </trkpt>
      <trkpt lat="43.97375" lon="7.3999">
        <ele>1492.2</ele>
        <time>2024-07-09T08:28:40Z</time>
      </trkpt>
      <trkpt lat="43.97375" lon="7.39988">
        <ele>1492.2</ele>
        <time>2024-07-09T08:28:41Z</time>
      </trkpt>
      <trkpt lat="43.97375" lon="7.39985">
        <ele>1492.6</ele>
        <time>2024-07-09T08:28:42Z</time>
      </trkpt>
      <trkpt lat="43.97375" lon="7.39983">
        <ele>1492.8</ele>
        <time>2024-07-09T08:28:43Z</time>
      </trkpt>
      <trkpt lat="43.97375" lon="7.39981">
        <ele>1492.8</ele>
        <time>2024-07-09T08:28:44Z</time>
      </trkpt>
      <trkpt lat="43.97375" lon="7.39978">
        <ele>1492.8</ele>
        <time>2024-07-09T08:28:45Z</time>
      </trkpt>
      <trkpt lat="43.97375" lon="7.39976">
        <ele>1492.8</ele>
        <time>2024-07-09T08:28:46Z</time>
      </trkpt>
      <trkpt lat="43.97375" lon="7.39974">
        <ele>1493.4</ele>
        <time>2024-07-09T08:28:47Z</time>
      </trkpt>
      <trkpt lat="43.97375" lon="7.39972">
        <ele>1493.4</ele>
        <time>2024-07-09T08:28:48Z</time>
      </trkpt>
      <trkpt lat="43.97375" lon="7.39969">
        <ele>1493.4</ele>
        <time>2024-07-09T08:28:49Z</time>
      </trkpt>
      <trkpt lat="43.97375" lon="7.39967">
        <ele>1493.4</ele>
        <time>2024-07-09T08:28:50Z</time>
      </trkpt>
      <trkpt lat="43.97375" lon="7.39964">
        <ele>1493.8</ele>
        <time>2024-07-09T08:28:51Z</time>
      </trkpt>
      <trkpt lat="43.97375" lon="7.39962">
        <ele>1494</ele>
        <time>2024-07-09T08:28:52Z</time>
      </trkpt>
      <trkpt lat="43.97376" lon="7.3996">
        <ele>1494</ele>
        <time>2024-07-09T08:28:53Z</time>
      </trkpt>
      <trkpt lat="43.97377" lon="7.39958">
        <ele>1494</ele>
        <time>2024-07-09T08:28:54Z</time>
      </trkpt>
      <trkpt lat="43.97378" lon="7.39956">
        <ele>1494.6</ele>
        <time>2024-07-09T08:28:55Z</time>
      </trkpt>
      <trkpt lat="43.97379" lon="7.39955">
        <ele>1494.6</ele>
        <time>2024-07-09T08:28:56Z</time>
      </trkpt>
      <trkpt lat="43.9738" lon="7.39953">
        <ele>1494.6</ele>
        <time>2024-07-09T08:28:57Z</time>
      </trkpt>
      <trkpt lat="43.97381" lon="7.39951">
        <ele>1494.6</ele>
        <time>2024-07-09T08:28:58Z</time>
      </trkpt>
      <trkpt lat="43.97382" lon="7.3995">
        <ele>1494.6</ele>
        <time>2024-07-09T08:28:59Z</time>
      </trkpt>
      <trkpt lat="43.97383" lon="7.39948">
        <ele>1495.2</ele>
        <time>2024-07-09T08:29:00Z</time>
      </trkpt>
      <trkpt lat="43.97384" lon="7.39946">
        <ele>1495.2</ele>
        <time>2024-07-09T08:29:01Z</time>
      </trkpt>
      <trkpt lat="43.97386" lon="7.39945">
        <ele>1495.2</ele>
        <time>2024-07-09T08:29:02Z</time>
      </trkpt>
      <trkpt lat="43.97388" lon="7.39943">
        <ele>1495.2</ele>
        <time>2024-07-09T08:29:03Z</time>
      </trkpt>
      <trkpt lat="43.9739" lon="7.39942">
        <ele>1496</ele>
        <time>2024-07-09T08:29:04Z</time>
      </trkpt>
      <trkpt lat="43.97391" lon="7.39941">
        <ele>1496</ele>
        <time>2024-07-09T08:29:05Z</time>
      </trkpt>
      <trkpt lat="43.97393" lon="7.39939">
        <ele>1496</ele>
        <time>2024-07-09T08:29:06Z</time>
      </trkpt>
      <trkpt lat="43.97394" lon="7.39938">
        <ele>1496</ele>
        <time>2024-07-09T08:29:07Z</time>
      </trkpt>
      <trkpt lat="43.97396" lon="7.39937">
        <ele>1496</ele>
        <time>2024-07-09T08:29:08Z</time>
      </trkpt>
      <trkpt lat="43.97396" lon="7.39935">
        <ele>1496</ele>
        <time>2024-07-09T08:29:09Z</time>
      </trkpt>
      <trkpt lat="43.97397" lon="7.39933">
        <ele>1496.6</ele>
        <time>2024-07-09T08:29:10Z</time>
      </trkpt>
      <trkpt lat="43.97398" lon="7.39931">
        <ele>1496.6</ele>
        <time>2024-07-09T08:29:11Z</time>
      </trkpt>
      <trkpt lat="43.97399" lon="7.39929">
        <ele>1496.6</ele>
        <time>2024-07-09T08:29:12Z</time>
      </trkpt>
      <trkpt lat="43.974" lon="7.39928">
        <ele>1496.6</ele>
        <time>2024-07-09T08:29:13Z</time>
      </trkpt>
      <trkpt lat="43.97401" lon="7.39926">
        <ele>1497.2</ele>
        <time>2024-07-09T08:29:14Z</time>
      </trkpt>
      <trkpt lat="43.97403" lon="7.39924">
        <ele>1497.4</ele>
        <time>2024-07-09T08:29:15Z</time>
      </trkpt>
      <trkpt lat="43.97404" lon="7.39922">
        <ele>1497.4</ele>
        <time>2024-07-09T08:29:16Z</time>
      </trkpt>
      <trkpt lat="43.97405" lon="7.3992">
        <ele>1497.4</ele>
        <time>2024-07-09T08:29:17Z</time>
      </trkpt>
      <trkpt lat="43.97406" lon="7.39918">
        <ele>1498</ele>
        <time>2024-07-09T08:29:18Z</time>
      </trkpt>
      <trkpt lat="43.97408" lon="7.39916">
        <ele>1498</ele>
        <time>2024-07-09T08:29:19Z</time>
      </trkpt>
      <trkpt lat="43.97409" lon="7.39914">
        <ele>1498</ele>
        <time>2024-07-09T08:29:20Z</time>
      </trkpt>
      <trkpt lat="43.9741" lon="7.39912">
        <ele>1498</ele>
        <time>2024-07-09T08:29:21Z</time>
      </trkpt>
      <trkpt lat="43.9741" lon="7.39911">
        <ele>1498</ele>
        <time>2024-07-09T08:29:22Z</time>
      </trkpt>
      <trkpt lat="43.97412" lon="7.39909">
        <ele>1498.6</ele>
        <time>2024-07-09T08:29:23Z</time>
      </trkpt>
      <trkpt lat="43.97413" lon="7.39907">
        <ele>1498.8</ele>
        <time>2024-07-09T08:29:24Z</time>
      </trkpt>
      <trkpt lat="43.97414" lon="7.39905">
        <ele>1498.8</ele>
        <time>2024-07-09T08:29:25Z</time>
      </trkpt>
      <trkpt lat="43.97415" lon="7.39904">
        <ele>1498.8</ele>
        <time>2024-07-09T08:29:26Z</time>
      </trkpt>
      <trkpt lat="43.97416" lon="7.39902">
        <ele>1499.2</ele>
        <time>2024-07-09T08:29:27Z</time>
      </trkpt>
      <trkpt lat="43.97417" lon="7.39901">
        <ele>1499.2</ele>
        <time>2024-07-09T08:29:28Z</time>
      </trkpt>
      <trkpt lat="43.97419" lon="7.39899">
        <ele>1499.2</ele>
        <time>2024-07-09T08:29:29Z</time>
      </trkpt>
      <trkpt lat="43.9742" lon="7.39898">
        <ele>1499.2</ele>
        <time>2024-07-09T08:29:30Z</time>
      </trkpt>
      <trkpt lat="43.97422" lon="7.39897">
        <ele>1499.2</ele>
        <time>2024-07-09T08:29:31Z</time>
      </trkpt>
      <trkpt lat="43.97423" lon="7.39895">
        <ele>1499.8</ele>
        <time>2024-07-09T08:29:32Z</time>
      </trkpt>
      <trkpt lat="43.97424" lon="7.39894">
        <ele>1500</ele>
        <time>2024-07-09T08:29:33Z</time>
      </trkpt>
      <trkpt lat="43.97425" lon="7.39893">
        <ele>1500</ele>
        <time>2024-07-09T08:29:34Z</time>
      </trkpt>
      <trkpt lat="43.97427" lon="7.39892">
        <ele>1500</ele>
        <time>2024-07-09T08:29:35Z</time>
      </trkpt>
      <trkpt lat="43.97428" lon="7.3989">
        <ele>1500.4</ele>
        <time>2024-07-09T08:29:36Z</time>
      </trkpt>
      <trkpt lat="43.9743" lon="7.39889">
        <ele>1500.6</ele>
        <time>2024-07-09T08:29:37Z</time>
      </trkpt>
      <trkpt lat="43.97431" lon="7.39888">
        <ele>1500.6</ele>
        <time>2024-07-09T08:29:38Z</time>
      </trkpt>
      <trkpt lat="43.97433" lon="7.39887">
        <ele>1500.6</ele>
        <time>2024-07-09T08:29:39Z</time>
      </trkpt>
      <trkpt lat="43.97434" lon="7.39886">
        <ele>1500.6</ele>
        <time>2024-07-09T08:29:40Z</time>
      </trkpt>
      <trkpt lat="43.97436" lon="7.39885">
        <ele>1501.4</ele>
        <time>2024-07-09T08:29:41Z</time>
      </trkpt>
      <trkpt lat="43.97437" lon="7.39884">
        <ele>1501.4</ele>
        <time>2024-07-09T08:29:42Z</time>
      </trkpt>
      <trkpt lat="43.97438" lon="7.39882">
        <ele>1501.4</ele>
        <time>2024-07-09T08:29:43Z</time>
      </trkpt>
      <trkpt lat="43.9744" lon="7.39881">
        <ele>1501.4</ele>
        <time>2024-07-09T08:29:44Z</time>
      </trkpt>
      <trkpt lat="43.9744" lon="7.3988">
        <ele>1502</ele>
        <time>2024-07-09T08:29:45Z</time>
      </trkpt>
      <trkpt lat="43.97442" lon="7.39879">
        <ele>1502</ele>
        <time>2024-07-09T08:29:46Z</time>
      </trkpt>
      <trkpt lat="43.97443" lon="7.39878">
        <ele>1502</ele>
        <time>2024-07-09T08:29:47Z</time>
      </trkpt>
      <trkpt lat="43.97445" lon="7.39877">
        <ele>1502</ele>
        <time>2024-07-09T08:29:48Z</time>
      </trkpt>
      <trkpt lat="43.97446" lon="7.39875">
        <ele>1502.4</ele>
        <time>2024-07-09T08:29:49Z</time>
      </trkpt>
      <trkpt lat="43.97447" lon="7.39874">
        <ele>1502.4</ele>
        <time>2024-07-09T08:29:50Z</time>
      </trkpt>
      <trkpt lat="43.97448" lon="7.39873">
        <ele>1502.6</ele>
        <time>2024-07-09T08:29:51Z</time>
      </trkpt>
      <trkpt lat="43.97449" lon="7.39872">
        <ele>1502.6</ele>
        <time>2024-07-09T08:29:52Z</time>
      </trkpt>
      <trkpt lat="43.9745" lon="7.39871">
        <ele>1502.6</ele>
        <time>2024-07-09T08:29:53Z</time>
      </trkpt>
      <trkpt lat="43.97452" lon="7.39869">
        <ele>1503</ele>
        <time>2024-07-09T08:29:54Z</time>
      </trkpt>
      <trkpt lat="43.97453" lon="7.39868">
        <ele>1503.2</ele>
        <time>2024-07-09T08:29:55Z</time>
      </trkpt>
      <trkpt lat="43.97454" lon="7.39866">
        <ele>1503.2</ele>
        <time>2024-07-09T08:29:56Z</time>
      </trkpt>
      <trkpt lat="43.97455" lon="7.39865">
        <ele>1503.2</ele>
        <time>2024-07-09T08:29:57Z</time>
      </trkpt>
      <trkpt lat="43.97457" lon="7.39864">
        <ele>1503.2</ele>
        <time>2024-07-09T08:29:58Z</time>
      </trkpt>
      <trkpt lat="43.97458" lon="7.39863">
        <ele>1504</ele>
        <time>2024-07-09T08:29:59Z</time>
      </trkpt>
      <trkpt lat="43.9746" lon="7.39862">
        <ele>1504</ele>
        <time>2024-07-09T08:30:00Z</time>
      </trkpt>
      <trkpt lat="43.97461" lon="7.39861">
        <ele>1504</ele>
        <time>2024-07-09T08:30:01Z</time>
      </trkpt>
      <trkpt lat="43.97462" lon="7.39859">
        <ele>1504.4</ele>
        <time>2024-07-09T08:30:02Z</time>
      </trkpt>
      <trkpt lat="43.97463" lon="7.39857">
        <ele>1504.4</ele>
        <time>2024-07-09T08:30:03Z</time>
      </trkpt>
      <trkpt lat="43.97465" lon="7.39856">
        <ele>1504.6</ele>
        <time>2024-07-09T08:30:04Z</time>
      </trkpt>
      <trkpt lat="43.97466" lon="7.39854">
        <ele>1504.6</ele>
        <time>2024-07-09T08:30:05Z</time>
      </trkpt>
      <trkpt lat="43.97466" lon="7.39853">
        <ele>1504.6</ele>
        <time>2024-07-09T08:30:06Z</time>
      </trkpt>
      <trkpt lat="43.97468" lon="7.39851">
        <ele>1505</ele>
        <time>2024-07-09T08:30:07Z</time>
      </trkpt>
      <trkpt lat="43.97468" lon="7.3985">
        <ele>1505.2</ele>
        <time>2024-07-09T08:30:08Z</time>
      </trkpt>
      <trkpt lat="43.97469" lon="7.39848">
        <ele>1505.2</ele>
        <time>2024-07-09T08:30:09Z</time>
      </trkpt>
      <trkpt lat="43.9747" lon="7.39846">
        <ele>1505.2</ele>
        <time>2024-07-09T08:30:10Z</time>
      </trkpt>
      <trkpt lat="43.9747" lon="7.39844">
        <ele>1505.6</ele>
        <time>2024-07-09T08:30:11Z</time>
      </trkpt>
      <trkpt lat="43.97471" lon="7.39843">
        <ele>1505.8</ele>
        <time>2024-07-09T08:30:12Z</time>
      </trkpt>
      <trkpt lat="43.97472" lon="7.39841">
        <ele>1505.8</ele>
        <time>2024-07-09T08:30:13Z</time>
      </trkpt>
      <trkpt lat="43.97473" lon="7.39839">
        <ele>1505.8</ele>
        <time>2024-07-09T08:30:14Z</time>
      </trkpt>
      <trkpt lat="43.97474" lon="7.39837">
        <ele>1505.8</ele>
        <time>2024-07-09T08:30:15Z</time>
      </trkpt>
      <trkpt lat="43.97475" lon="7.39835">
        <ele>1506.4</ele>
        <time>2024-07-09T08:30:16Z</time>
      </trkpt>
      <trkpt lat="43.97476" lon="7.39834">
        <ele>1506.4</ele>
        <time>2024-07-09T08:30:17Z</time>
      </trkpt>
      <trkpt lat="43.97477" lon="7.39832">
        <ele>1506.4</ele>
        <time>2024-07-09T08:30:18Z</time>
      </trkpt>
      <trkpt lat="43.97478" lon="7.3983">
        <ele>1506.4</ele>
        <time>2024-07-09T08:30:19Z</time>
      </trkpt>
      <trkpt lat="43.97479" lon="7.39828">
        <ele>1506.8</ele>
        <time>2024-07-09T08:30:20Z</time>
      </trkpt>
      <trkpt lat="43.97479" lon="7.39826">
        <ele>1507</ele>
        <time>2024-07-09T08:30:21Z</time>
      </trkpt>
      <trkpt lat="43.97479" lon="7.39824">
        <ele>1507</ele>
        <time>2024-07-09T08:30:22Z</time>
      </trkpt>
      <trkpt lat="43.97479" lon="7.39821">
        <ele>1507</ele>
        <time>2024-07-09T08:30:23Z</time>
      </trkpt>
      <trkpt lat="43.97479" lon="7.39819">
        <ele>1507.6</ele>
        <time>2024-07-09T08:30:24Z</time>
      </trkpt>
      <trkpt lat="43.9748" lon="7.39817">
        <ele>1507.8</ele>
        <time>2024-07-09T08:30:25Z</time>
      </trkpt>
      <trkpt lat="43.97481" lon="7.39815">
        <ele>1507.8</ele>
        <time>2024-07-09T08:30:26Z</time>
      </trkpt>
      <trkpt lat="43.97481" lon="7.39813">
        <ele>1507.8</ele>
        <time>2024-07-09T08:30:27Z</time>
      </trkpt>
      <trkpt lat="43.97481" lon="7.39811">
        <ele>1507.8</ele>
        <time>2024-07-09T08:30:28Z</time>
      </trkpt>
      <trkpt lat="43.97481" lon="7.39809">
        <ele>1508.2</ele>
        <time>2024-07-09T08:30:29Z</time>
      </trkpt>
      <trkpt lat="43.97482" lon="7.39807">
        <ele>1508.2</ele>
        <time>2024-07-09T08:30:30Z</time>
      </trkpt>
      <trkpt lat="43.97482" lon="7.39804">
        <ele>1508.2</ele>
        <time>2024-07-09T08:30:31Z</time>
      </trkpt>
      <trkpt lat="43.97482" lon="7.39802">
        <ele>1508.2</ele>
        <time>2024-07-09T08:30:32Z</time>
      </trkpt>
      <trkpt lat="43.97483" lon="7.398">
        <ele>1508.8</ele>
        <time>2024-07-09T08:30:33Z</time>
      </trkpt>
      <trkpt lat="43.97484" lon="7.39798">
        <ele>1508.8</ele>
        <time>2024-07-09T08:30:34Z</time>
      </trkpt>
      <trkpt lat="43.97484" lon="7.39796">
        <ele>1509</ele>
        <time>2024-07-09T08:30:35Z</time>
      </trkpt>
      <trkpt lat="43.97485" lon="7.39794">
        <ele>1509</ele>
        <time>2024-07-09T08:30:36Z</time>
      </trkpt>
      <trkpt lat="43.97485" lon="7.39791">
        <ele>1509</ele>
        <time>2024-07-09T08:30:37Z</time>
      </trkpt>
      <trkpt lat="43.97485" lon="7.39789">
        <ele>1509</ele>
        <time>2024-07-09T08:30:38Z</time>
      </trkpt>
      <trkpt lat="43.97486" lon="7.39787">
        <ele>1509.4</ele>
        <time>2024-07-09T08:30:39Z</time>
      </trkpt>
      <trkpt lat="43.97486" lon="7.39784">
        <ele>1509.6</ele>
        <time>2024-07-09T08:30:40Z</time>
      </trkpt>
      <trkpt lat="43.97486" lon="7.39782">
        <ele>1509.6</ele>
        <time>2024-07-09T08:30:41Z</time>
      </trkpt>
      <trkpt lat="43.97487" lon="7.3978">
        <ele>1509.6</ele>
        <time>2024-07-09T08:30:42Z</time>
      </trkpt>
      <trkpt lat="43.97487" lon="7.39778">
        <ele>1510</ele>
        <time>2024-07-09T08:30:43Z</time>
      </trkpt>
      <trkpt lat="43.97488" lon="7.39776">
        <ele>1510.2</ele>
        <time>2024-07-09T08:30:44Z</time>
      </trkpt>
      <trkpt lat="43.97489" lon="7.39774">
        <ele>1510.2</ele>
        <time>2024-07-09T08:30:45Z</time>
      </trkpt>
      <trkpt lat="43.9749" lon="7.39772">
        <ele>1510.2</ele>
        <time>2024-07-09T08:30:46Z</time>
      </trkpt>
      <trkpt lat="43.97491" lon="7.3977">
        <ele>1510.6</ele>
        <time>2024-07-09T08:30:47Z</time>
      </trkpt>
      <trkpt lat="43.97491" lon="7.39769">
        <ele>1510.8</ele>
        <time>2024-07-09T08:30:48Z</time>
      </trkpt>
      <trkpt lat="43.97492" lon="7.39767">
        <ele>1510.8</ele>
        <time>2024-07-09T08:30:49Z</time>
      </trkpt>
      <trkpt lat="43.97493" lon="7.39765">
        <ele>1510.8</ele>
        <time>2024-07-09T08:30:50Z</time>
      </trkpt>
      <trkpt lat="43.97494" lon="7.39763">
        <ele>1510.8</ele>
        <time>2024-07-09T08:30:51Z</time>
      </trkpt>
      <trkpt lat="43.97495" lon="7.39761">
        <ele>1511.2</ele>
        <time>2024-07-09T08:30:52Z</time>
      </trkpt>
      <trkpt lat="43.97496" lon="7.3976">
        <ele>1511.4</ele>
        <time>2024-07-09T08:30:53Z</time>
      </trkpt>
      <trkpt lat="43.97497" lon="7.39758">
        <ele>1511.4</ele>
        <time>2024-07-09T08:30:54Z</time>
      </trkpt>
      <trkpt lat="43.97498" lon="7.39756">
        <ele>1511.4</ele>
        <time>2024-07-09T08:30:55Z</time>
      </trkpt>
      <trkpt lat="43.97499" lon="7.39754">
        <ele>1511.8</ele>
        <time>2024-07-09T08:30:56Z</time>
      </trkpt>
      <trkpt lat="43.975" lon="7.39752">
        <ele>1512</ele>
        <time>2024-07-09T08:30:57Z</time>
      </trkpt>
      <trkpt lat="43.975" lon="7.3975">
        <ele>1512</ele>
        <time>2024-07-09T08:30:58Z</time>
      </trkpt>
      <trkpt lat="43.97501" lon="7.39749">
        <ele>1512</ele>
        <time>2024-07-09T08:30:59Z</time>
      </trkpt>
      <trkpt lat="43.97503" lon="7.39747">
        <ele>1512.4</ele>
        <time>2024-07-09T08:31:00Z</time>
      </trkpt>
      <trkpt lat="43.97504" lon="7.39746">
        <ele>1512.8</ele>
        <time>2024-07-09T08:31:01Z</time>
      </trkpt>
      <trkpt lat="43.97505" lon="7.39744">
        <ele>1512.8</ele>
        <time>2024-07-09T08:31:02Z</time>
      </trkpt>
      <trkpt lat="43.97507" lon="7.39743">
        <ele>1512.8</ele>
        <time>2024-07-09T08:31:03Z</time>
      </trkpt>
      <trkpt lat="43.97508" lon="7.39741">
        <ele>1512.8</ele>
        <time>2024-07-09T08:31:04Z</time>
      </trkpt>
      <trkpt lat="43.97509" lon="7.3974">
        <ele>1513</ele>
        <time>2024-07-09T08:31:05Z</time>
      </trkpt>
      <trkpt lat="43.9751" lon="7.39739">
        <ele>1513.4</ele>
        <time>2024-07-09T08:31:06Z</time>
      </trkpt>
      <trkpt lat="43.97511" lon="7.39737">
        <ele>1513.4</ele>
        <time>2024-07-09T08:31:07Z</time>
      </trkpt>
      <trkpt lat="43.97513" lon="7.39736">
        <ele>1513.4</ele>
        <time>2024-07-09T08:31:08Z</time>
      </trkpt>
      <trkpt lat="43.97515" lon="7.39734">
        <ele>1513.6</ele>
        <time>2024-07-09T08:31:09Z</time>
      </trkpt>
      <trkpt lat="43.97516" lon="7.39733">
        <ele>1513.8</ele>
        <time>2024-07-09T08:31:10Z</time>
      </trkpt>
      <trkpt lat="43.97517" lon="7.39731">
        <ele>1513.8</ele>
        <time>2024-07-09T08:31:11Z</time>
      </trkpt>
      <trkpt lat="43.97518" lon="7.39729">
        <ele>1513.8</ele>
        <time>2024-07-09T08:31:12Z</time>
      </trkpt>
      <trkpt lat="43.9752" lon="7.39728">
        <ele>1513.8</ele>
        <time>2024-07-09T08:31:13Z</time>
      </trkpt>
      <trkpt lat="43.97521" lon="7.39726">
        <ele>1514.4</ele>
        <time>2024-07-09T08:31:14Z</time>
      </trkpt>
      <trkpt lat="43.97522" lon="7.39725">
        <ele>1514.4</ele>
        <time>2024-07-09T08:31:15Z</time>
      </trkpt>
      <trkpt lat="43.97523" lon="7.39724">
        <ele>1514.4</ele>
        <time>2024-07-09T08:31:16Z</time>
      </trkpt>
      <trkpt lat="43.97525" lon="7.39722">
        <ele>1514.4</ele>
        <time>2024-07-09T08:31:17Z</time>
      </trkpt>
      <trkpt lat="43.97526" lon="7.39721">
        <ele>1514.4</ele>
        <time>2024-07-09T08:31:18Z</time>
      </trkpt>
      <trkpt lat="43.97528" lon="7.3972">
        <ele>1515</ele>
        <time>2024-07-09T08:31:19Z</time>
      </trkpt>
      <trkpt lat="43.97529" lon="7.39719">
        <ele>1515</ele>
        <time>2024-07-09T08:31:20Z</time>
      </trkpt>
      <trkpt lat="43.9753" lon="7.39717">
        <ele>1515</ele>
        <time>2024-07-09T08:31:21Z</time>
      </trkpt>
      <trkpt lat="43.97532" lon="7.39716">
        <ele>1515</ele>
        <time>2024-07-09T08:31:22Z</time>
      </trkpt>
      <trkpt lat="43.97533" lon="7.39715">
        <ele>1515.4</ele>
        <time>2024-07-09T08:31:23Z</time>
      </trkpt>
      <trkpt lat="43.97534" lon="7.39714">
        <ele>1515.6</ele>
        <time>2024-07-09T08:31:24Z</time>
      </trkpt>
      <trkpt lat="43.97536" lon="7.39713">
        <ele>1515.6</ele>
        <time>2024-07-09T08:31:25Z</time>
      </trkpt>
      <trkpt lat="43.97537" lon="7.39712">
        <ele>1515.6</ele>
        <time>2024-07-09T08:31:26Z</time>
      </trkpt>
      <trkpt lat="43.97539" lon="7.39711">
        <ele>1516</ele>
        <time>2024-07-09T08:31:27Z</time>
      </trkpt>
      <trkpt lat="43.9754" lon="7.39709">
        <ele>1516</ele>
        <time>2024-07-09T08:31:28Z</time>
      </trkpt>
      <trkpt lat="43.97541" lon="7.39708">
        <ele>1516.2</ele>
        <time>2024-07-09T08:31:29Z</time>
      </trkpt>
      <trkpt lat="43.97543" lon="7.39707">
        <ele>1516.2</ele>
        <time>2024-07-09T08:31:30Z</time>
      </trkpt>
      <trkpt lat="43.97543" lon="7.39705">
        <ele>1516.2</ele>
        <time>2024-07-09T08:31:31Z</time>
      </trkpt>
      <trkpt lat="43.97544" lon="7.39704">
        <ele>1516.8</ele>
        <time>2024-07-09T08:31:32Z</time>
      </trkpt>
      <trkpt lat="43.97545" lon="7.39702">
        <ele>1517</ele>
        <time>2024-07-09T08:31:33Z</time>
      </trkpt>
      <trkpt lat="43.97545" lon="7.39701">
        <ele>1517</ele>
        <time>2024-07-09T08:31:34Z</time>
      </trkpt>
      <trkpt lat="43.97547" lon="7.39699">
        <ele>1517</ele>
        <time>2024-07-09T08:31:35Z</time>
      </trkpt>
      <trkpt lat="43.97548" lon="7.39698">
        <ele>1517</ele>
        <time>2024-07-09T08:31:36Z</time>
      </trkpt>
      <trkpt lat="43.9755" lon="7.39698">
        <ele>1517.4</ele>
        <time>2024-07-09T08:31:37Z</time>
      </trkpt>
      <trkpt lat="43.97552" lon="7.39697">
        <ele>1517.4</ele>
        <time>2024-07-09T08:31:38Z</time>
      </trkpt>
      <trkpt lat="43.97554" lon="7.39696">
        <ele>1517.4</ele>
        <time>2024-07-09T08:31:39Z</time>
      </trkpt>
      <trkpt lat="43.97555" lon="7.39696">
        <ele>1517.4</ele>
        <time>2024-07-09T08:31:40Z</time>
      </trkpt>
      <trkpt lat="43.97557" lon="7.39695">
        <ele>1517.8</ele>
        <time>2024-07-09T08:31:41Z</time>
      </trkpt>
      <trkpt lat="43.97558" lon="7.39695">
        <ele>1518</ele>
        <time>2024-07-09T08:31:42Z</time>
      </trkpt>
      <trkpt lat="43.9756" lon="7.39694">
        <ele>1518</ele>
        <time>2024-07-09T08:31:43Z</time>
      </trkpt>
      <trkpt lat="43.97561" lon="7.39693">
        <ele>1518</ele>
        <time>2024-07-09T08:31:44Z</time>
      </trkpt>
      <trkpt lat="43.97563" lon="7.39692">
        <ele>1518.4</ele>
        <time>2024-07-09T08:31:45Z</time>
      </trkpt>
      <trkpt lat="43.97565" lon="7.39691">
        <ele>1518.4</ele>
        <time>2024-07-09T08:31:46Z</time>
      </trkpt>
      <trkpt lat="43.97567" lon="7.3969">
        <ele>1518.4</ele>
        <time>2024-07-09T08:31:47Z</time>
      </trkpt>
      <trkpt lat="43.97568" lon="7.39688">
        <ele>1518.4</ele>
        <time>2024-07-09T08:31:48Z</time>
      </trkpt>
      <trkpt lat="43.97569" lon="7.39687">
        <ele>1519</ele>
        <time>2024-07-09T08:31:49Z</time>
      </trkpt>
      <trkpt lat="43.9757" lon="7.39686">
        <ele>1519</ele>
        <time>2024-07-09T08:31:50Z</time>
      </trkpt>
      <trkpt lat="43.97572" lon="7.39684">
        <ele>1519</ele>
        <time>2024-07-09T08:31:51Z</time>
      </trkpt>
      <trkpt lat="43.97574" lon="7.39683">
        <ele>1519</ele>
        <time>2024-07-09T08:31:52Z</time>
      </trkpt>
      <trkpt lat="43.97575" lon="7.39681">
        <ele>1519</ele>
        <time>2024-07-09T08:31:53Z</time>
      </trkpt>
      <trkpt lat="43.97575" lon="7.39679">
        <ele>1519.6</ele>
        <time>2024-07-09T08:31:54Z</time>
      </trkpt>
      <trkpt lat="43.97576" lon="7.39678">
        <ele>1519.6</ele>
        <time>2024-07-09T08:31:55Z</time>
      </trkpt>
      <trkpt lat="43.97577" lon="7.39676">
        <ele>1519.6</ele>
        <time>2024-07-09T08:31:56Z</time>
      </trkpt>
      <trkpt lat="43.97578" lon="7.39674">
        <ele>1519.6</ele>
        <time>2024-07-09T08:31:57Z</time>
      </trkpt>
      <trkpt lat="43.9758" lon="7.39673">
        <ele>1520.2</ele>
        <time>2024-07-09T08:31:58Z</time>
      </trkpt>
      <trkpt lat="43.97581" lon="7.39671">
        <ele>1520.2</ele>
        <time>2024-07-09T08:31:59Z</time>
      </trkpt>
      <trkpt lat="43.97582" lon="7.39669">
        <ele>1520.2</ele>
        <time>2024-07-09T08:32:00Z</time>
      </trkpt>
      <trkpt lat="43.97583" lon="7.39668">
        <ele>1520.2</ele>
        <time>2024-07-09T08:32:01Z</time>
      </trkpt>
      <trkpt lat="43.97584" lon="7.39666">
        <ele>1520.2</ele>
        <time>2024-07-09T08:32:02Z</time>
      </trkpt>
      <trkpt lat="43.97585" lon="7.39664">
        <ele>1520.2</ele>
        <time>2024-07-09T08:32:03Z</time>
      </trkpt>
      <trkpt lat="43.97585" lon="7.39662">
        <ele>1520.6</ele>
        <time>2024-07-09T08:32:04Z</time>
      </trkpt>
      <trkpt lat="43.97586" lon="7.3966">
        <ele>1520.6</ele>
        <time>2024-07-09T08:32:05Z</time>
      </trkpt>
      <trkpt lat="43.97586" lon="7.39658">
        <ele>1520.6</ele>
        <time>2024-07-09T08:32:06Z</time>
      </trkpt>
      <trkpt lat="43.97586" lon="7.39656">
        <ele>1520.6</ele>
        <time>2024-07-09T08:32:07Z</time>
      </trkpt>
      <trkpt lat="43.97587" lon="7.39654">
        <ele>1521.2</ele>
        <time>2024-07-09T08:32:08Z</time>
      </trkpt>
      <trkpt lat="43.97588" lon="7.39652">
        <ele>1521.2</ele>
        <time>2024-07-09T08:32:09Z</time>
      </trkpt>
      <trkpt lat="43.97589" lon="7.3965">
        <ele>1521.2</ele>
        <time>2024-07-09T08:32:10Z</time>
      </trkpt>
      <trkpt lat="43.97589" lon="7.39647">
        <ele>1521.2</ele>
        <time>2024-07-09T08:32:11Z</time>
      </trkpt>
      <trkpt lat="43.97589" lon="7.39645">
        <ele>1521.8</ele>
        <time>2024-07-09T08:32:12Z</time>
      </trkpt>
      <trkpt lat="43.97589" lon="7.39643">
        <ele>1521.6</ele>
        <time>2024-07-09T08:32:13Z</time>
      </trkpt>
      <trkpt lat="43.97589" lon="7.3964">
        <ele>1521.6</ele>
        <time>2024-07-09T08:32:14Z</time>
      </trkpt>
      <trkpt lat="43.97589" lon="7.39638">
        <ele>1521.6</ele>
        <time>2024-07-09T08:32:15Z</time>
      </trkpt>
      <trkpt lat="43.97589" lon="7.39636">
        <ele>1521.6</ele>
        <time>2024-07-09T08:32:16Z</time>
      </trkpt>
      <trkpt lat="43.97588" lon="7.39634">
        <ele>1522.2</ele>
        <time>2024-07-09T08:32:17Z</time>
      </trkpt>
      <trkpt lat="43.97588" lon="7.39632">
        <ele>1522.4</ele>
        <time>2024-07-09T08:32:18Z</time>
      </trkpt>
      <trkpt lat="43.97587" lon="7.3963">
        <ele>1522.4</ele>
        <time>2024-07-09T08:32:19Z</time>
      </trkpt>
      <trkpt lat="43.97587" lon="7.39627">
        <ele>1522.4</ele>
        <time>2024-07-09T08:32:20Z</time>
      </trkpt>
      <trkpt lat="43.97586" lon="7.39625">
        <ele>1522.8</ele>
        <time>2024-07-09T08:32:21Z</time>
      </trkpt>
      <trkpt lat="43.97586" lon="7.39623">
        <ele>1522.8</ele>
        <time>2024-07-09T08:32:22Z</time>
      </trkpt>
      <trkpt lat="43.97586" lon="7.39621">
        <ele>1522.8</ele>
        <time>2024-07-09T08:32:23Z</time>
      </trkpt>
      <trkpt lat="43.97586" lon="7.39619">
        <ele>1522.8</ele>
        <time>2024-07-09T08:32:24Z</time>
      </trkpt>
      <trkpt lat="43.97586" lon="7.39617">
        <ele>1523.4</ele>
        <time>2024-07-09T08:32:25Z</time>
      </trkpt>
      <trkpt lat="43.97586" lon="7.39615">
        <ele>1523.6</ele>
        <time>2024-07-09T08:32:26Z</time>
      </trkpt>
      <trkpt lat="43.97586" lon="7.39613">
        <ele>1523.6</ele>
        <time>2024-07-09T08:32:27Z</time>
      </trkpt>
      <trkpt lat="43.97586" lon="7.3961">
        <ele>1523.6</ele>
        <time>2024-07-09T08:32:28Z</time>
      </trkpt>
      <trkpt lat="43.97586" lon="7.39608">
        <ele>1523.6</ele>
        <time>2024-07-09T08:32:29Z</time>
      </trkpt>
      <trkpt lat="43.97585" lon="7.39606">
        <ele>1524</ele>
        <time>2024-07-09T08:32:30Z</time>
      </trkpt>
      <trkpt lat="43.97585" lon="7.39604">
        <ele>1524.2</ele>
        <time>2024-07-09T08:32:31Z</time>
      </trkpt>
      <trkpt lat="43.97585" lon="7.39602">
        <ele>1524.2</ele>
        <time>2024-07-09T08:32:32Z</time>
      </trkpt>
      <trkpt lat="43.97586" lon="7.396">
        <ele>1524.2</ele>
        <time>2024-07-09T08:32:33Z</time>
      </trkpt>
      <trkpt lat="43.97585" lon="7.39598">
        <ele>1524.6</ele>
        <time>2024-07-09T08:32:34Z</time>
      </trkpt>
      <trkpt lat="43.97586" lon="7.39596">
        <ele>1524.8</ele>
        <time>2024-07-09T08:32:35Z</time>
      </trkpt>
      <trkpt lat="43.97586" lon="7.39594">
        <ele>1524.8</ele>
        <time>2024-07-09T08:32:36Z</time>
      </trkpt>
      <trkpt lat="43.97586" lon="7.39592">
        <ele>1524.8</ele>
        <time>2024-07-09T08:32:37Z</time>
      </trkpt>
      <trkpt lat="43.97586" lon="7.3959">
        <ele>1525.2</ele>
        <time>2024-07-09T08:32:38Z</time>
      </trkpt>
      <trkpt lat="43.97585" lon="7.39589">
        <ele>1525.6</ele>
        <time>2024-07-09T08:32:39Z</time>
      </trkpt>
      <trkpt lat="43.97586" lon="7.39587">
        <ele>1525.6</ele>
        <time>2024-07-09T08:32:40Z</time>
      </trkpt>
      <trkpt lat="43.97585" lon="7.39584">
        <ele>1525.6</ele>
        <time>2024-07-09T08:32:41Z</time>
      </trkpt>
      <trkpt lat="43.97585" lon="7.39582">
        <ele>1525.6</ele>
        <time>2024-07-09T08:32:42Z</time>
      </trkpt>
      <trkpt lat="43.97585" lon="7.39581">
        <ele>1525.6</ele>
        <time>2024-07-09T08:32:43Z</time>
      </trkpt>
      <trkpt lat="43.97584" lon="7.39579">
        <ele>1525.8</ele>
        <time>2024-07-09T08:32:44Z</time>
      </trkpt>
      <trkpt lat="43.97584" lon="7.39577">
        <ele>1526</ele>
        <time>2024-07-09T08:32:45Z</time>
      </trkpt>
      <trkpt lat="43.97582" lon="7.39575">
        <ele>1526</ele>
        <time>2024-07-09T08:32:46Z</time>
      </trkpt>
      <trkpt lat="43.97581" lon="7.39572">
        <ele>1526</ele>
        <time>2024-07-09T08:32:47Z</time>
      </trkpt>
      <trkpt lat="43.9758" lon="7.3957">
        <ele>1526.4</ele>
        <time>2024-07-09T08:32:48Z</time>
      </trkpt>
      <trkpt lat="43.9758" lon="7.39568">
        <ele>1526.6</ele>
        <time>2024-07-09T08:32:49Z</time>
      </trkpt>
      <trkpt lat="43.97579" lon="7.39566">
        <ele>1526.6</ele>
        <time>2024-07-09T08:32:50Z</time>
      </trkpt>
      <trkpt lat="43.97578" lon="7.39564">
        <ele>1526.6</ele>
        <time>2024-07-09T08:32:51Z</time>
      </trkpt>
      <trkpt lat="43.97577" lon="7.39562">
        <ele>1527.2</ele>
        <time>2024-07-09T08:32:52Z</time>
      </trkpt>
      <trkpt lat="43.97576" lon="7.3956">
        <ele>1527.2</ele>
        <time>2024-07-09T08:32:53Z</time>
      </trkpt>
      <trkpt lat="43.97576" lon="7.39558">
        <ele>1527.2</ele>
        <time>2024-07-09T08:32:54Z</time>
      </trkpt>
      <trkpt lat="43.97575" lon="7.39556">
        <ele>1527.2</ele>
        <time>2024-07-09T08:32:55Z</time>
      </trkpt>
      <trkpt lat="43.97574" lon="7.39554">
        <ele>1527.2</ele>
        <time>2024-07-09T08:32:56Z</time>
      </trkpt>
      <trkpt lat="43.97574" lon="7.39551">
        <ele>1527.6</ele>
        <time>2024-07-09T08:32:57Z</time>
      </trkpt>
      <trkpt lat="43.97574" lon="7.39549">
        <ele>1527.8</ele>
        <time>2024-07-09T08:32:58Z</time>
      </trkpt>
      <trkpt lat="43.97574" lon="7.39547">
        <ele>1527.8</ele>
        <time>2024-07-09T08:32:59Z</time>
      </trkpt>
      <trkpt lat="43.97574" lon="7.39545">
        <ele>1527.8</ele>
        <time>2024-07-09T08:33:00Z</time>
      </trkpt>
      <trkpt lat="43.97574" lon="7.39543">
        <ele>1528.2</ele>
        <time>2024-07-09T08:33:01Z</time>
      </trkpt>
      <trkpt lat="43.97573" lon="7.3954">
        <ele>1528.2</ele>
        <time>2024-07-09T08:33:02Z</time>
      </trkpt>
      <trkpt lat="43.97573" lon="7.39537">
        <ele>1528.4</ele>
        <time>2024-07-09T08:33:03Z</time>
      </trkpt>
      <trkpt lat="43.97573" lon="7.39535">
        <ele>1528.4</ele>
        <time>2024-07-09T08:33:04Z</time>
      </trkpt>
      <trkpt lat="43.97573" lon="7.39533">
        <ele>1528.4</ele>
        <time>2024-07-09T08:33:05Z</time>
      </trkpt>
      <trkpt lat="43.97572" lon="7.3953">
        <ele>1528.8</ele>
        <time>2024-07-09T08:33:06Z</time>
      </trkpt>
      <trkpt lat="43.97572" lon="7.39528">
        <ele>1529</ele>
        <time>2024-07-09T08:33:07Z</time>
      </trkpt>
      <trkpt lat="43.97573" lon="7.39526">
        <ele>1529</ele>
        <time>2024-07-09T08:33:08Z</time>
      </trkpt>
      <trkpt lat="43.97572" lon="7.39524">
        <ele>1529</ele>
        <time>2024-07-09T08:33:09Z</time>
      </trkpt>
      <trkpt lat="43.97572" lon="7.39522">
        <ele>1529.4</ele>
        <time>2024-07-09T08:33:10Z</time>
      </trkpt>
      <trkpt lat="43.97572" lon="7.3952">
        <ele>1529.6</ele>
        <time>2024-07-09T08:33:11Z</time>
      </trkpt>
      <trkpt lat="43.97572" lon="7.39518">
        <ele>1529.6</ele>
        <time>2024-07-09T08:33:12Z</time>
      </trkpt>
      <trkpt lat="43.97572" lon="7.39516">
        <ele>1529.6</ele>
        <time>2024-07-09T08:33:13Z</time>
      </trkpt>
      <trkpt lat="43.97572" lon="7.39514">
        <ele>1529.6</ele>
        <time>2024-07-09T08:33:14Z</time>
      </trkpt>
      <trkpt lat="43.97573" lon="7.39512">
        <ele>1530.4</ele>
        <time>2024-07-09T08:33:15Z</time>
      </trkpt>
      <trkpt lat="43.97574" lon="7.3951">
        <ele>1530.4</ele>
        <time>2024-07-09T08:33:16Z</time>
      </trkpt>
      <trkpt lat="43.97574" lon="7.39508">
        <ele>1530.4</ele>
        <time>2024-07-09T08:33:17Z</time>
      </trkpt>
      <trkpt lat="43.97575" lon="7.39506">
        <ele>1530.4</ele>
        <time>2024-07-09T08:33:18Z</time>
      </trkpt>
      <trkpt lat="43.97575" lon="7.39503">
        <ele>1530.8</ele>
        <time>2024-07-09T08:33:19Z</time>
      </trkpt>
      <trkpt lat="43.97575" lon="7.39501">
        <ele>1530.8</ele>
        <time>2024-07-09T08:33:20Z</time>
      </trkpt>
      <trkpt lat="43.97575" lon="7.39499">
        <ele>1530.8</ele>
        <time>2024-07-09T08:33:21Z</time>
      </trkpt>
      <trkpt lat="43.97576" lon="7.39497">
        <ele>1530.8</ele>
        <time>2024-07-09T08:33:22Z</time>
      </trkpt>
      <trkpt lat="43.97576" lon="7.39495">
        <ele>1531.4</ele>
        <time>2024-07-09T08:33:23Z</time>
      </trkpt>
      <trkpt lat="43.97577" lon="7.39493">
        <ele>1531.4</ele>
        <time>2024-07-09T08:33:24Z</time>
      </trkpt>
      <trkpt lat="43.97577" lon="7.3949">
        <ele>1531.6</ele>
        <time>2024-07-09T08:33:25Z</time>
      </trkpt>
      <trkpt lat="43.97577" lon="7.39488">
        <ele>1531.6</ele>
        <time>2024-07-09T08:33:26Z</time>
      </trkpt>
      <trkpt lat="43.97578" lon="7.39486">
        <ele>1531.6</ele>
        <time>2024-07-09T08:33:27Z</time>
      </trkpt>
      <trkpt lat="43.97579" lon="7.39485">
        <ele>1532</ele>
        <time>2024-07-09T08:33:28Z</time>
      </trkpt>
      <trkpt lat="43.9758" lon="7.39483">
        <ele>1532</ele>
        <time>2024-07-09T08:33:29Z</time>
      </trkpt>
      <trkpt lat="43.97581" lon="7.39481">
        <ele>1532.4</ele>
        <time>2024-07-09T08:33:30Z</time>
      </trkpt>
      <trkpt lat="43.97583" lon="7.3948">
        <ele>1532.4</ele>
        <time>2024-07-09T08:33:31Z</time>
      </trkpt>
      <trkpt lat="43.97584" lon="7.39479">
        <ele>1532.4</ele>
        <time>2024-07-09T08:33:32Z</time>
      </trkpt>
      <trkpt lat="43.97586" lon="7.39478">
        <ele>1532.8</ele>
        <time>2024-07-09T08:33:33Z</time>
      </trkpt>
      <trkpt lat="43.97587" lon="7.39477">
        <ele>1532.8</ele>
        <time>2024-07-09T08:33:34Z</time>
      </trkpt>
      <trkpt lat="43.97588" lon="7.39477">
        <ele>1532.8</ele>
        <time>2024-07-09T08:33:35Z</time>
      </trkpt>
      <trkpt lat="43.97588" lon="7.39477">
        <ele>1532.8</ele>
        <time>2024-07-09T08:33:36Z</time>
      </trkpt>
      <trkpt lat="43.97588" lon="7.39477">
        <ele>1533.2</ele>
        <time>2024-07-09T08:33:37Z</time>
      </trkpt>
      <trkpt lat="43.97578" lon="7.39473">
        <ele>1533.8</ele>
        <time>2024-07-09T08:37:24Z</time>
      </trkpt>
      <trkpt lat="43.9758" lon="7.39472">
        <ele>1534</ele>
        <time>2024-07-09T08:37:25Z</time>
      </trkpt>
      <trkpt lat="43.97581" lon="7.39472">
        <ele>1534</ele>
        <time>2024-07-09T08:37:26Z</time>
      </trkpt>
      <trkpt lat="43.97583" lon="7.39471">
        <ele>1534</ele>
        <time>2024-07-09T08:37:27Z</time>
      </trkpt>
      <trkpt lat="43.97585" lon="7.3947">
        <ele>1534</ele>
        <time>2024-07-09T08:37:28Z</time>
      </trkpt>
      <trkpt lat="43.97587" lon="7.3947">
        <ele>1534.2</ele>
        <time>2024-07-09T08:37:29Z</time>
      </trkpt>
      <trkpt lat="43.97589" lon="7.3947">
        <ele>1534.6</ele>
        <time>2024-07-09T08:37:30Z</time>
      </trkpt>
      <trkpt lat="43.97591" lon="7.3947">
        <ele>1534.6</ele>
        <time>2024-07-09T08:37:31Z</time>
      </trkpt>
      <trkpt lat="43.97593" lon="7.3947">
        <ele>1534.6</ele>
        <time>2024-07-09T08:37:32Z</time>
      </trkpt>
      <trkpt lat="43.97595" lon="7.39469">
        <ele>1534.8</ele>
        <time>2024-07-09T08:37:33Z</time>
      </trkpt>
      <trkpt lat="43.97597" lon="7.39468">
        <ele>1535</ele>
        <time>2024-07-09T08:37:34Z</time>
      </trkpt>
      <trkpt lat="43.97598" lon="7.39468">
        <ele>1535</ele>
        <time>2024-07-09T08:37:35Z</time>
      </trkpt>
      <trkpt lat="43.97599" lon="7.39467">
        <ele>1535</ele>
        <time>2024-07-09T08:37:36Z</time>
      </trkpt>
      <trkpt lat="43.97601" lon="7.39466">
        <ele>1535</ele>
        <time>2024-07-09T08:37:37Z</time>
      </trkpt>
      <trkpt lat="43.97602" lon="7.39465">
        <ele>1535</ele>
        <time>2024-07-09T08:37:38Z</time>
      </trkpt>
      <trkpt lat="43.97603" lon="7.39464">
        <ele>1535.6</ele>
        <time>2024-07-09T08:37:39Z</time>
      </trkpt>
      <trkpt lat="43.97605" lon="7.39463">
        <ele>1535.6</ele>
        <time>2024-07-09T08:37:40Z</time>
      </trkpt>
      <trkpt lat="43.97607" lon="7.39463">
        <ele>1535.6</ele>
        <time>2024-07-09T08:37:41Z</time>
      </trkpt>
      <trkpt lat="43.97609" lon="7.39463">
        <ele>1535.6</ele>
        <time>2024-07-09T08:37:42Z</time>
      </trkpt>
      <trkpt lat="43.9761" lon="7.39462">
        <ele>1535.6</ele>
        <time>2024-07-09T08:37:43Z</time>
      </trkpt>
      <trkpt lat="43.97612" lon="7.39462">
        <ele>1536</ele>
        <time>2024-07-09T08:37:44Z</time>
      </trkpt>
      <trkpt lat="43.97613" lon="7.39461">
        <ele>1536</ele>
        <time>2024-07-09T08:37:45Z</time>
      </trkpt>
      <trkpt lat="43.97614" lon="7.3946">
        <ele>1536</ele>
        <time>2024-07-09T08:37:46Z</time>
      </trkpt>
      <trkpt lat="43.97616" lon="7.39459">
        <ele>1536.2</ele>
        <time>2024-07-09T08:37:47Z</time>
      </trkpt>
      <trkpt lat="43.97618" lon="7.39459">
        <ele>1536.4</ele>
        <time>2024-07-09T08:37:48Z</time>
      </trkpt>
      <trkpt lat="43.9762" lon="7.39458">
        <ele>1536.4</ele>
        <time>2024-07-09T08:37:49Z</time>
      </trkpt>
      <trkpt lat="43.97621" lon="7.39458">
        <ele>1536.4</ele>
        <time>2024-07-09T08:37:50Z</time>
      </trkpt>
      <trkpt lat="43.97623" lon="7.39457">
        <ele>1537</ele>
        <time>2024-07-09T08:37:51Z</time>
      </trkpt>
      <trkpt lat="43.97624" lon="7.39456">
        <ele>1537</ele>
        <time>2024-07-09T08:37:52Z</time>
      </trkpt>
      <trkpt lat="43.97626" lon="7.39456">
        <ele>1537.2</ele>
        <time>2024-07-09T08:37:53Z</time>
      </trkpt>
      <trkpt lat="43.97628" lon="7.39456">
        <ele>1537.2</ele>
        <time>2024-07-09T08:37:54Z</time>
      </trkpt>
      <trkpt lat="43.97629" lon="7.39455">
        <ele>1537.2</ele>
        <time>2024-07-09T08:37:55Z</time>
      </trkpt>
      <trkpt lat="43.97631" lon="7.39454">
        <ele>1537.4</ele>
        <time>2024-07-09T08:37:56Z</time>
      </trkpt>
      <trkpt lat="43.97632" lon="7.39454">
        <ele>1537.6</ele>
        <time>2024-07-09T08:37:57Z</time>
      </trkpt>
      <trkpt lat="43.97634" lon="7.39452">
        <ele>1537.6</ele>
        <time>2024-07-09T08:37:58Z</time>
      </trkpt>
      <trkpt lat="43.97635" lon="7.39451">
        <ele>1537.6</ele>
        <time>2024-07-09T08:37:59Z</time>
      </trkpt>
      <trkpt lat="43.97637" lon="7.3945">
        <ele>1538.2</ele>
        <time>2024-07-09T08:38:00Z</time>
      </trkpt>
      <trkpt lat="43.97638" lon="7.39449">
        <ele>1538.2</ele>
        <time>2024-07-09T08:38:01Z</time>
      </trkpt>
      <trkpt lat="43.97639" lon="7.39447">
        <ele>1538.2</ele>
        <time>2024-07-09T08:38:02Z</time>
      </trkpt>
      <trkpt lat="43.9764" lon="7.39446">
        <ele>1538.2</ele>
        <time>2024-07-09T08:38:03Z</time>
      </trkpt>
      <trkpt lat="43.97641" lon="7.39444">
        <ele>1538.2</ele>
        <time>2024-07-09T08:38:04Z</time>
      </trkpt>
      <trkpt lat="43.97642" lon="7.39442">
        <ele>1538.8</ele>
        <time>2024-07-09T08:38:05Z</time>
      </trkpt>
      <trkpt lat="43.97643" lon="7.3944">
        <ele>1538.8</ele>
        <time>2024-07-09T08:38:06Z</time>
      </trkpt>
      <trkpt lat="43.97644" lon="7.39438">
        <ele>1538.8</ele>
        <time>2024-07-09T08:38:07Z</time>
      </trkpt>
      <trkpt lat="43.97645" lon="7.39436">
        <ele>1538.8</ele>
        <time>2024-07-09T08:38:08Z</time>
      </trkpt>
      <trkpt lat="43.97646" lon="7.39434">
        <ele>1539.4</ele>
        <time>2024-07-09T08:38:09Z</time>
      </trkpt>
      <trkpt lat="43.97647" lon="7.39432">
        <ele>1539.4</ele>
        <time>2024-07-09T08:38:10Z</time>
      </trkpt>
      <trkpt lat="43.97648" lon="7.3943">
        <ele>1539.4</ele>
        <time>2024-07-09T08:38:11Z</time>
      </trkpt>
      <trkpt lat="43.97648" lon="7.39428">
        <ele>1539.4</ele>
        <time>2024-07-09T08:38:12Z</time>
      </trkpt>
      <trkpt lat="43.97649" lon="7.39426">
        <ele>1540</ele>
        <time>2024-07-09T08:38:13Z</time>
      </trkpt>
      <trkpt lat="43.97649" lon="7.39424">
        <ele>1540</ele>
        <time>2024-07-09T08:38:14Z</time>
      </trkpt>
      <trkpt lat="43.97649" lon="7.39422">
        <ele>1540</ele>
        <time>2024-07-09T08:38:15Z</time>
      </trkpt>
      <trkpt lat="43.9765" lon="7.3942">
        <ele>1540</ele>
        <time>2024-07-09T08:38:16Z</time>
      </trkpt>
      <trkpt lat="43.9765" lon="7.39418">
        <ele>1540</ele>
        <time>2024-07-09T08:38:17Z</time>
      </trkpt>
      <trkpt lat="43.9765" lon="7.39416">
        <ele>1540.6</ele>
        <time>2024-07-09T08:38:18Z</time>
      </trkpt>
      <trkpt lat="43.97651" lon="7.39413">
        <ele>1540.8</ele>
        <time>2024-07-09T08:38:19Z</time>
      </trkpt>
      <trkpt lat="43.97651" lon="7.39411">
        <ele>1540.8</ele>
        <time>2024-07-09T08:38:20Z</time>
      </trkpt>
      <trkpt lat="43.97651" lon="7.39409">
        <ele>1540.8</ele>
        <time>2024-07-09T08:38:21Z</time>
      </trkpt>
      <trkpt lat="43.97651" lon="7.39406">
        <ele>1541.2</ele>
        <time>2024-07-09T08:38:22Z</time>
      </trkpt>
      <trkpt lat="43.97651" lon="7.39404">
        <ele>1541.2</ele>
        <time>2024-07-09T08:38:23Z</time>
      </trkpt>
      <trkpt lat="43.97651" lon="7.39402">
        <ele>1541.2</ele>
        <time>2024-07-09T08:38:24Z</time>
      </trkpt>
      <trkpt lat="43.97651" lon="7.394">
        <ele>1541.2</ele>
        <time>2024-07-09T08:38:25Z</time>
      </trkpt>
      <trkpt lat="43.97651" lon="7.39398">
        <ele>1541.2</ele>
        <time>2024-07-09T08:38:26Z</time>
      </trkpt>
      <trkpt lat="43.97651" lon="7.39396">
        <ele>1541.6</ele>
        <time>2024-07-09T08:38:27Z</time>
      </trkpt>
      <trkpt lat="43.97651" lon="7.39394">
        <ele>1542</ele>
        <time>2024-07-09T08:38:28Z</time>
      </trkpt>
      <trkpt lat="43.97651" lon="7.39392">
        <ele>1542</ele>
        <time>2024-07-09T08:38:29Z</time>
      </trkpt>
      <trkpt lat="43.97651" lon="7.3939">
        <ele>1542</ele>
        <time>2024-07-09T08:38:30Z</time>
      </trkpt>
      <trkpt lat="43.97651" lon="7.39387">
        <ele>1542</ele>
        <time>2024-07-09T08:38:31Z</time>
      </trkpt>
      <trkpt lat="43.97651" lon="7.39385">
        <ele>1542.4</ele>
        <time>2024-07-09T08:38:32Z</time>
      </trkpt>
      <trkpt lat="43.97651" lon="7.39383">
        <ele>1542.6</ele>
        <time>2024-07-09T08:38:33Z</time>
      </trkpt>
      <trkpt lat="43.97652" lon="7.3938">
        <ele>1542.6</ele>
        <time>2024-07-09T08:38:34Z</time>
      </trkpt>
      <trkpt lat="43.97652" lon="7.39378">
        <ele>1542.6</ele>
        <time>2024-07-09T08:38:35Z</time>
      </trkpt>
      <trkpt lat="43.97652" lon="7.39376">
        <ele>1543</ele>
        <time>2024-07-09T08:38:36Z</time>
      </trkpt>
      <trkpt lat="43.97653" lon="7.39373">
        <ele>1543.2</ele>
        <time>2024-07-09T08:38:37Z</time>
      </trkpt>
      <trkpt lat="43.97653" lon="7.39371">
        <ele>1543.2</ele>
        <time>2024-07-09T08:38:38Z</time>
      </trkpt>
      <trkpt lat="43.97654" lon="7.39369">
        <ele>1543.2</ele>
        <time>2024-07-09T08:38:39Z</time>
      </trkpt>
      <trkpt lat="43.97654" lon="7.39367">
        <ele>1543.2</ele>
        <time>2024-07-09T08:38:40Z</time>
      </trkpt>
      <trkpt lat="43.97654" lon="7.39364">
        <ele>1543.8</ele>
        <time>2024-07-09T08:38:41Z</time>
      </trkpt>
      <trkpt lat="43.97655" lon="7.39362">
        <ele>1543.8</ele>
        <time>2024-07-09T08:38:42Z</time>
      </trkpt>
      <trkpt lat="43.97656" lon="7.3936">
        <ele>1543.8</ele>
        <time>2024-07-09T08:38:43Z</time>
      </trkpt>
      <trkpt lat="43.97657" lon="7.39358">
        <ele>1543.8</ele>
        <time>2024-07-09T08:38:44Z</time>
      </trkpt>
      <trkpt lat="43.97658" lon="7.39356">
        <ele>1544.2</ele>
        <time>2024-07-09T08:38:45Z</time>
      </trkpt>
      <trkpt lat="43.97659" lon="7.39354">
        <ele>1544.4</ele>
        <time>2024-07-09T08:38:46Z</time>
      </trkpt>
      <trkpt lat="43.9766" lon="7.39352">
        <ele>1544.4</ele>
        <time>2024-07-09T08:38:47Z</time>
      </trkpt>
      <trkpt lat="43.97661" lon="7.3935">
        <ele>1544.4</ele>
        <time>2024-07-09T08:38:48Z</time>
      </trkpt>
      <trkpt lat="43.97661" lon="7.39348">
        <ele>1544.8</ele>
        <time>2024-07-09T08:38:49Z</time>
      </trkpt>
      <trkpt lat="43.97661" lon="7.39346">
        <ele>1545</ele>
        <time>2024-07-09T08:38:50Z</time>
      </trkpt>
      <trkpt lat="43.97662" lon="7.39344">
        <ele>1545</ele>
        <time>2024-07-09T08:38:51Z</time>
      </trkpt>
      <trkpt lat="43.97663" lon="7.39342">
        <ele>1545</ele>
        <time>2024-07-09T08:38:52Z</time>
      </trkpt>
      <trkpt lat="43.97663" lon="7.3934">
        <ele>1545.4</ele>
        <time>2024-07-09T08:38:53Z</time>
      </trkpt>
      <trkpt lat="43.97664" lon="7.39339">
        <ele>1545.4</ele>
        <time>2024-07-09T08:38:54Z</time>
      </trkpt>
      <trkpt lat="43.97665" lon="7.39336">
        <ele>1545.4</ele>
        <time>2024-07-09T08:38:55Z</time>
      </trkpt>
      <trkpt lat="43.97665" lon="7.39334">
        <ele>1545.4</ele>
        <time>2024-07-09T08:38:56Z</time>
      </trkpt>
      <trkpt lat="43.97665" lon="7.39331">
        <ele>1545.4</ele>
        <time>2024-07-09T08:38:57Z</time>
      </trkpt>
      <trkpt lat="43.97666" lon="7.39328">
        <ele>1546</ele>
        <time>2024-07-09T08:38:58Z</time>
      </trkpt>
      <trkpt lat="43.97667" lon="7.39326">
        <ele>1546.2</ele>
        <time>2024-07-09T08:38:59Z</time>
      </trkpt>
      <trkpt lat="43.97667" lon="7.39324">
        <ele>1546.2</ele>
        <time>2024-07-09T08:39:00Z</time>
      </trkpt>
      <trkpt lat="43.97668" lon="7.39321">
        <ele>1546.2</ele>
        <time>2024-07-09T08:39:01Z</time>
      </trkpt>
      <trkpt lat="43.97669" lon="7.39319">
        <ele>1546.4</ele>
        <time>2024-07-09T08:39:02Z</time>
      </trkpt>
      <trkpt lat="43.9767" lon="7.39317">
        <ele>1546.6</ele>
        <time>2024-07-09T08:39:03Z</time>
      </trkpt>
      <trkpt lat="43.97671" lon="7.39315">
        <ele>1546.6</ele>
        <time>2024-07-09T08:39:04Z</time>
      </trkpt>
      <trkpt lat="43.97672" lon="7.39313">
        <ele>1546.6</ele>
        <time>2024-07-09T08:39:05Z</time>
      </trkpt>
      <trkpt lat="43.97673" lon="7.39311">
        <ele>1547</ele>
        <time>2024-07-09T08:39:06Z</time>
      </trkpt>
      <trkpt lat="43.97675" lon="7.3931">
        <ele>1547</ele>
        <time>2024-07-09T08:39:07Z</time>
      </trkpt>
      <trkpt lat="43.97675" lon="7.39307">
        <ele>1547.2</ele>
        <time>2024-07-09T08:39:08Z</time>
      </trkpt>
      <trkpt lat="43.97676" lon="7.39305">
        <ele>1547.2</ele>
        <time>2024-07-09T08:39:09Z</time>
      </trkpt>
      <trkpt lat="43.97676" lon="7.39303">
        <ele>1547.2</ele>
        <time>2024-07-09T08:39:10Z</time>
      </trkpt>
      <trkpt lat="43.97677" lon="7.393">
        <ele>1547.2</ele>
        <time>2024-07-09T08:39:11Z</time>
      </trkpt>
      <trkpt lat="43.97677" lon="7.39298">
        <ele>1547.6</ele>
        <time>2024-07-09T08:39:12Z</time>
      </trkpt>
      <trkpt lat="43.97678" lon="7.39297">
        <ele>1548</ele>
        <time>2024-07-09T08:39:13Z</time>
      </trkpt>
      <trkpt lat="43.97679" lon="7.39295">
        <ele>1548</ele>
        <time>2024-07-09T08:39:14Z</time>
      </trkpt>
      <trkpt lat="43.9768" lon="7.39293">
        <ele>1548</ele>
        <time>2024-07-09T08:39:15Z</time>
      </trkpt>
      <trkpt lat="43.9768" lon="7.39291">
        <ele>1548.4</ele>
        <time>2024-07-09T08:39:16Z</time>
      </trkpt>
      <trkpt lat="43.97681" lon="7.39289">
        <ele>1548.6</ele>
        <time>2024-07-09T08:39:17Z</time>
      </trkpt>
      <trkpt lat="43.97682" lon="7.39287">
        <ele>1548.6</ele>
        <time>2024-07-09T08:39:18Z</time>
      </trkpt>
      <trkpt lat="43.97683" lon="7.39285">
        <ele>1548.6</ele>
        <time>2024-07-09T08:39:19Z</time>
      </trkpt>
      <trkpt lat="43.97685" lon="7.39283">
        <ele>1548.6</ele>
        <time>2024-07-09T08:39:20Z</time>
      </trkpt>
      <trkpt lat="43.97685" lon="7.39281">
        <ele>1548.8</ele>
        <time>2024-07-09T08:39:21Z</time>
      </trkpt>
      <trkpt lat="43.97686" lon="7.3928">
        <ele>1549.2</ele>
        <time>2024-07-09T08:39:22Z</time>
      </trkpt>
      <trkpt lat="43.97687" lon="7.39278">
        <ele>1549.2</ele>
        <time>2024-07-09T08:39:23Z</time>
      </trkpt>
      <trkpt lat="43.97688" lon="7.39276">
        <ele>1549.2</ele>
        <time>2024-07-09T08:39:24Z</time>
      </trkpt>
      <trkpt lat="43.97688" lon="7.39274">
        <ele>1549.8</ele>
        <time>2024-07-09T08:39:25Z</time>
      </trkpt>
      <trkpt lat="43.97688" lon="7.39272">
        <ele>1549.8</ele>
        <time>2024-07-09T08:39:26Z</time>
      </trkpt>
      <trkpt lat="43.97689" lon="7.39269">
        <ele>1549.8</ele>
        <time>2024-07-09T08:39:27Z</time>
      </trkpt>
      <trkpt lat="43.97689" lon="7.39267">
        <ele>1549.8</ele>
        <time>2024-07-09T08:39:28Z</time>
      </trkpt>
      <trkpt lat="43.9769" lon="7.39265">
        <ele>1549.8</ele>
        <time>2024-07-09T08:39:29Z</time>
      </trkpt>
      <trkpt lat="43.97691" lon="7.39262">
        <ele>1550.2</ele>
        <time>2024-07-09T08:39:30Z</time>
      </trkpt>
      <trkpt lat="43.97692" lon="7.3926">
        <ele>1550.2</ele>
        <time>2024-07-09T08:39:31Z</time>
      </trkpt>
      <trkpt lat="43.97692" lon="7.39258">
        <ele>1550.2</ele>
        <time>2024-07-09T08:39:32Z</time>
      </trkpt>
      <trkpt lat="43.97693" lon="7.39256">
        <ele>1550.2</ele>
        <time>2024-07-09T08:39:33Z</time>
      </trkpt>
      <trkpt lat="43.97693" lon="7.39254">
        <ele>1550.8</ele>
        <time>2024-07-09T08:39:34Z</time>
      </trkpt>
      <trkpt lat="43.97694" lon="7.39251">
        <ele>1551</ele>
        <time>2024-07-09T08:39:35Z</time>
      </trkpt>
      <trkpt lat="43.97694" lon="7.39248">
        <ele>1551</ele>
        <time>2024-07-09T08:39:36Z</time>
      </trkpt>
      <trkpt lat="43.97694" lon="7.39245">
        <ele>1551</ele>
        <time>2024-07-09T08:39:37Z</time>
      </trkpt>
      <trkpt lat="43.97694" lon="7.39243">
        <ele>1551</ele>
        <time>2024-07-09T08:39:38Z</time>
      </trkpt>
      <trkpt lat="43.97694" lon="7.39241">
        <ele>1551.6</ele>
        <time>2024-07-09T08:39:39Z</time>
      </trkpt>
      <trkpt lat="43.97694" lon="7.39238">
        <ele>1551.6</ele>
        <time>2024-07-09T08:39:40Z</time>
      </trkpt>
      <trkpt lat="43.97695" lon="7.39237">
        <ele>1551.6</ele>
        <time>2024-07-09T08:39:41Z</time>
      </trkpt>
      <trkpt lat="43.97695" lon="7.39235">
        <ele>1551.6</ele>
        <time>2024-07-09T08:39:42Z</time>
      </trkpt>
      <trkpt lat="43.97696" lon="7.39233">
        <ele>1552</ele>
        <time>2024-07-09T08:39:43Z</time>
      </trkpt>
      <trkpt lat="43.97695" lon="7.3923">
        <ele>1552.2</ele>
        <time>2024-07-09T08:39:44Z</time>
      </trkpt>
      <trkpt lat="43.97695" lon="7.39228">
        <ele>1552.2</ele>
        <time>2024-07-09T08:39:45Z</time>
      </trkpt>
      <trkpt lat="43.97696" lon="7.39226">
        <ele>1552.2</ele>
        <time>2024-07-09T08:39:46Z</time>
      </trkpt>
      <trkpt lat="43.97696" lon="7.39223">
        <ele>1552.2</ele>
        <time>2024-07-09T08:39:47Z</time>
      </trkpt>
      <trkpt lat="43.97696" lon="7.39221">
        <ele>1552.6</ele>
        <time>2024-07-09T08:39:48Z</time>
      </trkpt>
      <trkpt lat="43.97697" lon="7.39218">
        <ele>1552.6</ele>
        <time>2024-07-09T08:39:49Z</time>
      </trkpt>
      <trkpt lat="43.97696" lon="7.39216">
        <ele>1552.6</ele>
        <time>2024-07-09T08:39:50Z</time>
      </trkpt>
      <trkpt lat="43.97697" lon="7.39213">
        <ele>1552.6</ele>
        <time>2024-07-09T08:39:51Z</time>
      </trkpt>
      <trkpt lat="43.97697" lon="7.39211">
        <ele>1552.8</ele>
        <time>2024-07-09T08:39:52Z</time>
      </trkpt>
      <trkpt lat="43.97698" lon="7.39209">
        <ele>1552.8</ele>
        <time>2024-07-09T08:39:53Z</time>
      </trkpt>
      <trkpt lat="43.97698" lon="7.39206">
        <ele>1552.8</ele>
        <time>2024-07-09T08:39:54Z</time>
      </trkpt>
      <trkpt lat="43.97699" lon="7.39204">
        <ele>1552.8</ele>
        <time>2024-07-09T08:39:55Z</time>
      </trkpt>
      <trkpt lat="43.97699" lon="7.39201">
        <ele>1552.8</ele>
        <time>2024-07-09T08:39:56Z</time>
      </trkpt>
      <trkpt lat="43.977" lon="7.39199">
        <ele>1553</ele>
        <time>2024-07-09T08:39:57Z</time>
      </trkpt>
      <trkpt lat="43.97701" lon="7.39197">
        <ele>1553</ele>
        <time>2024-07-09T08:39:58Z</time>
      </trkpt>
      <trkpt lat="43.97701" lon="7.39195">
        <ele>1553</ele>
        <time>2024-07-09T08:39:59Z</time>
      </trkpt>
      <trkpt lat="43.97701" lon="7.39192">
        <ele>1553</ele>
        <time>2024-07-09T08:40:00Z</time>
      </trkpt>
      <trkpt lat="43.97701" lon="7.3919">
        <ele>1553</ele>
        <time>2024-07-09T08:40:01Z</time>
      </trkpt>
      <trkpt lat="43.97702" lon="7.39188">
        <ele>1552.8</ele>
        <time>2024-07-09T08:40:02Z</time>
      </trkpt>
      <trkpt lat="43.97701" lon="7.39185">
        <ele>1552.8</ele>
        <time>2024-07-09T08:40:03Z</time>
      </trkpt>
      <trkpt lat="43.977" lon="7.39183">
        <ele>1552.8</ele>
        <time>2024-07-09T08:40:04Z</time>
      </trkpt>
      <trkpt lat="43.97698" lon="7.39183">
        <ele>1552.2</ele>
        <time>2024-07-09T08:40:05Z</time>
      </trkpt>
      <trkpt lat="43.97697" lon="7.39183">
        <ele>1552.2</ele>
        <time>2024-07-09T08:40:06Z</time>
      </trkpt>
      <trkpt lat="43.97696" lon="7.39184">
        <ele>1552.2</ele>
        <time>2024-07-09T08:40:07Z</time>
      </trkpt>
      <trkpt lat="43.97695" lon="7.39185">
        <ele>1552.2</ele>
        <time>2024-07-09T08:40:08Z</time>
      </trkpt>
      <trkpt lat="43.97694" lon="7.39186">
        <ele>1552.2</ele>
        <time>2024-07-09T08:40:09Z</time>
      </trkpt>
      <trkpt lat="43.97693" lon="7.39186">
        <ele>1552.2</ele>
        <time>2024-07-09T08:40:10Z</time>
      </trkpt>
      <trkpt lat="43.97692" lon="7.39186">
        <ele>1552.4</ele>
        <time>2024-07-09T08:40:11Z</time>
      </trkpt>
      <trkpt lat="43.97691" lon="7.39184">
        <ele>1552.4</ele>
        <time>2024-07-09T08:40:12Z</time>
      </trkpt>
      <trkpt lat="43.97692" lon="7.39182">
        <ele>1552.4</ele>
        <time>2024-07-09T08:40:13Z</time>
      </trkpt>
      <trkpt lat="43.97693" lon="7.39181">
        <ele>1552.4</ele>
        <time>2024-07-09T08:40:14Z</time>
      </trkpt>
      <trkpt lat="43.97695" lon="7.3918">
        <ele>1552</ele>
        <time>2024-07-09T08:40:15Z</time>
      </trkpt>
      <trkpt lat="43.97696" lon="7.39182">
        <ele>1552</ele>
        <time>2024-07-09T08:40:16Z</time>
      </trkpt>
      <trkpt lat="43.97697" lon="7.39183">
        <ele>1552</ele>
        <time>2024-07-09T08:40:17Z</time>
      </trkpt>
      <trkpt lat="43.97698" lon="7.39184">
        <ele>1552</ele>
        <time>2024-07-09T08:40:18Z</time>
      </trkpt>
      <trkpt lat="43.97698" lon="7.39186">
        <ele>1552.2</ele>
        <time>2024-07-09T08:40:19Z</time>
      </trkpt>
      <trkpt lat="43.97699" lon="7.39188">
        <ele>1552.2</ele>
        <time>2024-07-09T08:40:20Z</time>
      </trkpt>
      <trkpt lat="43.97699" lon="7.39189">
        <ele>1552.2</ele>
        <time>2024-07-09T08:40:21Z</time>
      </trkpt>
      <trkpt lat="43.977" lon="7.3919">
        <ele>1552.2</ele>
        <time>2024-07-09T08:40:22Z</time>
      </trkpt>
      <trkpt lat="43.977" lon="7.3919">
        <ele>1552</ele>
        <time>2024-07-09T08:40:23Z</time>
      </trkpt>
      <trkpt lat="43.977" lon="7.3919">
        <ele>1552</ele>
        <time>2024-07-09T08:40:24Z</time>
      </trkpt>
      <trkpt lat="43.97702" lon="7.39188">
        <ele>1551.4</ele>
        <time>2024-07-09T08:41:01Z</time>
      </trkpt>
      <trkpt lat="43.97703" lon="7.39186">
        <ele>1551.4</ele>
        <time>2024-07-09T08:41:02Z</time>
      </trkpt>
      <trkpt lat="43.97704" lon="7.39184">
        <ele>1551.6</ele>
        <time>2024-07-09T08:41:03Z</time>
      </trkpt>
      <trkpt lat="43.97706" lon="7.39182">
        <ele>1551.6</ele>
        <time>2024-07-09T08:41:04Z</time>
      </trkpt>
      <trkpt lat="43.97708" lon="7.3918">
        <ele>1551.6</ele>
        <time>2024-07-09T08:41:05Z</time>
      </trkpt>
      <trkpt lat="43.9771" lon="7.39179">
        <ele>1551.6</ele>
        <time>2024-07-09T08:41:06Z</time>
      </trkpt>
      <trkpt lat="43.97712" lon="7.39178">
        <ele>1551.2</ele>
        <time>2024-07-09T08:41:07Z</time>
      </trkpt>
      <trkpt lat="43.97714" lon="7.39178">
        <ele>1551.4</ele>
        <time>2024-07-09T08:41:08Z</time>
      </trkpt>
      <trkpt lat="43.97716" lon="7.39177">
        <ele>1551.4</ele>
        <time>2024-07-09T08:41:09Z</time>
      </trkpt>
      <trkpt lat="43.97718" lon="7.39176">
        <ele>1551.4</ele>
        <time>2024-07-09T08:41:10Z</time>
      </trkpt>
      <trkpt lat="43.97721" lon="7.39175">
        <ele>1551.6</ele>
        <time>2024-07-09T08:41:11Z</time>
      </trkpt>
      <trkpt lat="43.97723" lon="7.39174">
        <ele>1551.6</ele>
        <time>2024-07-09T08:41:12Z</time>
      </trkpt>
      <trkpt lat="43.97725" lon="7.39173">
        <ele>1551.6</ele>
        <time>2024-07-09T08:41:13Z</time>
      </trkpt>
      <trkpt lat="43.97728" lon="7.39172">
        <ele>1551.6</ele>
        <time>2024-07-09T08:41:14Z</time>
      </trkpt>
      <trkpt lat="43.97731" lon="7.39172">
        <ele>1551.6</ele>
        <time>2024-07-09T08:41:15Z</time>
      </trkpt>
      <trkpt lat="43.97734" lon="7.39172">
        <ele>1551.8</ele>
        <time>2024-07-09T08:41:16Z</time>
      </trkpt>
      <trkpt lat="43.97737" lon="7.39171">
        <ele>1551.8</ele>
        <time>2024-07-09T08:41:17Z</time>
      </trkpt>
      <trkpt lat="43.97739" lon="7.39169">
        <ele>1551.8</ele>
        <time>2024-07-09T08:41:18Z</time>
      </trkpt>
      <trkpt lat="43.97742" lon="7.39168">
        <ele>1551.8</ele>
        <time>2024-07-09T08:41:19Z</time>
      </trkpt>
      <trkpt lat="43.97744" lon="7.39166">
        <ele>1551.8</ele>
        <time>2024-07-09T08:41:20Z</time>
      </trkpt>
      <trkpt lat="43.97746" lon="7.39164">
        <ele>1552</ele>
        <time>2024-07-09T08:41:21Z</time>
      </trkpt>
      <trkpt lat="43.97747" lon="7.39162">
        <ele>1552</ele>
        <time>2024-07-09T08:41:22Z</time>
      </trkpt>
      <trkpt lat="43.97749" lon="7.3916">
        <ele>1552</ele>
        <time>2024-07-09T08:41:23Z</time>
      </trkpt>
      <trkpt lat="43.9775" lon="7.39159">
        <ele>1552</ele>
        <time>2024-07-09T08:41:24Z</time>
      </trkpt>
      <trkpt lat="43.97751" lon="7.39157">
        <ele>1552</ele>
        <time>2024-07-09T08:41:25Z</time>
      </trkpt>
      <trkpt lat="43.97752" lon="7.39156">
        <ele>1551.8</ele>
        <time>2024-07-09T08:41:26Z</time>
      </trkpt>
      <trkpt lat="43.97753" lon="7.39155">
        <ele>1551.8</ele>
        <time>2024-07-09T08:41:27Z</time>
      </trkpt>
      <trkpt lat="43.97755" lon="7.39155">
        <ele>1551.8</ele>
        <time>2024-07-09T08:41:28Z</time>
      </trkpt>
      <trkpt lat="43.97756" lon="7.39155">
        <ele>1551.8</ele>
        <time>2024-07-09T08:41:29Z</time>
      </trkpt>
      <trkpt lat="43.97757" lon="7.39154">
        <ele>1551.4</ele>
        <time>2024-07-09T08:41:30Z</time>
      </trkpt>
      <trkpt lat="43.97759" lon="7.39154">
        <ele>1551.6</ele>
        <time>2024-07-09T08:41:31Z</time>
      </trkpt>
      <trkpt lat="43.9776" lon="7.39154">
        <ele>1551.6</ele>
        <time>2024-07-09T08:41:32Z</time>
      </trkpt>
      <trkpt lat="43.97761" lon="7.39153">
        <ele>1551.6</ele>
        <time>2024-07-09T08:41:33Z</time>
      </trkpt>
      <trkpt lat="43.97762" lon="7.39153">
        <ele>1551.6</ele>
        <time>2024-07-09T08:41:34Z</time>
      </trkpt>
      <trkpt lat="43.97763" lon="7.39152">
        <ele>1551.6</ele>
        <time>2024-07-09T08:41:35Z</time>
      </trkpt>
      <trkpt lat="43.97764" lon="7.39151">
        <ele>1551.6</ele>
        <time>2024-07-09T08:41:36Z</time>
      </trkpt>
      <trkpt lat="43.97764" lon="7.39151">
        <ele>1551.6</ele>
        <time>2024-07-09T08:41:37Z</time>
      </trkpt>
      <trkpt lat="43.97764" lon="7.39151">
        <ele>1551.6</ele>
        <time>2024-07-09T08:41:38Z</time>
      </trkpt>
      <trkpt lat="43.97764" lon="7.39151">
        <ele>1551.6</ele>
        <time>2024-07-09T08:41:39Z</time>
      </trkpt>
      <trkpt lat="43.97764" lon="7.39151">
        <ele>1552</ele>
        <time>2024-07-09T08:41:40Z</time>
      </trkpt>
      <trkpt lat="43.97764" lon="7.39148">
        <ele>1550.8</ele>
        <time>2024-07-09T08:42:51Z</time>
      </trkpt>
      <trkpt lat="43.97764" lon="7.39148">
        <ele>1550.8</ele>
        <time>2024-07-09T08:42:52Z</time>
      </trkpt>
      <trkpt lat="43.97764" lon="7.39148">
        <ele>1550.8</ele>
        <time>2024-07-09T08:42:53Z</time>
      </trkpt>
      <trkpt lat="43.97764" lon="7.39148">
        <ele>1551</ele>
        <time>2024-07-09T08:42:54Z</time>
      </trkpt>
      <trkpt lat="43.97769" lon="7.39144">
        <ele>1550.8</ele>
        <time>2024-07-09T08:44:51Z</time>
      </trkpt>
      <trkpt lat="43.9777" lon="7.39141">
        <ele>1550.8</ele>
        <time>2024-07-09T08:44:52Z</time>
      </trkpt>
      <trkpt lat="43.97773" lon="7.39137">
        <ele>1550.8</ele>
        <time>2024-07-09T08:44:53Z</time>
      </trkpt>
      <trkpt lat="43.97775" lon="7.39133">
        <ele>1550.8</ele>
        <time>2024-07-09T08:44:54Z</time>
      </trkpt>
      <trkpt lat="43.97778" lon="7.39128">
        <ele>1550.8</ele>
        <time>2024-07-09T08:44:55Z</time>
      </trkpt>
      <trkpt lat="43.97781" lon="7.39123">
        <ele>1550.2</ele>
        <time>2024-07-09T08:44:56Z</time>
      </trkpt>
      <trkpt lat="43.97784" lon="7.39117">
        <ele>1550.2</ele>
        <time>2024-07-09T08:44:57Z</time>
      </trkpt>
      <trkpt lat="43.97788" lon="7.3911">
        <ele>1550.2</ele>
        <time>2024-07-09T08:44:58Z</time>
      </trkpt>
      <trkpt lat="43.97791" lon="7.39102">
        <ele>1549.2</ele>
        <time>2024-07-09T08:44:59Z</time>
      </trkpt>
      <trkpt lat="43.97795" lon="7.39094">
        <ele>1549.2</ele>
        <time>2024-07-09T08:45:00Z</time>
      </trkpt>
      <trkpt lat="43.978" lon="7.39085">
        <ele>1548.8</ele>
        <time>2024-07-09T08:45:01Z</time>
      </trkpt>
      <trkpt lat="43.97805" lon="7.39076">
        <ele>1548.8</ele>
        <time>2024-07-09T08:45:02Z</time>
      </trkpt>
      <trkpt lat="43.9781" lon="7.39067">
        <ele>1548.8</ele>
        <time>2024-07-09T08:45:03Z</time>
      </trkpt>
      <trkpt lat="43.97817" lon="7.39059">
        <ele>1547.8</ele>
        <time>2024-07-09T08:45:04Z</time>
      </trkpt>
      <trkpt lat="43.97823" lon="7.39053">
        <ele>1546.4</ele>
        <time>2024-07-09T08:45:05Z</time>
      </trkpt>
      <trkpt lat="43.9783" lon="7.39048">
        <ele>1546.4</ele>
        <time>2024-07-09T08:45:06Z</time>
      </trkpt>
      <trkpt lat="43.97837" lon="7.39045">
        <ele>1546.4</ele>
        <time>2024-07-09T08:45:07Z</time>
      </trkpt>
      <trkpt lat="43.97844" lon="7.39045">
        <ele>1545.4</ele>
        <time>2024-07-09T08:45:08Z</time>
      </trkpt>
      <trkpt lat="43.97851" lon="7.39046">
        <ele>1543.4</ele>
        <time>2024-07-09T08:45:09Z</time>
      </trkpt>
      <trkpt lat="43.97857" lon="7.39047">
        <ele>1543.4</ele>
        <time>2024-07-09T08:45:10Z</time>
      </trkpt>
      <trkpt lat="43.97864" lon="7.39045">
        <ele>1543.4</ele>
        <time>2024-07-09T08:45:11Z</time>
      </trkpt>
      <trkpt lat="43.9787" lon="7.39042">
        <ele>1543.4</ele>
        <time>2024-07-09T08:45:12Z</time>
      </trkpt>
      <trkpt lat="43.97875" lon="7.39033">
        <ele>1542.4</ele>
        <time>2024-07-09T08:45:13Z</time>
      </trkpt>
      <trkpt lat="43.97878" lon="7.39024">
        <ele>1541.6</ele>
        <time>2024-07-09T08:45:14Z</time>
      </trkpt>
      <trkpt lat="43.9788" lon="7.39013">
        <ele>1541.6</ele>
        <time>2024-07-09T08:45:15Z</time>
      </trkpt>
      <trkpt lat="43.97881" lon="7.39002">
        <ele>1541.6</ele>
        <time>2024-07-09T08:45:16Z</time>
      </trkpt>
      <trkpt lat="43.97882" lon="7.38989">
        <ele>1540.6</ele>
        <time>2024-07-09T08:45:17Z</time>
      </trkpt>
      <trkpt lat="43.97881" lon="7.38976">
        <ele>1537.6</ele>
        <time>2024-07-09T08:45:18Z</time>
      </trkpt>
      <trkpt lat="43.9788" lon="7.38963">
        <ele>1537.6</ele>
        <time>2024-07-09T08:45:19Z</time>
      </trkpt>
      <trkpt lat="43.97879" lon="7.38951">
        <ele>1537.6</ele>
        <time>2024-07-09T08:45:20Z</time>
      </trkpt>
      <trkpt lat="43.9788" lon="7.38939">
        <ele>1536.6</ele>
        <time>2024-07-09T08:45:21Z</time>
      </trkpt>
      <trkpt lat="43.97883" lon="7.38929">
        <ele>1535.6</ele>
        <time>2024-07-09T08:45:22Z</time>
      </trkpt>
      <trkpt lat="43.97889" lon="7.38921">
        <ele>1535.6</ele>
        <time>2024-07-09T08:45:23Z</time>
      </trkpt>
      <trkpt lat="43.97894" lon="7.38913">
        <ele>1535.6</ele>
        <time>2024-07-09T08:45:24Z</time>
      </trkpt>
      <trkpt lat="43.97898" lon="7.38906">
        <ele>1535.6</ele>
        <time>2024-07-09T08:45:25Z</time>
      </trkpt>
      <trkpt lat="43.97899" lon="7.38897">
        <ele>1534.6</ele>
        <time>2024-07-09T08:45:26Z</time>
      </trkpt>
      <trkpt lat="43.97898" lon="7.38887">
        <ele>1533.2</ele>
        <time>2024-07-09T08:45:27Z</time>
      </trkpt>
      <trkpt lat="43.97895" lon="7.38877">
        <ele>1533.2</ele>
        <time>2024-07-09T08:45:28Z</time>
      </trkpt>
      <trkpt lat="43.9789" lon="7.38868">
        <ele>1533.2</ele>
        <time>2024-07-09T08:45:29Z</time>
      </trkpt>
      <trkpt lat="43.97884" lon="7.38859">
        <ele>1532.2</ele>
        <time>2024-07-09T08:45:30Z</time>
      </trkpt>
      <trkpt lat="43.97876" lon="7.38852">
        <ele>1529</ele>
        <time>2024-07-09T08:45:31Z</time>
      </trkpt>
      <trkpt lat="43.97869" lon="7.38845">
        <ele>1529</ele>
        <time>2024-07-09T08:45:32Z</time>
      </trkpt>
      <trkpt lat="43.97862" lon="7.38837">
        <ele>1529</ele>
        <time>2024-07-09T08:45:33Z</time>
      </trkpt>
      <trkpt lat="43.97856" lon="7.38828">
        <ele>1528</ele>
        <time>2024-07-09T08:45:34Z</time>
      </trkpt>
      <trkpt lat="43.97853" lon="7.38817">
        <ele>1526.2</ele>
        <time>2024-07-09T08:45:35Z</time>
      </trkpt>
      <trkpt lat="43.97849" lon="7.38805">
        <ele>1526.2</ele>
        <time>2024-07-09T08:45:36Z</time>
      </trkpt>
      <trkpt lat="43.97847" lon="7.38793">
        <ele>1526.2</ele>
        <time>2024-07-09T08:45:37Z</time>
      </trkpt>
      <trkpt lat="43.97845" lon="7.38781">
        <ele>1526.2</ele>
        <time>2024-07-09T08:45:38Z</time>
      </trkpt>
      <trkpt lat="43.97845" lon="7.38769">
        <ele>1525.2</ele>
        <time>2024-07-09T08:45:39Z</time>
      </trkpt>
      <trkpt lat="43.97845" lon="7.38759">
        <ele>1525.2</ele>
        <time>2024-07-09T08:45:40Z</time>
      </trkpt>
      <trkpt lat="43.97846" lon="7.38749">
        <ele>1522.6</ele>
        <time>2024-07-09T08:45:41Z</time>
      </trkpt>
      <trkpt lat="43.97848" lon="7.3874">
        <ele>1522.6</ele>
        <time>2024-07-09T08:45:42Z</time>
      </trkpt>
      <trkpt lat="43.97852" lon="7.38733">
        <ele>1522.6</ele>
        <time>2024-07-09T08:45:43Z</time>
      </trkpt>
      <trkpt lat="43.97859" lon="7.38729">
        <ele>1521.6</ele>
        <time>2024-07-09T08:45:44Z</time>
      </trkpt>
      <trkpt lat="43.97867" lon="7.38731">
        <ele>1518.8</ele>
        <time>2024-07-09T08:45:45Z</time>
      </trkpt>
      <trkpt lat="43.97875" lon="7.38734">
        <ele>1518.8</ele>
        <time>2024-07-09T08:45:46Z</time>
      </trkpt>
      <trkpt lat="43.97882" lon="7.38739">
        <ele>1518.8</ele>
        <time>2024-07-09T08:45:47Z</time>
      </trkpt>
      <trkpt lat="43.97889" lon="7.38746">
        <ele>1517.8</ele>
        <time>2024-07-09T08:45:48Z</time>
      </trkpt>
      <trkpt lat="43.97896" lon="7.38752">
        <ele>1515.6</ele>
        <time>2024-07-09T08:45:49Z</time>
      </trkpt>
      <trkpt lat="43.97903" lon="7.38757">
        <ele>1515.6</ele>
        <time>2024-07-09T08:45:50Z</time>
      </trkpt>
      <trkpt lat="43.97911" lon="7.38762">
        <ele>1515.6</ele>
        <time>2024-07-09T08:45:51Z</time>
      </trkpt>
      <trkpt lat="43.97918" lon="7.38767">
        <ele>1515.6</ele>
        <time>2024-07-09T08:45:52Z</time>
      </trkpt>
      <trkpt lat="43.97926" lon="7.3877">
        <ele>1514.6</ele>
        <time>2024-07-09T08:45:53Z</time>
      </trkpt>
      <trkpt lat="43.97935" lon="7.38772">
        <ele>1513.4</ele>
        <time>2024-07-09T08:45:54Z</time>
      </trkpt>
      <trkpt lat="43.97944" lon="7.38772">
        <ele>1513.4</ele>
        <time>2024-07-09T08:45:55Z</time>
      </trkpt>
      <trkpt lat="43.97953" lon="7.3877">
        <ele>1513.4</ele>
        <time>2024-07-09T08:45:56Z</time>
      </trkpt>
      <trkpt lat="43.97961" lon="7.38768">
        <ele>1512.4</ele>
        <time>2024-07-09T08:45:57Z</time>
      </trkpt>
      <trkpt lat="43.97969" lon="7.38766">
        <ele>1509.8</ele>
        <time>2024-07-09T08:45:58Z</time>
      </trkpt>
      <trkpt lat="43.97978" lon="7.38765">
        <ele>1509.8</ele>
        <time>2024-07-09T08:45:59Z</time>
      </trkpt>
      <trkpt lat="43.97986" lon="7.38767">
        <ele>1509.8</ele>
        <time>2024-07-09T08:46:00Z</time>
      </trkpt>
      <trkpt lat="43.97993" lon="7.3877">
        <ele>1508.8</ele>
        <time>2024-07-09T08:46:01Z</time>
      </trkpt>
      <trkpt lat="43.98" lon="7.38772">
        <ele>1506.2</ele>
        <time>2024-07-09T08:46:02Z</time>
      </trkpt>
      <trkpt lat="43.98007" lon="7.3877">
        <ele>1506.2</ele>
        <time>2024-07-09T08:46:03Z</time>
      </trkpt>
      <trkpt lat="43.98013" lon="7.38765">
        <ele>1506.2</ele>
        <time>2024-07-09T08:46:04Z</time>
      </trkpt>
      <trkpt lat="43.98019" lon="7.38758">
        <ele>1506.2</ele>
        <time>2024-07-09T08:46:05Z</time>
      </trkpt>
      <trkpt lat="43.98024" lon="7.38748">
        <ele>1505.2</ele>
        <time>2024-07-09T08:46:06Z</time>
      </trkpt>
      <trkpt lat="43.98029" lon="7.38738">
        <ele>1503</ele>
        <time>2024-07-09T08:46:07Z</time>
      </trkpt>
      <trkpt lat="43.98034" lon="7.38728">
        <ele>1503</ele>
        <time>2024-07-09T08:46:08Z</time>
      </trkpt>
      <trkpt lat="43.98038" lon="7.38718">
        <ele>1503</ele>
        <time>2024-07-09T08:46:09Z</time>
      </trkpt>
      <trkpt lat="43.9804" lon="7.38707">
        <ele>1502</ele>
        <time>2024-07-09T08:46:10Z</time>
      </trkpt>
      <trkpt lat="43.98039" lon="7.38697">
        <ele>1499.4</ele>
        <time>2024-07-09T08:46:11Z</time>
      </trkpt>
      <trkpt lat="43.98036" lon="7.38686">
        <ele>1499.4</ele>
        <time>2024-07-09T08:46:12Z</time>
      </trkpt>
      <trkpt lat="43.98032" lon="7.38675">
        <ele>1499.4</ele>
        <time>2024-07-09T08:46:13Z</time>
      </trkpt>
      <trkpt lat="43.98026" lon="7.38665">
        <ele>1499.4</ele>
        <time>2024-07-09T08:46:14Z</time>
      </trkpt>
      <trkpt lat="43.98019" lon="7.38656">
        <ele>1498.4</ele>
        <time>2024-07-09T08:46:15Z</time>
      </trkpt>
      <trkpt lat="43.98013" lon="7.38645">
        <ele>1495.4</ele>
        <time>2024-07-09T08:46:16Z</time>
      </trkpt>
      <trkpt lat="43.98006" lon="7.38636">
        <ele>1495.4</ele>
        <time>2024-07-09T08:46:17Z</time>
      </trkpt>
      <trkpt lat="43.98" lon="7.38624">
        <ele>1495.4</ele>
        <time>2024-07-09T08:46:18Z</time>
      </trkpt>
      <trkpt lat="43.97992" lon="7.38614">
        <ele>1495.4</ele>
        <time>2024-07-09T08:46:19Z</time>
      </trkpt>
      <trkpt lat="43.97985" lon="7.38603">
        <ele>1494.4</ele>
        <time>2024-07-09T08:46:20Z</time>
      </trkpt>
      <trkpt lat="43.97979" lon="7.38592">
        <ele>1492.6</ele>
        <time>2024-07-09T08:46:21Z</time>
      </trkpt>
      <trkpt lat="43.97975" lon="7.38578">
        <ele>1492.6</ele>
        <time>2024-07-09T08:46:22Z</time>
      </trkpt>
      <trkpt lat="43.97972" lon="7.38565">
        <ele>1492.6</ele>
        <time>2024-07-09T08:46:23Z</time>
      </trkpt>
      <trkpt lat="43.97971" lon="7.38551">
        <ele>1491.6</ele>
        <time>2024-07-09T08:46:24Z</time>
      </trkpt>
      <trkpt lat="43.97971" lon="7.38537">
        <ele>1491.6</ele>
        <time>2024-07-09T08:46:25Z</time>
      </trkpt>
      <trkpt lat="43.97974" lon="7.38523">
        <ele>1487.6</ele>
        <time>2024-07-09T08:46:26Z</time>
      </trkpt>
      <trkpt lat="43.97978" lon="7.3851">
        <ele>1487.6</ele>
        <time>2024-07-09T08:46:27Z</time>
      </trkpt>
      <trkpt lat="43.97985" lon="7.38498">
        <ele>1487.6</ele>
        <time>2024-07-09T08:46:28Z</time>
      </trkpt>
      <trkpt lat="43.97992" lon="7.38487">
        <ele>1486.6</ele>
        <time>2024-07-09T08:46:29Z</time>
      </trkpt>
      <trkpt lat="43.98" lon="7.38477">
        <ele>1484</ele>
        <time>2024-07-09T08:46:30Z</time>
      </trkpt>
      <trkpt lat="43.98007" lon="7.38468">
        <ele>1484</ele>
        <time>2024-07-09T08:46:31Z</time>
      </trkpt>
      <trkpt lat="43.98013" lon="7.38459">
        <ele>1484</ele>
        <time>2024-07-09T08:46:32Z</time>
      </trkpt>
      <trkpt lat="43.98019" lon="7.3845">
        <ele>1483</ele>
        <time>2024-07-09T08:46:33Z</time>
      </trkpt>
      <trkpt lat="43.98022" lon="7.38441">
        <ele>1483</ele>
        <time>2024-07-09T08:46:34Z</time>
      </trkpt>
      <trkpt lat="43.98021" lon="7.38431">
        <ele>1479.6</ele>
        <time>2024-07-09T08:46:35Z</time>
      </trkpt>
      <trkpt lat="43.98018" lon="7.38421">
        <ele>1479.6</ele>
        <time>2024-07-09T08:46:36Z</time>
      </trkpt>
      <trkpt lat="43.98014" lon="7.38411">
        <ele>1479.6</ele>
        <time>2024-07-09T08:46:37Z</time>
      </trkpt>
      <trkpt lat="43.98007" lon="7.38402">
        <ele>1478.6</ele>
        <time>2024-07-09T08:46:38Z</time>
      </trkpt>
      <trkpt lat="43.98" lon="7.38394">
        <ele>1475.6</ele>
        <time>2024-07-09T08:46:39Z</time>
      </trkpt>
      <trkpt lat="43.97993" lon="7.38387">
        <ele>1475.6</ele>
        <time>2024-07-09T08:46:40Z</time>
      </trkpt>
      <trkpt lat="43.97986" lon="7.38379">
        <ele>1475.6</ele>
        <time>2024-07-09T08:46:41Z</time>
      </trkpt>
      <trkpt lat="43.97979" lon="7.3837">
        <ele>1474.6</ele>
        <time>2024-07-09T08:46:42Z</time>
      </trkpt>
      <trkpt lat="43.97974" lon="7.38359">
        <ele>1471.8</ele>
        <time>2024-07-09T08:46:43Z</time>
      </trkpt>
      <trkpt lat="43.9797" lon="7.38349">
        <ele>1471.8</ele>
        <time>2024-07-09T08:46:44Z</time>
      </trkpt>
      <trkpt lat="43.97969" lon="7.38337">
        <ele>1471.8</ele>
        <time>2024-07-09T08:46:45Z</time>
      </trkpt>
      <trkpt lat="43.97971" lon="7.38326">
        <ele>1471.8</ele>
        <time>2024-07-09T08:46:46Z</time>
      </trkpt>
      <trkpt lat="43.97975" lon="7.38317">
        <ele>1470.8</ele>
        <time>2024-07-09T08:46:47Z</time>
      </trkpt>
      <trkpt lat="43.97982" lon="7.38311">
        <ele>1468.8</ele>
        <time>2024-07-09T08:46:48Z</time>
      </trkpt>
      <trkpt lat="43.97989" lon="7.38303">
        <ele>1468.8</ele>
        <time>2024-07-09T08:46:49Z</time>
      </trkpt>
      <trkpt lat="43.97995" lon="7.38295">
        <ele>1468.8</ele>
        <time>2024-07-09T08:46:50Z</time>
      </trkpt>
      <trkpt lat="43.98003" lon="7.38287">
        <ele>1467.8</ele>
        <time>2024-07-09T08:46:51Z</time>
      </trkpt>
      <trkpt lat="43.9801" lon="7.3828">
        <ele>1465</ele>
        <time>2024-07-09T08:46:52Z</time>
      </trkpt>
      <trkpt lat="43.98018" lon="7.38272">
        <ele>1465</ele>
        <time>2024-07-09T08:46:53Z</time>
      </trkpt>
      <trkpt lat="43.98026" lon="7.38265">
        <ele>1465</ele>
        <time>2024-07-09T08:46:54Z</time>
      </trkpt>
      <trkpt lat="43.98034" lon="7.38259">
        <ele>1464</ele>
        <time>2024-07-09T08:46:55Z</time>
      </trkpt>
      <trkpt lat="43.98042" lon="7.38257">
        <ele>1461.8</ele>
        <time>2024-07-09T08:46:56Z</time>
      </trkpt>
      <trkpt lat="43.98051" lon="7.38256">
        <ele>1461.8</ele>
        <time>2024-07-09T08:46:57Z</time>
      </trkpt>
      <trkpt lat="43.98059" lon="7.38257">
        <ele>1461.8</ele>
        <time>2024-07-09T08:46:58Z</time>
      </trkpt>
      <trkpt lat="43.98066" lon="7.38254">
        <ele>1460.8</ele>
        <time>2024-07-09T08:46:59Z</time>
      </trkpt>
      <trkpt lat="43.98072" lon="7.3825">
        <ele>1460.8</ele>
        <time>2024-07-09T08:47:00Z</time>
      </trkpt>
      <trkpt lat="43.98077" lon="7.38243">
        <ele>1459.2</ele>
        <time>2024-07-09T08:47:01Z</time>
      </trkpt>
      <trkpt lat="43.98079" lon="7.38234">
        <ele>1459.2</ele>
        <time>2024-07-09T08:47:02Z</time>
      </trkpt>
      <trkpt lat="43.9808" lon="7.38225">
        <ele>1459.2</ele>
        <time>2024-07-09T08:47:03Z</time>
      </trkpt>
      <trkpt lat="43.98078" lon="7.38215">
        <ele>1458.2</ele>
        <time>2024-07-09T08:47:04Z</time>
      </trkpt>
      <trkpt lat="43.98075" lon="7.38205">
        <ele>1458.2</ele>
        <time>2024-07-09T08:47:05Z</time>
      </trkpt>
      <trkpt lat="43.9807" lon="7.38196">
        <ele>1456.8</ele>
        <time>2024-07-09T08:47:06Z</time>
      </trkpt>
      <trkpt lat="43.98066" lon="7.38186">
        <ele>1456.8</ele>
        <time>2024-07-09T08:47:07Z</time>
      </trkpt>
      <trkpt lat="43.98064" lon="7.38176">
        <ele>1456.8</ele>
        <time>2024-07-09T08:47:08Z</time>
      </trkpt>
      <trkpt lat="43.98066" lon="7.38165">
        <ele>1455.8</ele>
        <time>2024-07-09T08:47:09Z</time>
      </trkpt>
      <trkpt lat="43.9807" lon="7.38157">
        <ele>1454.6</ele>
        <time>2024-07-09T08:47:10Z</time>
      </trkpt>
      <trkpt lat="43.98077" lon="7.38151">
        <ele>1454.6</ele>
        <time>2024-07-09T08:47:11Z</time>
      </trkpt>
      <trkpt lat="43.98085" lon="7.38146">
        <ele>1454.6</ele>
        <time>2024-07-09T08:47:12Z</time>
      </trkpt>
      <trkpt lat="43.98092" lon="7.38142">
        <ele>1453.6</ele>
        <time>2024-07-09T08:47:13Z</time>
      </trkpt>
      <trkpt lat="43.98098" lon="7.38136">
        <ele>1451.2</ele>
        <time>2024-07-09T08:47:14Z</time>
      </trkpt>
      <trkpt lat="43.98101" lon="7.38129">
        <ele>1451.2</ele>
        <time>2024-07-09T08:47:15Z</time>
      </trkpt>
      <trkpt lat="43.98103" lon="7.3812">
        <ele>1451.2</ele>
        <time>2024-07-09T08:47:16Z</time>
      </trkpt>
      <trkpt lat="43.98103" lon="7.38111">
        <ele>1451.2</ele>
        <time>2024-07-09T08:47:17Z</time>
      </trkpt>
      <trkpt lat="43.981" lon="7.38103">
        <ele>1450.2</ele>
        <time>2024-07-09T08:47:18Z</time>
      </trkpt>
      <trkpt lat="43.98095" lon="7.38097">
        <ele>1448.6</ele>
        <time>2024-07-09T08:47:19Z</time>
      </trkpt>
      <trkpt lat="43.98088" lon="7.38093">
        <ele>1448.6</ele>
        <time>2024-07-09T08:47:20Z</time>
      </trkpt>
      <trkpt lat="43.9808" lon="7.3809">
        <ele>1448.6</ele>
        <time>2024-07-09T08:47:21Z</time>
      </trkpt>
      <trkpt lat="43.98072" lon="7.38085">
        <ele>1447.6</ele>
        <time>2024-07-09T08:47:22Z</time>
      </trkpt>
      <trkpt lat="43.98063" lon="7.3808">
        <ele>1446.2</ele>
        <time>2024-07-09T08:47:23Z</time>
      </trkpt>
      <trkpt lat="43.98055" lon="7.38074">
        <ele>1446.2</ele>
        <time>2024-07-09T08:47:24Z</time>
      </trkpt>
      <trkpt lat="43.98046" lon="7.38067">
        <ele>1446.2</ele>
        <time>2024-07-09T08:47:25Z</time>
      </trkpt>
      <trkpt lat="43.98038" lon="7.3806">
        <ele>1445.2</ele>
        <time>2024-07-09T08:47:26Z</time>
      </trkpt>
      <trkpt lat="43.98031" lon="7.38052">
        <ele>1442.4</ele>
        <time>2024-07-09T08:47:27Z</time>
      </trkpt>
      <trkpt lat="43.98024" lon="7.38045">
        <ele>1442.4</ele>
        <time>2024-07-09T08:47:28Z</time>
      </trkpt>
      <trkpt lat="43.98021" lon="7.38036">
        <ele>1442.4</ele>
        <time>2024-07-09T08:47:29Z</time>
      </trkpt>
      <trkpt lat="43.98019" lon="7.38025">
        <ele>1442.4</ele>
        <time>2024-07-09T08:47:30Z</time>
      </trkpt>
      <trkpt lat="43.98021" lon="7.38014">
        <ele>1441.4</ele>
        <time>2024-07-09T08:47:31Z</time>
      </trkpt>
      <trkpt lat="43.98026" lon="7.38005">
        <ele>1438.6</ele>
        <time>2024-07-09T08:47:32Z</time>
      </trkpt>
      <trkpt lat="43.98034" lon="7.38">
        <ele>1438.6</ele>
        <time>2024-07-09T08:47:33Z</time>
      </trkpt>
      <trkpt lat="43.98042" lon="7.37996">
        <ele>1438.6</ele>
        <time>2024-07-09T08:47:34Z</time>
      </trkpt>
      <trkpt lat="43.9805" lon="7.37992">
        <ele>1437.6</ele>
        <time>2024-07-09T08:47:35Z</time>
      </trkpt>
      <trkpt lat="43.98058" lon="7.37988">
        <ele>1435.6</ele>
        <time>2024-07-09T08:47:36Z</time>
      </trkpt>
      <trkpt lat="43.98063" lon="7.37981">
        <ele>1435.6</ele>
        <time>2024-07-09T08:47:37Z</time>
      </trkpt>
      <trkpt lat="43.98067" lon="7.37972">
        <ele>1435.6</ele>
        <time>2024-07-09T08:47:38Z</time>
      </trkpt>
      <trkpt lat="43.98067" lon="7.37962">
        <ele>1434.6</ele>
        <time>2024-07-09T08:47:39Z</time>
      </trkpt>
      <trkpt lat="43.98065" lon="7.37954">
        <ele>1432.4</ele>
        <time>2024-07-09T08:47:40Z</time>
      </trkpt>
      <trkpt lat="43.98059" lon="7.37947">
        <ele>1432.4</ele>
        <time>2024-07-09T08:47:41Z</time>
      </trkpt>
      <trkpt lat="43.98051" lon="7.37944">
        <ele>1432.4</ele>
        <time>2024-07-09T08:47:42Z</time>
      </trkpt>
      <trkpt lat="43.98041" lon="7.37944">
        <ele>1432.4</ele>
        <time>2024-07-09T08:47:43Z</time>
      </trkpt>
      <trkpt lat="43.98034" lon="7.37947">
        <ele>1431.4</ele>
        <time>2024-07-09T08:47:44Z</time>
      </trkpt>
      <trkpt lat="43.98025" lon="7.3795">
        <ele>1429</ele>
        <time>2024-07-09T08:47:45Z</time>
      </trkpt>
      <trkpt lat="43.98016" lon="7.3795">
        <ele>1429</ele>
        <time>2024-07-09T08:47:46Z</time>
      </trkpt>
      <trkpt lat="43.98008" lon="7.37945">
        <ele>1429</ele>
        <time>2024-07-09T08:47:47Z</time>
      </trkpt>
      <trkpt lat="43.98" lon="7.37937">
        <ele>1429</ele>
        <time>2024-07-09T08:47:48Z</time>
      </trkpt>
      <trkpt lat="43.97993" lon="7.37926">
        <ele>1428</ele>
        <time>2024-07-09T08:47:49Z</time>
      </trkpt>
      <trkpt lat="43.97989" lon="7.37913">
        <ele>1425.8</ele>
        <time>2024-07-09T08:47:50Z</time>
      </trkpt>
      <trkpt lat="43.9799" lon="7.37901">
        <ele>1425.8</ele>
        <time>2024-07-09T08:47:51Z</time>
      </trkpt>
      <trkpt lat="43.97991" lon="7.37889">
        <ele>1425.8</ele>
        <time>2024-07-09T08:47:52Z</time>
      </trkpt>
      <trkpt lat="43.9799" lon="7.37878">
        <ele>1424.8</ele>
        <time>2024-07-09T08:47:53Z</time>
      </trkpt>
      <trkpt lat="43.97987" lon="7.37869">
        <ele>1422</ele>
        <time>2024-07-09T08:47:54Z</time>
      </trkpt>
      <trkpt lat="43.97982" lon="7.3786">
        <ele>1422</ele>
        <time>2024-07-09T08:47:55Z</time>
      </trkpt>
      <trkpt lat="43.97974" lon="7.37854">
        <ele>1422</ele>
        <time>2024-07-09T08:47:56Z</time>
      </trkpt>
      <trkpt lat="43.97967" lon="7.37851">
        <ele>1421</ele>
        <time>2024-07-09T08:47:57Z</time>
      </trkpt>
      <trkpt lat="43.97959" lon="7.37849">
        <ele>1418.6</ele>
        <time>2024-07-09T08:47:58Z</time>
      </trkpt>
      <trkpt lat="43.97951" lon="7.37844">
        <ele>1418.6</ele>
        <time>2024-07-09T08:47:59Z</time>
      </trkpt>
      <trkpt lat="43.97944" lon="7.37837">
        <ele>1418.6</ele>
        <time>2024-07-09T08:48:00Z</time>
      </trkpt>
      <trkpt lat="43.97938" lon="7.37829">
        <ele>1418.6</ele>
        <time>2024-07-09T08:48:01Z</time>
      </trkpt>
      <trkpt lat="43.9793" lon="7.37821">
        <ele>1417.6</ele>
        <time>2024-07-09T08:48:02Z</time>
      </trkpt>
      <trkpt lat="43.97923" lon="7.37815">
        <ele>1414.8</ele>
        <time>2024-07-09T08:48:03Z</time>
      </trkpt>
      <trkpt lat="43.97914" lon="7.37814">
        <ele>1414.8</ele>
        <time>2024-07-09T08:48:04Z</time>
      </trkpt>
      <trkpt lat="43.97904" lon="7.37815">
        <ele>1414.8</ele>
        <time>2024-07-09T08:48:05Z</time>
      </trkpt>
      <trkpt lat="43.97895" lon="7.37818">
        <ele>1413.8</ele>
        <time>2024-07-09T08:48:06Z</time>
      </trkpt>
      <trkpt lat="43.97886" lon="7.37822">
        <ele>1411.2</ele>
        <time>2024-07-09T08:48:07Z</time>
      </trkpt>
      <trkpt lat="43.97877" lon="7.37827">
        <ele>1411.2</ele>
        <time>2024-07-09T08:48:08Z</time>
      </trkpt>
      <trkpt lat="43.97869" lon="7.37832">
        <ele>1411.2</ele>
        <time>2024-07-09T08:48:09Z</time>
      </trkpt>
      <trkpt lat="43.97859" lon="7.37838">
        <ele>1411.2</ele>
        <time>2024-07-09T08:48:10Z</time>
      </trkpt>
      <trkpt lat="43.9785" lon="7.37843">
        <ele>1410.2</ele>
        <time>2024-07-09T08:48:11Z</time>
      </trkpt>
      <trkpt lat="43.97843" lon="7.37848">
        <ele>1407.2</ele>
        <time>2024-07-09T08:48:12Z</time>
      </trkpt>
      <trkpt lat="43.97835" lon="7.3785">
        <ele>1407.2</ele>
        <time>2024-07-09T08:48:13Z</time>
      </trkpt>
      <trkpt lat="43.97827" lon="7.37849">
        <ele>1407.2</ele>
        <time>2024-07-09T08:48:14Z</time>
      </trkpt>
      <trkpt lat="43.97818" lon="7.37843">
        <ele>1406.2</ele>
        <time>2024-07-09T08:48:15Z</time>
      </trkpt>
      <trkpt lat="43.97811" lon="7.37836">
        <ele>1404.6</ele>
        <time>2024-07-09T08:48:16Z</time>
      </trkpt>
      <trkpt lat="43.97804" lon="7.37828">
        <ele>1404.6</ele>
        <time>2024-07-09T08:48:17Z</time>
      </trkpt>
      <trkpt lat="43.97799" lon="7.37819">
        <ele>1404.6</ele>
        <time>2024-07-09T08:48:18Z</time>
      </trkpt>
      <trkpt lat="43.97793" lon="7.37809">
        <ele>1403.6</ele>
        <time>2024-07-09T08:48:19Z</time>
      </trkpt>
      <trkpt lat="43.97788" lon="7.37799">
        <ele>1401.2</ele>
        <time>2024-07-09T08:48:20Z</time>
      </trkpt>
      <trkpt lat="43.97784" lon="7.37788">
        <ele>1401.2</ele>
        <time>2024-07-09T08:48:21Z</time>
      </trkpt>
      <trkpt lat="43.97782" lon="7.37775">
        <ele>1401.2</ele>
        <time>2024-07-09T08:48:22Z</time>
      </trkpt>
      <trkpt lat="43.9778" lon="7.3776">
        <ele>1401.2</ele>
        <time>2024-07-09T08:48:23Z</time>
      </trkpt>
      <trkpt lat="43.97779" lon="7.37746">
        <ele>1400.2</ele>
        <time>2024-07-09T08:48:24Z</time>
      </trkpt>
      <trkpt lat="43.9778" lon="7.37731">
        <ele>1397.4</ele>
        <time>2024-07-09T08:48:25Z</time>
      </trkpt>
      <trkpt lat="43.9778" lon="7.37716">
        <ele>1397.4</ele>
        <time>2024-07-09T08:48:26Z</time>
      </trkpt>
      <trkpt lat="43.97781" lon="7.37701">
        <ele>1397.4</ele>
        <time>2024-07-09T08:48:27Z</time>
      </trkpt>
      <trkpt lat="43.97782" lon="7.37686">
        <ele>1397.4</ele>
        <time>2024-07-09T08:48:28Z</time>
      </trkpt>
      <trkpt lat="43.97783" lon="7.37671">
        <ele>1397.4</ele>
        <time>2024-07-09T08:48:29Z</time>
      </trkpt>
      <trkpt lat="43.97786" lon="7.37655">
        <ele>1396.4</ele>
        <time>2024-07-09T08:48:30Z</time>
      </trkpt>
      <trkpt lat="43.97788" lon="7.37639">
        <ele>1394</ele>
        <time>2024-07-09T08:48:31Z</time>
      </trkpt>
      <trkpt lat="43.9779" lon="7.37624">
        <ele>1394</ele>
        <time>2024-07-09T08:48:32Z</time>
      </trkpt>
      <trkpt lat="43.97794" lon="7.37609">
        <ele>1394</ele>
        <time>2024-07-09T08:48:33Z</time>
      </trkpt>
      <trkpt lat="43.97798" lon="7.37595">
        <ele>1393</ele>
        <time>2024-07-09T08:48:34Z</time>
      </trkpt>
      <trkpt lat="43.97803" lon="7.37581">
        <ele>1389.6</ele>
        <time>2024-07-09T08:48:35Z</time>
      </trkpt>
      <trkpt lat="43.97808" lon="7.37566">
        <ele>1389.6</ele>
        <time>2024-07-09T08:48:36Z</time>
      </trkpt>
      <trkpt lat="43.97813" lon="7.37552">
        <ele>1389.6</ele>
        <time>2024-07-09T08:48:37Z</time>
      </trkpt>
      <trkpt lat="43.97818" lon="7.37537">
        <ele>1388.6</ele>
        <time>2024-07-09T08:48:38Z</time>
      </trkpt>
      <trkpt lat="43.97823" lon="7.37523">
        <ele>1388.6</ele>
        <time>2024-07-09T08:48:39Z</time>
      </trkpt>
      <trkpt lat="43.97829" lon="7.37509">
        <ele>1384.4</ele>
        <time>2024-07-09T08:48:40Z</time>
      </trkpt>
      <trkpt lat="43.97835" lon="7.37497">
        <ele>1384.4</ele>
        <time>2024-07-09T08:48:41Z</time>
      </trkpt>
      <trkpt lat="43.9784" lon="7.37485">
        <ele>1384.4</ele>
        <time>2024-07-09T08:48:42Z</time>
      </trkpt>
      <trkpt lat="43.97844" lon="7.37474">
        <ele>1383.4</ele>
        <time>2024-07-09T08:48:43Z</time>
      </trkpt>
      <trkpt lat="43.97847" lon="7.37463">
        <ele>1380.6</ele>
        <time>2024-07-09T08:48:44Z</time>
      </trkpt>
      <trkpt lat="43.97847" lon="7.37451">
        <ele>1380.6</ele>
        <time>2024-07-09T08:48:45Z</time>
      </trkpt>
      <trkpt lat="43.97843" lon="7.3744">
        <ele>1380.6</ele>
        <time>2024-07-09T08:48:46Z</time>
      </trkpt>
      <trkpt lat="43.97837" lon="7.37431">
        <ele>1379.6</ele>
        <time>2024-07-09T08:48:47Z</time>
      </trkpt>
      <trkpt lat="43.97829" lon="7.37424">
        <ele>1377.4</ele>
        <time>2024-07-09T08:48:48Z</time>
      </trkpt>
      <trkpt lat="43.9782" lon="7.37419">
        <ele>1377.4</ele>
        <time>2024-07-09T08:48:49Z</time>
      </trkpt>
      <trkpt lat="43.97811" lon="7.37413">
        <ele>1377.4</ele>
        <time>2024-07-09T08:48:50Z</time>
      </trkpt>
      <trkpt lat="43.97802" lon="7.37407">
        <ele>1377.4</ele>
        <time>2024-07-09T08:48:51Z</time>
      </trkpt>
      <trkpt lat="43.97795" lon="7.37399">
        <ele>1376.4</ele>
        <time>2024-07-09T08:48:52Z</time>
      </trkpt>
      <trkpt lat="43.97788" lon="7.3739">
        <ele>1374</ele>
        <time>2024-07-09T08:48:53Z</time>
      </trkpt>
      <trkpt lat="43.97783" lon="7.3738">
        <ele>1374</ele>
        <time>2024-07-09T08:48:54Z</time>
      </trkpt>
      <trkpt lat="43.97779" lon="7.37368">
        <ele>1374</ele>
        <time>2024-07-09T08:48:55Z</time>
      </trkpt>
      <trkpt lat="43.97778" lon="7.37356">
        <ele>1373</ele>
        <time>2024-07-09T08:48:56Z</time>
      </trkpt>
      <trkpt lat="43.9778" lon="7.37344">
        <ele>1370.2</ele>
        <time>2024-07-09T08:48:57Z</time>
      </trkpt>
      <trkpt lat="43.97782" lon="7.37332">
        <ele>1370.2</ele>
        <time>2024-07-09T08:48:58Z</time>
      </trkpt>
      <trkpt lat="43.97785" lon="7.37319">
        <ele>1370.2</ele>
        <time>2024-07-09T08:48:59Z</time>
      </trkpt>
      <trkpt lat="43.97788" lon="7.37306">
        <ele>1369.2</ele>
        <time>2024-07-09T08:49:00Z</time>
      </trkpt>
      <trkpt lat="43.97791" lon="7.37294">
        <ele>1366.4</ele>
        <time>2024-07-09T08:49:01Z</time>
      </trkpt>
      <trkpt lat="43.97794" lon="7.3728">
        <ele>1366.4</ele>
        <time>2024-07-09T08:49:02Z</time>
      </trkpt>
      <trkpt lat="43.97798" lon="7.37267">
        <ele>1366.4</ele>
        <time>2024-07-09T08:49:03Z</time>
      </trkpt>
      <trkpt lat="43.97801" lon="7.37252">
        <ele>1365.4</ele>
        <time>2024-07-09T08:49:04Z</time>
      </trkpt>
      <trkpt lat="43.97804" lon="7.37238">
        <ele>1365.4</ele>
        <time>2024-07-09T08:49:05Z</time>
      </trkpt>
      <trkpt lat="43.97807" lon="7.37224">
        <ele>1365.4</ele>
        <time>2024-07-09T08:49:06Z</time>
      </trkpt>
      <trkpt lat="43.97808" lon="7.37209">
        <ele>1362.4</ele>
        <time>2024-07-09T08:49:07Z</time>
      </trkpt>
      <trkpt lat="43.97811" lon="7.37193">
        <ele>1362.4</ele>
        <time>2024-07-09T08:49:08Z</time>
      </trkpt>
      <trkpt lat="43.97812" lon="7.37178">
        <ele>1362.4</ele>
        <time>2024-07-09T08:49:09Z</time>
      </trkpt>
      <trkpt lat="43.97812" lon="7.37161">
        <ele>1361.4</ele>
        <time>2024-07-09T08:49:10Z</time>
      </trkpt>
      <trkpt lat="43.97811" lon="7.37145">
        <ele>1358.6</ele>
        <time>2024-07-09T08:49:11Z</time>
      </trkpt>
      <trkpt lat="43.9781" lon="7.37129">
        <ele>1358.6</ele>
        <time>2024-07-09T08:49:12Z</time>
      </trkpt>
      <trkpt lat="43.97808" lon="7.37112">
        <ele>1358.6</ele>
        <time>2024-07-09T08:49:13Z</time>
      </trkpt>
      <trkpt lat="43.97805" lon="7.37098">
        <ele>1357.6</ele>
        <time>2024-07-09T08:49:14Z</time>
      </trkpt>
      <trkpt lat="43.97801" lon="7.37086">
        <ele>1354.8</ele>
        <time>2024-07-09T08:49:15Z</time>
      </trkpt>
      <trkpt lat="43.97797" lon="7.37075">
        <ele>1354.8</ele>
        <time>2024-07-09T08:49:16Z</time>
      </trkpt>
      <trkpt lat="43.97792" lon="7.37067">
        <ele>1354.8</ele>
        <time>2024-07-09T08:49:17Z</time>
      </trkpt>
      <trkpt lat="43.97786" lon="7.37061">
        <ele>1354.8</ele>
        <time>2024-07-09T08:49:18Z</time>
      </trkpt>
      <trkpt lat="43.97779" lon="7.37061">
        <ele>1353.8</ele>
        <time>2024-07-09T08:49:19Z</time>
      </trkpt>
      <trkpt lat="43.97773" lon="7.37066">
        <ele>1351.4</ele>
        <time>2024-07-09T08:49:20Z</time>
      </trkpt>
      <trkpt lat="43.97769" lon="7.37075">
        <ele>1351.4</ele>
        <time>2024-07-09T08:49:21Z</time>
      </trkpt>
      <trkpt lat="43.97771" lon="7.37086">
        <ele>1351.4</ele>
        <time>2024-07-09T08:49:22Z</time>
      </trkpt>
      <trkpt lat="43.97774" lon="7.37096">
        <ele>1350.4</ele>
        <time>2024-07-09T08:49:23Z</time>
      </trkpt>
      <trkpt lat="43.97779" lon="7.37106">
        <ele>1348.4</ele>
        <time>2024-07-09T08:49:24Z</time>
      </trkpt>
      <trkpt lat="43.97783" lon="7.37116">
        <ele>1348.4</ele>
        <time>2024-07-09T08:49:25Z</time>
      </trkpt>
      <trkpt lat="43.97784" lon="7.37127">
        <ele>1348.4</ele>
        <time>2024-07-09T08:49:26Z</time>
      </trkpt>
      <trkpt lat="43.97783" lon="7.37139">
        <ele>1347.4</ele>
        <time>2024-07-09T08:49:27Z</time>
      </trkpt>
      <trkpt lat="43.9778" lon="7.37151">
        <ele>1344.8</ele>
        <time>2024-07-09T08:49:28Z</time>
      </trkpt>
      <trkpt lat="43.97775" lon="7.37164">
        <ele>1344.8</ele>
        <time>2024-07-09T08:49:29Z</time>
      </trkpt>
      <trkpt lat="43.97771" lon="7.37177">
        <ele>1344.8</ele>
        <time>2024-07-09T08:49:30Z</time>
      </trkpt>
      <trkpt lat="43.97766" lon="7.37189">
        <ele>1344.8</ele>
        <time>2024-07-09T08:49:31Z</time>
      </trkpt>
      <trkpt lat="43.97761" lon="7.37202">
        <ele>1343.8</ele>
        <time>2024-07-09T08:49:32Z</time>
      </trkpt>
      <trkpt lat="43.97756" lon="7.37215">
        <ele>1343.8</ele>
        <time>2024-07-09T08:49:33Z</time>
      </trkpt>
      <trkpt lat="43.97752" lon="7.37227">
        <ele>1341.4</ele>
        <time>2024-07-09T08:49:34Z</time>
      </trkpt>
      <trkpt lat="43.97746" lon="7.3724">
        <ele>1341.4</ele>
        <time>2024-07-09T08:49:35Z</time>
      </trkpt>
      <trkpt lat="43.97739" lon="7.37253">
        <ele>1340.4</ele>
        <time>2024-07-09T08:49:36Z</time>
      </trkpt>
      <trkpt lat="43.97734" lon="7.37265">
        <ele>1336.6</ele>
        <time>2024-07-09T08:49:37Z</time>
      </trkpt>
      <trkpt lat="43.97729" lon="7.37277">
        <ele>1336.6</ele>
        <time>2024-07-09T08:49:38Z</time>
      </trkpt>
      <trkpt lat="43.97724" lon="7.37289">
        <ele>1336.6</ele>
        <time>2024-07-09T08:49:39Z</time>
      </trkpt>
      <trkpt lat="43.97718" lon="7.37299">
        <ele>1336.6</ele>
        <time>2024-07-09T08:49:40Z</time>
      </trkpt>
      <trkpt lat="43.97711" lon="7.37308">
        <ele>1333</ele>
        <time>2024-07-09T08:49:41Z</time>
      </trkpt>
      <trkpt lat="43.97703" lon="7.37315">
        <ele>1333</ele>
        <time>2024-07-09T08:49:42Z</time>
      </trkpt>
      <trkpt lat="43.97694" lon="7.3732">
        <ele>1333</ele>
        <time>2024-07-09T08:49:43Z</time>
      </trkpt>
      <trkpt lat="43.97686" lon="7.37325">
        <ele>1333</ele>
        <time>2024-07-09T08:49:44Z</time>
      </trkpt>
      <trkpt lat="43.97676" lon="7.37327">
        <ele>1332</ele>
        <time>2024-07-09T08:49:45Z</time>
      </trkpt>
      <trkpt lat="43.97666" lon="7.37329">
        <ele>1329</ele>
        <time>2024-07-09T08:49:46Z</time>
      </trkpt>
      <trkpt lat="43.97655" lon="7.37332">
        <ele>1329</ele>
        <time>2024-07-09T08:49:47Z</time>
      </trkpt>
      <trkpt lat="43.97644" lon="7.37335">
        <ele>1329</ele>
        <time>2024-07-09T08:49:48Z</time>
      </trkpt>
      <trkpt lat="43.97634" lon="7.37337">
        <ele>1328</ele>
        <time>2024-07-09T08:49:49Z</time>
      </trkpt>
      <trkpt lat="43.97625" lon="7.37338">
        <ele>1328</ele>
        <time>2024-07-09T08:49:50Z</time>
      </trkpt>
      <trkpt lat="43.97617" lon="7.37336">
        <ele>1325.2</ele>
        <time>2024-07-09T08:49:51Z</time>
      </trkpt>
      <trkpt lat="43.97608" lon="7.37333">
        <ele>1325.2</ele>
        <time>2024-07-09T08:49:52Z</time>
      </trkpt>
      <trkpt lat="43.976" lon="7.37327">
        <ele>1325.2</ele>
        <time>2024-07-09T08:49:53Z</time>
      </trkpt>
      <trkpt lat="43.97593" lon="7.37319">
        <ele>1324.2</ele>
        <time>2024-07-09T08:49:54Z</time>
      </trkpt>
      <trkpt lat="43.97588" lon="7.37309">
        <ele>1322.4</ele>
        <time>2024-07-09T08:49:55Z</time>
      </trkpt>
      <trkpt lat="43.97585" lon="7.37297">
        <ele>1322.4</ele>
        <time>2024-07-09T08:49:56Z</time>
      </trkpt>
      <trkpt lat="43.97582" lon="7.37283">
        <ele>1322.4</ele>
        <time>2024-07-09T08:49:57Z</time>
      </trkpt>
      <trkpt lat="43.97582" lon="7.37269">
        <ele>1321.4</ele>
        <time>2024-07-09T08:49:58Z</time>
      </trkpt>
      <trkpt lat="43.97583" lon="7.37254">
        <ele>1318.4</ele>
        <time>2024-07-09T08:49:59Z</time>
      </trkpt>
      <trkpt lat="43.97585" lon="7.37241">
        <ele>1318.4</ele>
        <time>2024-07-09T08:50:00Z</time>
      </trkpt>
      <trkpt lat="43.97588" lon="7.37226">
        <ele>1318.4</ele>
        <time>2024-07-09T08:50:01Z</time>
      </trkpt>
      <trkpt lat="43.97592" lon="7.37213">
        <ele>1318.4</ele>
        <time>2024-07-09T08:50:02Z</time>
      </trkpt>
      <trkpt lat="43.97597" lon="7.372">
        <ele>1317.4</ele>
        <time>2024-07-09T08:50:03Z</time>
      </trkpt>
      <trkpt lat="43.97604" lon="7.37188">
        <ele>1315.6</ele>
        <time>2024-07-09T08:50:04Z</time>
      </trkpt>
      <trkpt lat="43.97611" lon="7.37175">
        <ele>1315.6</ele>
        <time>2024-07-09T08:50:05Z</time>
      </trkpt>
      <trkpt lat="43.97618" lon="7.37162">
        <ele>1315.6</ele>
        <time>2024-07-09T08:50:06Z</time>
      </trkpt>
      <trkpt lat="43.97624" lon="7.37149">
        <ele>1314.6</ele>
        <time>2024-07-09T08:50:07Z</time>
      </trkpt>
      <trkpt lat="43.97631" lon="7.37136">
        <ele>1314.6</ele>
        <time>2024-07-09T08:50:08Z</time>
      </trkpt>
      <trkpt lat="43.97637" lon="7.37122">
        <ele>1311.4</ele>
        <time>2024-07-09T08:50:09Z</time>
      </trkpt>
      <trkpt lat="43.97643" lon="7.37107">
        <ele>1311.4</ele>
        <time>2024-07-09T08:50:10Z</time>
      </trkpt>
      <trkpt lat="43.97648" lon="7.37093">
        <ele>1310.4</ele>
        <time>2024-07-09T08:50:11Z</time>
      </trkpt>
      <trkpt lat="43.97653" lon="7.37077">
        <ele>1307.4</ele>
        <time>2024-07-09T08:50:12Z</time>
      </trkpt>
      <trkpt lat="43.97658" lon="7.37062">
        <ele>1307.4</ele>
        <time>2024-07-09T08:50:13Z</time>
      </trkpt>
      <trkpt lat="43.97662" lon="7.37046">
        <ele>1307.4</ele>
        <time>2024-07-09T08:50:14Z</time>
      </trkpt>
      <trkpt lat="43.97667" lon="7.37029">
        <ele>1307.4</ele>
        <time>2024-07-09T08:50:15Z</time>
      </trkpt>
      <trkpt lat="43.97671" lon="7.37013">
        <ele>1306.4</ele>
        <time>2024-07-09T08:50:16Z</time>
      </trkpt>
      <trkpt lat="43.97675" lon="7.36996">
        <ele>1302.4</ele>
        <time>2024-07-09T08:50:17Z</time>
      </trkpt>
      <trkpt lat="43.97679" lon="7.36979">
        <ele>1302.4</ele>
        <time>2024-07-09T08:50:18Z</time>
      </trkpt>
      <trkpt lat="43.97683" lon="7.36962">
        <ele>1302.4</ele>
        <time>2024-07-09T08:50:19Z</time>
      </trkpt>
      <trkpt lat="43.97688" lon="7.36945">
        <ele>1301.4</ele>
        <time>2024-07-09T08:50:20Z</time>
      </trkpt>
      <trkpt lat="43.97691" lon="7.36928">
        <ele>1301.4</ele>
        <time>2024-07-09T08:50:21Z</time>
      </trkpt>
      <trkpt lat="43.97694" lon="7.36913">
        <ele>1297</ele>
        <time>2024-07-09T08:50:22Z</time>
      </trkpt>
      <trkpt lat="43.97697" lon="7.369">
        <ele>1297</ele>
        <time>2024-07-09T08:50:23Z</time>
      </trkpt>
      <trkpt lat="43.97701" lon="7.36889">
        <ele>1297</ele>
        <time>2024-07-09T08:50:24Z</time>
      </trkpt>
      <trkpt lat="43.97707" lon="7.36879">
        <ele>1296</ele>
        <time>2024-07-09T08:50:25Z</time>
      </trkpt>
      <trkpt lat="43.97714" lon="7.36871">
        <ele>1292.8</ele>
        <time>2024-07-09T08:50:26Z</time>
      </trkpt>
      <trkpt lat="43.97722" lon="7.36865">
        <ele>1292.8</ele>
        <time>2024-07-09T08:50:27Z</time>
      </trkpt>
      <trkpt lat="43.97727" lon="7.36862">
        <ele>1292.8</ele>
        <time>2024-07-09T08:50:28Z</time>
      </trkpt>
      <trkpt lat="43.97731" lon="7.3686">
        <ele>1291.8</ele>
        <time>2024-07-09T08:50:29Z</time>
      </trkpt>
      <trkpt lat="43.97733" lon="7.36859">
        <ele>1289.6</ele>
        <time>2024-07-09T08:50:30Z</time>
      </trkpt>
      <trkpt lat="43.97736" lon="7.36858">
        <ele>1289.6</ele>
        <time>2024-07-09T08:50:31Z</time>
      </trkpt>
      <trkpt lat="43.97739" lon="7.36856">
        <ele>1289.6</ele>
        <time>2024-07-09T08:50:32Z</time>
      </trkpt>
      <trkpt lat="43.97741" lon="7.36854">
        <ele>1289.6</ele>
        <time>2024-07-09T08:50:33Z</time>
      </trkpt>
      <trkpt lat="43.97745" lon="7.36852">
        <ele>1289.6</ele>
        <time>2024-07-09T08:50:34Z</time>
      </trkpt>
      <trkpt lat="43.97747" lon="7.36852">
        <ele>1288.2</ele>
        <time>2024-07-09T08:50:35Z</time>
      </trkpt>
      <trkpt lat="43.97749" lon="7.36853">
        <ele>1288.2</ele>
        <time>2024-07-09T08:50:36Z</time>
      </trkpt>
      <trkpt lat="43.97752" lon="7.36853">
        <ele>1288.2</ele>
        <time>2024-07-09T08:50:37Z</time>
      </trkpt>
      <trkpt lat="43.97754" lon="7.36853">
        <ele>1287.2</ele>
        <time>2024-07-09T08:51:01Z</time>
      </trkpt>
      <trkpt lat="43.97756" lon="7.36853">
        <ele>1287</ele>
        <time>2024-07-09T08:51:02Z</time>
      </trkpt>
      <trkpt lat="43.9776" lon="7.36853">
        <ele>1287</ele>
        <time>2024-07-09T08:51:03Z</time>
      </trkpt>
      <trkpt lat="43.97765" lon="7.36852">
        <ele>1287</ele>
        <time>2024-07-09T08:51:04Z</time>
      </trkpt>
      <trkpt lat="43.97769" lon="7.36851">
        <ele>1286.2</ele>
        <time>2024-07-09T08:51:05Z</time>
      </trkpt>
      <trkpt lat="43.97775" lon="7.36849">
        <ele>1285.4</ele>
        <time>2024-07-09T08:51:06Z</time>
      </trkpt>
      <trkpt lat="43.97781" lon="7.36846">
        <ele>1285.4</ele>
        <time>2024-07-09T08:51:07Z</time>
      </trkpt>
      <trkpt lat="43.97787" lon="7.36842">
        <ele>1285.4</ele>
        <time>2024-07-09T08:51:08Z</time>
      </trkpt>
      <trkpt lat="43.97793" lon="7.36836">
        <ele>1284.4</ele>
        <time>2024-07-09T08:51:09Z</time>
      </trkpt>
      <trkpt lat="43.97799" lon="7.36829">
        <ele>1283.4</ele>
        <time>2024-07-09T08:51:10Z</time>
      </trkpt>
      <trkpt lat="43.97805" lon="7.36821">
        <ele>1283.4</ele>
        <time>2024-07-09T08:51:11Z</time>
      </trkpt>
      <trkpt lat="43.9781" lon="7.36812">
        <ele>1283.4</ele>
        <time>2024-07-09T08:51:12Z</time>
      </trkpt>
      <trkpt lat="43.97816" lon="7.36803">
        <ele>1283.4</ele>
        <time>2024-07-09T08:51:13Z</time>
      </trkpt>
      <trkpt lat="43.97822" lon="7.36795">
        <ele>1282.4</ele>
        <time>2024-07-09T08:51:14Z</time>
      </trkpt>
      <trkpt lat="43.97829" lon="7.3679">
        <ele>1280.4</ele>
        <time>2024-07-09T08:51:15Z</time>
      </trkpt>
      <trkpt lat="43.97837" lon="7.36789">
        <ele>1280.4</ele>
        <time>2024-07-09T08:51:16Z</time>
      </trkpt>
      <trkpt lat="43.97845" lon="7.36791">
        <ele>1280.4</ele>
        <time>2024-07-09T08:51:17Z</time>
      </trkpt>
      <trkpt lat="43.97852" lon="7.36796">
        <ele>1279.4</ele>
        <time>2024-07-09T08:51:18Z</time>
      </trkpt>
      <trkpt lat="43.9786" lon="7.368">
        <ele>1276.8</ele>
        <time>2024-07-09T08:51:19Z</time>
      </trkpt>
      <trkpt lat="43.97869" lon="7.36803">
        <ele>1276.8</ele>
        <time>2024-07-09T08:51:20Z</time>
      </trkpt>
      <trkpt lat="43.97878" lon="7.36803">
        <ele>1276.8</ele>
        <time>2024-07-09T08:51:21Z</time>
      </trkpt>
      <trkpt lat="43.97888" lon="7.368">
        <ele>1275.8</ele>
        <time>2024-07-09T08:51:22Z</time>
      </trkpt>
      <trkpt lat="43.97897" lon="7.36795">
        <ele>1275.8</ele>
        <time>2024-07-09T08:51:23Z</time>
      </trkpt>
      <trkpt lat="43.97906" lon="7.36792">
        <ele>1274</ele>
        <time>2024-07-09T08:51:24Z</time>
      </trkpt>
      <trkpt lat="43.97914" lon="7.36792">
        <ele>1274</ele>
        <time>2024-07-09T08:51:25Z</time>
      </trkpt>
      <trkpt lat="43.97922" lon="7.36798">
        <ele>1274</ele>
        <time>2024-07-09T08:51:26Z</time>
      </trkpt>
      <trkpt lat="43.97928" lon="7.36804">
        <ele>1273</ele>
        <time>2024-07-09T08:51:27Z</time>
      </trkpt>
      <trkpt lat="43.97934" lon="7.36813">
        <ele>1270.4</ele>
        <time>2024-07-09T08:51:28Z</time>
      </trkpt>
      <trkpt lat="43.97939" lon="7.36822">
        <ele>1270.4</ele>
        <time>2024-07-09T08:51:29Z</time>
      </trkpt>
      <trkpt lat="43.97946" lon="7.36832">
        <ele>1270.4</ele>
        <time>2024-07-09T08:51:30Z</time>
      </trkpt>
      <trkpt lat="43.97953" lon="7.36842">
        <ele>1270.4</ele>
        <time>2024-07-09T08:51:31Z</time>
      </trkpt>
      <trkpt lat="43.9796" lon="7.36851">
        <ele>1269.4</ele>
        <time>2024-07-09T08:51:32Z</time>
      </trkpt>
      <trkpt lat="43.97968" lon="7.36861">
        <ele>1266.4</ele>
        <time>2024-07-09T08:51:33Z</time>
      </trkpt>
      <trkpt lat="43.97976" lon="7.3687">
        <ele>1266.4</ele>
        <time>2024-07-09T08:51:34Z</time>
      </trkpt>
      <trkpt lat="43.97985" lon="7.36877">
        <ele>1266.4</ele>
        <time>2024-07-09T08:51:35Z</time>
      </trkpt>
      <trkpt lat="43.97994" lon="7.36882">
        <ele>1265.4</ele>
        <time>2024-07-09T08:51:36Z</time>
      </trkpt>
      <trkpt lat="43.98004" lon="7.36882">
        <ele>1265.4</ele>
        <time>2024-07-09T08:51:37Z</time>
      </trkpt>
      <trkpt lat="43.98012" lon="7.36878">
        <ele>1263.2</ele>
        <time>2024-07-09T08:51:38Z</time>
      </trkpt>
      <trkpt lat="43.98018" lon="7.36869">
        <ele>1263.2</ele>
        <time>2024-07-09T08:51:39Z</time>
      </trkpt>
      <trkpt lat="43.98023" lon="7.36858">
        <ele>1263.2</ele>
        <time>2024-07-09T08:51:40Z</time>
      </trkpt>
      <trkpt lat="43.98029" lon="7.36846">
        <ele>1262.2</ele>
        <time>2024-07-09T08:51:41Z</time>
      </trkpt>
      <trkpt lat="43.98034" lon="7.36833">
        <ele>1259.4</ele>
        <time>2024-07-09T08:51:42Z</time>
      </trkpt>
      <trkpt lat="43.98038" lon="7.36822">
        <ele>1259.4</ele>
        <time>2024-07-09T08:51:43Z</time>
      </trkpt>
      <trkpt lat="43.98043" lon="7.36812">
        <ele>1259.4</ele>
        <time>2024-07-09T08:51:44Z</time>
      </trkpt>
      <trkpt lat="43.98048" lon="7.36802">
        <ele>1258.4</ele>
        <time>2024-07-09T08:51:45Z</time>
      </trkpt>
      <trkpt lat="43.98054" lon="7.36796">
        <ele>1255.8</ele>
        <time>2024-07-09T08:51:46Z</time>
      </trkpt>
      <trkpt lat="43.98061" lon="7.36793">
        <ele>1255.8</ele>
        <time>2024-07-09T08:51:47Z</time>
      </trkpt>
      <trkpt lat="43.98069" lon="7.36793">
        <ele>1255.8</ele>
        <time>2024-07-09T08:51:48Z</time>
      </trkpt>
      <trkpt lat="43.98077" lon="7.36796">
        <ele>1254.8</ele>
        <time>2024-07-09T08:51:49Z</time>
      </trkpt>
      <trkpt lat="43.98086" lon="7.36798">
        <ele>1254.8</ele>
        <time>2024-07-09T08:51:50Z</time>
      </trkpt>
      <trkpt lat="43.98094" lon="7.36793">
        <ele>1252</ele>
        <time>2024-07-09T08:51:51Z</time>
      </trkpt>
      <trkpt lat="43.98101" lon="7.36784">
        <ele>1252</ele>
        <time>2024-07-09T08:51:52Z</time>
      </trkpt>
      <trkpt lat="43.98107" lon="7.36773">
        <ele>1252</ele>
        <time>2024-07-09T08:51:53Z</time>
      </trkpt>
      <trkpt lat="43.98111" lon="7.36761">
        <ele>1251</ele>
        <time>2024-07-09T08:51:54Z</time>
      </trkpt>
      <trkpt lat="43.98113" lon="7.36748">
        <ele>1247.8</ele>
        <time>2024-07-09T08:51:55Z</time>
      </trkpt>
      <trkpt lat="43.98114" lon="7.36733">
        <ele>1247.8</ele>
        <time>2024-07-09T08:51:56Z</time>
      </trkpt>
      <trkpt lat="43.98116" lon="7.36718">
        <ele>1247.8</ele>
        <time>2024-07-09T08:51:57Z</time>
      </trkpt>
      <trkpt lat="43.98117" lon="7.36703">
        <ele>1246.8</ele>
        <time>2024-07-09T08:51:58Z</time>
      </trkpt>
      <trkpt lat="43.98118" lon="7.36688">
        <ele>1246.8</ele>
        <time>2024-07-09T08:51:59Z</time>
      </trkpt>
      <trkpt lat="43.9812" lon="7.36673">
        <ele>1244</ele>
        <time>2024-07-09T08:52:00Z</time>
      </trkpt>
      <trkpt lat="43.98123" lon="7.3666">
        <ele>1244</ele>
        <time>2024-07-09T08:52:01Z</time>
      </trkpt>
      <trkpt lat="43.98127" lon="7.36649">
        <ele>1243</ele>
        <time>2024-07-09T08:52:02Z</time>
      </trkpt>
      <trkpt lat="43.98133" lon="7.36637">
        <ele>1243</ele>
        <time>2024-07-09T08:52:03Z</time>
      </trkpt>
      <trkpt lat="43.98141" lon="7.36627">
        <ele>1239.4</ele>
        <time>2024-07-09T08:52:04Z</time>
      </trkpt>
      <trkpt lat="43.98148" lon="7.36617">
        <ele>1239.4</ele>
        <time>2024-07-09T08:52:05Z</time>
      </trkpt>
      <trkpt lat="43.98156" lon="7.36606">
        <ele>1239.4</ele>
        <time>2024-07-09T08:52:06Z</time>
      </trkpt>
      <trkpt lat="43.98164" lon="7.36595">
        <ele>1238.4</ele>
        <time>2024-07-09T08:52:07Z</time>
      </trkpt>
      <trkpt lat="43.98172" lon="7.36584">
        <ele>1235</ele>
        <time>2024-07-09T08:52:08Z</time>
      </trkpt>
      <trkpt lat="43.98181" lon="7.36574">
        <ele>1235</ele>
        <time>2024-07-09T08:52:09Z</time>
      </trkpt>
      <trkpt lat="43.9819" lon="7.36564">
        <ele>1235</ele>
        <time>2024-07-09T08:52:10Z</time>
      </trkpt>
      <trkpt lat="43.982" lon="7.36555">
        <ele>1234</ele>
        <time>2024-07-09T08:52:11Z</time>
      </trkpt>
      <trkpt lat="43.98209" lon="7.36548">
        <ele>1231</ele>
        <time>2024-07-09T08:52:12Z</time>
      </trkpt>
      <trkpt lat="43.98219" lon="7.36543">
        <ele>1231</ele>
        <time>2024-07-09T08:52:13Z</time>
      </trkpt>
      <trkpt lat="43.98227" lon="7.36539">
        <ele>1231</ele>
        <time>2024-07-09T08:52:14Z</time>
      </trkpt>
      <trkpt lat="43.98234" lon="7.36536">
        <ele>1231</ele>
        <time>2024-07-09T08:52:15Z</time>
      </trkpt>
      <trkpt lat="43.9824" lon="7.3653">
        <ele>1230</ele>
        <time>2024-07-09T08:52:16Z</time>
      </trkpt>
      <trkpt lat="43.98244" lon="7.36523">
        <ele>1230</ele>
        <time>2024-07-09T08:52:17Z</time>
      </trkpt>
      <trkpt lat="43.9824" lon="7.36515">
        <ele>1227</ele>
        <time>2024-07-09T08:52:18Z</time>
      </trkpt>
      <trkpt lat="43.98234" lon="7.36511">
        <ele>1227</ele>
        <time>2024-07-09T08:52:19Z</time>
      </trkpt>
      <trkpt lat="43.98227" lon="7.36512">
        <ele>1226</ele>
        <time>2024-07-09T08:52:20Z</time>
      </trkpt>
      <trkpt lat="43.98221" lon="7.36518">
        <ele>1226</ele>
        <time>2024-07-09T08:52:21Z</time>
      </trkpt>
      <trkpt lat="43.98215" lon="7.36525">
        <ele>1224</ele>
        <time>2024-07-09T08:52:22Z</time>
      </trkpt>
      <trkpt lat="43.98208" lon="7.3653">
        <ele>1224</ele>
        <time>2024-07-09T08:52:23Z</time>
      </trkpt>
      <trkpt lat="43.982" lon="7.36535">
        <ele>1224</ele>
        <time>2024-07-09T08:52:24Z</time>
      </trkpt>
      <trkpt lat="43.98191" lon="7.36539">
        <ele>1223</ele>
        <time>2024-07-09T08:52:25Z</time>
      </trkpt>
      <trkpt lat="43.98183" lon="7.36544">
        <ele>1221.2</ele>
        <time>2024-07-09T08:52:26Z</time>
      </trkpt>
      <trkpt lat="43.98174" lon="7.3655">
        <ele>1221.2</ele>
        <time>2024-07-09T08:52:27Z</time>
      </trkpt>
      <trkpt lat="43.98166" lon="7.36556">
        <ele>1221.2</ele>
        <time>2024-07-09T08:52:28Z</time>
      </trkpt>
      <trkpt lat="43.98157" lon="7.36562">
        <ele>1221.2</ele>
        <time>2024-07-09T08:52:29Z</time>
      </trkpt>
      <trkpt lat="43.98147" lon="7.36569">
        <ele>1217.8</ele>
        <time>2024-07-09T08:52:30Z</time>
      </trkpt>
      <trkpt lat="43.98138" lon="7.36576">
        <ele>1217.8</ele>
        <time>2024-07-09T08:52:31Z</time>
      </trkpt>
      <trkpt lat="43.98129" lon="7.36583">
        <ele>1217.8</ele>
        <time>2024-07-09T08:52:32Z</time>
      </trkpt>
      <trkpt lat="43.98119" lon="7.36591">
        <ele>1217.8</ele>
        <time>2024-07-09T08:52:33Z</time>
      </trkpt>
      <trkpt lat="43.9811" lon="7.36598">
        <ele>1216.8</ele>
        <time>2024-07-09T08:52:34Z</time>
      </trkpt>
      <trkpt lat="43.98101" lon="7.36607">
        <ele>1214</ele>
        <time>2024-07-09T08:52:35Z</time>
      </trkpt>
      <trkpt lat="43.98095" lon="7.36617">
        <ele>1214</ele>
        <time>2024-07-09T08:52:36Z</time>
      </trkpt>
      <trkpt lat="43.9809" lon="7.36626">
        <ele>1214</ele>
        <time>2024-07-09T08:52:37Z</time>
      </trkpt>
      <trkpt lat="43.98086" lon="7.36636">
        <ele>1213</ele>
        <time>2024-07-09T08:52:38Z</time>
      </trkpt>
      <trkpt lat="43.98081" lon="7.36644">
        <ele>1211</ele>
        <time>2024-07-09T08:52:39Z</time>
      </trkpt>
      <trkpt lat="43.98075" lon="7.36647">
        <ele>1211</ele>
        <time>2024-07-09T08:52:40Z</time>
      </trkpt>
      <trkpt lat="43.98072" lon="7.36643">
        <ele>1211</ele>
        <time>2024-07-09T08:52:41Z</time>
      </trkpt>
      <trkpt lat="43.98074" lon="7.36636">
        <ele>1211</ele>
        <time>2024-07-09T08:52:42Z</time>
      </trkpt>
      <trkpt lat="43.98077" lon="7.36629">
        <ele>1209.2</ele>
        <time>2024-07-09T08:52:43Z</time>
      </trkpt>
      <trkpt lat="43.98082" lon="7.36621">
        <ele>1209.2</ele>
        <time>2024-07-09T08:52:44Z</time>
      </trkpt>
      <trkpt lat="43.98088" lon="7.36615">
        <ele>1209.2</ele>
        <time>2024-07-09T08:52:45Z</time>
      </trkpt>
      <trkpt lat="43.98094" lon="7.36609">
        <ele>1209.2</ele>
        <time>2024-07-09T08:52:46Z</time>
      </trkpt>
      <trkpt lat="43.98099" lon="7.36602">
        <ele>1208.2</ele>
        <time>2024-07-09T08:52:47Z</time>
      </trkpt>
      <trkpt lat="43.98105" lon="7.36595">
        <ele>1207.2</ele>
        <time>2024-07-09T08:52:48Z</time>
      </trkpt>
      <trkpt lat="43.98111" lon="7.36588">
        <ele>1207.2</ele>
        <time>2024-07-09T08:52:49Z</time>
      </trkpt>
      <trkpt lat="43.98117" lon="7.36581">
        <ele>1207.2</ele>
        <time>2024-07-09T08:52:50Z</time>
      </trkpt>
      <trkpt lat="43.98123" lon="7.36573">
        <ele>1207.2</ele>
        <time>2024-07-09T08:52:51Z</time>
      </trkpt>
      <trkpt lat="43.9813" lon="7.36566">
        <ele>1205.2</ele>
        <time>2024-07-09T08:52:52Z</time>
      </trkpt>
      <trkpt lat="43.98138" lon="7.36559">
        <ele>1205.2</ele>
        <time>2024-07-09T08:52:53Z</time>
      </trkpt>
      <trkpt lat="43.98145" lon="7.36551">
        <ele>1205.2</ele>
        <time>2024-07-09T08:52:54Z</time>
      </trkpt>
      <trkpt lat="43.98152" lon="7.36543">
        <ele>1204.2</ele>
        <time>2024-07-09T08:52:55Z</time>
      </trkpt>
      <trkpt lat="43.98159" lon="7.36535">
        <ele>1204.2</ele>
        <time>2024-07-09T08:52:56Z</time>
      </trkpt>
      <trkpt lat="43.98166" lon="7.36526">
        <ele>1202.6</ele>
        <time>2024-07-09T08:52:57Z</time>
      </trkpt>
      <trkpt lat="43.98173" lon="7.36518">
        <ele>1202.6</ele>
        <time>2024-07-09T08:52:58Z</time>
      </trkpt>
      <trkpt lat="43.98181" lon="7.3651">
        <ele>1202.6</ele>
        <time>2024-07-09T08:52:59Z</time>
      </trkpt>
      <trkpt lat="43.98188" lon="7.36501">
        <ele>1202.6</ele>
        <time>2024-07-09T08:53:00Z</time>
      </trkpt>
      <trkpt lat="43.98195" lon="7.36492">
        <ele>1201.6</ele>
        <time>2024-07-09T08:53:01Z</time>
      </trkpt>
      <trkpt lat="43.98202" lon="7.36482">
        <ele>1200.2</ele>
        <time>2024-07-09T08:53:02Z</time>
      </trkpt>
      <trkpt lat="43.98207" lon="7.36472">
        <ele>1200.2</ele>
        <time>2024-07-09T08:53:03Z</time>
      </trkpt>
      <trkpt lat="43.98211" lon="7.3646">
        <ele>1200.2</ele>
        <time>2024-07-09T08:53:04Z</time>
      </trkpt>
      <trkpt lat="43.98216" lon="7.3645">
        <ele>1200.2</ele>
        <time>2024-07-09T08:53:05Z</time>
      </trkpt>
      <trkpt lat="43.98223" lon="7.36445">
        <ele>1197.2</ele>
        <time>2024-07-09T08:53:06Z</time>
      </trkpt>
      <trkpt lat="43.98231" lon="7.36444">
        <ele>1197.2</ele>
        <time>2024-07-09T08:53:07Z</time>
      </trkpt>
      <trkpt lat="43.98238" lon="7.36447">
        <ele>1197.2</ele>
        <time>2024-07-09T08:53:08Z</time>
      </trkpt>
      <trkpt lat="43.98245" lon="7.36454">
        <ele>1197.2</ele>
        <time>2024-07-09T08:53:09Z</time>
      </trkpt>
      <trkpt lat="43.9825" lon="7.36462">
        <ele>1197.2</ele>
        <time>2024-07-09T08:53:10Z</time>
      </trkpt>
      <trkpt lat="43.98255" lon="7.36472">
        <ele>1194.6</ele>
        <time>2024-07-09T08:53:11Z</time>
      </trkpt>
      <trkpt lat="43.98261" lon="7.36481">
        <ele>1194.6</ele>
        <time>2024-07-09T08:53:12Z</time>
      </trkpt>
      <trkpt lat="43.98267" lon="7.36489">
        <ele>1194.6</ele>
        <time>2024-07-09T08:53:13Z</time>
      </trkpt>
      <trkpt lat="43.98273" lon="7.36496">
        <ele>1193.6</ele>
        <time>2024-07-09T08:53:14Z</time>
      </trkpt>
      <trkpt lat="43.98281" lon="7.365">
        <ele>1192.2</ele>
        <time>2024-07-09T08:53:15Z</time>
      </trkpt>
      <trkpt lat="43.98289" lon="7.36502">
        <ele>1192.2</ele>
        <time>2024-07-09T08:53:16Z</time>
      </trkpt>
      <trkpt lat="43.98299" lon="7.36504">
        <ele>1192.2</ele>
        <time>2024-07-09T08:53:17Z</time>
      </trkpt>
      <trkpt lat="43.98308" lon="7.36506">
        <ele>1192.2</ele>
        <time>2024-07-09T08:53:18Z</time>
      </trkpt>
      <trkpt lat="43.98319" lon="7.36511">
        <ele>1188.8</ele>
        <time>2024-07-09T08:53:19Z</time>
      </trkpt>
      <trkpt lat="43.98328" lon="7.36518">
        <ele>1188.8</ele>
        <time>2024-07-09T08:53:20Z</time>
      </trkpt>
      <trkpt lat="43.98337" lon="7.36525">
        <ele>1188.8</ele>
        <time>2024-07-09T08:53:21Z</time>
      </trkpt>
      <trkpt lat="43.98347" lon="7.36529">
        <ele>1188.8</ele>
        <time>2024-07-09T08:53:22Z</time>
      </trkpt>
      <trkpt lat="43.98355" lon="7.36534">
        <ele>1187.8</ele>
        <time>2024-07-09T08:53:23Z</time>
      </trkpt>
      <trkpt lat="43.98362" lon="7.36539">
        <ele>1185</ele>
        <time>2024-07-09T08:53:24Z</time>
      </trkpt>
      <trkpt lat="43.98369" lon="7.36547">
        <ele>1185</ele>
        <time>2024-07-09T08:53:25Z</time>
      </trkpt>
      <trkpt lat="43.98374" lon="7.36558">
        <ele>1185</ele>
        <time>2024-07-09T08:53:26Z</time>
      </trkpt>
      <trkpt lat="43.98379" lon="7.36567">
        <ele>1184</ele>
        <time>2024-07-09T08:53:27Z</time>
      </trkpt>
      <trkpt lat="43.98386" lon="7.36573">
        <ele>1182.2</ele>
        <time>2024-07-09T08:53:28Z</time>
      </trkpt>
      <trkpt lat="43.98395" lon="7.36576">
        <ele>1182.2</ele>
        <time>2024-07-09T08:53:29Z</time>
      </trkpt>
      <trkpt lat="43.98404" lon="7.36578">
        <ele>1182.2</ele>
        <time>2024-07-09T08:53:30Z</time>
      </trkpt>
      <trkpt lat="43.98412" lon="7.36582">
        <ele>1182.2</ele>
        <time>2024-07-09T08:53:31Z</time>
      </trkpt>
      <trkpt lat="43.98421" lon="7.36587">
        <ele>1178.6</ele>
        <time>2024-07-09T08:53:32Z</time>
      </trkpt>
      <trkpt lat="43.9843" lon="7.36594">
        <ele>1178.6</ele>
        <time>2024-07-09T08:53:33Z</time>
      </trkpt>
      <trkpt lat="43.98439" lon="7.36603">
        <ele>1178.6</ele>
        <time>2024-07-09T08:53:34Z</time>
      </trkpt>
      <trkpt lat="43.98447" lon="7.36611">
        <ele>1178.6</ele>
        <time>2024-07-09T08:53:35Z</time>
      </trkpt>
      <trkpt lat="43.98456" lon="7.36621">
        <ele>1177.6</ele>
        <time>2024-07-09T08:53:36Z</time>
      </trkpt>
      <trkpt lat="43.98464" lon="7.3663">
        <ele>1174.4</ele>
        <time>2024-07-09T08:53:37Z</time>
      </trkpt>
      <trkpt lat="43.98472" lon="7.3664">
        <ele>1174.4</ele>
        <time>2024-07-09T08:53:38Z</time>
      </trkpt>
      <trkpt lat="43.9848" lon="7.36651">
        <ele>1174.4</ele>
        <time>2024-07-09T08:53:39Z</time>
      </trkpt>
      <trkpt lat="43.98487" lon="7.36663">
        <ele>1174.4</ele>
        <time>2024-07-09T08:53:40Z</time>
      </trkpt>
      <trkpt lat="43.98494" lon="7.36676">
        <ele>1173.4</ele>
        <time>2024-07-09T08:53:41Z</time>
      </trkpt>
      <trkpt lat="43.98499" lon="7.36688">
        <ele>1170</ele>
        <time>2024-07-09T08:53:42Z</time>
      </trkpt>
      <trkpt lat="43.98504" lon="7.36699">
        <ele>1170</ele>
        <time>2024-07-09T08:53:43Z</time>
      </trkpt>
      <trkpt lat="43.98509" lon="7.36708">
        <ele>1170</ele>
        <time>2024-07-09T08:53:44Z</time>
      </trkpt>
      <trkpt lat="43.98516" lon="7.36712">
        <ele>1170</ele>
        <time>2024-07-09T08:53:45Z</time>
      </trkpt>
      <trkpt lat="43.98525" lon="7.36713">
        <ele>1169</ele>
        <time>2024-07-09T08:53:46Z</time>
      </trkpt>
      <trkpt lat="43.98533" lon="7.3671">
        <ele>1167</ele>
        <time>2024-07-09T08:53:47Z</time>
      </trkpt>
      <trkpt lat="43.98539" lon="7.36703">
        <ele>1167</ele>
        <time>2024-07-09T08:53:48Z</time>
      </trkpt>
      <trkpt lat="43.98543" lon="7.36692">
        <ele>1167</ele>
        <time>2024-07-09T08:53:49Z</time>
      </trkpt>
      <trkpt lat="43.98546" lon="7.36681">
        <ele>1166</ele>
        <time>2024-07-09T08:53:50Z</time>
      </trkpt>
      <trkpt lat="43.98549" lon="7.36668">
        <ele>1164.8</ele>
        <time>2024-07-09T08:53:51Z</time>
      </trkpt>
      <trkpt lat="43.98552" lon="7.36655">
        <ele>1164.8</ele>
        <time>2024-07-09T08:53:52Z</time>
      </trkpt>
      <trkpt lat="43.98555" lon="7.36641">
        <ele>1164.8</ele>
        <time>2024-07-09T08:53:53Z</time>
      </trkpt>
      <trkpt lat="43.98556" lon="7.36627">
        <ele>1163.8</ele>
        <time>2024-07-09T08:53:54Z</time>
      </trkpt>
      <trkpt lat="43.98557" lon="7.36612">
        <ele>1160.4</ele>
        <time>2024-07-09T08:53:55Z</time>
      </trkpt>
      <trkpt lat="43.98558" lon="7.36598">
        <ele>1160.4</ele>
        <time>2024-07-09T08:53:56Z</time>
      </trkpt>
      <trkpt lat="43.98558" lon="7.36583">
        <ele>1160.4</ele>
        <time>2024-07-09T08:53:57Z</time>
      </trkpt>
      <trkpt lat="43.98558" lon="7.36567">
        <ele>1160.4</ele>
        <time>2024-07-09T08:53:58Z</time>
      </trkpt>
      <trkpt lat="43.98557" lon="7.36551">
        <ele>1159.4</ele>
        <time>2024-07-09T08:53:59Z</time>
      </trkpt>
      <trkpt lat="43.98554" lon="7.36536">
        <ele>1156.4</ele>
        <time>2024-07-09T08:54:00Z</time>
      </trkpt>
      <trkpt lat="43.9855" lon="7.3652">
        <ele>1156.4</ele>
        <time>2024-07-09T08:54:01Z</time>
      </trkpt>
      <trkpt lat="43.98547" lon="7.36505">
        <ele>1156.4</ele>
        <time>2024-07-09T08:54:02Z</time>
      </trkpt>
      <trkpt lat="43.98544" lon="7.3649">
        <ele>1155.4</ele>
        <time>2024-07-09T08:54:03Z</time>
      </trkpt>
      <trkpt lat="43.98541" lon="7.36476">
        <ele>1152</ele>
        <time>2024-07-09T08:54:04Z</time>
      </trkpt>
      <trkpt lat="43.9854" lon="7.36463">
        <ele>1152</ele>
        <time>2024-07-09T08:54:05Z</time>
      </trkpt>
      <trkpt lat="43.98541" lon="7.36449">
        <ele>1152</ele>
        <time>2024-07-09T08:54:06Z</time>
      </trkpt>
      <trkpt lat="43.98544" lon="7.36435">
        <ele>1152</ele>
        <time>2024-07-09T08:54:07Z</time>
      </trkpt>
      <trkpt lat="43.98548" lon="7.36421">
        <ele>1147.8</ele>
        <time>2024-07-09T08:54:08Z</time>
      </trkpt>
      <trkpt lat="43.9855" lon="7.36407">
        <ele>1147.8</ele>
        <time>2024-07-09T08:54:09Z</time>
      </trkpt>
      <trkpt lat="43.98552" lon="7.36393">
        <ele>1147.8</ele>
        <time>2024-07-09T08:54:10Z</time>
      </trkpt>
      <trkpt lat="43.98553" lon="7.36377">
        <ele>1147.8</ele>
        <time>2024-07-09T08:54:11Z</time>
      </trkpt>
      <trkpt lat="43.98551" lon="7.36361">
        <ele>1146.8</ele>
        <time>2024-07-09T08:54:12Z</time>
      </trkpt>
      <trkpt lat="43.98549" lon="7.36345">
        <ele>1143.6</ele>
        <time>2024-07-09T08:54:13Z</time>
      </trkpt>
      <trkpt lat="43.98547" lon="7.36329">
        <ele>1143.6</ele>
        <time>2024-07-09T08:54:14Z</time>
      </trkpt>
      <trkpt lat="43.98545" lon="7.36312">
        <ele>1143.6</ele>
        <time>2024-07-09T08:54:15Z</time>
      </trkpt>
      <trkpt lat="43.98543" lon="7.36295">
        <ele>1142.6</ele>
        <time>2024-07-09T08:54:16Z</time>
      </trkpt>
      <trkpt lat="43.98543" lon="7.36278">
        <ele>1142.6</ele>
        <time>2024-07-09T08:54:17Z</time>
      </trkpt>
      <trkpt lat="43.98543" lon="7.36261">
        <ele>1138.8</ele>
        <time>2024-07-09T08:54:18Z</time>
      </trkpt>
      <trkpt lat="43.98544" lon="7.36244">
        <ele>1138.8</ele>
        <time>2024-07-09T08:54:19Z</time>
      </trkpt>
      <trkpt lat="43.98544" lon="7.36227">
        <ele>1138.8</ele>
        <time>2024-07-09T08:54:20Z</time>
      </trkpt>
      <trkpt lat="43.98543" lon="7.3621">
        <ele>1137.8</ele>
        <time>2024-07-09T08:54:21Z</time>
      </trkpt>
      <trkpt lat="43.98543" lon="7.36193">
        <ele>1137.8</ele>
        <time>2024-07-09T08:54:22Z</time>
      </trkpt>
      <trkpt lat="43.98543" lon="7.36176">
        <ele>1134</ele>
        <time>2024-07-09T08:54:23Z</time>
      </trkpt>
      <trkpt lat="43.98544" lon="7.3616">
        <ele>1134</ele>
        <time>2024-07-09T08:54:24Z</time>
      </trkpt>
      <trkpt lat="43.98546" lon="7.36144">
        <ele>1134</ele>
        <time>2024-07-09T08:54:25Z</time>
      </trkpt>
      <trkpt lat="43.98548" lon="7.36128">
        <ele>1133</ele>
        <time>2024-07-09T08:54:26Z</time>
      </trkpt>
      <trkpt lat="43.98551" lon="7.36113">
        <ele>1129.6</ele>
        <time>2024-07-09T08:54:27Z</time>
      </trkpt>
      <trkpt lat="43.98556" lon="7.36101">
        <ele>1129.6</ele>
        <time>2024-07-09T08:54:28Z</time>
      </trkpt>
      <trkpt lat="43.9856" lon="7.36092">
        <ele>1129.6</ele>
        <time>2024-07-09T08:54:29Z</time>
      </trkpt>
      <trkpt lat="43.98563" lon="7.36083">
        <ele>1129.6</ele>
        <time>2024-07-09T08:54:30Z</time>
      </trkpt>
      <trkpt lat="43.98564" lon="7.36075">
        <ele>1128.6</ele>
        <time>2024-07-09T08:54:31Z</time>
      </trkpt>
      <trkpt lat="43.9856" lon="7.36067">
        <ele>1126.2</ele>
        <time>2024-07-09T08:54:32Z</time>
      </trkpt>
      <trkpt lat="43.98555" lon="7.36062">
        <ele>1126.2</ele>
        <time>2024-07-09T08:54:33Z</time>
      </trkpt>
      <trkpt lat="43.98548" lon="7.36062">
        <ele>1126.2</ele>
        <time>2024-07-09T08:54:34Z</time>
      </trkpt>
      <trkpt lat="43.98543" lon="7.36068">
        <ele>1125.2</ele>
        <time>2024-07-09T08:54:35Z</time>
      </trkpt>
      <trkpt lat="43.98541" lon="7.36078">
        <ele>1123</ele>
        <time>2024-07-09T08:54:36Z</time>
      </trkpt>
      <trkpt lat="43.9854" lon="7.36089">
        <ele>1123</ele>
        <time>2024-07-09T08:54:37Z</time>
      </trkpt>
      <trkpt lat="43.9854" lon="7.36099">
        <ele>1123</ele>
        <time>2024-07-09T08:54:38Z</time>
      </trkpt>
      <trkpt lat="43.98539" lon="7.3611">
        <ele>1122</ele>
        <time>2024-07-09T08:54:39Z</time>
      </trkpt>
      <trkpt lat="43.98536" lon="7.3612">
        <ele>1121.4</ele>
        <time>2024-07-09T08:54:40Z</time>
      </trkpt>
      <trkpt lat="43.98534" lon="7.36131">
        <ele>1121.4</ele>
        <time>2024-07-09T08:54:41Z</time>
      </trkpt>
      <trkpt lat="43.98532" lon="7.36142">
        <ele>1121.4</ele>
        <time>2024-07-09T08:54:42Z</time>
      </trkpt>
      <trkpt lat="43.98528" lon="7.36153">
        <ele>1120.4</ele>
        <time>2024-07-09T08:54:43Z</time>
      </trkpt>
      <trkpt lat="43.98525" lon="7.36165">
        <ele>1118.4</ele>
        <time>2024-07-09T08:54:44Z</time>
      </trkpt>
      <trkpt lat="43.98522" lon="7.36177">
        <ele>1118.4</ele>
        <time>2024-07-09T08:54:45Z</time>
      </trkpt>
      <trkpt lat="43.98518" lon="7.36188">
        <ele>1118.4</ele>
        <time>2024-07-09T08:54:46Z</time>
      </trkpt>
      <trkpt lat="43.98515" lon="7.36201">
        <ele>1117.4</ele>
        <time>2024-07-09T08:54:47Z</time>
      </trkpt>
      <trkpt lat="43.98512" lon="7.36214">
        <ele>1116.2</ele>
        <time>2024-07-09T08:54:48Z</time>
      </trkpt>
      <trkpt lat="43.98509" lon="7.36227">
        <ele>1116.2</ele>
        <time>2024-07-09T08:54:49Z</time>
      </trkpt>
      <trkpt lat="43.98506" lon="7.3624">
        <ele>1116.2</ele>
        <time>2024-07-09T08:54:50Z</time>
      </trkpt>
      <trkpt lat="43.98503" lon="7.36253">
        <ele>1115.2</ele>
        <time>2024-07-09T08:54:51Z</time>
      </trkpt>
      <trkpt lat="43.985" lon="7.36266">
        <ele>1115.2</ele>
        <time>2024-07-09T08:54:52Z</time>
      </trkpt>
      <trkpt lat="43.98497" lon="7.3628">
        <ele>1112.6</ele>
        <time>2024-07-09T08:54:53Z</time>
      </trkpt>
      <trkpt lat="43.98493" lon="7.36294">
        <ele>1112.6</ele>
        <time>2024-07-09T08:54:54Z</time>
      </trkpt>
      <trkpt lat="43.98491" lon="7.36308">
        <ele>1112.6</ele>
        <time>2024-07-09T08:54:55Z</time>
      </trkpt>
      <trkpt lat="43.98491" lon="7.36321">
        <ele>1111.6</ele>
        <time>2024-07-09T08:54:56Z</time>
      </trkpt>
      <trkpt lat="43.98491" lon="7.36336">
        <ele>1109.2</ele>
        <time>2024-07-09T08:54:57Z</time>
      </trkpt>
      <trkpt lat="43.98492" lon="7.36352">
        <ele>1109.2</ele>
        <time>2024-07-09T08:54:58Z</time>
      </trkpt>
      <trkpt lat="43.98491" lon="7.36367">
        <ele>1109.2</ele>
        <time>2024-07-09T08:54:59Z</time>
      </trkpt>
      <trkpt lat="43.98489" lon="7.36381">
        <ele>1109.2</ele>
        <time>2024-07-09T08:55:00Z</time>
      </trkpt>
      <trkpt lat="43.98484" lon="7.36396">
        <ele>1106.2</ele>
        <time>2024-07-09T08:55:01Z</time>
      </trkpt>
      <trkpt lat="43.98479" lon="7.36409">
        <ele>1106.2</ele>
        <time>2024-07-09T08:55:02Z</time>
      </trkpt>
      <trkpt lat="43.98476" lon="7.36423">
        <ele>1106.2</ele>
        <time>2024-07-09T08:55:03Z</time>
      </trkpt>
      <trkpt lat="43.98474" lon="7.36435">
        <ele>1106.2</ele>
        <time>2024-07-09T08:55:04Z</time>
      </trkpt>
      <trkpt lat="43.98471" lon="7.36445">
        <ele>1106.2</ele>
        <time>2024-07-09T08:55:05Z</time>
      </trkpt>
      <trkpt lat="43.98468" lon="7.36452">
        <ele>1105.2</ele>
        <time>2024-07-09T08:55:06Z</time>
      </trkpt>
      <trkpt lat="43.98461" lon="7.36455">
        <ele>1102.6</ele>
        <time>2024-07-09T08:55:07Z</time>
      </trkpt>
      <trkpt lat="43.98457" lon="7.36451">
        <ele>1102.6</ele>
        <time>2024-07-09T08:55:08Z</time>
      </trkpt>
      <trkpt lat="43.98456" lon="7.36445">
        <ele>1102.6</ele>
        <time>2024-07-09T08:55:09Z</time>
      </trkpt>
      <trkpt lat="43.98459" lon="7.36437">
        <ele>1101.6</ele>
        <time>2024-07-09T08:55:10Z</time>
      </trkpt>
      <trkpt lat="43.98462" lon="7.3643">
        <ele>1100.4</ele>
        <time>2024-07-09T08:55:11Z</time>
      </trkpt>
      <trkpt lat="43.98466" lon="7.3642">
        <ele>1100.4</ele>
        <time>2024-07-09T08:55:12Z</time>
      </trkpt>
      <trkpt lat="43.98469" lon="7.3641">
        <ele>1100.4</ele>
        <time>2024-07-09T08:55:13Z</time>
      </trkpt>
      <trkpt lat="43.9847" lon="7.36399">
        <ele>1099.4</ele>
        <time>2024-07-09T08:55:14Z</time>
      </trkpt>
      <trkpt lat="43.9847" lon="7.36387">
        <ele>1098.4</ele>
        <time>2024-07-09T08:55:15Z</time>
      </trkpt>
      <trkpt lat="43.98468" lon="7.36376">
        <ele>1098.4</ele>
        <time>2024-07-09T08:55:16Z</time>
      </trkpt>
      <trkpt lat="43.98466" lon="7.36364">
        <ele>1098.4</ele>
        <time>2024-07-09T08:55:17Z</time>
      </trkpt>
      <trkpt lat="43.98464" lon="7.36352">
        <ele>1098.4</ele>
        <time>2024-07-09T08:55:18Z</time>
      </trkpt>
      <trkpt lat="43.98462" lon="7.3634">
        <ele>1097.4</ele>
        <time>2024-07-09T08:55:19Z</time>
      </trkpt>
      <trkpt lat="43.98459" lon="7.36327">
        <ele>1096.2</ele>
        <time>2024-07-09T08:55:20Z</time>
      </trkpt>
      <trkpt lat="43.98457" lon="7.36314">
        <ele>1096.2</ele>
        <time>2024-07-09T08:55:21Z</time>
      </trkpt>
      <trkpt lat="43.98456" lon="7.36301">
        <ele>1096.2</ele>
        <time>2024-07-09T08:55:22Z</time>
      </trkpt>
      <trkpt lat="43.98456" lon="7.36287">
        <ele>1096.2</ele>
        <time>2024-07-09T08:55:23Z</time>
      </trkpt>
      <trkpt lat="43.98455" lon="7.36272">
        <ele>1092.8</ele>
        <time>2024-07-09T08:55:24Z</time>
      </trkpt>
      <trkpt lat="43.98455" lon="7.36259">
        <ele>1092.8</ele>
        <time>2024-07-09T08:55:25Z</time>
      </trkpt>
      <trkpt lat="43.98455" lon="7.36244">
        <ele>1092.8</ele>
        <time>2024-07-09T08:55:26Z</time>
      </trkpt>
      <trkpt lat="43.98455" lon="7.3623">
        <ele>1091.8</ele>
        <time>2024-07-09T08:55:27Z</time>
      </trkpt>
      <trkpt lat="43.98454" lon="7.36215">
        <ele>1089.8</ele>
        <time>2024-07-09T08:55:28Z</time>
      </trkpt>
      <trkpt lat="43.98452" lon="7.36201">
        <ele>1089.8</ele>
        <time>2024-07-09T08:55:29Z</time>
      </trkpt>
      <trkpt lat="43.98449" lon="7.36187">
        <ele>1089.8</ele>
        <time>2024-07-09T08:55:30Z</time>
      </trkpt>
      <trkpt lat="43.98445" lon="7.36173">
        <ele>1089.8</ele>
        <time>2024-07-09T08:55:31Z</time>
      </trkpt>
      <trkpt lat="43.98441" lon="7.36159">
        <ele>1088.8</ele>
        <time>2024-07-09T08:55:32Z</time>
      </trkpt>
      <trkpt lat="43.98437" lon="7.36145">
        <ele>1086.4</ele>
        <time>2024-07-09T08:55:33Z</time>
      </trkpt>
      <trkpt lat="43.98435" lon="7.3613">
        <ele>1086.4</ele>
        <time>2024-07-09T08:55:34Z</time>
      </trkpt>
      <trkpt lat="43.98435" lon="7.36115">
        <ele>1086.4</ele>
        <time>2024-07-09T08:55:35Z</time>
      </trkpt>
      <trkpt lat="43.98433" lon="7.36099">
        <ele>1085.4</ele>
        <time>2024-07-09T08:55:36Z</time>
      </trkpt>
      <trkpt lat="43.98431" lon="7.36083">
        <ele>1082.2</ele>
        <time>2024-07-09T08:55:37Z</time>
      </trkpt>
      <trkpt lat="43.98429" lon="7.36067">
        <ele>1082.2</ele>
        <time>2024-07-09T08:55:38Z</time>
      </trkpt>
      <trkpt lat="43.98428" lon="7.36053">
        <ele>1082.2</ele>
        <time>2024-07-09T08:55:39Z</time>
      </trkpt>
      <trkpt lat="43.98427" lon="7.36039">
        <ele>1082.2</ele>
        <time>2024-07-09T08:55:40Z</time>
      </trkpt>
      <trkpt lat="43.98426" lon="7.36026">
        <ele>1081.2</ele>
        <time>2024-07-09T08:55:41Z</time>
      </trkpt>
      <trkpt lat="43.98427" lon="7.36014">
        <ele>1078</ele>
        <time>2024-07-09T08:55:42Z</time>
      </trkpt>
      <trkpt lat="43.98428" lon="7.36002">
        <ele>1078</ele>
        <time>2024-07-09T08:55:43Z</time>
      </trkpt>
      <trkpt lat="43.98431" lon="7.35991">
        <ele>1078</ele>
        <time>2024-07-09T08:55:44Z</time>
      </trkpt>
      <trkpt lat="43.98434" lon="7.35981">
        <ele>1077</ele>
        <time>2024-07-09T08:55:45Z</time>
      </trkpt>
      <trkpt lat="43.98439" lon="7.35973">
        <ele>1074.4</ele>
        <time>2024-07-09T08:55:46Z</time>
      </trkpt>
      <trkpt lat="43.98444" lon="7.35965">
        <ele>1074.4</ele>
        <time>2024-07-09T08:55:47Z</time>
      </trkpt>
      <trkpt lat="43.9845" lon="7.35959">
        <ele>1074.4</ele>
        <time>2024-07-09T08:55:48Z</time>
      </trkpt>
      <trkpt lat="43.98457" lon="7.35954">
        <ele>1074.4</ele>
        <time>2024-07-09T08:55:49Z</time>
      </trkpt>
      <trkpt lat="43.98465" lon="7.35952">
        <ele>1073.4</ele>
        <time>2024-07-09T08:55:50Z</time>
      </trkpt>
      <trkpt lat="43.98474" lon="7.35953">
        <ele>1070.6</ele>
        <time>2024-07-09T08:55:51Z</time>
      </trkpt>
      <trkpt lat="43.98482" lon="7.35953">
        <ele>1070.6</ele>
        <time>2024-07-09T08:55:52Z</time>
      </trkpt>
      <trkpt lat="43.9849" lon="7.35954">
        <ele>1070.6</ele>
        <time>2024-07-09T08:55:53Z</time>
      </trkpt>
      <trkpt lat="43.98498" lon="7.35953">
        <ele>1069.6</ele>
        <time>2024-07-09T08:55:54Z</time>
      </trkpt>
      <trkpt lat="43.98507" lon="7.35951">
        <ele>1069.6</ele>
        <time>2024-07-09T08:55:55Z</time>
      </trkpt>
      <trkpt lat="43.98514" lon="7.3595">
        <ele>1068.6</ele>
        <time>2024-07-09T08:55:56Z</time>
      </trkpt>
      <trkpt lat="43.98522" lon="7.3595">
        <ele>1068.6</ele>
        <time>2024-07-09T08:55:57Z</time>
      </trkpt>
      <trkpt lat="43.98528" lon="7.35951">
        <ele>1068.6</ele>
        <time>2024-07-09T08:55:58Z</time>
      </trkpt>
      <trkpt lat="43.98533" lon="7.3595">
        <ele>1067.6</ele>
        <time>2024-07-09T08:55:59Z</time>
      </trkpt>
      <trkpt lat="43.98537" lon="7.35951">
        <ele>1065.8</ele>
        <time>2024-07-09T08:56:00Z</time>
      </trkpt>
      <trkpt lat="43.98539" lon="7.35951">
        <ele>1065.8</ele>
        <time>2024-07-09T08:56:01Z</time>
      </trkpt>
      <trkpt lat="43.98541" lon="7.3595">
        <ele>1065.8</ele>
        <time>2024-07-09T08:56:02Z</time>
      </trkpt>
      <trkpt lat="43.98541" lon="7.3595">
        <ele>1065</ele>
        <time>2024-07-09T08:56:03Z</time>
      </trkpt>
      <trkpt lat="43.98541" lon="7.3595">
        <ele>1065</ele>
        <time>2024-07-09T08:56:04Z</time>
      </trkpt>
      <trkpt lat="43.98547" lon="7.35957">
        <ele>1064.4</ele>
        <time>2024-07-09T08:56:32Z</time>
      </trkpt>
      <trkpt lat="43.9855" lon="7.35958">
        <ele>1064.4</ele>
        <time>2024-07-09T08:56:33Z</time>
      </trkpt>
      <trkpt lat="43.98553" lon="7.35958">
        <ele>1064.4</ele>
        <time>2024-07-09T08:56:34Z</time>
      </trkpt>
      <trkpt lat="43.98557" lon="7.35959">
        <ele>1064</ele>
        <time>2024-07-09T08:56:35Z</time>
      </trkpt>
      <trkpt lat="43.98562" lon="7.35961">
        <ele>1064</ele>
        <time>2024-07-09T08:56:36Z</time>
      </trkpt>
      <trkpt lat="43.98567" lon="7.35963">
        <ele>1064</ele>
        <time>2024-07-09T08:56:37Z</time>
      </trkpt>
      <trkpt lat="43.98573" lon="7.35965">
        <ele>1063</ele>
        <time>2024-07-09T08:56:38Z</time>
      </trkpt>
      <trkpt lat="43.98579" lon="7.35967">
        <ele>1063</ele>
        <time>2024-07-09T08:56:39Z</time>
      </trkpt>
      <trkpt lat="43.98586" lon="7.3597">
        <ele>1063</ele>
        <time>2024-07-09T08:56:40Z</time>
      </trkpt>
      <trkpt lat="43.98593" lon="7.35974">
        <ele>1063</ele>
        <time>2024-07-09T08:56:41Z</time>
      </trkpt>
      <trkpt lat="43.986" lon="7.35979">
        <ele>1062</ele>
        <time>2024-07-09T08:56:42Z</time>
      </trkpt>
      <trkpt lat="43.98607" lon="7.35985">
        <ele>1060.2</ele>
        <time>2024-07-09T08:56:43Z</time>
      </trkpt>
      <trkpt lat="43.98614" lon="7.3599">
        <ele>1060.2</ele>
        <time>2024-07-09T08:56:44Z</time>
      </trkpt>
      <trkpt lat="43.98622" lon="7.35995">
        <ele>1060.2</ele>
        <time>2024-07-09T08:56:45Z</time>
      </trkpt>
      <trkpt lat="43.9863" lon="7.35997">
        <ele>1059.2</ele>
        <time>2024-07-09T08:56:46Z</time>
      </trkpt>
      <trkpt lat="43.9864" lon="7.35998">
        <ele>1059.2</ele>
        <time>2024-07-09T08:56:47Z</time>
      </trkpt>
      <trkpt lat="43.98649" lon="7.35998">
        <ele>1057.8</ele>
        <time>2024-07-09T08:56:48Z</time>
      </trkpt>
      <trkpt lat="43.98659" lon="7.36002">
        <ele>1057.8</ele>
        <time>2024-07-09T08:56:49Z</time>
      </trkpt>
      <trkpt lat="43.98668" lon="7.36009">
        <ele>1057.8</ele>
        <time>2024-07-09T08:56:50Z</time>
      </trkpt>
      <trkpt lat="43.98676" lon="7.36018">
        <ele>1057.8</ele>
        <time>2024-07-09T08:56:51Z</time>
      </trkpt>
      <trkpt lat="43.98684" lon="7.36028">
        <ele>1056.8</ele>
        <time>2024-07-09T08:56:52Z</time>
      </trkpt>
      <trkpt lat="43.98692" lon="7.36037">
        <ele>1054</ele>
        <time>2024-07-09T08:56:53Z</time>
      </trkpt>
      <trkpt lat="43.98699" lon="7.36049">
        <ele>1054</ele>
        <time>2024-07-09T08:56:54Z</time>
      </trkpt>
      <trkpt lat="43.98703" lon="7.36061">
        <ele>1054</ele>
        <time>2024-07-09T08:56:55Z</time>
      </trkpt>
      <trkpt lat="43.98706" lon="7.36076">
        <ele>1053</ele>
        <time>2024-07-09T08:56:56Z</time>
      </trkpt>
      <trkpt lat="43.98709" lon="7.3609">
        <ele>1051</ele>
        <time>2024-07-09T08:56:57Z</time>
      </trkpt>
      <trkpt lat="43.98713" lon="7.36104">
        <ele>1051</ele>
        <time>2024-07-09T08:56:58Z</time>
      </trkpt>
      <trkpt lat="43.98716" lon="7.36117">
        <ele>1051</ele>
        <time>2024-07-09T08:56:59Z</time>
      </trkpt>
      <trkpt lat="43.98721" lon="7.36129">
        <ele>1051</ele>
        <time>2024-07-09T08:57:00Z</time>
      </trkpt>
      <trkpt lat="43.98726" lon="7.36136">
        <ele>1047.2</ele>
        <time>2024-07-09T08:57:01Z</time>
      </trkpt>
      <trkpt lat="43.98733" lon="7.3614">
        <ele>1047.2</ele>
        <time>2024-07-09T08:57:02Z</time>
      </trkpt>
      <trkpt lat="43.9874" lon="7.3614">
        <ele>1047.2</ele>
        <time>2024-07-09T08:57:03Z</time>
      </trkpt>
      <trkpt lat="43.98746" lon="7.36137">
        <ele>1046.2</ele>
        <time>2024-07-09T08:57:04Z</time>
      </trkpt>
      <trkpt lat="43.98751" lon="7.36131">
        <ele>1044.6</ele>
        <time>2024-07-09T08:57:05Z</time>
      </trkpt>
      <trkpt lat="43.98754" lon="7.36123">
        <ele>1044.6</ele>
        <time>2024-07-09T08:57:06Z</time>
      </trkpt>
      <trkpt lat="43.98756" lon="7.36113">
        <ele>1044.6</ele>
        <time>2024-07-09T08:57:07Z</time>
      </trkpt>
      <trkpt lat="43.98758" lon="7.36104">
        <ele>1044.6</ele>
        <time>2024-07-09T08:57:08Z</time>
      </trkpt>
      <trkpt lat="43.98761" lon="7.36093">
        <ele>1043.6</ele>
        <time>2024-07-09T08:57:09Z</time>
      </trkpt>
      <trkpt lat="43.98762" lon="7.36083">
        <ele>1043</ele>
        <time>2024-07-09T08:57:10Z</time>
      </trkpt>
      <trkpt lat="43.98764" lon="7.36073">
        <ele>1043</ele>
        <time>2024-07-09T08:57:11Z</time>
      </trkpt>
      <trkpt lat="43.98765" lon="7.36064">
        <ele>1043</ele>
        <time>2024-07-09T08:57:12Z</time>
      </trkpt>
      <trkpt lat="43.98766" lon="7.36056">
        <ele>1042</ele>
        <time>2024-07-09T08:57:13Z</time>
      </trkpt>
      <trkpt lat="43.98766" lon="7.3605">
        <ele>1040.6</ele>
        <time>2024-07-09T08:57:14Z</time>
      </trkpt>
      <trkpt lat="43.98766" lon="7.36045">
        <ele>1040.6</ele>
        <time>2024-07-09T08:57:15Z</time>
      </trkpt>
      <trkpt lat="43.98766" lon="7.3604">
        <ele>1040.6</ele>
        <time>2024-07-09T08:57:16Z</time>
      </trkpt>
      <trkpt lat="43.98766" lon="7.36036">
        <ele>1039.8</ele>
        <time>2024-07-09T08:57:17Z</time>
      </trkpt>
      <trkpt lat="43.98767" lon="7.36033">
        <ele>1039.8</ele>
        <time>2024-07-09T08:57:18Z</time>
      </trkpt>
      <trkpt lat="43.98768" lon="7.3603">
        <ele>1039.6</ele>
        <time>2024-07-09T08:57:19Z</time>
      </trkpt>
      <trkpt lat="43.98768" lon="7.36027">
        <ele>1039.6</ele>
        <time>2024-07-09T08:57:20Z</time>
      </trkpt>
      <trkpt lat="43.98769" lon="7.36024">
        <ele>1039.6</ele>
        <time>2024-07-09T08:57:21Z</time>
      </trkpt>
      <trkpt lat="43.98769" lon="7.36021">
        <ele>1038.8</ele>
        <time>2024-07-09T08:57:22Z</time>
      </trkpt>
      <trkpt lat="43.9877" lon="7.36019">
        <ele>1038.8</ele>
        <time>2024-07-09T08:57:23Z</time>
      </trkpt>
      <trkpt lat="43.9877" lon="7.36017">
        <ele>1038.8</ele>
        <time>2024-07-09T08:57:24Z</time>
      </trkpt>
      <trkpt lat="43.98771" lon="7.36015">
        <ele>1038.8</ele>
        <time>2024-07-09T08:57:25Z</time>
      </trkpt>
      <trkpt lat="43.98772" lon="7.36013">
        <ele>1038.8</ele>
        <time>2024-07-09T08:57:26Z</time>
      </trkpt>
      <trkpt lat="43.98772" lon="7.36012">
        <ele>1038.2</ele>
        <time>2024-07-09T08:57:27Z</time>
      </trkpt>
      <trkpt lat="43.98772" lon="7.36011">
        <ele>1038.2</ele>
        <time>2024-07-09T08:57:28Z</time>
      </trkpt>
      <trkpt lat="43.98772" lon="7.36009">
        <ele>1038.2</ele>
        <time>2024-07-09T08:57:29Z</time>
      </trkpt>
      <trkpt lat="43.98772" lon="7.36007">
        <ele>1037.6</ele>
        <time>2024-07-09T08:57:30Z</time>
      </trkpt>
      <trkpt lat="43.98771" lon="7.36005">
        <ele>1037.6</ele>
        <time>2024-07-09T08:57:31Z</time>
      </trkpt>
      <trkpt lat="43.98771" lon="7.36003">
        <ele>1037.6</ele>
        <time>2024-07-09T08:57:32Z</time>
      </trkpt>
      <trkpt lat="43.98771" lon="7.36">
        <ele>1037.6</ele>
        <time>2024-07-09T08:57:33Z</time>
      </trkpt>
      <trkpt lat="43.9877" lon="7.35996">
        <ele>1037.6</ele>
        <time>2024-07-09T08:57:34Z</time>
      </trkpt>
      <trkpt lat="43.98769" lon="7.35993">
        <ele>1037.6</ele>
        <time>2024-07-09T08:57:35Z</time>
      </trkpt>
      <trkpt lat="43.98767" lon="7.3599">
        <ele>1036.8</ele>
        <time>2024-07-09T08:57:36Z</time>
      </trkpt>
      <trkpt lat="43.98766" lon="7.35987">
        <ele>1036.6</ele>
        <time>2024-07-09T08:57:37Z</time>
      </trkpt>
      <trkpt lat="43.98764" lon="7.35985">
        <ele>1036.6</ele>
        <time>2024-07-09T08:57:38Z</time>
      </trkpt>
      <trkpt lat="43.98763" lon="7.35983">
        <ele>1036.6</ele>
        <time>2024-07-09T08:57:39Z</time>
      </trkpt>
      <trkpt lat="43.98761" lon="7.35981">
        <ele>1036.6</ele>
        <time>2024-07-09T08:57:40Z</time>
      </trkpt>
      <trkpt lat="43.98759" lon="7.35978">
        <ele>1036.2</ele>
        <time>2024-07-09T08:57:41Z</time>
      </trkpt>
      <trkpt lat="43.98758" lon="7.35975">
        <ele>1036.2</ele>
        <time>2024-07-09T08:57:42Z</time>
      </trkpt>
      <trkpt lat="43.98757" lon="7.35971">
        <ele>1036.2</ele>
        <time>2024-07-09T08:57:43Z</time>
      </trkpt>
      <trkpt lat="43.98757" lon="7.35966">
        <ele>1035.8</ele>
        <time>2024-07-09T08:57:44Z</time>
      </trkpt>
      <trkpt lat="43.98756" lon="7.35961">
        <ele>1035.6</ele>
        <time>2024-07-09T08:57:45Z</time>
      </trkpt>
      <trkpt lat="43.98756" lon="7.35956">
        <ele>1035.6</ele>
        <time>2024-07-09T08:57:46Z</time>
      </trkpt>
      <trkpt lat="43.98757" lon="7.3595">
        <ele>1035.6</ele>
        <time>2024-07-09T08:57:47Z</time>
      </trkpt>
      <trkpt lat="43.98757" lon="7.35945">
        <ele>1035.6</ele>
        <time>2024-07-09T08:57:48Z</time>
      </trkpt>
      <trkpt lat="43.98758" lon="7.3594">
        <ele>1034.8</ele>
        <time>2024-07-09T08:57:49Z</time>
      </trkpt>
      <trkpt lat="43.98759" lon="7.35935">
        <ele>1034.6</ele>
        <time>2024-07-09T08:57:50Z</time>
      </trkpt>
      <trkpt lat="43.98759" lon="7.35931">
        <ele>1034.6</ele>
        <time>2024-07-09T08:57:51Z</time>
      </trkpt>
      <trkpt lat="43.9876" lon="7.35926">
        <ele>1034.6</ele>
        <time>2024-07-09T08:57:52Z</time>
      </trkpt>
      <trkpt lat="43.98761" lon="7.35921">
        <ele>1034.6</ele>
        <time>2024-07-09T08:57:53Z</time>
      </trkpt>
      <trkpt lat="43.98762" lon="7.35916">
        <ele>1033.4</ele>
        <time>2024-07-09T08:57:54Z</time>
      </trkpt>
      <trkpt lat="43.98763" lon="7.35911">
        <ele>1033.4</ele>
        <time>2024-07-09T08:57:55Z</time>
      </trkpt>
      <trkpt lat="43.98763" lon="7.35906">
        <ele>1033.4</ele>
        <time>2024-07-09T08:57:56Z</time>
      </trkpt>
      <trkpt lat="43.98762" lon="7.35901">
        <ele>1033.4</ele>
        <time>2024-07-09T08:57:57Z</time>
      </trkpt>
      <trkpt lat="43.98762" lon="7.35895">
        <ele>1032.6</ele>
        <time>2024-07-09T08:57:58Z</time>
      </trkpt>
      <trkpt lat="43.9876" lon="7.35891">
        <ele>1032.6</ele>
        <time>2024-07-09T08:57:59Z</time>
      </trkpt>
      <trkpt lat="43.98757" lon="7.35887">
        <ele>1032.6</ele>
        <time>2024-07-09T08:58:00Z</time>
      </trkpt>
      <trkpt lat="43.98755" lon="7.35883">
        <ele>1032.6</ele>
        <time>2024-07-09T08:58:01Z</time>
      </trkpt>
      <trkpt lat="43.98751" lon="7.35879">
        <ele>1031.6</ele>
        <time>2024-07-09T08:58:02Z</time>
      </trkpt>
      <trkpt lat="43.98746" lon="7.35875">
        <ele>1031.2</ele>
        <time>2024-07-09T08:58:03Z</time>
      </trkpt>
      <trkpt lat="43.98742" lon="7.35872">
        <ele>1031.2</ele>
        <time>2024-07-09T08:58:04Z</time>
      </trkpt>
      <trkpt lat="43.98738" lon="7.35869">
        <ele>1031.2</ele>
        <time>2024-07-09T08:58:05Z</time>
      </trkpt>
      <trkpt lat="43.98734" lon="7.35866">
        <ele>1031.2</ele>
        <time>2024-07-09T08:58:06Z</time>
      </trkpt>
      <trkpt lat="43.9873" lon="7.35863">
        <ele>1029.2</ele>
        <time>2024-07-09T08:58:07Z</time>
      </trkpt>
      <trkpt lat="43.98726" lon="7.35858">
        <ele>1029.2</ele>
        <time>2024-07-09T08:58:08Z</time>
      </trkpt>
      <trkpt lat="43.98724" lon="7.35853">
        <ele>1029.2</ele>
        <time>2024-07-09T08:58:09Z</time>
      </trkpt>
      <trkpt lat="43.98719" lon="7.35848">
        <ele>1029.2</ele>
        <time>2024-07-09T08:58:10Z</time>
      </trkpt>
      <trkpt lat="43.98715" lon="7.35842">
        <ele>1028.2</ele>
        <time>2024-07-09T08:58:11Z</time>
      </trkpt>
      <trkpt lat="43.98711" lon="7.35836">
        <ele>1028.2</ele>
        <time>2024-07-09T08:58:12Z</time>
      </trkpt>
      <trkpt lat="43.98707" lon="7.3583">
        <ele>1028.2</ele>
        <time>2024-07-09T08:58:13Z</time>
      </trkpt>
      <trkpt lat="43.98702" lon="7.35825">
        <ele>1028.2</ele>
        <time>2024-07-09T08:58:14Z</time>
      </trkpt>
      <trkpt lat="43.98698" lon="7.35819">
        <ele>1027.2</ele>
        <time>2024-07-09T08:58:15Z</time>
      </trkpt>
      <trkpt lat="43.98693" lon="7.35813">
        <ele>1027.2</ele>
        <time>2024-07-09T08:58:16Z</time>
      </trkpt>
      <trkpt lat="43.98689" lon="7.35808">
        <ele>1026.6</ele>
        <time>2024-07-09T08:58:17Z</time>
      </trkpt>
      <trkpt lat="43.98684" lon="7.35804">
        <ele>1026.6</ele>
        <time>2024-07-09T08:58:18Z</time>
      </trkpt>
      <trkpt lat="43.98678" lon="7.358">
        <ele>1026.6</ele>
        <time>2024-07-09T08:58:19Z</time>
      </trkpt>
      <trkpt lat="43.98673" lon="7.35798">
        <ele>1026.6</ele>
        <time>2024-07-09T08:58:20Z</time>
      </trkpt>
      <trkpt lat="43.98668" lon="7.35796">
        <ele>1024.8</ele>
        <time>2024-07-09T08:58:21Z</time>
      </trkpt>
      <trkpt lat="43.98664" lon="7.35794">
        <ele>1024.8</ele>
        <time>2024-07-09T08:58:22Z</time>
      </trkpt>
      <trkpt lat="43.98662" lon="7.35793">
        <ele>1024.8</ele>
        <time>2024-07-09T08:58:23Z</time>
      </trkpt>
      <trkpt lat="43.9866" lon="7.35792">
        <ele>1024.8</ele>
        <time>2024-07-09T08:58:24Z</time>
      </trkpt>
      <trkpt lat="43.98658" lon="7.35791">
        <ele>1023.8</ele>
        <time>2024-07-09T08:58:25Z</time>
      </trkpt>
      <trkpt lat="43.98656" lon="7.3579">
        <ele>1023.6</ele>
        <time>2024-07-09T08:58:26Z</time>
      </trkpt>
      <trkpt lat="43.98654" lon="7.35787">
        <ele>1023.6</ele>
        <time>2024-07-09T08:58:27Z</time>
      </trkpt>
      <trkpt lat="43.98652" lon="7.35784">
        <ele>1023.6</ele>
        <time>2024-07-09T08:58:28Z</time>
      </trkpt>
      <trkpt lat="43.98649" lon="7.3578">
        <ele>1023.6</ele>
        <time>2024-07-09T08:58:29Z</time>
      </trkpt>
      <trkpt lat="43.98646" lon="7.35775">
        <ele>1023.6</ele>
        <time>2024-07-09T08:58:30Z</time>
      </trkpt>
      <trkpt lat="43.98642" lon="7.35769">
        <ele>1022.6</ele>
        <time>2024-07-09T08:58:31Z</time>
      </trkpt>
      <trkpt lat="43.98639" lon="7.35763">
        <ele>1022.6</ele>
        <time>2024-07-09T08:58:32Z</time>
      </trkpt>
      <trkpt lat="43.98636" lon="7.35756">
        <ele>1021.6</ele>
        <time>2024-07-09T08:58:33Z</time>
      </trkpt>
      <trkpt lat="43.98633" lon="7.35748">
        <ele>1021.6</ele>
        <time>2024-07-09T08:58:34Z</time>
      </trkpt>
      <trkpt lat="43.98629" lon="7.35741">
        <ele>1021.2</ele>
        <time>2024-07-09T08:58:35Z</time>
      </trkpt>
      <trkpt lat="43.98624" lon="7.35733">
        <ele>1021.2</ele>
        <time>2024-07-09T08:58:36Z</time>
      </trkpt>
      <trkpt lat="43.9862" lon="7.35726">
        <ele>1021.2</ele>
        <time>2024-07-09T08:58:37Z</time>
      </trkpt>
      <trkpt lat="43.98618" lon="7.35721">
        <ele>1020.2</ele>
        <time>2024-07-09T08:58:38Z</time>
      </trkpt>
      <trkpt lat="43.98616" lon="7.35716">
        <ele>1019</ele>
        <time>2024-07-09T08:58:39Z</time>
      </trkpt>
      <trkpt lat="43.98614" lon="7.35711">
        <ele>1019</ele>
        <time>2024-07-09T08:58:40Z</time>
      </trkpt>
      <trkpt lat="43.98613" lon="7.35706">
        <ele>1019</ele>
        <time>2024-07-09T08:58:41Z</time>
      </trkpt>
      <trkpt lat="43.98613" lon="7.35699">
        <ele>1018.2</ele>
        <time>2024-07-09T08:58:42Z</time>
      </trkpt>
      <trkpt lat="43.98613" lon="7.35693">
        <ele>1018</ele>
        <time>2024-07-09T08:58:43Z</time>
      </trkpt>
      <trkpt lat="43.98615" lon="7.35687">
        <ele>1018</ele>
        <time>2024-07-09T08:58:44Z</time>
      </trkpt>
      <trkpt lat="43.98618" lon="7.35681">
        <ele>1018</ele>
        <time>2024-07-09T08:58:45Z</time>
      </trkpt>
      <trkpt lat="43.98621" lon="7.35675">
        <ele>1018</ele>
        <time>2024-07-09T08:58:46Z</time>
      </trkpt>
      <trkpt lat="43.98625" lon="7.35669">
        <ele>1017</ele>
        <time>2024-07-09T08:58:47Z</time>
      </trkpt>
      <trkpt lat="43.98629" lon="7.35663">
        <ele>1016.4</ele>
        <time>2024-07-09T08:58:48Z</time>
      </trkpt>
      <trkpt lat="43.98631" lon="7.35656">
        <ele>1016.4</ele>
        <time>2024-07-09T08:58:49Z</time>
      </trkpt>
      <trkpt lat="43.98632" lon="7.35648">
        <ele>1016.4</ele>
        <time>2024-07-09T08:58:50Z</time>
      </trkpt>
      <trkpt lat="43.98632" lon="7.3564">
        <ele>1016.4</ele>
        <time>2024-07-09T08:58:51Z</time>
      </trkpt>
      <trkpt lat="43.98632" lon="7.35631">
        <ele>1015</ele>
        <time>2024-07-09T08:58:52Z</time>
      </trkpt>
      <trkpt lat="43.98631" lon="7.35623">
        <ele>1015</ele>
        <time>2024-07-09T08:58:53Z</time>
      </trkpt>
      <trkpt lat="43.98629" lon="7.35615">
        <ele>1015</ele>
        <time>2024-07-09T08:58:54Z</time>
      </trkpt>
      <trkpt lat="43.98627" lon="7.35607">
        <ele>1015</ele>
        <time>2024-07-09T08:58:55Z</time>
      </trkpt>
      <trkpt lat="43.98624" lon="7.35599">
        <ele>1012.8</ele>
        <time>2024-07-09T08:58:56Z</time>
      </trkpt>
      <trkpt lat="43.98621" lon="7.35592">
        <ele>1012.8</ele>
        <time>2024-07-09T08:58:57Z</time>
      </trkpt>
      <trkpt lat="43.98618" lon="7.35585">
        <ele>1012.8</ele>
        <time>2024-07-09T08:58:58Z</time>
      </trkpt>
      <trkpt lat="43.98615" lon="7.35579">
        <ele>1012.8</ele>
        <time>2024-07-09T08:58:59Z</time>
      </trkpt>
      <trkpt lat="43.98613" lon="7.35573">
        <ele>1012.8</ele>
        <time>2024-07-09T08:59:00Z</time>
      </trkpt>
      <trkpt lat="43.98611" lon="7.35568">
        <ele>1011.8</ele>
        <time>2024-07-09T08:59:01Z</time>
      </trkpt>
      <trkpt lat="43.9861" lon="7.35564">
        <ele>1011.2</ele>
        <time>2024-07-09T08:59:02Z</time>
      </trkpt>
      <trkpt lat="43.98609" lon="7.35562">
        <ele>1011.2</ele>
        <time>2024-07-09T08:59:03Z</time>
      </trkpt>
      <trkpt lat="43.98608" lon="7.3556">
        <ele>1011.2</ele>
        <time>2024-07-09T08:59:04Z</time>
      </trkpt>
      <trkpt lat="43.98607" lon="7.35557">
        <ele>1011.2</ele>
        <time>2024-07-09T08:59:05Z</time>
      </trkpt>
      <trkpt lat="43.98606" lon="7.35553">
        <ele>1009.8</ele>
        <time>2024-07-09T08:59:06Z</time>
      </trkpt>
      <trkpt lat="43.98603" lon="7.3555">
        <ele>1009.8</ele>
        <time>2024-07-09T08:59:07Z</time>
      </trkpt>
      <trkpt lat="43.986" lon="7.35548">
        <ele>1009.8</ele>
        <time>2024-07-09T08:59:08Z</time>
      </trkpt>
      <trkpt lat="43.98596" lon="7.35548">
        <ele>1009.8</ele>
        <time>2024-07-09T08:59:09Z</time>
      </trkpt>
      <trkpt lat="43.98591" lon="7.35551">
        <ele>1008.8</ele>
        <time>2024-07-09T08:59:10Z</time>
      </trkpt>
      <trkpt lat="43.98589" lon="7.35557">
        <ele>1008.8</ele>
        <time>2024-07-09T08:59:11Z</time>
      </trkpt>
      <trkpt lat="43.9859" lon="7.35565">
        <ele>1008.8</ele>
        <time>2024-07-09T08:59:12Z</time>
      </trkpt>
      <trkpt lat="43.98593" lon="7.35572">
        <ele>1008.8</ele>
        <time>2024-07-09T08:59:13Z</time>
      </trkpt>
      <trkpt lat="43.98597" lon="7.35578">
        <ele>1008</ele>
        <time>2024-07-09T08:59:14Z</time>
      </trkpt>
      <trkpt lat="43.98602" lon="7.35584">
        <ele>1007.2</ele>
        <time>2024-07-09T08:59:15Z</time>
      </trkpt>
      <trkpt lat="43.98607" lon="7.35591">
        <ele>1007.2</ele>
        <time>2024-07-09T08:59:16Z</time>
      </trkpt>
      <trkpt lat="43.98611" lon="7.35599">
        <ele>1007.2</ele>
        <time>2024-07-09T08:59:17Z</time>
      </trkpt>
      <trkpt lat="43.98613" lon="7.35608">
        <ele>1006.2</ele>
        <time>2024-07-09T08:59:18Z</time>
      </trkpt>
      <trkpt lat="43.98615" lon="7.35619">
        <ele>1006.2</ele>
        <time>2024-07-09T08:59:19Z</time>
      </trkpt>
      <trkpt lat="43.98615" lon="7.35631">
        <ele>1005.2</ele>
        <time>2024-07-09T08:59:20Z</time>
      </trkpt>
      <trkpt lat="43.98613" lon="7.35642">
        <ele>1005.2</ele>
        <time>2024-07-09T08:59:21Z</time>
      </trkpt>
      <trkpt lat="43.98608" lon="7.35652">
        <ele>1005.2</ele>
        <time>2024-07-09T08:59:22Z</time>
      </trkpt>
      <trkpt lat="43.98602" lon="7.35662">
        <ele>1004.2</ele>
        <time>2024-07-09T08:59:23Z</time>
      </trkpt>
      <trkpt lat="43.98596" lon="7.3567">
        <ele>1002.2</ele>
        <time>2024-07-09T08:59:24Z</time>
      </trkpt>
      <trkpt lat="43.9859" lon="7.3568">
        <ele>1002.2</ele>
        <time>2024-07-09T08:59:25Z</time>
      </trkpt>
      <trkpt lat="43.98587" lon="7.3569">
        <ele>1002.2</ele>
        <time>2024-07-09T08:59:26Z</time>
      </trkpt>
      <trkpt lat="43.98585" lon="7.35702">
        <ele>1001.2</ele>
        <time>2024-07-09T08:59:27Z</time>
      </trkpt>
      <trkpt lat="43.98585" lon="7.35714">
        <ele>1001.2</ele>
        <time>2024-07-09T08:59:28Z</time>
      </trkpt>
      <trkpt lat="43.98587" lon="7.35726">
        <ele>999</ele>
        <time>2024-07-09T08:59:29Z</time>
      </trkpt>
      <trkpt lat="43.9859" lon="7.35736">
        <ele>999</ele>
        <time>2024-07-09T08:59:30Z</time>
      </trkpt>
      <trkpt lat="43.98593" lon="7.35745">
        <ele>998</ele>
        <time>2024-07-09T08:59:31Z</time>
      </trkpt>
      <trkpt lat="43.98596" lon="7.35753">
        <ele>996</ele>
        <time>2024-07-09T08:59:32Z</time>
      </trkpt>
      <trkpt lat="43.98598" lon="7.3576">
        <ele>996</ele>
        <time>2024-07-09T08:59:33Z</time>
      </trkpt>
      <trkpt lat="43.98598" lon="7.35767">
        <ele>996</ele>
        <time>2024-07-09T08:59:34Z</time>
      </trkpt>
      <trkpt lat="43.98595" lon="7.3577">
        <ele>996</ele>
        <time>2024-07-09T08:59:35Z</time>
      </trkpt>
      <trkpt lat="43.9859" lon="7.35771">
        <ele>995</ele>
        <time>2024-07-09T08:59:36Z</time>
      </trkpt>
      <trkpt lat="43.98585" lon="7.35767">
        <ele>994</ele>
        <time>2024-07-09T08:59:37Z</time>
      </trkpt>
      <trkpt lat="43.98583" lon="7.35762">
        <ele>994</ele>
        <time>2024-07-09T08:59:38Z</time>
      </trkpt>
      <trkpt lat="43.98581" lon="7.35754">
        <ele>994</ele>
        <time>2024-07-09T08:59:39Z</time>
      </trkpt>
      <trkpt lat="43.98579" lon="7.35746">
        <ele>993</ele>
        <time>2024-07-09T08:59:40Z</time>
      </trkpt>
      <trkpt lat="43.98576" lon="7.35738">
        <ele>993</ele>
        <time>2024-07-09T08:59:41Z</time>
      </trkpt>
      <trkpt lat="43.98573" lon="7.35729">
        <ele>991.6</ele>
        <time>2024-07-09T08:59:42Z</time>
      </trkpt>
      <trkpt lat="43.98569" lon="7.35721">
        <ele>991.6</ele>
        <time>2024-07-09T08:59:43Z</time>
      </trkpt>
      <trkpt lat="43.98566" lon="7.35711">
        <ele>991.6</ele>
        <time>2024-07-09T08:59:44Z</time>
      </trkpt>
      <trkpt lat="43.98565" lon="7.357">
        <ele>991.6</ele>
        <time>2024-07-09T08:59:45Z</time>
      </trkpt>
      <trkpt lat="43.98566" lon="7.35688">
        <ele>990.6</ele>
        <time>2024-07-09T08:59:46Z</time>
      </trkpt>
      <trkpt lat="43.9857" lon="7.35677">
        <ele>989.2</ele>
        <time>2024-07-09T08:59:47Z</time>
      </trkpt>
      <trkpt lat="43.98574" lon="7.35666">
        <ele>989.2</ele>
        <time>2024-07-09T08:59:48Z</time>
      </trkpt>
      <trkpt lat="43.98579" lon="7.35655">
        <ele>989.2</ele>
        <time>2024-07-09T08:59:49Z</time>
      </trkpt>
      <trkpt lat="43.98581" lon="7.35642">
        <ele>988.2</ele>
        <time>2024-07-09T08:59:50Z</time>
      </trkpt>
      <trkpt lat="43.9858" lon="7.35629">
        <ele>986.4</ele>
        <time>2024-07-09T08:59:51Z</time>
      </trkpt>
      <trkpt lat="43.98577" lon="7.35615">
        <ele>986.4</ele>
        <time>2024-07-09T08:59:52Z</time>
      </trkpt>
      <trkpt lat="43.98572" lon="7.35603">
        <ele>986.4</ele>
        <time>2024-07-09T08:59:53Z</time>
      </trkpt>
      <trkpt lat="43.98565" lon="7.35593">
        <ele>985.4</ele>
        <time>2024-07-09T08:59:54Z</time>
      </trkpt>
      <trkpt lat="43.98559" lon="7.35583">
        <ele>982.8</ele>
        <time>2024-07-09T08:59:55Z</time>
      </trkpt>
      <trkpt lat="43.98555" lon="7.35573">
        <ele>982.8</ele>
        <time>2024-07-09T08:59:56Z</time>
      </trkpt>
      <trkpt lat="43.98553" lon="7.35564">
        <ele>982.8</ele>
        <time>2024-07-09T08:59:57Z</time>
      </trkpt>
      <trkpt lat="43.98554" lon="7.35554">
        <ele>982.8</ele>
        <time>2024-07-09T08:59:58Z</time>
      </trkpt>
      <trkpt lat="43.98558" lon="7.35544">
        <ele>981.8</ele>
        <time>2024-07-09T08:59:59Z</time>
      </trkpt>
      <trkpt lat="43.98562" lon="7.35534">
        <ele>979.2</ele>
        <time>2024-07-09T09:00:00Z</time>
      </trkpt>
      <trkpt lat="43.98567" lon="7.35523">
        <ele>979.2</ele>
        <time>2024-07-09T09:00:01Z</time>
      </trkpt>
      <trkpt lat="43.98571" lon="7.35512">
        <ele>979.2</ele>
        <time>2024-07-09T09:00:02Z</time>
      </trkpt>
      <trkpt lat="43.98575" lon="7.355">
        <ele>978.2</ele>
        <time>2024-07-09T09:00:03Z</time>
      </trkpt>
      <trkpt lat="43.98576" lon="7.35487">
        <ele>976.4</ele>
        <time>2024-07-09T09:00:04Z</time>
      </trkpt>
      <trkpt lat="43.98575" lon="7.35473">
        <ele>976.4</ele>
        <time>2024-07-09T09:00:05Z</time>
      </trkpt>
      <trkpt lat="43.98572" lon="7.35459">
        <ele>976.4</ele>
        <time>2024-07-09T09:00:06Z</time>
      </trkpt>
      <trkpt lat="43.98569" lon="7.35445">
        <ele>975.4</ele>
        <time>2024-07-09T09:00:07Z</time>
      </trkpt>
      <trkpt lat="43.98567" lon="7.35431">
        <ele>971.8</ele>
        <time>2024-07-09T09:00:08Z</time>
      </trkpt>
      <trkpt lat="43.98565" lon="7.35418">
        <ele>971.8</ele>
        <time>2024-07-09T09:00:09Z</time>
      </trkpt>
      <trkpt lat="43.98565" lon="7.35406">
        <ele>971.8</ele>
        <time>2024-07-09T09:00:10Z</time>
      </trkpt>
      <trkpt lat="43.98568" lon="7.35394">
        <ele>971.8</ele>
        <time>2024-07-09T09:00:11Z</time>
      </trkpt>
      <trkpt lat="43.98571" lon="7.35384">
        <ele>970.8</ele>
        <time>2024-07-09T09:00:12Z</time>
      </trkpt>
      <trkpt lat="43.98575" lon="7.35376">
        <ele>970.8</ele>
        <time>2024-07-09T09:00:13Z</time>
      </trkpt>
      <trkpt lat="43.98578" lon="7.35368">
        <ele>968.2</ele>
        <time>2024-07-09T09:00:14Z</time>
      </trkpt>
      <trkpt lat="43.98573" lon="7.35362">
        <ele>968.2</ele>
        <time>2024-07-09T09:00:15Z</time>
      </trkpt>
      <trkpt lat="43.98567" lon="7.3536">
        <ele>967.2</ele>
        <time>2024-07-09T09:00:16Z</time>
      </trkpt>
      <trkpt lat="43.98561" lon="7.35363">
        <ele>967.2</ele>
        <time>2024-07-09T09:00:17Z</time>
      </trkpt>
      <trkpt lat="43.98558" lon="7.35371">
        <ele>965</ele>
        <time>2024-07-09T09:00:18Z</time>
      </trkpt>
      <trkpt lat="43.98555" lon="7.3538">
        <ele>965</ele>
        <time>2024-07-09T09:00:19Z</time>
      </trkpt>
      <trkpt lat="43.98553" lon="7.3539">
        <ele>965</ele>
        <time>2024-07-09T09:00:20Z</time>
      </trkpt>
      <trkpt lat="43.98551" lon="7.354">
        <ele>964</ele>
        <time>2024-07-09T09:00:21Z</time>
      </trkpt>
      <trkpt lat="43.9855" lon="7.35411">
        <ele>962.6</ele>
        <time>2024-07-09T09:00:22Z</time>
      </trkpt>
      <trkpt lat="43.98549" lon="7.35423">
        <ele>962.6</ele>
        <time>2024-07-09T09:00:23Z</time>
      </trkpt>
      <trkpt lat="43.9855" lon="7.35436">
        <ele>962.6</ele>
        <time>2024-07-09T09:00:24Z</time>
      </trkpt>
      <trkpt lat="43.9855" lon="7.35449">
        <ele>962.6</ele>
        <time>2024-07-09T09:00:25Z</time>
      </trkpt>
      <trkpt lat="43.98551" lon="7.35462">
        <ele>961.6</ele>
        <time>2024-07-09T09:00:26Z</time>
      </trkpt>
      <trkpt lat="43.98551" lon="7.35476">
        <ele>959</ele>
        <time>2024-07-09T09:00:27Z</time>
      </trkpt>
      <trkpt lat="43.98549" lon="7.35489">
        <ele>959</ele>
        <time>2024-07-09T09:00:28Z</time>
      </trkpt>
      <trkpt lat="43.98544" lon="7.35501">
        <ele>959</ele>
        <time>2024-07-09T09:00:29Z</time>
      </trkpt>
      <trkpt lat="43.98537" lon="7.35511">
        <ele>958</ele>
        <time>2024-07-09T09:00:30Z</time>
      </trkpt>
      <trkpt lat="43.9853" lon="7.35518">
        <ele>958</ele>
        <time>2024-07-09T09:00:31Z</time>
      </trkpt>
      <trkpt lat="43.98522" lon="7.35524">
        <ele>954.8</ele>
        <time>2024-07-09T09:00:32Z</time>
      </trkpt>
      <trkpt lat="43.98515" lon="7.3553">
        <ele>954.8</ele>
        <time>2024-07-09T09:00:33Z</time>
      </trkpt>
      <trkpt lat="43.98509" lon="7.35538">
        <ele>954.8</ele>
        <time>2024-07-09T09:00:34Z</time>
      </trkpt>
      <trkpt lat="43.98506" lon="7.3555">
        <ele>953.8</ele>
        <time>2024-07-09T09:00:35Z</time>
      </trkpt>
      <trkpt lat="43.98505" lon="7.35562">
        <ele>951.8</ele>
        <time>2024-07-09T09:00:36Z</time>
      </trkpt>
      <trkpt lat="43.98507" lon="7.35575">
        <ele>951.8</ele>
        <time>2024-07-09T09:00:37Z</time>
      </trkpt>
      <trkpt lat="43.9851" lon="7.35586">
        <ele>951.8</ele>
        <time>2024-07-09T09:00:38Z</time>
      </trkpt>
      <trkpt lat="43.98511" lon="7.35598">
        <ele>950.8</ele>
        <time>2024-07-09T09:00:39Z</time>
      </trkpt>
      <trkpt lat="43.9851" lon="7.3561">
        <ele>948</ele>
        <time>2024-07-09T09:00:40Z</time>
      </trkpt>
      <trkpt lat="43.98505" lon="7.3562">
        <ele>948</ele>
        <time>2024-07-09T09:00:41Z</time>
      </trkpt>
      <trkpt lat="43.98498" lon="7.35628">
        <ele>948</ele>
        <time>2024-07-09T09:00:42Z</time>
      </trkpt>
      <trkpt lat="43.98489" lon="7.35633">
        <ele>948</ele>
        <time>2024-07-09T09:00:43Z</time>
      </trkpt>
      <trkpt lat="43.9848" lon="7.35636">
        <ele>947</ele>
        <time>2024-07-09T09:00:44Z</time>
      </trkpt>
      <trkpt lat="43.98471" lon="7.35638">
        <ele>944.4</ele>
        <time>2024-07-09T09:00:45Z</time>
      </trkpt>
      <trkpt lat="43.98462" lon="7.3564">
        <ele>944.4</ele>
        <time>2024-07-09T09:00:46Z</time>
      </trkpt>
      <trkpt lat="43.98453" lon="7.35644">
        <ele>944.4</ele>
        <time>2024-07-09T09:00:47Z</time>
      </trkpt>
      <trkpt lat="43.98445" lon="7.35652">
        <ele>943.4</ele>
        <time>2024-07-09T09:00:48Z</time>
      </trkpt>
      <trkpt lat="43.9844" lon="7.35662">
        <ele>940.8</ele>
        <time>2024-07-09T09:00:49Z</time>
      </trkpt>
      <trkpt lat="43.98436" lon="7.35673">
        <ele>940.8</ele>
        <time>2024-07-09T09:00:50Z</time>
      </trkpt>
      <trkpt lat="43.98433" lon="7.35682">
        <ele>940.8</ele>
        <time>2024-07-09T09:00:51Z</time>
      </trkpt>
      <trkpt lat="43.9843" lon="7.35689">
        <ele>939.8</ele>
        <time>2024-07-09T09:00:52Z</time>
      </trkpt>
      <trkpt lat="43.98425" lon="7.35692">
        <ele>939.8</ele>
        <time>2024-07-09T09:00:53Z</time>
      </trkpt>
      <trkpt lat="43.9842" lon="7.3569">
        <ele>939</ele>
        <time>2024-07-09T09:00:54Z</time>
      </trkpt>
      <trkpt lat="43.98417" lon="7.35683">
        <ele>939</ele>
        <time>2024-07-09T09:00:55Z</time>
      </trkpt>
      <trkpt lat="43.98418" lon="7.35676">
        <ele>939</ele>
        <time>2024-07-09T09:00:56Z</time>
      </trkpt>
      <trkpt lat="43.98423" lon="7.35669">
        <ele>938</ele>
        <time>2024-07-09T09:00:57Z</time>
      </trkpt>
      <trkpt lat="43.98427" lon="7.35664">
        <ele>938.8</ele>
        <time>2024-07-09T09:00:58Z</time>
      </trkpt>
      <trkpt lat="43.9843" lon="7.35661">
        <ele>938.8</ele>
        <time>2024-07-09T09:00:59Z</time>
      </trkpt>
      <trkpt lat="43.98433" lon="7.35659">
        <ele>938.8</ele>
        <time>2024-07-09T09:01:00Z</time>
      </trkpt>
      <trkpt lat="43.98435" lon="7.35655">
        <ele>938.8</ele>
        <time>2024-07-09T09:01:01Z</time>
      </trkpt>
      <trkpt lat="43.98437" lon="7.35652">
        <ele>935.8</ele>
        <time>2024-07-09T09:01:02Z</time>
      </trkpt>
      <trkpt lat="43.98439" lon="7.35647">
        <ele>935.8</ele>
        <time>2024-07-09T09:01:03Z</time>
      </trkpt>
      <trkpt lat="43.98442" lon="7.35643">
        <ele>935.8</ele>
        <time>2024-07-09T09:01:04Z</time>
      </trkpt>
      <trkpt lat="43.98445" lon="7.35638">
        <ele>935.8</ele>
        <time>2024-07-09T09:01:05Z</time>
      </trkpt>
      <trkpt lat="43.98448" lon="7.35635">
        <ele>935.8</ele>
        <time>2024-07-09T09:01:06Z</time>
      </trkpt>
      <trkpt lat="43.9845" lon="7.35632">
        <ele>935</ele>
        <time>2024-07-09T09:01:07Z</time>
      </trkpt>
      <trkpt lat="43.98453" lon="7.3563">
        <ele>934.6</ele>
        <time>2024-07-09T09:01:08Z</time>
      </trkpt>
      <trkpt lat="43.98456" lon="7.35628">
        <ele>934.6</ele>
        <time>2024-07-09T09:01:09Z</time>
      </trkpt>
      <trkpt lat="43.98461" lon="7.35627">
        <ele>934.6</ele>
        <time>2024-07-09T09:01:10Z</time>
      </trkpt>
      <trkpt lat="43.98466" lon="7.35625">
        <ele>933.6</ele>
        <time>2024-07-09T09:01:11Z</time>
      </trkpt>
      <trkpt lat="43.98471" lon="7.35622">
        <ele>933.2</ele>
        <time>2024-07-09T09:01:12Z</time>
      </trkpt>
      <trkpt lat="43.98476" lon="7.35617">
        <ele>933.2</ele>
        <time>2024-07-09T09:01:13Z</time>
      </trkpt>
      <trkpt lat="43.9848" lon="7.35609">
        <ele>933.2</ele>
        <time>2024-07-09T09:01:14Z</time>
      </trkpt>
      <trkpt lat="43.98482" lon="7.356">
        <ele>933.2</ele>
        <time>2024-07-09T09:01:15Z</time>
      </trkpt>
      <trkpt lat="43.98482" lon="7.35589">
        <ele>930.6</ele>
        <time>2024-07-09T09:01:16Z</time>
      </trkpt>
      <trkpt lat="43.98481" lon="7.35579">
        <ele>930.6</ele>
        <time>2024-07-09T09:01:17Z</time>
      </trkpt>
      <trkpt lat="43.98481" lon="7.35569">
        <ele>930.6</ele>
        <time>2024-07-09T09:01:18Z</time>
      </trkpt>
      <trkpt lat="43.98484" lon="7.35558">
        <ele>930.6</ele>
        <time>2024-07-09T09:01:19Z</time>
      </trkpt>
      <trkpt lat="43.98487" lon="7.35547">
        <ele>929.6</ele>
        <time>2024-07-09T09:01:20Z</time>
      </trkpt>
      <trkpt lat="43.98489" lon="7.35535">
        <ele>927.8</ele>
        <time>2024-07-09T09:01:21Z</time>
      </trkpt>
      <trkpt lat="43.98492" lon="7.35523">
        <ele>927.8</ele>
        <time>2024-07-09T09:01:22Z</time>
      </trkpt>
      <trkpt lat="43.98496" lon="7.3551">
        <ele>927.8</ele>
        <time>2024-07-09T09:01:23Z</time>
      </trkpt>
      <trkpt lat="43.98499" lon="7.35498">
        <ele>927.8</ele>
        <time>2024-07-09T09:01:24Z</time>
      </trkpt>
      <trkpt lat="43.98501" lon="7.35484">
        <ele>924.8</ele>
        <time>2024-07-09T09:01:25Z</time>
      </trkpt>
      <trkpt lat="43.98501" lon="7.35469">
        <ele>924.8</ele>
        <time>2024-07-09T09:01:26Z</time>
      </trkpt>
      <trkpt lat="43.985" lon="7.35454">
        <ele>924.8</ele>
        <time>2024-07-09T09:01:27Z</time>
      </trkpt>
      <trkpt lat="43.98499" lon="7.3544">
        <ele>924.8</ele>
        <time>2024-07-09T09:01:28Z</time>
      </trkpt>
      <trkpt lat="43.98497" lon="7.35424">
        <ele>920.6</ele>
        <time>2024-07-09T09:01:29Z</time>
      </trkpt>
      <trkpt lat="43.98496" lon="7.35409">
        <ele>920.6</ele>
        <time>2024-07-09T09:01:30Z</time>
      </trkpt>
      <trkpt lat="43.98494" lon="7.35393">
        <ele>920.6</ele>
        <time>2024-07-09T09:01:31Z</time>
      </trkpt>
      <trkpt lat="43.98492" lon="7.35378">
        <ele>920.6</ele>
        <time>2024-07-09T09:01:32Z</time>
      </trkpt>
      <trkpt lat="43.9849" lon="7.35364">
        <ele>919.6</ele>
        <time>2024-07-09T09:01:33Z</time>
      </trkpt>
      <trkpt lat="43.98486" lon="7.35351">
        <ele>916</ele>
        <time>2024-07-09T09:01:34Z</time>
      </trkpt>
      <trkpt lat="43.98483" lon="7.35341">
        <ele>916</ele>
        <time>2024-07-09T09:01:35Z</time>
      </trkpt>
      <trkpt lat="43.98479" lon="7.35331">
        <ele>916</ele>
        <time>2024-07-09T09:01:36Z</time>
      </trkpt>
      <trkpt lat="43.98475" lon="7.35323">
        <ele>915</ele>
        <time>2024-07-09T09:01:37Z</time>
      </trkpt>
      <trkpt lat="43.98472" lon="7.35315">
        <ele>911.6</ele>
        <time>2024-07-09T09:01:38Z</time>
      </trkpt>
      <trkpt lat="43.9847" lon="7.35308">
        <ele>911.6</ele>
        <time>2024-07-09T09:01:39Z</time>
      </trkpt>
      <trkpt lat="43.9847" lon="7.35301">
        <ele>911.6</ele>
        <time>2024-07-09T09:01:40Z</time>
      </trkpt>
      <trkpt lat="43.98471" lon="7.35295">
        <ele>910.6</ele>
        <time>2024-07-09T09:01:41Z</time>
      </trkpt>
      <trkpt lat="43.98473" lon="7.35288">
        <ele>909.4</ele>
        <time>2024-07-09T09:01:42Z</time>
      </trkpt>
      <trkpt lat="43.98476" lon="7.35282">
        <ele>909.4</ele>
        <time>2024-07-09T09:01:43Z</time>
      </trkpt>
      <trkpt lat="43.98481" lon="7.35278">
        <ele>909.4</ele>
        <time>2024-07-09T09:01:44Z</time>
      </trkpt>
      <trkpt lat="43.98487" lon="7.35275">
        <ele>909.4</ele>
        <time>2024-07-09T09:01:45Z</time>
      </trkpt>
      <trkpt lat="43.98494" lon="7.35273">
        <ele>908.4</ele>
        <time>2024-07-09T09:01:46Z</time>
      </trkpt>
      <trkpt lat="43.98502" lon="7.35272">
        <ele>907</ele>
        <time>2024-07-09T09:01:47Z</time>
      </trkpt>
      <trkpt lat="43.9851" lon="7.3527">
        <ele>907</ele>
        <time>2024-07-09T09:01:48Z</time>
      </trkpt>
      <trkpt lat="43.98517" lon="7.35265">
        <ele>907</ele>
        <time>2024-07-09T09:01:49Z</time>
      </trkpt>
      <trkpt lat="43.98522" lon="7.35257">
        <ele>907</ele>
        <time>2024-07-09T09:01:50Z</time>
      </trkpt>
      <trkpt lat="43.98523" lon="7.35246">
        <ele>906</ele>
        <time>2024-07-09T09:01:51Z</time>
      </trkpt>
      <trkpt lat="43.98522" lon="7.35234">
        <ele>904</ele>
        <time>2024-07-09T09:01:52Z</time>
      </trkpt>
      <trkpt lat="43.98518" lon="7.35223">
        <ele>904</ele>
        <time>2024-07-09T09:01:53Z</time>
      </trkpt>
      <trkpt lat="43.98512" lon="7.35214">
        <ele>904</ele>
        <time>2024-07-09T09:01:54Z</time>
      </trkpt>
      <trkpt lat="43.98507" lon="7.35205">
        <ele>904</ele>
        <time>2024-07-09T09:01:55Z</time>
      </trkpt>
      <trkpt lat="43.98502" lon="7.35195">
        <ele>903</ele>
        <time>2024-07-09T09:01:56Z</time>
      </trkpt>
      <trkpt lat="43.98498" lon="7.35185">
        <ele>900.2</ele>
        <time>2024-07-09T09:01:57Z</time>
      </trkpt>
      <trkpt lat="43.98493" lon="7.35174">
        <ele>900.2</ele>
        <time>2024-07-09T09:01:58Z</time>
      </trkpt>
      <trkpt lat="43.98489" lon="7.35163">
        <ele>900.2</ele>
        <time>2024-07-09T09:01:59Z</time>
      </trkpt>
      <trkpt lat="43.98485" lon="7.35151">
        <ele>899.2</ele>
        <time>2024-07-09T09:02:00Z</time>
      </trkpt>
      <trkpt lat="43.98482" lon="7.35138">
        <ele>897.4</ele>
        <time>2024-07-09T09:02:01Z</time>
      </trkpt>
      <trkpt lat="43.98479" lon="7.35125">
        <ele>897.4</ele>
        <time>2024-07-09T09:02:02Z</time>
      </trkpt>
      <trkpt lat="43.98476" lon="7.35112">
        <ele>897.4</ele>
        <time>2024-07-09T09:02:03Z</time>
      </trkpt>
      <trkpt lat="43.98472" lon="7.351">
        <ele>896.4</ele>
        <time>2024-07-09T09:02:04Z</time>
      </trkpt>
      <trkpt lat="43.98468" lon="7.35087">
        <ele>896.4</ele>
        <time>2024-07-09T09:02:05Z</time>
      </trkpt>
      <trkpt lat="43.98463" lon="7.35075">
        <ele>893.4</ele>
        <time>2024-07-09T09:02:06Z</time>
      </trkpt>
      <trkpt lat="43.98458" lon="7.35063">
        <ele>893.4</ele>
        <time>2024-07-09T09:02:07Z</time>
      </trkpt>
      <trkpt lat="43.98452" lon="7.35051">
        <ele>893.4</ele>
        <time>2024-07-09T09:02:08Z</time>
      </trkpt>
      <trkpt lat="43.98445" lon="7.35041">
        <ele>892.4</ele>
        <time>2024-07-09T09:02:09Z</time>
      </trkpt>
      <trkpt lat="43.98437" lon="7.3503">
        <ele>890.2</ele>
        <time>2024-07-09T09:02:10Z</time>
      </trkpt>
      <trkpt lat="43.98431" lon="7.35019">
        <ele>890.2</ele>
        <time>2024-07-09T09:02:11Z</time>
      </trkpt>
      <trkpt lat="43.98427" lon="7.35007">
        <ele>890.2</ele>
        <time>2024-07-09T09:02:12Z</time>
      </trkpt>
      <trkpt lat="43.98425" lon="7.34994">
        <ele>889.2</ele>
        <time>2024-07-09T09:02:13Z</time>
      </trkpt>
      <trkpt lat="43.98425" lon="7.3498">
        <ele>886.8</ele>
        <time>2024-07-09T09:02:14Z</time>
      </trkpt>
      <trkpt lat="43.98426" lon="7.34967">
        <ele>886.8</ele>
        <time>2024-07-09T09:02:15Z</time>
      </trkpt>
      <trkpt lat="43.98428" lon="7.34953">
        <ele>886.8</ele>
        <time>2024-07-09T09:02:16Z</time>
      </trkpt>
      <trkpt lat="43.9843" lon="7.34941">
        <ele>885.8</ele>
        <time>2024-07-09T09:02:17Z</time>
      </trkpt>
      <trkpt lat="43.98432" lon="7.3493">
        <ele>885.8</ele>
        <time>2024-07-09T09:02:18Z</time>
      </trkpt>
      <trkpt lat="43.98437" lon="7.34921">
        <ele>883</ele>
        <time>2024-07-09T09:02:19Z</time>
      </trkpt>
      <trkpt lat="43.98443" lon="7.34915">
        <ele>883</ele>
        <time>2024-07-09T09:02:20Z</time>
      </trkpt>
      <trkpt lat="43.98451" lon="7.34912">
        <ele>883</ele>
        <time>2024-07-09T09:02:21Z</time>
      </trkpt>
      <trkpt lat="43.98459" lon="7.34909">
        <ele>882</ele>
        <time>2024-07-09T09:02:22Z</time>
      </trkpt>
      <trkpt lat="43.98467" lon="7.34904">
        <ele>879.2</ele>
        <time>2024-07-09T09:02:23Z</time>
      </trkpt>
      <trkpt lat="43.98474" lon="7.34896">
        <ele>879.2</ele>
        <time>2024-07-09T09:02:24Z</time>
      </trkpt>
      <trkpt lat="43.98478" lon="7.34885">
        <ele>879.2</ele>
        <time>2024-07-09T09:02:25Z</time>
      </trkpt>
      <trkpt lat="43.98479" lon="7.34874">
        <ele>878.2</ele>
        <time>2024-07-09T09:02:26Z</time>
      </trkpt>
      <trkpt lat="43.98476" lon="7.34861">
        <ele>878.2</ele>
        <time>2024-07-09T09:02:27Z</time>
      </trkpt>
      <trkpt lat="43.98471" lon="7.3485">
        <ele>875.8</ele>
        <time>2024-07-09T09:02:28Z</time>
      </trkpt>
      <trkpt lat="43.98467" lon="7.34837">
        <ele>875.8</ele>
        <time>2024-07-09T09:02:29Z</time>
      </trkpt>
      <trkpt lat="43.98462" lon="7.34824">
        <ele>875.8</ele>
        <time>2024-07-09T09:02:30Z</time>
      </trkpt>
      <trkpt lat="43.98456" lon="7.34812">
        <ele>875.8</ele>
        <time>2024-07-09T09:02:31Z</time>
      </trkpt>
      <trkpt lat="43.9845" lon="7.34801">
        <ele>874.8</ele>
        <time>2024-07-09T09:02:32Z</time>
      </trkpt>
      <trkpt lat="43.98443" lon="7.34789">
        <ele>871.6</ele>
        <time>2024-07-09T09:02:33Z</time>
      </trkpt>
      <trkpt lat="43.98438" lon="7.34776">
        <ele>871.6</ele>
        <time>2024-07-09T09:02:34Z</time>
      </trkpt>
      <trkpt lat="43.98435" lon="7.34762">
        <ele>871.6</ele>
        <time>2024-07-09T09:02:35Z</time>
      </trkpt>
      <trkpt lat="43.98434" lon="7.34748">
        <ele>871.6</ele>
        <time>2024-07-09T09:02:36Z</time>
      </trkpt>
      <trkpt lat="43.98437" lon="7.34735">
        <ele>868</ele>
        <time>2024-07-09T09:02:37Z</time>
      </trkpt>
      <trkpt lat="43.98442" lon="7.34722">
        <ele>868</ele>
        <time>2024-07-09T09:02:38Z</time>
      </trkpt>
      <trkpt lat="43.98447" lon="7.3471">
        <ele>868</ele>
        <time>2024-07-09T09:02:39Z</time>
      </trkpt>
      <trkpt lat="43.9845" lon="7.34698">
        <ele>868</ele>
        <time>2024-07-09T09:02:40Z</time>
      </trkpt>
      <trkpt lat="43.98451" lon="7.34686">
        <ele>863.8</ele>
        <time>2024-07-09T09:02:41Z</time>
      </trkpt>
      <trkpt lat="43.98446" lon="7.34675">
        <ele>863.8</ele>
        <time>2024-07-09T09:02:42Z</time>
      </trkpt>
      <trkpt lat="43.98441" lon="7.34664">
        <ele>863.8</ele>
        <time>2024-07-09T09:02:43Z</time>
      </trkpt>
      <trkpt lat="43.98437" lon="7.34652">
        <ele>863.8</ele>
        <time>2024-07-09T09:02:44Z</time>
      </trkpt>
      <trkpt lat="43.98437" lon="7.34639">
        <ele>862.8</ele>
        <time>2024-07-09T09:02:45Z</time>
      </trkpt>
      <trkpt lat="43.98439" lon="7.34629">
        <ele>859.6</ele>
        <time>2024-07-09T09:02:46Z</time>
      </trkpt>
      <trkpt lat="43.98446" lon="7.34619">
        <ele>859.6</ele>
        <time>2024-07-09T09:02:47Z</time>
      </trkpt>
      <trkpt lat="43.98451" lon="7.3461">
        <ele>859.6</ele>
        <time>2024-07-09T09:02:48Z</time>
      </trkpt>
      <trkpt lat="43.98453" lon="7.34599">
        <ele>859.6</ele>
        <time>2024-07-09T09:02:49Z</time>
      </trkpt>
      <trkpt lat="43.98451" lon="7.34587">
        <ele>856.2</ele>
        <time>2024-07-09T09:02:50Z</time>
      </trkpt>
      <trkpt lat="43.98446" lon="7.34577">
        <ele>856.2</ele>
        <time>2024-07-09T09:02:51Z</time>
      </trkpt>
      <trkpt lat="43.9844" lon="7.34566">
        <ele>856.2</ele>
        <time>2024-07-09T09:02:52Z</time>
      </trkpt>
      <trkpt lat="43.98436" lon="7.34553">
        <ele>855.2</ele>
        <time>2024-07-09T09:02:53Z</time>
      </trkpt>
      <trkpt lat="43.98433" lon="7.34539">
        <ele>852</ele>
        <time>2024-07-09T09:02:54Z</time>
      </trkpt>
      <trkpt lat="43.98431" lon="7.34525">
        <ele>852</ele>
        <time>2024-07-09T09:02:55Z</time>
      </trkpt>
      <trkpt lat="43.98428" lon="7.3451">
        <ele>852</ele>
        <time>2024-07-09T09:02:56Z</time>
      </trkpt>
      <trkpt lat="43.98424" lon="7.34496">
        <ele>852</ele>
        <time>2024-07-09T09:02:57Z</time>
      </trkpt>
      <trkpt lat="43.9842" lon="7.34482">
        <ele>851</ele>
        <time>2024-07-09T09:02:58Z</time>
      </trkpt>
      <trkpt lat="43.98415" lon="7.34468">
        <ele>847.8</ele>
        <time>2024-07-09T09:02:59Z</time>
      </trkpt>
      <trkpt lat="43.9841" lon="7.34454">
        <ele>847.8</ele>
        <time>2024-07-09T09:03:00Z</time>
      </trkpt>
      <trkpt lat="43.98405" lon="7.34439">
        <ele>847.8</ele>
        <time>2024-07-09T09:03:01Z</time>
      </trkpt>
      <trkpt lat="43.984" lon="7.34425">
        <ele>846.8</ele>
        <time>2024-07-09T09:03:02Z</time>
      </trkpt>
      <trkpt lat="43.98396" lon="7.3441">
        <ele>843.8</ele>
        <time>2024-07-09T09:03:03Z</time>
      </trkpt>
      <trkpt lat="43.98392" lon="7.34394">
        <ele>843.8</ele>
        <time>2024-07-09T09:03:04Z</time>
      </trkpt>
      <trkpt lat="43.98388" lon="7.34379">
        <ele>843.8</ele>
        <time>2024-07-09T09:03:05Z</time>
      </trkpt>
      <trkpt lat="43.98382" lon="7.34363">
        <ele>843.8</ele>
        <time>2024-07-09T09:03:06Z</time>
      </trkpt>
      <trkpt lat="43.98376" lon="7.34349">
        <ele>839</ele>
        <time>2024-07-09T09:03:07Z</time>
      </trkpt>
      <trkpt lat="43.98368" lon="7.34335">
        <ele>839</ele>
        <time>2024-07-09T09:03:08Z</time>
      </trkpt>
      <trkpt lat="43.9836" lon="7.34322">
        <ele>839</ele>
        <time>2024-07-09T09:03:09Z</time>
      </trkpt>
      <trkpt lat="43.9835" lon="7.34311">
        <ele>839</ele>
        <time>2024-07-09T09:03:10Z</time>
      </trkpt>
      <trkpt lat="43.9834" lon="7.34304">
        <ele>838</ele>
        <time>2024-07-09T09:03:11Z</time>
      </trkpt>
      <trkpt lat="43.98329" lon="7.34296">
        <ele>834.2</ele>
        <time>2024-07-09T09:03:12Z</time>
      </trkpt>
      <trkpt lat="43.98318" lon="7.34289">
        <ele>834.2</ele>
        <time>2024-07-09T09:03:13Z</time>
      </trkpt>
      <trkpt lat="43.98308" lon="7.34283">
        <ele>834.2</ele>
        <time>2024-07-09T09:03:14Z</time>
      </trkpt>
      <trkpt lat="43.983" lon="7.34278">
        <ele>834.2</ele>
        <time>2024-07-09T09:03:15Z</time>
      </trkpt>
      <trkpt lat="43.98292" lon="7.34272">
        <ele>833.2</ele>
        <time>2024-07-09T09:03:16Z</time>
      </trkpt>
      <trkpt lat="43.98286" lon="7.34263">
        <ele>829.8</ele>
        <time>2024-07-09T09:03:17Z</time>
      </trkpt>
      <trkpt lat="43.98281" lon="7.34254">
        <ele>829.8</ele>
        <time>2024-07-09T09:03:18Z</time>
      </trkpt>
      <trkpt lat="43.98282" lon="7.34242">
        <ele>829.8</ele>
        <time>2024-07-09T09:03:19Z</time>
      </trkpt>
      <trkpt lat="43.98285" lon="7.34231">
        <ele>829.8</ele>
        <time>2024-07-09T09:03:20Z</time>
      </trkpt>
      <trkpt lat="43.9829" lon="7.34221">
        <ele>828.8</ele>
        <time>2024-07-09T09:03:21Z</time>
      </trkpt>
      <trkpt lat="43.98295" lon="7.34209">
        <ele>826</ele>
        <time>2024-07-09T09:03:22Z</time>
      </trkpt>
      <trkpt lat="43.98298" lon="7.34197">
        <ele>826</ele>
        <time>2024-07-09T09:03:23Z</time>
      </trkpt>
      <trkpt lat="43.98299" lon="7.34185">
        <ele>826</ele>
        <time>2024-07-09T09:03:24Z</time>
      </trkpt>
      <trkpt lat="43.98299" lon="7.34171">
        <ele>825</ele>
        <time>2024-07-09T09:03:25Z</time>
      </trkpt>
      <trkpt lat="43.98298" lon="7.34158">
        <ele>822.4</ele>
        <time>2024-07-09T09:03:26Z</time>
      </trkpt>
      <trkpt lat="43.98295" lon="7.34144">
        <ele>822.4</ele>
        <time>2024-07-09T09:03:27Z</time>
      </trkpt>
      <trkpt lat="43.98293" lon="7.34131">
        <ele>822.4</ele>
        <time>2024-07-09T09:03:28Z</time>
      </trkpt>
      <trkpt lat="43.9829" lon="7.34119">
        <ele>822.4</ele>
        <time>2024-07-09T09:03:29Z</time>
      </trkpt>
      <trkpt lat="43.9829" lon="7.34108">
        <ele>821.4</ele>
        <time>2024-07-09T09:03:30Z</time>
      </trkpt>
      <trkpt lat="43.98293" lon="7.34099">
        <ele>818.6</ele>
        <time>2024-07-09T09:03:31Z</time>
      </trkpt>
      <trkpt lat="43.98298" lon="7.34094">
        <ele>818.6</ele>
        <time>2024-07-09T09:03:32Z</time>
      </trkpt>
      <trkpt lat="43.98306" lon="7.34094">
        <ele>818.6</ele>
        <time>2024-07-09T09:03:33Z</time>
      </trkpt>
      <trkpt lat="43.98313" lon="7.34099">
        <ele>817.6</ele>
        <time>2024-07-09T09:03:34Z</time>
      </trkpt>
      <trkpt lat="43.98318" lon="7.34109">
        <ele>817.6</ele>
        <time>2024-07-09T09:03:35Z</time>
      </trkpt>
      <trkpt lat="43.98323" lon="7.34119">
        <ele>815</ele>
        <time>2024-07-09T09:03:36Z</time>
      </trkpt>
      <trkpt lat="43.98328" lon="7.34129">
        <ele>815</ele>
        <time>2024-07-09T09:03:37Z</time>
      </trkpt>
      <trkpt lat="43.98334" lon="7.34138">
        <ele>814</ele>
        <time>2024-07-09T09:03:38Z</time>
      </trkpt>
      <trkpt lat="43.9834" lon="7.34147">
        <ele>811.6</ele>
        <time>2024-07-09T09:03:39Z</time>
      </trkpt>
      <trkpt lat="43.98347" lon="7.34155">
        <ele>811.6</ele>
        <time>2024-07-09T09:03:40Z</time>
      </trkpt>
      <trkpt lat="43.98355" lon="7.34162">
        <ele>811.6</ele>
        <time>2024-07-09T09:03:41Z</time>
      </trkpt>
      <trkpt lat="43.98363" lon="7.34167">
        <ele>811.6</ele>
        <time>2024-07-09T09:03:42Z</time>
      </trkpt>
      <trkpt lat="43.98373" lon="7.34171">
        <ele>810.6</ele>
        <time>2024-07-09T09:03:43Z</time>
      </trkpt>
      <trkpt lat="43.98383" lon="7.34173">
        <ele>808.8</ele>
        <time>2024-07-09T09:03:44Z</time>
      </trkpt>
      <trkpt lat="43.98393" lon="7.34171">
        <ele>808.8</ele>
        <time>2024-07-09T09:03:45Z</time>
      </trkpt>
      <trkpt lat="43.98401" lon="7.34166">
        <ele>808.8</ele>
        <time>2024-07-09T09:03:46Z</time>
      </trkpt>
      <trkpt lat="43.98408" lon="7.34158">
        <ele>807.8</ele>
        <time>2024-07-09T09:03:47Z</time>
      </trkpt>
      <trkpt lat="43.98413" lon="7.34148">
        <ele>805.6</ele>
        <time>2024-07-09T09:03:48Z</time>
      </trkpt>
      <trkpt lat="43.98416" lon="7.34137">
        <ele>805.6</ele>
        <time>2024-07-09T09:03:49Z</time>
      </trkpt>
      <trkpt lat="43.98418" lon="7.34127">
        <ele>805.6</ele>
        <time>2024-07-09T09:03:50Z</time>
      </trkpt>
      <trkpt lat="43.98422" lon="7.34117">
        <ele>804.6</ele>
        <time>2024-07-09T09:03:51Z</time>
      </trkpt>
      <trkpt lat="43.98427" lon="7.34109">
        <ele>802.4</ele>
        <time>2024-07-09T09:03:52Z</time>
      </trkpt>
      <trkpt lat="43.98432" lon="7.34104">
        <ele>802.4</ele>
        <time>2024-07-09T09:03:53Z</time>
      </trkpt>
      <trkpt lat="43.98438" lon="7.34101">
        <ele>802.4</ele>
        <time>2024-07-09T09:03:54Z</time>
      </trkpt>
      <trkpt lat="43.98441" lon="7.34096">
        <ele>802.4</ele>
        <time>2024-07-09T09:03:55Z</time>
      </trkpt>
      <trkpt lat="43.98443" lon="7.34092">
        <ele>802.4</ele>
        <time>2024-07-09T09:03:56Z</time>
      </trkpt>
      <trkpt lat="43.98452" lon="7.34077">
        <ele>801.4</ele>
        <time>2024-07-09T09:03:57Z</time>
      </trkpt>
      <trkpt lat="43.98458" lon="7.34071">
        <ele>799.4</ele>
        <time>2024-07-09T09:03:58Z</time>
      </trkpt>
      <trkpt lat="43.98469" lon="7.34058">
        <ele>799.4</ele>
        <time>2024-07-09T09:03:59Z</time>
      </trkpt>
      <trkpt lat="43.98478" lon="7.34054">
        <ele>799.4</ele>
        <time>2024-07-09T09:04:00Z</time>
      </trkpt>
      <trkpt lat="43.98485" lon="7.34048">
        <ele>798.4</ele>
        <time>2024-07-09T09:04:01Z</time>
      </trkpt>
      <trkpt lat="43.98491" lon="7.34044">
        <ele>795.8</ele>
        <time>2024-07-09T09:04:02Z</time>
      </trkpt>
      <trkpt lat="43.98493" lon="7.34043">
        <ele>795.8</ele>
        <time>2024-07-09T09:04:03Z</time>
      </trkpt>
      <trkpt lat="43.985" lon="7.34041">
        <ele>795.8</ele>
        <time>2024-07-09T09:04:04Z</time>
      </trkpt>
      <trkpt lat="43.98503" lon="7.3404">
        <ele>794.8</ele>
        <time>2024-07-09T09:04:05Z</time>
      </trkpt>
      <trkpt lat="43.98507" lon="7.34039">
        <ele>794.4</ele>
        <time>2024-07-09T09:04:06Z</time>
      </trkpt>
      <trkpt lat="43.9851" lon="7.34038">
        <ele>793.2</ele>
        <time>2024-07-09T09:05:42Z</time>
      </trkpt>
      <trkpt lat="43.98514" lon="7.34037">
        <ele>792.2</ele>
        <time>2024-07-09T09:05:43Z</time>
      </trkpt>
      <trkpt lat="43.98518" lon="7.34037">
        <ele>792</ele>
        <time>2024-07-09T09:05:44Z</time>
      </trkpt>
      <trkpt lat="43.98523" lon="7.3404">
        <ele>792</ele>
        <time>2024-07-09T09:05:45Z</time>
      </trkpt>
      <trkpt lat="43.98527" lon="7.34041">
        <ele>792</ele>
        <time>2024-07-09T09:05:46Z</time>
      </trkpt>
      <trkpt lat="43.98532" lon="7.34042">
        <ele>791.4</ele>
        <time>2024-07-09T09:05:47Z</time>
      </trkpt>
      <trkpt lat="43.98536" lon="7.34041">
        <ele>790.6</ele>
        <time>2024-07-09T09:05:48Z</time>
      </trkpt>
      <trkpt lat="43.98541" lon="7.34037">
        <ele>790.6</ele>
        <time>2024-07-09T09:05:49Z</time>
      </trkpt>
      <trkpt lat="43.98545" lon="7.34033">
        <ele>790.6</ele>
        <time>2024-07-09T09:05:50Z</time>
      </trkpt>
      <trkpt lat="43.98548" lon="7.34027">
        <ele>790.6</ele>
        <time>2024-07-09T09:05:51Z</time>
      </trkpt>
      <trkpt lat="43.98549" lon="7.34021">
        <ele>789.6</ele>
        <time>2024-07-09T09:05:52Z</time>
      </trkpt>
      <trkpt lat="43.98549" lon="7.34013">
        <ele>789.6</ele>
        <time>2024-07-09T09:05:53Z</time>
      </trkpt>
      <trkpt lat="43.98549" lon="7.34006">
        <ele>788.4</ele>
        <time>2024-07-09T09:05:54Z</time>
      </trkpt>
      <trkpt lat="43.98549" lon="7.33999">
        <ele>788.4</ele>
        <time>2024-07-09T09:05:55Z</time>
      </trkpt>
      <trkpt lat="43.98551" lon="7.3399">
        <ele>788.4</ele>
        <time>2024-07-09T09:05:56Z</time>
      </trkpt>
      <trkpt lat="43.98553" lon="7.33981">
        <ele>786.2</ele>
        <time>2024-07-09T09:05:57Z</time>
      </trkpt>
      <trkpt lat="43.98552" lon="7.33971">
        <ele>786.2</ele>
        <time>2024-07-09T09:05:58Z</time>
      </trkpt>
      <trkpt lat="43.98551" lon="7.33961">
        <ele>786.2</ele>
        <time>2024-07-09T09:05:59Z</time>
      </trkpt>
      <trkpt lat="43.9855" lon="7.33952">
        <ele>785.2</ele>
        <time>2024-07-09T09:06:00Z</time>
      </trkpt>
      <trkpt lat="43.9855" lon="7.33942">
        <ele>784.2</ele>
        <time>2024-07-09T09:06:01Z</time>
      </trkpt>
      <trkpt lat="43.9855" lon="7.33933">
        <ele>784.2</ele>
        <time>2024-07-09T09:06:02Z</time>
      </trkpt>
      <trkpt lat="43.98551" lon="7.33923">
        <ele>784.2</ele>
        <time>2024-07-09T09:06:03Z</time>
      </trkpt>
      <trkpt lat="43.98553" lon="7.33913">
        <ele>784.2</ele>
        <time>2024-07-09T09:06:04Z</time>
      </trkpt>
      <trkpt lat="43.98556" lon="7.33904">
        <ele>783.6</ele>
        <time>2024-07-09T09:06:05Z</time>
      </trkpt>
      <trkpt lat="43.98559" lon="7.33895">
        <ele>783.4</ele>
        <time>2024-07-09T09:06:06Z</time>
      </trkpt>
      <trkpt lat="43.98561" lon="7.33886">
        <ele>783.4</ele>
        <time>2024-07-09T09:06:07Z</time>
      </trkpt>
      <trkpt lat="43.98562" lon="7.33876">
        <ele>783.4</ele>
        <time>2024-07-09T09:06:08Z</time>
      </trkpt>
      <trkpt lat="43.98562" lon="7.33866">
        <ele>783.4</ele>
        <time>2024-07-09T09:06:09Z</time>
      </trkpt>
      <trkpt lat="43.9856" lon="7.33856">
        <ele>782.4</ele>
        <time>2024-07-09T09:06:10Z</time>
      </trkpt>
      <trkpt lat="43.98558" lon="7.33847">
        <ele>781</ele>
        <time>2024-07-09T09:06:11Z</time>
      </trkpt>
      <trkpt lat="43.98556" lon="7.33838">
        <ele>781</ele>
        <time>2024-07-09T09:06:12Z</time>
      </trkpt>
      <trkpt lat="43.98552" lon="7.33832">
        <ele>781</ele>
        <time>2024-07-09T09:06:13Z</time>
      </trkpt>
      <trkpt lat="43.98549" lon="7.33828">
        <ele>780</ele>
        <time>2024-07-09T09:06:14Z</time>
      </trkpt>
      <trkpt lat="43.98546" lon="7.33824">
        <ele>778.4</ele>
        <time>2024-07-09T09:06:15Z</time>
      </trkpt>
      <trkpt lat="43.98544" lon="7.33821">
        <ele>778.4</ele>
        <time>2024-07-09T09:06:16Z</time>
      </trkpt>
      <trkpt lat="43.98543" lon="7.33819">
        <ele>778.4</ele>
        <time>2024-07-09T09:06:17Z</time>
      </trkpt>
      <trkpt lat="43.98542" lon="7.33818">
        <ele>777.4</ele>
        <time>2024-07-09T09:06:18Z</time>
      </trkpt>
      <trkpt lat="43.98542" lon="7.33817">
        <ele>777</ele>
        <time>2024-07-09T09:06:19Z</time>
      </trkpt>
      <trkpt lat="43.98541" lon="7.33812">
        <ele>776.6</ele>
        <time>2024-07-09T09:06:49Z</time>
      </trkpt>
      <trkpt lat="43.9854" lon="7.33809">
        <ele>776.6</ele>
        <time>2024-07-09T09:06:50Z</time>
      </trkpt>
      <trkpt lat="43.98539" lon="7.33805">
        <ele>776.6</ele>
        <time>2024-07-09T09:06:51Z</time>
      </trkpt>
      <trkpt lat="43.98538" lon="7.338">
        <ele>776.6</ele>
        <time>2024-07-09T09:06:52Z</time>
      </trkpt>
      <trkpt lat="43.98537" lon="7.33796">
        <ele>776.6</ele>
        <time>2024-07-09T09:06:53Z</time>
      </trkpt>
      <trkpt lat="43.98535" lon="7.33791">
        <ele>776.6</ele>
        <time>2024-07-09T09:06:54Z</time>
      </trkpt>
      <trkpt lat="43.98534" lon="7.33785">
        <ele>775.8</ele>
        <time>2024-07-09T09:06:55Z</time>
      </trkpt>
      <trkpt lat="43.98531" lon="7.33779">
        <ele>775.8</ele>
        <time>2024-07-09T09:06:56Z</time>
      </trkpt>
      <trkpt lat="43.98529" lon="7.33773">
        <ele>775.8</ele>
        <time>2024-07-09T09:06:57Z</time>
      </trkpt>
      <trkpt lat="43.98528" lon="7.33766">
        <ele>775.8</ele>
        <time>2024-07-09T09:06:58Z</time>
      </trkpt>
      <trkpt lat="43.98526" lon="7.33758">
        <ele>775</ele>
        <time>2024-07-09T09:06:59Z</time>
      </trkpt>
      <trkpt lat="43.98524" lon="7.33751">
        <ele>775</ele>
        <time>2024-07-09T09:07:00Z</time>
      </trkpt>
      <trkpt lat="43.98522" lon="7.33742">
        <ele>775</ele>
        <time>2024-07-09T09:07:01Z</time>
      </trkpt>
      <trkpt lat="43.98521" lon="7.33733">
        <ele>775</ele>
        <time>2024-07-09T09:07:02Z</time>
      </trkpt>
      <trkpt lat="43.98521" lon="7.33725">
        <ele>774</ele>
        <time>2024-07-09T09:07:03Z</time>
      </trkpt>
      <trkpt lat="43.98523" lon="7.33716">
        <ele>773.2</ele>
        <time>2024-07-09T09:07:04Z</time>
      </trkpt>
      <trkpt lat="43.98527" lon="7.33709">
        <ele>773.2</ele>
        <time>2024-07-09T09:07:05Z</time>
      </trkpt>
      <trkpt lat="43.98532" lon="7.33703">
        <ele>773.2</ele>
        <time>2024-07-09T09:07:06Z</time>
      </trkpt>
      <trkpt lat="43.98538" lon="7.33697">
        <ele>773.2</ele>
        <time>2024-07-09T09:07:07Z</time>
      </trkpt>
      <trkpt lat="43.98544" lon="7.33693">
        <ele>772.4</ele>
        <time>2024-07-09T09:07:08Z</time>
      </trkpt>
      <trkpt lat="43.9855" lon="7.33689">
        <ele>772.4</ele>
        <time>2024-07-09T09:07:09Z</time>
      </trkpt>
      <trkpt lat="43.98556" lon="7.33686">
        <ele>772.4</ele>
        <time>2024-07-09T09:07:10Z</time>
      </trkpt>
      <trkpt lat="43.98563" lon="7.3368">
        <ele>772.4</ele>
        <time>2024-07-09T09:07:11Z</time>
      </trkpt>
      <trkpt lat="43.98568" lon="7.33674">
        <ele>772.4</ele>
        <time>2024-07-09T09:07:12Z</time>
      </trkpt>
      <trkpt lat="43.98573" lon="7.33666">
        <ele>771.6</ele>
        <time>2024-07-09T09:07:13Z</time>
      </trkpt>
      <trkpt lat="43.98577" lon="7.33657">
        <ele>771.6</ele>
        <time>2024-07-09T09:07:14Z</time>
      </trkpt>
      <trkpt lat="43.98578" lon="7.33647">
        <ele>771.6</ele>
        <time>2024-07-09T09:07:15Z</time>
      </trkpt>
      <trkpt lat="43.98578" lon="7.33637">
        <ele>770.6</ele>
        <time>2024-07-09T09:07:16Z</time>
      </trkpt>
      <trkpt lat="43.98577" lon="7.33626">
        <ele>769.8</ele>
        <time>2024-07-09T09:07:17Z</time>
      </trkpt>
      <trkpt lat="43.98576" lon="7.33615">
        <ele>769.8</ele>
        <time>2024-07-09T09:07:18Z</time>
      </trkpt>
      <trkpt lat="43.98572" lon="7.33604">
        <ele>769.8</ele>
        <time>2024-07-09T09:07:19Z</time>
      </trkpt>
      <trkpt lat="43.98568" lon="7.33594">
        <ele>768.8</ele>
        <time>2024-07-09T09:07:20Z</time>
      </trkpt>
      <trkpt lat="43.98565" lon="7.33584">
        <ele>768</ele>
        <time>2024-07-09T09:07:21Z</time>
      </trkpt>
      <trkpt lat="43.98561" lon="7.33572">
        <ele>768</ele>
        <time>2024-07-09T09:07:22Z</time>
      </trkpt>
      <trkpt lat="43.98559" lon="7.33561">
        <ele>768</ele>
        <time>2024-07-09T09:07:23Z</time>
      </trkpt>
      <trkpt lat="43.98558" lon="7.33549">
        <ele>768</ele>
        <time>2024-07-09T09:07:24Z</time>
      </trkpt>
      <trkpt lat="43.98556" lon="7.33538">
        <ele>767</ele>
        <time>2024-07-09T09:07:25Z</time>
      </trkpt>
      <trkpt lat="43.98555" lon="7.33526">
        <ele>764.4</ele>
        <time>2024-07-09T09:07:26Z</time>
      </trkpt>
      <trkpt lat="43.98555" lon="7.33516">
        <ele>764.4</ele>
        <time>2024-07-09T09:07:27Z</time>
      </trkpt>
      <trkpt lat="43.98553" lon="7.33506">
        <ele>764.4</ele>
        <time>2024-07-09T09:07:28Z</time>
      </trkpt>
      <trkpt lat="43.98552" lon="7.33498">
        <ele>763.4</ele>
        <time>2024-07-09T09:07:29Z</time>
      </trkpt>
      <trkpt lat="43.98552" lon="7.33489">
        <ele>762.6</ele>
        <time>2024-07-09T09:07:30Z</time>
      </trkpt>
      <trkpt lat="43.98552" lon="7.3348">
        <ele>762.6</ele>
        <time>2024-07-09T09:07:31Z</time>
      </trkpt>
      <trkpt lat="43.98552" lon="7.3347">
        <ele>762.6</ele>
        <time>2024-07-09T09:07:32Z</time>
      </trkpt>
      <trkpt lat="43.98552" lon="7.33461">
        <ele>762.6</ele>
        <time>2024-07-09T09:07:33Z</time>
      </trkpt>
      <trkpt lat="43.98556" lon="7.33452">
        <ele>761.6</ele>
        <time>2024-07-09T09:07:34Z</time>
      </trkpt>
      <trkpt lat="43.9856" lon="7.33444">
        <ele>760.6</ele>
        <time>2024-07-09T09:07:35Z</time>
      </trkpt>
      <trkpt lat="43.98567" lon="7.3344">
        <ele>760.6</ele>
        <time>2024-07-09T09:07:36Z</time>
      </trkpt>
      <trkpt lat="43.98574" lon="7.33439">
        <ele>760.6</ele>
        <time>2024-07-09T09:07:37Z</time>
      </trkpt>
      <trkpt lat="43.98582" lon="7.33441">
        <ele>760.6</ele>
        <time>2024-07-09T09:07:38Z</time>
      </trkpt>
      <trkpt lat="43.98588" lon="7.33446">
        <ele>759.6</ele>
        <time>2024-07-09T09:07:39Z</time>
      </trkpt>
      <trkpt lat="43.98593" lon="7.33452">
        <ele>758</ele>
        <time>2024-07-09T09:07:40Z</time>
      </trkpt>
      <trkpt lat="43.98598" lon="7.33458">
        <ele>758</ele>
        <time>2024-07-09T09:07:41Z</time>
      </trkpt>
      <trkpt lat="43.98602" lon="7.33461">
        <ele>758</ele>
        <time>2024-07-09T09:07:42Z</time>
      </trkpt>
      <trkpt lat="43.98605" lon="7.33462">
        <ele>757</ele>
        <time>2024-07-09T09:07:43Z</time>
      </trkpt>
      <trkpt lat="43.98608" lon="7.33463">
        <ele>755.4</ele>
        <time>2024-07-09T09:07:44Z</time>
      </trkpt>
      <trkpt lat="43.98611" lon="7.33466">
        <ele>755.4</ele>
        <time>2024-07-09T09:07:45Z</time>
      </trkpt>
      <trkpt lat="43.98612" lon="7.33468">
        <ele>755.4</ele>
        <time>2024-07-09T09:07:46Z</time>
      </trkpt>
      <trkpt lat="43.98613" lon="7.3347">
        <ele>754.4</ele>
        <time>2024-07-09T09:07:47Z</time>
      </trkpt>
      <trkpt lat="43.98615" lon="7.33472">
        <ele>754.4</ele>
        <time>2024-07-09T09:07:48Z</time>
      </trkpt>
      <trkpt lat="43.98616" lon="7.33473">
        <ele>754.4</ele>
        <time>2024-07-09T09:07:49Z</time>
      </trkpt>
      <trkpt lat="43.98617" lon="7.33475">
        <ele>753.6</ele>
        <time>2024-07-09T09:09:00Z</time>
      </trkpt>
      <trkpt lat="43.98619" lon="7.33477">
        <ele>753.6</ele>
        <time>2024-07-09T09:09:01Z</time>
      </trkpt>
      <trkpt lat="43.98622" lon="7.3348">
        <ele>753.6</ele>
        <time>2024-07-09T09:09:02Z</time>
      </trkpt>
      <trkpt lat="43.98625" lon="7.33483">
        <ele>753.2</ele>
        <time>2024-07-09T09:09:03Z</time>
      </trkpt>
      <trkpt lat="43.98628" lon="7.33486">
        <ele>753.2</ele>
        <time>2024-07-09T09:09:04Z</time>
      </trkpt>
      <trkpt lat="43.98631" lon="7.33489">
        <ele>752.8</ele>
        <time>2024-07-09T09:09:05Z</time>
      </trkpt>
      <trkpt lat="43.98634" lon="7.33491">
        <ele>752.8</ele>
        <time>2024-07-09T09:09:06Z</time>
      </trkpt>
      <trkpt lat="43.98636" lon="7.33492">
        <ele>752.8</ele>
        <time>2024-07-09T09:09:07Z</time>
      </trkpt>
      <trkpt lat="43.98637" lon="7.33494">
        <ele>752</ele>
        <time>2024-07-09T09:09:08Z</time>
      </trkpt>
      <trkpt lat="43.98639" lon="7.33495">
        <ele>751.8</ele>
        <time>2024-07-09T09:09:09Z</time>
      </trkpt>
      <trkpt lat="43.9864" lon="7.33495">
        <ele>751.8</ele>
        <time>2024-07-09T09:09:10Z</time>
      </trkpt>
      <trkpt lat="43.9864" lon="7.33495">
        <ele>751.8</ele>
        <time>2024-07-09T09:09:11Z</time>
      </trkpt>
      <trkpt lat="43.9864" lon="7.33495">
        <ele>751.2</ele>
        <time>2024-07-09T09:09:12Z</time>
      </trkpt>
      <trkpt lat="43.9864" lon="7.33495">
        <ele>751.2</ele>
        <time>2024-07-09T09:09:13Z</time>
      </trkpt>
      <trkpt lat="43.98642" lon="7.33497">
        <ele>751</ele>
        <time>2024-07-09T09:09:19Z</time>
      </trkpt>
      <trkpt lat="43.98643" lon="7.33498">
        <ele>751</ele>
        <time>2024-07-09T09:09:20Z</time>
      </trkpt>
      <trkpt lat="43.98644" lon="7.33498">
        <ele>750.8</ele>
        <time>2024-07-09T09:09:21Z</time>
      </trkpt>
      <trkpt lat="43.98645" lon="7.33499">
        <ele>750.6</ele>
        <time>2024-07-09T09:09:22Z</time>
      </trkpt>
      <trkpt lat="43.98647" lon="7.335">
        <ele>750.6</ele>
        <time>2024-07-09T09:09:23Z</time>
      </trkpt>
      <trkpt lat="43.98648" lon="7.33503">
        <ele>750.6</ele>
        <time>2024-07-09T09:09:24Z</time>
      </trkpt>
      <trkpt lat="43.9865" lon="7.33505">
        <ele>750.6</ele>
        <time>2024-07-09T09:09:25Z</time>
      </trkpt>
      <trkpt lat="43.98652" lon="7.33507">
        <ele>750.4</ele>
        <time>2024-07-09T09:09:26Z</time>
      </trkpt>
      <trkpt lat="43.98655" lon="7.33509">
        <ele>750.4</ele>
        <time>2024-07-09T09:09:27Z</time>
      </trkpt>
      <trkpt lat="43.98659" lon="7.3351">
        <ele>750.4</ele>
        <time>2024-07-09T09:09:28Z</time>
      </trkpt>
      <trkpt lat="43.98663" lon="7.33511">
        <ele>750.4</ele>
        <time>2024-07-09T09:09:29Z</time>
      </trkpt>
      <trkpt lat="43.98669" lon="7.33512">
        <ele>749.4</ele>
        <time>2024-07-09T09:09:30Z</time>
      </trkpt>
      <trkpt lat="43.98675" lon="7.33512">
        <ele>749.2</ele>
        <time>2024-07-09T09:09:31Z</time>
      </trkpt>
      <trkpt lat="43.98681" lon="7.33512">
        <ele>749.2</ele>
        <time>2024-07-09T09:09:32Z</time>
      </trkpt>
      <trkpt lat="43.98687" lon="7.33511">
        <ele>749.2</ele>
        <time>2024-07-09T09:09:33Z</time>
      </trkpt>
      <trkpt lat="43.98694" lon="7.33509">
        <ele>748.2</ele>
        <time>2024-07-09T09:09:34Z</time>
      </trkpt>
      <trkpt lat="43.98701" lon="7.33505">
        <ele>747</ele>
        <time>2024-07-09T09:09:35Z</time>
      </trkpt>
      <trkpt lat="43.98708" lon="7.33501">
        <ele>747</ele>
        <time>2024-07-09T09:09:36Z</time>
      </trkpt>
      <trkpt lat="43.98716" lon="7.33498">
        <ele>747</ele>
        <time>2024-07-09T09:09:37Z</time>
      </trkpt>
      <trkpt lat="43.98725" lon="7.33497">
        <ele>747</ele>
        <time>2024-07-09T09:09:38Z</time>
      </trkpt>
      <trkpt lat="43.98733" lon="7.33497">
        <ele>747</ele>
        <time>2024-07-09T09:09:39Z</time>
      </trkpt>
      <trkpt lat="43.98742" lon="7.33498">
        <ele>746</ele>
        <time>2024-07-09T09:09:40Z</time>
      </trkpt>
      <trkpt lat="43.98752" lon="7.33499">
        <ele>744</ele>
        <time>2024-07-09T09:09:41Z</time>
      </trkpt>
      <trkpt lat="43.98763" lon="7.335">
        <ele>744</ele>
        <time>2024-07-09T09:09:42Z</time>
      </trkpt>
      <trkpt lat="43.98773" lon="7.335">
        <ele>744</ele>
        <time>2024-07-09T09:09:43Z</time>
      </trkpt>
      <trkpt lat="43.98783" lon="7.33499">
        <ele>743</ele>
        <time>2024-07-09T09:09:44Z</time>
      </trkpt>
      <trkpt lat="43.98793" lon="7.33497">
        <ele>743</ele>
        <time>2024-07-09T09:09:45Z</time>
      </trkpt>
      <trkpt lat="43.98802" lon="7.33495">
        <ele>740</ele>
        <time>2024-07-09T09:09:46Z</time>
      </trkpt>
      <trkpt lat="43.98812" lon="7.33493">
        <ele>740</ele>
        <time>2024-07-09T09:09:47Z</time>
      </trkpt>
      <trkpt lat="43.98823" lon="7.33492">
        <ele>740</ele>
        <time>2024-07-09T09:09:48Z</time>
      </trkpt>
      <trkpt lat="43.98834" lon="7.33492">
        <ele>737</ele>
        <time>2024-07-09T09:09:49Z</time>
      </trkpt>
      <trkpt lat="43.98845" lon="7.33491">
        <ele>737</ele>
        <time>2024-07-09T09:09:50Z</time>
      </trkpt>
      <trkpt lat="43.98856" lon="7.3349">
        <ele>737</ele>
        <time>2024-07-09T09:09:51Z</time>
      </trkpt>
      <trkpt lat="43.98867" lon="7.33489">
        <ele>736</ele>
        <time>2024-07-09T09:09:52Z</time>
      </trkpt>
      <trkpt lat="43.98877" lon="7.33487">
        <ele>736</ele>
        <time>2024-07-09T09:09:53Z</time>
      </trkpt>
      <trkpt lat="43.98886" lon="7.33486">
        <ele>736</ele>
        <time>2024-07-09T09:09:54Z</time>
      </trkpt>
      <trkpt lat="43.98896" lon="7.33484">
        <ele>732.2</ele>
        <time>2024-07-09T09:09:55Z</time>
      </trkpt>
      <trkpt lat="43.98905" lon="7.33483">
        <ele>732.2</ele>
        <time>2024-07-09T09:09:56Z</time>
      </trkpt>
      <trkpt lat="43.98915" lon="7.33482">
        <ele>731.2</ele>
        <time>2024-07-09T09:09:57Z</time>
      </trkpt>
      <trkpt lat="43.98924" lon="7.33482">
        <ele>728.4</ele>
        <time>2024-07-09T09:09:58Z</time>
      </trkpt>
      <trkpt lat="43.98932" lon="7.33482">
        <ele>728.4</ele>
        <time>2024-07-09T09:09:59Z</time>
      </trkpt>
      <trkpt lat="43.9894" lon="7.33483">
        <ele>728.4</ele>
        <time>2024-07-09T09:10:00Z</time>
      </trkpt>
      <trkpt lat="43.98948" lon="7.33484">
        <ele>727.4</ele>
        <time>2024-07-09T09:10:01Z</time>
      </trkpt>
      <trkpt lat="43.98956" lon="7.33487">
        <ele>727.4</ele>
        <time>2024-07-09T09:10:02Z</time>
      </trkpt>
      <trkpt lat="43.98963" lon="7.3349">
        <ele>724.6</ele>
        <time>2024-07-09T09:10:03Z</time>
      </trkpt>
      <trkpt lat="43.98971" lon="7.33492">
        <ele>724.6</ele>
        <time>2024-07-09T09:10:04Z</time>
      </trkpt>
      <trkpt lat="43.98978" lon="7.33495">
        <ele>724.6</ele>
        <time>2024-07-09T09:10:05Z</time>
      </trkpt>
      <trkpt lat="43.98986" lon="7.33497">
        <ele>723.6</ele>
        <time>2024-07-09T09:10:06Z</time>
      </trkpt>
      <trkpt lat="43.98993" lon="7.33498">
        <ele>721.4</ele>
        <time>2024-07-09T09:10:07Z</time>
      </trkpt>
      <trkpt lat="43.99001" lon="7.33499">
        <ele>721.4</ele>
        <time>2024-07-09T09:10:08Z</time>
      </trkpt>
      <trkpt lat="43.99009" lon="7.33498">
        <ele>721.4</ele>
        <time>2024-07-09T09:10:09Z</time>
      </trkpt>
      <trkpt lat="43.99016" lon="7.33497">
        <ele>720.4</ele>
        <time>2024-07-09T09:10:10Z</time>
      </trkpt>
      <trkpt lat="43.99023" lon="7.33496">
        <ele>718.6</ele>
        <time>2024-07-09T09:10:11Z</time>
      </trkpt>
      <trkpt lat="43.9903" lon="7.33494">
        <ele>718.6</ele>
        <time>2024-07-09T09:10:12Z</time>
      </trkpt>
      <trkpt lat="43.99038" lon="7.33492">
        <ele>718.6</ele>
        <time>2024-07-09T09:10:13Z</time>
      </trkpt>
      <trkpt lat="43.99045" lon="7.33488">
        <ele>717.6</ele>
        <time>2024-07-09T09:10:14Z</time>
      </trkpt>
      <trkpt lat="43.99051" lon="7.33483">
        <ele>716</ele>
        <time>2024-07-09T09:10:15Z</time>
      </trkpt>
      <trkpt lat="43.99058" lon="7.33476">
        <ele>716</ele>
        <time>2024-07-09T09:10:16Z</time>
      </trkpt>
      <trkpt lat="43.99063" lon="7.33467">
        <ele>716</ele>
        <time>2024-07-09T09:10:17Z</time>
      </trkpt>
      <trkpt lat="43.99067" lon="7.33457">
        <ele>716</ele>
        <time>2024-07-09T09:10:18Z</time>
      </trkpt>
      <trkpt lat="43.99069" lon="7.33446">
        <ele>716</ele>
        <time>2024-07-09T09:10:19Z</time>
      </trkpt>
      <trkpt lat="43.99069" lon="7.33436">
        <ele>713</ele>
        <time>2024-07-09T09:10:20Z</time>
      </trkpt>
      <trkpt lat="43.99069" lon="7.33426">
        <ele>713</ele>
        <time>2024-07-09T09:10:21Z</time>
      </trkpt>
      <trkpt lat="43.9907" lon="7.33416">
        <ele>713</ele>
        <time>2024-07-09T09:10:22Z</time>
      </trkpt>
      <trkpt lat="43.9907" lon="7.33406">
        <ele>713</ele>
        <time>2024-07-09T09:10:23Z</time>
      </trkpt>
      <trkpt lat="43.99071" lon="7.33397">
        <ele>712</ele>
        <time>2024-07-09T09:10:24Z</time>
      </trkpt>
      <trkpt lat="43.99072" lon="7.33387">
        <ele>710.2</ele>
        <time>2024-07-09T09:10:25Z</time>
      </trkpt>
      <trkpt lat="43.99074" lon="7.33377">
        <ele>710.2</ele>
        <time>2024-07-09T09:10:26Z</time>
      </trkpt>
      <trkpt lat="43.99077" lon="7.33368">
        <ele>710.2</ele>
        <time>2024-07-09T09:10:27Z</time>
      </trkpt>
      <trkpt lat="43.9908" lon="7.33359">
        <ele>710.2</ele>
        <time>2024-07-09T09:10:28Z</time>
      </trkpt>
      <trkpt lat="43.99083" lon="7.3335">
        <ele>709.2</ele>
        <time>2024-07-09T09:10:29Z</time>
      </trkpt>
      <trkpt lat="43.99087" lon="7.33343">
        <ele>707.2</ele>
        <time>2024-07-09T09:10:30Z</time>
      </trkpt>
      <trkpt lat="43.99091" lon="7.33336">
        <ele>707.2</ele>
        <time>2024-07-09T09:10:31Z</time>
      </trkpt>
      <trkpt lat="43.99096" lon="7.33331">
        <ele>707.2</ele>
        <time>2024-07-09T09:10:32Z</time>
      </trkpt>
      <trkpt lat="43.99102" lon="7.33326">
        <ele>706.2</ele>
        <time>2024-07-09T09:10:33Z</time>
      </trkpt>
      <trkpt lat="43.99108" lon="7.33326">
        <ele>704.4</ele>
        <time>2024-07-09T09:10:34Z</time>
      </trkpt>
      <trkpt lat="43.99115" lon="7.33329">
        <ele>704.4</ele>
        <time>2024-07-09T09:10:35Z</time>
      </trkpt>
      <trkpt lat="43.99121" lon="7.33333">
        <ele>704.4</ele>
        <time>2024-07-09T09:10:36Z</time>
      </trkpt>
      <trkpt lat="43.99127" lon="7.33338">
        <ele>704.4</ele>
        <time>2024-07-09T09:10:37Z</time>
      </trkpt>
      <trkpt lat="43.99131" lon="7.33343">
        <ele>703.4</ele>
        <time>2024-07-09T09:10:38Z</time>
      </trkpt>
      <trkpt lat="43.99135" lon="7.33349">
        <ele>702.4</ele>
        <time>2024-07-09T09:10:39Z</time>
      </trkpt>
      <trkpt lat="43.99139" lon="7.33354">
        <ele>702.4</ele>
        <time>2024-07-09T09:10:40Z</time>
      </trkpt>
      <trkpt lat="43.99142" lon="7.3336">
        <ele>702.4</ele>
        <time>2024-07-09T09:10:41Z</time>
      </trkpt>
      <trkpt lat="43.99146" lon="7.33366">
        <ele>701.4</ele>
        <time>2024-07-09T09:10:42Z</time>
      </trkpt>
      <trkpt lat="43.9915" lon="7.33373">
        <ele>701</ele>
        <time>2024-07-09T09:10:43Z</time>
      </trkpt>
      <trkpt lat="43.99155" lon="7.33379">
        <ele>701</ele>
        <time>2024-07-09T09:10:44Z</time>
      </trkpt>
      <trkpt lat="43.9916" lon="7.33386">
        <ele>701</ele>
        <time>2024-07-09T09:10:45Z</time>
      </trkpt>
      <trkpt lat="43.99166" lon="7.33391">
        <ele>701</ele>
        <time>2024-07-09T09:10:46Z</time>
      </trkpt>
      <trkpt lat="43.99172" lon="7.33395">
        <ele>700</ele>
        <time>2024-07-09T09:10:47Z</time>
      </trkpt>
      <trkpt lat="43.99179" lon="7.334">
        <ele>699.2</ele>
        <time>2024-07-09T09:10:48Z</time>
      </trkpt>
      <trkpt lat="43.99186" lon="7.33404">
        <ele>699.2</ele>
        <time>2024-07-09T09:10:49Z</time>
      </trkpt>
      <trkpt lat="43.99194" lon="7.33406">
        <ele>699.2</ele>
        <time>2024-07-09T09:10:50Z</time>
      </trkpt>
      <trkpt lat="43.992" lon="7.33406">
        <ele>698.2</ele>
        <time>2024-07-09T09:10:51Z</time>
      </trkpt>
      <trkpt lat="43.99205" lon="7.33402">
        <ele>697.4</ele>
        <time>2024-07-09T09:10:52Z</time>
      </trkpt>
      <trkpt lat="43.99207" lon="7.33395">
        <ele>697.4</ele>
        <time>2024-07-09T09:10:53Z</time>
      </trkpt>
      <trkpt lat="43.99204" lon="7.33387">
        <ele>697.4</ele>
        <time>2024-07-09T09:10:54Z</time>
      </trkpt>
      <trkpt lat="43.99198" lon="7.33381">
        <ele>696.4</ele>
        <time>2024-07-09T09:10:55Z</time>
      </trkpt>
      <trkpt lat="43.99191" lon="7.33377">
        <ele>694.2</ele>
        <time>2024-07-09T09:10:56Z</time>
      </trkpt>
      <trkpt lat="43.99183" lon="7.33374">
        <ele>694.2</ele>
        <time>2024-07-09T09:10:57Z</time>
      </trkpt>
      <trkpt lat="43.99174" lon="7.33371">
        <ele>694.2</ele>
        <time>2024-07-09T09:10:58Z</time>
      </trkpt>
      <trkpt lat="43.99167" lon="7.33365">
        <ele>694.2</ele>
        <time>2024-07-09T09:10:59Z</time>
      </trkpt>
      <trkpt lat="43.99161" lon="7.33355">
        <ele>693.2</ele>
        <time>2024-07-09T09:11:00Z</time>
      </trkpt>
      <trkpt lat="43.99156" lon="7.33345">
        <ele>693.2</ele>
        <time>2024-07-09T09:11:01Z</time>
      </trkpt>
      <trkpt lat="43.99152" lon="7.33333">
        <ele>691.8</ele>
        <time>2024-07-09T09:11:02Z</time>
      </trkpt>
      <trkpt lat="43.99147" lon="7.33321">
        <ele>691.8</ele>
        <time>2024-07-09T09:11:03Z</time>
      </trkpt>
      <trkpt lat="43.99141" lon="7.3331">
        <ele>690.8</ele>
        <time>2024-07-09T09:11:04Z</time>
      </trkpt>
      <trkpt lat="43.99135" lon="7.33298">
        <ele>690.8</ele>
        <time>2024-07-09T09:11:05Z</time>
      </trkpt>
      <trkpt lat="43.9913" lon="7.33287">
        <ele>687.2</ele>
        <time>2024-07-09T09:11:06Z</time>
      </trkpt>
      <trkpt lat="43.99127" lon="7.33275">
        <ele>687.2</ele>
        <time>2024-07-09T09:11:07Z</time>
      </trkpt>
      <trkpt lat="43.99126" lon="7.33264">
        <ele>687.2</ele>
        <time>2024-07-09T09:11:08Z</time>
      </trkpt>
      <trkpt lat="43.99124" lon="7.33253">
        <ele>687.2</ele>
        <time>2024-07-09T09:11:09Z</time>
      </trkpt>
      <trkpt lat="43.99121" lon="7.33243">
        <ele>686.2</ele>
        <time>2024-07-09T09:11:10Z</time>
      </trkpt>
      <trkpt lat="43.99117" lon="7.33233">
        <ele>683.6</ele>
        <time>2024-07-09T09:11:11Z</time>
      </trkpt>
      <trkpt lat="43.99113" lon="7.33225">
        <ele>683.6</ele>
        <time>2024-07-09T09:11:12Z</time>
      </trkpt>
      <trkpt lat="43.99109" lon="7.33219">
        <ele>683.6</ele>
        <time>2024-07-09T09:11:13Z</time>
      </trkpt>
      <trkpt lat="43.99105" lon="7.33215">
        <ele>683.6</ele>
        <time>2024-07-09T09:11:14Z</time>
      </trkpt>
      <trkpt lat="43.99101" lon="7.33211">
        <ele>681.2</ele>
        <time>2024-07-09T09:11:15Z</time>
      </trkpt>
      <trkpt lat="43.99097" lon="7.33208">
        <ele>681.2</ele>
        <time>2024-07-09T09:11:16Z</time>
      </trkpt>
      <trkpt lat="43.99093" lon="7.33205">
        <ele>681.2</ele>
        <time>2024-07-09T09:11:17Z</time>
      </trkpt>
      <trkpt lat="43.99089" lon="7.33202">
        <ele>680.2</ele>
        <time>2024-07-09T09:11:18Z</time>
      </trkpt>
      <trkpt lat="43.99085" lon="7.332">
        <ele>680.2</ele>
        <time>2024-07-09T09:11:19Z</time>
      </trkpt>
      <trkpt lat="43.99082" lon="7.33197">
        <ele>680</ele>
        <time>2024-07-09T09:11:20Z</time>
      </trkpt>
      <trkpt lat="43.99079" lon="7.33194">
        <ele>680</ele>
        <time>2024-07-09T09:11:21Z</time>
      </trkpt>
      <trkpt lat="43.99078" lon="7.33192">
        <ele>680</ele>
        <time>2024-07-09T09:11:22Z</time>
      </trkpt>
      <trkpt lat="43.99077" lon="7.33191">
        <ele>680</ele>
        <time>2024-07-09T09:11:23Z</time>
      </trkpt>
      <trkpt lat="43.99076" lon="7.33191">
        <ele>679</ele>
        <time>2024-07-09T09:11:24Z</time>
      </trkpt>
      <trkpt lat="43.99075" lon="7.33192">
        <ele>679</ele>
        <time>2024-07-09T09:11:25Z</time>
      </trkpt>
      <trkpt lat="43.99074" lon="7.33191">
        <ele>679</ele>
        <time>2024-07-09T09:11:26Z</time>
      </trkpt>
      <trkpt lat="43.99072" lon="7.3319">
        <ele>679</ele>
        <time>2024-07-09T09:11:27Z</time>
      </trkpt>
      <trkpt lat="43.99071" lon="7.33188">
        <ele>679</ele>
        <time>2024-07-09T09:11:28Z</time>
      </trkpt>
      <trkpt lat="43.9907" lon="7.33186">
        <ele>679</ele>
        <time>2024-07-09T09:11:29Z</time>
      </trkpt>
      <trkpt lat="43.99068" lon="7.33182">
        <ele>679</ele>
        <time>2024-07-09T09:11:30Z</time>
      </trkpt>
      <trkpt lat="43.99067" lon="7.33179">
        <ele>679</ele>
        <time>2024-07-09T09:11:31Z</time>
      </trkpt>
      <trkpt lat="43.99065" lon="7.33177">
        <ele>679</ele>
        <time>2024-07-09T09:11:32Z</time>
      </trkpt>
      <trkpt lat="43.99063" lon="7.33175">
        <ele>677.8</ele>
        <time>2024-07-09T09:11:33Z</time>
      </trkpt>
      <trkpt lat="43.99061" lon="7.33173">
        <ele>677.8</ele>
        <time>2024-07-09T09:11:34Z</time>
      </trkpt>
      <trkpt lat="43.9906" lon="7.33172">
        <ele>677.8</ele>
        <time>2024-07-09T09:11:35Z</time>
      </trkpt>
      <trkpt lat="43.99059" lon="7.33171">
        <ele>677.4</ele>
        <time>2024-07-09T09:11:36Z</time>
      </trkpt>
      <trkpt lat="43.99058" lon="7.33169">
        <ele>677.6</ele>
        <time>2024-07-09T09:11:37Z</time>
      </trkpt>
      <trkpt lat="43.99058" lon="7.33169">
        <ele>677.6</ele>
        <time>2024-07-09T09:11:38Z</time>
      </trkpt>
      <trkpt lat="43.99058" lon="7.33169">
        <ele>677.6</ele>
        <time>2024-07-09T09:11:39Z</time>
      </trkpt>
      <trkpt lat="43.99056" lon="7.33161">
        <ele>677</ele>
        <time>2024-07-09T09:11:50Z</time>
      </trkpt>
      <trkpt lat="43.99054" lon="7.33159">
        <ele>677</ele>
        <time>2024-07-09T09:11:51Z</time>
      </trkpt>
      <trkpt lat="43.99053" lon="7.33157">
        <ele>677</ele>
        <time>2024-07-09T09:11:52Z</time>
      </trkpt>
      <trkpt lat="43.99052" lon="7.33154">
        <ele>677</ele>
        <time>2024-07-09T09:11:53Z</time>
      </trkpt>
      <trkpt lat="43.9905" lon="7.33151">
        <ele>676.8</ele>
        <time>2024-07-09T09:11:54Z</time>
      </trkpt>
      <trkpt lat="43.99048" lon="7.33148">
        <ele>676.6</ele>
        <time>2024-07-09T09:11:55Z</time>
      </trkpt>
      <trkpt lat="43.99046" lon="7.33145">
        <ele>676.6</ele>
        <time>2024-07-09T09:11:56Z</time>
      </trkpt>
      <trkpt lat="43.99045" lon="7.33141">
        <ele>676.6</ele>
        <time>2024-07-09T09:11:57Z</time>
      </trkpt>
      <trkpt lat="43.99046" lon="7.33138">
        <ele>676.6</ele>
        <time>2024-07-09T09:11:58Z</time>
      </trkpt>
      <trkpt lat="43.99048" lon="7.33134">
        <ele>676.6</ele>
        <time>2024-07-09T09:11:59Z</time>
      </trkpt>
      <trkpt lat="43.99047" lon="7.33131">
        <ele>676.4</ele>
        <time>2024-07-09T09:12:00Z</time>
      </trkpt>
      <trkpt lat="43.99047" lon="7.3313">
        <ele>676.4</ele>
        <time>2024-07-09T09:12:01Z</time>
      </trkpt>
      <trkpt lat="43.99046" lon="7.33132">
        <ele>676.4</ele>
        <time>2024-07-09T09:12:02Z</time>
      </trkpt>
      <trkpt lat="43.99045" lon="7.33136">
        <ele>676.4</ele>
        <time>2024-07-09T09:12:03Z</time>
      </trkpt>
      <trkpt lat="43.99045" lon="7.33139">
        <ele>676.4</ele>
        <time>2024-07-09T09:12:04Z</time>
      </trkpt>
      <trkpt lat="43.99046" lon="7.33142">
        <ele>676.4</ele>
        <time>2024-07-09T09:12:05Z</time>
      </trkpt>
      <trkpt lat="43.99046" lon="7.33146">
        <ele>676.4</ele>
        <time>2024-07-09T09:12:06Z</time>
      </trkpt>
      <trkpt lat="43.99046" lon="7.33149">
        <ele>676.4</ele>
        <time>2024-07-09T09:12:07Z</time>
      </trkpt>
      <trkpt lat="43.99047" lon="7.33152">
        <ele>676.4</ele>
        <time>2024-07-09T09:12:08Z</time>
      </trkpt>
      <trkpt lat="43.99048" lon="7.33155">
        <ele>676.6</ele>
        <time>2024-07-09T09:12:09Z</time>
      </trkpt>
      <trkpt lat="43.99049" lon="7.33157">
        <ele>676.6</ele>
        <time>2024-07-09T09:12:10Z</time>
      </trkpt>
      <trkpt lat="43.99051" lon="7.3316">
        <ele>676.6</ele>
        <time>2024-07-09T09:12:11Z</time>
      </trkpt>
      <trkpt lat="43.99052" lon="7.33163">
        <ele>676.6</ele>
        <time>2024-07-09T09:12:12Z</time>
      </trkpt>
      <trkpt lat="43.99053" lon="7.33165">
        <ele>676.8</ele>
        <time>2024-07-09T09:12:13Z</time>
      </trkpt>
      <trkpt lat="43.99055" lon="7.33167">
        <ele>676.8</ele>
        <time>2024-07-09T09:12:14Z</time>
      </trkpt>
      <trkpt lat="43.99056" lon="7.33169">
        <ele>676.8</ele>
        <time>2024-07-09T09:12:15Z</time>
      </trkpt>
      <trkpt lat="43.99058" lon="7.33171">
        <ele>677.2</ele>
        <time>2024-07-09T09:12:16Z</time>
      </trkpt>
      <trkpt lat="43.9906" lon="7.33173">
        <ele>677.2</ele>
        <time>2024-07-09T09:12:17Z</time>
      </trkpt>
      <trkpt lat="43.99062" lon="7.33176">
        <ele>677.2</ele>
        <time>2024-07-09T09:12:18Z</time>
      </trkpt>
      <trkpt lat="43.99064" lon="7.33178">
        <ele>677.2</ele>
        <time>2024-07-09T09:12:19Z</time>
      </trkpt>
      <trkpt lat="43.99066" lon="7.3318">
        <ele>677.2</ele>
        <time>2024-07-09T09:12:20Z</time>
      </trkpt>
      <trkpt lat="43.99068" lon="7.33183">
        <ele>677.6</ele>
        <time>2024-07-09T09:12:21Z</time>
      </trkpt>
      <trkpt lat="43.99069" lon="7.33185">
        <ele>678</ele>
        <time>2024-07-09T09:12:22Z</time>
      </trkpt>
      <trkpt lat="43.99071" lon="7.33187">
        <ele>678</ele>
        <time>2024-07-09T09:12:23Z</time>
      </trkpt>
      <trkpt lat="43.99073" lon="7.33189">
        <ele>678</ele>
        <time>2024-07-09T09:12:24Z</time>
      </trkpt>
      <trkpt lat="43.99074" lon="7.33191">
        <ele>678.6</ele>
        <time>2024-07-09T09:12:25Z</time>
      </trkpt>
      <trkpt lat="43.99074" lon="7.33193">
        <ele>678.6</ele>
        <time>2024-07-09T09:12:26Z</time>
      </trkpt>
      <trkpt lat="43.99074" lon="7.33195">
        <ele>678.8</ele>
        <time>2024-07-09T09:12:27Z</time>
      </trkpt>
      <trkpt lat="43.99073" lon="7.33197">
        <ele>678.8</ele>
        <time>2024-07-09T09:12:28Z</time>
      </trkpt>
      <trkpt lat="43.99071" lon="7.33199">
        <ele>679.2</ele>
        <time>2024-07-09T09:12:29Z</time>
      </trkpt>
      <trkpt lat="43.9907" lon="7.33201">
        <ele>679.2</ele>
        <time>2024-07-09T09:12:30Z</time>
      </trkpt>
      <trkpt lat="43.99067" lon="7.33202">
        <ele>679.4</ele>
        <time>2024-07-09T09:12:31Z</time>
      </trkpt>
      <trkpt lat="43.99065" lon="7.33203">
        <ele>679.4</ele>
        <time>2024-07-09T09:12:32Z</time>
      </trkpt>
      <trkpt lat="43.99063" lon="7.33203">
        <ele>679.4</ele>
        <time>2024-07-09T09:12:33Z</time>
      </trkpt>
      <trkpt lat="43.99061" lon="7.33203">
        <ele>679.4</ele>
        <time>2024-07-09T09:12:34Z</time>
      </trkpt>
      <trkpt lat="43.9906" lon="7.33202">
        <ele>679.8</ele>
        <time>2024-07-09T09:12:35Z</time>
      </trkpt>
      <trkpt lat="43.99058" lon="7.332">
        <ele>679.6</ele>
        <time>2024-07-09T09:12:36Z</time>
      </trkpt>
      <trkpt lat="43.99056" lon="7.33199">
        <ele>679.6</ele>
        <time>2024-07-09T09:12:37Z</time>
      </trkpt>
      <trkpt lat="43.99055" lon="7.33197">
        <ele>679.6</ele>
        <time>2024-07-09T09:12:38Z</time>
      </trkpt>
      <trkpt lat="43.99053" lon="7.33196">
        <ele>680</ele>
        <time>2024-07-09T09:12:39Z</time>
      </trkpt>
      <trkpt lat="43.99051" lon="7.33195">
        <ele>680</ele>
        <time>2024-07-09T09:12:40Z</time>
      </trkpt>
      <trkpt lat="43.99049" lon="7.33194">
        <ele>680</ele>
        <time>2024-07-09T09:12:41Z</time>
      </trkpt>
      <trkpt lat="43.99047" lon="7.33193">
        <ele>680</ele>
        <time>2024-07-09T09:12:42Z</time>
      </trkpt>
      <trkpt lat="43.99045" lon="7.33193">
        <ele>680</ele>
        <time>2024-07-09T09:12:43Z</time>
      </trkpt>
      <trkpt lat="43.99043" lon="7.33192">
        <ele>679.8</ele>
        <time>2024-07-09T09:12:44Z</time>
      </trkpt>
      <trkpt lat="43.99041" lon="7.33191">
        <ele>679.8</ele>
        <time>2024-07-09T09:12:45Z</time>
      </trkpt>
      <trkpt lat="43.99039" lon="7.33189">
        <ele>679.8</ele>
        <time>2024-07-09T09:12:46Z</time>
      </trkpt>
      <trkpt lat="43.99037" lon="7.33187">
        <ele>679.8</ele>
        <time>2024-07-09T09:12:47Z</time>
      </trkpt>
      <trkpt lat="43.99036" lon="7.33186">
        <ele>680.2</ele>
        <time>2024-07-09T09:12:48Z</time>
      </trkpt>
      <trkpt lat="43.99034" lon="7.33185">
        <ele>680.2</ele>
        <time>2024-07-09T09:12:49Z</time>
      </trkpt>
      <trkpt lat="43.99032" lon="7.33184">
        <ele>680.2</ele>
        <time>2024-07-09T09:12:50Z</time>
      </trkpt>
      <trkpt lat="43.9903" lon="7.33183">
        <ele>680.2</ele>
        <time>2024-07-09T09:12:51Z</time>
      </trkpt>
      <trkpt lat="43.99028" lon="7.33182">
        <ele>680.4</ele>
        <time>2024-07-09T09:12:52Z</time>
      </trkpt>
      <trkpt lat="43.99026" lon="7.33181">
        <ele>680.4</ele>
        <time>2024-07-09T09:12:53Z</time>
      </trkpt>
      <trkpt lat="43.99025" lon="7.3318">
        <ele>680.4</ele>
        <time>2024-07-09T09:12:54Z</time>
      </trkpt>
      <trkpt lat="43.99024" lon="7.33179">
        <ele>680.4</ele>
        <time>2024-07-09T09:12:55Z</time>
      </trkpt>
      <trkpt lat="43.99024" lon="7.33179">
        <ele>680.4</ele>
        <time>2024-07-09T09:12:56Z</time>
      </trkpt>
      <trkpt lat="43.99024" lon="7.33179">
        <ele>680.6</ele>
        <time>2024-07-09T09:12:57Z</time>
      </trkpt>
      <trkpt lat="43.99024" lon="7.3318">
        <ele>680.6</ele>
        <time>2024-07-09T09:12:58Z</time>
      </trkpt>
      <trkpt lat="43.99023" lon="7.3318">
        <ele>680.6</ele>
        <time>2024-07-09T09:12:59Z</time>
      </trkpt>
      <trkpt lat="43.99023" lon="7.3318">
        <ele>680.6</ele>
        <time>2024-07-09T09:13:00Z</time>
      </trkpt>
      <trkpt lat="43.99021" lon="7.33179">
        <ele>679.8</ele>
        <time>2024-07-09T09:13:28Z</time>
      </trkpt>
      <trkpt lat="43.99021" lon="7.3318">
        <ele>680</ele>
        <time>2024-07-09T09:13:29Z</time>
      </trkpt>
      <trkpt lat="43.99021" lon="7.3318">
        <ele>680</ele>
        <time>2024-07-09T09:13:30Z</time>
      </trkpt>
      <trkpt lat="43.99024" lon="7.33182">
        <ele>679.6</ele>
        <time>2024-07-09T09:13:36Z</time>
      </trkpt>
      <trkpt lat="43.99024" lon="7.33183">
        <ele>680</ele>
        <time>2024-07-09T09:13:37Z</time>
      </trkpt>
      <trkpt lat="43.99025" lon="7.33183">
        <ele>680.2</ele>
        <time>2024-07-09T09:13:38Z</time>
      </trkpt>
      <trkpt lat="43.99027" lon="7.33183">
        <ele>680.2</ele>
        <time>2024-07-09T09:13:39Z</time>
      </trkpt>
      <trkpt lat="43.99029" lon="7.33183">
        <ele>680.2</ele>
        <time>2024-07-09T09:13:40Z</time>
      </trkpt>
      <trkpt lat="43.9903" lon="7.33183">
        <ele>680.2</ele>
        <time>2024-07-09T09:13:41Z</time>
      </trkpt>
      <trkpt lat="43.99032" lon="7.33183">
        <ele>680.2</ele>
        <time>2024-07-09T09:13:42Z</time>
      </trkpt>
      <trkpt lat="43.99032" lon="7.33183">
        <ele>680.2</ele>
        <time>2024-07-09T09:13:43Z</time>
      </trkpt>
      <trkpt lat="43.99032" lon="7.33183">
        <ele>680.2</ele>
        <time>2024-07-09T09:13:44Z</time>
      </trkpt>
      <trkpt lat="43.99037" lon="7.33185">
        <ele>680</ele>
        <time>2024-07-09T09:13:50Z</time>
      </trkpt>
      <trkpt lat="43.99038" lon="7.33187">
        <ele>680.2</ele>
        <time>2024-07-09T09:13:51Z</time>
      </trkpt>
      <trkpt lat="43.9904" lon="7.33188">
        <ele>680.2</ele>
        <time>2024-07-09T09:13:52Z</time>
      </trkpt>
      <trkpt lat="43.99042" lon="7.33189">
        <ele>680.2</ele>
        <time>2024-07-09T09:13:53Z</time>
      </trkpt>
      <trkpt lat="43.99044" lon="7.3319">
        <ele>680.2</ele>
        <time>2024-07-09T09:13:54Z</time>
      </trkpt>
      <trkpt lat="43.99046" lon="7.33191">
        <ele>680.2</ele>
        <time>2024-07-09T09:13:55Z</time>
      </trkpt>
      <trkpt lat="43.99048" lon="7.33192">
        <ele>680.2</ele>
        <time>2024-07-09T09:13:56Z</time>
      </trkpt>
      <trkpt lat="43.99049" lon="7.33194">
        <ele>680</ele>
        <time>2024-07-09T09:13:57Z</time>
      </trkpt>
      <trkpt lat="43.99051" lon="7.33195">
        <ele>680</ele>
        <time>2024-07-09T09:13:58Z</time>
      </trkpt>
      <trkpt lat="43.99053" lon="7.33197">
        <ele>680</ele>
        <time>2024-07-09T09:13:59Z</time>
      </trkpt>
      <trkpt lat="43.99055" lon="7.33198">
        <ele>680.2</ele>
        <time>2024-07-09T09:14:00Z</time>
      </trkpt>
      <trkpt lat="43.99058" lon="7.33199">
        <ele>680.6</ele>
        <time>2024-07-09T09:14:01Z</time>
      </trkpt>
      <trkpt lat="43.9906" lon="7.332">
        <ele>680.6</ele>
        <time>2024-07-09T09:14:02Z</time>
      </trkpt>
      <trkpt lat="43.99062" lon="7.33201">
        <ele>680.6</ele>
        <time>2024-07-09T09:14:03Z</time>
      </trkpt>
      <trkpt lat="43.99064" lon="7.33202">
        <ele>680.6</ele>
        <time>2024-07-09T09:14:04Z</time>
      </trkpt>
      <trkpt lat="43.99065" lon="7.33203">
        <ele>679.8</ele>
        <time>2024-07-09T09:14:05Z</time>
      </trkpt>
      <trkpt lat="43.99067" lon="7.33204">
        <ele>679.8</ele>
        <time>2024-07-09T09:14:06Z</time>
      </trkpt>
      <trkpt lat="43.99069" lon="7.33206">
        <ele>679.8</ele>
        <time>2024-07-09T09:14:07Z</time>
      </trkpt>
      <trkpt lat="43.99072" lon="7.33207">
        <ele>680.2</ele>
        <time>2024-07-09T09:14:08Z</time>
      </trkpt>
      <trkpt lat="43.99074" lon="7.33207">
        <ele>680.2</ele>
        <time>2024-07-09T09:14:09Z</time>
      </trkpt>
      <trkpt lat="43.99076" lon="7.33206">
        <ele>679.8</ele>
        <time>2024-07-09T09:14:10Z</time>
      </trkpt>
      <trkpt lat="43.99077" lon="7.33203">
        <ele>679.8</ele>
        <time>2024-07-09T09:14:11Z</time>
      </trkpt>
      <trkpt lat="43.99078" lon="7.33199">
        <ele>679.8</ele>
        <time>2024-07-09T09:14:12Z</time>
      </trkpt>
      <trkpt lat="43.99078" lon="7.33195">
        <ele>679.8</ele>
        <time>2024-07-09T09:14:13Z</time>
      </trkpt>
      <trkpt lat="43.99075" lon="7.33191">
        <ele>679.4</ele>
        <time>2024-07-09T09:14:14Z</time>
      </trkpt>
      <trkpt lat="43.99072" lon="7.33187">
        <ele>679.4</ele>
        <time>2024-07-09T09:14:15Z</time>
      </trkpt>
      <trkpt lat="43.99069" lon="7.33183">
        <ele>679.4</ele>
        <time>2024-07-09T09:14:16Z</time>
      </trkpt>
      <trkpt lat="43.99066" lon="7.33179">
        <ele>678.4</ele>
        <time>2024-07-09T09:14:17Z</time>
      </trkpt>
      <trkpt lat="43.99063" lon="7.33175">
        <ele>678.2</ele>
        <time>2024-07-09T09:14:18Z</time>
      </trkpt>
      <trkpt lat="43.99061" lon="7.33172">
        <ele>678.2</ele>
        <time>2024-07-09T09:14:19Z</time>
      </trkpt>
      <trkpt lat="43.99058" lon="7.33169">
        <ele>678.2</ele>
        <time>2024-07-09T09:14:20Z</time>
      </trkpt>
      <trkpt lat="43.99057" lon="7.33166">
        <ele>677.8</ele>
        <time>2024-07-09T09:14:21Z</time>
      </trkpt>
      <trkpt lat="43.99055" lon="7.33165">
        <ele>677.8</ele>
        <time>2024-07-09T09:14:22Z</time>
      </trkpt>
      <trkpt lat="43.99054" lon="7.33164">
        <ele>677.8</ele>
        <time>2024-07-09T09:14:23Z</time>
      </trkpt>
      <trkpt lat="43.99051" lon="7.33163">
        <ele>677.8</ele>
        <time>2024-07-09T09:14:24Z</time>
      </trkpt>
      <trkpt lat="43.9905" lon="7.33162">
        <ele>677.8</ele>
        <time>2024-07-09T09:14:25Z</time>
      </trkpt>
      <trkpt lat="43.9905" lon="7.33162">
        <ele>677.8</ele>
        <time>2024-07-09T09:14:26Z</time>
      </trkpt>
      <trkpt lat="43.9905" lon="7.33162">
        <ele>677.6</ele>
        <time>2024-07-09T09:14:27Z</time>
      </trkpt>
      <trkpt lat="43.99051" lon="7.3316">
        <ele>678</ele>
        <time>2024-07-09T09:14:45Z</time>
      </trkpt>
      <trkpt lat="43.99052" lon="7.3316">
        <ele>677.8</ele>
        <time>2024-07-09T09:14:46Z</time>
      </trkpt>
      <trkpt lat="43.99053" lon="7.3316">
        <ele>677.8</ele>
        <time>2024-07-09T09:14:47Z</time>
      </trkpt>
      <trkpt lat="43.99053" lon="7.3316">
        <ele>677.8</ele>
        <time>2024-07-09T09:14:48Z</time>
      </trkpt>
      <trkpt lat="43.99054" lon="7.33159">
        <ele>677.8</ele>
        <time>2024-07-09T09:14:49Z</time>
      </trkpt>
      <trkpt lat="43.99056" lon="7.33158">
        <ele>678</ele>
        <time>2024-07-09T09:14:50Z</time>
      </trkpt>
      <trkpt lat="43.99057" lon="7.33159">
        <ele>678</ele>
        <time>2024-07-09T09:14:51Z</time>
      </trkpt>
      <trkpt lat="43.99058" lon="7.33159">
        <ele>678</ele>
        <time>2024-07-09T09:14:52Z</time>
      </trkpt>
      <trkpt lat="43.99058" lon="7.33159">
        <ele>677.6</ele>
        <time>2024-07-09T09:14:53Z</time>
      </trkpt>
      <trkpt lat="43.99058" lon="7.33159">
        <ele>677.4</ele>
        <time>2024-07-09T09:14:54Z</time>
      </trkpt>
      <trkpt lat="43.99058" lon="7.33159">
        <ele>677.4</ele>
        <time>2024-07-09T09:14:55Z</time>
      </trkpt>
      <trkpt lat="43.99051" lon="7.33167">
        <ele>676.8</ele>
        <time>2024-07-09T09:21:58Z</time>
      </trkpt>
      <trkpt lat="43.99051" lon="7.33168">
        <ele>676.8</ele>
        <time>2024-07-09T09:21:59Z</time>
      </trkpt>
      <trkpt lat="43.99051" lon="7.3317">
        <ele>677</ele>
        <time>2024-07-09T09:22:00Z</time>
      </trkpt>
      <trkpt lat="43.99051" lon="7.33171">
        <ele>677</ele>
        <time>2024-07-09T09:22:01Z</time>
      </trkpt>
      <trkpt lat="43.99052" lon="7.33173">
        <ele>677</ele>
        <time>2024-07-09T09:22:02Z</time>
      </trkpt>
      <trkpt lat="43.99052" lon="7.33174">
        <ele>677</ele>
        <time>2024-07-09T09:22:03Z</time>
      </trkpt>
      <trkpt lat="43.99052" lon="7.33175">
        <ele>677.2</ele>
        <time>2024-07-09T09:22:04Z</time>
      </trkpt>
      <trkpt lat="43.99052" lon="7.33176">
        <ele>677.2</ele>
        <time>2024-07-09T09:22:05Z</time>
      </trkpt>
      <trkpt lat="43.99052" lon="7.33176">
        <ele>677.2</ele>
        <time>2024-07-09T09:22:06Z</time>
      </trkpt>
      <trkpt lat="43.99054" lon="7.33177">
        <ele>677.4</ele>
        <time>2024-07-09T09:22:09Z</time>
      </trkpt>
      <trkpt lat="43.99055" lon="7.33177">
        <ele>677.4</ele>
        <time>2024-07-09T09:22:10Z</time>
      </trkpt>
      <trkpt lat="43.99057" lon="7.33178">
        <ele>677.4</ele>
        <time>2024-07-09T09:22:11Z</time>
      </trkpt>
      <trkpt lat="43.99059" lon="7.33178">
        <ele>677.4</ele>
        <time>2024-07-09T09:22:12Z</time>
      </trkpt>
      <trkpt lat="43.9906" lon="7.3318">
        <ele>677.4</ele>
        <time>2024-07-09T09:22:13Z</time>
      </trkpt>
      <trkpt lat="43.99062" lon="7.33181">
        <ele>677.8</ele>
        <time>2024-07-09T09:22:14Z</time>
      </trkpt>
      <trkpt lat="43.99064" lon="7.33183">
        <ele>677.8</ele>
        <time>2024-07-09T09:22:15Z</time>
      </trkpt>
      <trkpt lat="43.99065" lon="7.33185">
        <ele>677.8</ele>
        <time>2024-07-09T09:22:16Z</time>
      </trkpt>
      <trkpt lat="43.99067" lon="7.33186">
        <ele>677.8</ele>
        <time>2024-07-09T09:22:17Z</time>
      </trkpt>
      <trkpt lat="43.99069" lon="7.33188">
        <ele>678.6</ele>
        <time>2024-07-09T09:22:18Z</time>
      </trkpt>
      <trkpt lat="43.9907" lon="7.3319">
        <ele>678.6</ele>
        <time>2024-07-09T09:22:19Z</time>
      </trkpt>
      <trkpt lat="43.99071" lon="7.33192">
        <ele>678.6</ele>
        <time>2024-07-09T09:22:20Z</time>
      </trkpt>
      <trkpt lat="43.99072" lon="7.33194">
        <ele>678.6</ele>
        <time>2024-07-09T09:22:21Z</time>
      </trkpt>
      <trkpt lat="43.99072" lon="7.33197">
        <ele>679.2</ele>
        <time>2024-07-09T09:22:22Z</time>
      </trkpt>
      <trkpt lat="43.99071" lon="7.33199">
        <ele>679.2</ele>
        <time>2024-07-09T09:22:23Z</time>
      </trkpt>
      <trkpt lat="43.9907" lon="7.33201">
        <ele>679.4</ele>
        <time>2024-07-09T09:22:24Z</time>
      </trkpt>
      <trkpt lat="43.99069" lon="7.33201">
        <ele>679.4</ele>
        <time>2024-07-09T09:22:25Z</time>
      </trkpt>
      <trkpt lat="43.99067" lon="7.33202">
        <ele>679.4</ele>
        <time>2024-07-09T09:22:26Z</time>
      </trkpt>
      <trkpt lat="43.99066" lon="7.33203">
        <ele>679.8</ele>
        <time>2024-07-09T09:22:27Z</time>
      </trkpt>
      <trkpt lat="43.99064" lon="7.33203">
        <ele>679.8</ele>
        <time>2024-07-09T09:22:28Z</time>
      </trkpt>
      <trkpt lat="43.99061" lon="7.33204">
        <ele>679.8</ele>
        <time>2024-07-09T09:22:29Z</time>
      </trkpt>
      <trkpt lat="43.9906" lon="7.33203">
        <ele>679.8</ele>
        <time>2024-07-09T09:22:30Z</time>
      </trkpt>
      <trkpt lat="43.99058" lon="7.33202">
        <ele>679.8</ele>
        <time>2024-07-09T09:22:31Z</time>
      </trkpt>
      <trkpt lat="43.99057" lon="7.33201">
        <ele>680.8</ele>
        <time>2024-07-09T09:22:32Z</time>
      </trkpt>
      <trkpt lat="43.99056" lon="7.332">
        <ele>680.4</ele>
        <time>2024-07-09T09:22:33Z</time>
      </trkpt>
      <trkpt lat="43.99054" lon="7.33198">
        <ele>680.4</ele>
        <time>2024-07-09T09:22:34Z</time>
      </trkpt>
      <trkpt lat="43.99052" lon="7.33197">
        <ele>680.4</ele>
        <time>2024-07-09T09:22:35Z</time>
      </trkpt>
      <trkpt lat="43.99051" lon="7.33196">
        <ele>680.4</ele>
        <time>2024-07-09T09:22:36Z</time>
      </trkpt>
      <trkpt lat="43.99049" lon="7.33196">
        <ele>680.6</ele>
        <time>2024-07-09T09:22:37Z</time>
      </trkpt>
      <trkpt lat="43.99047" lon="7.33195">
        <ele>680.6</ele>
        <time>2024-07-09T09:22:38Z</time>
      </trkpt>
      <trkpt lat="43.99046" lon="7.33195">
        <ele>680.6</ele>
        <time>2024-07-09T09:22:39Z</time>
      </trkpt>
      <trkpt lat="43.99044" lon="7.33194">
        <ele>680.6</ele>
        <time>2024-07-09T09:22:40Z</time>
      </trkpt>
      <trkpt lat="43.99042" lon="7.33193">
        <ele>680.8</ele>
        <time>2024-07-09T09:22:41Z</time>
      </trkpt>
      <trkpt lat="43.9904" lon="7.33192">
        <ele>680.8</ele>
        <time>2024-07-09T09:22:42Z</time>
      </trkpt>
      <trkpt lat="43.99038" lon="7.3319">
        <ele>680.8</ele>
        <time>2024-07-09T09:22:43Z</time>
      </trkpt>
      <trkpt lat="43.99036" lon="7.33189">
        <ele>680.8</ele>
        <time>2024-07-09T09:22:44Z</time>
      </trkpt>
      <trkpt lat="43.99034" lon="7.33187">
        <ele>681.2</ele>
        <time>2024-07-09T09:22:45Z</time>
      </trkpt>
      <trkpt lat="43.99032" lon="7.33186">
        <ele>681.2</ele>
        <time>2024-07-09T09:22:46Z</time>
      </trkpt>
      <trkpt lat="43.9903" lon="7.33185">
        <ele>681.2</ele>
        <time>2024-07-09T09:22:47Z</time>
      </trkpt>
      <trkpt lat="43.99031" lon="7.33183">
        <ele>681.2</ele>
        <time>2024-07-09T09:22:48Z</time>
      </trkpt>
      <trkpt lat="43.99034" lon="7.33183">
        <ele>681.6</ele>
        <time>2024-07-09T09:22:49Z</time>
      </trkpt>
      <trkpt lat="43.99037" lon="7.33183">
        <ele>681.4</ele>
        <time>2024-07-09T09:22:50Z</time>
      </trkpt>
      <trkpt lat="43.9904" lon="7.33182">
        <ele>681.4</ele>
        <time>2024-07-09T09:22:51Z</time>
      </trkpt>
      <trkpt lat="43.99044" lon="7.33182">
        <ele>681.4</ele>
        <time>2024-07-09T09:22:52Z</time>
      </trkpt>
      <trkpt lat="43.99047" lon="7.33181">
        <ele>681.4</ele>
        <time>2024-07-09T09:22:53Z</time>
      </trkpt>
      <trkpt lat="43.9905" lon="7.33181">
        <ele>681.4</ele>
        <time>2024-07-09T09:22:54Z</time>
      </trkpt>
      <trkpt lat="43.99053" lon="7.33181">
        <ele>681.4</ele>
        <time>2024-07-09T09:22:55Z</time>
      </trkpt>
      <trkpt lat="43.99056" lon="7.3318">
        <ele>681.4</ele>
        <time>2024-07-09T09:22:56Z</time>
      </trkpt>
      <trkpt lat="43.99059" lon="7.3318">
        <ele>680.2</ele>
        <time>2024-07-09T10:16:25Z</time>
      </trkpt>
      <trkpt lat="43.99062" lon="7.3318">
        <ele>679.4</ele>
        <time>2024-07-09T10:16:26Z</time>
      </trkpt>
      <trkpt lat="43.99065" lon="7.33179">
        <ele>679.2</ele>
        <time>2024-07-09T10:16:27Z</time>
      </trkpt>
      <trkpt lat="43.99062" lon="7.33176">
        <ele>679.2</ele>
        <time>2024-07-09T10:16:28Z</time>
      </trkpt>
      <trkpt lat="43.99056" lon="7.3317">
        <ele>679.2</ele>
        <time>2024-07-09T10:16:29Z</time>
      </trkpt>
      <trkpt lat="43.99054" lon="7.33169">
        <ele>678.6</ele>
        <time>2024-07-09T10:16:30Z</time>
      </trkpt>
      <trkpt lat="43.9905" lon="7.33163">
        <ele>678.6</ele>
        <time>2024-07-09T10:16:31Z</time>
      </trkpt>
      <trkpt lat="43.99049" lon="7.33161">
        <ele>678.2</ele>
        <time>2024-07-09T10:16:32Z</time>
      </trkpt>
      <trkpt lat="43.99047" lon="7.33156">
        <ele>678.2</ele>
        <time>2024-07-09T10:16:33Z</time>
      </trkpt>
      <trkpt lat="43.99046" lon="7.33151">
        <ele>678.2</ele>
        <time>2024-07-09T10:16:34Z</time>
      </trkpt>
      <trkpt lat="43.99045" lon="7.33145">
        <ele>677.6</ele>
        <time>2024-07-09T10:16:35Z</time>
      </trkpt>
      <trkpt lat="43.99044" lon="7.33139">
        <ele>677.6</ele>
        <time>2024-07-09T10:16:36Z</time>
      </trkpt>
      <trkpt lat="43.99044" lon="7.33134">
        <ele>677.6</ele>
        <time>2024-07-09T10:16:37Z</time>
      </trkpt>
      <trkpt lat="43.99044" lon="7.33126">
        <ele>677.6</ele>
        <time>2024-07-09T10:16:38Z</time>
      </trkpt>
      <trkpt lat="43.99044" lon="7.33123">
        <ele>677.6</ele>
        <time>2024-07-09T10:16:39Z</time>
      </trkpt>
      <trkpt lat="43.99044" lon="7.33117">
        <ele>677.4</ele>
        <time>2024-07-09T10:16:40Z</time>
      </trkpt>
      <trkpt lat="43.99044" lon="7.33108">
        <ele>676.8</ele>
        <time>2024-07-09T10:16:41Z</time>
      </trkpt>
      <trkpt lat="43.99044" lon="7.33106">
        <ele>676.8</ele>
        <time>2024-07-09T10:16:42Z</time>
      </trkpt>
      <trkpt lat="43.99044" lon="7.33099">
        <ele>676.8</ele>
        <time>2024-07-09T10:16:43Z</time>
      </trkpt>
      <trkpt lat="43.99043" lon="7.33093">
        <ele>676.8</ele>
        <time>2024-07-09T10:16:44Z</time>
      </trkpt>
      <trkpt lat="43.99043" lon="7.33087">
        <ele>676.6</ele>
        <time>2024-07-09T10:16:45Z</time>
      </trkpt>
      <trkpt lat="43.99042" lon="7.33082">
        <ele>676.6</ele>
        <time>2024-07-09T10:16:46Z</time>
      </trkpt>
      <trkpt lat="43.9904" lon="7.33074">
        <ele>676.6</ele>
        <time>2024-07-09T10:16:47Z</time>
      </trkpt>
      <trkpt lat="43.9904" lon="7.33072">
        <ele>676.6</ele>
        <time>2024-07-09T10:16:48Z</time>
      </trkpt>
      <trkpt lat="43.99037" lon="7.33065">
        <ele>676</ele>
        <time>2024-07-09T10:16:49Z</time>
      </trkpt>
      <trkpt lat="43.99036" lon="7.33062">
        <ele>675.8</ele>
        <time>2024-07-09T10:16:50Z</time>
      </trkpt>
      <trkpt lat="43.99034" lon="7.33058">
        <ele>675.8</ele>
        <time>2024-07-09T10:16:51Z</time>
      </trkpt>
      <trkpt lat="43.99032" lon="7.33054">
        <ele>675.8</ele>
        <time>2024-07-09T10:16:52Z</time>
      </trkpt>
      <trkpt lat="43.9903" lon="7.3305">
        <ele>675.8</ele>
        <time>2024-07-09T10:16:53Z</time>
      </trkpt>
      <trkpt lat="43.99029" lon="7.33045">
        <ele>675</ele>
        <time>2024-07-09T10:16:54Z</time>
      </trkpt>
      <trkpt lat="43.99027" lon="7.33041">
        <ele>675</ele>
        <time>2024-07-09T10:16:55Z</time>
      </trkpt>
      <trkpt lat="43.99025" lon="7.33037">
        <ele>675</ele>
        <time>2024-07-09T10:16:56Z</time>
      </trkpt>
      <trkpt lat="43.99021" lon="7.33032">
        <ele>674.2</ele>
        <time>2024-07-09T10:16:57Z</time>
      </trkpt>
      <trkpt lat="43.9902" lon="7.33031">
        <ele>674.2</ele>
        <time>2024-07-09T10:16:58Z</time>
      </trkpt>
      <trkpt lat="43.99016" lon="7.33027">
        <ele>673.8</ele>
        <time>2024-07-09T10:16:59Z</time>
      </trkpt>
      <trkpt lat="43.99015" lon="7.33025">
        <ele>673.8</ele>
        <time>2024-07-09T10:17:00Z</time>
      </trkpt>
      <trkpt lat="43.99011" lon="7.33019">
        <ele>673.8</ele>
        <time>2024-07-09T10:17:01Z</time>
      </trkpt>
      <trkpt lat="43.9901" lon="7.33018">
        <ele>673.8</ele>
        <time>2024-07-09T10:17:02Z</time>
      </trkpt>
      <trkpt lat="43.99006" lon="7.33012">
        <ele>672.4</ele>
        <time>2024-07-09T10:17:03Z</time>
      </trkpt>
      <trkpt lat="43.99005" lon="7.3301">
        <ele>672.4</ele>
        <time>2024-07-09T10:17:04Z</time>
      </trkpt>
      <trkpt lat="43.99002" lon="7.33007">
        <ele>672.4</ele>
        <time>2024-07-09T10:17:05Z</time>
      </trkpt>
      <trkpt lat="43.98999" lon="7.33003">
        <ele>671.4</ele>
        <time>2024-07-09T10:17:06Z</time>
      </trkpt>
      <trkpt lat="43.98997" lon="7.32999">
        <ele>671.4</ele>
        <time>2024-07-09T10:17:07Z</time>
      </trkpt>
      <trkpt lat="43.98996" lon="7.32996">
        <ele>671.4</ele>
        <time>2024-07-09T10:17:08Z</time>
      </trkpt>
      <trkpt lat="43.98996" lon="7.32992">
        <ele>671.4</ele>
        <time>2024-07-09T10:17:09Z</time>
      </trkpt>
      <trkpt lat="43.98997" lon="7.32989">
        <ele>670.4</ele>
        <time>2024-07-09T10:17:10Z</time>
      </trkpt>
      <trkpt lat="43.98998" lon="7.32988">
        <ele>670.4</ele>
        <time>2024-07-09T10:17:11Z</time>
      </trkpt>
      <trkpt lat="43.98999" lon="7.32987">
        <ele>670</ele>
        <time>2024-07-09T10:17:12Z</time>
      </trkpt>
      <trkpt lat="43.98999" lon="7.32988">
        <ele>670</ele>
        <time>2024-07-09T10:17:13Z</time>
      </trkpt>
      <trkpt lat="43.99001" lon="7.32989">
        <ele>670</ele>
        <time>2024-07-09T10:17:14Z</time>
      </trkpt>
      <trkpt lat="43.99002" lon="7.3299">
        <ele>670</ele>
        <time>2024-07-09T10:17:15Z</time>
      </trkpt>
      <trkpt lat="43.99004" lon="7.3299">
        <ele>669.2</ele>
        <time>2024-07-09T10:17:16Z</time>
      </trkpt>
      <trkpt lat="43.99007" lon="7.32993">
        <ele>668.8</ele>
        <time>2024-07-09T10:17:17Z</time>
      </trkpt>
      <trkpt lat="43.99008" lon="7.32994">
        <ele>668.8</ele>
        <time>2024-07-09T10:17:18Z</time>
      </trkpt>
      <trkpt lat="43.9901" lon="7.32997">
        <ele>668.8</ele>
        <time>2024-07-09T10:17:19Z</time>
      </trkpt>
      <trkpt lat="43.99013" lon="7.33">
        <ele>668.4</ele>
        <time>2024-07-09T10:17:20Z</time>
      </trkpt>
      <trkpt lat="43.99016" lon="7.33004">
        <ele>668.2</ele>
        <time>2024-07-09T10:17:21Z</time>
      </trkpt>
      <trkpt lat="43.99021" lon="7.33009">
        <ele>668.2</ele>
        <time>2024-07-09T10:17:22Z</time>
      </trkpt>
      <trkpt lat="43.99023" lon="7.33011">
        <ele>668.2</ele>
        <time>2024-07-09T10:17:23Z</time>
      </trkpt>
      <trkpt lat="43.99026" lon="7.33014">
        <ele>668.2</ele>
        <time>2024-07-09T10:17:24Z</time>
      </trkpt>
      <trkpt lat="43.99028" lon="7.33017">
        <ele>668.2</ele>
        <time>2024-07-09T10:17:25Z</time>
      </trkpt>
      <trkpt lat="43.99031" lon="7.3302">
        <ele>667.8</ele>
        <time>2024-07-09T10:17:26Z</time>
      </trkpt>
      <trkpt lat="43.99035" lon="7.33023">
        <ele>667.8</ele>
        <time>2024-07-09T10:17:27Z</time>
      </trkpt>
      <trkpt lat="43.99039" lon="7.33027">
        <ele>667.8</ele>
        <time>2024-07-09T10:17:28Z</time>
      </trkpt>
      <trkpt lat="43.99043" lon="7.33031">
        <ele>667.8</ele>
        <time>2024-07-09T10:17:29Z</time>
      </trkpt>
      <trkpt lat="43.9905" lon="7.33038">
        <ele>667</ele>
        <time>2024-07-09T10:17:30Z</time>
      </trkpt>
      <trkpt lat="43.99052" lon="7.3304">
        <ele>667</ele>
        <time>2024-07-09T10:17:31Z</time>
      </trkpt>
      <trkpt lat="43.99059" lon="7.33048">
        <ele>667</ele>
        <time>2024-07-09T10:17:32Z</time>
      </trkpt>
      <trkpt lat="43.99061" lon="7.3305">
        <ele>666</ele>
        <time>2024-07-09T10:17:33Z</time>
      </trkpt>
      <trkpt lat="43.99066" lon="7.33055">
        <ele>665.4</ele>
        <time>2024-07-09T10:17:34Z</time>
      </trkpt>
      <trkpt lat="43.99072" lon="7.3306">
        <ele>665.4</ele>
        <time>2024-07-09T10:17:35Z</time>
      </trkpt>
      <trkpt lat="43.99076" lon="7.33066">
        <ele>665.4</ele>
        <time>2024-07-09T10:17:36Z</time>
      </trkpt>
      <trkpt lat="43.99083" lon="7.33072">
        <ele>665.4</ele>
        <time>2024-07-09T10:17:37Z</time>
      </trkpt>
      <trkpt lat="43.99085" lon="7.33074">
        <ele>664.4</ele>
        <time>2024-07-09T10:17:38Z</time>
      </trkpt>
      <trkpt lat="43.99089" lon="7.33078">
        <ele>663.6</ele>
        <time>2024-07-09T10:17:39Z</time>
      </trkpt>
      <trkpt lat="43.99092" lon="7.33082">
        <ele>663.6</ele>
        <time>2024-07-09T10:17:40Z</time>
      </trkpt>
      <trkpt lat="43.99095" lon="7.33086">
        <ele>663.6</ele>
        <time>2024-07-09T10:17:41Z</time>
      </trkpt>
      <trkpt lat="43.99099" lon="7.33088">
        <ele>663</ele>
        <time>2024-07-09T10:17:42Z</time>
      </trkpt>
      <trkpt lat="43.99101" lon="7.33089">
        <ele>663</ele>
        <time>2024-07-09T10:17:43Z</time>
      </trkpt>
      <trkpt lat="43.99105" lon="7.33085">
        <ele>662.6</ele>
        <time>2024-07-09T10:17:44Z</time>
      </trkpt>
      <trkpt lat="43.99106" lon="7.33083">
        <ele>662.6</ele>
        <time>2024-07-09T10:17:45Z</time>
      </trkpt>
      <trkpt lat="43.99106" lon="7.33075">
        <ele>662.6</ele>
        <time>2024-07-09T10:17:46Z</time>
      </trkpt>
      <trkpt lat="43.99106" lon="7.33072">
        <ele>662.2</ele>
        <time>2024-07-09T10:17:47Z</time>
      </trkpt>
      <trkpt lat="43.99104" lon="7.33066">
        <ele>662.2</ele>
        <time>2024-07-09T10:17:48Z</time>
      </trkpt>
      <trkpt lat="43.99099" lon="7.33059">
        <ele>662.2</ele>
        <time>2024-07-09T10:17:49Z</time>
      </trkpt>
      <trkpt lat="43.99097" lon="7.33057">
        <ele>662.2</ele>
        <time>2024-07-09T10:17:50Z</time>
      </trkpt>
      <trkpt lat="43.99093" lon="7.33051">
        <ele>661.4</ele>
        <time>2024-07-09T10:17:51Z</time>
      </trkpt>
      <trkpt lat="43.99089" lon="7.33045">
        <ele>661.4</ele>
        <time>2024-07-09T10:17:52Z</time>
      </trkpt>
      <trkpt lat="43.99085" lon="7.33038">
        <ele>660.8</ele>
        <time>2024-07-09T10:17:53Z</time>
      </trkpt>
      <trkpt lat="43.99082" lon="7.33032">
        <ele>660.8</ele>
        <time>2024-07-09T10:17:54Z</time>
      </trkpt>
      <trkpt lat="43.99076" lon="7.33022">
        <ele>659.8</ele>
        <time>2024-07-09T10:17:55Z</time>
      </trkpt>
      <trkpt lat="43.99074" lon="7.33019">
        <ele>659.8</ele>
        <time>2024-07-09T10:17:56Z</time>
      </trkpt>
      <trkpt lat="43.99069" lon="7.33009">
        <ele>658.8</ele>
        <time>2024-07-09T10:17:57Z</time>
      </trkpt>
      <trkpt lat="43.99067" lon="7.33006">
        <ele>658.8</ele>
        <time>2024-07-09T10:17:58Z</time>
      </trkpt>
      <trkpt lat="43.99064" lon="7.32999">
        <ele>658.8</ele>
        <time>2024-07-09T10:17:59Z</time>
      </trkpt>
      <trkpt lat="43.9906" lon="7.32992">
        <ele>657.8</ele>
        <time>2024-07-09T10:18:00Z</time>
      </trkpt>
      <trkpt lat="43.99056" lon="7.32985">
        <ele>657.8</ele>
        <time>2024-07-09T10:18:01Z</time>
      </trkpt>
      <trkpt lat="43.99052" lon="7.32978">
        <ele>657.4</ele>
        <time>2024-07-09T10:18:02Z</time>
      </trkpt>
      <trkpt lat="43.99048" lon="7.32971">
        <ele>657.4</ele>
        <time>2024-07-09T10:18:03Z</time>
      </trkpt>
      <trkpt lat="43.99044" lon="7.32965">
        <ele>657.4</ele>
        <time>2024-07-09T10:18:04Z</time>
      </trkpt>
      <trkpt lat="43.9904" lon="7.32959">
        <ele>656.4</ele>
        <time>2024-07-09T10:18:05Z</time>
      </trkpt>
      <trkpt lat="43.99037" lon="7.32955">
        <ele>656.4</ele>
        <time>2024-07-09T10:18:06Z</time>
      </trkpt>
      <trkpt lat="43.99035" lon="7.32951">
        <ele>655</ele>
        <time>2024-07-09T10:18:07Z</time>
      </trkpt>
      <trkpt lat="43.99032" lon="7.32948">
        <ele>655</ele>
        <time>2024-07-09T10:18:08Z</time>
      </trkpt>
      <trkpt lat="43.9903" lon="7.32945">
        <ele>654.6</ele>
        <time>2024-07-09T10:18:09Z</time>
      </trkpt>
      <trkpt lat="43.99028" lon="7.32943">
        <ele>654.6</ele>
        <time>2024-07-09T10:18:10Z</time>
      </trkpt>
      <trkpt lat="43.99026" lon="7.32941">
        <ele>654</ele>
        <time>2024-07-09T10:18:11Z</time>
      </trkpt>
      <trkpt lat="43.99024" lon="7.32939">
        <ele>654</ele>
        <time>2024-07-09T10:18:12Z</time>
      </trkpt>
      <trkpt lat="43.99022" lon="7.32938">
        <ele>654</ele>
        <time>2024-07-09T10:18:13Z</time>
      </trkpt>
      <trkpt lat="43.9902" lon="7.32936">
        <ele>653</ele>
        <time>2024-07-09T10:18:14Z</time>
      </trkpt>
      <trkpt lat="43.99019" lon="7.32935">
        <ele>653</ele>
        <time>2024-07-09T10:18:15Z</time>
      </trkpt>
      <trkpt lat="43.99017" lon="7.32934">
        <ele>652.6</ele>
        <time>2024-07-09T10:18:43Z</time>
      </trkpt>
      <trkpt lat="43.99016" lon="7.32933">
        <ele>652</ele>
        <time>2024-07-09T10:18:44Z</time>
      </trkpt>
      <trkpt lat="43.99011" lon="7.32929">
        <ele>651.8</ele>
        <time>2024-07-09T10:18:45Z</time>
      </trkpt>
      <trkpt lat="43.99009" lon="7.32927">
        <ele>651.8</ele>
        <time>2024-07-09T10:18:46Z</time>
      </trkpt>
      <trkpt lat="43.99002" lon="7.32922">
        <ele>651.8</ele>
        <time>2024-07-09T10:18:47Z</time>
      </trkpt>
      <trkpt lat="43.99" lon="7.3292">
        <ele>651</ele>
        <time>2024-07-09T10:18:48Z</time>
      </trkpt>
      <trkpt lat="43.98993" lon="7.32915">
        <ele>650.8</ele>
        <time>2024-07-09T10:18:49Z</time>
      </trkpt>
      <trkpt lat="43.9899" lon="7.32914">
        <ele>650.8</ele>
        <time>2024-07-09T10:18:50Z</time>
      </trkpt>
      <trkpt lat="43.98983" lon="7.32909">
        <ele>650.8</ele>
        <time>2024-07-09T10:18:51Z</time>
      </trkpt>
      <trkpt lat="43.9898" lon="7.32907">
        <ele>650.8</ele>
        <time>2024-07-09T10:18:52Z</time>
      </trkpt>
      <trkpt lat="43.98972" lon="7.32903">
        <ele>650.2</ele>
        <time>2024-07-09T10:18:53Z</time>
      </trkpt>
      <trkpt lat="43.9897" lon="7.32902">
        <ele>649.6</ele>
        <time>2024-07-09T10:18:54Z</time>
      </trkpt>
      <trkpt lat="43.98961" lon="7.32902">
        <ele>649.6</ele>
        <time>2024-07-09T10:18:55Z</time>
      </trkpt>
      <trkpt lat="43.98958" lon="7.32903">
        <ele>649.6</ele>
        <time>2024-07-09T10:18:56Z</time>
      </trkpt>
      <trkpt lat="43.98949" lon="7.32906">
        <ele>648.6</ele>
        <time>2024-07-09T10:18:57Z</time>
      </trkpt>
      <trkpt lat="43.98947" lon="7.32908">
        <ele>648.2</ele>
        <time>2024-07-09T10:18:58Z</time>
      </trkpt>
      <trkpt lat="43.98942" lon="7.32911">
        <ele>648.2</ele>
        <time>2024-07-09T10:18:59Z</time>
      </trkpt>
      <trkpt lat="43.98937" lon="7.32911">
        <ele>648.2</ele>
        <time>2024-07-09T10:19:00Z</time>
      </trkpt>
      <trkpt lat="43.98933" lon="7.32909">
        <ele>647.2</ele>
        <time>2024-07-09T10:19:01Z</time>
      </trkpt>
      <trkpt lat="43.9893" lon="7.32905">
        <ele>647.2</ele>
        <time>2024-07-09T10:19:02Z</time>
      </trkpt>
      <trkpt lat="43.98929" lon="7.329">
        <ele>646.6</ele>
        <time>2024-07-09T10:19:03Z</time>
      </trkpt>
      <trkpt lat="43.98929" lon="7.32897">
        <ele>646.6</ele>
        <time>2024-07-09T10:19:04Z</time>
      </trkpt>
      <trkpt lat="43.98932" lon="7.32896">
        <ele>646.6</ele>
        <time>2024-07-09T10:19:05Z</time>
      </trkpt>
      <trkpt lat="43.98934" lon="7.32897">
        <ele>646.6</ele>
        <time>2024-07-09T10:19:06Z</time>
      </trkpt>
      <trkpt lat="43.98937" lon="7.32897">
        <ele>646.2</ele>
        <time>2024-07-09T10:19:07Z</time>
      </trkpt>
      <trkpt lat="43.9894" lon="7.32898">
        <ele>646.6</ele>
        <time>2024-07-09T10:20:52Z</time>
      </trkpt>
      <trkpt lat="43.98942" lon="7.32898">
        <ele>646.6</ele>
        <time>2024-07-09T10:20:53Z</time>
      </trkpt>
      <trkpt lat="43.98948" lon="7.32896">
        <ele>645.8</ele>
        <time>2024-07-09T10:20:54Z</time>
      </trkpt>
      <trkpt lat="43.9895" lon="7.32895">
        <ele>645.8</ele>
        <time>2024-07-09T10:20:55Z</time>
      </trkpt>
      <trkpt lat="43.98958" lon="7.32893">
        <ele>645.8</ele>
        <time>2024-07-09T10:20:56Z</time>
      </trkpt>
      <trkpt lat="43.9896" lon="7.32892">
        <ele>645.8</ele>
        <time>2024-07-09T10:20:57Z</time>
      </trkpt>
      <trkpt lat="43.98966" lon="7.32891">
        <ele>644.8</ele>
        <time>2024-07-09T10:20:58Z</time>
      </trkpt>
      <trkpt lat="43.98972" lon="7.32891">
        <ele>644.6</ele>
        <time>2024-07-09T10:20:59Z</time>
      </trkpt>
      <trkpt lat="43.98981" lon="7.3289">
        <ele>644.6</ele>
        <time>2024-07-09T10:21:00Z</time>
      </trkpt>
      <trkpt lat="43.98985" lon="7.3289">
        <ele>644.6</ele>
        <time>2024-07-09T10:21:01Z</time>
      </trkpt>
      <trkpt lat="43.98991" lon="7.32889">
        <ele>643.6</ele>
        <time>2024-07-09T10:21:02Z</time>
      </trkpt>
      <trkpt lat="43.99002" lon="7.32891">
        <ele>643.6</ele>
        <time>2024-07-09T10:21:03Z</time>
      </trkpt>
      <trkpt lat="43.99005" lon="7.32891">
        <ele>642.6</ele>
        <time>2024-07-09T10:21:04Z</time>
      </trkpt>
      <trkpt lat="43.99013" lon="7.32894">
        <ele>642.6</ele>
        <time>2024-07-09T10:21:05Z</time>
      </trkpt>
      <trkpt lat="43.9902" lon="7.32897">
        <ele>642.6</ele>
        <time>2024-07-09T10:21:06Z</time>
      </trkpt>
      <trkpt lat="43.99032" lon="7.32902">
        <ele>641.6</ele>
        <time>2024-07-09T10:21:07Z</time>
      </trkpt>
      <trkpt lat="43.99037" lon="7.32904">
        <ele>640.8</ele>
        <time>2024-07-09T10:21:08Z</time>
      </trkpt>
      <trkpt lat="43.99049" lon="7.3291">
        <ele>640.8</ele>
        <time>2024-07-09T10:21:09Z</time>
      </trkpt>
      <trkpt lat="43.99053" lon="7.32913">
        <ele>640.8</ele>
        <time>2024-07-09T10:21:10Z</time>
      </trkpt>
      <trkpt lat="43.99063" lon="7.32923">
        <ele>639.8</ele>
        <time>2024-07-09T10:21:11Z</time>
      </trkpt>
      <trkpt lat="43.99066" lon="7.32926">
        <ele>639.8</ele>
        <time>2024-07-09T10:21:12Z</time>
      </trkpt>
      <trkpt lat="43.99073" lon="7.32934">
        <ele>638.4</ele>
        <time>2024-07-09T10:21:13Z</time>
      </trkpt>
      <trkpt lat="43.99075" lon="7.32934">
        <ele>638.4</ele>
        <time>2024-07-09T10:21:14Z</time>
      </trkpt>
      <trkpt lat="43.9908" lon="7.32931">
        <ele>637.6</ele>
        <time>2024-07-09T10:21:15Z</time>
      </trkpt>
      <trkpt lat="43.99081" lon="7.32927">
        <ele>637.6</ele>
        <time>2024-07-09T10:21:16Z</time>
      </trkpt>
      <trkpt lat="43.9908" lon="7.32917">
        <ele>637.4</ele>
        <time>2024-07-09T10:21:17Z</time>
      </trkpt>
      <trkpt lat="43.99079" lon="7.32913">
        <ele>637.4</ele>
        <time>2024-07-09T10:21:18Z</time>
      </trkpt>
      <trkpt lat="43.99075" lon="7.32907">
        <ele>637.4</ele>
        <time>2024-07-09T10:21:19Z</time>
      </trkpt>
      <trkpt lat="43.9907" lon="7.32901">
        <ele>636.4</ele>
        <time>2024-07-09T10:21:20Z</time>
      </trkpt>
      <trkpt lat="43.99066" lon="7.32895">
        <ele>636</ele>
        <time>2024-07-09T10:21:21Z</time>
      </trkpt>
      <trkpt lat="43.9906" lon="7.32889">
        <ele>636</ele>
        <time>2024-07-09T10:21:22Z</time>
      </trkpt>
      <trkpt lat="43.99055" lon="7.32884">
        <ele>636</ele>
        <time>2024-07-09T10:21:23Z</time>
      </trkpt>
      <trkpt lat="43.99049" lon="7.32879">
        <ele>635</ele>
        <time>2024-07-09T10:21:24Z</time>
      </trkpt>
      <trkpt lat="43.9904" lon="7.32872">
        <ele>635</ele>
        <time>2024-07-09T10:21:25Z</time>
      </trkpt>
      <trkpt lat="43.99037" lon="7.3287">
        <ele>634.4</ele>
        <time>2024-07-09T10:21:26Z</time>
      </trkpt>
      <trkpt lat="43.99028" lon="7.32863">
        <ele>634.4</ele>
        <time>2024-07-09T10:21:27Z</time>
      </trkpt>
      <trkpt lat="43.99024" lon="7.32861">
        <ele>634.4</ele>
        <time>2024-07-09T10:21:28Z</time>
      </trkpt>
      <trkpt lat="43.99018" lon="7.32856">
        <ele>634.4</ele>
        <time>2024-07-09T10:21:29Z</time>
      </trkpt>
      <trkpt lat="43.9901" lon="7.32852">
        <ele>633.4</ele>
        <time>2024-07-09T10:21:30Z</time>
      </trkpt>
      <trkpt lat="43.99003" lon="7.32848">
        <ele>632.8</ele>
        <time>2024-07-09T10:21:31Z</time>
      </trkpt>
      <trkpt lat="43.98996" lon="7.32844">
        <ele>632.8</ele>
        <time>2024-07-09T10:21:32Z</time>
      </trkpt>
      <trkpt lat="43.98989" lon="7.3284">
        <ele>632.8</ele>
        <time>2024-07-09T10:21:33Z</time>
      </trkpt>
      <trkpt lat="43.98982" lon="7.32837">
        <ele>632.8</ele>
        <time>2024-07-09T10:21:34Z</time>
      </trkpt>
      <trkpt lat="43.98975" lon="7.32833">
        <ele>631.8</ele>
        <time>2024-07-09T10:21:35Z</time>
      </trkpt>
      <trkpt lat="43.98967" lon="7.32829">
        <ele>631.8</ele>
        <time>2024-07-09T10:21:36Z</time>
      </trkpt>
      <trkpt lat="43.98956" lon="7.32824">
        <ele>631.8</ele>
        <time>2024-07-09T10:21:37Z</time>
      </trkpt>
      <trkpt lat="43.98953" lon="7.32823">
        <ele>630.8</ele>
        <time>2024-07-09T10:21:38Z</time>
      </trkpt>
      <trkpt lat="43.98945" lon="7.3282">
        <ele>630.2</ele>
        <time>2024-07-09T10:21:39Z</time>
      </trkpt>
      <trkpt lat="43.98937" lon="7.3282">
        <ele>630.2</ele>
        <time>2024-07-09T10:21:40Z</time>
      </trkpt>
      <trkpt lat="43.98925" lon="7.32823">
        <ele>630.2</ele>
        <time>2024-07-09T10:21:41Z</time>
      </trkpt>
      <trkpt lat="43.98921" lon="7.32824">
        <ele>630.2</ele>
        <time>2024-07-09T10:21:42Z</time>
      </trkpt>
      <trkpt lat="43.9891" lon="7.32829">
        <ele>629.2</ele>
        <time>2024-07-09T10:21:43Z</time>
      </trkpt>
      <trkpt lat="43.98906" lon="7.3283">
        <ele>628.8</ele>
        <time>2024-07-09T10:21:44Z</time>
      </trkpt>
      <trkpt lat="43.98898" lon="7.32835">
        <ele>628.8</ele>
        <time>2024-07-09T10:21:45Z</time>
      </trkpt>
      <trkpt lat="43.98893" lon="7.3284">
        <ele>628.8</ele>
        <time>2024-07-09T10:21:46Z</time>
      </trkpt>
      <trkpt lat="43.98888" lon="7.32846">
        <ele>627.8</ele>
        <time>2024-07-09T10:21:47Z</time>
      </trkpt>
      <trkpt lat="43.98882" lon="7.32847">
        <ele>626.2</ele>
        <time>2024-07-09T10:21:48Z</time>
      </trkpt>
      <trkpt lat="43.9888" lon="7.32846">
        <ele>626.2</ele>
        <time>2024-07-09T10:21:49Z</time>
      </trkpt>
      <trkpt lat="43.98879" lon="7.3284">
        <ele>626.2</ele>
        <time>2024-07-09T10:21:50Z</time>
      </trkpt>
      <trkpt lat="43.98884" lon="7.32833">
        <ele>626.2</ele>
        <time>2024-07-09T10:21:51Z</time>
      </trkpt>
      <trkpt lat="43.98887" lon="7.32831">
        <ele>625.2</ele>
        <time>2024-07-09T10:21:52Z</time>
      </trkpt>
      <trkpt lat="43.98893" lon="7.32824">
        <ele>625</ele>
        <time>2024-07-09T10:21:53Z</time>
      </trkpt>
      <trkpt lat="43.98895" lon="7.32822">
        <ele>625</ele>
        <time>2024-07-09T10:21:54Z</time>
      </trkpt>
      <trkpt lat="43.98902" lon="7.32812">
        <ele>625</ele>
        <time>2024-07-09T10:21:55Z</time>
      </trkpt>
      <trkpt lat="43.98904" lon="7.32809">
        <ele>625</ele>
        <time>2024-07-09T10:21:56Z</time>
      </trkpt>
      <trkpt lat="43.9891" lon="7.32798">
        <ele>623.8</ele>
        <time>2024-07-09T10:21:57Z</time>
      </trkpt>
      <trkpt lat="43.98912" lon="7.32794">
        <ele>623.8</ele>
        <time>2024-07-09T10:21:58Z</time>
      </trkpt>
      <trkpt lat="43.98917" lon="7.32782">
        <ele>623.8</ele>
        <time>2024-07-09T10:21:59Z</time>
      </trkpt>
      <trkpt lat="43.98919" lon="7.32777">
        <ele>623</ele>
        <time>2024-07-09T10:22:00Z</time>
      </trkpt>
      <trkpt lat="43.98921" lon="7.32768">
        <ele>622.2</ele>
        <time>2024-07-09T10:22:01Z</time>
      </trkpt>
      <trkpt lat="43.98922" lon="7.32757">
        <ele>622.2</ele>
        <time>2024-07-09T10:22:02Z</time>
      </trkpt>
      <trkpt lat="43.98923" lon="7.32747">
        <ele>622.2</ele>
        <time>2024-07-09T10:22:03Z</time>
      </trkpt>
      <trkpt lat="43.98924" lon="7.32736">
        <ele>622.2</ele>
        <time>2024-07-09T10:22:04Z</time>
      </trkpt>
      <trkpt lat="43.98926" lon="7.32726">
        <ele>622.2</ele>
        <time>2024-07-09T10:22:05Z</time>
      </trkpt>
      <trkpt lat="43.9893" lon="7.32709">
        <ele>621.2</ele>
        <time>2024-07-09T10:22:06Z</time>
      </trkpt>
      <trkpt lat="43.98932" lon="7.32704">
        <ele>621.2</ele>
        <time>2024-07-09T10:22:07Z</time>
      </trkpt>
      <trkpt lat="43.98939" lon="7.32689">
        <ele>621.2</ele>
        <time>2024-07-09T10:22:08Z</time>
      </trkpt>
      <trkpt lat="43.98941" lon="7.32685">
        <ele>621.2</ele>
        <time>2024-07-09T10:22:09Z</time>
      </trkpt>
      <trkpt lat="43.98949" lon="7.32671">
        <ele>620.2</ele>
        <time>2024-07-09T10:22:10Z</time>
      </trkpt>
      <trkpt lat="43.98951" lon="7.32667">
        <ele>620</ele>
        <time>2024-07-09T10:22:11Z</time>
      </trkpt>
      <trkpt lat="43.98957" lon="7.32657">
        <ele>620</ele>
        <time>2024-07-09T10:22:12Z</time>
      </trkpt>
      <trkpt lat="43.98962" lon="7.32648">
        <ele>620</ele>
        <time>2024-07-09T10:22:13Z</time>
      </trkpt>
      <trkpt lat="43.98967" lon="7.32638">
        <ele>620</ele>
        <time>2024-07-09T10:22:14Z</time>
      </trkpt>
      <trkpt lat="43.98972" lon="7.32629">
        <ele>619</ele>
        <time>2024-07-09T10:22:15Z</time>
      </trkpt>
      <trkpt lat="43.9898" lon="7.32615">
        <ele>618.4</ele>
        <time>2024-07-09T10:22:16Z</time>
      </trkpt>
      <trkpt lat="43.98983" lon="7.3261">
        <ele>618.4</ele>
        <time>2024-07-09T10:22:17Z</time>
      </trkpt>
      <trkpt lat="43.98986" lon="7.326">
        <ele>618.4</ele>
        <time>2024-07-09T10:22:18Z</time>
      </trkpt>
      <trkpt lat="43.98987" lon="7.3259">
        <ele>618.4</ele>
        <time>2024-07-09T10:22:19Z</time>
      </trkpt>
      <trkpt lat="43.98986" lon="7.32579">
        <ele>617</ele>
        <time>2024-07-09T10:22:20Z</time>
      </trkpt>
      <trkpt lat="43.98983" lon="7.32568">
        <ele>617</ele>
        <time>2024-07-09T10:22:21Z</time>
      </trkpt>
      <trkpt lat="43.98979" lon="7.32559">
        <ele>617</ele>
        <time>2024-07-09T10:22:22Z</time>
      </trkpt>
      <trkpt lat="43.98974" lon="7.3255">
        <ele>616</ele>
        <time>2024-07-09T10:22:23Z</time>
      </trkpt>
      <trkpt lat="43.98965" lon="7.32538">
        <ele>615</ele>
        <time>2024-07-09T10:22:24Z</time>
      </trkpt>
      <trkpt lat="43.98962" lon="7.32534">
        <ele>615</ele>
        <time>2024-07-09T10:22:25Z</time>
      </trkpt>
      <trkpt lat="43.98951" lon="7.32524">
        <ele>615</ele>
        <time>2024-07-09T10:22:26Z</time>
      </trkpt>
      <trkpt lat="43.98947" lon="7.3252">
        <ele>615</ele>
        <time>2024-07-09T10:22:27Z</time>
      </trkpt>
      <trkpt lat="43.9894" lon="7.32511">
        <ele>614</ele>
        <time>2024-07-09T10:22:28Z</time>
      </trkpt>
      <trkpt lat="43.98932" lon="7.32496">
        <ele>613</ele>
        <time>2024-07-09T10:22:29Z</time>
      </trkpt>
      <trkpt lat="43.9893" lon="7.32491">
        <ele>613</ele>
        <time>2024-07-09T10:22:30Z</time>
      </trkpt>
      <trkpt lat="43.98925" lon="7.32479">
        <ele>613</ele>
        <time>2024-07-09T10:22:31Z</time>
      </trkpt>
      <trkpt lat="43.98921" lon="7.32467">
        <ele>612</ele>
        <time>2024-07-09T10:22:32Z</time>
      </trkpt>
      <trkpt lat="43.98916" lon="7.32456">
        <ele>610.8</ele>
        <time>2024-07-09T10:22:33Z</time>
      </trkpt>
      <trkpt lat="43.98909" lon="7.32439">
        <ele>610.8</ele>
        <time>2024-07-09T10:22:34Z</time>
      </trkpt>
      <trkpt lat="43.98907" lon="7.32433">
        <ele>610.8</ele>
        <time>2024-07-09T10:22:35Z</time>
      </trkpt>
      <trkpt lat="43.98903" lon="7.32421">
        <ele>610.8</ele>
        <time>2024-07-09T10:22:36Z</time>
      </trkpt>
      <trkpt lat="43.98897" lon="7.32403">
        <ele>609.8</ele>
        <time>2024-07-09T10:22:37Z</time>
      </trkpt>
      <trkpt lat="43.98894" lon="7.32397">
        <ele>608.4</ele>
        <time>2024-07-09T10:22:38Z</time>
      </trkpt>
      <trkpt lat="43.9889" lon="7.32386">
        <ele>608.4</ele>
        <time>2024-07-09T10:22:39Z</time>
      </trkpt>
      <trkpt lat="43.98884" lon="7.32377">
        <ele>608.4</ele>
        <time>2024-07-09T10:22:40Z</time>
      </trkpt>
      <trkpt lat="43.98872" lon="7.32368">
        <ele>607.4</ele>
        <time>2024-07-09T10:22:41Z</time>
      </trkpt>
      <trkpt lat="43.98868" lon="7.32367">
        <ele>607.4</ele>
        <time>2024-07-09T10:22:42Z</time>
      </trkpt>
      <trkpt lat="43.98855" lon="7.32363">
        <ele>606.6</ele>
        <time>2024-07-09T10:22:43Z</time>
      </trkpt>
      <trkpt lat="43.98851" lon="7.32363">
        <ele>606.6</ele>
        <time>2024-07-09T10:22:44Z</time>
      </trkpt>
      <trkpt lat="43.98842" lon="7.32366">
        <ele>605.6</ele>
        <time>2024-07-09T10:22:45Z</time>
      </trkpt>
      <trkpt lat="43.98834" lon="7.32371">
        <ele>605.6</ele>
        <time>2024-07-09T10:22:46Z</time>
      </trkpt>
      <trkpt lat="43.98827" lon="7.32379">
        <ele>604.6</ele>
        <time>2024-07-09T10:22:47Z</time>
      </trkpt>
      <trkpt lat="43.98821" lon="7.32388">
        <ele>604.6</ele>
        <time>2024-07-09T10:22:48Z</time>
      </trkpt>
      <trkpt lat="43.98811" lon="7.32402">
        <ele>604.6</ele>
        <time>2024-07-09T10:22:49Z</time>
      </trkpt>
      <trkpt lat="43.98808" lon="7.32407">
        <ele>604.6</ele>
        <time>2024-07-09T10:22:50Z</time>
      </trkpt>
      <trkpt lat="43.98798" lon="7.3242">
        <ele>603.6</ele>
        <time>2024-07-09T10:22:51Z</time>
      </trkpt>
      <trkpt lat="43.98794" lon="7.32424">
        <ele>601.4</ele>
        <time>2024-07-09T10:22:52Z</time>
      </trkpt>
      <trkpt lat="43.98785" lon="7.32429">
        <ele>601.4</ele>
        <time>2024-07-09T10:22:53Z</time>
      </trkpt>
      <trkpt lat="43.98777" lon="7.32433">
        <ele>601.4</ele>
        <time>2024-07-09T10:22:54Z</time>
      </trkpt>
      <trkpt lat="43.98768" lon="7.32436">
        <ele>600.4</ele>
        <time>2024-07-09T10:22:55Z</time>
      </trkpt>
      <trkpt lat="43.98758" lon="7.32437">
        <ele>599.8</ele>
        <time>2024-07-09T10:22:56Z</time>
      </trkpt>
      <trkpt lat="43.98749" lon="7.32438">
        <ele>599.8</ele>
        <time>2024-07-09T10:22:57Z</time>
      </trkpt>
      <trkpt lat="43.9874" lon="7.32438">
        <ele>599.8</ele>
        <time>2024-07-09T10:22:58Z</time>
      </trkpt>
      <trkpt lat="43.98731" lon="7.32436">
        <ele>598.8</ele>
        <time>2024-07-09T10:22:59Z</time>
      </trkpt>
      <trkpt lat="43.98725" lon="7.32429">
        <ele>598.8</ele>
        <time>2024-07-09T10:23:00Z</time>
      </trkpt>
      <trkpt lat="43.98721" lon="7.32418">
        <ele>597.2</ele>
        <time>2024-07-09T10:23:01Z</time>
      </trkpt>
      <trkpt lat="43.98722" lon="7.32407">
        <ele>597.2</ele>
        <time>2024-07-09T10:23:02Z</time>
      </trkpt>
      <trkpt lat="43.98725" lon="7.32398">
        <ele>597.2</ele>
        <time>2024-07-09T10:23:03Z</time>
      </trkpt>
      <trkpt lat="43.98732" lon="7.32391">
        <ele>596.2</ele>
        <time>2024-07-09T10:23:04Z</time>
      </trkpt>
      <trkpt lat="43.98739" lon="7.32385">
        <ele>595.8</ele>
        <time>2024-07-09T10:23:05Z</time>
      </trkpt>
      <trkpt lat="43.98747" lon="7.32381">
        <ele>595.8</ele>
        <time>2024-07-09T10:23:06Z</time>
      </trkpt>
      <trkpt lat="43.98755" lon="7.32377">
        <ele>595.8</ele>
        <time>2024-07-09T10:23:07Z</time>
      </trkpt>
      <trkpt lat="43.98763" lon="7.32372">
        <ele>594.8</ele>
        <time>2024-07-09T10:23:08Z</time>
      </trkpt>
      <trkpt lat="43.98775" lon="7.32365">
        <ele>594.8</ele>
        <time>2024-07-09T10:23:09Z</time>
      </trkpt>
      <trkpt lat="43.98779" lon="7.32362">
        <ele>593.4</ele>
        <time>2024-07-09T10:23:10Z</time>
      </trkpt>
      <trkpt lat="43.98787" lon="7.32358">
        <ele>593.4</ele>
        <time>2024-07-09T10:23:11Z</time>
      </trkpt>
      <trkpt lat="43.98799" lon="7.3235">
        <ele>593.4</ele>
        <time>2024-07-09T10:23:12Z</time>
      </trkpt>
      <trkpt lat="43.98803" lon="7.32347">
        <ele>592.4</ele>
        <time>2024-07-09T10:23:13Z</time>
      </trkpt>
      <trkpt lat="43.98814" lon="7.32337">
        <ele>590.8</ele>
        <time>2024-07-09T10:23:14Z</time>
      </trkpt>
      <trkpt lat="43.98818" lon="7.32333">
        <ele>590.8</ele>
        <time>2024-07-09T10:23:15Z</time>
      </trkpt>
      <trkpt lat="43.98824" lon="7.32323">
        <ele>590.8</ele>
        <time>2024-07-09T10:23:16Z</time>
      </trkpt>
      <trkpt lat="43.9883" lon="7.32314">
        <ele>589.8</ele>
        <time>2024-07-09T10:23:17Z</time>
      </trkpt>
      <trkpt lat="43.98837" lon="7.32296">
        <ele>588.8</ele>
        <time>2024-07-09T10:23:18Z</time>
      </trkpt>
      <trkpt lat="43.98839" lon="7.3229">
        <ele>588.8</ele>
        <time>2024-07-09T10:23:19Z</time>
      </trkpt>
      <trkpt lat="43.98845" lon="7.32272">
        <ele>588.8</ele>
        <time>2024-07-09T10:23:20Z</time>
      </trkpt>
      <trkpt lat="43.98847" lon="7.32266">
        <ele>588.8</ele>
        <time>2024-07-09T10:23:21Z</time>
      </trkpt>
      <trkpt lat="43.98854" lon="7.32251">
        <ele>587.8</ele>
        <time>2024-07-09T10:23:22Z</time>
      </trkpt>
      <trkpt lat="43.98857" lon="7.32248">
        <ele>585.6</ele>
        <time>2024-07-09T10:23:23Z</time>
      </trkpt>
      <trkpt lat="43.98869" lon="7.3224">
        <ele>585.6</ele>
        <time>2024-07-09T10:23:24Z</time>
      </trkpt>
      <trkpt lat="43.98873" lon="7.3224">
        <ele>585.6</ele>
        <time>2024-07-09T10:23:25Z</time>
      </trkpt>
      <trkpt lat="43.98886" lon="7.32241">
        <ele>584.6</ele>
        <time>2024-07-09T10:23:26Z</time>
      </trkpt>
      <trkpt lat="43.9889" lon="7.32243">
        <ele>582.4</ele>
        <time>2024-07-09T10:23:27Z</time>
      </trkpt>
      <trkpt lat="43.98898" lon="7.32249">
        <ele>582.4</ele>
        <time>2024-07-09T10:23:28Z</time>
      </trkpt>
      <trkpt lat="43.98906" lon="7.32257">
        <ele>582.4</ele>
        <time>2024-07-09T10:23:29Z</time>
      </trkpt>
      <trkpt lat="43.98913" lon="7.32265">
        <ele>581.4</ele>
        <time>2024-07-09T10:23:30Z</time>
      </trkpt>
      <trkpt lat="43.98921" lon="7.32274">
        <ele>581.4</ele>
        <time>2024-07-09T10:23:31Z</time>
      </trkpt>
      <trkpt lat="43.98933" lon="7.32288">
        <ele>579.8</ele>
        <time>2024-07-09T10:23:32Z</time>
      </trkpt>
      <trkpt lat="43.98937" lon="7.32293">
        <ele>579.8</ele>
        <time>2024-07-09T10:23:33Z</time>
      </trkpt>
      <trkpt lat="43.98949" lon="7.32307">
        <ele>579.8</ele>
        <time>2024-07-09T10:23:34Z</time>
      </trkpt>
      <trkpt lat="43.98953" lon="7.32312">
        <ele>578.8</ele>
        <time>2024-07-09T10:23:35Z</time>
      </trkpt>
      <trkpt lat="43.98964" lon="7.32328">
        <ele>578.8</ele>
        <time>2024-07-09T10:23:36Z</time>
      </trkpt>
      <trkpt lat="43.98968" lon="7.32333">
        <ele>576.8</ele>
        <time>2024-07-09T10:23:37Z</time>
      </trkpt>
      <trkpt lat="43.98975" lon="7.32344">
        <ele>576.8</ele>
        <time>2024-07-09T10:23:38Z</time>
      </trkpt>
      <trkpt lat="43.98978" lon="7.32358">
        <ele>576.8</ele>
        <time>2024-07-09T10:23:39Z</time>
      </trkpt>
      <trkpt lat="43.98979" lon="7.32372">
        <ele>575.8</ele>
        <time>2024-07-09T10:23:40Z</time>
      </trkpt>
      <trkpt lat="43.9898" lon="7.32385">
        <ele>573.4</ele>
        <time>2024-07-09T10:23:41Z</time>
      </trkpt>
      <trkpt lat="43.98982" lon="7.32398">
        <ele>573.4</ele>
        <time>2024-07-09T10:23:42Z</time>
      </trkpt>
      <trkpt lat="43.98987" lon="7.32409">
        <ele>573.4</ele>
        <time>2024-07-09T10:23:43Z</time>
      </trkpt>
      <trkpt lat="43.98994" lon="7.32414">
        <ele>573.4</ele>
        <time>2024-07-09T10:23:44Z</time>
      </trkpt>
      <trkpt lat="43.99001" lon="7.32416">
        <ele>572.4</ele>
        <time>2024-07-09T10:23:45Z</time>
      </trkpt>
      <trkpt lat="43.99016" lon="7.3242">
        <ele>569.8</ele>
        <time>2024-07-09T10:23:46Z</time>
      </trkpt>
      <trkpt lat="43.9902" lon="7.32422">
        <ele>569.8</ele>
        <time>2024-07-09T10:23:47Z</time>
      </trkpt>
      <trkpt lat="43.9903" lon="7.32427">
        <ele>569.8</ele>
        <time>2024-07-09T10:23:48Z</time>
      </trkpt>
      <trkpt lat="43.99037" lon="7.32438">
        <ele>568.8</ele>
        <time>2024-07-09T10:23:49Z</time>
      </trkpt>
      <trkpt lat="43.99047" lon="7.32455">
        <ele>565.8</ele>
        <time>2024-07-09T10:23:50Z</time>
      </trkpt>
      <trkpt lat="43.9905" lon="7.32461">
        <ele>565.8</ele>
        <time>2024-07-09T10:23:51Z</time>
      </trkpt>
      <trkpt lat="43.99056" lon="7.32479">
        <ele>565.8</ele>
        <time>2024-07-09T10:23:52Z</time>
      </trkpt>
      <trkpt lat="43.99058" lon="7.32485">
        <ele>564.8</ele>
        <time>2024-07-09T10:23:53Z</time>
      </trkpt>
      <trkpt lat="43.99063" lon="7.32496">
        <ele>562</ele>
        <time>2024-07-09T10:23:54Z</time>
      </trkpt>
      <trkpt lat="43.9907" lon="7.32502">
        <ele>562</ele>
        <time>2024-07-09T10:23:55Z</time>
      </trkpt>
      <trkpt lat="43.99078" lon="7.32506">
        <ele>562</ele>
        <time>2024-07-09T10:23:56Z</time>
      </trkpt>
      <trkpt lat="43.9909" lon="7.32513">
        <ele>562</ele>
        <time>2024-07-09T10:23:57Z</time>
      </trkpt>
      <trkpt lat="43.99094" lon="7.32516">
        <ele>561</ele>
        <time>2024-07-09T10:23:58Z</time>
      </trkpt>
      <trkpt lat="43.99104" lon="7.32529">
        <ele>557.8</ele>
        <time>2024-07-09T10:23:59Z</time>
      </trkpt>
      <trkpt lat="43.99108" lon="7.32534">
        <ele>557.8</ele>
        <time>2024-07-09T10:24:00Z</time>
      </trkpt>
      <trkpt lat="43.99116" lon="7.32551">
        <ele>557.8</ele>
        <time>2024-07-09T10:24:01Z</time>
      </trkpt>
      <trkpt lat="43.99118" lon="7.32557">
        <ele>556.8</ele>
        <time>2024-07-09T10:24:02Z</time>
      </trkpt>
      <trkpt lat="43.99123" lon="7.32572">
        <ele>553.8</ele>
        <time>2024-07-09T10:24:03Z</time>
      </trkpt>
      <trkpt lat="43.99124" lon="7.32576">
        <ele>553.8</ele>
        <time>2024-07-09T10:24:04Z</time>
      </trkpt>
      <trkpt lat="43.99128" lon="7.32585">
        <ele>553.8</ele>
        <time>2024-07-09T10:24:05Z</time>
      </trkpt>
      <trkpt lat="43.9913" lon="7.32584">
        <ele>553.8</ele>
        <time>2024-07-09T10:24:06Z</time>
      </trkpt>
      <trkpt lat="43.99135" lon="7.3258">
        <ele>552.8</ele>
        <time>2024-07-09T10:24:07Z</time>
      </trkpt>
      <trkpt lat="43.99134" lon="7.32576">
        <ele>551.2</ele>
        <time>2024-07-09T10:24:08Z</time>
      </trkpt>
      <trkpt lat="43.99133" lon="7.32566">
        <ele>551.2</ele>
        <time>2024-07-09T10:24:09Z</time>
      </trkpt>
      <trkpt lat="43.99132" lon="7.32562">
        <ele>551.2</ele>
        <time>2024-07-09T10:24:10Z</time>
      </trkpt>
      <trkpt lat="43.99129" lon="7.32551">
        <ele>550.2</ele>
        <time>2024-07-09T10:24:11Z</time>
      </trkpt>
      <trkpt lat="43.99128" lon="7.32548">
        <ele>550.2</ele>
        <time>2024-07-09T10:24:12Z</time>
      </trkpt>
      <trkpt lat="43.99125" lon="7.3254">
        <ele>549</ele>
        <time>2024-07-09T10:24:13Z</time>
      </trkpt>
      <trkpt lat="43.99123" lon="7.32532">
        <ele>549</ele>
        <time>2024-07-09T10:24:14Z</time>
      </trkpt>
      <trkpt lat="43.99121" lon="7.32524">
        <ele>548</ele>
        <time>2024-07-09T10:24:15Z</time>
      </trkpt>
      <trkpt lat="43.99119" lon="7.32516">
        <ele>548</ele>
        <time>2024-07-09T10:24:16Z</time>
      </trkpt>
      <trkpt lat="43.99113" lon="7.32502">
        <ele>548</ele>
        <time>2024-07-09T10:24:17Z</time>
      </trkpt>
      <trkpt lat="43.99111" lon="7.32497">
        <ele>547</ele>
        <time>2024-07-09T10:24:18Z</time>
      </trkpt>
      <trkpt lat="43.99107" lon="7.32488">
        <ele>547</ele>
        <time>2024-07-09T10:24:19Z</time>
      </trkpt>
      <trkpt lat="43.99097" lon="7.32476">
        <ele>547</ele>
        <time>2024-07-09T10:24:20Z</time>
      </trkpt>
      <trkpt lat="43.99094" lon="7.32472">
        <ele>546</ele>
        <time>2024-07-09T10:24:21Z</time>
      </trkpt>
      <trkpt lat="43.99089" lon="7.32461">
        <ele>544.4</ele>
        <time>2024-07-09T10:24:22Z</time>
      </trkpt>
      <trkpt lat="43.99085" lon="7.32449">
        <ele>544.4</ele>
        <time>2024-07-09T10:24:23Z</time>
      </trkpt>
      <trkpt lat="43.99082" lon="7.32436">
        <ele>544.4</ele>
        <time>2024-07-09T10:24:24Z</time>
      </trkpt>
      <trkpt lat="43.99077" lon="7.32423">
        <ele>543.4</ele>
        <time>2024-07-09T10:24:25Z</time>
      </trkpt>
      <trkpt lat="43.99072" lon="7.3241">
        <ele>543.4</ele>
        <time>2024-07-09T10:24:26Z</time>
      </trkpt>
      <trkpt lat="43.99065" lon="7.32398">
        <ele>541</ele>
        <time>2024-07-09T10:24:27Z</time>
      </trkpt>
      <trkpt lat="43.99058" lon="7.32386">
        <ele>541</ele>
        <time>2024-07-09T10:24:28Z</time>
      </trkpt>
      <trkpt lat="43.99051" lon="7.32374">
        <ele>541</ele>
        <time>2024-07-09T10:24:29Z</time>
      </trkpt>
      <trkpt lat="43.99044" lon="7.32361">
        <ele>540</ele>
        <time>2024-07-09T10:24:30Z</time>
      </trkpt>
      <trkpt lat="43.99039" lon="7.32348">
        <ele>537.2</ele>
        <time>2024-07-09T10:24:31Z</time>
      </trkpt>
      <trkpt lat="43.99036" lon="7.32333">
        <ele>537.2</ele>
        <time>2024-07-09T10:24:32Z</time>
      </trkpt>
      <trkpt lat="43.99031" lon="7.32312">
        <ele>537.2</ele>
        <time>2024-07-09T10:24:33Z</time>
      </trkpt>
      <trkpt lat="43.9903" lon="7.32305">
        <ele>536.2</ele>
        <time>2024-07-09T10:24:34Z</time>
      </trkpt>
      <trkpt lat="43.99026" lon="7.32284">
        <ele>533</ele>
        <time>2024-07-09T10:24:35Z</time>
      </trkpt>
      <trkpt lat="43.99025" lon="7.32278">
        <ele>533</ele>
        <time>2024-07-09T10:24:36Z</time>
      </trkpt>
      <trkpt lat="43.99022" lon="7.32264">
        <ele>533</ele>
        <time>2024-07-09T10:24:37Z</time>
      </trkpt>
      <trkpt lat="43.99018" lon="7.32252">
        <ele>533</ele>
        <time>2024-07-09T10:24:38Z</time>
      </trkpt>
      <trkpt lat="43.99014" lon="7.32242">
        <ele>528.8</ele>
        <time>2024-07-09T10:24:39Z</time>
      </trkpt>
      <trkpt lat="43.99012" lon="7.32233">
        <ele>528.8</ele>
        <time>2024-07-09T10:24:40Z</time>
      </trkpt>
      <trkpt lat="43.99012" lon="7.32226">
        <ele>528.8</ele>
        <time>2024-07-09T10:24:41Z</time>
      </trkpt>
      <trkpt lat="43.99014" lon="7.32222">
        <ele>528.8</ele>
        <time>2024-07-09T10:24:42Z</time>
      </trkpt>
      <trkpt lat="43.9902" lon="7.32226">
        <ele>527.8</ele>
        <time>2024-07-09T10:24:43Z</time>
      </trkpt>
      <trkpt lat="43.99021" lon="7.32228">
        <ele>527.8</ele>
        <time>2024-07-09T10:24:44Z</time>
      </trkpt>
      <trkpt lat="43.99023" lon="7.32235">
        <ele>525.4</ele>
        <time>2024-07-09T10:24:45Z</time>
      </trkpt>
      <trkpt lat="43.99026" lon="7.32247">
        <ele>525.4</ele>
        <time>2024-07-09T10:24:46Z</time>
      </trkpt>
      <trkpt lat="43.99027" lon="7.32251">
        <ele>524.4</ele>
        <time>2024-07-09T10:24:47Z</time>
      </trkpt>
      <trkpt lat="43.99031" lon="7.32264">
        <ele>523</ele>
        <time>2024-07-09T10:24:48Z</time>
      </trkpt>
      <trkpt lat="43.99032" lon="7.32268">
        <ele>523</ele>
        <time>2024-07-09T10:24:49Z</time>
      </trkpt>
      <trkpt lat="43.99036" lon="7.32283">
        <ele>523</ele>
        <time>2024-07-09T10:24:50Z</time>
      </trkpt>
      <trkpt lat="43.99038" lon="7.32288">
        <ele>523</ele>
        <time>2024-07-09T10:24:51Z</time>
      </trkpt>
      <trkpt lat="43.99045" lon="7.32303">
        <ele>522</ele>
        <time>2024-07-09T10:24:52Z</time>
      </trkpt>
      <trkpt lat="43.99048" lon="7.32307">
        <ele>520</ele>
        <time>2024-07-09T10:24:53Z</time>
      </trkpt>
      <trkpt lat="43.99056" lon="7.32321">
        <ele>520</ele>
        <time>2024-07-09T10:24:54Z</time>
      </trkpt>
      <trkpt lat="43.99059" lon="7.32326">
        <ele>520</ele>
        <time>2024-07-09T10:24:55Z</time>
      </trkpt>
      <trkpt lat="43.99066" lon="7.32341">
        <ele>519</ele>
        <time>2024-07-09T10:24:56Z</time>
      </trkpt>
      <trkpt lat="43.99067" lon="7.32347">
        <ele>517.2</ele>
        <time>2024-07-09T10:24:57Z</time>
      </trkpt>
      <trkpt lat="43.9907" lon="7.32362">
        <ele>517.2</ele>
        <time>2024-07-09T10:24:58Z</time>
      </trkpt>
      <trkpt lat="43.99071" lon="7.32366">
        <ele>517.2</ele>
        <time>2024-07-09T10:24:59Z</time>
      </trkpt>
      <trkpt lat="43.99074" lon="7.32373">
        <ele>517.2</ele>
        <time>2024-07-09T10:25:00Z</time>
      </trkpt>
      <trkpt lat="43.99079" lon="7.32372">
        <ele>517.2</ele>
        <time>2024-07-09T10:25:01Z</time>
      </trkpt>
      <trkpt lat="43.99081" lon="7.32368">
        <ele>516.2</ele>
        <time>2024-07-09T10:25:02Z</time>
      </trkpt>
      <trkpt lat="43.99082" lon="7.32361">
        <ele>515</ele>
        <time>2024-07-09T10:25:03Z</time>
      </trkpt>
      <trkpt lat="43.99081" lon="7.32352">
        <ele>515</ele>
        <time>2024-07-09T10:25:04Z</time>
      </trkpt>
      <trkpt lat="43.99081" lon="7.3234">
        <ele>515</ele>
        <time>2024-07-09T10:25:05Z</time>
      </trkpt>
      <trkpt lat="43.99081" lon="7.32335">
        <ele>514</ele>
        <time>2024-07-09T10:25:06Z</time>
      </trkpt>
      <trkpt lat="43.99081" lon="7.32325">
        <ele>512.4</ele>
        <time>2024-07-09T10:25:07Z</time>
      </trkpt>
      <trkpt lat="43.9908" lon="7.32314">
        <ele>512.4</ele>
        <time>2024-07-09T10:25:08Z</time>
      </trkpt>
      <trkpt lat="43.99078" lon="7.32303">
        <ele>512.4</ele>
        <time>2024-07-09T10:25:09Z</time>
      </trkpt>
      <trkpt lat="43.99075" lon="7.32294">
        <ele>512.4</ele>
        <time>2024-07-09T10:25:10Z</time>
      </trkpt>
      <trkpt lat="43.99071" lon="7.32284">
        <ele>512.4</ele>
        <time>2024-07-09T10:25:11Z</time>
      </trkpt>
      <trkpt lat="43.99066" lon="7.32274">
        <ele>510</ele>
        <time>2024-07-09T10:25:12Z</time>
      </trkpt>
      <trkpt lat="43.99061" lon="7.32262">
        <ele>510</ele>
        <time>2024-07-09T10:25:13Z</time>
      </trkpt>
      <trkpt lat="43.9906" lon="7.32258">
        <ele>510</ele>
        <time>2024-07-09T10:25:14Z</time>
      </trkpt>
      <trkpt lat="43.99056" lon="7.32246">
        <ele>509</ele>
        <time>2024-07-09T10:25:15Z</time>
      </trkpt>
      <trkpt lat="43.99055" lon="7.32242">
        <ele>506.8</ele>
        <time>2024-07-09T10:25:16Z</time>
      </trkpt>
      <trkpt lat="43.99051" lon="7.32231">
        <ele>506.8</ele>
        <time>2024-07-09T10:25:17Z</time>
      </trkpt>
      <trkpt lat="43.9905" lon="7.32228">
        <ele>506.8</ele>
        <time>2024-07-09T10:25:18Z</time>
      </trkpt>
      <trkpt lat="43.99048" lon="7.32221">
        <ele>506</ele>
        <time>2024-07-09T10:25:19Z</time>
      </trkpt>
      <trkpt lat="43.99046" lon="7.32214">
        <ele>506.2</ele>
        <time>2024-07-09T10:25:20Z</time>
      </trkpt>
      <trkpt lat="43.99045" lon="7.32206">
        <ele>506.2</ele>
        <time>2024-07-09T10:25:21Z</time>
      </trkpt>
      <trkpt lat="43.99041" lon="7.32196">
        <ele>506.2</ele>
        <time>2024-07-09T10:25:22Z</time>
      </trkpt>
      <trkpt lat="43.9904" lon="7.32192">
        <ele>505.6</ele>
        <time>2024-07-09T10:25:23Z</time>
      </trkpt>
      <trkpt lat="43.99037" lon="7.32182">
        <ele>505.6</ele>
        <time>2024-07-09T10:25:24Z</time>
      </trkpt>
      <trkpt lat="43.99036" lon="7.32178">
        <ele>505.6</ele>
        <time>2024-07-09T10:25:25Z</time>
      </trkpt>
      <trkpt lat="43.99033" lon="7.32168">
        <ele>505.6</ele>
        <time>2024-07-09T10:25:26Z</time>
      </trkpt>
      <trkpt lat="43.99031" lon="7.32165">
        <ele>505.6</ele>
        <time>2024-07-09T10:25:27Z</time>
      </trkpt>
      <trkpt lat="43.99027" lon="7.32156">
        <ele>505</ele>
        <time>2024-07-09T10:25:28Z</time>
      </trkpt>
      <trkpt lat="43.99026" lon="7.32152">
        <ele>505</ele>
        <time>2024-07-09T10:25:29Z</time>
      </trkpt>
      <trkpt lat="43.99021" lon="7.32143">
        <ele>505</ele>
        <time>2024-07-09T10:25:30Z</time>
      </trkpt>
      <trkpt lat="43.99019" lon="7.3214">
        <ele>505</ele>
        <time>2024-07-09T10:25:31Z</time>
      </trkpt>
      <trkpt lat="43.99013" lon="7.32132">
        <ele>504.6</ele>
        <time>2024-07-09T10:25:32Z</time>
      </trkpt>
      <trkpt lat="43.99011" lon="7.3213">
        <ele>504.4</ele>
        <time>2024-07-09T10:25:33Z</time>
      </trkpt>
      <trkpt lat="43.99004" lon="7.32124">
        <ele>504.4</ele>
        <time>2024-07-09T10:25:34Z</time>
      </trkpt>
      <trkpt lat="43.99002" lon="7.32121">
        <ele>504.4</ele>
        <time>2024-07-09T10:25:35Z</time>
      </trkpt>
      <trkpt lat="43.98997" lon="7.32113">
        <ele>504.4</ele>
        <time>2024-07-09T10:25:36Z</time>
      </trkpt>
      <trkpt lat="43.98997" lon="7.3211">
        <ele>503.8</ele>
        <time>2024-07-09T10:25:37Z</time>
      </trkpt>
      <trkpt lat="43.98997" lon="7.32101">
        <ele>503.6</ele>
        <time>2024-07-09T10:25:38Z</time>
      </trkpt>
      <trkpt lat="43.98998" lon="7.32098">
        <ele>503.6</ele>
        <time>2024-07-09T10:25:39Z</time>
      </trkpt>
      <trkpt lat="43.99003" lon="7.32095">
        <ele>503.6</ele>
        <time>2024-07-09T10:25:40Z</time>
      </trkpt>
      <trkpt lat="43.99005" lon="7.32094">
        <ele>503.8</ele>
        <time>2024-07-09T10:25:41Z</time>
      </trkpt>
      <trkpt lat="43.99008" lon="7.32093">
        <ele>503.8</ele>
        <time>2024-07-09T10:25:42Z</time>
      </trkpt>
      <trkpt lat="43.99012" lon="7.32093">
        <ele>503.8</ele>
        <time>2024-07-09T10:25:43Z</time>
      </trkpt>
      <trkpt lat="43.99015" lon="7.32093">
        <ele>503.8</ele>
        <time>2024-07-09T10:25:44Z</time>
      </trkpt>
      <trkpt lat="43.99018" lon="7.32092">
        <ele>503.8</ele>
        <time>2024-07-09T10:25:45Z</time>
      </trkpt>
      <trkpt lat="43.99021" lon="7.32092">
        <ele>503.8</ele>
        <time>2024-07-09T10:25:46Z</time>
      </trkpt>
      <trkpt lat="43.99024" lon="7.32091">
        <ele>504</ele>
        <time>2024-07-09T10:25:47Z</time>
      </trkpt>
      <trkpt lat="43.99027" lon="7.3209">
        <ele>504</ele>
        <time>2024-07-09T10:25:48Z</time>
      </trkpt>
      <trkpt lat="43.99029" lon="7.32089">
        <ele>504</ele>
        <time>2024-07-09T10:25:49Z</time>
      </trkpt>
      <trkpt lat="43.99032" lon="7.32089">
        <ele>504</ele>
        <time>2024-07-09T10:25:50Z</time>
      </trkpt>
      <trkpt lat="43.99034" lon="7.32088">
        <ele>504.4</ele>
        <time>2024-07-09T10:25:51Z</time>
      </trkpt>
      <trkpt lat="43.99036" lon="7.32088">
        <ele>504.4</ele>
        <time>2024-07-09T10:25:52Z</time>
      </trkpt>
      <trkpt lat="43.9904" lon="7.32087">
        <ele>504.4</ele>
        <time>2024-07-09T10:25:53Z</time>
      </trkpt>
      <trkpt lat="43.99041" lon="7.32087">
        <ele>504.4</ele>
        <time>2024-07-09T10:25:54Z</time>
      </trkpt>
      <trkpt lat="43.99044" lon="7.32086">
        <ele>504.8</ele>
        <time>2024-07-09T10:25:55Z</time>
      </trkpt>
      <trkpt lat="43.99046" lon="7.32085">
        <ele>505</ele>
        <time>2024-07-09T10:25:56Z</time>
      </trkpt>
      <trkpt lat="43.99048" lon="7.32084">
        <ele>505</ele>
        <time>2024-07-09T10:25:57Z</time>
      </trkpt>
      <trkpt lat="43.99051" lon="7.32083">
        <ele>505</ele>
        <time>2024-07-09T10:25:58Z</time>
      </trkpt>
      <trkpt lat="43.99054" lon="7.32083">
        <ele>505.6</ele>
        <time>2024-07-09T10:25:59Z</time>
      </trkpt>
      <trkpt lat="43.99056" lon="7.32082">
        <ele>505.8</ele>
        <time>2024-07-09T10:26:00Z</time>
      </trkpt>
      <trkpt lat="43.99058" lon="7.32081">
        <ele>505.8</ele>
        <time>2024-07-09T10:26:01Z</time>
      </trkpt>
      <trkpt lat="43.99061" lon="7.3208">
        <ele>505.8</ele>
        <time>2024-07-09T10:26:02Z</time>
      </trkpt>
      <trkpt lat="43.99065" lon="7.32078">
        <ele>505.8</ele>
        <time>2024-07-09T10:26:03Z</time>
      </trkpt>
      <trkpt lat="43.99066" lon="7.32077">
        <ele>505.8</ele>
        <time>2024-07-09T10:26:04Z</time>
      </trkpt>
      <trkpt lat="43.99069" lon="7.32075">
        <ele>506.2</ele>
        <time>2024-07-09T10:26:05Z</time>
      </trkpt>
      <trkpt lat="43.99071" lon="7.32075">
        <ele>506.2</ele>
        <time>2024-07-09T10:26:06Z</time>
      </trkpt>
      <trkpt lat="43.99074" lon="7.32073">
        <ele>506.2</ele>
        <time>2024-07-09T10:26:07Z</time>
      </trkpt>
      <trkpt lat="43.99076" lon="7.32072">
        <ele>506.8</ele>
        <time>2024-07-09T10:26:08Z</time>
      </trkpt>
      <trkpt lat="43.99079" lon="7.3207">
        <ele>506.8</ele>
        <time>2024-07-09T10:26:09Z</time>
      </trkpt>
      <trkpt lat="43.9908" lon="7.32069">
        <ele>506.8</ele>
        <time>2024-07-09T10:26:10Z</time>
      </trkpt>
      <trkpt lat="43.99083" lon="7.32067">
        <ele>506.8</ele>
        <time>2024-07-09T10:26:11Z</time>
      </trkpt>
      <trkpt lat="43.99087" lon="7.32065">
        <ele>507.4</ele>
        <time>2024-07-09T10:26:12Z</time>
      </trkpt>
      <trkpt lat="43.99088" lon="7.32064">
        <ele>507.4</ele>
        <time>2024-07-09T10:26:13Z</time>
      </trkpt>
      <trkpt lat="43.99092" lon="7.32061">
        <ele>507.4</ele>
        <time>2024-07-09T10:26:14Z</time>
      </trkpt>
      <trkpt lat="43.99094" lon="7.3206">
        <ele>507.4</ele>
        <time>2024-07-09T10:26:15Z</time>
      </trkpt>
      <trkpt lat="43.99098" lon="7.32057">
        <ele>507.4</ele>
        <time>2024-07-09T10:26:16Z</time>
      </trkpt>
      <trkpt lat="43.99099" lon="7.32056">
        <ele>507.6</ele>
        <time>2024-07-09T10:26:17Z</time>
      </trkpt>
      <trkpt lat="43.99102" lon="7.32054">
        <ele>507.6</ele>
        <time>2024-07-09T10:26:18Z</time>
      </trkpt>
      <trkpt lat="43.99104" lon="7.32052">
        <ele>507.6</ele>
        <time>2024-07-09T10:26:19Z</time>
      </trkpt>
      <trkpt lat="43.99107" lon="7.32051">
        <ele>507.6</ele>
        <time>2024-07-09T10:26:20Z</time>
      </trkpt>
      <trkpt lat="43.99109" lon="7.32049">
        <ele>507.6</ele>
        <time>2024-07-09T10:26:21Z</time>
      </trkpt>
      <trkpt lat="43.99112" lon="7.32047">
        <ele>508</ele>
        <time>2024-07-09T10:26:22Z</time>
      </trkpt>
      <trkpt lat="43.99115" lon="7.32045">
        <ele>508</ele>
        <time>2024-07-09T10:26:23Z</time>
      </trkpt>
      <trkpt lat="43.99119" lon="7.32042">
        <ele>508</ele>
        <time>2024-07-09T10:26:24Z</time>
      </trkpt>
      <trkpt lat="43.9912" lon="7.32041">
        <ele>508</ele>
        <time>2024-07-09T10:26:25Z</time>
      </trkpt>
      <trkpt lat="43.99124" lon="7.32038">
        <ele>508</ele>
        <time>2024-07-09T10:26:26Z</time>
      </trkpt>
      <trkpt lat="43.99125" lon="7.32037">
        <ele>508.2</ele>
        <time>2024-07-09T10:26:27Z</time>
      </trkpt>
      <trkpt lat="43.99128" lon="7.32035">
        <ele>508.6</ele>
        <time>2024-07-09T10:26:28Z</time>
      </trkpt>
      <trkpt lat="43.99131" lon="7.32033">
        <ele>508.6</ele>
        <time>2024-07-09T10:26:29Z</time>
      </trkpt>
      <trkpt lat="43.99134" lon="7.32031">
        <ele>508.6</ele>
        <time>2024-07-09T10:26:30Z</time>
      </trkpt>
      <trkpt lat="43.99136" lon="7.32029">
        <ele>508.6</ele>
        <time>2024-07-09T10:26:31Z</time>
      </trkpt>
      <trkpt lat="43.99139" lon="7.32027">
        <ele>508.8</ele>
        <time>2024-07-09T10:26:32Z</time>
      </trkpt>
      <trkpt lat="43.99142" lon="7.32026">
        <ele>508.8</ele>
        <time>2024-07-09T10:26:33Z</time>
      </trkpt>
      <trkpt lat="43.99145" lon="7.32024">
        <ele>508.8</ele>
        <time>2024-07-09T10:26:34Z</time>
      </trkpt>
      <trkpt lat="43.99148" lon="7.32023">
        <ele>508.8</ele>
        <time>2024-07-09T10:26:35Z</time>
      </trkpt>
      <trkpt lat="43.99151" lon="7.32021">
        <ele>509</ele>
        <time>2024-07-09T10:26:36Z</time>
      </trkpt>
      <trkpt lat="43.99154" lon="7.32019">
        <ele>509</ele>
        <time>2024-07-09T10:26:37Z</time>
      </trkpt>
      <trkpt lat="43.99157" lon="7.32016">
        <ele>509</ele>
        <time>2024-07-09T10:26:38Z</time>
      </trkpt>
      <trkpt lat="43.9916" lon="7.32015">
        <ele>509</ele>
        <time>2024-07-09T10:26:39Z</time>
      </trkpt>
      <trkpt lat="43.99163" lon="7.32013">
        <ele>509</ele>
        <time>2024-07-09T10:26:40Z</time>
      </trkpt>
      <trkpt lat="43.99166" lon="7.32011">
        <ele>509.2</ele>
        <time>2024-07-09T10:26:41Z</time>
      </trkpt>
      <trkpt lat="43.99172" lon="7.32008">
        <ele>509.2</ele>
        <time>2024-07-09T10:26:42Z</time>
      </trkpt>
      <trkpt lat="43.99173" lon="7.32007">
        <ele>509.2</ele>
        <time>2024-07-09T10:26:43Z</time>
      </trkpt>
      <trkpt lat="43.99177" lon="7.32006">
        <ele>509.2</ele>
        <time>2024-07-09T10:26:44Z</time>
      </trkpt>
      <trkpt lat="43.9918" lon="7.32004">
        <ele>509</ele>
        <time>2024-07-09T10:26:45Z</time>
      </trkpt>
      <trkpt lat="43.99183" lon="7.32002">
        <ele>509</ele>
        <time>2024-07-09T10:26:46Z</time>
      </trkpt>
      <trkpt lat="43.99187" lon="7.32001">
        <ele>509</ele>
        <time>2024-07-09T10:26:47Z</time>
      </trkpt>
      <trkpt lat="43.9919" lon="7.31999">
        <ele>509</ele>
        <time>2024-07-09T10:26:48Z</time>
      </trkpt>
      <trkpt lat="43.99193" lon="7.31998">
        <ele>509.4</ele>
        <time>2024-07-09T10:26:49Z</time>
      </trkpt>
      <trkpt lat="43.99196" lon="7.31996">
        <ele>509.4</ele>
        <time>2024-07-09T10:26:50Z</time>
      </trkpt>
      <trkpt lat="43.99199" lon="7.31994">
        <ele>509.6</ele>
        <time>2024-07-09T10:26:51Z</time>
      </trkpt>
      <trkpt lat="43.99205" lon="7.31992">
        <ele>509.6</ele>
        <time>2024-07-09T10:26:52Z</time>
      </trkpt>
      <trkpt lat="43.99206" lon="7.31991">
        <ele>509.6</ele>
        <time>2024-07-09T10:26:53Z</time>
      </trkpt>
      <trkpt lat="43.9921" lon="7.31989">
        <ele>510.2</ele>
        <time>2024-07-09T10:26:54Z</time>
      </trkpt>
      <trkpt lat="43.99215" lon="7.31986">
        <ele>510.2</ele>
        <time>2024-07-09T10:26:55Z</time>
      </trkpt>
      <trkpt lat="43.99216" lon="7.31985">
        <ele>510.2</ele>
        <time>2024-07-09T10:26:56Z</time>
      </trkpt>
      <trkpt lat="43.99221" lon="7.31982">
        <ele>510.4</ele>
        <time>2024-07-09T10:26:57Z</time>
      </trkpt>
      <trkpt lat="43.99222" lon="7.31981">
        <ele>510.4</ele>
        <time>2024-07-09T10:26:58Z</time>
      </trkpt>
      <trkpt lat="43.99227" lon="7.31978">
        <ele>510.8</ele>
        <time>2024-07-09T10:26:59Z</time>
      </trkpt>
      <trkpt lat="43.99228" lon="7.31977">
        <ele>510.8</ele>
        <time>2024-07-09T10:27:00Z</time>
      </trkpt>
      <trkpt lat="43.99231" lon="7.31975">
        <ele>510.8</ele>
        <time>2024-07-09T10:27:01Z</time>
      </trkpt>
      <trkpt lat="43.99235" lon="7.31974">
        <ele>511</ele>
        <time>2024-07-09T10:27:02Z</time>
      </trkpt>
      <trkpt lat="43.99238" lon="7.31972">
        <ele>511.2</ele>
        <time>2024-07-09T10:27:03Z</time>
      </trkpt>
      <trkpt lat="43.99241" lon="7.3197">
        <ele>511.2</ele>
        <time>2024-07-09T10:27:04Z</time>
      </trkpt>
      <trkpt lat="43.99246" lon="7.31968">
        <ele>511.2</ele>
        <time>2024-07-09T10:27:05Z</time>
      </trkpt>
      <trkpt lat="43.99247" lon="7.31967">
        <ele>511.2</ele>
        <time>2024-07-09T10:27:06Z</time>
      </trkpt>
      <trkpt lat="43.99252" lon="7.31964">
        <ele>511.4</ele>
        <time>2024-07-09T10:27:07Z</time>
      </trkpt>
      <trkpt lat="43.99254" lon="7.31964">
        <ele>511.4</ele>
        <time>2024-07-09T10:27:08Z</time>
      </trkpt>
      <trkpt lat="43.99257" lon="7.31962">
        <ele>511.4</ele>
        <time>2024-07-09T10:27:09Z</time>
      </trkpt>
      <trkpt lat="43.9926" lon="7.3196">
        <ele>511.4</ele>
        <time>2024-07-09T10:27:10Z</time>
      </trkpt>
      <trkpt lat="43.99263" lon="7.31958">
        <ele>511.4</ele>
        <time>2024-07-09T10:27:11Z</time>
      </trkpt>
      <trkpt lat="43.99267" lon="7.31956">
        <ele>511.8</ele>
        <time>2024-07-09T10:27:12Z</time>
      </trkpt>
      <trkpt lat="43.9927" lon="7.31955">
        <ele>511.8</ele>
        <time>2024-07-09T10:27:13Z</time>
      </trkpt>
      <trkpt lat="43.99273" lon="7.31953">
        <ele>511.8</ele>
        <time>2024-07-09T10:27:14Z</time>
      </trkpt>
      <trkpt lat="43.99276" lon="7.31951">
        <ele>511.8</ele>
        <time>2024-07-09T10:27:15Z</time>
      </trkpt>
      <trkpt lat="43.99282" lon="7.31948">
        <ele>511.8</ele>
        <time>2024-07-09T10:27:16Z</time>
      </trkpt>
      <trkpt lat="43.99283" lon="7.31947">
        <ele>511.8</ele>
        <time>2024-07-09T10:27:17Z</time>
      </trkpt>
      <trkpt lat="43.99286" lon="7.31945">
        <ele>512</ele>
        <time>2024-07-09T10:27:18Z</time>
      </trkpt>
      <trkpt lat="43.9929" lon="7.31944">
        <ele>512</ele>
        <time>2024-07-09T10:27:19Z</time>
      </trkpt>
      <trkpt lat="43.99293" lon="7.31942">
        <ele>512</ele>
        <time>2024-07-09T10:27:20Z</time>
      </trkpt>
      <trkpt lat="43.99297" lon="7.3194">
        <ele>512</ele>
        <time>2024-07-09T10:27:21Z</time>
      </trkpt>
      <trkpt lat="43.993" lon="7.31938">
        <ele>512</ele>
        <time>2024-07-09T10:27:22Z</time>
      </trkpt>
      <trkpt lat="43.99304" lon="7.31936">
        <ele>512</ele>
        <time>2024-07-09T10:27:23Z</time>
      </trkpt>
      <trkpt lat="43.99308" lon="7.31934">
        <ele>512.4</ele>
        <time>2024-07-09T10:27:24Z</time>
      </trkpt>
      <trkpt lat="43.99311" lon="7.31932">
        <ele>512.2</ele>
        <time>2024-07-09T10:27:25Z</time>
      </trkpt>
      <trkpt lat="43.99316" lon="7.31929">
        <ele>512.2</ele>
        <time>2024-07-09T10:27:26Z</time>
      </trkpt>
      <trkpt lat="43.99318" lon="7.31928">
        <ele>512.2</ele>
        <time>2024-07-09T10:27:27Z</time>
      </trkpt>
      <trkpt lat="43.99323" lon="7.31925">
        <ele>512.2</ele>
        <time>2024-07-09T10:27:28Z</time>
      </trkpt>
      <trkpt lat="43.99324" lon="7.31925">
        <ele>512.8</ele>
        <time>2024-07-09T10:27:29Z</time>
      </trkpt>
      <trkpt lat="43.99328" lon="7.31923">
        <ele>512.8</ele>
        <time>2024-07-09T10:27:30Z</time>
      </trkpt>
      <trkpt lat="43.99331" lon="7.31921">
        <ele>512.8</ele>
        <time>2024-07-09T10:27:31Z</time>
      </trkpt>
      <trkpt lat="43.99334" lon="7.31919">
        <ele>512.8</ele>
        <time>2024-07-09T10:27:32Z</time>
      </trkpt>
      <trkpt lat="43.99339" lon="7.31917">
        <ele>513.2</ele>
        <time>2024-07-09T10:27:33Z</time>
      </trkpt>
      <trkpt lat="43.9934" lon="7.31916">
        <ele>513.2</ele>
        <time>2024-07-09T10:27:34Z</time>
      </trkpt>
      <trkpt lat="43.99344" lon="7.31914">
        <ele>513.2</ele>
        <time>2024-07-09T10:27:35Z</time>
      </trkpt>
      <trkpt lat="43.99349" lon="7.31912">
        <ele>513.2</ele>
        <time>2024-07-09T10:27:36Z</time>
      </trkpt>
      <trkpt lat="43.99351" lon="7.31911">
        <ele>513.6</ele>
        <time>2024-07-09T10:27:37Z</time>
      </trkpt>
      <trkpt lat="43.99356" lon="7.31908">
        <ele>513.8</ele>
        <time>2024-07-09T10:27:38Z</time>
      </trkpt>
      <trkpt lat="43.99358" lon="7.31907">
        <ele>513.8</ele>
        <time>2024-07-09T10:27:39Z</time>
      </trkpt>
      <trkpt lat="43.99363" lon="7.31905">
        <ele>513.8</ele>
        <time>2024-07-09T10:27:40Z</time>
      </trkpt>
      <trkpt lat="43.99364" lon="7.31904">
        <ele>514</ele>
        <time>2024-07-09T10:27:41Z</time>
      </trkpt>
      <trkpt lat="43.99369" lon="7.31901">
        <ele>514.2</ele>
        <time>2024-07-09T10:27:42Z</time>
      </trkpt>
      <trkpt lat="43.99371" lon="7.319">
        <ele>514.2</ele>
        <time>2024-07-09T10:27:43Z</time>
      </trkpt>
      <trkpt lat="43.99374" lon="7.31898">
        <ele>514.2</ele>
        <time>2024-07-09T10:27:44Z</time>
      </trkpt>
      <trkpt lat="43.99377" lon="7.31896">
        <ele>514.2</ele>
        <time>2024-07-09T10:27:45Z</time>
      </trkpt>
      <trkpt lat="43.9938" lon="7.31895">
        <ele>514.4</ele>
        <time>2024-07-09T10:27:46Z</time>
      </trkpt>
      <trkpt lat="43.99383" lon="7.31893">
        <ele>514.4</ele>
        <time>2024-07-09T10:27:47Z</time>
      </trkpt>
      <trkpt lat="43.99387" lon="7.31891">
        <ele>514.6</ele>
        <time>2024-07-09T10:27:48Z</time>
      </trkpt>
      <trkpt lat="43.9939" lon="7.31889">
        <ele>514.6</ele>
        <time>2024-07-09T10:27:49Z</time>
      </trkpt>
      <trkpt lat="43.99395" lon="7.31887">
        <ele>514.6</ele>
        <time>2024-07-09T10:27:50Z</time>
      </trkpt>
      <trkpt lat="43.99396" lon="7.31886">
        <ele>514.6</ele>
        <time>2024-07-09T10:27:51Z</time>
      </trkpt>
      <trkpt lat="43.99401" lon="7.31883">
        <ele>514.6</ele>
        <time>2024-07-09T10:27:52Z</time>
      </trkpt>
      <trkpt lat="43.99403" lon="7.31882">
        <ele>514.8</ele>
        <time>2024-07-09T10:27:53Z</time>
      </trkpt>
      <trkpt lat="43.99408" lon="7.31879">
        <ele>514.8</ele>
        <time>2024-07-09T10:27:54Z</time>
      </trkpt>
      <trkpt lat="43.99409" lon="7.31878">
        <ele>514.8</ele>
        <time>2024-07-09T10:27:55Z</time>
      </trkpt>
      <trkpt lat="43.99412" lon="7.31876">
        <ele>515.4</ele>
        <time>2024-07-09T10:27:56Z</time>
      </trkpt>
      <trkpt lat="43.99416" lon="7.31875">
        <ele>515.6</ele>
        <time>2024-07-09T10:27:57Z</time>
      </trkpt>
      <trkpt lat="43.99419" lon="7.31874">
        <ele>515.6</ele>
        <time>2024-07-09T10:27:58Z</time>
      </trkpt>
      <trkpt lat="43.99423" lon="7.31872">
        <ele>515.6</ele>
        <time>2024-07-09T10:27:59Z</time>
      </trkpt>
      <trkpt lat="43.99426" lon="7.31872">
        <ele>515.6</ele>
        <time>2024-07-09T10:28:00Z</time>
      </trkpt>
      <trkpt lat="43.9943" lon="7.31872">
        <ele>515.6</ele>
        <time>2024-07-09T10:28:01Z</time>
      </trkpt>
      <trkpt lat="43.99433" lon="7.31872">
        <ele>516</ele>
        <time>2024-07-09T10:28:02Z</time>
      </trkpt>
      <trkpt lat="43.99437" lon="7.31871">
        <ele>516</ele>
        <time>2024-07-09T10:28:03Z</time>
      </trkpt>
      <trkpt lat="43.99441" lon="7.31872">
        <ele>516</ele>
        <time>2024-07-09T10:28:04Z</time>
      </trkpt>
      <trkpt lat="43.99446" lon="7.31872">
        <ele>516.2</ele>
        <time>2024-07-09T10:28:05Z</time>
      </trkpt>
      <trkpt lat="43.99448" lon="7.31872">
        <ele>516.2</ele>
        <time>2024-07-09T10:28:06Z</time>
      </trkpt>
      <trkpt lat="43.99452" lon="7.31872">
        <ele>516.2</ele>
        <time>2024-07-09T10:28:07Z</time>
      </trkpt>
      <trkpt lat="43.99455" lon="7.31872">
        <ele>516.2</ele>
        <time>2024-07-09T10:28:08Z</time>
      </trkpt>
      <trkpt lat="43.99461" lon="7.31872">
        <ele>516.2</ele>
        <time>2024-07-09T10:28:09Z</time>
      </trkpt>
      <trkpt lat="43.99463" lon="7.31872">
        <ele>516.2</ele>
        <time>2024-07-09T10:28:10Z</time>
      </trkpt>
      <trkpt lat="43.99467" lon="7.31872">
        <ele>516.2</ele>
        <time>2024-07-09T10:28:11Z</time>
      </trkpt>
      <trkpt lat="43.9947" lon="7.31871">
        <ele>516.2</ele>
        <time>2024-07-09T10:28:12Z</time>
      </trkpt>
      <trkpt lat="43.99473" lon="7.3187">
        <ele>516.8</ele>
        <time>2024-07-09T10:28:13Z</time>
      </trkpt>
      <trkpt lat="43.99477" lon="7.3187">
        <ele>516.8</ele>
        <time>2024-07-09T10:28:14Z</time>
      </trkpt>
      <trkpt lat="43.9948" lon="7.31869">
        <ele>516.6</ele>
        <time>2024-07-09T10:28:15Z</time>
      </trkpt>
      <trkpt lat="43.99484" lon="7.31868">
        <ele>516.6</ele>
        <time>2024-07-09T10:28:16Z</time>
      </trkpt>
      <trkpt lat="43.99487" lon="7.31867">
        <ele>516.6</ele>
        <time>2024-07-09T10:28:17Z</time>
      </trkpt>
      <trkpt lat="43.99492" lon="7.31865">
        <ele>516.6</ele>
        <time>2024-07-09T10:28:18Z</time>
      </trkpt>
      <trkpt lat="43.99494" lon="7.31865">
        <ele>517</ele>
        <time>2024-07-09T10:28:19Z</time>
      </trkpt>
      <trkpt lat="43.99499" lon="7.31863">
        <ele>517</ele>
        <time>2024-07-09T10:28:20Z</time>
      </trkpt>
      <trkpt lat="43.99501" lon="7.31863">
        <ele>517</ele>
        <time>2024-07-09T10:28:21Z</time>
      </trkpt>
      <trkpt lat="43.99506" lon="7.31861">
        <ele>517.2</ele>
        <time>2024-07-09T10:28:22Z</time>
      </trkpt>
      <trkpt lat="43.99507" lon="7.3186">
        <ele>517.4</ele>
        <time>2024-07-09T10:28:23Z</time>
      </trkpt>
      <trkpt lat="43.99512" lon="7.31858">
        <ele>517.4</ele>
        <time>2024-07-09T10:28:24Z</time>
      </trkpt>
      <trkpt lat="43.99514" lon="7.31857">
        <ele>517.4</ele>
        <time>2024-07-09T10:28:25Z</time>
      </trkpt>
      <trkpt lat="43.99517" lon="7.31856">
        <ele>517.4</ele>
        <time>2024-07-09T10:28:26Z</time>
      </trkpt>
      <trkpt lat="43.99521" lon="7.31854">
        <ele>517.6</ele>
        <time>2024-07-09T10:28:27Z</time>
      </trkpt>
      <trkpt lat="43.99524" lon="7.31853">
        <ele>517.8</ele>
        <time>2024-07-09T10:28:28Z</time>
      </trkpt>
      <trkpt lat="43.99529" lon="7.31851">
        <ele>517.8</ele>
        <time>2024-07-09T10:28:29Z</time>
      </trkpt>
      <trkpt lat="43.99531" lon="7.3185">
        <ele>517.8</ele>
        <time>2024-07-09T10:28:30Z</time>
      </trkpt>
      <trkpt lat="43.99536" lon="7.31849">
        <ele>517.8</ele>
        <time>2024-07-09T10:28:31Z</time>
      </trkpt>
      <trkpt lat="43.99538" lon="7.31848">
        <ele>518</ele>
        <time>2024-07-09T10:28:32Z</time>
      </trkpt>
      <trkpt lat="43.99541" lon="7.31847">
        <ele>518</ele>
        <time>2024-07-09T10:28:33Z</time>
      </trkpt>
      <trkpt lat="43.99545" lon="7.31846">
        <ele>518</ele>
        <time>2024-07-09T10:28:34Z</time>
      </trkpt>
      <trkpt lat="43.99548" lon="7.31845">
        <ele>518</ele>
        <time>2024-07-09T10:28:35Z</time>
      </trkpt>
      <trkpt lat="43.99552" lon="7.31844">
        <ele>518.6</ele>
        <time>2024-07-09T10:28:36Z</time>
      </trkpt>
      <trkpt lat="43.99555" lon="7.31842">
        <ele>518.4</ele>
        <time>2024-07-09T10:28:37Z</time>
      </trkpt>
      <trkpt lat="43.99558" lon="7.31841">
        <ele>518.4</ele>
        <time>2024-07-09T10:28:38Z</time>
      </trkpt>
      <trkpt lat="43.99561" lon="7.3184">
        <ele>518.4</ele>
        <time>2024-07-09T10:28:39Z</time>
      </trkpt>
      <trkpt lat="43.99567" lon="7.31838">
        <ele>519</ele>
        <time>2024-07-09T10:28:40Z</time>
      </trkpt>
      <trkpt lat="43.99568" lon="7.31837">
        <ele>519</ele>
        <time>2024-07-09T10:28:41Z</time>
      </trkpt>
      <trkpt lat="43.99574" lon="7.31835">
        <ele>519</ele>
        <time>2024-07-09T10:28:42Z</time>
      </trkpt>
      <trkpt lat="43.99576" lon="7.31834">
        <ele>519</ele>
        <time>2024-07-09T10:28:43Z</time>
      </trkpt>
      <trkpt lat="43.9958" lon="7.31832">
        <ele>519</ele>
        <time>2024-07-09T10:28:44Z</time>
      </trkpt>
      <trkpt lat="43.99582" lon="7.31832">
        <ele>519</ele>
        <time>2024-07-09T10:28:45Z</time>
      </trkpt>
      <trkpt lat="43.99585" lon="7.31831">
        <ele>519.6</ele>
        <time>2024-07-09T10:28:46Z</time>
      </trkpt>
      <trkpt lat="43.99588" lon="7.3183">
        <ele>519.6</ele>
        <time>2024-07-09T10:28:47Z</time>
      </trkpt>
      <trkpt lat="43.99591" lon="7.31829">
        <ele>519.6</ele>
        <time>2024-07-09T10:28:48Z</time>
      </trkpt>
      <trkpt lat="43.99595" lon="7.31828">
        <ele>520</ele>
        <time>2024-07-09T10:28:49Z</time>
      </trkpt>
      <trkpt lat="43.99599" lon="7.31828">
        <ele>520.2</ele>
        <time>2024-07-09T10:28:50Z</time>
      </trkpt>
      <trkpt lat="43.99602" lon="7.31827">
        <ele>520.2</ele>
        <time>2024-07-09T10:28:51Z</time>
      </trkpt>
      <trkpt lat="43.99606" lon="7.31827">
        <ele>520.2</ele>
        <time>2024-07-09T10:28:52Z</time>
      </trkpt>
      <trkpt lat="43.99609" lon="7.31826">
        <ele>520.2</ele>
        <time>2024-07-09T10:28:53Z</time>
      </trkpt>
      <trkpt lat="43.9961" lon="7.31824">
        <ele>520.2</ele>
        <time>2024-07-09T10:28:54Z</time>
      </trkpt>
      <trkpt lat="43.99613" lon="7.31822">
        <ele>520.6</ele>
        <time>2024-07-09T10:28:55Z</time>
      </trkpt>
      <trkpt lat="43.99615" lon="7.31821">
        <ele>520.6</ele>
        <time>2024-07-09T10:28:56Z</time>
      </trkpt>
      <trkpt lat="43.99619" lon="7.31818">
        <ele>520.6</ele>
        <time>2024-07-09T10:28:57Z</time>
      </trkpt>
      <trkpt lat="43.99621" lon="7.31817">
        <ele>521</ele>
        <time>2024-07-09T10:28:58Z</time>
      </trkpt>
      <trkpt lat="43.99626" lon="7.31813">
        <ele>520.8</ele>
        <time>2024-07-09T10:28:59Z</time>
      </trkpt>
      <trkpt lat="43.99627" lon="7.31812">
        <ele>520.8</ele>
        <time>2024-07-09T10:29:00Z</time>
      </trkpt>
      <trkpt lat="43.99634" lon="7.31807">
        <ele>520.8</ele>
        <time>2024-07-09T10:29:01Z</time>
      </trkpt>
      <trkpt lat="43.99635" lon="7.31805">
        <ele>521.6</ele>
        <time>2024-07-09T10:29:02Z</time>
      </trkpt>
      <trkpt lat="43.99639" lon="7.31803">
        <ele>521.8</ele>
        <time>2024-07-09T10:29:03Z</time>
      </trkpt>
      <trkpt lat="43.99644" lon="7.31797">
        <ele>521.8</ele>
        <time>2024-07-09T10:29:04Z</time>
      </trkpt>
      <trkpt lat="43.99646" lon="7.31795">
        <ele>521.8</ele>
        <time>2024-07-09T10:29:05Z</time>
      </trkpt>
      <trkpt lat="43.99651" lon="7.3179">
        <ele>521.8</ele>
        <time>2024-07-09T10:29:06Z</time>
      </trkpt>
      <trkpt lat="43.99652" lon="7.31788">
        <ele>521.8</ele>
        <time>2024-07-09T10:29:07Z</time>
      </trkpt>
      <trkpt lat="43.99655" lon="7.31785">
        <ele>521.8</ele>
        <time>2024-07-09T10:29:08Z</time>
      </trkpt>
      <trkpt lat="43.99658" lon="7.31782">
        <ele>521.8</ele>
        <time>2024-07-09T10:29:09Z</time>
      </trkpt>
      <trkpt lat="43.99663" lon="7.31777">
        <ele>521.8</ele>
        <time>2024-07-09T10:29:10Z</time>
      </trkpt>
      <trkpt lat="43.99665" lon="7.31776">
        <ele>522</ele>
        <time>2024-07-09T10:29:11Z</time>
      </trkpt>
      <trkpt lat="43.99667" lon="7.31773">
        <ele>522.2</ele>
        <time>2024-07-09T10:29:12Z</time>
      </trkpt>
      <trkpt lat="43.9967" lon="7.31769">
        <ele>522.2</ele>
        <time>2024-07-09T10:29:13Z</time>
      </trkpt>
      <trkpt lat="43.99674" lon="7.31767">
        <ele>522.2</ele>
        <time>2024-07-09T10:29:14Z</time>
      </trkpt>
      <trkpt lat="43.99677" lon="7.31764">
        <ele>522.4</ele>
        <time>2024-07-09T10:29:15Z</time>
      </trkpt>
      <trkpt lat="43.99682" lon="7.3176">
        <ele>522.6</ele>
        <time>2024-07-09T10:29:16Z</time>
      </trkpt>
      <trkpt lat="43.99684" lon="7.31758">
        <ele>522.6</ele>
        <time>2024-07-09T10:29:17Z</time>
      </trkpt>
      <trkpt lat="43.99687" lon="7.31756">
        <ele>522.6</ele>
        <time>2024-07-09T10:29:18Z</time>
      </trkpt>
      <trkpt lat="43.9969" lon="7.31753">
        <ele>522.6</ele>
        <time>2024-07-09T10:29:19Z</time>
      </trkpt>
      <trkpt lat="43.99693" lon="7.31751">
        <ele>523</ele>
        <time>2024-07-09T10:29:20Z</time>
      </trkpt>
      <trkpt lat="43.99696" lon="7.31749">
        <ele>523</ele>
        <time>2024-07-09T10:29:21Z</time>
      </trkpt>
      <trkpt lat="43.997" lon="7.31746">
        <ele>523</ele>
        <time>2024-07-09T10:29:22Z</time>
      </trkpt>
      <trkpt lat="43.99703" lon="7.31744">
        <ele>523</ele>
        <time>2024-07-09T10:29:23Z</time>
      </trkpt>
      <trkpt lat="43.99706" lon="7.31742">
        <ele>523</ele>
        <time>2024-07-09T10:29:24Z</time>
      </trkpt>
      <trkpt lat="43.99709" lon="7.3174">
        <ele>523</ele>
        <time>2024-07-09T10:29:25Z</time>
      </trkpt>
      <trkpt lat="43.99712" lon="7.31738">
        <ele>523.4</ele>
        <time>2024-07-09T10:29:26Z</time>
      </trkpt>
      <trkpt lat="43.99715" lon="7.31736">
        <ele>523.4</ele>
        <time>2024-07-09T10:29:27Z</time>
      </trkpt>
      <trkpt lat="43.99718" lon="7.31734">
        <ele>523.4</ele>
        <time>2024-07-09T10:29:28Z</time>
      </trkpt>
      <trkpt lat="43.99721" lon="7.31732">
        <ele>523.8</ele>
        <time>2024-07-09T10:29:29Z</time>
      </trkpt>
      <trkpt lat="43.99724" lon="7.3173">
        <ele>523.8</ele>
        <time>2024-07-09T10:29:30Z</time>
      </trkpt>
      <trkpt lat="43.99727" lon="7.31728">
        <ele>523.8</ele>
        <time>2024-07-09T10:29:31Z</time>
      </trkpt>
      <trkpt lat="43.9973" lon="7.31726">
        <ele>523.8</ele>
        <time>2024-07-09T10:29:32Z</time>
      </trkpt>
      <trkpt lat="43.99734" lon="7.31724">
        <ele>524.2</ele>
        <time>2024-07-09T10:29:33Z</time>
      </trkpt>
      <trkpt lat="43.99737" lon="7.31723">
        <ele>524.2</ele>
        <time>2024-07-09T10:29:34Z</time>
      </trkpt>
      <trkpt lat="43.9974" lon="7.31722">
        <ele>524</ele>
        <time>2024-07-09T10:29:35Z</time>
      </trkpt>
      <trkpt lat="43.99744" lon="7.31721">
        <ele>524</ele>
        <time>2024-07-09T10:29:36Z</time>
      </trkpt>
      <trkpt lat="43.99747" lon="7.3172">
        <ele>524</ele>
        <time>2024-07-09T10:29:37Z</time>
      </trkpt>
      <trkpt lat="43.9975" lon="7.3172">
        <ele>524</ele>
        <time>2024-07-09T10:29:38Z</time>
      </trkpt>
      <trkpt lat="43.99753" lon="7.31719">
        <ele>524.6</ele>
        <time>2024-07-09T10:29:39Z</time>
      </trkpt>
      <trkpt lat="43.99756" lon="7.31719">
        <ele>524.6</ele>
        <time>2024-07-09T10:29:40Z</time>
      </trkpt>
      <trkpt lat="43.99761" lon="7.31718">
        <ele>524.6</ele>
        <time>2024-07-09T10:29:41Z</time>
      </trkpt>
      <trkpt lat="43.99763" lon="7.31718">
        <ele>524.8</ele>
        <time>2024-07-09T10:29:42Z</time>
      </trkpt>
      <trkpt lat="43.99768" lon="7.31716">
        <ele>524.8</ele>
        <time>2024-07-09T10:29:43Z</time>
      </trkpt>
      <trkpt lat="43.9977" lon="7.31715">
        <ele>525.2</ele>
        <time>2024-07-09T10:29:44Z</time>
      </trkpt>
      <trkpt lat="43.99774" lon="7.31713">
        <ele>525.2</ele>
        <time>2024-07-09T10:29:45Z</time>
      </trkpt>
      <trkpt lat="43.99776" lon="7.31712">
        <ele>525.2</ele>
        <time>2024-07-09T10:29:46Z</time>
      </trkpt>
      <trkpt lat="43.99781" lon="7.3171">
        <ele>525.6</ele>
        <time>2024-07-09T10:29:47Z</time>
      </trkpt>
      <trkpt lat="43.99782" lon="7.3171">
        <ele>525.6</ele>
        <time>2024-07-09T10:29:48Z</time>
      </trkpt>
      <trkpt lat="43.99786" lon="7.31708">
        <ele>525.6</ele>
        <time>2024-07-09T10:29:49Z</time>
      </trkpt>
      <trkpt lat="43.99789" lon="7.31707">
        <ele>525.6</ele>
        <time>2024-07-09T10:29:50Z</time>
      </trkpt>
      <trkpt lat="43.99792" lon="7.31704">
        <ele>525.6</ele>
        <time>2024-07-09T10:29:51Z</time>
      </trkpt>
      <trkpt lat="43.99795" lon="7.31702">
        <ele>525.8</ele>
        <time>2024-07-09T10:29:52Z</time>
      </trkpt>
      <trkpt lat="43.99798" lon="7.31699">
        <ele>525.8</ele>
        <time>2024-07-09T10:29:53Z</time>
      </trkpt>
      <trkpt lat="43.998" lon="7.31697">
        <ele>525.8</ele>
        <time>2024-07-09T10:29:54Z</time>
      </trkpt>
      <trkpt lat="43.99803" lon="7.31694">
        <ele>525.8</ele>
        <time>2024-07-09T10:29:55Z</time>
      </trkpt>
      <trkpt lat="43.99806" lon="7.31692">
        <ele>526.2</ele>
        <time>2024-07-09T10:29:56Z</time>
      </trkpt>
      <trkpt lat="43.99808" lon="7.31689">
        <ele>526.4</ele>
        <time>2024-07-09T10:29:57Z</time>
      </trkpt>
      <trkpt lat="43.99811" lon="7.31686">
        <ele>526.4</ele>
        <time>2024-07-09T10:29:58Z</time>
      </trkpt>
      <trkpt lat="43.99813" lon="7.31682">
        <ele>526.4</ele>
        <time>2024-07-09T10:29:59Z</time>
      </trkpt>
      <trkpt lat="43.99816" lon="7.31678">
        <ele>526</ele>
        <time>2024-07-09T10:30:00Z</time>
      </trkpt>
      <trkpt lat="43.99819" lon="7.31672">
        <ele>525.8</ele>
        <time>2024-07-09T10:30:01Z</time>
      </trkpt>
      <trkpt lat="43.9982" lon="7.3167">
        <ele>525.8</ele>
        <time>2024-07-09T10:30:02Z</time>
      </trkpt>
      <trkpt lat="43.99823" lon="7.31665">
        <ele>525.8</ele>
        <time>2024-07-09T10:30:03Z</time>
      </trkpt>
      <trkpt lat="43.99825" lon="7.31661">
        <ele>525.8</ele>
        <time>2024-07-09T10:30:04Z</time>
      </trkpt>
      <trkpt lat="43.99828" lon="7.31658">
        <ele>525.8</ele>
        <time>2024-07-09T10:30:05Z</time>
      </trkpt>
      <trkpt lat="43.9983" lon="7.31654">
        <ele>525.8</ele>
        <time>2024-07-09T10:30:06Z</time>
      </trkpt>
      <trkpt lat="43.99834" lon="7.31649">
        <ele>525.8</ele>
        <time>2024-07-09T10:30:07Z</time>
      </trkpt>
      <trkpt lat="43.99835" lon="7.31647">
        <ele>525.8</ele>
        <time>2024-07-09T10:30:08Z</time>
      </trkpt>
      <trkpt lat="43.99837" lon="7.31643">
        <ele>526.4</ele>
        <time>2024-07-09T10:30:09Z</time>
      </trkpt>
      <trkpt lat="43.9984" lon="7.3164">
        <ele>526.4</ele>
        <time>2024-07-09T10:30:10Z</time>
      </trkpt>
      <trkpt lat="43.99842" lon="7.31637">
        <ele>526.4</ele>
        <time>2024-07-09T10:30:11Z</time>
      </trkpt>
      <trkpt lat="43.99845" lon="7.31634">
        <ele>526.4</ele>
        <time>2024-07-09T10:30:12Z</time>
      </trkpt>
      <trkpt lat="43.99848" lon="7.3163">
        <ele>526.4</ele>
        <time>2024-07-09T10:30:13Z</time>
      </trkpt>
      <trkpt lat="43.9985" lon="7.31627">
        <ele>527</ele>
        <time>2024-07-09T10:30:14Z</time>
      </trkpt>
      <trkpt lat="43.99853" lon="7.31623">
        <ele>527</ele>
        <time>2024-07-09T10:30:15Z</time>
      </trkpt>
      <trkpt lat="43.99856" lon="7.31617">
        <ele>527</ele>
        <time>2024-07-09T10:30:16Z</time>
      </trkpt>
      <trkpt lat="43.99858" lon="7.31616">
        <ele>527</ele>
        <time>2024-07-09T10:30:17Z</time>
      </trkpt>
      <trkpt lat="43.9986" lon="7.31612">
        <ele>527</ele>
        <time>2024-07-09T10:30:18Z</time>
      </trkpt>
      <trkpt lat="43.99864" lon="7.31606">
        <ele>527</ele>
        <time>2024-07-09T10:30:19Z</time>
      </trkpt>
      <trkpt lat="43.99866" lon="7.31604">
        <ele>527</ele>
        <time>2024-07-09T10:30:20Z</time>
      </trkpt>
      <trkpt lat="43.99868" lon="7.31597">
        <ele>527</ele>
        <time>2024-07-09T10:30:21Z</time>
      </trkpt>
      <trkpt lat="43.99869" lon="7.31595">
        <ele>527.6</ele>
        <time>2024-07-09T10:30:22Z</time>
      </trkpt>
      <trkpt lat="43.99871" lon="7.3159">
        <ele>527.6</ele>
        <time>2024-07-09T10:30:23Z</time>
      </trkpt>
      <trkpt lat="43.99872" lon="7.31585">
        <ele>527.6</ele>
        <time>2024-07-09T10:30:24Z</time>
      </trkpt>
      <trkpt lat="43.99874" lon="7.31578">
        <ele>527.6</ele>
        <time>2024-07-09T10:30:25Z</time>
      </trkpt>
      <trkpt lat="43.99875" lon="7.31575">
        <ele>527.6</ele>
        <time>2024-07-09T10:30:26Z</time>
      </trkpt>
      <trkpt lat="43.99877" lon="7.31568">
        <ele>527.8</ele>
        <time>2024-07-09T10:30:27Z</time>
      </trkpt>
      <trkpt lat="43.99878" lon="7.31567">
        <ele>527.8</ele>
        <time>2024-07-09T10:30:28Z</time>
      </trkpt>
      <trkpt lat="43.99881" lon="7.3156">
        <ele>527.8</ele>
        <time>2024-07-09T10:30:29Z</time>
      </trkpt>
      <trkpt lat="43.99882" lon="7.31558">
        <ele>527.8</ele>
        <time>2024-07-09T10:30:30Z</time>
      </trkpt>
      <trkpt lat="43.99884" lon="7.3155">
        <ele>528.4</ele>
        <time>2024-07-09T10:30:31Z</time>
      </trkpt>
      <trkpt lat="43.99884" lon="7.31548">
        <ele>528.4</ele>
        <time>2024-07-09T10:30:32Z</time>
      </trkpt>
      <trkpt lat="43.99887" lon="7.3154">
        <ele>528.2</ele>
        <time>2024-07-09T10:30:33Z</time>
      </trkpt>
      <trkpt lat="43.99888" lon="7.31538">
        <ele>528.2</ele>
        <time>2024-07-09T10:30:34Z</time>
      </trkpt>
      <trkpt lat="43.9989" lon="7.31531">
        <ele>528.4</ele>
        <time>2024-07-09T10:30:35Z</time>
      </trkpt>
      <trkpt lat="43.9989" lon="7.31528">
        <ele>528.4</ele>
        <time>2024-07-09T10:30:36Z</time>
      </trkpt>
      <trkpt lat="43.99892" lon="7.31524">
        <ele>528.4</ele>
        <time>2024-07-09T10:30:37Z</time>
      </trkpt>
      <trkpt lat="43.99894" lon="7.31519">
        <ele>528.4</ele>
        <time>2024-07-09T10:30:38Z</time>
      </trkpt>
      <trkpt lat="43.99895" lon="7.31515">
        <ele>528.4</ele>
        <time>2024-07-09T10:30:39Z</time>
      </trkpt>
      <trkpt lat="43.99897" lon="7.31511">
        <ele>528.6</ele>
        <time>2024-07-09T10:30:40Z</time>
      </trkpt>
      <trkpt lat="43.99899" lon="7.31504">
        <ele>528.6</ele>
        <time>2024-07-09T10:30:41Z</time>
      </trkpt>
      <trkpt lat="43.999" lon="7.31502">
        <ele>528.6</ele>
        <time>2024-07-09T10:30:42Z</time>
      </trkpt>
      <trkpt lat="43.99901" lon="7.31497">
        <ele>528.6</ele>
        <time>2024-07-09T10:30:43Z</time>
      </trkpt>
      <trkpt lat="43.99903" lon="7.31492">
        <ele>528.6</ele>
        <time>2024-07-09T10:30:44Z</time>
      </trkpt>
      <trkpt lat="43.99905" lon="7.31485">
        <ele>528.6</ele>
        <time>2024-07-09T10:30:45Z</time>
      </trkpt>
      <trkpt lat="43.99906" lon="7.31482">
        <ele>528.8</ele>
        <time>2024-07-09T10:30:46Z</time>
      </trkpt>
      <trkpt lat="43.99908" lon="7.31475">
        <ele>528.8</ele>
        <time>2024-07-09T10:30:47Z</time>
      </trkpt>
      <trkpt lat="43.99909" lon="7.31473">
        <ele>528.8</ele>
        <time>2024-07-09T10:30:48Z</time>
      </trkpt>
      <trkpt lat="43.9991" lon="7.31468">
        <ele>528.8</ele>
        <time>2024-07-09T10:30:49Z</time>
      </trkpt>
      <trkpt lat="43.99912" lon="7.31464">
        <ele>528.8</ele>
        <time>2024-07-09T10:30:50Z</time>
      </trkpt>
      <trkpt lat="43.99913" lon="7.31459">
        <ele>529.2</ele>
        <time>2024-07-09T10:30:51Z</time>
      </trkpt>
      <trkpt lat="43.99915" lon="7.31454">
        <ele>529.2</ele>
        <time>2024-07-09T10:30:52Z</time>
      </trkpt>
      <trkpt lat="43.99916" lon="7.31449">
        <ele>529.2</ele>
        <time>2024-07-09T10:30:53Z</time>
      </trkpt>
      <trkpt lat="43.99918" lon="7.31444">
        <ele>529.2</ele>
        <time>2024-07-09T10:30:54Z</time>
      </trkpt>
      <trkpt lat="43.9992" lon="7.31439">
        <ele>529.2</ele>
        <time>2024-07-09T10:30:55Z</time>
      </trkpt>
      <trkpt lat="43.99921" lon="7.31434">
        <ele>529.2</ele>
        <time>2024-07-09T10:30:56Z</time>
      </trkpt>
      <trkpt lat="43.99923" lon="7.3143">
        <ele>529.2</ele>
        <time>2024-07-09T10:30:57Z</time>
      </trkpt>
      <trkpt lat="43.99924" lon="7.31425">
        <ele>529.2</ele>
        <time>2024-07-09T10:30:58Z</time>
      </trkpt>
      <trkpt lat="43.99927" lon="7.31418">
        <ele>529.4</ele>
        <time>2024-07-09T10:30:59Z</time>
      </trkpt>
      <trkpt lat="43.99927" lon="7.31415">
        <ele>529.4</ele>
        <time>2024-07-09T10:31:00Z</time>
      </trkpt>
      <trkpt lat="43.99929" lon="7.3141">
        <ele>529.4</ele>
        <time>2024-07-09T10:31:01Z</time>
      </trkpt>
      <trkpt lat="43.9993" lon="7.31406">
        <ele>529.8</ele>
        <time>2024-07-09T10:31:02Z</time>
      </trkpt>
      <trkpt lat="43.99932" lon="7.31401">
        <ele>529.8</ele>
        <time>2024-07-09T10:31:03Z</time>
      </trkpt>
      <trkpt lat="43.99933" lon="7.31396">
        <ele>530</ele>
        <time>2024-07-09T10:31:04Z</time>
      </trkpt>
      <trkpt lat="43.99935" lon="7.31391">
        <ele>530</ele>
        <time>2024-07-09T10:31:05Z</time>
      </trkpt>
      <trkpt lat="43.99937" lon="7.31387">
        <ele>530</ele>
        <time>2024-07-09T10:31:06Z</time>
      </trkpt>
      <trkpt lat="43.99938" lon="7.31382">
        <ele>530</ele>
        <time>2024-07-09T10:31:07Z</time>
      </trkpt>
      <trkpt lat="43.9994" lon="7.31377">
        <ele>530.4</ele>
        <time>2024-07-09T10:31:08Z</time>
      </trkpt>
      <trkpt lat="43.99941" lon="7.31372">
        <ele>530.4</ele>
        <time>2024-07-09T10:31:09Z</time>
      </trkpt>
      <trkpt lat="43.99942" lon="7.31365">
        <ele>530.4</ele>
        <time>2024-07-09T10:31:10Z</time>
      </trkpt>
      <trkpt lat="43.99943" lon="7.31362">
        <ele>530.4</ele>
        <time>2024-07-09T10:31:11Z</time>
      </trkpt>
      <trkpt lat="43.99945" lon="7.31355">
        <ele>530.8</ele>
        <time>2024-07-09T10:31:12Z</time>
      </trkpt>
      <trkpt lat="43.99946" lon="7.31353">
        <ele>530.8</ele>
        <time>2024-07-09T10:31:13Z</time>
      </trkpt>
      <trkpt lat="43.99948" lon="7.31346">
        <ele>530.8</ele>
        <time>2024-07-09T10:31:14Z</time>
      </trkpt>
      <trkpt lat="43.99949" lon="7.31344">
        <ele>530.8</ele>
        <time>2024-07-09T10:31:15Z</time>
      </trkpt>
      <trkpt lat="43.99951" lon="7.31336">
        <ele>531.4</ele>
        <time>2024-07-09T10:31:16Z</time>
      </trkpt>
      <trkpt lat="43.99952" lon="7.31334">
        <ele>531.2</ele>
        <time>2024-07-09T10:31:17Z</time>
      </trkpt>
      <trkpt lat="43.99953" lon="7.31329">
        <ele>531.2</ele>
        <time>2024-07-09T10:31:18Z</time>
      </trkpt>
      <trkpt lat="43.99955" lon="7.31321">
        <ele>531.2</ele>
        <time>2024-07-09T10:31:19Z</time>
      </trkpt>
      <trkpt lat="43.99956" lon="7.31319">
        <ele>531.6</ele>
        <time>2024-07-09T10:31:20Z</time>
      </trkpt>
      <trkpt lat="43.99958" lon="7.31314">
        <ele>531.8</ele>
        <time>2024-07-09T10:31:21Z</time>
      </trkpt>
      <trkpt lat="43.99959" lon="7.31309">
        <ele>531.8</ele>
        <time>2024-07-09T10:31:22Z</time>
      </trkpt>
      <trkpt lat="43.99961" lon="7.31302">
        <ele>531.8</ele>
        <time>2024-07-09T10:31:23Z</time>
      </trkpt>
      <trkpt lat="43.99962" lon="7.313">
        <ele>531.8</ele>
        <time>2024-07-09T10:31:24Z</time>
      </trkpt>
      <trkpt lat="43.99964" lon="7.31295">
        <ele>532.2</ele>
        <time>2024-07-09T10:31:25Z</time>
      </trkpt>
      <trkpt lat="43.99966" lon="7.31287">
        <ele>532.2</ele>
        <time>2024-07-09T10:31:26Z</time>
      </trkpt>
      <trkpt lat="43.99966" lon="7.31285">
        <ele>532.2</ele>
        <time>2024-07-09T10:31:27Z</time>
      </trkpt>
      <trkpt lat="43.99968" lon="7.31278">
        <ele>532.2</ele>
        <time>2024-07-09T10:31:28Z</time>
      </trkpt>
      <trkpt lat="43.99969" lon="7.31275">
        <ele>532.2</ele>
        <time>2024-07-09T10:31:29Z</time>
      </trkpt>
      <trkpt lat="43.9997" lon="7.31271">
        <ele>532.4</ele>
        <time>2024-07-09T10:31:30Z</time>
      </trkpt>
      <trkpt lat="43.99972" lon="7.31266">
        <ele>532.6</ele>
        <time>2024-07-09T10:31:31Z</time>
      </trkpt>
      <trkpt lat="43.99973" lon="7.31261">
        <ele>532.6</ele>
        <time>2024-07-09T10:31:32Z</time>
      </trkpt>
      <trkpt lat="43.99974" lon="7.31256">
        <ele>532.6</ele>
        <time>2024-07-09T10:31:33Z</time>
      </trkpt>
      <trkpt lat="43.99976" lon="7.31251">
        <ele>532.6</ele>
        <time>2024-07-09T10:31:34Z</time>
      </trkpt>
      <trkpt lat="43.99977" lon="7.31246">
        <ele>532.8</ele>
        <time>2024-07-09T10:31:35Z</time>
      </trkpt>
      <trkpt lat="43.99979" lon="7.31238">
        <ele>532.8</ele>
        <time>2024-07-09T10:31:36Z</time>
      </trkpt>
      <trkpt lat="43.9998" lon="7.31236">
        <ele>532.8</ele>
        <time>2024-07-09T10:31:37Z</time>
      </trkpt>
      <trkpt lat="43.99981" lon="7.31231">
        <ele>532.8</ele>
        <time>2024-07-09T10:31:38Z</time>
      </trkpt>
      <trkpt lat="43.99983" lon="7.31227">
        <ele>533</ele>
        <time>2024-07-09T10:31:39Z</time>
      </trkpt>
      <trkpt lat="43.99985" lon="7.31223">
        <ele>533</ele>
        <time>2024-07-09T10:31:40Z</time>
      </trkpt>
      <trkpt lat="43.99988" lon="7.31216">
        <ele>533</ele>
        <time>2024-07-09T10:31:41Z</time>
      </trkpt>
      <trkpt lat="43.99989" lon="7.31214">
        <ele>533</ele>
        <time>2024-07-09T10:31:42Z</time>
      </trkpt>
      <trkpt lat="43.99992" lon="7.31211">
        <ele>533</ele>
        <time>2024-07-09T10:31:43Z</time>
      </trkpt>
      <trkpt lat="43.99995" lon="7.31207">
        <ele>533.2</ele>
        <time>2024-07-09T10:31:44Z</time>
      </trkpt>
      <trkpt lat="43.99997" lon="7.31204">
        <ele>533.2</ele>
        <time>2024-07-09T10:31:45Z</time>
      </trkpt>
      <trkpt lat="44" lon="7.312">
        <ele>533.2</ele>
        <time>2024-07-09T10:31:46Z</time>
      </trkpt>
      <trkpt lat="44.00002" lon="7.31197">
        <ele>534</ele>
        <time>2024-07-09T10:31:47Z</time>
      </trkpt>
      <trkpt lat="44.00005" lon="7.31193">
        <ele>534</ele>
        <time>2024-07-09T10:31:48Z</time>
      </trkpt>
      <trkpt lat="44.00007" lon="7.3119">
        <ele>534.2</ele>
        <time>2024-07-09T10:31:49Z</time>
      </trkpt>
      <trkpt lat="44.0001" lon="7.31187">
        <ele>534.2</ele>
        <time>2024-07-09T10:31:50Z</time>
      </trkpt>
      <trkpt lat="44.00013" lon="7.31183">
        <ele>534.2</ele>
        <time>2024-07-09T10:31:51Z</time>
      </trkpt>
      <trkpt lat="44.00015" lon="7.3118">
        <ele>534.4</ele>
        <time>2024-07-09T10:31:52Z</time>
      </trkpt>
      <trkpt lat="44.00018" lon="7.31177">
        <ele>534.6</ele>
        <time>2024-07-09T10:31:53Z</time>
      </trkpt>
      <trkpt lat="44.0002" lon="7.31174">
        <ele>534.6</ele>
        <time>2024-07-09T10:31:54Z</time>
      </trkpt>
      <trkpt lat="44.00023" lon="7.3117">
        <ele>534.6</ele>
        <time>2024-07-09T10:31:55Z</time>
      </trkpt>
      <trkpt lat="44.00028" lon="7.31165">
        <ele>535</ele>
        <time>2024-07-09T10:31:56Z</time>
      </trkpt>
      <trkpt lat="44.00029" lon="7.31164">
        <ele>535.2</ele>
        <time>2024-07-09T10:31:57Z</time>
      </trkpt>
      <trkpt lat="44.00033" lon="7.31159">
        <ele>535.2</ele>
        <time>2024-07-09T10:31:58Z</time>
      </trkpt>
      <trkpt lat="44.00035" lon="7.31157">
        <ele>535.2</ele>
        <time>2024-07-09T10:31:59Z</time>
      </trkpt>
      <trkpt lat="44.00039" lon="7.31152">
        <ele>535.6</ele>
        <time>2024-07-09T10:32:00Z</time>
      </trkpt>
      <trkpt lat="44.0004" lon="7.3115">
        <ele>535.8</ele>
        <time>2024-07-09T10:32:01Z</time>
      </trkpt>
      <trkpt lat="44.00043" lon="7.31148">
        <ele>535.8</ele>
        <time>2024-07-09T10:32:02Z</time>
      </trkpt>
      <trkpt lat="44.00046" lon="7.31145">
        <ele>535.8</ele>
        <time>2024-07-09T10:32:03Z</time>
      </trkpt>
      <trkpt lat="44.00049" lon="7.31142">
        <ele>535.8</ele>
        <time>2024-07-09T10:32:04Z</time>
      </trkpt>
      <trkpt lat="44.00052" lon="7.3114">
        <ele>536.2</ele>
        <time>2024-07-09T10:32:05Z</time>
      </trkpt>
      <trkpt lat="44.00057" lon="7.31138">
        <ele>536.4</ele>
        <time>2024-07-09T10:32:06Z</time>
      </trkpt>
      <trkpt lat="44.00059" lon="7.31137">
        <ele>536.4</ele>
        <time>2024-07-09T10:32:07Z</time>
      </trkpt>
      <trkpt lat="44.00064" lon="7.31135">
        <ele>536.4</ele>
        <time>2024-07-09T10:32:08Z</time>
      </trkpt>
      <trkpt lat="44.00065" lon="7.31134">
        <ele>536.4</ele>
        <time>2024-07-09T10:32:09Z</time>
      </trkpt>
      <trkpt lat="44.00068" lon="7.31132">
        <ele>536.8</ele>
        <time>2024-07-09T10:32:10Z</time>
      </trkpt>
      <trkpt lat="44.00072" lon="7.3113">
        <ele>537</ele>
        <time>2024-07-09T10:32:11Z</time>
      </trkpt>
      <trkpt lat="44.00075" lon="7.3113">
        <ele>537</ele>
        <time>2024-07-09T10:32:12Z</time>
      </trkpt>
      <trkpt lat="44.00078" lon="7.31128">
        <ele>537</ele>
        <time>2024-07-09T10:32:13Z</time>
      </trkpt>
      <trkpt lat="44.00082" lon="7.31127">
        <ele>537</ele>
        <time>2024-07-09T10:32:14Z</time>
      </trkpt>
      <trkpt lat="44.00085" lon="7.31124">
        <ele>537</ele>
        <time>2024-07-09T10:32:15Z</time>
      </trkpt>
      <trkpt lat="44.00089" lon="7.31122">
        <ele>537.2</ele>
        <time>2024-07-09T10:32:16Z</time>
      </trkpt>
      <trkpt lat="44.00092" lon="7.3112">
        <ele>537.2</ele>
        <time>2024-07-09T10:32:17Z</time>
      </trkpt>
      <trkpt lat="44.00096" lon="7.31118">
        <ele>537.2</ele>
        <time>2024-07-09T10:32:18Z</time>
      </trkpt>
      <trkpt lat="44.00099" lon="7.31116">
        <ele>537.6</ele>
        <time>2024-07-09T10:32:19Z</time>
      </trkpt>
      <trkpt lat="44.00102" lon="7.31115">
        <ele>537.6</ele>
        <time>2024-07-09T10:32:20Z</time>
      </trkpt>
      <trkpt lat="44.00106" lon="7.31113">
        <ele>537.6</ele>
        <time>2024-07-09T10:32:21Z</time>
      </trkpt>
      <trkpt lat="44.00109" lon="7.31112">
        <ele>537.6</ele>
        <time>2024-07-09T10:32:22Z</time>
      </trkpt>
      <trkpt lat="44.00111" lon="7.31109">
        <ele>538</ele>
        <time>2024-07-09T10:32:23Z</time>
      </trkpt>
      <trkpt lat="44.00113" lon="7.31106">
        <ele>538</ele>
        <time>2024-07-09T10:32:24Z</time>
      </trkpt>
      <trkpt lat="44.00115" lon="7.31103">
        <ele>538</ele>
        <time>2024-07-09T10:32:25Z</time>
      </trkpt>
      <trkpt lat="44.00116" lon="7.31098">
        <ele>538</ele>
        <time>2024-07-09T10:32:26Z</time>
      </trkpt>
      <trkpt lat="44.00117" lon="7.31094">
        <ele>538</ele>
        <time>2024-07-09T10:32:27Z</time>
      </trkpt>
      <trkpt lat="44.00119" lon="7.3109">
        <ele>537.6</ele>
        <time>2024-07-09T10:32:28Z</time>
      </trkpt>
      <trkpt lat="44.00121" lon="7.31086">
        <ele>537.8</ele>
        <time>2024-07-09T10:32:29Z</time>
      </trkpt>
      <trkpt lat="44.00123" lon="7.31082">
        <ele>537.8</ele>
        <time>2024-07-09T10:32:30Z</time>
      </trkpt>
      <trkpt lat="44.00124" lon="7.31079">
        <ele>537.8</ele>
        <time>2024-07-09T10:32:31Z</time>
      </trkpt>
      <trkpt lat="44.00126" lon="7.31075">
        <ele>538</ele>
        <time>2024-07-09T10:32:32Z</time>
      </trkpt>
      <trkpt lat="44.00129" lon="7.3107">
        <ele>538.2</ele>
        <time>2024-07-09T10:32:33Z</time>
      </trkpt>
      <trkpt lat="44.00129" lon="7.31068">
        <ele>538.2</ele>
        <time>2024-07-09T10:32:34Z</time>
      </trkpt>
      <trkpt lat="44.00132" lon="7.31063">
        <ele>538.2</ele>
        <time>2024-07-09T10:32:35Z</time>
      </trkpt>
      <trkpt lat="44.00132" lon="7.31061">
        <ele>538.2</ele>
        <time>2024-07-09T10:32:36Z</time>
      </trkpt>
      <trkpt lat="44.00135" lon="7.31055">
        <ele>538.2</ele>
        <time>2024-07-09T10:32:37Z</time>
      </trkpt>
      <trkpt lat="44.00136" lon="7.31053">
        <ele>538.2</ele>
        <time>2024-07-09T10:32:38Z</time>
      </trkpt>
      <trkpt lat="44.00138" lon="7.31047">
        <ele>538.2</ele>
        <time>2024-07-09T10:32:39Z</time>
      </trkpt>
      <trkpt lat="44.00139" lon="7.31045">
        <ele>538.2</ele>
        <time>2024-07-09T10:32:40Z</time>
      </trkpt>
      <trkpt lat="44.00142" lon="7.31039">
        <ele>538.6</ele>
        <time>2024-07-09T10:32:41Z</time>
      </trkpt>
      <trkpt lat="44.00142" lon="7.31037">
        <ele>538.8</ele>
        <time>2024-07-09T10:32:42Z</time>
      </trkpt>
      <trkpt lat="44.00145" lon="7.3103">
        <ele>538.8</ele>
        <time>2024-07-09T10:32:43Z</time>
      </trkpt>
      <trkpt lat="44.00146" lon="7.31028">
        <ele>538.8</ele>
        <time>2024-07-09T10:32:44Z</time>
      </trkpt>
      <trkpt lat="44.00147" lon="7.31024">
        <ele>538.8</ele>
        <time>2024-07-09T10:32:45Z</time>
      </trkpt>
      <trkpt lat="44.00149" lon="7.3102">
        <ele>539</ele>
        <time>2024-07-09T10:32:46Z</time>
      </trkpt>
      <trkpt lat="44.00151" lon="7.31017">
        <ele>539</ele>
        <time>2024-07-09T10:32:47Z</time>
      </trkpt>
      <trkpt lat="44.00152" lon="7.31013">
        <ele>539</ele>
        <time>2024-07-09T10:32:48Z</time>
      </trkpt>
      <trkpt lat="44.00154" lon="7.3101">
        <ele>539</ele>
        <time>2024-07-09T10:32:49Z</time>
      </trkpt>
      <trkpt lat="44.00156" lon="7.31005">
        <ele>539</ele>
        <time>2024-07-09T10:32:50Z</time>
      </trkpt>
      <trkpt lat="44.00157" lon="7.31004">
        <ele>539.2</ele>
        <time>2024-07-09T10:32:51Z</time>
      </trkpt>
      <trkpt lat="44.00157" lon="7.31002">
        <ele>539.2</ele>
        <time>2024-07-09T10:32:52Z</time>
      </trkpt>
      <trkpt lat="44.00158" lon="7.31001">
        <ele>539.2</ele>
        <time>2024-07-09T10:32:53Z</time>
      </trkpt>
      <trkpt lat="44.00158" lon="7.31001">
        <ele>539.2</ele>
        <time>2024-07-09T10:32:54Z</time>
      </trkpt>
      <trkpt lat="44.00158" lon="7.31001">
        <ele>539</ele>
        <time>2024-07-09T10:32:55Z</time>
      </trkpt>
      <trkpt lat="44.0016" lon="7.30997">
        <ele>539</ele>
        <time>2024-07-09T10:33:25Z</time>
      </trkpt>
      <trkpt lat="44.00162" lon="7.30994">
        <ele>539.2</ele>
        <time>2024-07-09T10:33:26Z</time>
      </trkpt>
      <trkpt lat="44.00163" lon="7.30991">
        <ele>539.2</ele>
        <time>2024-07-09T10:33:27Z</time>
      </trkpt>
      <trkpt lat="44.00164" lon="7.30987">
        <ele>539.2</ele>
        <time>2024-07-09T10:33:28Z</time>
      </trkpt>
      <trkpt lat="44.00165" lon="7.30984">
        <ele>539.2</ele>
        <time>2024-07-09T10:33:29Z</time>
      </trkpt>
      <trkpt lat="44.00167" lon="7.3098">
        <ele>539.2</ele>
        <time>2024-07-09T10:33:30Z</time>
      </trkpt>
      <trkpt lat="44.00168" lon="7.30977">
        <ele>539.2</ele>
        <time>2024-07-09T10:33:31Z</time>
      </trkpt>
      <trkpt lat="44.0017" lon="7.30973">
        <ele>539.2</ele>
        <time>2024-07-09T10:33:32Z</time>
      </trkpt>
      <trkpt lat="44.00171" lon="7.30969">
        <ele>539.2</ele>
        <time>2024-07-09T10:33:33Z</time>
      </trkpt>
      <trkpt lat="44.00172" lon="7.30965">
        <ele>539.2</ele>
        <time>2024-07-09T10:33:34Z</time>
      </trkpt>
      <trkpt lat="44.00174" lon="7.30961">
        <ele>539.2</ele>
        <time>2024-07-09T10:33:35Z</time>
      </trkpt>
      <trkpt lat="44.00176" lon="7.30958">
        <ele>539.2</ele>
        <time>2024-07-09T10:33:36Z</time>
      </trkpt>
      <trkpt lat="44.00177" lon="7.30954">
        <ele>539.2</ele>
        <time>2024-07-09T10:33:37Z</time>
      </trkpt>
      <trkpt lat="44.00179" lon="7.3095">
        <ele>539.2</ele>
        <time>2024-07-09T10:33:38Z</time>
      </trkpt>
      <trkpt lat="44.00182" lon="7.30944">
        <ele>539.4</ele>
        <time>2024-07-09T10:33:39Z</time>
      </trkpt>
      <trkpt lat="44.00183" lon="7.30942">
        <ele>539.8</ele>
        <time>2024-07-09T10:33:40Z</time>
      </trkpt>
      <trkpt lat="44.00186" lon="7.30937">
        <ele>539.8</ele>
        <time>2024-07-09T10:33:41Z</time>
      </trkpt>
      <trkpt lat="44.00187" lon="7.30936">
        <ele>539.8</ele>
        <time>2024-07-09T10:33:42Z</time>
      </trkpt>
      <trkpt lat="44.00189" lon="7.30932">
        <ele>540.4</ele>
        <time>2024-07-09T10:33:43Z</time>
      </trkpt>
      <trkpt lat="44.0019" lon="7.30931">
        <ele>540.4</ele>
        <time>2024-07-09T10:33:44Z</time>
      </trkpt>
      <trkpt lat="44.00193" lon="7.30927">
        <ele>540.6</ele>
        <time>2024-07-09T10:33:45Z</time>
      </trkpt>
      <trkpt lat="44.00194" lon="7.30927">
        <ele>540.6</ele>
        <time>2024-07-09T10:33:46Z</time>
      </trkpt>
      <trkpt lat="44.00197" lon="7.30924">
        <ele>541.2</ele>
        <time>2024-07-09T10:33:47Z</time>
      </trkpt>
      <trkpt lat="44.00198" lon="7.30923">
        <ele>541.2</ele>
        <time>2024-07-09T10:33:48Z</time>
      </trkpt>
      <trkpt lat="44.00201" lon="7.30922">
        <ele>541.2</ele>
        <time>2024-07-09T10:33:49Z</time>
      </trkpt>
      <trkpt lat="44.00202" lon="7.30921">
        <ele>541.2</ele>
        <time>2024-07-09T10:33:50Z</time>
      </trkpt>
      <trkpt lat="44.00204" lon="7.30921">
        <ele>541.2</ele>
        <time>2024-07-09T10:33:51Z</time>
      </trkpt>
      <trkpt lat="44.00207" lon="7.3092">
        <ele>541.6</ele>
        <time>2024-07-09T10:33:52Z</time>
      </trkpt>
      <trkpt lat="44.00209" lon="7.3092">
        <ele>541.8</ele>
        <time>2024-07-09T10:33:53Z</time>
      </trkpt>
      <trkpt lat="44.00212" lon="7.3092">
        <ele>541.8</ele>
        <time>2024-07-09T10:33:54Z</time>
      </trkpt>
      <trkpt lat="44.00213" lon="7.3092">
        <ele>541.8</ele>
        <time>2024-07-09T10:33:55Z</time>
      </trkpt>
      <trkpt lat="44.00215" lon="7.30921">
        <ele>542.2</ele>
        <time>2024-07-09T10:33:56Z</time>
      </trkpt>
      <trkpt lat="44.00218" lon="7.30921">
        <ele>542.2</ele>
        <time>2024-07-09T10:33:57Z</time>
      </trkpt>
      <trkpt lat="44.0022" lon="7.30921">
        <ele>542.2</ele>
        <time>2024-07-09T10:33:58Z</time>
      </trkpt>
      <trkpt lat="44.00222" lon="7.30921">
        <ele>542.2</ele>
        <time>2024-07-09T10:33:59Z</time>
      </trkpt>
      <trkpt lat="44.00224" lon="7.30921">
        <ele>542.2</ele>
        <time>2024-07-09T10:34:00Z</time>
      </trkpt>
      <trkpt lat="44.00226" lon="7.30922">
        <ele>542.2</ele>
        <time>2024-07-09T10:34:01Z</time>
      </trkpt>
      <trkpt lat="44.00229" lon="7.30923">
        <ele>542.6</ele>
        <time>2024-07-09T10:34:02Z</time>
      </trkpt>
      <trkpt lat="44.0023" lon="7.30923">
        <ele>542.4</ele>
        <time>2024-07-09T10:34:03Z</time>
      </trkpt>
      <trkpt lat="44.00231" lon="7.30924">
        <ele>542.4</ele>
        <time>2024-07-09T10:34:04Z</time>
      </trkpt>
      <trkpt lat="44.00233" lon="7.30924">
        <ele>542.4</ele>
        <time>2024-07-09T10:34:05Z</time>
      </trkpt>
      <trkpt lat="44.00235" lon="7.30924">
        <ele>542.8</ele>
        <time>2024-07-09T10:34:06Z</time>
      </trkpt>
      <trkpt lat="44.00238" lon="7.30925">
        <ele>542.8</ele>
        <time>2024-07-09T10:34:07Z</time>
      </trkpt>
      <trkpt lat="44.0024" lon="7.30926">
        <ele>542.8</ele>
        <time>2024-07-09T10:34:08Z</time>
      </trkpt>
      <trkpt lat="44.00241" lon="7.30926">
        <ele>542.8</ele>
        <time>2024-07-09T10:34:09Z</time>
      </trkpt>
      <trkpt lat="44.00244" lon="7.30927">
        <ele>543</ele>
        <time>2024-07-09T10:34:10Z</time>
      </trkpt>
      <trkpt lat="44.00245" lon="7.30928">
        <ele>543.4</ele>
        <time>2024-07-09T10:34:11Z</time>
      </trkpt>
      <trkpt lat="44.00247" lon="7.30928">
        <ele>543.4</ele>
        <time>2024-07-09T10:34:12Z</time>
      </trkpt>
      <trkpt lat="44.00249" lon="7.30929">
        <ele>543.4</ele>
        <time>2024-07-09T10:34:13Z</time>
      </trkpt>
      <trkpt lat="44.0025" lon="7.30929">
        <ele>543.4</ele>
        <time>2024-07-09T10:34:14Z</time>
      </trkpt>
      <trkpt lat="44.00252" lon="7.3093">
        <ele>543.4</ele>
        <time>2024-07-09T10:34:15Z</time>
      </trkpt>
      <trkpt lat="44.00254" lon="7.30931">
        <ele>543.8</ele>
        <time>2024-07-09T10:34:16Z</time>
      </trkpt>
      <trkpt lat="44.00256" lon="7.30932">
        <ele>543.8</ele>
        <time>2024-07-09T10:34:17Z</time>
      </trkpt>
      <trkpt lat="44.00258" lon="7.30933">
        <ele>543.8</ele>
        <time>2024-07-09T10:34:18Z</time>
      </trkpt>
      <trkpt lat="44.00259" lon="7.30934">
        <ele>544.2</ele>
        <time>2024-07-09T10:34:19Z</time>
      </trkpt>
      <trkpt lat="44.00261" lon="7.30934">
        <ele>544.4</ele>
        <time>2024-07-09T10:34:20Z</time>
      </trkpt>
      <trkpt lat="44.00262" lon="7.30935">
        <ele>544.4</ele>
        <time>2024-07-09T10:34:21Z</time>
      </trkpt>
      <trkpt lat="44.00263" lon="7.30936">
        <ele>544.4</ele>
        <time>2024-07-09T10:34:22Z</time>
      </trkpt>
      <trkpt lat="44.00265" lon="7.30937">
        <ele>545</ele>
        <time>2024-07-09T10:34:23Z</time>
      </trkpt>
      <trkpt lat="44.00266" lon="7.30937">
        <ele>545</ele>
        <time>2024-07-09T10:34:24Z</time>
      </trkpt>
      <trkpt lat="44.00268" lon="7.30938">
        <ele>545.2</ele>
        <time>2024-07-09T10:34:25Z</time>
      </trkpt>
      <trkpt lat="44.0027" lon="7.30939">
        <ele>545.2</ele>
        <time>2024-07-09T10:34:26Z</time>
      </trkpt>
      <trkpt lat="44.00273" lon="7.30939">
        <ele>545.2</ele>
        <time>2024-07-09T10:34:27Z</time>
      </trkpt>
      <trkpt lat="44.00274" lon="7.30939">
        <ele>546.2</ele>
        <time>2024-07-09T10:34:28Z</time>
      </trkpt>
      <trkpt lat="44.00276" lon="7.30939">
        <ele>546.2</ele>
        <time>2024-07-09T10:34:29Z</time>
      </trkpt>
      <trkpt lat="44.00278" lon="7.30939">
        <ele>546.2</ele>
        <time>2024-07-09T10:34:30Z</time>
      </trkpt>
      <trkpt lat="44.00279" lon="7.30938">
        <ele>546.2</ele>
        <time>2024-07-09T10:34:31Z</time>
      </trkpt>
      <trkpt lat="44.00282" lon="7.30938">
        <ele>546.6</ele>
        <time>2024-07-09T10:34:32Z</time>
      </trkpt>
      <trkpt lat="44.00283" lon="7.30938">
        <ele>546.6</ele>
        <time>2024-07-09T10:34:33Z</time>
      </trkpt>
      <trkpt lat="44.00286" lon="7.30937">
        <ele>546.6</ele>
        <time>2024-07-09T10:34:34Z</time>
      </trkpt>
      <trkpt lat="44.00287" lon="7.30937">
        <ele>546.6</ele>
        <time>2024-07-09T10:34:35Z</time>
      </trkpt>
      <trkpt lat="44.00289" lon="7.30937">
        <ele>547</ele>
        <time>2024-07-09T10:34:36Z</time>
      </trkpt>
      <trkpt lat="44.0029" lon="7.30936">
        <ele>547.2</ele>
        <time>2024-07-09T10:34:37Z</time>
      </trkpt>
      <trkpt lat="44.00293" lon="7.30935">
        <ele>547.2</ele>
        <time>2024-07-09T10:34:38Z</time>
      </trkpt>
      <trkpt lat="44.00294" lon="7.30935">
        <ele>547.2</ele>
        <time>2024-07-09T10:34:39Z</time>
      </trkpt>
      <trkpt lat="44.00295" lon="7.30934">
        <ele>547.2</ele>
        <time>2024-07-09T10:34:40Z</time>
      </trkpt>
      <trkpt lat="44.00298" lon="7.30933">
        <ele>547.6</ele>
        <time>2024-07-09T10:34:41Z</time>
      </trkpt>
      <trkpt lat="44.003" lon="7.30933">
        <ele>547.8</ele>
        <time>2024-07-09T10:34:42Z</time>
      </trkpt>
      <trkpt lat="44.00303" lon="7.30933">
        <ele>547.8</ele>
        <time>2024-07-09T10:34:43Z</time>
      </trkpt>
      <trkpt lat="44.00304" lon="7.30932">
        <ele>547.8</ele>
        <time>2024-07-09T10:34:44Z</time>
      </trkpt>
      <trkpt lat="44.00307" lon="7.30931">
        <ele>547.8</ele>
        <time>2024-07-09T10:34:45Z</time>
      </trkpt>
      <trkpt lat="44.00308" lon="7.30931">
        <ele>548.2</ele>
        <time>2024-07-09T10:34:46Z</time>
      </trkpt>
      <trkpt lat="44.00311" lon="7.3093">
        <ele>548.4</ele>
        <time>2024-07-09T10:34:47Z</time>
      </trkpt>
      <trkpt lat="44.00313" lon="7.3093">
        <ele>548.4</ele>
        <time>2024-07-09T10:34:48Z</time>
      </trkpt>
      <trkpt lat="44.00315" lon="7.30929">
        <ele>548.4</ele>
        <time>2024-07-09T10:34:49Z</time>
      </trkpt>
      <trkpt lat="44.00317" lon="7.30929">
        <ele>548.4</ele>
        <time>2024-07-09T10:34:50Z</time>
      </trkpt>
      <trkpt lat="44.00319" lon="7.30927">
        <ele>548.8</ele>
        <time>2024-07-09T10:34:51Z</time>
      </trkpt>
      <trkpt lat="44.00321" lon="7.30927">
        <ele>548.8</ele>
        <time>2024-07-09T10:34:52Z</time>
      </trkpt>
      <trkpt lat="44.00323" lon="7.30927">
        <ele>548.8</ele>
        <time>2024-07-09T10:34:53Z</time>
      </trkpt>
      <trkpt lat="44.00325" lon="7.30926">
        <ele>549.6</ele>
        <time>2024-07-09T10:34:54Z</time>
      </trkpt>
      <trkpt lat="44.00327" lon="7.30925">
        <ele>549.8</ele>
        <time>2024-07-09T10:34:55Z</time>
      </trkpt>
      <trkpt lat="44.00328" lon="7.30924">
        <ele>549.8</ele>
        <time>2024-07-09T10:34:56Z</time>
      </trkpt>
      <trkpt lat="44.0033" lon="7.30923">
        <ele>549.8</ele>
        <time>2024-07-09T10:34:57Z</time>
      </trkpt>
      <trkpt lat="44.00332" lon="7.30922">
        <ele>550.2</ele>
        <time>2024-07-09T10:34:58Z</time>
      </trkpt>
      <trkpt lat="44.00334" lon="7.30921">
        <ele>550.2</ele>
        <time>2024-07-09T10:34:59Z</time>
      </trkpt>
      <trkpt lat="44.00336" lon="7.30921">
        <ele>550.2</ele>
        <time>2024-07-09T10:35:00Z</time>
      </trkpt>
      <trkpt lat="44.00338" lon="7.3092">
        <ele>550.2</ele>
        <time>2024-07-09T10:35:01Z</time>
      </trkpt>
      <trkpt lat="44.00341" lon="7.30919">
        <ele>550.2</ele>
        <time>2024-07-09T10:35:02Z</time>
      </trkpt>
      <trkpt lat="44.00342" lon="7.30919">
        <ele>550.6</ele>
        <time>2024-07-09T10:35:03Z</time>
      </trkpt>
      <trkpt lat="44.00345" lon="7.30918">
        <ele>550.6</ele>
        <time>2024-07-09T10:35:04Z</time>
      </trkpt>
      <trkpt lat="44.00346" lon="7.30918">
        <ele>550.6</ele>
        <time>2024-07-09T10:35:05Z</time>
      </trkpt>
      <trkpt lat="44.00349" lon="7.30917">
        <ele>550.6</ele>
        <time>2024-07-09T10:35:06Z</time>
      </trkpt>
      <trkpt lat="44.0035" lon="7.30917">
        <ele>550.8</ele>
        <time>2024-07-09T10:35:07Z</time>
      </trkpt>
      <trkpt lat="44.00352" lon="7.30917">
        <ele>551</ele>
        <time>2024-07-09T10:35:08Z</time>
      </trkpt>
      <trkpt lat="44.00353" lon="7.30916">
        <ele>551</ele>
        <time>2024-07-09T10:35:09Z</time>
      </trkpt>
      <trkpt lat="44.00356" lon="7.30915">
        <ele>551</ele>
        <time>2024-07-09T10:35:10Z</time>
      </trkpt>
      <trkpt lat="44.00357" lon="7.30915">
        <ele>551.4</ele>
        <time>2024-07-09T10:35:11Z</time>
      </trkpt>
      <trkpt lat="44.0036" lon="7.30914">
        <ele>551.4</ele>
        <time>2024-07-09T10:35:12Z</time>
      </trkpt>
      <trkpt lat="44.00361" lon="7.30914">
        <ele>551.4</ele>
        <time>2024-07-09T10:35:13Z</time>
      </trkpt>
      <trkpt lat="44.00364" lon="7.30913">
        <ele>551.4</ele>
        <time>2024-07-09T10:35:14Z</time>
      </trkpt>
      <trkpt lat="44.00365" lon="7.30913">
        <ele>551.4</ele>
        <time>2024-07-09T10:35:15Z</time>
      </trkpt>
      <trkpt lat="44.00368" lon="7.30912">
        <ele>551.8</ele>
        <time>2024-07-09T10:35:16Z</time>
      </trkpt>
      <trkpt lat="44.00368" lon="7.30912">
        <ele>551.8</ele>
        <time>2024-07-09T10:35:17Z</time>
      </trkpt>
      <trkpt lat="44.0037" lon="7.30912">
        <ele>551.8</ele>
        <time>2024-07-09T10:35:18Z</time>
      </trkpt>
      <trkpt lat="44.00373" lon="7.30911">
        <ele>551.8</ele>
        <time>2024-07-09T10:35:19Z</time>
      </trkpt>
      <trkpt lat="44.00375" lon="7.30911">
        <ele>552.4</ele>
        <time>2024-07-09T10:35:20Z</time>
      </trkpt>
      <trkpt lat="44.00376" lon="7.30911">
        <ele>552.4</ele>
        <time>2024-07-09T10:35:21Z</time>
      </trkpt>
      <trkpt lat="44.00378" lon="7.30911">
        <ele>552.4</ele>
        <time>2024-07-09T10:35:22Z</time>
      </trkpt>
      <trkpt lat="44.0038" lon="7.30911">
        <ele>552.4</ele>
        <time>2024-07-09T10:35:23Z</time>
      </trkpt>
      <trkpt lat="44.00383" lon="7.30911">
        <ele>552.6</ele>
        <time>2024-07-09T10:35:24Z</time>
      </trkpt>
      <trkpt lat="44.00386" lon="7.30912">
        <ele>552.6</ele>
        <time>2024-07-09T10:35:25Z</time>
      </trkpt>
      <trkpt lat="44.00387" lon="7.30912">
        <ele>552.6</ele>
        <time>2024-07-09T10:35:26Z</time>
      </trkpt>
      <trkpt lat="44.00389" lon="7.30912">
        <ele>552.6</ele>
        <time>2024-07-09T10:35:27Z</time>
      </trkpt>
      <trkpt lat="44.00391" lon="7.30912">
        <ele>552.6</ele>
        <time>2024-07-09T10:35:28Z</time>
      </trkpt>
      <trkpt lat="44.00392" lon="7.30912">
        <ele>552.6</ele>
        <time>2024-07-09T10:35:29Z</time>
      </trkpt>
      <trkpt lat="44.00394" lon="7.30912">
        <ele>553</ele>
        <time>2024-07-09T10:35:30Z</time>
      </trkpt>
      <trkpt lat="44.00396" lon="7.30913">
        <ele>553.2</ele>
        <time>2024-07-09T10:35:31Z</time>
      </trkpt>
      <trkpt lat="44.00398" lon="7.30913">
        <ele>553.2</ele>
        <time>2024-07-09T10:35:32Z</time>
      </trkpt>
      <trkpt lat="44.004" lon="7.30913">
        <ele>553.2</ele>
        <time>2024-07-09T10:35:33Z</time>
      </trkpt>
      <trkpt lat="44.00402" lon="7.30913">
        <ele>553.2</ele>
        <time>2024-07-09T10:35:34Z</time>
      </trkpt>
      <trkpt lat="44.00404" lon="7.30913">
        <ele>553.6</ele>
        <time>2024-07-09T10:35:35Z</time>
      </trkpt>
      <trkpt lat="44.00406" lon="7.30913">
        <ele>553.6</ele>
        <time>2024-07-09T10:35:36Z</time>
      </trkpt>
      <trkpt lat="44.00408" lon="7.30913">
        <ele>553.6</ele>
        <time>2024-07-09T10:35:37Z</time>
      </trkpt>
      <trkpt lat="44.0041" lon="7.30914">
        <ele>554</ele>
        <time>2024-07-09T10:35:38Z</time>
      </trkpt>
      <trkpt lat="44.00411" lon="7.30914">
        <ele>554</ele>
        <time>2024-07-09T10:35:39Z</time>
      </trkpt>
      <trkpt lat="44.00413" lon="7.30914">
        <ele>554.2</ele>
        <time>2024-07-09T10:35:40Z</time>
      </trkpt>
      <trkpt lat="44.00415" lon="7.30914">
        <ele>554.2</ele>
        <time>2024-07-09T10:35:41Z</time>
      </trkpt>
      <trkpt lat="44.00418" lon="7.30914">
        <ele>554.2</ele>
        <time>2024-07-09T10:35:42Z</time>
      </trkpt>
      <trkpt lat="44.00419" lon="7.30914">
        <ele>555</ele>
        <time>2024-07-09T10:35:43Z</time>
      </trkpt>
      <trkpt lat="44.00422" lon="7.30914">
        <ele>555</ele>
        <time>2024-07-09T10:35:44Z</time>
      </trkpt>
      <trkpt lat="44.00423" lon="7.30914">
        <ele>555</ele>
        <time>2024-07-09T10:35:45Z</time>
      </trkpt>
      <trkpt lat="44.00425" lon="7.30914">
        <ele>555</ele>
        <time>2024-07-09T10:35:46Z</time>
      </trkpt>
      <trkpt lat="44.00426" lon="7.30914">
        <ele>556</ele>
        <time>2024-07-09T10:35:47Z</time>
      </trkpt>
      <trkpt lat="44.00428" lon="7.30915">
        <ele>556</ele>
        <time>2024-07-09T10:35:48Z</time>
      </trkpt>
      <trkpt lat="44.0043" lon="7.30915">
        <ele>556.2</ele>
        <time>2024-07-09T10:35:49Z</time>
      </trkpt>
      <trkpt lat="44.00432" lon="7.30915">
        <ele>556.2</ele>
        <time>2024-07-09T10:35:50Z</time>
      </trkpt>
      <trkpt lat="44.00434" lon="7.30916">
        <ele>556.2</ele>
        <time>2024-07-09T10:35:51Z</time>
      </trkpt>
      <trkpt lat="44.00436" lon="7.30917">
        <ele>556.4</ele>
        <time>2024-07-09T10:35:52Z</time>
      </trkpt>
      <trkpt lat="44.00439" lon="7.30917">
        <ele>556.4</ele>
        <time>2024-07-09T10:35:53Z</time>
      </trkpt>
      <trkpt lat="44.00442" lon="7.30918">
        <ele>556.4</ele>
        <time>2024-07-09T10:35:54Z</time>
      </trkpt>
      <trkpt lat="44.00443" lon="7.30918">
        <ele>556.4</ele>
        <time>2024-07-09T10:35:55Z</time>
      </trkpt>
      <trkpt lat="44.00446" lon="7.30919">
        <ele>557</ele>
        <time>2024-07-09T10:35:56Z</time>
      </trkpt>
      <trkpt lat="44.00447" lon="7.30919">
        <ele>557</ele>
        <time>2024-07-09T10:35:57Z</time>
      </trkpt>
      <trkpt lat="44.0045" lon="7.3092">
        <ele>557</ele>
        <time>2024-07-09T10:35:58Z</time>
      </trkpt>
      <trkpt lat="44.00451" lon="7.3092">
        <ele>557</ele>
        <time>2024-07-09T10:35:59Z</time>
      </trkpt>
      <trkpt lat="44.00453" lon="7.30921">
        <ele>557.4</ele>
        <time>2024-07-09T10:36:00Z</time>
      </trkpt>
      <trkpt lat="44.00454" lon="7.30922">
        <ele>557.4</ele>
        <time>2024-07-09T10:36:01Z</time>
      </trkpt>
      <trkpt lat="44.00457" lon="7.30922">
        <ele>557.4</ele>
        <time>2024-07-09T10:36:02Z</time>
      </trkpt>
      <trkpt lat="44.00458" lon="7.30922">
        <ele>557.4</ele>
        <time>2024-07-09T10:36:03Z</time>
      </trkpt>
      <trkpt lat="44.0046" lon="7.30923">
        <ele>557.4</ele>
        <time>2024-07-09T10:36:04Z</time>
      </trkpt>
      <trkpt lat="44.00462" lon="7.30924">
        <ele>557.6</ele>
        <time>2024-07-09T10:36:05Z</time>
      </trkpt>
      <trkpt lat="44.00464" lon="7.30925">
        <ele>558</ele>
        <time>2024-07-09T10:36:06Z</time>
      </trkpt>
      <trkpt lat="44.00466" lon="7.30925">
        <ele>558</ele>
        <time>2024-07-09T10:36:07Z</time>
      </trkpt>
      <trkpt lat="44.00468" lon="7.30926">
        <ele>558</ele>
        <time>2024-07-09T10:36:08Z</time>
      </trkpt>
      <trkpt lat="44.00469" lon="7.30927">
        <ele>558</ele>
        <time>2024-07-09T10:36:09Z</time>
      </trkpt>
      <trkpt lat="44.00472" lon="7.30927">
        <ele>558.4</ele>
        <time>2024-07-09T10:36:10Z</time>
      </trkpt>
      <trkpt lat="44.00473" lon="7.30928">
        <ele>558.6</ele>
        <time>2024-07-09T10:36:11Z</time>
      </trkpt>
      <trkpt lat="44.00476" lon="7.30929">
        <ele>558.6</ele>
        <time>2024-07-09T10:36:12Z</time>
      </trkpt>
      <trkpt lat="44.00477" lon="7.30929">
        <ele>558.6</ele>
        <time>2024-07-09T10:36:13Z</time>
      </trkpt>
      <trkpt lat="44.00479" lon="7.3093">
        <ele>558.8</ele>
        <time>2024-07-09T10:36:14Z</time>
      </trkpt>
      <trkpt lat="44.00481" lon="7.3093">
        <ele>558.8</ele>
        <time>2024-07-09T10:36:15Z</time>
      </trkpt>
      <trkpt lat="44.00482" lon="7.3093">
        <ele>559</ele>
        <time>2024-07-09T10:36:16Z</time>
      </trkpt>
      <trkpt lat="44.00484" lon="7.30931">
        <ele>559</ele>
        <time>2024-07-09T10:36:17Z</time>
      </trkpt>
      <trkpt lat="44.00486" lon="7.30932">
        <ele>559</ele>
        <time>2024-07-09T10:36:18Z</time>
      </trkpt>
      <trkpt lat="44.00488" lon="7.30932">
        <ele>560</ele>
        <time>2024-07-09T10:36:19Z</time>
      </trkpt>
      <trkpt lat="44.0049" lon="7.30933">
        <ele>560.2</ele>
        <time>2024-07-09T10:36:20Z</time>
      </trkpt>
      <trkpt lat="44.00492" lon="7.30933">
        <ele>560.2</ele>
        <time>2024-07-09T10:36:21Z</time>
      </trkpt>
      <trkpt lat="44.00494" lon="7.30933">
        <ele>560.2</ele>
        <time>2024-07-09T10:36:22Z</time>
      </trkpt>
      <trkpt lat="44.00496" lon="7.30933">
        <ele>560.8</ele>
        <time>2024-07-09T10:36:23Z</time>
      </trkpt>
      <trkpt lat="44.00498" lon="7.30933">
        <ele>560.8</ele>
        <time>2024-07-09T10:36:24Z</time>
      </trkpt>
      <trkpt lat="44.005" lon="7.30932">
        <ele>560.8</ele>
        <time>2024-07-09T10:36:25Z</time>
      </trkpt>
      <trkpt lat="44.00501" lon="7.30932">
        <ele>560.8</ele>
        <time>2024-07-09T10:36:26Z</time>
      </trkpt>
      <trkpt lat="44.00505" lon="7.30931">
        <ele>560.8</ele>
        <time>2024-07-09T10:36:27Z</time>
      </trkpt>
      <trkpt lat="44.00506" lon="7.30931">
        <ele>561.2</ele>
        <time>2024-07-09T10:36:28Z</time>
      </trkpt>
      <trkpt lat="44.00508" lon="7.30931">
        <ele>561.2</ele>
        <time>2024-07-09T10:36:29Z</time>
      </trkpt>
      <trkpt lat="44.0051" lon="7.3093">
        <ele>561.2</ele>
        <time>2024-07-09T10:36:30Z</time>
      </trkpt>
      <trkpt lat="44.00512" lon="7.3093">
        <ele>561.2</ele>
        <time>2024-07-09T10:36:31Z</time>
      </trkpt>
      <trkpt lat="44.00514" lon="7.30929">
        <ele>561.6</ele>
        <time>2024-07-09T10:36:32Z</time>
      </trkpt>
      <trkpt lat="44.00516" lon="7.30929">
        <ele>561.8</ele>
        <time>2024-07-09T10:36:33Z</time>
      </trkpt>
      <trkpt lat="44.00518" lon="7.30928">
        <ele>561.8</ele>
        <time>2024-07-09T10:36:34Z</time>
      </trkpt>
      <trkpt lat="44.0052" lon="7.30928">
        <ele>561.8</ele>
        <time>2024-07-09T10:36:35Z</time>
      </trkpt>
      <trkpt lat="44.00522" lon="7.30927">
        <ele>561.8</ele>
        <time>2024-07-09T10:36:36Z</time>
      </trkpt>
      <trkpt lat="44.00524" lon="7.30927">
        <ele>562</ele>
        <time>2024-07-09T10:36:37Z</time>
      </trkpt>
      <trkpt lat="44.00526" lon="7.30928">
        <ele>562</ele>
        <time>2024-07-09T10:36:38Z</time>
      </trkpt>
      <trkpt lat="44.00529" lon="7.30928">
        <ele>562</ele>
        <time>2024-07-09T10:36:39Z</time>
      </trkpt>
      <trkpt lat="44.0053" lon="7.30928">
        <ele>562</ele>
        <time>2024-07-09T10:36:40Z</time>
      </trkpt>
      <trkpt lat="44.00532" lon="7.30928">
        <ele>562.4</ele>
        <time>2024-07-09T10:36:41Z</time>
      </trkpt>
      <trkpt lat="44.00534" lon="7.30929">
        <ele>562.4</ele>
        <time>2024-07-09T10:36:42Z</time>
      </trkpt>
      <trkpt lat="44.00537" lon="7.30929">
        <ele>562.4</ele>
        <time>2024-07-09T10:36:43Z</time>
      </trkpt>
      <trkpt lat="44.00539" lon="7.3093">
        <ele>562.4</ele>
        <time>2024-07-09T10:36:44Z</time>
      </trkpt>
      <trkpt lat="44.00541" lon="7.3093">
        <ele>562.8</ele>
        <time>2024-07-09T10:36:45Z</time>
      </trkpt>
      <trkpt lat="44.00543" lon="7.30931">
        <ele>563</ele>
        <time>2024-07-09T10:36:46Z</time>
      </trkpt>
      <trkpt lat="44.00545" lon="7.30931">
        <ele>563</ele>
        <time>2024-07-09T10:36:47Z</time>
      </trkpt>
      <trkpt lat="44.00547" lon="7.30932">
        <ele>563</ele>
        <time>2024-07-09T10:36:48Z</time>
      </trkpt>
      <trkpt lat="44.00548" lon="7.30933">
        <ele>563.4</ele>
        <time>2024-07-09T10:36:49Z</time>
      </trkpt>
      <trkpt lat="44.0055" lon="7.30933">
        <ele>563.6</ele>
        <time>2024-07-09T10:36:50Z</time>
      </trkpt>
      <trkpt lat="44.00552" lon="7.30934">
        <ele>563.6</ele>
        <time>2024-07-09T10:36:51Z</time>
      </trkpt>
      <trkpt lat="44.00553" lon="7.30935">
        <ele>563.6</ele>
        <time>2024-07-09T10:36:52Z</time>
      </trkpt>
      <trkpt lat="44.00555" lon="7.30936">
        <ele>563.6</ele>
        <time>2024-07-09T10:36:53Z</time>
      </trkpt>
      <trkpt lat="44.00556" lon="7.30936">
        <ele>563.6</ele>
        <time>2024-07-09T10:36:54Z</time>
      </trkpt>
      <trkpt lat="44.00558" lon="7.30937">
        <ele>564</ele>
        <time>2024-07-09T10:36:55Z</time>
      </trkpt>
      <trkpt lat="44.00561" lon="7.30937">
        <ele>564</ele>
        <time>2024-07-09T10:36:56Z</time>
      </trkpt>
      <trkpt lat="44.00561" lon="7.30937">
        <ele>564</ele>
        <time>2024-07-09T10:36:57Z</time>
      </trkpt>
      <trkpt lat="44.00563" lon="7.30937">
        <ele>564</ele>
        <time>2024-07-09T10:36:58Z</time>
      </trkpt>
      <trkpt lat="44.00565" lon="7.30937">
        <ele>564.8</ele>
        <time>2024-07-09T10:36:59Z</time>
      </trkpt>
      <trkpt lat="44.00566" lon="7.30937">
        <ele>565</ele>
        <time>2024-07-09T10:37:00Z</time>
      </trkpt>
      <trkpt lat="44.00568" lon="7.30938">
        <ele>565</ele>
        <time>2024-07-09T10:37:01Z</time>
      </trkpt>
      <trkpt lat="44.00569" lon="7.30938">
        <ele>565</ele>
        <time>2024-07-09T10:37:02Z</time>
      </trkpt>
      <trkpt lat="44.00571" lon="7.30938">
        <ele>566</ele>
        <time>2024-07-09T10:37:03Z</time>
      </trkpt>
      <trkpt lat="44.00573" lon="7.30938">
        <ele>566.2</ele>
        <time>2024-07-09T10:37:04Z</time>
      </trkpt>
      <trkpt lat="44.00575" lon="7.30937">
        <ele>566.2</ele>
        <time>2024-07-09T10:37:05Z</time>
      </trkpt>
      <trkpt lat="44.00578" lon="7.30937">
        <ele>566.2</ele>
        <time>2024-07-09T10:37:06Z</time>
      </trkpt>
      <trkpt lat="44.0058" lon="7.30936">
        <ele>567</ele>
        <time>2024-07-09T10:37:07Z</time>
      </trkpt>
      <trkpt lat="44.00581" lon="7.30936">
        <ele>567.2</ele>
        <time>2024-07-09T10:37:08Z</time>
      </trkpt>
      <trkpt lat="44.00582" lon="7.30935">
        <ele>567.2</ele>
        <time>2024-07-09T10:37:09Z</time>
      </trkpt>
      <trkpt lat="44.00584" lon="7.30934">
        <ele>567.2</ele>
        <time>2024-07-09T10:37:10Z</time>
      </trkpt>
      <trkpt lat="44.00586" lon="7.30933">
        <ele>567.2</ele>
        <time>2024-07-09T10:37:11Z</time>
      </trkpt>
      <trkpt lat="44.00587" lon="7.30933">
        <ele>567.8</ele>
        <time>2024-07-09T10:37:12Z</time>
      </trkpt>
      <trkpt lat="44.00589" lon="7.30933">
        <ele>568</ele>
        <time>2024-07-09T10:37:13Z</time>
      </trkpt>
      <trkpt lat="44.0059" lon="7.30931">
        <ele>568</ele>
        <time>2024-07-09T10:37:14Z</time>
      </trkpt>
      <trkpt lat="44.00592" lon="7.3093">
        <ele>568</ele>
        <time>2024-07-09T10:37:15Z</time>
      </trkpt>
      <trkpt lat="44.00593" lon="7.30929">
        <ele>568.6</ele>
        <time>2024-07-09T10:37:16Z</time>
      </trkpt>
      <trkpt lat="44.00594" lon="7.30927">
        <ele>568.8</ele>
        <time>2024-07-09T10:37:17Z</time>
      </trkpt>
      <trkpt lat="44.00597" lon="7.30926">
        <ele>568.8</ele>
        <time>2024-07-09T10:37:18Z</time>
      </trkpt>
      <trkpt lat="44.00599" lon="7.30925">
        <ele>568.8</ele>
        <time>2024-07-09T10:37:19Z</time>
      </trkpt>
      <trkpt lat="44.00601" lon="7.30924">
        <ele>569.2</ele>
        <time>2024-07-09T10:37:20Z</time>
      </trkpt>
      <trkpt lat="44.00604" lon="7.30923">
        <ele>569.4</ele>
        <time>2024-07-09T10:37:21Z</time>
      </trkpt>
      <trkpt lat="44.00606" lon="7.30922">
        <ele>569.4</ele>
        <time>2024-07-09T10:37:22Z</time>
      </trkpt>
      <trkpt lat="44.00608" lon="7.30921">
        <ele>569.4</ele>
        <time>2024-07-09T10:37:23Z</time>
      </trkpt>
      <trkpt lat="44.00611" lon="7.30919">
        <ele>569.4</ele>
        <time>2024-07-09T10:37:24Z</time>
      </trkpt>
      <trkpt lat="44.00612" lon="7.30918">
        <ele>569.8</ele>
        <time>2024-07-09T10:37:25Z</time>
      </trkpt>
      <trkpt lat="44.00615" lon="7.30917">
        <ele>570.2</ele>
        <time>2024-07-09T10:37:26Z</time>
      </trkpt>
      <trkpt lat="44.00616" lon="7.30917">
        <ele>570.2</ele>
        <time>2024-07-09T10:37:27Z</time>
      </trkpt>
      <trkpt lat="44.00619" lon="7.30915">
        <ele>570.2</ele>
        <time>2024-07-09T10:37:28Z</time>
      </trkpt>
      <trkpt lat="44.0062" lon="7.30915">
        <ele>570.2</ele>
        <time>2024-07-09T10:37:29Z</time>
      </trkpt>
      <trkpt lat="44.00622" lon="7.30912">
        <ele>570.4</ele>
        <time>2024-07-09T10:37:30Z</time>
      </trkpt>
      <trkpt lat="44.00623" lon="7.30911">
        <ele>570.4</ele>
        <time>2024-07-09T10:37:31Z</time>
      </trkpt>
      <trkpt lat="44.00625" lon="7.3091">
        <ele>570.4</ele>
        <time>2024-07-09T10:37:32Z</time>
      </trkpt>
      <trkpt lat="44.00627" lon="7.30909">
        <ele>570.8</ele>
        <time>2024-07-09T10:37:33Z</time>
      </trkpt>
      <trkpt lat="44.00629" lon="7.30908">
        <ele>570.8</ele>
        <time>2024-07-09T10:37:34Z</time>
      </trkpt>
      <trkpt lat="44.00631" lon="7.30908">
        <ele>570.8</ele>
        <time>2024-07-09T10:37:35Z</time>
      </trkpt>
      <trkpt lat="44.00633" lon="7.30908">
        <ele>570.8</ele>
        <time>2024-07-09T10:37:36Z</time>
      </trkpt>
      <trkpt lat="44.00634" lon="7.30908">
        <ele>570.8</ele>
        <time>2024-07-09T10:37:37Z</time>
      </trkpt>
      <trkpt lat="44.00636" lon="7.30908">
        <ele>570.8</ele>
        <time>2024-07-09T10:37:38Z</time>
      </trkpt>
      <trkpt lat="44.00639" lon="7.30908">
        <ele>570.8</ele>
        <time>2024-07-09T10:37:39Z</time>
      </trkpt>
      <trkpt lat="44.0064" lon="7.30908">
        <ele>571</ele>
        <time>2024-07-09T10:37:40Z</time>
      </trkpt>
      <trkpt lat="44.00642" lon="7.30908">
        <ele>571</ele>
        <time>2024-07-09T10:37:41Z</time>
      </trkpt>
      <trkpt lat="44.00645" lon="7.30908">
        <ele>571</ele>
        <time>2024-07-09T10:37:42Z</time>
      </trkpt>
      <trkpt lat="44.00646" lon="7.30908">
        <ele>571.2</ele>
        <time>2024-07-09T10:37:43Z</time>
      </trkpt>
      <trkpt lat="44.00649" lon="7.30908">
        <ele>571.2</ele>
        <time>2024-07-09T10:37:44Z</time>
      </trkpt>
      <trkpt lat="44.0065" lon="7.30908">
        <ele>571.2</ele>
        <time>2024-07-09T10:37:45Z</time>
      </trkpt>
      <trkpt lat="44.00652" lon="7.30908">
        <ele>571.2</ele>
        <time>2024-07-09T10:37:46Z</time>
      </trkpt>
      <trkpt lat="44.00654" lon="7.30908">
        <ele>571.2</ele>
        <time>2024-07-09T10:37:47Z</time>
      </trkpt>
      <trkpt lat="44.00656" lon="7.30908">
        <ele>571.2</ele>
        <time>2024-07-09T10:37:48Z</time>
      </trkpt>
      <trkpt lat="44.00658" lon="7.30908">
        <ele>571.6</ele>
        <time>2024-07-09T10:37:49Z</time>
      </trkpt>
      <trkpt lat="44.0066" lon="7.30907">
        <ele>571.6</ele>
        <time>2024-07-09T10:37:50Z</time>
      </trkpt>
      <trkpt lat="44.00662" lon="7.30907">
        <ele>571.6</ele>
        <time>2024-07-09T10:37:51Z</time>
      </trkpt>
      <trkpt lat="44.00664" lon="7.30907">
        <ele>572.2</ele>
        <time>2024-07-09T10:37:52Z</time>
      </trkpt>
      <trkpt lat="44.00666" lon="7.30907">
        <ele>572.4</ele>
        <time>2024-07-09T10:37:53Z</time>
      </trkpt>
      <trkpt lat="44.00668" lon="7.30907">
        <ele>572.4</ele>
        <time>2024-07-09T10:37:54Z</time>
      </trkpt>
      <trkpt lat="44.00669" lon="7.30907">
        <ele>572.4</ele>
        <time>2024-07-09T10:37:55Z</time>
      </trkpt>
      <trkpt lat="44.00671" lon="7.30907">
        <ele>572.8</ele>
        <time>2024-07-09T10:37:56Z</time>
      </trkpt>
      <trkpt lat="44.00673" lon="7.30908">
        <ele>573.2</ele>
        <time>2024-07-09T10:37:57Z</time>
      </trkpt>
      <trkpt lat="44.00676" lon="7.30909">
        <ele>573.2</ele>
        <time>2024-07-09T10:37:58Z</time>
      </trkpt>
      <trkpt lat="44.00678" lon="7.30909">
        <ele>573.2</ele>
        <time>2024-07-09T10:37:59Z</time>
      </trkpt>
      <trkpt lat="44.0068" lon="7.3091">
        <ele>573.2</ele>
        <time>2024-07-09T10:38:00Z</time>
      </trkpt>
      <trkpt lat="44.00682" lon="7.3091">
        <ele>573.2</ele>
        <time>2024-07-09T10:38:01Z</time>
      </trkpt>
      <trkpt lat="44.00684" lon="7.30911">
        <ele>573.2</ele>
        <time>2024-07-09T10:38:02Z</time>
      </trkpt>
      <trkpt lat="44.00686" lon="7.30912">
        <ele>573.2</ele>
        <time>2024-07-09T10:38:03Z</time>
      </trkpt>
      <trkpt lat="44.00689" lon="7.30913">
        <ele>573.2</ele>
        <time>2024-07-09T10:38:04Z</time>
      </trkpt>
      <trkpt lat="44.0069" lon="7.30914">
        <ele>573.6</ele>
        <time>2024-07-09T10:38:05Z</time>
      </trkpt>
      <trkpt lat="44.00692" lon="7.30914">
        <ele>573.8</ele>
        <time>2024-07-09T10:38:06Z</time>
      </trkpt>
      <trkpt lat="44.00693" lon="7.30915">
        <ele>573.8</ele>
        <time>2024-07-09T10:38:07Z</time>
      </trkpt>
      <trkpt lat="44.00695" lon="7.30916">
        <ele>573.8</ele>
        <time>2024-07-09T10:38:08Z</time>
      </trkpt>
      <trkpt lat="44.00697" lon="7.30916">
        <ele>574</ele>
        <time>2024-07-09T10:38:09Z</time>
      </trkpt>
      <trkpt lat="44.00699" lon="7.30917">
        <ele>574.2</ele>
        <time>2024-07-09T10:38:10Z</time>
      </trkpt>
      <trkpt lat="44.00701" lon="7.30917">
        <ele>574.2</ele>
        <time>2024-07-09T10:38:11Z</time>
      </trkpt>
      <trkpt lat="44.00704" lon="7.30918">
        <ele>574.2</ele>
        <time>2024-07-09T10:38:12Z</time>
      </trkpt>
      <trkpt lat="44.00705" lon="7.30919">
        <ele>574.4</ele>
        <time>2024-07-09T10:38:13Z</time>
      </trkpt>
      <trkpt lat="44.00707" lon="7.3092">
        <ele>574.6</ele>
        <time>2024-07-09T10:38:14Z</time>
      </trkpt>
      <trkpt lat="44.00708" lon="7.3092">
        <ele>574.6</ele>
        <time>2024-07-09T10:38:15Z</time>
      </trkpt>
      <trkpt lat="44.00711" lon="7.30921">
        <ele>574.6</ele>
        <time>2024-07-09T10:38:16Z</time>
      </trkpt>
      <trkpt lat="44.00712" lon="7.30921">
        <ele>574.6</ele>
        <time>2024-07-09T10:38:17Z</time>
      </trkpt>
      <trkpt lat="44.00715" lon="7.30921">
        <ele>574.6</ele>
        <time>2024-07-09T10:38:18Z</time>
      </trkpt>
      <trkpt lat="44.00716" lon="7.30921">
        <ele>574.8</ele>
        <time>2024-07-09T10:38:19Z</time>
      </trkpt>
      <trkpt lat="44.00718" lon="7.30921">
        <ele>574.8</ele>
        <time>2024-07-09T10:38:20Z</time>
      </trkpt>
      <trkpt lat="44.00721" lon="7.30921">
        <ele>574.8</ele>
        <time>2024-07-09T10:38:21Z</time>
      </trkpt>
      <trkpt lat="44.00723" lon="7.30921">
        <ele>574.8</ele>
        <time>2024-07-09T10:38:22Z</time>
      </trkpt>
      <trkpt lat="44.00726" lon="7.30922">
        <ele>575.2</ele>
        <time>2024-07-09T10:38:23Z</time>
      </trkpt>
      <trkpt lat="44.00727" lon="7.30922">
        <ele>575.4</ele>
        <time>2024-07-09T10:38:24Z</time>
      </trkpt>
      <trkpt lat="44.0073" lon="7.30922">
        <ele>575.4</ele>
        <time>2024-07-09T10:38:25Z</time>
      </trkpt>
      <trkpt lat="44.00731" lon="7.30922">
        <ele>575.4</ele>
        <time>2024-07-09T10:38:26Z</time>
      </trkpt>
      <trkpt lat="44.00734" lon="7.30923">
        <ele>576</ele>
        <time>2024-07-09T10:38:27Z</time>
      </trkpt>
      <trkpt lat="44.00734" lon="7.30923">
        <ele>576</ele>
        <time>2024-07-09T10:38:28Z</time>
      </trkpt>
      <trkpt lat="44.00737" lon="7.30925">
        <ele>576</ele>
        <time>2024-07-09T10:38:29Z</time>
      </trkpt>
      <trkpt lat="44.00738" lon="7.30925">
        <ele>576</ele>
        <time>2024-07-09T10:38:30Z</time>
      </trkpt>
      <trkpt lat="44.00741" lon="7.30927">
        <ele>576.6</ele>
        <time>2024-07-09T10:38:31Z</time>
      </trkpt>
      <trkpt lat="44.00742" lon="7.30927">
        <ele>576.6</ele>
        <time>2024-07-09T10:38:32Z</time>
      </trkpt>
      <trkpt lat="44.00745" lon="7.30929">
        <ele>576.6</ele>
        <time>2024-07-09T10:38:33Z</time>
      </trkpt>
      <trkpt lat="44.00746" lon="7.30929">
        <ele>576.6</ele>
        <time>2024-07-09T10:38:34Z</time>
      </trkpt>
      <trkpt lat="44.00748" lon="7.30931">
        <ele>576.6</ele>
        <time>2024-07-09T10:38:35Z</time>
      </trkpt>
      <trkpt lat="44.00749" lon="7.30932">
        <ele>577.2</ele>
        <time>2024-07-09T10:38:36Z</time>
      </trkpt>
      <trkpt lat="44.00751" lon="7.30933">
        <ele>577.2</ele>
        <time>2024-07-09T10:38:37Z</time>
      </trkpt>
      <trkpt lat="44.00753" lon="7.30934">
        <ele>577.2</ele>
        <time>2024-07-09T10:38:38Z</time>
      </trkpt>
      <trkpt lat="44.00755" lon="7.30935">
        <ele>577.2</ele>
        <time>2024-07-09T10:38:39Z</time>
      </trkpt>
      <trkpt lat="44.00757" lon="7.30936">
        <ele>577.8</ele>
        <time>2024-07-09T10:38:40Z</time>
      </trkpt>
      <trkpt lat="44.00759" lon="7.30937">
        <ele>577.6</ele>
        <time>2024-07-09T10:38:41Z</time>
      </trkpt>
      <trkpt lat="44.00761" lon="7.30938">
        <ele>577.6</ele>
        <time>2024-07-09T10:38:42Z</time>
      </trkpt>
      <trkpt lat="44.00762" lon="7.30939">
        <ele>577.6</ele>
        <time>2024-07-09T10:38:43Z</time>
      </trkpt>
      <trkpt lat="44.00764" lon="7.3094">
        <ele>577.6</ele>
        <time>2024-07-09T10:38:44Z</time>
      </trkpt>
      <trkpt lat="44.00766" lon="7.30941">
        <ele>578.2</ele>
        <time>2024-07-09T10:38:45Z</time>
      </trkpt>
      <trkpt lat="44.00768" lon="7.30942">
        <ele>578.4</ele>
        <time>2024-07-09T10:38:46Z</time>
      </trkpt>
      <trkpt lat="44.00769" lon="7.30943">
        <ele>578.4</ele>
        <time>2024-07-09T10:38:47Z</time>
      </trkpt>
      <trkpt lat="44.00772" lon="7.30944">
        <ele>578.4</ele>
        <time>2024-07-09T10:38:48Z</time>
      </trkpt>
      <trkpt lat="44.00773" lon="7.30944">
        <ele>579.2</ele>
        <time>2024-07-09T10:38:49Z</time>
      </trkpt>
      <trkpt lat="44.00776" lon="7.30945">
        <ele>579.2</ele>
        <time>2024-07-09T10:38:50Z</time>
      </trkpt>
      <trkpt lat="44.00777" lon="7.30946">
        <ele>579.2</ele>
        <time>2024-07-09T10:38:51Z</time>
      </trkpt>
      <trkpt lat="44.00779" lon="7.30947">
        <ele>579.2</ele>
        <time>2024-07-09T10:38:52Z</time>
      </trkpt>
      <trkpt lat="44.0078" lon="7.30947">
        <ele>579.2</ele>
        <time>2024-07-09T10:38:53Z</time>
      </trkpt>
      <trkpt lat="44.00783" lon="7.30948">
        <ele>579.8</ele>
        <time>2024-07-09T10:38:54Z</time>
      </trkpt>
      <trkpt lat="44.00784" lon="7.30948">
        <ele>579.8</ele>
        <time>2024-07-09T10:38:55Z</time>
      </trkpt>
      <trkpt lat="44.00788" lon="7.30948">
        <ele>579.8</ele>
        <time>2024-07-09T10:38:56Z</time>
      </trkpt>
      <trkpt lat="44.00789" lon="7.30948">
        <ele>579.8</ele>
        <time>2024-07-09T10:38:57Z</time>
      </trkpt>
      <trkpt lat="44.00792" lon="7.30948">
        <ele>580.2</ele>
        <time>2024-07-09T10:38:58Z</time>
      </trkpt>
      <trkpt lat="44.00793" lon="7.30948">
        <ele>580.2</ele>
        <time>2024-07-09T10:38:59Z</time>
      </trkpt>
      <trkpt lat="44.00797" lon="7.30948">
        <ele>580.2</ele>
        <time>2024-07-09T10:39:00Z</time>
      </trkpt>
      <trkpt lat="44.00798" lon="7.30947">
        <ele>580.2</ele>
        <time>2024-07-09T10:39:01Z</time>
      </trkpt>
      <trkpt lat="44.00801" lon="7.30947">
        <ele>580.2</ele>
        <time>2024-07-09T10:39:02Z</time>
      </trkpt>
      <trkpt lat="44.00802" lon="7.30946">
        <ele>581</ele>
        <time>2024-07-09T10:39:03Z</time>
      </trkpt>
      <trkpt lat="44.00806" lon="7.30946">
        <ele>581</ele>
        <time>2024-07-09T10:39:04Z</time>
      </trkpt>
      <trkpt lat="44.00807" lon="7.30946">
        <ele>581</ele>
        <time>2024-07-09T10:39:05Z</time>
      </trkpt>
      <trkpt lat="44.0081" lon="7.30945">
        <ele>581</ele>
        <time>2024-07-09T10:39:06Z</time>
      </trkpt>
      <trkpt lat="44.00811" lon="7.30945">
        <ele>581</ele>
        <time>2024-07-09T10:39:07Z</time>
      </trkpt>
      <trkpt lat="44.00814" lon="7.30944">
        <ele>582</ele>
        <time>2024-07-09T10:39:08Z</time>
      </trkpt>
      <trkpt lat="44.00815" lon="7.30944">
        <ele>582</ele>
        <time>2024-07-09T10:39:09Z</time>
      </trkpt>
      <trkpt lat="44.00817" lon="7.30943">
        <ele>582</ele>
        <time>2024-07-09T10:39:10Z</time>
      </trkpt>
      <trkpt lat="44.00819" lon="7.30942">
        <ele>582</ele>
        <time>2024-07-09T10:39:11Z</time>
      </trkpt>
      <trkpt lat="44.00821" lon="7.30942">
        <ele>582.6</ele>
        <time>2024-07-09T10:39:12Z</time>
      </trkpt>
      <trkpt lat="44.00823" lon="7.30942">
        <ele>582.6</ele>
        <time>2024-07-09T10:39:13Z</time>
      </trkpt>
      <trkpt lat="44.00825" lon="7.30942">
        <ele>582.6</ele>
        <time>2024-07-09T10:39:14Z</time>
      </trkpt>
      <trkpt lat="44.00827" lon="7.30942">
        <ele>582.6</ele>
        <time>2024-07-09T10:39:15Z</time>
      </trkpt>
      <trkpt lat="44.00829" lon="7.30942">
        <ele>583</ele>
        <time>2024-07-09T10:39:16Z</time>
      </trkpt>
      <trkpt lat="44.00831" lon="7.30941">
        <ele>583.2</ele>
        <time>2024-07-09T10:39:17Z</time>
      </trkpt>
      <trkpt lat="44.00834" lon="7.30942">
        <ele>583.2</ele>
        <time>2024-07-09T10:39:18Z</time>
      </trkpt>
      <trkpt lat="44.00835" lon="7.30942">
        <ele>583.2</ele>
        <time>2024-07-09T10:39:19Z</time>
      </trkpt>
      <trkpt lat="44.00837" lon="7.30943">
        <ele>583.2</ele>
        <time>2024-07-09T10:39:20Z</time>
      </trkpt>
      <trkpt lat="44.00839" lon="7.30943">
        <ele>583.6</ele>
        <time>2024-07-09T10:39:21Z</time>
      </trkpt>
      <trkpt lat="44.00841" lon="7.30944">
        <ele>583.6</ele>
        <time>2024-07-09T10:39:22Z</time>
      </trkpt>
      <trkpt lat="44.00844" lon="7.30945">
        <ele>583.6</ele>
        <time>2024-07-09T10:39:23Z</time>
      </trkpt>
      <trkpt lat="44.00845" lon="7.30946">
        <ele>583.6</ele>
        <time>2024-07-09T10:39:24Z</time>
      </trkpt>
      <trkpt lat="44.00847" lon="7.30946">
        <ele>584.2</ele>
        <time>2024-07-09T10:39:25Z</time>
      </trkpt>
      <trkpt lat="44.00849" lon="7.30947">
        <ele>584.2</ele>
        <time>2024-07-09T10:39:26Z</time>
      </trkpt>
      <trkpt lat="44.00851" lon="7.30948">
        <ele>584.2</ele>
        <time>2024-07-09T10:39:27Z</time>
      </trkpt>
      <trkpt lat="44.00854" lon="7.3095">
        <ele>584.2</ele>
        <time>2024-07-09T10:39:28Z</time>
      </trkpt>
      <trkpt lat="44.00855" lon="7.30951">
        <ele>584.4</ele>
        <time>2024-07-09T10:39:29Z</time>
      </trkpt>
      <trkpt lat="44.00858" lon="7.30952">
        <ele>584.8</ele>
        <time>2024-07-09T10:39:30Z</time>
      </trkpt>
      <trkpt lat="44.00859" lon="7.30953">
        <ele>584.8</ele>
        <time>2024-07-09T10:39:31Z</time>
      </trkpt>
      <trkpt lat="44.00862" lon="7.30955">
        <ele>584.8</ele>
        <time>2024-07-09T10:39:32Z</time>
      </trkpt>
      <trkpt lat="44.00863" lon="7.30955">
        <ele>584.8</ele>
        <time>2024-07-09T10:39:33Z</time>
      </trkpt>
      <trkpt lat="44.00865" lon="7.30955">
        <ele>585.2</ele>
        <time>2024-07-09T10:39:34Z</time>
      </trkpt>
      <trkpt lat="44.00868" lon="7.30956">
        <ele>585.2</ele>
        <time>2024-07-09T10:39:35Z</time>
      </trkpt>
      <trkpt lat="44.0087" lon="7.30957">
        <ele>585.2</ele>
        <time>2024-07-09T10:39:36Z</time>
      </trkpt>
      <trkpt lat="44.00872" lon="7.30958">
        <ele>585.2</ele>
        <time>2024-07-09T10:39:37Z</time>
      </trkpt>
      <trkpt lat="44.00874" lon="7.30958">
        <ele>585.2</ele>
        <time>2024-07-09T10:39:38Z</time>
      </trkpt>
      <trkpt lat="44.00876" lon="7.30959">
        <ele>585.2</ele>
        <time>2024-07-09T10:39:39Z</time>
      </trkpt>
      <trkpt lat="44.00878" lon="7.30959">
        <ele>585.2</ele>
        <time>2024-07-09T10:39:40Z</time>
      </trkpt>
      <trkpt lat="44.0088" lon="7.3096">
        <ele>585.2</ele>
        <time>2024-07-09T10:39:41Z</time>
      </trkpt>
      <trkpt lat="44.00882" lon="7.3096">
        <ele>585.6</ele>
        <time>2024-07-09T10:39:42Z</time>
      </trkpt>
      <trkpt lat="44.00884" lon="7.3096">
        <ele>585.6</ele>
        <time>2024-07-09T10:39:43Z</time>
      </trkpt>
      <trkpt lat="44.00886" lon="7.30961">
        <ele>585.8</ele>
        <time>2024-07-09T10:39:44Z</time>
      </trkpt>
      <trkpt lat="44.00889" lon="7.30962">
        <ele>585.8</ele>
        <time>2024-07-09T10:39:45Z</time>
      </trkpt>
      <trkpt lat="44.00892" lon="7.30963">
        <ele>585.8</ele>
        <time>2024-07-09T10:39:46Z</time>
      </trkpt>
      <trkpt lat="44.00893" lon="7.30963">
        <ele>586.6</ele>
        <time>2024-07-09T10:39:47Z</time>
      </trkpt>
      <trkpt lat="44.00896" lon="7.30964">
        <ele>587</ele>
        <time>2024-07-09T10:39:48Z</time>
      </trkpt>
      <trkpt lat="44.00897" lon="7.30964">
        <ele>587</ele>
        <time>2024-07-09T10:39:49Z</time>
      </trkpt>
      <trkpt lat="44.009" lon="7.30964">
        <ele>587</ele>
        <time>2024-07-09T10:39:50Z</time>
      </trkpt>
      <trkpt lat="44.00901" lon="7.30964">
        <ele>587</ele>
        <time>2024-07-09T10:39:51Z</time>
      </trkpt>
      <trkpt lat="44.00903" lon="7.30964">
        <ele>588</ele>
        <time>2024-07-09T10:39:52Z</time>
      </trkpt>
      <trkpt lat="44.00904" lon="7.30964">
        <ele>588</ele>
        <time>2024-07-09T10:39:53Z</time>
      </trkpt>
      <trkpt lat="44.00907" lon="7.30963">
        <ele>588</ele>
        <time>2024-07-09T10:39:54Z</time>
      </trkpt>
      <trkpt lat="44.00908" lon="7.30963">
        <ele>588.6</ele>
        <time>2024-07-09T10:39:55Z</time>
      </trkpt>
      <trkpt lat="44.0091" lon="7.30963">
        <ele>588.6</ele>
        <time>2024-07-09T10:39:56Z</time>
      </trkpt>
      <trkpt lat="44.00912" lon="7.30963">
        <ele>588.8</ele>
        <time>2024-07-09T10:39:57Z</time>
      </trkpt>
      <trkpt lat="44.00914" lon="7.30963">
        <ele>588.8</ele>
        <time>2024-07-09T10:39:58Z</time>
      </trkpt>
      <trkpt lat="44.00917" lon="7.30961">
        <ele>588.8</ele>
        <time>2024-07-09T10:39:59Z</time>
      </trkpt>
      <trkpt lat="44.00918" lon="7.30961">
        <ele>589.6</ele>
        <time>2024-07-09T10:40:00Z</time>
      </trkpt>
      <trkpt lat="44.0092" lon="7.3096">
        <ele>589.6</ele>
        <time>2024-07-09T10:40:01Z</time>
      </trkpt>
      <trkpt lat="44.00921" lon="7.30959">
        <ele>589.6</ele>
        <time>2024-07-09T10:40:02Z</time>
      </trkpt>
      <trkpt lat="44.00924" lon="7.30958">
        <ele>589.6</ele>
        <time>2024-07-09T10:40:03Z</time>
      </trkpt>
      <trkpt lat="44.00925" lon="7.30957">
        <ele>590.4</ele>
        <time>2024-07-09T10:40:04Z</time>
      </trkpt>
      <trkpt lat="44.00927" lon="7.30957">
        <ele>590.4</ele>
        <time>2024-07-09T10:40:05Z</time>
      </trkpt>
      <trkpt lat="44.00929" lon="7.30956">
        <ele>590.8</ele>
        <time>2024-07-09T10:40:06Z</time>
      </trkpt>
      <trkpt lat="44.00931" lon="7.30955">
        <ele>590.8</ele>
        <time>2024-07-09T10:40:07Z</time>
      </trkpt>
      <trkpt lat="44.00933" lon="7.30954">
        <ele>590.8</ele>
        <time>2024-07-09T10:40:08Z</time>
      </trkpt>
      <trkpt lat="44.00935" lon="7.30953">
        <ele>591.2</ele>
        <time>2024-07-09T10:40:09Z</time>
      </trkpt>
      <trkpt lat="44.00937" lon="7.30952">
        <ele>591.6</ele>
        <time>2024-07-09T10:40:10Z</time>
      </trkpt>
      <trkpt lat="44.00938" lon="7.3095">
        <ele>591.6</ele>
        <time>2024-07-09T10:40:11Z</time>
      </trkpt>
      <trkpt lat="44.0094" lon="7.30949">
        <ele>591.6</ele>
        <time>2024-07-09T10:40:12Z</time>
      </trkpt>
      <trkpt lat="44.00942" lon="7.30949">
        <ele>592</ele>
        <time>2024-07-09T10:40:13Z</time>
      </trkpt>
      <trkpt lat="44.00944" lon="7.30947">
        <ele>592.2</ele>
        <time>2024-07-09T10:40:14Z</time>
      </trkpt>
      <trkpt lat="44.00946" lon="7.30947">
        <ele>592.2</ele>
        <time>2024-07-09T10:40:15Z</time>
      </trkpt>
      <trkpt lat="44.00949" lon="7.30945">
        <ele>592.2</ele>
        <time>2024-07-09T10:40:16Z</time>
      </trkpt>
      <trkpt lat="44.0095" lon="7.30944">
        <ele>592.2</ele>
        <time>2024-07-09T10:40:17Z</time>
      </trkpt>
      <trkpt lat="44.00953" lon="7.30942">
        <ele>592.8</ele>
        <time>2024-07-09T10:40:18Z</time>
      </trkpt>
      <trkpt lat="44.00954" lon="7.30941">
        <ele>593.2</ele>
        <time>2024-07-09T10:40:19Z</time>
      </trkpt>
      <trkpt lat="44.00957" lon="7.30939">
        <ele>593.2</ele>
        <time>2024-07-09T10:40:20Z</time>
      </trkpt>
      <trkpt lat="44.00958" lon="7.30938">
        <ele>593.2</ele>
        <time>2024-07-09T10:40:21Z</time>
      </trkpt>
      <trkpt lat="44.0096" lon="7.30936">
        <ele>593.8</ele>
        <time>2024-07-09T10:40:22Z</time>
      </trkpt>
      <trkpt lat="44.00961" lon="7.30935">
        <ele>593.8</ele>
        <time>2024-07-09T10:40:23Z</time>
      </trkpt>
      <trkpt lat="44.00964" lon="7.30932">
        <ele>594</ele>
        <time>2024-07-09T10:40:24Z</time>
      </trkpt>
      <trkpt lat="44.00965" lon="7.30931">
        <ele>594</ele>
        <time>2024-07-09T10:40:25Z</time>
      </trkpt>
      <trkpt lat="44.00966" lon="7.3093">
        <ele>594</ele>
        <time>2024-07-09T10:40:26Z</time>
      </trkpt>
      <trkpt lat="44.00968" lon="7.30928">
        <ele>594.4</ele>
        <time>2024-07-09T10:40:27Z</time>
      </trkpt>
      <trkpt lat="44.00969" lon="7.30926">
        <ele>594.6</ele>
        <time>2024-07-09T10:40:28Z</time>
      </trkpt>
      <trkpt lat="44.00972" lon="7.30923">
        <ele>594.6</ele>
        <time>2024-07-09T10:40:29Z</time>
      </trkpt>
      <trkpt lat="44.00973" lon="7.30922">
        <ele>594.6</ele>
        <time>2024-07-09T10:40:30Z</time>
      </trkpt>
      <trkpt lat="44.00975" lon="7.30919">
        <ele>594.6</ele>
        <time>2024-07-09T10:40:31Z</time>
      </trkpt>
      <trkpt lat="44.00976" lon="7.30918">
        <ele>594.8</ele>
        <time>2024-07-09T10:40:32Z</time>
      </trkpt>
      <trkpt lat="44.00978" lon="7.30914">
        <ele>595.2</ele>
        <time>2024-07-09T10:40:33Z</time>
      </trkpt>
      <trkpt lat="44.00978" lon="7.30913">
        <ele>595.2</ele>
        <time>2024-07-09T10:40:34Z</time>
      </trkpt>
      <trkpt lat="44.0098" lon="7.30909">
        <ele>595.2</ele>
        <time>2024-07-09T10:40:35Z</time>
      </trkpt>
      <trkpt lat="44.00981" lon="7.30908">
        <ele>595.4</ele>
        <time>2024-07-09T10:40:36Z</time>
      </trkpt>
      <trkpt lat="44.00983" lon="7.30904">
        <ele>595.4</ele>
        <time>2024-07-09T10:40:37Z</time>
      </trkpt>
      <trkpt lat="44.00984" lon="7.30903">
        <ele>595.4</ele>
        <time>2024-07-09T10:40:38Z</time>
      </trkpt>
      <trkpt lat="44.00986" lon="7.30899">
        <ele>595.4</ele>
        <time>2024-07-09T10:40:39Z</time>
      </trkpt>
      <trkpt lat="44.00986" lon="7.30898">
        <ele>596</ele>
        <time>2024-07-09T10:40:40Z</time>
      </trkpt>
      <trkpt lat="44.00988" lon="7.30894">
        <ele>595.8</ele>
        <time>2024-07-09T10:40:41Z</time>
      </trkpt>
      <trkpt lat="44.00989" lon="7.30893">
        <ele>595.8</ele>
        <time>2024-07-09T10:40:42Z</time>
      </trkpt>
      <trkpt lat="44.00991" lon="7.30889">
        <ele>595.8</ele>
        <time>2024-07-09T10:40:43Z</time>
      </trkpt>
      <trkpt lat="44.00992" lon="7.30888">
        <ele>595.8</ele>
        <time>2024-07-09T10:40:44Z</time>
      </trkpt>
      <trkpt lat="44.00993" lon="7.30886">
        <ele>596</ele>
        <time>2024-07-09T10:40:45Z</time>
      </trkpt>
      <trkpt lat="44.00994" lon="7.30884">
        <ele>596</ele>
        <time>2024-07-09T10:40:46Z</time>
      </trkpt>
      <trkpt lat="44.00996" lon="7.30882">
        <ele>596</ele>
        <time>2024-07-09T10:40:47Z</time>
      </trkpt>
      <trkpt lat="44.00997" lon="7.30879">
        <ele>596</ele>
        <time>2024-07-09T10:40:48Z</time>
      </trkpt>
      <trkpt lat="44.00998" lon="7.30877">
        <ele>596.6</ele>
        <time>2024-07-09T10:40:49Z</time>
      </trkpt>
      <trkpt lat="44.00999" lon="7.30874">
        <ele>596.6</ele>
        <time>2024-07-09T10:40:50Z</time>
      </trkpt>
      <trkpt lat="44.01001" lon="7.3087">
        <ele>596.6</ele>
        <time>2024-07-09T10:40:51Z</time>
      </trkpt>
      <trkpt lat="44.01001" lon="7.30869">
        <ele>596.6</ele>
        <time>2024-07-09T10:40:52Z</time>
      </trkpt>
      <trkpt lat="44.01003" lon="7.30865">
        <ele>596.8</ele>
        <time>2024-07-09T10:40:53Z</time>
      </trkpt>
      <trkpt lat="44.01004" lon="7.30864">
        <ele>596.8</ele>
        <time>2024-07-09T10:40:54Z</time>
      </trkpt>
      <trkpt lat="44.01005" lon="7.30862">
        <ele>596.8</ele>
        <time>2024-07-09T10:40:55Z</time>
      </trkpt>
      <trkpt lat="44.01006" lon="7.3086">
        <ele>596.8</ele>
        <time>2024-07-09T10:40:56Z</time>
      </trkpt>
      <trkpt lat="44.01008" lon="7.30857">
        <ele>596.8</ele>
        <time>2024-07-09T10:40:57Z</time>
      </trkpt>
      <trkpt lat="44.01009" lon="7.30855">
        <ele>597.6</ele>
        <time>2024-07-09T10:40:58Z</time>
      </trkpt>
      <trkpt lat="44.0101" lon="7.30852">
        <ele>597.6</ele>
        <time>2024-07-09T10:40:59Z</time>
      </trkpt>
      <trkpt lat="44.01011" lon="7.30849">
        <ele>597.6</ele>
        <time>2024-07-09T10:41:00Z</time>
      </trkpt>
      <trkpt lat="44.01014" lon="7.30845">
        <ele>597.6</ele>
        <time>2024-07-09T10:41:01Z</time>
      </trkpt>
      <trkpt lat="44.01014" lon="7.30844">
        <ele>598</ele>
        <time>2024-07-09T10:41:02Z</time>
      </trkpt>
      <trkpt lat="44.01016" lon="7.3084">
        <ele>598.4</ele>
        <time>2024-07-09T10:41:03Z</time>
      </trkpt>
      <trkpt lat="44.01017" lon="7.30839">
        <ele>598.4</ele>
        <time>2024-07-09T10:41:04Z</time>
      </trkpt>
      <trkpt lat="44.01019" lon="7.30835">
        <ele>598.4</ele>
        <time>2024-07-09T10:41:05Z</time>
      </trkpt>
      <trkpt lat="44.01019" lon="7.30834">
        <ele>598.8</ele>
        <time>2024-07-09T10:41:06Z</time>
      </trkpt>
      <trkpt lat="44.01021" lon="7.3083">
        <ele>598.8</ele>
        <time>2024-07-09T10:41:07Z</time>
      </trkpt>
      <trkpt lat="44.01022" lon="7.30829">
        <ele>599</ele>
        <time>2024-07-09T10:41:08Z</time>
      </trkpt>
      <trkpt lat="44.01023" lon="7.30827">
        <ele>599</ele>
        <time>2024-07-09T10:41:09Z</time>
      </trkpt>
      <trkpt lat="44.01024" lon="7.30825">
        <ele>599</ele>
        <time>2024-07-09T10:41:10Z</time>
      </trkpt>
      <trkpt lat="44.01025" lon="7.30822">
        <ele>599.4</ele>
        <time>2024-07-09T10:41:11Z</time>
      </trkpt>
      <trkpt lat="44.01027" lon="7.3082">
        <ele>599.2</ele>
        <time>2024-07-09T10:41:12Z</time>
      </trkpt>
      <trkpt lat="44.01028" lon="7.30817">
        <ele>599.2</ele>
        <time>2024-07-09T10:41:13Z</time>
      </trkpt>
      <trkpt lat="44.01029" lon="7.30815">
        <ele>599.2</ele>
        <time>2024-07-09T10:41:14Z</time>
      </trkpt>
      <trkpt lat="44.01031" lon="7.30811">
        <ele>599.2</ele>
        <time>2024-07-09T10:41:15Z</time>
      </trkpt>
      <trkpt lat="44.01032" lon="7.3081">
        <ele>599.8</ele>
        <time>2024-07-09T10:41:16Z</time>
      </trkpt>
      <trkpt lat="44.01033" lon="7.30806">
        <ele>600</ele>
        <time>2024-07-09T10:41:17Z</time>
      </trkpt>
      <trkpt lat="44.01034" lon="7.30805">
        <ele>600</ele>
        <time>2024-07-09T10:41:18Z</time>
      </trkpt>
      <trkpt lat="44.01036" lon="7.30802">
        <ele>600</ele>
        <time>2024-07-09T10:41:19Z</time>
      </trkpt>
      <trkpt lat="44.01036" lon="7.308">
        <ele>600.6</ele>
        <time>2024-07-09T10:41:20Z</time>
      </trkpt>
      <trkpt lat="44.01037" lon="7.30798">
        <ele>600.8</ele>
        <time>2024-07-09T10:41:21Z</time>
      </trkpt>
      <trkpt lat="44.01038" lon="7.30795">
        <ele>600.8</ele>
        <time>2024-07-09T10:41:22Z</time>
      </trkpt>
      <trkpt lat="44.01039" lon="7.30793">
        <ele>600.8</ele>
        <time>2024-07-09T10:41:23Z</time>
      </trkpt>
      <trkpt lat="44.0104" lon="7.3079">
        <ele>600.8</ele>
        <time>2024-07-09T10:41:24Z</time>
      </trkpt>
      <trkpt lat="44.01041" lon="7.30789">
        <ele>600.8</ele>
        <time>2024-07-09T10:41:25Z</time>
      </trkpt>
      <trkpt lat="44.01042" lon="7.30786">
        <ele>601.8</ele>
        <time>2024-07-09T10:41:26Z</time>
      </trkpt>
      <trkpt lat="44.01042" lon="7.30784">
        <ele>601.8</ele>
        <time>2024-07-09T10:41:27Z</time>
      </trkpt>
      <trkpt lat="44.01043" lon="7.3078">
        <ele>601.8</ele>
        <time>2024-07-09T10:41:28Z</time>
      </trkpt>
      <trkpt lat="44.01043" lon="7.30779">
        <ele>601.8</ele>
        <time>2024-07-09T10:41:29Z</time>
      </trkpt>
      <trkpt lat="44.01044" lon="7.30775">
        <ele>602.2</ele>
        <time>2024-07-09T10:41:30Z</time>
      </trkpt>
      <trkpt lat="44.01044" lon="7.30774">
        <ele>602.2</ele>
        <time>2024-07-09T10:41:31Z</time>
      </trkpt>
      <trkpt lat="44.01045" lon="7.30771">
        <ele>602.2</ele>
        <time>2024-07-09T10:41:32Z</time>
      </trkpt>
      <trkpt lat="44.01046" lon="7.30768">
        <ele>602.8</ele>
        <time>2024-07-09T10:41:33Z</time>
      </trkpt>
      <trkpt lat="44.01047" lon="7.30766">
        <ele>602.8</ele>
        <time>2024-07-09T10:41:34Z</time>
      </trkpt>
      <trkpt lat="44.01048" lon="7.30763">
        <ele>602.8</ele>
        <time>2024-07-09T10:41:35Z</time>
      </trkpt>
      <trkpt lat="44.01049" lon="7.30761">
        <ele>602.8</ele>
        <time>2024-07-09T10:41:36Z</time>
      </trkpt>
      <trkpt lat="44.01049" lon="7.30758">
        <ele>602.8</ele>
        <time>2024-07-09T10:41:37Z</time>
      </trkpt>
      <trkpt lat="44.01049" lon="7.30755">
        <ele>603.2</ele>
        <time>2024-07-09T10:41:38Z</time>
      </trkpt>
      <trkpt lat="44.0105" lon="7.30753">
        <ele>603.6</ele>
        <time>2024-07-09T10:41:39Z</time>
      </trkpt>
      <trkpt lat="44.0105" lon="7.30749">
        <ele>603.6</ele>
        <time>2024-07-09T10:41:40Z</time>
      </trkpt>
      <trkpt lat="44.0105" lon="7.30748">
        <ele>603.6</ele>
        <time>2024-07-09T10:41:41Z</time>
      </trkpt>
      <trkpt lat="44.0105" lon="7.30743">
        <ele>603.8</ele>
        <time>2024-07-09T10:41:42Z</time>
      </trkpt>
      <trkpt lat="44.0105" lon="7.30742">
        <ele>603.8</ele>
        <time>2024-07-09T10:41:43Z</time>
      </trkpt>
      <trkpt lat="44.0105" lon="7.30737">
        <ele>603.8</ele>
        <time>2024-07-09T10:41:44Z</time>
      </trkpt>
      <trkpt lat="44.0105" lon="7.30736">
        <ele>603.8</ele>
        <time>2024-07-09T10:41:45Z</time>
      </trkpt>
      <trkpt lat="44.0105" lon="7.30731">
        <ele>604.2</ele>
        <time>2024-07-09T10:41:46Z</time>
      </trkpt>
      <trkpt lat="44.01049" lon="7.30729">
        <ele>604.2</ele>
        <time>2024-07-09T10:41:47Z</time>
      </trkpt>
      <trkpt lat="44.01049" lon="7.30725">
        <ele>604.2</ele>
        <time>2024-07-09T10:41:48Z</time>
      </trkpt>
      <trkpt lat="44.01049" lon="7.30723">
        <ele>604.2</ele>
        <time>2024-07-09T10:41:49Z</time>
      </trkpt>
      <trkpt lat="44.01048" lon="7.30719">
        <ele>604.2</ele>
        <time>2024-07-09T10:41:50Z</time>
      </trkpt>
      <trkpt lat="44.01048" lon="7.30717">
        <ele>604.8</ele>
        <time>2024-07-09T10:41:51Z</time>
      </trkpt>
      <trkpt lat="44.01048" lon="7.30714">
        <ele>604.8</ele>
        <time>2024-07-09T10:41:52Z</time>
      </trkpt>
      <trkpt lat="44.01049" lon="7.30711">
        <ele>605</ele>
        <time>2024-07-09T10:41:53Z</time>
      </trkpt>
      <trkpt lat="44.0105" lon="7.30708">
        <ele>605</ele>
        <time>2024-07-09T10:41:54Z</time>
      </trkpt>
      <trkpt lat="44.0105" lon="7.30705">
        <ele>605</ele>
        <time>2024-07-09T10:41:55Z</time>
      </trkpt>
      <trkpt lat="44.01051" lon="7.30702">
        <ele>605</ele>
        <time>2024-07-09T10:41:56Z</time>
      </trkpt>
      <trkpt lat="44.01052" lon="7.30699">
        <ele>605.6</ele>
        <time>2024-07-09T10:41:57Z</time>
      </trkpt>
      <trkpt lat="44.01054" lon="7.30697">
        <ele>605.6</ele>
        <time>2024-07-09T10:41:58Z</time>
      </trkpt>
      <trkpt lat="44.01055" lon="7.30694">
        <ele>605.6</ele>
        <time>2024-07-09T10:41:59Z</time>
      </trkpt>
      <trkpt lat="44.01058" lon="7.30691">
        <ele>606.2</ele>
        <time>2024-07-09T10:42:00Z</time>
      </trkpt>
      <trkpt lat="44.01058" lon="7.3069">
        <ele>606.2</ele>
        <time>2024-07-09T10:42:01Z</time>
      </trkpt>
      <trkpt lat="44.01061" lon="7.30686">
        <ele>606</ele>
        <time>2024-07-09T10:42:02Z</time>
      </trkpt>
      <trkpt lat="44.01062" lon="7.30685">
        <ele>606</ele>
        <time>2024-07-09T10:42:03Z</time>
      </trkpt>
      <trkpt lat="44.01064" lon="7.30682">
        <ele>606</ele>
        <time>2024-07-09T10:42:04Z</time>
      </trkpt>
      <trkpt lat="44.01065" lon="7.3068">
        <ele>606.8</ele>
        <time>2024-07-09T10:42:05Z</time>
      </trkpt>
      <trkpt lat="44.01067" lon="7.30678">
        <ele>607</ele>
        <time>2024-07-09T10:42:06Z</time>
      </trkpt>
      <trkpt lat="44.01069" lon="7.30676">
        <ele>607</ele>
        <time>2024-07-09T10:42:07Z</time>
      </trkpt>
      <trkpt lat="44.01071" lon="7.30674">
        <ele>607</ele>
        <time>2024-07-09T10:42:08Z</time>
      </trkpt>
      <trkpt lat="44.01073" lon="7.30673">
        <ele>607.8</ele>
        <time>2024-07-09T10:42:09Z</time>
      </trkpt>
      <trkpt lat="44.01075" lon="7.30672">
        <ele>607.6</ele>
        <time>2024-07-09T10:42:10Z</time>
      </trkpt>
      <trkpt lat="44.01077" lon="7.30671">
        <ele>607.6</ele>
        <time>2024-07-09T10:42:11Z</time>
      </trkpt>
      <trkpt lat="44.01079" lon="7.3067">
        <ele>607.6</ele>
        <time>2024-07-09T10:42:12Z</time>
      </trkpt>
      <trkpt lat="44.01081" lon="7.3067">
        <ele>607.6</ele>
        <time>2024-07-09T10:42:13Z</time>
      </trkpt>
      <trkpt lat="44.01083" lon="7.3067">
        <ele>608.2</ele>
        <time>2024-07-09T10:42:14Z</time>
      </trkpt>
      <trkpt lat="44.01085" lon="7.3067">
        <ele>608.2</ele>
        <time>2024-07-09T10:42:15Z</time>
      </trkpt>
      <trkpt lat="44.01087" lon="7.3067">
        <ele>608.2</ele>
        <time>2024-07-09T10:42:16Z</time>
      </trkpt>
      <trkpt lat="44.01089" lon="7.30671">
        <ele>608.2</ele>
        <time>2024-07-09T10:42:17Z</time>
      </trkpt>
      <trkpt lat="44.01091" lon="7.30672">
        <ele>608.2</ele>
        <time>2024-07-09T10:42:18Z</time>
      </trkpt>
      <trkpt lat="44.01095" lon="7.30675">
        <ele>608.2</ele>
        <time>2024-07-09T10:42:19Z</time>
      </trkpt>
      <trkpt lat="44.01096" lon="7.30676">
        <ele>608.2</ele>
        <time>2024-07-09T10:42:20Z</time>
      </trkpt>
      <trkpt lat="44.01098" lon="7.30678">
        <ele>608.2</ele>
        <time>2024-07-09T10:42:21Z</time>
      </trkpt>
      <trkpt lat="44.011" lon="7.30679">
        <ele>608.2</ele>
        <time>2024-07-09T10:42:22Z</time>
      </trkpt>
      <trkpt lat="44.01102" lon="7.30681">
        <ele>608.2</ele>
        <time>2024-07-09T10:42:23Z</time>
      </trkpt>
      <trkpt lat="44.01104" lon="7.30683">
        <ele>608.4</ele>
        <time>2024-07-09T10:42:24Z</time>
      </trkpt>
      <trkpt lat="44.01106" lon="7.30686">
        <ele>608.4</ele>
        <time>2024-07-09T10:42:25Z</time>
      </trkpt>
      <trkpt lat="44.01107" lon="7.30687">
        <ele>608.4</ele>
        <time>2024-07-09T10:42:26Z</time>
      </trkpt>
      <trkpt lat="44.0111" lon="7.3069">
        <ele>608.4</ele>
        <time>2024-07-09T10:42:27Z</time>
      </trkpt>
      <trkpt lat="44.01111" lon="7.30691">
        <ele>608.6</ele>
        <time>2024-07-09T10:42:28Z</time>
      </trkpt>
      <trkpt lat="44.01114" lon="7.30694">
        <ele>608.6</ele>
        <time>2024-07-09T10:42:29Z</time>
      </trkpt>
      <trkpt lat="44.01115" lon="7.30695">
        <ele>608.6</ele>
        <time>2024-07-09T10:42:30Z</time>
      </trkpt>
      <trkpt lat="44.01118" lon="7.30698">
        <ele>609</ele>
        <time>2024-07-09T10:42:31Z</time>
      </trkpt>
      <trkpt lat="44.01119" lon="7.30699">
        <ele>609.2</ele>
        <time>2024-07-09T10:42:32Z</time>
      </trkpt>
      <trkpt lat="44.01121" lon="7.307">
        <ele>609.2</ele>
        <time>2024-07-09T10:42:33Z</time>
      </trkpt>
      <trkpt lat="44.01123" lon="7.30702">
        <ele>609.2</ele>
        <time>2024-07-09T10:42:34Z</time>
      </trkpt>
      <trkpt lat="44.01126" lon="7.30704">
        <ele>609.2</ele>
        <time>2024-07-09T10:42:35Z</time>
      </trkpt>
      <trkpt lat="44.01128" lon="7.30706">
        <ele>609.2</ele>
        <time>2024-07-09T10:42:36Z</time>
      </trkpt>
      <trkpt lat="44.0113" lon="7.30708">
        <ele>609.8</ele>
        <time>2024-07-09T10:42:37Z</time>
      </trkpt>
      <trkpt lat="44.01133" lon="7.3071">
        <ele>609.8</ele>
        <time>2024-07-09T10:42:38Z</time>
      </trkpt>
      <trkpt lat="44.01137" lon="7.30714">
        <ele>609.8</ele>
        <time>2024-07-09T10:42:39Z</time>
      </trkpt>
      <trkpt lat="44.01138" lon="7.30716">
        <ele>609.8</ele>
        <time>2024-07-09T10:42:40Z</time>
      </trkpt>
      <trkpt lat="44.01142" lon="7.30721">
        <ele>609.2</ele>
        <time>2024-07-09T10:42:41Z</time>
      </trkpt>
      <trkpt lat="44.01143" lon="7.30723">
        <ele>609.4</ele>
        <time>2024-07-09T10:42:42Z</time>
      </trkpt>
      <trkpt lat="44.01148" lon="7.30728">
        <ele>609.4</ele>
        <time>2024-07-09T10:42:43Z</time>
      </trkpt>
      <trkpt lat="44.0115" lon="7.3073">
        <ele>609.4</ele>
        <time>2024-07-09T10:42:44Z</time>
      </trkpt>
      <trkpt lat="44.01154" lon="7.30735">
        <ele>609.4</ele>
        <time>2024-07-09T10:42:45Z</time>
      </trkpt>
      <trkpt lat="44.01156" lon="7.30737">
        <ele>609.4</ele>
        <time>2024-07-09T10:42:46Z</time>
      </trkpt>
      <trkpt lat="44.01161" lon="7.30743">
        <ele>609.4</ele>
        <time>2024-07-09T10:42:47Z</time>
      </trkpt>
      <trkpt lat="44.01162" lon="7.30745">
        <ele>609.4</ele>
        <time>2024-07-09T10:42:48Z</time>
      </trkpt>
      <trkpt lat="44.01167" lon="7.3075">
        <ele>609.4</ele>
        <time>2024-07-09T10:42:49Z</time>
      </trkpt>
      <trkpt lat="44.01169" lon="7.30752">
        <ele>609.4</ele>
        <time>2024-07-09T10:42:50Z</time>
      </trkpt>
      <trkpt lat="44.01173" lon="7.30757">
        <ele>609.2</ele>
        <time>2024-07-09T10:42:51Z</time>
      </trkpt>
      <trkpt lat="44.01175" lon="7.30759">
        <ele>609.2</ele>
        <time>2024-07-09T10:42:52Z</time>
      </trkpt>
      <trkpt lat="44.01178" lon="7.30763">
        <ele>609.2</ele>
        <time>2024-07-09T10:42:53Z</time>
      </trkpt>
      <trkpt lat="44.01181" lon="7.30766">
        <ele>609.2</ele>
        <time>2024-07-09T10:42:54Z</time>
      </trkpt>
      <trkpt lat="44.01187" lon="7.30772">
        <ele>609</ele>
        <time>2024-07-09T10:42:55Z</time>
      </trkpt>
      <trkpt lat="44.01188" lon="7.30773">
        <ele>609</ele>
        <time>2024-07-09T10:42:56Z</time>
      </trkpt>
      <trkpt lat="44.01192" lon="7.30777">
        <ele>609</ele>
        <time>2024-07-09T10:42:57Z</time>
      </trkpt>
      <trkpt lat="44.01197" lon="7.30783">
        <ele>609</ele>
        <time>2024-07-09T10:42:58Z</time>
      </trkpt>
      <trkpt lat="44.01198" lon="7.30785">
        <ele>608.6</ele>
        <time>2024-07-09T10:42:59Z</time>
      </trkpt>
      <trkpt lat="44.01201" lon="7.30789">
        <ele>608.2</ele>
        <time>2024-07-09T10:43:00Z</time>
      </trkpt>
      <trkpt lat="44.01205" lon="7.30793">
        <ele>608.2</ele>
        <time>2024-07-09T10:43:01Z</time>
      </trkpt>
      <trkpt lat="44.0121" lon="7.30798">
        <ele>608.2</ele>
        <time>2024-07-09T10:43:02Z</time>
      </trkpt>
      <trkpt lat="44.01211" lon="7.308">
        <ele>608.2</ele>
        <time>2024-07-09T10:43:03Z</time>
      </trkpt>
      <trkpt lat="44.01216" lon="7.30805">
        <ele>608</ele>
        <time>2024-07-09T10:43:04Z</time>
      </trkpt>
      <trkpt lat="44.01218" lon="7.30807">
        <ele>608</ele>
        <time>2024-07-09T10:43:05Z</time>
      </trkpt>
      <trkpt lat="44.01221" lon="7.30811">
        <ele>608</ele>
        <time>2024-07-09T10:43:06Z</time>
      </trkpt>
      <trkpt lat="44.01226" lon="7.30816">
        <ele>608</ele>
        <time>2024-07-09T10:43:07Z</time>
      </trkpt>
      <trkpt lat="44.01228" lon="7.30818">
        <ele>607.8</ele>
        <time>2024-07-09T10:43:08Z</time>
      </trkpt>
      <trkpt lat="44.01231" lon="7.30822">
        <ele>607.8</ele>
        <time>2024-07-09T10:43:09Z</time>
      </trkpt>
      <trkpt lat="44.01235" lon="7.30827">
        <ele>607.8</ele>
        <time>2024-07-09T10:43:10Z</time>
      </trkpt>
      <trkpt lat="44.01237" lon="7.30829">
        <ele>607.8</ele>
        <time>2024-07-09T10:43:11Z</time>
      </trkpt>
      <trkpt lat="44.01241" lon="7.30833">
        <ele>607.8</ele>
        <time>2024-07-09T10:43:12Z</time>
      </trkpt>
      <trkpt lat="44.01243" lon="7.30835">
        <ele>607.8</ele>
        <time>2024-07-09T10:43:13Z</time>
      </trkpt>
      <trkpt lat="44.01247" lon="7.3084">
        <ele>607.8</ele>
        <time>2024-07-09T10:43:14Z</time>
      </trkpt>
      <trkpt lat="44.01248" lon="7.30841">
        <ele>607.8</ele>
        <time>2024-07-09T10:43:15Z</time>
      </trkpt>
      <trkpt lat="44.01252" lon="7.30846">
        <ele>607.8</ele>
        <time>2024-07-09T10:43:16Z</time>
      </trkpt>
      <trkpt lat="44.01253" lon="7.30848">
        <ele>607.6</ele>
        <time>2024-07-09T10:43:17Z</time>
      </trkpt>
      <trkpt lat="44.01258" lon="7.30853">
        <ele>607.6</ele>
        <time>2024-07-09T10:43:18Z</time>
      </trkpt>
      <trkpt lat="44.01259" lon="7.30855">
        <ele>607.6</ele>
        <time>2024-07-09T10:43:19Z</time>
      </trkpt>
      <trkpt lat="44.01263" lon="7.30861">
        <ele>607.6</ele>
        <time>2024-07-09T10:43:20Z</time>
      </trkpt>
      <trkpt lat="44.01265" lon="7.30863">
        <ele>607.4</ele>
        <time>2024-07-09T10:43:21Z</time>
      </trkpt>
      <trkpt lat="44.01269" lon="7.30869">
        <ele>607.2</ele>
        <time>2024-07-09T10:43:22Z</time>
      </trkpt>
      <trkpt lat="44.0127" lon="7.30871">
        <ele>607.2</ele>
        <time>2024-07-09T10:43:23Z</time>
      </trkpt>
      <trkpt lat="44.01274" lon="7.30875">
        <ele>607.2</ele>
        <time>2024-07-09T10:43:24Z</time>
      </trkpt>
      <trkpt lat="44.01275" lon="7.30876">
        <ele>607.2</ele>
        <time>2024-07-09T10:43:25Z</time>
      </trkpt>
      <trkpt lat="44.01276" lon="7.30875">
        <ele>607.2</ele>
        <time>2024-07-09T10:43:26Z</time>
      </trkpt>
      <trkpt lat="44.01274" lon="7.30871">
        <ele>607.4</ele>
        <time>2024-07-09T10:43:27Z</time>
      </trkpt>
      <trkpt lat="44.01273" lon="7.3087">
        <ele>607.4</ele>
        <time>2024-07-09T10:43:28Z</time>
      </trkpt>
      <trkpt lat="44.01272" lon="7.30867">
        <ele>607.4</ele>
        <time>2024-07-09T10:43:29Z</time>
      </trkpt>
      <trkpt lat="44.0127" lon="7.30865">
        <ele>607.2</ele>
        <time>2024-07-09T10:43:30Z</time>
      </trkpt>
      <trkpt lat="44.01268" lon="7.30862">
        <ele>607.2</ele>
        <time>2024-07-09T10:43:31Z</time>
      </trkpt>
      <trkpt lat="44.01267" lon="7.3086">
        <ele>607.2</ele>
        <time>2024-07-09T10:43:32Z</time>
      </trkpt>
      <trkpt lat="44.01266" lon="7.30857">
        <ele>607.2</ele>
        <time>2024-07-09T10:43:33Z</time>
      </trkpt>
      <trkpt lat="44.01265" lon="7.30855">
        <ele>607.2</ele>
        <time>2024-07-09T10:43:34Z</time>
      </trkpt>
      <trkpt lat="44.01264" lon="7.30854">
        <ele>607.2</ele>
        <time>2024-07-09T10:43:35Z</time>
      </trkpt>
      <trkpt lat="44.01263" lon="7.30853">
        <ele>607.2</ele>
        <time>2024-07-09T10:43:36Z</time>
      </trkpt>
      <trkpt lat="44.01262" lon="7.30853">
        <ele>607.2</ele>
        <time>2024-07-09T10:43:37Z</time>
      </trkpt>
      <trkpt lat="44.01261" lon="7.30852">
        <ele>607.2</ele>
        <time>2024-07-09T10:43:38Z</time>
      </trkpt>
      <trkpt lat="44.0126" lon="7.30851">
        <ele>607.2</ele>
        <time>2024-07-09T10:43:39Z</time>
      </trkpt>
      <trkpt lat="44.01259" lon="7.30849">
        <ele>607.2</ele>
        <time>2024-07-09T10:43:40Z</time>
      </trkpt>
      <trkpt lat="44.01258" lon="7.30847">
        <ele>607.2</ele>
        <time>2024-07-09T10:43:41Z</time>
      </trkpt>
      <trkpt lat="44.01256" lon="7.30846">
        <ele>607.2</ele>
        <time>2024-07-09T10:43:42Z</time>
      </trkpt>
      <trkpt lat="44.01255" lon="7.30844">
        <ele>607.6</ele>
        <time>2024-07-09T10:43:43Z</time>
      </trkpt>
      <trkpt lat="44.01253" lon="7.30842">
        <ele>607.6</ele>
        <time>2024-07-09T10:43:44Z</time>
      </trkpt>
      <trkpt lat="44.01251" lon="7.3084">
        <ele>607.6</ele>
        <time>2024-07-09T10:43:45Z</time>
      </trkpt>
      <trkpt lat="44.0125" lon="7.30838">
        <ele>607.6</ele>
        <time>2024-07-09T10:43:46Z</time>
      </trkpt>
      <trkpt lat="44.01248" lon="7.30836">
        <ele>607.6</ele>
        <time>2024-07-09T10:43:47Z</time>
      </trkpt>
      <trkpt lat="44.01246" lon="7.30834">
        <ele>607.8</ele>
        <time>2024-07-09T10:43:48Z</time>
      </trkpt>
      <trkpt lat="44.01245" lon="7.30832">
        <ele>607.8</ele>
        <time>2024-07-09T10:43:49Z</time>
      </trkpt>
      <trkpt lat="44.01243" lon="7.30829">
        <ele>607.8</ele>
        <time>2024-07-09T10:43:50Z</time>
      </trkpt>
      <trkpt lat="44.0124" lon="7.30826">
        <ele>607.8</ele>
        <time>2024-07-09T10:43:51Z</time>
      </trkpt>
      <trkpt lat="44.01239" lon="7.30825">
        <ele>607.8</ele>
        <time>2024-07-09T10:43:52Z</time>
      </trkpt>
      <trkpt lat="44.01236" lon="7.30822">
        <ele>607.8</ele>
        <time>2024-07-09T10:43:53Z</time>
      </trkpt>
      <trkpt lat="44.01235" lon="7.30821">
        <ele>607.8</ele>
        <time>2024-07-09T10:43:54Z</time>
      </trkpt>
      <trkpt lat="44.01234" lon="7.30819">
        <ele>607.8</ele>
        <time>2024-07-09T10:43:55Z</time>
      </trkpt>
      <trkpt lat="44.01232" lon="7.30818">
        <ele>607.8</ele>
        <time>2024-07-09T10:43:56Z</time>
      </trkpt>
      <trkpt lat="44.01232" lon="7.30816">
        <ele>607.8</ele>
        <time>2024-07-09T10:43:57Z</time>
      </trkpt>
      <trkpt lat="44.01232" lon="7.30815">
        <ele>607.8</ele>
        <time>2024-07-09T10:43:58Z</time>
      </trkpt>
      <trkpt lat="44.01233" lon="7.30815">
        <ele>607.8</ele>
        <time>2024-07-09T10:43:59Z</time>
      </trkpt>
      <trkpt lat="44.01234" lon="7.30815">
        <ele>607.8</ele>
        <time>2024-07-09T10:44:00Z</time>
      </trkpt>
      <trkpt lat="44.01235" lon="7.30816">
        <ele>607.8</ele>
        <time>2024-07-09T10:44:01Z</time>
      </trkpt>
      <trkpt lat="44.01236" lon="7.30817">
        <ele>607.8</ele>
        <time>2024-07-09T10:44:02Z</time>
      </trkpt>
      <trkpt lat="44.01237" lon="7.30818">
        <ele>607.8</ele>
        <time>2024-07-09T10:44:03Z</time>
      </trkpt>
      <trkpt lat="44.01239" lon="7.30819">
        <ele>607.8</ele>
        <time>2024-07-09T10:44:04Z</time>
      </trkpt>
      <trkpt lat="44.0124" lon="7.30821">
        <ele>607.8</ele>
        <time>2024-07-09T10:44:05Z</time>
      </trkpt>
      <trkpt lat="44.01242" lon="7.30822">
        <ele>607.4</ele>
        <time>2024-07-09T10:44:06Z</time>
      </trkpt>
      <trkpt lat="44.01245" lon="7.30826">
        <ele>607.2</ele>
        <time>2024-07-09T10:44:07Z</time>
      </trkpt>
      <trkpt lat="44.01246" lon="7.30828">
        <ele>607.2</ele>
        <time>2024-07-09T10:44:08Z</time>
      </trkpt>
      <trkpt lat="44.01248" lon="7.30832">
        <ele>607.2</ele>
        <time>2024-07-09T10:44:09Z</time>
      </trkpt>
      <trkpt lat="44.01249" lon="7.30833">
        <ele>607.2</ele>
        <time>2024-07-09T10:44:10Z</time>
      </trkpt>
      <trkpt lat="44.01252" lon="7.30834">
        <ele>607.6</ele>
        <time>2024-07-09T10:44:11Z</time>
      </trkpt>
      <trkpt lat="44.01254" lon="7.30832">
        <ele>607.8</ele>
        <time>2024-07-09T10:44:12Z</time>
      </trkpt>
      <trkpt lat="44.01255" lon="7.30831">
        <ele>607.8</ele>
        <time>2024-07-09T10:44:13Z</time>
      </trkpt>
      <trkpt lat="44.01256" lon="7.30829">
        <ele>607.8</ele>
        <time>2024-07-09T10:44:14Z</time>
      </trkpt>
      <trkpt lat="44.01257" lon="7.30827">
        <ele>608.2</ele>
        <time>2024-07-09T10:44:15Z</time>
      </trkpt>
      <trkpt lat="44.01258" lon="7.30824">
        <ele>608</ele>
        <time>2024-07-09T10:44:16Z</time>
      </trkpt>
      <trkpt lat="44.01258" lon="7.30821">
        <ele>608</ele>
        <time>2024-07-09T10:44:17Z</time>
      </trkpt>
      <trkpt lat="44.01258" lon="7.30818">
        <ele>608</ele>
        <time>2024-07-09T10:44:18Z</time>
      </trkpt>
      <trkpt lat="44.01257" lon="7.30815">
        <ele>608</ele>
        <time>2024-07-09T10:44:19Z</time>
      </trkpt>
      <trkpt lat="44.01257" lon="7.30812">
        <ele>608</ele>
        <time>2024-07-09T10:44:20Z</time>
      </trkpt>
      <trkpt lat="44.01256" lon="7.30809">
        <ele>608</ele>
        <time>2024-07-09T10:44:21Z</time>
      </trkpt>
      <trkpt lat="44.01255" lon="7.30807">
        <ele>608</ele>
        <time>2024-07-09T10:44:22Z</time>
      </trkpt>
      <trkpt lat="44.01255" lon="7.30806">
        <ele>608</ele>
        <time>2024-07-09T10:44:23Z</time>
      </trkpt>
      <trkpt lat="44.01254" lon="7.30805">
        <ele>608.4</ele>
        <time>2024-07-09T10:44:24Z</time>
      </trkpt>
      <trkpt lat="44.01254" lon="7.30805">
        <ele>608.4</ele>
        <time>2024-07-09T10:44:25Z</time>
      </trkpt>
      <trkpt lat="44.01254" lon="7.30805">
        <ele>608.4</ele>
        <time>2024-07-09T10:44:26Z</time>
      </trkpt>
      <trkpt lat="44.01254" lon="7.30805">
        <ele>608.4</ele>
        <time>2024-07-09T10:44:27Z</time>
      </trkpt>
      <trkpt lat="44.01245" lon="7.30802">
        <ele>608.2</ele>
        <time>2024-07-09T10:44:31Z</time>
      </trkpt>
      <trkpt lat="44.01244" lon="7.30801">
        <ele>608.2</ele>
        <time>2024-07-09T10:44:32Z</time>
      </trkpt>
      <trkpt lat="44.01242" lon="7.30799">
        <ele>608.2</ele>
        <time>2024-07-09T10:44:33Z</time>
      </trkpt>
      <trkpt lat="44.01242" lon="7.30797">
        <ele>608.8</ele>
        <time>2024-07-09T10:44:34Z</time>
      </trkpt>
      <trkpt lat="44.01243" lon="7.30795">
        <ele>608.8</ele>
        <time>2024-07-09T10:44:35Z</time>
      </trkpt>
      <trkpt lat="44.01243" lon="7.30793">
        <ele>608.8</ele>
        <time>2024-07-09T10:44:36Z</time>
      </trkpt>
      <trkpt lat="44.01244" lon="7.30791">
        <ele>609.2</ele>
        <time>2024-07-09T10:44:37Z</time>
      </trkpt>
      <trkpt lat="44.01245" lon="7.30789">
        <ele>609.4</ele>
        <time>2024-07-09T10:44:38Z</time>
      </trkpt>
      <trkpt lat="44.01246" lon="7.30787">
        <ele>609.4</ele>
        <time>2024-07-09T10:44:39Z</time>
      </trkpt>
      <trkpt lat="44.01247" lon="7.30787">
        <ele>609.4</ele>
        <time>2024-07-09T10:44:40Z</time>
      </trkpt>
      <trkpt lat="44.01247" lon="7.30787">
        <ele>609.4</ele>
        <time>2024-07-09T10:44:41Z</time>
      </trkpt>
      <trkpt lat="44.01247" lon="7.30787">
        <ele>609.4</ele>
        <time>2024-07-09T10:44:42Z</time>
      </trkpt>
      <trkpt lat="44.01253" lon="7.30785">
        <ele>609.4</ele>
        <time>2024-07-09T10:45:02Z</time>
      </trkpt>
      <trkpt lat="44.01255" lon="7.30784">
        <ele>609.4</ele>
        <time>2024-07-09T10:45:03Z</time>
      </trkpt>
      <trkpt lat="44.01256" lon="7.30783">
        <ele>609.4</ele>
        <time>2024-07-09T10:45:04Z</time>
      </trkpt>
      <trkpt lat="44.01257" lon="7.30782">
        <ele>609.6</ele>
        <time>2024-07-09T10:45:05Z</time>
      </trkpt>
      <trkpt lat="44.01258" lon="7.3078">
        <ele>609.6</ele>
        <time>2024-07-09T10:45:06Z</time>
      </trkpt>
      <trkpt lat="44.01259" lon="7.30778">
        <ele>609.6</ele>
        <time>2024-07-09T10:45:07Z</time>
      </trkpt>
      <trkpt lat="44.0126" lon="7.30777">
        <ele>609.6</ele>
        <time>2024-07-09T10:45:08Z</time>
      </trkpt>
      <trkpt lat="44.0126" lon="7.30775">
        <ele>609.6</ele>
        <time>2024-07-09T10:45:09Z</time>
      </trkpt>
      <trkpt lat="44.01261" lon="7.30774">
        <ele>609.6</ele>
        <time>2024-07-09T10:45:10Z</time>
      </trkpt>
      <trkpt lat="44.01262" lon="7.30774">
        <ele>609.6</ele>
        <time>2024-07-09T10:45:11Z</time>
      </trkpt>
      <trkpt lat="44.01265" lon="7.30776">
        <ele>609.6</ele>
        <time>2024-07-09T10:45:12Z</time>
      </trkpt>
      <trkpt lat="44.01266" lon="7.30778">
        <ele>609.6</ele>
        <time>2024-07-09T10:45:13Z</time>
      </trkpt>
      <trkpt lat="44.01268" lon="7.30781">
        <ele>609.4</ele>
        <time>2024-07-09T10:45:14Z</time>
      </trkpt>
      <trkpt lat="44.01269" lon="7.30782">
        <ele>609.4</ele>
        <time>2024-07-09T10:45:15Z</time>
      </trkpt>
      <trkpt lat="44.01271" lon="7.30784">
        <ele>609.4</ele>
        <time>2024-07-09T10:45:16Z</time>
      </trkpt>
      <trkpt lat="44.01272" lon="7.30786">
        <ele>609.2</ele>
        <time>2024-07-09T10:45:17Z</time>
      </trkpt>
      <trkpt lat="44.01274" lon="7.30788">
        <ele>609</ele>
        <time>2024-07-09T10:45:18Z</time>
      </trkpt>
      <trkpt lat="44.01276" lon="7.30789">
        <ele>609</ele>
        <time>2024-07-09T10:45:19Z</time>
      </trkpt>
      <trkpt lat="44.01278" lon="7.30792">
        <ele>609</ele>
        <time>2024-07-09T10:45:20Z</time>
      </trkpt>
      <trkpt lat="44.01279" lon="7.30793">
        <ele>609</ele>
        <time>2024-07-09T10:45:21Z</time>
      </trkpt>
      <trkpt lat="44.01281" lon="7.30795">
        <ele>609</ele>
        <time>2024-07-09T10:45:22Z</time>
      </trkpt>
      <trkpt lat="44.01283" lon="7.30797">
        <ele>608.8</ele>
        <time>2024-07-09T10:45:23Z</time>
      </trkpt>
      <trkpt lat="44.01283" lon="7.30799">
        <ele>608.8</ele>
        <time>2024-07-09T10:45:24Z</time>
      </trkpt>
      <trkpt lat="44.01282" lon="7.308">
        <ele>608.8</ele>
        <time>2024-07-09T10:45:25Z</time>
      </trkpt>
      <trkpt lat="44.01279" lon="7.30811">
        <ele>608.6</ele>
        <time>2024-07-09T10:45:26Z</time>
      </trkpt>
      <trkpt lat="44.01278" lon="7.30821">
        <ele>608.6</ele>
        <time>2024-07-09T10:45:27Z</time>
      </trkpt>
      <trkpt lat="44.01276" lon="7.30831">
        <ele>608.4</ele>
        <time>2024-07-09T10:45:28Z</time>
      </trkpt>
      <trkpt lat="44.01275" lon="7.30841">
        <ele>608.4</ele>
        <time>2024-07-09T10:45:29Z</time>
      </trkpt>
      <trkpt lat="44.01273" lon="7.30851">
        <ele>608.4</ele>
        <time>2024-07-09T10:45:30Z</time>
      </trkpt>
      <trkpt lat="44.01271" lon="7.30861">
        <ele>605</ele>
        <time>2024-07-09T11:39:53Z</time>
      </trkpt>
      <trkpt lat="44.0127" lon="7.30871">
        <ele>605</ele>
        <time>2024-07-09T11:39:54Z</time>
      </trkpt>
      <trkpt lat="44.01273" lon="7.30874">
        <ele>605</ele>
        <time>2024-07-09T11:39:55Z</time>
      </trkpt>
      <trkpt lat="44.01277" lon="7.30878">
        <ele>604.6</ele>
        <time>2024-07-09T11:39:56Z</time>
      </trkpt>
      <trkpt lat="44.0128" lon="7.30881">
        <ele>604.6</ele>
        <time>2024-07-09T11:39:57Z</time>
      </trkpt>
      <trkpt lat="44.01283" lon="7.30885">
        <ele>604.6</ele>
        <time>2024-07-09T11:39:58Z</time>
      </trkpt>
      <trkpt lat="44.01285" lon="7.30889">
        <ele>604.6</ele>
        <time>2024-07-09T11:39:59Z</time>
      </trkpt>
      <trkpt lat="44.01288" lon="7.30893">
        <ele>604.2</ele>
        <time>2024-07-09T11:40:00Z</time>
      </trkpt>
      <trkpt lat="44.01291" lon="7.30896">
        <ele>604.2</ele>
        <time>2024-07-09T11:40:01Z</time>
      </trkpt>
      <trkpt lat="44.01294" lon="7.30899">
        <ele>604.2</ele>
        <time>2024-07-09T11:40:02Z</time>
      </trkpt>
      <trkpt lat="44.01296" lon="7.30902">
        <ele>604.2</ele>
        <time>2024-07-09T11:40:03Z</time>
      </trkpt>
      <trkpt lat="44.01299" lon="7.30905">
        <ele>604.2</ele>
        <time>2024-07-09T11:40:04Z</time>
      </trkpt>
      <trkpt lat="44.01301" lon="7.30907">
        <ele>603.8</ele>
        <time>2024-07-09T11:40:05Z</time>
      </trkpt>
      <trkpt lat="44.01305" lon="7.3091">
        <ele>603.8</ele>
        <time>2024-07-09T11:40:06Z</time>
      </trkpt>
      <trkpt lat="44.01306" lon="7.30911">
        <ele>603.8</ele>
        <time>2024-07-09T11:40:07Z</time>
      </trkpt>
      <trkpt lat="44.01307" lon="7.30912">
        <ele>603.8</ele>
        <time>2024-07-09T11:40:08Z</time>
      </trkpt>
      <trkpt lat="44.01308" lon="7.30912">
        <ele>603.8</ele>
        <time>2024-07-09T11:40:09Z</time>
      </trkpt>
      <trkpt lat="44.01308" lon="7.30913">
        <ele>604</ele>
        <time>2024-07-09T11:40:10Z</time>
      </trkpt>
      <trkpt lat="44.01309" lon="7.30913">
        <ele>604</ele>
        <time>2024-07-09T11:40:11Z</time>
      </trkpt>
      <trkpt lat="44.01309" lon="7.30913">
        <ele>604</ele>
        <time>2024-07-09T11:40:12Z</time>
      </trkpt>
      <trkpt lat="44.01309" lon="7.30914">
        <ele>604</ele>
        <time>2024-07-09T11:40:13Z</time>
      </trkpt>
      <trkpt lat="44.0131" lon="7.30916">
        <ele>604</ele>
        <time>2024-07-09T11:40:14Z</time>
      </trkpt>
      <trkpt lat="44.01311" lon="7.30918">
        <ele>603.4</ele>
        <time>2024-07-09T11:40:15Z</time>
      </trkpt>
      <trkpt lat="44.01312" lon="7.30919">
        <ele>603.4</ele>
        <time>2024-07-09T11:40:16Z</time>
      </trkpt>
      <trkpt lat="44.01314" lon="7.3092">
        <ele>603.4</ele>
        <time>2024-07-09T11:40:17Z</time>
      </trkpt>
      <trkpt lat="44.01316" lon="7.30919">
        <ele>604</ele>
        <time>2024-07-09T11:40:18Z</time>
      </trkpt>
      <trkpt lat="44.01319" lon="7.30917">
        <ele>604</ele>
        <time>2024-07-09T11:40:19Z</time>
      </trkpt>
      <trkpt lat="44.01321" lon="7.30916">
        <ele>604</ele>
        <time>2024-07-09T11:40:20Z</time>
      </trkpt>
      <trkpt lat="44.01324" lon="7.30915">
        <ele>604</ele>
        <time>2024-07-09T11:40:21Z</time>
      </trkpt>
      <trkpt lat="44.01328" lon="7.30915">
        <ele>604</ele>
        <time>2024-07-09T11:40:22Z</time>
      </trkpt>
      <trkpt lat="44.01331" lon="7.30915">
        <ele>604</ele>
        <time>2024-07-09T11:40:23Z</time>
      </trkpt>
      <trkpt lat="44.01335" lon="7.30915">
        <ele>604</ele>
        <time>2024-07-09T11:40:24Z</time>
      </trkpt>
      <trkpt lat="44.01339" lon="7.30914">
        <ele>604</ele>
        <time>2024-07-09T11:40:25Z</time>
      </trkpt>
      <trkpt lat="44.01344" lon="7.30913">
        <ele>604</ele>
        <time>2024-07-09T11:40:26Z</time>
      </trkpt>
      <trkpt lat="44.01348" lon="7.30911">
        <ele>603.2</ele>
        <time>2024-07-09T11:40:27Z</time>
      </trkpt>
      <trkpt lat="44.01353" lon="7.30908">
        <ele>603.4</ele>
        <time>2024-07-09T11:40:28Z</time>
      </trkpt>
      <trkpt lat="44.01357" lon="7.30905">
        <ele>603.4</ele>
        <time>2024-07-09T11:40:29Z</time>
      </trkpt>
      <trkpt lat="44.01361" lon="7.30901">
        <ele>603.4</ele>
        <time>2024-07-09T11:40:30Z</time>
      </trkpt>
      <trkpt lat="44.01365" lon="7.30897">
        <ele>602.4</ele>
        <time>2024-07-09T11:40:31Z</time>
      </trkpt>
      <trkpt lat="44.0137" lon="7.30893">
        <ele>602.2</ele>
        <time>2024-07-09T11:40:32Z</time>
      </trkpt>
      <trkpt lat="44.01374" lon="7.30888">
        <ele>602.2</ele>
        <time>2024-07-09T11:40:33Z</time>
      </trkpt>
      <trkpt lat="44.01377" lon="7.30882">
        <ele>602.2</ele>
        <time>2024-07-09T11:40:34Z</time>
      </trkpt>
      <trkpt lat="44.0138" lon="7.30875">
        <ele>601.4</ele>
        <time>2024-07-09T11:40:35Z</time>
      </trkpt>
      <trkpt lat="44.01383" lon="7.30868">
        <ele>601.2</ele>
        <time>2024-07-09T11:40:36Z</time>
      </trkpt>
      <trkpt lat="44.01385" lon="7.3086">
        <ele>601.2</ele>
        <time>2024-07-09T11:40:37Z</time>
      </trkpt>
      <trkpt lat="44.01385" lon="7.30848">
        <ele>601.2</ele>
        <time>2024-07-09T11:40:38Z</time>
      </trkpt>
      <trkpt lat="44.01385" lon="7.30844">
        <ele>601.2</ele>
        <time>2024-07-09T11:40:39Z</time>
      </trkpt>
      <trkpt lat="44.01383" lon="7.30837">
        <ele>601.2</ele>
        <time>2024-07-09T11:40:40Z</time>
      </trkpt>
      <trkpt lat="44.01381" lon="7.30829">
        <ele>601</ele>
        <time>2024-07-09T11:40:41Z</time>
      </trkpt>
      <trkpt lat="44.01379" lon="7.30822">
        <ele>601</ele>
        <time>2024-07-09T11:40:42Z</time>
      </trkpt>
      <trkpt lat="44.01378" lon="7.30814">
        <ele>601</ele>
        <time>2024-07-09T11:40:43Z</time>
      </trkpt>
      <trkpt lat="44.01377" lon="7.30808">
        <ele>600.6</ele>
        <time>2024-07-09T11:40:44Z</time>
      </trkpt>
      <trkpt lat="44.01376" lon="7.30802">
        <ele>600.6</ele>
        <time>2024-07-09T11:40:45Z</time>
      </trkpt>
      <trkpt lat="44.01373" lon="7.30796">
        <ele>600.6</ele>
        <time>2024-07-09T11:40:46Z</time>
      </trkpt>
      <trkpt lat="44.01372" lon="7.30791">
        <ele>600.6</ele>
        <time>2024-07-09T11:40:47Z</time>
      </trkpt>
      <trkpt lat="44.01371" lon="7.30786">
        <ele>600.6</ele>
        <time>2024-07-09T11:40:48Z</time>
      </trkpt>
      <trkpt lat="44.01371" lon="7.3078">
        <ele>600.4</ele>
        <time>2024-07-09T11:40:49Z</time>
      </trkpt>
      <trkpt lat="44.0137" lon="7.30773">
        <ele>599.8</ele>
        <time>2024-07-09T11:40:50Z</time>
      </trkpt>
      <trkpt lat="44.01371" lon="7.30766">
        <ele>599.8</ele>
        <time>2024-07-09T11:40:51Z</time>
      </trkpt>
      <trkpt lat="44.01372" lon="7.30758">
        <ele>599.8</ele>
        <time>2024-07-09T11:40:52Z</time>
      </trkpt>
      <trkpt lat="44.01373" lon="7.30747">
        <ele>599.8</ele>
        <time>2024-07-09T11:40:53Z</time>
      </trkpt>
      <trkpt lat="44.01373" lon="7.30743">
        <ele>599.6</ele>
        <time>2024-07-09T11:40:54Z</time>
      </trkpt>
      <trkpt lat="44.01374" lon="7.30737">
        <ele>599.6</ele>
        <time>2024-07-09T11:40:55Z</time>
      </trkpt>
      <trkpt lat="44.01375" lon="7.3073">
        <ele>599.6</ele>
        <time>2024-07-09T11:40:56Z</time>
      </trkpt>
      <trkpt lat="44.01375" lon="7.30725">
        <ele>599.6</ele>
        <time>2024-07-09T11:40:57Z</time>
      </trkpt>
      <trkpt lat="44.01375" lon="7.3072">
        <ele>599.4</ele>
        <time>2024-07-09T11:40:58Z</time>
      </trkpt>
      <trkpt lat="44.01376" lon="7.30717">
        <ele>599.2</ele>
        <time>2024-07-09T11:40:59Z</time>
      </trkpt>
      <trkpt lat="44.01376" lon="7.30715">
        <ele>599.2</ele>
        <time>2024-07-09T11:41:00Z</time>
      </trkpt>
      <trkpt lat="44.01377" lon="7.30713">
        <ele>599.2</ele>
        <time>2024-07-09T11:41:01Z</time>
      </trkpt>
      <trkpt lat="44.01377" lon="7.30711">
        <ele>598.8</ele>
        <time>2024-07-09T11:41:02Z</time>
      </trkpt>
      <trkpt lat="44.01377" lon="7.30709">
        <ele>598.8</ele>
        <time>2024-07-09T11:41:03Z</time>
      </trkpt>
      <trkpt lat="44.01377" lon="7.30707">
        <ele>598.6</ele>
        <time>2024-07-09T11:41:04Z</time>
      </trkpt>
      <trkpt lat="44.01378" lon="7.30706">
        <ele>598.6</ele>
        <time>2024-07-09T11:41:05Z</time>
      </trkpt>
      <trkpt lat="44.01379" lon="7.30706">
        <ele>598.6</ele>
        <time>2024-07-09T11:41:06Z</time>
      </trkpt>
      <trkpt lat="44.01381" lon="7.30706">
        <ele>598.6</ele>
        <time>2024-07-09T11:41:07Z</time>
      </trkpt>
      <trkpt lat="44.01382" lon="7.30707">
        <ele>598.8</ele>
        <time>2024-07-09T11:41:08Z</time>
      </trkpt>
      <trkpt lat="44.01383" lon="7.30706">
        <ele>598.8</ele>
        <time>2024-07-09T11:41:09Z</time>
      </trkpt>
      <trkpt lat="44.01385" lon="7.30705">
        <ele>598.8</ele>
        <time>2024-07-09T11:41:10Z</time>
      </trkpt>
      <trkpt lat="44.01387" lon="7.30705">
        <ele>598.2</ele>
        <time>2024-07-09T11:41:11Z</time>
      </trkpt>
      <trkpt lat="44.01389" lon="7.30704">
        <ele>598.2</ele>
        <time>2024-07-09T11:41:12Z</time>
      </trkpt>
      <trkpt lat="44.01391" lon="7.30703">
        <ele>598.2</ele>
        <time>2024-07-09T11:41:13Z</time>
      </trkpt>
      <trkpt lat="44.01393" lon="7.30704">
        <ele>598.2</ele>
        <time>2024-07-09T11:41:14Z</time>
      </trkpt>
      <trkpt lat="44.01395" lon="7.30704">
        <ele>598.2</ele>
        <time>2024-07-09T11:41:15Z</time>
      </trkpt>
      <trkpt lat="44.01397" lon="7.30704">
        <ele>598</ele>
        <time>2024-07-09T11:41:16Z</time>
      </trkpt>
      <trkpt lat="44.01399" lon="7.30703">
        <ele>598</ele>
        <time>2024-07-09T11:41:17Z</time>
      </trkpt>
      <trkpt lat="44.01402" lon="7.30703">
        <ele>598</ele>
        <time>2024-07-09T11:41:18Z</time>
      </trkpt>
      <trkpt lat="44.01404" lon="7.30702">
        <ele>598</ele>
        <time>2024-07-09T11:41:19Z</time>
      </trkpt>
      <trkpt lat="44.01407" lon="7.30701">
        <ele>597.8</ele>
        <time>2024-07-09T11:41:20Z</time>
      </trkpt>
      <trkpt lat="44.0141" lon="7.307">
        <ele>597.8</ele>
        <time>2024-07-09T11:41:21Z</time>
      </trkpt>
      <trkpt lat="44.01412" lon="7.30698">
        <ele>597.8</ele>
        <time>2024-07-09T11:41:22Z</time>
      </trkpt>
      <trkpt lat="44.01415" lon="7.30698">
        <ele>597.8</ele>
        <time>2024-07-09T11:41:23Z</time>
      </trkpt>
      <trkpt lat="44.01418" lon="7.30697">
        <ele>597.8</ele>
        <time>2024-07-09T11:41:24Z</time>
      </trkpt>
      <trkpt lat="44.01422" lon="7.30698">
        <ele>597.6</ele>
        <time>2024-07-09T11:41:25Z</time>
      </trkpt>
      <trkpt lat="44.01425" lon="7.307">
        <ele>597.6</ele>
        <time>2024-07-09T11:41:26Z</time>
      </trkpt>
      <trkpt lat="44.01428" lon="7.30702">
        <ele>597.6</ele>
        <time>2024-07-09T11:41:27Z</time>
      </trkpt>
      <trkpt lat="44.0143" lon="7.30706">
        <ele>597.6</ele>
        <time>2024-07-09T11:41:28Z</time>
      </trkpt>
      <trkpt lat="44.01432" lon="7.30711">
        <ele>597.6</ele>
        <time>2024-07-09T11:41:29Z</time>
      </trkpt>
      <trkpt lat="44.01434" lon="7.30716">
        <ele>597.6</ele>
        <time>2024-07-09T11:41:30Z</time>
      </trkpt>
      <trkpt lat="44.01435" lon="7.30721">
        <ele>596.8</ele>
        <time>2024-07-09T11:41:31Z</time>
      </trkpt>
      <trkpt lat="44.01437" lon="7.30727">
        <ele>596.8</ele>
        <time>2024-07-09T11:41:32Z</time>
      </trkpt>
      <trkpt lat="44.01439" lon="7.30732">
        <ele>596.8</ele>
        <time>2024-07-09T11:41:33Z</time>
      </trkpt>
      <trkpt lat="44.01442" lon="7.30741">
        <ele>596.2</ele>
        <time>2024-07-09T11:41:34Z</time>
      </trkpt>
      <trkpt lat="44.01443" lon="7.30743">
        <ele>596</ele>
        <time>2024-07-09T11:41:35Z</time>
      </trkpt>
      <trkpt lat="44.01446" lon="7.30749">
        <ele>596</ele>
        <time>2024-07-09T11:41:36Z</time>
      </trkpt>
      <trkpt lat="44.01448" lon="7.30755">
        <ele>596</ele>
        <time>2024-07-09T11:41:37Z</time>
      </trkpt>
      <trkpt lat="44.0145" lon="7.30761">
        <ele>595.6</ele>
        <time>2024-07-09T11:41:38Z</time>
      </trkpt>
      <trkpt lat="44.01452" lon="7.30768">
        <ele>595.4</ele>
        <time>2024-07-09T11:41:39Z</time>
      </trkpt>
      <trkpt lat="44.01454" lon="7.30774">
        <ele>595.4</ele>
        <time>2024-07-09T11:41:40Z</time>
      </trkpt>
      <trkpt lat="44.01456" lon="7.30781">
        <ele>595.4</ele>
        <time>2024-07-09T11:41:41Z</time>
      </trkpt>
      <trkpt lat="44.01458" lon="7.30787">
        <ele>594.8</ele>
        <time>2024-07-09T11:41:42Z</time>
      </trkpt>
      <trkpt lat="44.01459" lon="7.30794">
        <ele>594.8</ele>
        <time>2024-07-09T11:41:43Z</time>
      </trkpt>
      <trkpt lat="44.01461" lon="7.30805">
        <ele>594.2</ele>
        <time>2024-07-09T11:41:44Z</time>
      </trkpt>
      <trkpt lat="44.01462" lon="7.30809">
        <ele>594.2</ele>
        <time>2024-07-09T11:41:45Z</time>
      </trkpt>
      <trkpt lat="44.01463" lon="7.30816">
        <ele>594.2</ele>
        <time>2024-07-09T11:41:46Z</time>
      </trkpt>
      <trkpt lat="44.01464" lon="7.30824">
        <ele>594</ele>
        <time>2024-07-09T11:41:47Z</time>
      </trkpt>
      <trkpt lat="44.01466" lon="7.30831">
        <ele>593.8</ele>
        <time>2024-07-09T11:41:48Z</time>
      </trkpt>
      <trkpt lat="44.01467" lon="7.30838">
        <ele>593.8</ele>
        <time>2024-07-09T11:41:49Z</time>
      </trkpt>
      <trkpt lat="44.01468" lon="7.30845">
        <ele>593.8</ele>
        <time>2024-07-09T11:41:50Z</time>
      </trkpt>
      <trkpt lat="44.01469" lon="7.30853">
        <ele>593</ele>
        <time>2024-07-09T11:41:51Z</time>
      </trkpt>
      <trkpt lat="44.01469" lon="7.30861">
        <ele>592.6</ele>
        <time>2024-07-09T11:41:52Z</time>
      </trkpt>
      <trkpt lat="44.01469" lon="7.30869">
        <ele>592.6</ele>
        <time>2024-07-09T11:41:53Z</time>
      </trkpt>
      <trkpt lat="44.0147" lon="7.30876">
        <ele>592.6</ele>
        <time>2024-07-09T11:41:54Z</time>
      </trkpt>
      <trkpt lat="44.0147" lon="7.30883">
        <ele>592.6</ele>
        <time>2024-07-09T11:41:55Z</time>
      </trkpt>
      <trkpt lat="44.0147" lon="7.30891">
        <ele>592.4</ele>
        <time>2024-07-09T11:41:56Z</time>
      </trkpt>
      <trkpt lat="44.0147" lon="7.30898">
        <ele>592.4</ele>
        <time>2024-07-09T11:41:57Z</time>
      </trkpt>
      <trkpt lat="44.0147" lon="7.30905">
        <ele>592.4</ele>
        <time>2024-07-09T11:41:58Z</time>
      </trkpt>
      <trkpt lat="44.01472" lon="7.30912">
        <ele>592.4</ele>
        <time>2024-07-09T11:41:59Z</time>
      </trkpt>
      <trkpt lat="44.01474" lon="7.30919">
        <ele>592.2</ele>
        <time>2024-07-09T11:42:00Z</time>
      </trkpt>
      <trkpt lat="44.01475" lon="7.30925">
        <ele>592.4</ele>
        <time>2024-07-09T11:42:01Z</time>
      </trkpt>
      <trkpt lat="44.01477" lon="7.30932">
        <ele>592.4</ele>
        <time>2024-07-09T11:42:02Z</time>
      </trkpt>
      <trkpt lat="44.01479" lon="7.3094">
        <ele>592.4</ele>
        <time>2024-07-09T11:42:03Z</time>
      </trkpt>
      <trkpt lat="44.0148" lon="7.30943">
        <ele>592.6</ele>
        <time>2024-07-09T11:42:04Z</time>
      </trkpt>
      <trkpt lat="44.01484" lon="7.3095">
        <ele>593</ele>
        <time>2024-07-09T11:42:05Z</time>
      </trkpt>
      <trkpt lat="44.01485" lon="7.30952">
        <ele>593</ele>
        <time>2024-07-09T11:42:06Z</time>
      </trkpt>
      <trkpt lat="44.01488" lon="7.30956">
        <ele>593</ele>
        <time>2024-07-09T11:42:07Z</time>
      </trkpt>
      <trkpt lat="44.01491" lon="7.30959">
        <ele>592.6</ele>
        <time>2024-07-09T11:42:08Z</time>
      </trkpt>
      <trkpt lat="44.01494" lon="7.30962">
        <ele>593</ele>
        <time>2024-07-09T11:42:09Z</time>
      </trkpt>
      <trkpt lat="44.01498" lon="7.30965">
        <ele>593</ele>
        <time>2024-07-09T11:42:10Z</time>
      </trkpt>
      <trkpt lat="44.01501" lon="7.30967">
        <ele>593</ele>
        <time>2024-07-09T11:42:11Z</time>
      </trkpt>
      <trkpt lat="44.01504" lon="7.30969">
        <ele>593</ele>
        <time>2024-07-09T11:42:12Z</time>
      </trkpt>
      <trkpt lat="44.01507" lon="7.30971">
        <ele>593</ele>
        <time>2024-07-09T11:42:13Z</time>
      </trkpt>
      <trkpt lat="44.01511" lon="7.30972">
        <ele>594</ele>
        <time>2024-07-09T11:42:14Z</time>
      </trkpt>
      <trkpt lat="44.01514" lon="7.30974">
        <ele>594.4</ele>
        <time>2024-07-09T11:42:15Z</time>
      </trkpt>
      <trkpt lat="44.01517" lon="7.30975">
        <ele>594.4</ele>
        <time>2024-07-09T11:42:16Z</time>
      </trkpt>
      <trkpt lat="44.0152" lon="7.30977">
        <ele>594.4</ele>
        <time>2024-07-09T11:42:17Z</time>
      </trkpt>
      <trkpt lat="44.01523" lon="7.30977">
        <ele>595.2</ele>
        <time>2024-07-09T11:42:18Z</time>
      </trkpt>
      <trkpt lat="44.01526" lon="7.30978">
        <ele>595.2</ele>
        <time>2024-07-09T11:42:19Z</time>
      </trkpt>
      <trkpt lat="44.0153" lon="7.30978">
        <ele>595.2</ele>
        <time>2024-07-09T11:42:20Z</time>
      </trkpt>
      <trkpt lat="44.01533" lon="7.30979">
        <ele>595.2</ele>
        <time>2024-07-09T11:42:21Z</time>
      </trkpt>
      <trkpt lat="44.01537" lon="7.30979">
        <ele>595.8</ele>
        <time>2024-07-09T11:42:22Z</time>
      </trkpt>
      <trkpt lat="44.0154" lon="7.30978">
        <ele>595.8</ele>
        <time>2024-07-09T11:42:23Z</time>
      </trkpt>
      <trkpt lat="44.01543" lon="7.30978">
        <ele>595.8</ele>
        <time>2024-07-09T11:42:24Z</time>
      </trkpt>
      <trkpt lat="44.01547" lon="7.30978">
        <ele>595.8</ele>
        <time>2024-07-09T11:42:25Z</time>
      </trkpt>
      <trkpt lat="44.01551" lon="7.30978">
        <ele>595.8</ele>
        <time>2024-07-09T11:42:26Z</time>
      </trkpt>
      <trkpt lat="44.01555" lon="7.30978">
        <ele>596.2</ele>
        <time>2024-07-09T11:42:27Z</time>
      </trkpt>
      <trkpt lat="44.01558" lon="7.30979">
        <ele>596.6</ele>
        <time>2024-07-09T11:42:28Z</time>
      </trkpt>
      <trkpt lat="44.01562" lon="7.30978">
        <ele>596.6</ele>
        <time>2024-07-09T11:42:29Z</time>
      </trkpt>
      <trkpt lat="44.01565" lon="7.30977">
        <ele>596.6</ele>
        <time>2024-07-09T11:42:30Z</time>
      </trkpt>
      <trkpt lat="44.01569" lon="7.30977">
        <ele>596.6</ele>
        <time>2024-07-09T11:42:31Z</time>
      </trkpt>
      <trkpt lat="44.01573" lon="7.30976">
        <ele>596.8</ele>
        <time>2024-07-09T11:42:32Z</time>
      </trkpt>
      <trkpt lat="44.01576" lon="7.30976">
        <ele>597</ele>
        <time>2024-07-09T11:42:33Z</time>
      </trkpt>
      <trkpt lat="44.01579" lon="7.30975">
        <ele>597</ele>
        <time>2024-07-09T11:42:34Z</time>
      </trkpt>
      <trkpt lat="44.01583" lon="7.30974">
        <ele>597</ele>
        <time>2024-07-09T11:42:35Z</time>
      </trkpt>
      <trkpt lat="44.01586" lon="7.30973">
        <ele>597.2</ele>
        <time>2024-07-09T11:42:36Z</time>
      </trkpt>
      <trkpt lat="44.0159" lon="7.30972">
        <ele>597.6</ele>
        <time>2024-07-09T11:42:37Z</time>
      </trkpt>
      <trkpt lat="44.01593" lon="7.30971">
        <ele>597.6</ele>
        <time>2024-07-09T11:42:38Z</time>
      </trkpt>
      <trkpt lat="44.01596" lon="7.3097">
        <ele>597.6</ele>
        <time>2024-07-09T11:42:39Z</time>
      </trkpt>
      <trkpt lat="44.016" lon="7.30968">
        <ele>597.8</ele>
        <time>2024-07-09T11:42:40Z</time>
      </trkpt>
      <trkpt lat="44.01604" lon="7.30966">
        <ele>598</ele>
        <time>2024-07-09T11:42:41Z</time>
      </trkpt>
      <trkpt lat="44.01607" lon="7.30965">
        <ele>598</ele>
        <time>2024-07-09T11:42:42Z</time>
      </trkpt>
      <trkpt lat="44.01611" lon="7.30963">
        <ele>598</ele>
        <time>2024-07-09T11:42:43Z</time>
      </trkpt>
      <trkpt lat="44.01614" lon="7.30961">
        <ele>598</ele>
        <time>2024-07-09T11:42:44Z</time>
      </trkpt>
      <trkpt lat="44.01618" lon="7.30958">
        <ele>597.6</ele>
        <time>2024-07-09T11:42:45Z</time>
      </trkpt>
      <trkpt lat="44.01622" lon="7.30956">
        <ele>597.6</ele>
        <time>2024-07-09T11:42:46Z</time>
      </trkpt>
      <trkpt lat="44.01625" lon="7.30954">
        <ele>597.6</ele>
        <time>2024-07-09T11:42:47Z</time>
      </trkpt>
      <trkpt lat="44.01629" lon="7.30951">
        <ele>597.6</ele>
        <time>2024-07-09T11:42:48Z</time>
      </trkpt>
      <trkpt lat="44.01632" lon="7.30948">
        <ele>597.4</ele>
        <time>2024-07-09T11:42:49Z</time>
      </trkpt>
      <trkpt lat="44.01636" lon="7.30946">
        <ele>597.6</ele>
        <time>2024-07-09T11:42:50Z</time>
      </trkpt>
      <trkpt lat="44.0164" lon="7.30945">
        <ele>597.6</ele>
        <time>2024-07-09T11:42:51Z</time>
      </trkpt>
      <trkpt lat="44.01645" lon="7.30945">
        <ele>597.6</ele>
        <time>2024-07-09T11:42:52Z</time>
      </trkpt>
      <trkpt lat="44.01648" lon="7.30945">
        <ele>598</ele>
        <time>2024-07-09T11:42:53Z</time>
      </trkpt>
      <trkpt lat="44.01652" lon="7.30944">
        <ele>598.2</ele>
        <time>2024-07-09T11:42:54Z</time>
      </trkpt>
      <trkpt lat="44.01656" lon="7.30944">
        <ele>598.2</ele>
        <time>2024-07-09T11:42:55Z</time>
      </trkpt>
      <trkpt lat="44.01659" lon="7.30944">
        <ele>598.2</ele>
        <time>2024-07-09T11:42:56Z</time>
      </trkpt>
      <trkpt lat="44.01662" lon="7.30944">
        <ele>598.2</ele>
        <time>2024-07-09T11:42:57Z</time>
      </trkpt>
      <trkpt lat="44.01664" lon="7.30943">
        <ele>598.2</ele>
        <time>2024-07-09T11:42:58Z</time>
      </trkpt>
      <trkpt lat="44.01666" lon="7.30942">
        <ele>598.2</ele>
        <time>2024-07-09T11:42:59Z</time>
      </trkpt>
      <trkpt lat="44.01668" lon="7.30942">
        <ele>598.6</ele>
        <time>2024-07-09T11:43:00Z</time>
      </trkpt>
      <trkpt lat="44.01669" lon="7.30941">
        <ele>598.6</ele>
        <time>2024-07-09T11:43:01Z</time>
      </trkpt>
      <trkpt lat="44.0167" lon="7.30941">
        <ele>598.6</ele>
        <time>2024-07-09T11:43:02Z</time>
      </trkpt>
      <trkpt lat="44.01671" lon="7.30941">
        <ele>598.4</ele>
        <time>2024-07-09T11:43:03Z</time>
      </trkpt>
      <trkpt lat="44.01672" lon="7.30941">
        <ele>598.4</ele>
        <time>2024-07-09T11:43:04Z</time>
      </trkpt>
      <trkpt lat="44.01673" lon="7.30941">
        <ele>598.4</ele>
        <time>2024-07-09T11:43:05Z</time>
      </trkpt>
      <trkpt lat="44.01673" lon="7.3094">
        <ele>598.4</ele>
        <time>2024-07-09T11:43:06Z</time>
      </trkpt>
      <trkpt lat="44.01673" lon="7.3094">
        <ele>598.4</ele>
        <time>2024-07-09T11:43:07Z</time>
      </trkpt>
      <trkpt lat="44.01681" lon="7.30938">
        <ele>598.4</ele>
        <time>2024-07-09T11:43:14Z</time>
      </trkpt>
      <trkpt lat="44.01684" lon="7.30937">
        <ele>598.4</ele>
        <time>2024-07-09T11:43:15Z</time>
      </trkpt>
      <trkpt lat="44.01688" lon="7.30936">
        <ele>598.4</ele>
        <time>2024-07-09T11:43:16Z</time>
      </trkpt>
      <trkpt lat="44.01691" lon="7.30936">
        <ele>598.4</ele>
        <time>2024-07-09T11:43:17Z</time>
      </trkpt>
      <trkpt lat="44.01695" lon="7.30935">
        <ele>598.4</ele>
        <time>2024-07-09T11:43:18Z</time>
      </trkpt>
      <trkpt lat="44.01698" lon="7.30934">
        <ele>598.4</ele>
        <time>2024-07-09T11:43:19Z</time>
      </trkpt>
      <trkpt lat="44.01702" lon="7.30933">
        <ele>598.2</ele>
        <time>2024-07-09T11:43:20Z</time>
      </trkpt>
      <trkpt lat="44.01706" lon="7.30932">
        <ele>598.2</ele>
        <time>2024-07-09T11:43:21Z</time>
      </trkpt>
      <trkpt lat="44.01711" lon="7.30931">
        <ele>598.2</ele>
        <time>2024-07-09T11:43:22Z</time>
      </trkpt>
      <trkpt lat="44.01715" lon="7.3093">
        <ele>598.2</ele>
        <time>2024-07-09T11:43:23Z</time>
      </trkpt>
      <trkpt lat="44.01719" lon="7.30929">
        <ele>598.2</ele>
        <time>2024-07-09T11:43:24Z</time>
      </trkpt>
      <trkpt lat="44.01724" lon="7.30929">
        <ele>598.2</ele>
        <time>2024-07-09T11:43:25Z</time>
      </trkpt>
      <trkpt lat="44.01728" lon="7.30929">
        <ele>598.2</ele>
        <time>2024-07-09T11:43:26Z</time>
      </trkpt>
      <trkpt lat="44.01732" lon="7.3093">
        <ele>598.2</ele>
        <time>2024-07-09T11:43:27Z</time>
      </trkpt>
      <trkpt lat="44.01736" lon="7.3093">
        <ele>598.2</ele>
        <time>2024-07-09T11:43:28Z</time>
      </trkpt>
      <trkpt lat="44.01741" lon="7.30931">
        <ele>598.2</ele>
        <time>2024-07-09T11:43:29Z</time>
      </trkpt>
      <trkpt lat="44.01745" lon="7.30931">
        <ele>598</ele>
        <time>2024-07-09T11:43:30Z</time>
      </trkpt>
      <trkpt lat="44.01749" lon="7.30931">
        <ele>598</ele>
        <time>2024-07-09T11:43:31Z</time>
      </trkpt>
      <trkpt lat="44.01754" lon="7.3093">
        <ele>598</ele>
        <time>2024-07-09T11:43:32Z</time>
      </trkpt>
      <trkpt lat="44.01758" lon="7.3093">
        <ele>598</ele>
        <time>2024-07-09T11:43:33Z</time>
      </trkpt>
      <trkpt lat="44.01763" lon="7.3093">
        <ele>598</ele>
        <time>2024-07-09T11:43:34Z</time>
      </trkpt>
      <trkpt lat="44.01768" lon="7.30929">
        <ele>598</ele>
        <time>2024-07-09T11:43:35Z</time>
      </trkpt>
      <trkpt lat="44.01772" lon="7.30928">
        <ele>598</ele>
        <time>2024-07-09T11:43:36Z</time>
      </trkpt>
      <trkpt lat="44.01777" lon="7.30927">
        <ele>598</ele>
        <time>2024-07-09T11:43:37Z</time>
      </trkpt>
      <trkpt lat="44.01782" lon="7.30927">
        <ele>597.8</ele>
        <time>2024-07-09T11:43:38Z</time>
      </trkpt>
      <trkpt lat="44.01787" lon="7.30928">
        <ele>597.8</ele>
        <time>2024-07-09T11:43:39Z</time>
      </trkpt>
      <trkpt lat="44.01791" lon="7.30931">
        <ele>597.4</ele>
        <time>2024-07-09T11:43:40Z</time>
      </trkpt>
      <trkpt lat="44.01796" lon="7.30933">
        <ele>597.4</ele>
        <time>2024-07-09T11:43:41Z</time>
      </trkpt>
      <trkpt lat="44.018" lon="7.30936">
        <ele>597.4</ele>
        <time>2024-07-09T11:43:42Z</time>
      </trkpt>
      <trkpt lat="44.01805" lon="7.3094">
        <ele>597</ele>
        <time>2024-07-09T11:43:43Z</time>
      </trkpt>
      <trkpt lat="44.01809" lon="7.30944">
        <ele>596.8</ele>
        <time>2024-07-09T11:43:44Z</time>
      </trkpt>
      <trkpt lat="44.01812" lon="7.30949">
        <ele>596.8</ele>
        <time>2024-07-09T11:43:45Z</time>
      </trkpt>
      <trkpt lat="44.01816" lon="7.30954">
        <ele>596.8</ele>
        <time>2024-07-09T11:43:46Z</time>
      </trkpt>
      <trkpt lat="44.01819" lon="7.30958">
        <ele>596.8</ele>
        <time>2024-07-09T11:43:47Z</time>
      </trkpt>
      <trkpt lat="44.01822" lon="7.30962">
        <ele>596.2</ele>
        <time>2024-07-09T11:43:48Z</time>
      </trkpt>
      <trkpt lat="44.01824" lon="7.30965">
        <ele>596</ele>
        <time>2024-07-09T11:43:49Z</time>
      </trkpt>
      <trkpt lat="44.01825" lon="7.30968">
        <ele>596</ele>
        <time>2024-07-09T11:43:50Z</time>
      </trkpt>
      <trkpt lat="44.01827" lon="7.3097">
        <ele>596</ele>
        <time>2024-07-09T11:43:51Z</time>
      </trkpt>
      <trkpt lat="44.01829" lon="7.30972">
        <ele>596</ele>
        <time>2024-07-09T11:43:52Z</time>
      </trkpt>
      <trkpt lat="44.01831" lon="7.30974">
        <ele>596.2</ele>
        <time>2024-07-09T11:43:53Z</time>
      </trkpt>
      <trkpt lat="44.01833" lon="7.30976">
        <ele>596.2</ele>
        <time>2024-07-09T11:43:54Z</time>
      </trkpt>
      <trkpt lat="44.01835" lon="7.30978">
        <ele>596.2</ele>
        <time>2024-07-09T11:43:55Z</time>
      </trkpt>
      <trkpt lat="44.01836" lon="7.30981">
        <ele>595.6</ele>
        <time>2024-07-09T11:43:56Z</time>
      </trkpt>
      <trkpt lat="44.01837" lon="7.30983">
        <ele>595.6</ele>
        <time>2024-07-09T11:43:57Z</time>
      </trkpt>
      <trkpt lat="44.01838" lon="7.30984">
        <ele>596</ele>
        <time>2024-07-09T11:43:58Z</time>
      </trkpt>
      <trkpt lat="44.01838" lon="7.30984">
        <ele>596</ele>
        <time>2024-07-09T11:43:59Z</time>
      </trkpt>
      <trkpt lat="44.01838" lon="7.30984">
        <ele>596</ele>
        <time>2024-07-09T11:44:00Z</time>
      </trkpt>
      <trkpt lat="44.01838" lon="7.30984">
        <ele>596.6</ele>
        <time>2024-07-09T11:44:01Z</time>
      </trkpt>
      <trkpt lat="44.01841" lon="7.30988">
        <ele>596.8</ele>
        <time>2024-07-09T11:44:32Z</time>
      </trkpt>
      <trkpt lat="44.01843" lon="7.3099">
        <ele>596.8</ele>
        <time>2024-07-09T11:44:33Z</time>
      </trkpt>
      <trkpt lat="44.01845" lon="7.30993">
        <ele>596.8</ele>
        <time>2024-07-09T11:44:34Z</time>
      </trkpt>
      <trkpt lat="44.01848" lon="7.30995">
        <ele>596.8</ele>
        <time>2024-07-09T11:44:35Z</time>
      </trkpt>
      <trkpt lat="44.0185" lon="7.30998">
        <ele>596.4</ele>
        <time>2024-07-09T11:44:36Z</time>
      </trkpt>
      <trkpt lat="44.01853" lon="7.31002">
        <ele>596.4</ele>
        <time>2024-07-09T11:44:37Z</time>
      </trkpt>
      <trkpt lat="44.01855" lon="7.31005">
        <ele>596.4</ele>
        <time>2024-07-09T11:44:38Z</time>
      </trkpt>
      <trkpt lat="44.01858" lon="7.31009">
        <ele>595.6</ele>
        <time>2024-07-09T11:44:39Z</time>
      </trkpt>
      <trkpt lat="44.01861" lon="7.31013">
        <ele>595.4</ele>
        <time>2024-07-09T11:44:40Z</time>
      </trkpt>
      <trkpt lat="44.01865" lon="7.31017">
        <ele>595.4</ele>
        <time>2024-07-09T11:44:41Z</time>
      </trkpt>
      <trkpt lat="44.01868" lon="7.31022">
        <ele>595.4</ele>
        <time>2024-07-09T11:44:42Z</time>
      </trkpt>
      <trkpt lat="44.01872" lon="7.31026">
        <ele>594.8</ele>
        <time>2024-07-09T11:44:43Z</time>
      </trkpt>
      <trkpt lat="44.01876" lon="7.3103">
        <ele>594.6</ele>
        <time>2024-07-09T11:44:44Z</time>
      </trkpt>
      <trkpt lat="44.01879" lon="7.31035">
        <ele>594.6</ele>
        <time>2024-07-09T11:44:45Z</time>
      </trkpt>
      <trkpt lat="44.01883" lon="7.31039">
        <ele>594.6</ele>
        <time>2024-07-09T11:44:46Z</time>
      </trkpt>
      <trkpt lat="44.01889" lon="7.31046">
        <ele>594.6</ele>
        <time>2024-07-09T11:44:47Z</time>
      </trkpt>
      <trkpt lat="44.01891" lon="7.31048">
        <ele>594.2</ele>
        <time>2024-07-09T11:44:48Z</time>
      </trkpt>
      <trkpt lat="44.01894" lon="7.31053">
        <ele>593.8</ele>
        <time>2024-07-09T11:44:49Z</time>
      </trkpt>
      <trkpt lat="44.01898" lon="7.31058">
        <ele>593.8</ele>
        <time>2024-07-09T11:44:50Z</time>
      </trkpt>
      <trkpt lat="44.01902" lon="7.31063">
        <ele>593.8</ele>
        <time>2024-07-09T11:44:51Z</time>
      </trkpt>
      <trkpt lat="44.01906" lon="7.31068">
        <ele>593.8</ele>
        <time>2024-07-09T11:44:52Z</time>
      </trkpt>
      <trkpt lat="44.01909" lon="7.31072">
        <ele>593.4</ele>
        <time>2024-07-09T11:44:53Z</time>
      </trkpt>
      <trkpt lat="44.01913" lon="7.31076">
        <ele>593.2</ele>
        <time>2024-07-09T11:44:54Z</time>
      </trkpt>
      <trkpt lat="44.01916" lon="7.31079">
        <ele>593.2</ele>
        <time>2024-07-09T11:44:55Z</time>
      </trkpt>
      <trkpt lat="44.01918" lon="7.31082">
        <ele>593.2</ele>
        <time>2024-07-09T11:44:56Z</time>
      </trkpt>
      <trkpt lat="44.01919" lon="7.31084">
        <ele>592.6</ele>
        <time>2024-07-09T11:44:57Z</time>
      </trkpt>
      <trkpt lat="44.0192" lon="7.31086">
        <ele>592.8</ele>
        <time>2024-07-09T11:44:58Z</time>
      </trkpt>
      <trkpt lat="44.0192" lon="7.31087">
        <ele>592.8</ele>
        <time>2024-07-09T11:44:59Z</time>
      </trkpt>
      <trkpt lat="44.01922" lon="7.31092">
        <ele>592.4</ele>
        <time>2024-07-09T11:45:07Z</time>
      </trkpt>
      <trkpt lat="44.01922" lon="7.31095">
        <ele>592.4</ele>
        <time>2024-07-09T11:45:08Z</time>
      </trkpt>
      <trkpt lat="44.01924" lon="7.31097">
        <ele>592.4</ele>
        <time>2024-07-09T11:45:09Z</time>
      </trkpt>
      <trkpt lat="44.01926" lon="7.31099">
        <ele>592.4</ele>
        <time>2024-07-09T11:45:10Z</time>
      </trkpt>
      <trkpt lat="44.01929" lon="7.31099">
        <ele>592.4</ele>
        <time>2024-07-09T11:45:11Z</time>
      </trkpt>
      <trkpt lat="44.01931" lon="7.31099">
        <ele>592.8</ele>
        <time>2024-07-09T11:45:12Z</time>
      </trkpt>
      <trkpt lat="44.01934" lon="7.31099">
        <ele>592.8</ele>
        <time>2024-07-09T11:45:13Z</time>
      </trkpt>
      <trkpt lat="44.01936" lon="7.31099">
        <ele>592.8</ele>
        <time>2024-07-09T11:45:14Z</time>
      </trkpt>
      <trkpt lat="44.01938" lon="7.31099">
        <ele>593.6</ele>
        <time>2024-07-09T11:45:15Z</time>
      </trkpt>
      <trkpt lat="44.01941" lon="7.31099">
        <ele>593.6</ele>
        <time>2024-07-09T11:45:16Z</time>
      </trkpt>
      <trkpt lat="44.01943" lon="7.31099">
        <ele>593.6</ele>
        <time>2024-07-09T11:45:17Z</time>
      </trkpt>
      <trkpt lat="44.01945" lon="7.31099">
        <ele>593.6</ele>
        <time>2024-07-09T11:45:18Z</time>
      </trkpt>
      <trkpt lat="44.01947" lon="7.31099">
        <ele>594.4</ele>
        <time>2024-07-09T11:45:19Z</time>
      </trkpt>
      <trkpt lat="44.01949" lon="7.31099">
        <ele>594.4</ele>
        <time>2024-07-09T11:45:20Z</time>
      </trkpt>
      <trkpt lat="44.01951" lon="7.311">
        <ele>594.4</ele>
        <time>2024-07-09T11:45:21Z</time>
      </trkpt>
      <trkpt lat="44.01953" lon="7.311">
        <ele>594.4</ele>
        <time>2024-07-09T11:45:22Z</time>
      </trkpt>
      <trkpt lat="44.01955" lon="7.31101">
        <ele>594.4</ele>
        <time>2024-07-09T11:45:23Z</time>
      </trkpt>
      <trkpt lat="44.01957" lon="7.31101">
        <ele>594.8</ele>
        <time>2024-07-09T11:45:24Z</time>
      </trkpt>
      <trkpt lat="44.01959" lon="7.31101">
        <ele>595</ele>
        <time>2024-07-09T11:45:25Z</time>
      </trkpt>
      <trkpt lat="44.01961" lon="7.31101">
        <ele>595</ele>
        <time>2024-07-09T11:45:26Z</time>
      </trkpt>
      <trkpt lat="44.01964" lon="7.31102">
        <ele>595</ele>
        <time>2024-07-09T11:45:27Z</time>
      </trkpt>
      <trkpt lat="44.01966" lon="7.31102">
        <ele>595.4</ele>
        <time>2024-07-09T11:45:28Z</time>
      </trkpt>
      <trkpt lat="44.01968" lon="7.31102">
        <ele>595.6</ele>
        <time>2024-07-09T11:45:29Z</time>
      </trkpt>
      <trkpt lat="44.01971" lon="7.31102">
        <ele>595.6</ele>
        <time>2024-07-09T11:45:30Z</time>
      </trkpt>
      <trkpt lat="44.01973" lon="7.31102">
        <ele>595.6</ele>
        <time>2024-07-09T11:45:31Z</time>
      </trkpt>
      <trkpt lat="44.01975" lon="7.31102">
        <ele>595.6</ele>
        <time>2024-07-09T11:45:32Z</time>
      </trkpt>
      <trkpt lat="44.01978" lon="7.31101">
        <ele>595.6</ele>
        <time>2024-07-09T11:45:33Z</time>
      </trkpt>
      <trkpt lat="44.0198" lon="7.31101">
        <ele>596</ele>
        <time>2024-07-09T11:45:34Z</time>
      </trkpt>
      <trkpt lat="44.01983" lon="7.311">
        <ele>596</ele>
        <time>2024-07-09T11:45:35Z</time>
      </trkpt>
      <trkpt lat="44.01986" lon="7.31099">
        <ele>596</ele>
        <time>2024-07-09T11:45:36Z</time>
      </trkpt>
      <trkpt lat="44.01988" lon="7.31099">
        <ele>596</ele>
        <time>2024-07-09T11:45:37Z</time>
      </trkpt>
      <trkpt lat="44.0199" lon="7.31098">
        <ele>596.6</ele>
        <time>2024-07-09T11:45:38Z</time>
      </trkpt>
      <trkpt lat="44.01993" lon="7.31098">
        <ele>596.4</ele>
        <time>2024-07-09T11:45:39Z</time>
      </trkpt>
      <trkpt lat="44.01995" lon="7.31097">
        <ele>596.4</ele>
        <time>2024-07-09T11:45:40Z</time>
      </trkpt>
      <trkpt lat="44.01997" lon="7.31097">
        <ele>596.4</ele>
        <time>2024-07-09T11:45:41Z</time>
      </trkpt>
      <trkpt lat="44.01999" lon="7.31096">
        <ele>596.8</ele>
        <time>2024-07-09T11:45:42Z</time>
      </trkpt>
      <trkpt lat="44.02001" lon="7.31095">
        <ele>597</ele>
        <time>2024-07-09T11:45:43Z</time>
      </trkpt>
      <trkpt lat="44.02003" lon="7.31095">
        <ele>597</ele>
        <time>2024-07-09T11:45:44Z</time>
      </trkpt>
      <trkpt lat="44.02005" lon="7.31094">
        <ele>597</ele>
        <time>2024-07-09T11:45:45Z</time>
      </trkpt>
      <trkpt lat="44.02007" lon="7.31094">
        <ele>597</ele>
        <time>2024-07-09T11:45:46Z</time>
      </trkpt>
      <trkpt lat="44.02009" lon="7.31094">
        <ele>597</ele>
        <time>2024-07-09T11:45:47Z</time>
      </trkpt>
      <trkpt lat="44.02011" lon="7.31094">
        <ele>597.2</ele>
        <time>2024-07-09T11:45:48Z</time>
      </trkpt>
      <trkpt lat="44.02013" lon="7.31094">
        <ele>597.2</ele>
        <time>2024-07-09T11:45:49Z</time>
      </trkpt>
      <trkpt lat="44.02015" lon="7.31093">
        <ele>597.2</ele>
        <time>2024-07-09T11:45:50Z</time>
      </trkpt>
      <trkpt lat="44.02017" lon="7.31093">
        <ele>597.8</ele>
        <time>2024-07-09T11:45:51Z</time>
      </trkpt>
      <trkpt lat="44.02018" lon="7.31092">
        <ele>598</ele>
        <time>2024-07-09T11:45:52Z</time>
      </trkpt>
      <trkpt lat="44.0202" lon="7.31092">
        <ele>598</ele>
        <time>2024-07-09T11:45:53Z</time>
      </trkpt>
      <trkpt lat="44.02024" lon="7.31094">
        <ele>598</ele>
        <time>2024-07-09T11:45:54Z</time>
      </trkpt>
      <trkpt lat="44.02026" lon="7.31095">
        <ele>598</ele>
        <time>2024-07-09T11:45:55Z</time>
      </trkpt>
      <trkpt lat="44.02029" lon="7.31094">
        <ele>598</ele>
        <time>2024-07-09T11:45:56Z</time>
      </trkpt>
      <trkpt lat="44.02031" lon="7.31094">
        <ele>598.2</ele>
        <time>2024-07-09T11:45:57Z</time>
      </trkpt>
      <trkpt lat="44.02033" lon="7.31094">
        <ele>598.2</ele>
        <time>2024-07-09T11:45:58Z</time>
      </trkpt>
      <trkpt lat="44.02035" lon="7.31094">
        <ele>598.2</ele>
        <time>2024-07-09T11:45:59Z</time>
      </trkpt>
      <trkpt lat="44.02037" lon="7.31094">
        <ele>598.8</ele>
        <time>2024-07-09T11:46:00Z</time>
      </trkpt>
      <trkpt lat="44.02039" lon="7.31094">
        <ele>599.4</ele>
        <time>2024-07-09T11:46:01Z</time>
      </trkpt>
      <trkpt lat="44.02041" lon="7.31094">
        <ele>599.4</ele>
        <time>2024-07-09T11:46:02Z</time>
      </trkpt>
      <trkpt lat="44.02043" lon="7.31094">
        <ele>599.4</ele>
        <time>2024-07-09T11:46:03Z</time>
      </trkpt>
      <trkpt lat="44.02045" lon="7.31094">
        <ele>599.4</ele>
        <time>2024-07-09T11:46:04Z</time>
      </trkpt>
      <trkpt lat="44.02047" lon="7.31094">
        <ele>599.6</ele>
        <time>2024-07-09T11:46:05Z</time>
      </trkpt>
      <trkpt lat="44.02049" lon="7.31093">
        <ele>599.6</ele>
        <time>2024-07-09T11:46:06Z</time>
      </trkpt>
      <trkpt lat="44.02052" lon="7.31093">
        <ele>599.6</ele>
        <time>2024-07-09T11:46:07Z</time>
      </trkpt>
      <trkpt lat="44.02054" lon="7.31092">
        <ele>599.6</ele>
        <time>2024-07-09T11:46:08Z</time>
      </trkpt>
      <trkpt lat="44.02056" lon="7.31092">
        <ele>600</ele>
        <time>2024-07-09T11:46:09Z</time>
      </trkpt>
      <trkpt lat="44.02058" lon="7.31092">
        <ele>600</ele>
        <time>2024-07-09T11:46:10Z</time>
      </trkpt>
      <trkpt lat="44.02061" lon="7.31092">
        <ele>600</ele>
        <time>2024-07-09T11:46:11Z</time>
      </trkpt>
      <trkpt lat="44.02063" lon="7.31091">
        <ele>600</ele>
        <time>2024-07-09T11:46:12Z</time>
      </trkpt>
      <trkpt lat="44.02065" lon="7.3109">
        <ele>600.6</ele>
        <time>2024-07-09T11:46:13Z</time>
      </trkpt>
      <trkpt lat="44.02067" lon="7.3109">
        <ele>600.8</ele>
        <time>2024-07-09T11:46:14Z</time>
      </trkpt>
      <trkpt lat="44.02069" lon="7.31089">
        <ele>600.8</ele>
        <time>2024-07-09T11:46:15Z</time>
      </trkpt>
      <trkpt lat="44.02071" lon="7.31089">
        <ele>600.8</ele>
        <time>2024-07-09T11:46:16Z</time>
      </trkpt>
      <trkpt lat="44.02073" lon="7.31089">
        <ele>600.8</ele>
        <time>2024-07-09T11:46:17Z</time>
      </trkpt>
      <trkpt lat="44.02075" lon="7.31088">
        <ele>600.8</ele>
        <time>2024-07-09T11:46:18Z</time>
      </trkpt>
      <trkpt lat="44.02077" lon="7.31087">
        <ele>600.8</ele>
        <time>2024-07-09T11:46:19Z</time>
      </trkpt>
      <trkpt lat="44.02079" lon="7.31087">
        <ele>601.2</ele>
        <time>2024-07-09T11:46:20Z</time>
      </trkpt>
      <trkpt lat="44.02081" lon="7.31086">
        <ele>601.2</ele>
        <time>2024-07-09T11:46:21Z</time>
      </trkpt>
      <trkpt lat="44.02083" lon="7.31085">
        <ele>601.2</ele>
        <time>2024-07-09T11:46:22Z</time>
      </trkpt>
      <trkpt lat="44.02085" lon="7.31084">
        <ele>601.2</ele>
        <time>2024-07-09T11:46:23Z</time>
      </trkpt>
      <trkpt lat="44.02088" lon="7.31084">
        <ele>601.2</ele>
        <time>2024-07-09T11:46:24Z</time>
      </trkpt>
      <trkpt lat="44.02089" lon="7.31083">
        <ele>601.2</ele>
        <time>2024-07-09T11:46:25Z</time>
      </trkpt>
      <trkpt lat="44.02092" lon="7.31083">
        <ele>601.2</ele>
        <time>2024-07-09T11:46:26Z</time>
      </trkpt>
      <trkpt lat="44.02094" lon="7.31082">
        <ele>601.8</ele>
        <time>2024-07-09T11:46:27Z</time>
      </trkpt>
      <trkpt lat="44.02096" lon="7.31081">
        <ele>601.8</ele>
        <time>2024-07-09T11:46:28Z</time>
      </trkpt>
      <trkpt lat="44.02098" lon="7.31081">
        <ele>601.8</ele>
        <time>2024-07-09T11:46:29Z</time>
      </trkpt>
      <trkpt lat="44.021" lon="7.31081">
        <ele>601.8</ele>
        <time>2024-07-09T11:46:30Z</time>
      </trkpt>
      <trkpt lat="44.02103" lon="7.31081">
        <ele>601.8</ele>
        <time>2024-07-09T11:46:31Z</time>
      </trkpt>
      <trkpt lat="44.02105" lon="7.3108">
        <ele>602</ele>
        <time>2024-07-09T11:46:32Z</time>
      </trkpt>
      <trkpt lat="44.02107" lon="7.31079">
        <ele>602.2</ele>
        <time>2024-07-09T11:46:33Z</time>
      </trkpt>
      <trkpt lat="44.02109" lon="7.31079">
        <ele>602.2</ele>
        <time>2024-07-09T11:46:34Z</time>
      </trkpt>
      <trkpt lat="44.02112" lon="7.31078">
        <ele>602.2</ele>
        <time>2024-07-09T11:46:35Z</time>
      </trkpt>
      <trkpt lat="44.02114" lon="7.31077">
        <ele>602.6</ele>
        <time>2024-07-09T11:46:36Z</time>
      </trkpt>
      <trkpt lat="44.02116" lon="7.31077">
        <ele>602.8</ele>
        <time>2024-07-09T11:46:37Z</time>
      </trkpt>
      <trkpt lat="44.02118" lon="7.31076">
        <ele>602.8</ele>
        <time>2024-07-09T11:46:38Z</time>
      </trkpt>
      <trkpt lat="44.0212" lon="7.31075">
        <ele>602.8</ele>
        <time>2024-07-09T11:46:39Z</time>
      </trkpt>
      <trkpt lat="44.02122" lon="7.31075">
        <ele>603</ele>
        <time>2024-07-09T11:46:40Z</time>
      </trkpt>
      <trkpt lat="44.02124" lon="7.31074">
        <ele>603.2</ele>
        <time>2024-07-09T11:46:41Z</time>
      </trkpt>
      <trkpt lat="44.02126" lon="7.31073">
        <ele>603.2</ele>
        <time>2024-07-09T11:46:42Z</time>
      </trkpt>
      <trkpt lat="44.02128" lon="7.31072">
        <ele>603.2</ele>
        <time>2024-07-09T11:46:43Z</time>
      </trkpt>
      <trkpt lat="44.0213" lon="7.31072">
        <ele>603.2</ele>
        <time>2024-07-09T11:46:44Z</time>
      </trkpt>
      <trkpt lat="44.02132" lon="7.31071">
        <ele>603.2</ele>
        <time>2024-07-09T11:46:45Z</time>
      </trkpt>
      <trkpt lat="44.02134" lon="7.3107">
        <ele>603.8</ele>
        <time>2024-07-09T11:46:46Z</time>
      </trkpt>
      <trkpt lat="44.02136" lon="7.3107">
        <ele>603.8</ele>
        <time>2024-07-09T11:46:47Z</time>
      </trkpt>
      <trkpt lat="44.02138" lon="7.31069">
        <ele>603.8</ele>
        <time>2024-07-09T11:46:48Z</time>
      </trkpt>
      <trkpt lat="44.0214" lon="7.31068">
        <ele>603.8</ele>
        <time>2024-07-09T11:46:49Z</time>
      </trkpt>
      <trkpt lat="44.02142" lon="7.31068">
        <ele>604.2</ele>
        <time>2024-07-09T11:46:50Z</time>
      </trkpt>
      <trkpt lat="44.02144" lon="7.31067">
        <ele>604.2</ele>
        <time>2024-07-09T11:46:51Z</time>
      </trkpt>
      <trkpt lat="44.02146" lon="7.31066">
        <ele>604.2</ele>
        <time>2024-07-09T11:46:52Z</time>
      </trkpt>
      <trkpt lat="44.02148" lon="7.31065">
        <ele>604.8</ele>
        <time>2024-07-09T11:46:53Z</time>
      </trkpt>
      <trkpt lat="44.0215" lon="7.31065">
        <ele>604.8</ele>
        <time>2024-07-09T11:46:54Z</time>
      </trkpt>
      <trkpt lat="44.02152" lon="7.31065">
        <ele>604.8</ele>
        <time>2024-07-09T11:46:55Z</time>
      </trkpt>
      <trkpt lat="44.02155" lon="7.31064">
        <ele>604.8</ele>
        <time>2024-07-09T11:46:56Z</time>
      </trkpt>
      <trkpt lat="44.02157" lon="7.31064">
        <ele>605.4</ele>
        <time>2024-07-09T11:46:57Z</time>
      </trkpt>
      <trkpt lat="44.02159" lon="7.31064">
        <ele>605.4</ele>
        <time>2024-07-09T11:46:58Z</time>
      </trkpt>
      <trkpt lat="44.02162" lon="7.31063">
        <ele>605.4</ele>
        <time>2024-07-09T11:46:59Z</time>
      </trkpt>
      <trkpt lat="44.02164" lon="7.31062">
        <ele>605.4</ele>
        <time>2024-07-09T11:47:00Z</time>
      </trkpt>
      <trkpt lat="44.02166" lon="7.31062">
        <ele>605.4</ele>
        <time>2024-07-09T11:47:01Z</time>
      </trkpt>
      <trkpt lat="44.02168" lon="7.31061">
        <ele>605.4</ele>
        <time>2024-07-09T11:47:02Z</time>
      </trkpt>
      <trkpt lat="44.0217" lon="7.31061">
        <ele>605.6</ele>
        <time>2024-07-09T11:47:03Z</time>
      </trkpt>
      <trkpt lat="44.02173" lon="7.3106">
        <ele>605.8</ele>
        <time>2024-07-09T11:47:04Z</time>
      </trkpt>
      <trkpt lat="44.02175" lon="7.3106">
        <ele>605.8</ele>
        <time>2024-07-09T11:47:05Z</time>
      </trkpt>
      <trkpt lat="44.02178" lon="7.31059">
        <ele>605.8</ele>
        <time>2024-07-09T11:47:06Z</time>
      </trkpt>
      <trkpt lat="44.0218" lon="7.31059">
        <ele>606</ele>
        <time>2024-07-09T11:47:07Z</time>
      </trkpt>
      <trkpt lat="44.02181" lon="7.31058">
        <ele>606</ele>
        <time>2024-07-09T11:47:08Z</time>
      </trkpt>
      <trkpt lat="44.02184" lon="7.31058">
        <ele>606</ele>
        <time>2024-07-09T11:47:09Z</time>
      </trkpt>
      <trkpt lat="44.02186" lon="7.31057">
        <ele>606</ele>
        <time>2024-07-09T11:47:10Z</time>
      </trkpt>
      <trkpt lat="44.02188" lon="7.31057">
        <ele>606.4</ele>
        <time>2024-07-09T11:47:11Z</time>
      </trkpt>
      <trkpt lat="44.0219" lon="7.31057">
        <ele>606.6</ele>
        <time>2024-07-09T11:47:12Z</time>
      </trkpt>
      <trkpt lat="44.02192" lon="7.31057">
        <ele>606.6</ele>
        <time>2024-07-09T11:47:13Z</time>
      </trkpt>
      <trkpt lat="44.02194" lon="7.31056">
        <ele>606.6</ele>
        <time>2024-07-09T11:47:14Z</time>
      </trkpt>
      <trkpt lat="44.02196" lon="7.31056">
        <ele>606.6</ele>
        <time>2024-07-09T11:47:15Z</time>
      </trkpt>
      <trkpt lat="44.02199" lon="7.31055">
        <ele>607</ele>
        <time>2024-07-09T11:47:16Z</time>
      </trkpt>
      <trkpt lat="44.02201" lon="7.31055">
        <ele>607</ele>
        <time>2024-07-09T11:47:17Z</time>
      </trkpt>
      <trkpt lat="44.02203" lon="7.31054">
        <ele>607</ele>
        <time>2024-07-09T11:47:18Z</time>
      </trkpt>
      <trkpt lat="44.02205" lon="7.31053">
        <ele>607</ele>
        <time>2024-07-09T11:47:19Z</time>
      </trkpt>
      <trkpt lat="44.02207" lon="7.31053">
        <ele>607.4</ele>
        <time>2024-07-09T11:47:20Z</time>
      </trkpt>
      <trkpt lat="44.02209" lon="7.31052">
        <ele>607.6</ele>
        <time>2024-07-09T11:47:21Z</time>
      </trkpt>
      <trkpt lat="44.02211" lon="7.31052">
        <ele>607.6</ele>
        <time>2024-07-09T11:47:22Z</time>
      </trkpt>
      <trkpt lat="44.02213" lon="7.31051">
        <ele>607.6</ele>
        <time>2024-07-09T11:47:23Z</time>
      </trkpt>
      <trkpt lat="44.02216" lon="7.31051">
        <ele>607.6</ele>
        <time>2024-07-09T11:47:24Z</time>
      </trkpt>
      <trkpt lat="44.02218" lon="7.3105">
        <ele>608</ele>
        <time>2024-07-09T11:47:25Z</time>
      </trkpt>
      <trkpt lat="44.0222" lon="7.3105">
        <ele>608</ele>
        <time>2024-07-09T11:47:26Z</time>
      </trkpt>
      <trkpt lat="44.02222" lon="7.3105">
        <ele>608</ele>
        <time>2024-07-09T11:47:27Z</time>
      </trkpt>
      <trkpt lat="44.02224" lon="7.31049">
        <ele>608</ele>
        <time>2024-07-09T11:47:28Z</time>
      </trkpt>
      <trkpt lat="44.02226" lon="7.31049">
        <ele>608.4</ele>
        <time>2024-07-09T11:47:29Z</time>
      </trkpt>
      <trkpt lat="44.02228" lon="7.31048">
        <ele>608.4</ele>
        <time>2024-07-09T11:47:30Z</time>
      </trkpt>
      <trkpt lat="44.02231" lon="7.31048">
        <ele>608.4</ele>
        <time>2024-07-09T11:47:31Z</time>
      </trkpt>
      <trkpt lat="44.02233" lon="7.31047">
        <ele>608.4</ele>
        <time>2024-07-09T11:47:32Z</time>
      </trkpt>
      <trkpt lat="44.02235" lon="7.31046">
        <ele>608.8</ele>
        <time>2024-07-09T11:47:33Z</time>
      </trkpt>
      <trkpt lat="44.02237" lon="7.31046">
        <ele>608.8</ele>
        <time>2024-07-09T11:47:34Z</time>
      </trkpt>
      <trkpt lat="44.02239" lon="7.31045">
        <ele>608.8</ele>
        <time>2024-07-09T11:47:35Z</time>
      </trkpt>
      <trkpt lat="44.02242" lon="7.31045">
        <ele>608.8</ele>
        <time>2024-07-09T11:47:36Z</time>
      </trkpt>
      <trkpt lat="44.02244" lon="7.31045">
        <ele>609.2</ele>
        <time>2024-07-09T11:47:37Z</time>
      </trkpt>
      <trkpt lat="44.02246" lon="7.31044">
        <ele>609.2</ele>
        <time>2024-07-09T11:47:38Z</time>
      </trkpt>
      <trkpt lat="44.02249" lon="7.31043">
        <ele>609.4</ele>
        <time>2024-07-09T11:47:39Z</time>
      </trkpt>
      <trkpt lat="44.02251" lon="7.31043">
        <ele>609.4</ele>
        <time>2024-07-09T11:47:40Z</time>
      </trkpt>
      <trkpt lat="44.02253" lon="7.31042">
        <ele>609.4</ele>
        <time>2024-07-09T11:47:41Z</time>
      </trkpt>
      <trkpt lat="44.02255" lon="7.31042">
        <ele>609.6</ele>
        <time>2024-07-09T11:47:42Z</time>
      </trkpt>
      <trkpt lat="44.02257" lon="7.3104">
        <ele>609.8</ele>
        <time>2024-07-09T11:47:43Z</time>
      </trkpt>
      <trkpt lat="44.0226" lon="7.3104">
        <ele>609.8</ele>
        <time>2024-07-09T11:47:44Z</time>
      </trkpt>
      <trkpt lat="44.02262" lon="7.3104">
        <ele>609.8</ele>
        <time>2024-07-09T11:47:45Z</time>
      </trkpt>
      <trkpt lat="44.02264" lon="7.3104">
        <ele>609.8</ele>
        <time>2024-07-09T11:47:46Z</time>
      </trkpt>
      <trkpt lat="44.02266" lon="7.31039">
        <ele>610.2</ele>
        <time>2024-07-09T11:47:47Z</time>
      </trkpt>
      <trkpt lat="44.02268" lon="7.31038">
        <ele>610.2</ele>
        <time>2024-07-09T11:47:48Z</time>
      </trkpt>
      <trkpt lat="44.02271" lon="7.31038">
        <ele>610.2</ele>
        <time>2024-07-09T11:47:49Z</time>
      </trkpt>
      <trkpt lat="44.02273" lon="7.31037">
        <ele>610.2</ele>
        <time>2024-07-09T11:47:50Z</time>
      </trkpt>
      <trkpt lat="44.02275" lon="7.31037">
        <ele>610.4</ele>
        <time>2024-07-09T11:47:51Z</time>
      </trkpt>
      <trkpt lat="44.02277" lon="7.31036">
        <ele>610.4</ele>
        <time>2024-07-09T11:47:52Z</time>
      </trkpt>
      <trkpt lat="44.0228" lon="7.31035">
        <ele>610.6</ele>
        <time>2024-07-09T11:47:53Z</time>
      </trkpt>
      <trkpt lat="44.02282" lon="7.31034">
        <ele>610.6</ele>
        <time>2024-07-09T11:47:54Z</time>
      </trkpt>
      <trkpt lat="44.02284" lon="7.31033">
        <ele>610.6</ele>
        <time>2024-07-09T11:47:55Z</time>
      </trkpt>
      <trkpt lat="44.02286" lon="7.31032">
        <ele>610.6</ele>
        <time>2024-07-09T11:47:56Z</time>
      </trkpt>
      <trkpt lat="44.02288" lon="7.31031">
        <ele>610.8</ele>
        <time>2024-07-09T11:47:57Z</time>
      </trkpt>
      <trkpt lat="44.02291" lon="7.3103">
        <ele>610.8</ele>
        <time>2024-07-09T11:47:58Z</time>
      </trkpt>
      <trkpt lat="44.02293" lon="7.31028">
        <ele>610.8</ele>
        <time>2024-07-09T11:47:59Z</time>
      </trkpt>
      <trkpt lat="44.02295" lon="7.31027">
        <ele>610.8</ele>
        <time>2024-07-09T11:48:00Z</time>
      </trkpt>
      <trkpt lat="44.02297" lon="7.31025">
        <ele>611.2</ele>
        <time>2024-07-09T11:48:01Z</time>
      </trkpt>
      <trkpt lat="44.02298" lon="7.31024">
        <ele>611.2</ele>
        <time>2024-07-09T11:48:02Z</time>
      </trkpt>
      <trkpt lat="44.023" lon="7.31022">
        <ele>611.2</ele>
        <time>2024-07-09T11:48:03Z</time>
      </trkpt>
      <trkpt lat="44.02302" lon="7.3102">
        <ele>611.6</ele>
        <time>2024-07-09T11:48:04Z</time>
      </trkpt>
      <trkpt lat="44.02304" lon="7.31019">
        <ele>611.6</ele>
        <time>2024-07-09T11:48:05Z</time>
      </trkpt>
      <trkpt lat="44.02305" lon="7.31016">
        <ele>611.6</ele>
        <time>2024-07-09T11:48:06Z</time>
      </trkpt>
      <trkpt lat="44.02307" lon="7.31014">
        <ele>611.6</ele>
        <time>2024-07-09T11:48:07Z</time>
      </trkpt>
      <trkpt lat="44.02308" lon="7.31012">
        <ele>611.6</ele>
        <time>2024-07-09T11:48:08Z</time>
      </trkpt>
      <trkpt lat="44.02309" lon="7.3101">
        <ele>612</ele>
        <time>2024-07-09T11:48:09Z</time>
      </trkpt>
      <trkpt lat="44.02311" lon="7.31009">
        <ele>612</ele>
        <time>2024-07-09T11:48:10Z</time>
      </trkpt>
      <trkpt lat="44.02313" lon="7.31007">
        <ele>612</ele>
        <time>2024-07-09T11:48:11Z</time>
      </trkpt>
      <trkpt lat="44.02315" lon="7.31005">
        <ele>612</ele>
        <time>2024-07-09T11:48:12Z</time>
      </trkpt>
      <trkpt lat="44.02317" lon="7.31004">
        <ele>612.4</ele>
        <time>2024-07-09T11:48:13Z</time>
      </trkpt>
      <trkpt lat="44.02319" lon="7.31002">
        <ele>612.6</ele>
        <time>2024-07-09T11:48:14Z</time>
      </trkpt>
      <trkpt lat="44.02321" lon="7.31001">
        <ele>612.6</ele>
        <time>2024-07-09T11:48:15Z</time>
      </trkpt>
      <trkpt lat="44.02322" lon="7.30999">
        <ele>612.6</ele>
        <time>2024-07-09T11:48:16Z</time>
      </trkpt>
      <trkpt lat="44.02324" lon="7.30997">
        <ele>612.6</ele>
        <time>2024-07-09T11:48:17Z</time>
      </trkpt>
      <trkpt lat="44.02325" lon="7.30996">
        <ele>613</ele>
        <time>2024-07-09T11:48:18Z</time>
      </trkpt>
      <trkpt lat="44.02327" lon="7.30994">
        <ele>613</ele>
        <time>2024-07-09T11:48:19Z</time>
      </trkpt>
      <trkpt lat="44.02329" lon="7.30993">
        <ele>613</ele>
        <time>2024-07-09T11:48:20Z</time>
      </trkpt>
      <trkpt lat="44.0233" lon="7.30991">
        <ele>613</ele>
        <time>2024-07-09T11:48:21Z</time>
      </trkpt>
      <trkpt lat="44.02332" lon="7.30989">
        <ele>613</ele>
        <time>2024-07-09T11:48:22Z</time>
      </trkpt>
      <trkpt lat="44.02334" lon="7.30988">
        <ele>613</ele>
        <time>2024-07-09T11:48:23Z</time>
      </trkpt>
      <trkpt lat="44.02336" lon="7.30986">
        <ele>613</ele>
        <time>2024-07-09T11:48:24Z</time>
      </trkpt>
      <trkpt lat="44.02337" lon="7.30984">
        <ele>613</ele>
        <time>2024-07-09T11:48:25Z</time>
      </trkpt>
      <trkpt lat="44.02339" lon="7.30983">
        <ele>613</ele>
        <time>2024-07-09T11:48:26Z</time>
      </trkpt>
      <trkpt lat="44.02341" lon="7.30982">
        <ele>613.4</ele>
        <time>2024-07-09T11:48:27Z</time>
      </trkpt>
      <trkpt lat="44.02343" lon="7.30981">
        <ele>613.8</ele>
        <time>2024-07-09T11:48:28Z</time>
      </trkpt>
      <trkpt lat="44.02345" lon="7.30981">
        <ele>613.8</ele>
        <time>2024-07-09T11:48:29Z</time>
      </trkpt>
      <trkpt lat="44.02347" lon="7.3098">
        <ele>613.8</ele>
        <time>2024-07-09T11:48:30Z</time>
      </trkpt>
      <trkpt lat="44.02349" lon="7.3098">
        <ele>613.8</ele>
        <time>2024-07-09T11:48:31Z</time>
      </trkpt>
      <trkpt lat="44.02351" lon="7.30979">
        <ele>614.8</ele>
        <time>2024-07-09T11:48:32Z</time>
      </trkpt>
      <trkpt lat="44.02353" lon="7.30979">
        <ele>615.2</ele>
        <time>2024-07-09T11:48:33Z</time>
      </trkpt>
      <trkpt lat="44.02355" lon="7.30979">
        <ele>615.2</ele>
        <time>2024-07-09T11:48:34Z</time>
      </trkpt>
      <trkpt lat="44.02357" lon="7.3098">
        <ele>615.2</ele>
        <time>2024-07-09T11:48:35Z</time>
      </trkpt>
      <trkpt lat="44.02359" lon="7.3098">
        <ele>615.6</ele>
        <time>2024-07-09T11:48:36Z</time>
      </trkpt>
      <trkpt lat="44.02361" lon="7.3098">
        <ele>615.8</ele>
        <time>2024-07-09T11:48:37Z</time>
      </trkpt>
      <trkpt lat="44.02364" lon="7.30981">
        <ele>615.8</ele>
        <time>2024-07-09T11:48:38Z</time>
      </trkpt>
      <trkpt lat="44.02366" lon="7.30982">
        <ele>615.8</ele>
        <time>2024-07-09T11:48:39Z</time>
      </trkpt>
      <trkpt lat="44.02368" lon="7.30983">
        <ele>616.2</ele>
        <time>2024-07-09T11:48:40Z</time>
      </trkpt>
      <trkpt lat="44.0237" lon="7.30984">
        <ele>616.2</ele>
        <time>2024-07-09T11:48:41Z</time>
      </trkpt>
      <trkpt lat="44.02372" lon="7.30986">
        <ele>616.6</ele>
        <time>2024-07-09T11:48:42Z</time>
      </trkpt>
      <trkpt lat="44.02374" lon="7.30987">
        <ele>616.6</ele>
        <time>2024-07-09T11:48:43Z</time>
      </trkpt>
      <trkpt lat="44.02375" lon="7.30989">
        <ele>616.6</ele>
        <time>2024-07-09T11:48:44Z</time>
      </trkpt>
      <trkpt lat="44.02377" lon="7.3099">
        <ele>617</ele>
        <time>2024-07-09T11:48:45Z</time>
      </trkpt>
      <trkpt lat="44.02379" lon="7.30992">
        <ele>617.2</ele>
        <time>2024-07-09T11:48:46Z</time>
      </trkpt>
      <trkpt lat="44.02381" lon="7.30994">
        <ele>617.2</ele>
        <time>2024-07-09T11:48:47Z</time>
      </trkpt>
      <trkpt lat="44.02382" lon="7.30996">
        <ele>617.2</ele>
        <time>2024-07-09T11:48:48Z</time>
      </trkpt>
      <trkpt lat="44.02384" lon="7.30997">
        <ele>617.2</ele>
        <time>2024-07-09T11:48:49Z</time>
      </trkpt>
      <trkpt lat="44.02385" lon="7.30999">
        <ele>617.6</ele>
        <time>2024-07-09T11:48:50Z</time>
      </trkpt>
      <trkpt lat="44.02387" lon="7.31001">
        <ele>617.6</ele>
        <time>2024-07-09T11:48:51Z</time>
      </trkpt>
      <trkpt lat="44.02389" lon="7.31002">
        <ele>617.6</ele>
        <time>2024-07-09T11:48:52Z</time>
      </trkpt>
      <trkpt lat="44.02391" lon="7.31003">
        <ele>617.6</ele>
        <time>2024-07-09T11:48:53Z</time>
      </trkpt>
      <trkpt lat="44.02393" lon="7.31004">
        <ele>618.2</ele>
        <time>2024-07-09T11:48:54Z</time>
      </trkpt>
      <trkpt lat="44.02395" lon="7.31005">
        <ele>618.4</ele>
        <time>2024-07-09T11:48:55Z</time>
      </trkpt>
      <trkpt lat="44.02397" lon="7.31007">
        <ele>618.4</ele>
        <time>2024-07-09T11:48:56Z</time>
      </trkpt>
      <trkpt lat="44.02398" lon="7.31008">
        <ele>618.4</ele>
        <time>2024-07-09T11:48:57Z</time>
      </trkpt>
      <trkpt lat="44.024" lon="7.31009">
        <ele>619.4</ele>
        <time>2024-07-09T11:48:58Z</time>
      </trkpt>
      <trkpt lat="44.02402" lon="7.3101">
        <ele>619.6</ele>
        <time>2024-07-09T11:48:59Z</time>
      </trkpt>
      <trkpt lat="44.02404" lon="7.31011">
        <ele>619.6</ele>
        <time>2024-07-09T11:49:00Z</time>
      </trkpt>
      <trkpt lat="44.02407" lon="7.31011">
        <ele>619.6</ele>
        <time>2024-07-09T11:49:01Z</time>
      </trkpt>
      <trkpt lat="44.02409" lon="7.31011">
        <ele>620</ele>
        <time>2024-07-09T11:49:02Z</time>
      </trkpt>
      <trkpt lat="44.02411" lon="7.31012">
        <ele>620.2</ele>
        <time>2024-07-09T11:49:03Z</time>
      </trkpt>
      <trkpt lat="44.02413" lon="7.31012">
        <ele>620.2</ele>
        <time>2024-07-09T11:49:04Z</time>
      </trkpt>
      <trkpt lat="44.02415" lon="7.31012">
        <ele>620.2</ele>
        <time>2024-07-09T11:49:05Z</time>
      </trkpt>
      <trkpt lat="44.02418" lon="7.31011">
        <ele>620.2</ele>
        <time>2024-07-09T11:49:06Z</time>
      </trkpt>
      <trkpt lat="44.0242" lon="7.31011">
        <ele>620.4</ele>
        <time>2024-07-09T11:49:07Z</time>
      </trkpt>
      <trkpt lat="44.02423" lon="7.31011">
        <ele>620.4</ele>
        <time>2024-07-09T11:49:08Z</time>
      </trkpt>
      <trkpt lat="44.02425" lon="7.3101">
        <ele>620.6</ele>
        <time>2024-07-09T11:49:09Z</time>
      </trkpt>
      <trkpt lat="44.02428" lon="7.3101">
        <ele>620.6</ele>
        <time>2024-07-09T11:49:10Z</time>
      </trkpt>
      <trkpt lat="44.0243" lon="7.3101">
        <ele>620.6</ele>
        <time>2024-07-09T11:49:11Z</time>
      </trkpt>
      <trkpt lat="44.02432" lon="7.3101">
        <ele>621.2</ele>
        <time>2024-07-09T11:49:12Z</time>
      </trkpt>
      <trkpt lat="44.02435" lon="7.31009">
        <ele>621</ele>
        <time>2024-07-09T11:49:13Z</time>
      </trkpt>
      <trkpt lat="44.02437" lon="7.31009">
        <ele>621</ele>
        <time>2024-07-09T11:49:14Z</time>
      </trkpt>
      <trkpt lat="44.02439" lon="7.31008">
        <ele>621</ele>
        <time>2024-07-09T11:49:15Z</time>
      </trkpt>
      <trkpt lat="44.02442" lon="7.31008">
        <ele>621</ele>
        <time>2024-07-09T11:49:16Z</time>
      </trkpt>
      <trkpt lat="44.02444" lon="7.31007">
        <ele>621.2</ele>
        <time>2024-07-09T11:49:17Z</time>
      </trkpt>
      <trkpt lat="44.02447" lon="7.31006">
        <ele>621.2</ele>
        <time>2024-07-09T11:49:18Z</time>
      </trkpt>
      <trkpt lat="44.02449" lon="7.31006">
        <ele>621.2</ele>
        <time>2024-07-09T11:49:19Z</time>
      </trkpt>
      <trkpt lat="44.02452" lon="7.31005">
        <ele>621.2</ele>
        <time>2024-07-09T11:49:20Z</time>
      </trkpt>
      <trkpt lat="44.02454" lon="7.31005">
        <ele>621.4</ele>
        <time>2024-07-09T11:49:21Z</time>
      </trkpt>
      <trkpt lat="44.02456" lon="7.31004">
        <ele>621.8</ele>
        <time>2024-07-09T11:49:22Z</time>
      </trkpt>
      <trkpt lat="44.02458" lon="7.31004">
        <ele>621.8</ele>
        <time>2024-07-09T11:49:23Z</time>
      </trkpt>
      <trkpt lat="44.02461" lon="7.31003">
        <ele>621.8</ele>
        <time>2024-07-09T11:49:24Z</time>
      </trkpt>
      <trkpt lat="44.02463" lon="7.31003">
        <ele>621.8</ele>
        <time>2024-07-09T11:49:25Z</time>
      </trkpt>
      <trkpt lat="44.02465" lon="7.31003">
        <ele>621.6</ele>
        <time>2024-07-09T11:49:26Z</time>
      </trkpt>
      <trkpt lat="44.02468" lon="7.31003">
        <ele>621.6</ele>
        <time>2024-07-09T11:49:27Z</time>
      </trkpt>
      <trkpt lat="44.0247" lon="7.31002">
        <ele>621.6</ele>
        <time>2024-07-09T11:49:28Z</time>
      </trkpt>
      <trkpt lat="44.02472" lon="7.31002">
        <ele>622.2</ele>
        <time>2024-07-09T11:49:29Z</time>
      </trkpt>
      <trkpt lat="44.02474" lon="7.31001">
        <ele>622.6</ele>
        <time>2024-07-09T11:49:30Z</time>
      </trkpt>
      <trkpt lat="44.02476" lon="7.31001">
        <ele>622.6</ele>
        <time>2024-07-09T11:49:31Z</time>
      </trkpt>
      <trkpt lat="44.02479" lon="7.31001">
        <ele>622.6</ele>
        <time>2024-07-09T11:49:32Z</time>
      </trkpt>
      <trkpt lat="44.02481" lon="7.31001">
        <ele>622.8</ele>
        <time>2024-07-09T11:49:33Z</time>
      </trkpt>
      <trkpt lat="44.02483" lon="7.31">
        <ele>622.8</ele>
        <time>2024-07-09T11:49:34Z</time>
      </trkpt>
      <trkpt lat="44.02485" lon="7.31">
        <ele>622.8</ele>
        <time>2024-07-09T11:49:35Z</time>
      </trkpt>
      <trkpt lat="44.02487" lon="7.31">
        <ele>622.8</ele>
        <time>2024-07-09T11:49:36Z</time>
      </trkpt>
      <trkpt lat="44.0249" lon="7.31">
        <ele>622.8</ele>
        <time>2024-07-09T11:49:37Z</time>
      </trkpt>
      <trkpt lat="44.02492" lon="7.30999">
        <ele>623.6</ele>
        <time>2024-07-09T11:49:38Z</time>
      </trkpt>
      <trkpt lat="44.02494" lon="7.30999">
        <ele>623.6</ele>
        <time>2024-07-09T11:49:39Z</time>
      </trkpt>
      <trkpt lat="44.02497" lon="7.30999">
        <ele>623.6</ele>
        <time>2024-07-09T11:49:40Z</time>
      </trkpt>
      <trkpt lat="44.02499" lon="7.30998">
        <ele>623.6</ele>
        <time>2024-07-09T11:49:41Z</time>
      </trkpt>
      <trkpt lat="44.02501" lon="7.30997">
        <ele>624.2</ele>
        <time>2024-07-09T11:49:42Z</time>
      </trkpt>
      <trkpt lat="44.02503" lon="7.30997">
        <ele>624.2</ele>
        <time>2024-07-09T11:49:43Z</time>
      </trkpt>
      <trkpt lat="44.02505" lon="7.30997">
        <ele>624.2</ele>
        <time>2024-07-09T11:49:44Z</time>
      </trkpt>
      <trkpt lat="44.02507" lon="7.30996">
        <ele>624.2</ele>
        <time>2024-07-09T11:49:45Z</time>
      </trkpt>
      <trkpt lat="44.0251" lon="7.30996">
        <ele>624.2</ele>
        <time>2024-07-09T11:49:46Z</time>
      </trkpt>
      <trkpt lat="44.02512" lon="7.30996">
        <ele>624.8</ele>
        <time>2024-07-09T11:49:47Z</time>
      </trkpt>
      <trkpt lat="44.02514" lon="7.30996">
        <ele>624.6</ele>
        <time>2024-07-09T11:49:48Z</time>
      </trkpt>
      <trkpt lat="44.02516" lon="7.30995">
        <ele>624.6</ele>
        <time>2024-07-09T11:49:49Z</time>
      </trkpt>
      <trkpt lat="44.02518" lon="7.30995">
        <ele>624.6</ele>
        <time>2024-07-09T11:49:50Z</time>
      </trkpt>
      <trkpt lat="44.0252" lon="7.30995">
        <ele>624.6</ele>
        <time>2024-07-09T11:49:51Z</time>
      </trkpt>
      <trkpt lat="44.02523" lon="7.30995">
        <ele>625.2</ele>
        <time>2024-07-09T11:49:52Z</time>
      </trkpt>
      <trkpt lat="44.02525" lon="7.30995">
        <ele>625.6</ele>
        <time>2024-07-09T11:49:53Z</time>
      </trkpt>
      <trkpt lat="44.02527" lon="7.30995">
        <ele>625.6</ele>
        <time>2024-07-09T11:49:54Z</time>
      </trkpt>
      <trkpt lat="44.02529" lon="7.30995">
        <ele>625.6</ele>
        <time>2024-07-09T11:49:55Z</time>
      </trkpt>
      <trkpt lat="44.02531" lon="7.30995">
        <ele>626</ele>
        <time>2024-07-09T11:49:56Z</time>
      </trkpt>
      <trkpt lat="44.02534" lon="7.30995">
        <ele>626.2</ele>
        <time>2024-07-09T11:49:57Z</time>
      </trkpt>
      <trkpt lat="44.02536" lon="7.30995">
        <ele>626.2</ele>
        <time>2024-07-09T11:49:58Z</time>
      </trkpt>
      <trkpt lat="44.02538" lon="7.30996">
        <ele>626.2</ele>
        <time>2024-07-09T11:49:59Z</time>
      </trkpt>
      <trkpt lat="44.0254" lon="7.30996">
        <ele>626.2</ele>
        <time>2024-07-09T11:50:00Z</time>
      </trkpt>
      <trkpt lat="44.02543" lon="7.30996">
        <ele>626.8</ele>
        <time>2024-07-09T11:50:01Z</time>
      </trkpt>
      <trkpt lat="44.02545" lon="7.30996">
        <ele>627</ele>
        <time>2024-07-09T11:50:02Z</time>
      </trkpt>
      <trkpt lat="44.02547" lon="7.30997">
        <ele>627</ele>
        <time>2024-07-09T11:50:03Z</time>
      </trkpt>
      <trkpt lat="44.02549" lon="7.30998">
        <ele>627</ele>
        <time>2024-07-09T11:50:04Z</time>
      </trkpt>
      <trkpt lat="44.02551" lon="7.30998">
        <ele>627.6</ele>
        <time>2024-07-09T11:50:05Z</time>
      </trkpt>
      <trkpt lat="44.02554" lon="7.30999">
        <ele>627.6</ele>
        <time>2024-07-09T11:50:06Z</time>
      </trkpt>
      <trkpt lat="44.02555" lon="7.31">
        <ele>627.6</ele>
        <time>2024-07-09T11:50:07Z</time>
      </trkpt>
      <trkpt lat="44.02557" lon="7.30999">
        <ele>627.6</ele>
        <time>2024-07-09T11:50:08Z</time>
      </trkpt>
      <trkpt lat="44.02559" lon="7.31">
        <ele>628</ele>
        <time>2024-07-09T11:50:09Z</time>
      </trkpt>
      <trkpt lat="44.02561" lon="7.31001">
        <ele>628.2</ele>
        <time>2024-07-09T11:50:10Z</time>
      </trkpt>
      <trkpt lat="44.02564" lon="7.31002">
        <ele>628.2</ele>
        <time>2024-07-09T11:50:11Z</time>
      </trkpt>
      <trkpt lat="44.02567" lon="7.31003">
        <ele>628.2</ele>
        <time>2024-07-09T11:50:12Z</time>
      </trkpt>
      <trkpt lat="44.02569" lon="7.31003">
        <ele>628.2</ele>
        <time>2024-07-09T11:50:13Z</time>
      </trkpt>
      <trkpt lat="44.02571" lon="7.31004">
        <ele>628.8</ele>
        <time>2024-07-09T11:50:14Z</time>
      </trkpt>
      <trkpt lat="44.02574" lon="7.31005">
        <ele>629.2</ele>
        <time>2024-07-09T11:50:15Z</time>
      </trkpt>
      <trkpt lat="44.02576" lon="7.31005">
        <ele>629.2</ele>
        <time>2024-07-09T11:50:16Z</time>
      </trkpt>
      <trkpt lat="44.02578" lon="7.31006">
        <ele>629.2</ele>
        <time>2024-07-09T11:50:17Z</time>
      </trkpt>
      <trkpt lat="44.02581" lon="7.31006">
        <ele>629.6</ele>
        <time>2024-07-09T11:50:18Z</time>
      </trkpt>
      <trkpt lat="44.02583" lon="7.31006">
        <ele>629.8</ele>
        <time>2024-07-09T11:50:19Z</time>
      </trkpt>
      <trkpt lat="44.02585" lon="7.31007">
        <ele>629.8</ele>
        <time>2024-07-09T11:50:20Z</time>
      </trkpt>
      <trkpt lat="44.02587" lon="7.31008">
        <ele>629.8</ele>
        <time>2024-07-09T11:50:21Z</time>
      </trkpt>
      <trkpt lat="44.02589" lon="7.31009">
        <ele>630.2</ele>
        <time>2024-07-09T11:50:22Z</time>
      </trkpt>
      <trkpt lat="44.02591" lon="7.31009">
        <ele>630.2</ele>
        <time>2024-07-09T11:50:23Z</time>
      </trkpt>
      <trkpt lat="44.02593" lon="7.31009">
        <ele>630.4</ele>
        <time>2024-07-09T11:50:24Z</time>
      </trkpt>
      <trkpt lat="44.02596" lon="7.3101">
        <ele>630.4</ele>
        <time>2024-07-09T11:50:25Z</time>
      </trkpt>
      <trkpt lat="44.02598" lon="7.3101">
        <ele>630.4</ele>
        <time>2024-07-09T11:50:26Z</time>
      </trkpt>
      <trkpt lat="44.02601" lon="7.3101">
        <ele>630.8</ele>
        <time>2024-07-09T11:50:27Z</time>
      </trkpt>
      <trkpt lat="44.02604" lon="7.31009">
        <ele>630.6</ele>
        <time>2024-07-09T11:50:28Z</time>
      </trkpt>
      <trkpt lat="44.02605" lon="7.31009">
        <ele>630.6</ele>
        <time>2024-07-09T11:50:29Z</time>
      </trkpt>
      <trkpt lat="44.02608" lon="7.31008">
        <ele>630.6</ele>
        <time>2024-07-09T11:50:30Z</time>
      </trkpt>
      <trkpt lat="44.0261" lon="7.31006">
        <ele>630.6</ele>
        <time>2024-07-09T11:50:31Z</time>
      </trkpt>
      <trkpt lat="44.02612" lon="7.31005">
        <ele>630.8</ele>
        <time>2024-07-09T11:50:32Z</time>
      </trkpt>
      <trkpt lat="44.02615" lon="7.31003">
        <ele>630.8</ele>
        <time>2024-07-09T11:50:33Z</time>
      </trkpt>
      <trkpt lat="44.02617" lon="7.31001">
        <ele>630.8</ele>
        <time>2024-07-09T11:50:34Z</time>
      </trkpt>
      <trkpt lat="44.02619" lon="7.31">
        <ele>630.8</ele>
        <time>2024-07-09T11:50:35Z</time>
      </trkpt>
      <trkpt lat="44.02621" lon="7.30998">
        <ele>631</ele>
        <time>2024-07-09T11:50:36Z</time>
      </trkpt>
      <trkpt lat="44.02622" lon="7.30996">
        <ele>631</ele>
        <time>2024-07-09T11:50:37Z</time>
      </trkpt>
      <trkpt lat="44.02624" lon="7.30994">
        <ele>631</ele>
        <time>2024-07-09T11:50:38Z</time>
      </trkpt>
      <trkpt lat="44.02626" lon="7.30992">
        <ele>631</ele>
        <time>2024-07-09T11:50:39Z</time>
      </trkpt>
      <trkpt lat="44.02628" lon="7.3099">
        <ele>631</ele>
        <time>2024-07-09T11:50:40Z</time>
      </trkpt>
      <trkpt lat="44.02629" lon="7.30988">
        <ele>631.4</ele>
        <time>2024-07-09T11:50:41Z</time>
      </trkpt>
      <trkpt lat="44.02631" lon="7.30986">
        <ele>631.4</ele>
        <time>2024-07-09T11:50:42Z</time>
      </trkpt>
      <trkpt lat="44.02633" lon="7.30984">
        <ele>631.4</ele>
        <time>2024-07-09T11:50:43Z</time>
      </trkpt>
      <trkpt lat="44.02635" lon="7.30982">
        <ele>631.4</ele>
        <time>2024-07-09T11:50:44Z</time>
      </trkpt>
      <trkpt lat="44.02637" lon="7.3098">
        <ele>631.4</ele>
        <time>2024-07-09T11:50:45Z</time>
      </trkpt>
      <trkpt lat="44.02639" lon="7.30979">
        <ele>631.6</ele>
        <time>2024-07-09T11:50:46Z</time>
      </trkpt>
      <trkpt lat="44.02641" lon="7.30977">
        <ele>631.6</ele>
        <time>2024-07-09T11:50:47Z</time>
      </trkpt>
      <trkpt lat="44.02644" lon="7.30975">
        <ele>631.6</ele>
        <time>2024-07-09T11:50:48Z</time>
      </trkpt>
      <trkpt lat="44.02646" lon="7.30973">
        <ele>631.6</ele>
        <time>2024-07-09T11:50:49Z</time>
      </trkpt>
      <trkpt lat="44.02647" lon="7.30972">
        <ele>632.2</ele>
        <time>2024-07-09T11:50:50Z</time>
      </trkpt>
      <trkpt lat="44.02649" lon="7.30971">
        <ele>632.8</ele>
        <time>2024-07-09T11:50:51Z</time>
      </trkpt>
      <trkpt lat="44.02652" lon="7.30971">
        <ele>632.8</ele>
        <time>2024-07-09T11:50:52Z</time>
      </trkpt>
      <trkpt lat="44.02654" lon="7.3097">
        <ele>632.8</ele>
        <time>2024-07-09T11:50:53Z</time>
      </trkpt>
      <trkpt lat="44.02656" lon="7.3097">
        <ele>633.4</ele>
        <time>2024-07-09T11:50:54Z</time>
      </trkpt>
      <trkpt lat="44.02658" lon="7.3097">
        <ele>633.8</ele>
        <time>2024-07-09T11:50:55Z</time>
      </trkpt>
      <trkpt lat="44.02661" lon="7.30971">
        <ele>633.8</ele>
        <time>2024-07-09T11:50:56Z</time>
      </trkpt>
      <trkpt lat="44.02663" lon="7.30971">
        <ele>633.8</ele>
        <time>2024-07-09T11:50:57Z</time>
      </trkpt>
      <trkpt lat="44.02665" lon="7.30971">
        <ele>634.4</ele>
        <time>2024-07-09T11:50:58Z</time>
      </trkpt>
      <trkpt lat="44.02667" lon="7.30972">
        <ele>634.6</ele>
        <time>2024-07-09T11:50:59Z</time>
      </trkpt>
      <trkpt lat="44.02669" lon="7.30973">
        <ele>634.6</ele>
        <time>2024-07-09T11:51:00Z</time>
      </trkpt>
      <trkpt lat="44.02672" lon="7.30974">
        <ele>634.6</ele>
        <time>2024-07-09T11:51:01Z</time>
      </trkpt>
      <trkpt lat="44.02674" lon="7.30975">
        <ele>634.6</ele>
        <time>2024-07-09T11:51:02Z</time>
      </trkpt>
      <trkpt lat="44.02676" lon="7.30976">
        <ele>634.8</ele>
        <time>2024-07-09T11:51:03Z</time>
      </trkpt>
      <trkpt lat="44.02678" lon="7.30978">
        <ele>635</ele>
        <time>2024-07-09T11:51:04Z</time>
      </trkpt>
      <trkpt lat="44.02681" lon="7.3098">
        <ele>635</ele>
        <time>2024-07-09T11:51:05Z</time>
      </trkpt>
      <trkpt lat="44.02683" lon="7.30982">
        <ele>635</ele>
        <time>2024-07-09T11:51:06Z</time>
      </trkpt>
      <trkpt lat="44.02685" lon="7.30984">
        <ele>635.8</ele>
        <time>2024-07-09T11:51:07Z</time>
      </trkpt>
      <trkpt lat="44.02688" lon="7.30985">
        <ele>635.8</ele>
        <time>2024-07-09T11:51:08Z</time>
      </trkpt>
      <trkpt lat="44.0269" lon="7.30986">
        <ele>635.8</ele>
        <time>2024-07-09T11:51:09Z</time>
      </trkpt>
      <trkpt lat="44.02693" lon="7.30986">
        <ele>635.8</ele>
        <time>2024-07-09T11:51:10Z</time>
      </trkpt>
      <trkpt lat="44.02695" lon="7.30987">
        <ele>636.2</ele>
        <time>2024-07-09T11:51:11Z</time>
      </trkpt>
      <trkpt lat="44.02698" lon="7.30987">
        <ele>636.4</ele>
        <time>2024-07-09T11:51:12Z</time>
      </trkpt>
      <trkpt lat="44.027" lon="7.30987">
        <ele>636.4</ele>
        <time>2024-07-09T11:51:13Z</time>
      </trkpt>
      <trkpt lat="44.02702" lon="7.30987">
        <ele>636.4</ele>
        <time>2024-07-09T11:51:14Z</time>
      </trkpt>
      <trkpt lat="44.02704" lon="7.30987">
        <ele>636.4</ele>
        <time>2024-07-09T11:51:15Z</time>
      </trkpt>
      <trkpt lat="44.02707" lon="7.30987">
        <ele>636.4</ele>
        <time>2024-07-09T11:51:16Z</time>
      </trkpt>
      <trkpt lat="44.02709" lon="7.30988">
        <ele>636.8</ele>
        <time>2024-07-09T11:51:17Z</time>
      </trkpt>
      <trkpt lat="44.02711" lon="7.30988">
        <ele>636.8</ele>
        <time>2024-07-09T11:51:18Z</time>
      </trkpt>
      <trkpt lat="44.02714" lon="7.30988">
        <ele>636.8</ele>
        <time>2024-07-09T11:51:19Z</time>
      </trkpt>
      <trkpt lat="44.02717" lon="7.30988">
        <ele>636.8</ele>
        <time>2024-07-09T11:51:20Z</time>
      </trkpt>
      <trkpt lat="44.02719" lon="7.30987">
        <ele>637.4</ele>
        <time>2024-07-09T11:51:21Z</time>
      </trkpt>
      <trkpt lat="44.02721" lon="7.30987">
        <ele>637.4</ele>
        <time>2024-07-09T11:51:22Z</time>
      </trkpt>
      <trkpt lat="44.02723" lon="7.30987">
        <ele>637.4</ele>
        <time>2024-07-09T11:51:23Z</time>
      </trkpt>
      <trkpt lat="44.02725" lon="7.30987">
        <ele>637.4</ele>
        <time>2024-07-09T11:51:24Z</time>
      </trkpt>
      <trkpt lat="44.02727" lon="7.30987">
        <ele>638</ele>
        <time>2024-07-09T11:51:25Z</time>
      </trkpt>
      <trkpt lat="44.02729" lon="7.30987">
        <ele>638.2</ele>
        <time>2024-07-09T11:51:26Z</time>
      </trkpt>
      <trkpt lat="44.02731" lon="7.30987">
        <ele>638.2</ele>
        <time>2024-07-09T11:51:27Z</time>
      </trkpt>
      <trkpt lat="44.02734" lon="7.30986">
        <ele>638.2</ele>
        <time>2024-07-09T11:51:28Z</time>
      </trkpt>
      <trkpt lat="44.02736" lon="7.30985">
        <ele>638.2</ele>
        <time>2024-07-09T11:51:29Z</time>
      </trkpt>
      <trkpt lat="44.02739" lon="7.30984">
        <ele>638.2</ele>
        <time>2024-07-09T11:51:30Z</time>
      </trkpt>
      <trkpt lat="44.02741" lon="7.30983">
        <ele>638.2</ele>
        <time>2024-07-09T11:51:31Z</time>
      </trkpt>
      <trkpt lat="44.02743" lon="7.30983">
        <ele>638.2</ele>
        <time>2024-07-09T11:51:32Z</time>
      </trkpt>
      <trkpt lat="44.02746" lon="7.30983">
        <ele>638.2</ele>
        <time>2024-07-09T11:51:33Z</time>
      </trkpt>
      <trkpt lat="44.02748" lon="7.30982">
        <ele>638.2</ele>
        <time>2024-07-09T11:51:34Z</time>
      </trkpt>
      <trkpt lat="44.02751" lon="7.30981">
        <ele>638.4</ele>
        <time>2024-07-09T11:51:35Z</time>
      </trkpt>
      <trkpt lat="44.02753" lon="7.30981">
        <ele>638.4</ele>
        <time>2024-07-09T11:51:36Z</time>
      </trkpt>
      <trkpt lat="44.02755" lon="7.3098">
        <ele>638.4</ele>
        <time>2024-07-09T11:51:37Z</time>
      </trkpt>
      <trkpt lat="44.02758" lon="7.30979">
        <ele>638.8</ele>
        <time>2024-07-09T11:51:38Z</time>
      </trkpt>
      <trkpt lat="44.0276" lon="7.30978">
        <ele>638.6</ele>
        <time>2024-07-09T11:51:39Z</time>
      </trkpt>
      <trkpt lat="44.02763" lon="7.30978">
        <ele>638.6</ele>
        <time>2024-07-09T11:51:40Z</time>
      </trkpt>
      <trkpt lat="44.02765" lon="7.30977">
        <ele>638.6</ele>
        <time>2024-07-09T11:51:41Z</time>
      </trkpt>
      <trkpt lat="44.02768" lon="7.30976">
        <ele>639</ele>
        <time>2024-07-09T11:51:42Z</time>
      </trkpt>
      <trkpt lat="44.0277" lon="7.30976">
        <ele>639.2</ele>
        <time>2024-07-09T11:51:43Z</time>
      </trkpt>
      <trkpt lat="44.02772" lon="7.30976">
        <ele>639.2</ele>
        <time>2024-07-09T11:51:44Z</time>
      </trkpt>
      <trkpt lat="44.02774" lon="7.30975">
        <ele>639.2</ele>
        <time>2024-07-09T11:51:45Z</time>
      </trkpt>
      <trkpt lat="44.02777" lon="7.30975">
        <ele>639.2</ele>
        <time>2024-07-09T11:51:46Z</time>
      </trkpt>
      <trkpt lat="44.02779" lon="7.30975">
        <ele>639.6</ele>
        <time>2024-07-09T11:51:47Z</time>
      </trkpt>
      <trkpt lat="44.02782" lon="7.30974">
        <ele>639.8</ele>
        <time>2024-07-09T11:51:48Z</time>
      </trkpt>
      <trkpt lat="44.02784" lon="7.30974">
        <ele>639.8</ele>
        <time>2024-07-09T11:51:49Z</time>
      </trkpt>
      <trkpt lat="44.02787" lon="7.30974">
        <ele>639.8</ele>
        <time>2024-07-09T11:51:50Z</time>
      </trkpt>
      <trkpt lat="44.02788" lon="7.30973">
        <ele>640</ele>
        <time>2024-07-09T11:51:51Z</time>
      </trkpt>
      <trkpt lat="44.0279" lon="7.30973">
        <ele>640.2</ele>
        <time>2024-07-09T11:51:52Z</time>
      </trkpt>
      <trkpt lat="44.02792" lon="7.30973">
        <ele>640.2</ele>
        <time>2024-07-09T11:51:53Z</time>
      </trkpt>
      <trkpt lat="44.02794" lon="7.30972">
        <ele>640.2</ele>
        <time>2024-07-09T11:51:54Z</time>
      </trkpt>
      <trkpt lat="44.02797" lon="7.30971">
        <ele>640.8</ele>
        <time>2024-07-09T11:51:55Z</time>
      </trkpt>
      <trkpt lat="44.02799" lon="7.30971">
        <ele>641</ele>
        <time>2024-07-09T11:51:56Z</time>
      </trkpt>
      <trkpt lat="44.02801" lon="7.3097">
        <ele>641</ele>
        <time>2024-07-09T11:51:57Z</time>
      </trkpt>
      <trkpt lat="44.02804" lon="7.30969">
        <ele>641</ele>
        <time>2024-07-09T11:51:58Z</time>
      </trkpt>
      <trkpt lat="44.02806" lon="7.30969">
        <ele>641</ele>
        <time>2024-07-09T11:51:59Z</time>
      </trkpt>
      <trkpt lat="44.02809" lon="7.30968">
        <ele>641.4</ele>
        <time>2024-07-09T11:52:00Z</time>
      </trkpt>
      <trkpt lat="44.02811" lon="7.30967">
        <ele>641.4</ele>
        <time>2024-07-09T11:52:01Z</time>
      </trkpt>
      <trkpt lat="44.02813" lon="7.30966">
        <ele>641.6</ele>
        <time>2024-07-09T11:52:02Z</time>
      </trkpt>
      <trkpt lat="44.02816" lon="7.30965">
        <ele>641.6</ele>
        <time>2024-07-09T11:52:03Z</time>
      </trkpt>
      <trkpt lat="44.02818" lon="7.30965">
        <ele>641.6</ele>
        <time>2024-07-09T11:52:04Z</time>
      </trkpt>
      <trkpt lat="44.0282" lon="7.30964">
        <ele>642.2</ele>
        <time>2024-07-09T11:52:05Z</time>
      </trkpt>
      <trkpt lat="44.02822" lon="7.30963">
        <ele>642.6</ele>
        <time>2024-07-09T11:52:06Z</time>
      </trkpt>
      <trkpt lat="44.02825" lon="7.30963">
        <ele>642.6</ele>
        <time>2024-07-09T11:52:07Z</time>
      </trkpt>
      <trkpt lat="44.02827" lon="7.30962">
        <ele>642.6</ele>
        <time>2024-07-09T11:52:08Z</time>
      </trkpt>
      <trkpt lat="44.02829" lon="7.30961">
        <ele>642.6</ele>
        <time>2024-07-09T11:52:09Z</time>
      </trkpt>
      <trkpt lat="44.02832" lon="7.3096">
        <ele>642.8</ele>
        <time>2024-07-09T11:52:10Z</time>
      </trkpt>
      <trkpt lat="44.02834" lon="7.30959">
        <ele>642.8</ele>
        <time>2024-07-09T11:52:11Z</time>
      </trkpt>
      <trkpt lat="44.02836" lon="7.30957">
        <ele>642.8</ele>
        <time>2024-07-09T11:52:12Z</time>
      </trkpt>
      <trkpt lat="44.02839" lon="7.30956">
        <ele>642.8</ele>
        <time>2024-07-09T11:52:13Z</time>
      </trkpt>
      <trkpt lat="44.02841" lon="7.30955">
        <ele>643</ele>
        <time>2024-07-09T11:52:14Z</time>
      </trkpt>
      <trkpt lat="44.02843" lon="7.30954">
        <ele>643.2</ele>
        <time>2024-07-09T11:52:15Z</time>
      </trkpt>
      <trkpt lat="44.02845" lon="7.30952">
        <ele>643.2</ele>
        <time>2024-07-09T11:52:16Z</time>
      </trkpt>
      <trkpt lat="44.02847" lon="7.30951">
        <ele>643.2</ele>
        <time>2024-07-09T11:52:17Z</time>
      </trkpt>
      <trkpt lat="44.02849" lon="7.30949">
        <ele>643.6</ele>
        <time>2024-07-09T11:52:18Z</time>
      </trkpt>
      <trkpt lat="44.02851" lon="7.30949">
        <ele>643.6</ele>
        <time>2024-07-09T11:52:19Z</time>
      </trkpt>
      <trkpt lat="44.02853" lon="7.30948">
        <ele>643.6</ele>
        <time>2024-07-09T11:52:20Z</time>
      </trkpt>
      <trkpt lat="44.02856" lon="7.30947">
        <ele>643.6</ele>
        <time>2024-07-09T11:52:21Z</time>
      </trkpt>
      <trkpt lat="44.02858" lon="7.30945">
        <ele>644</ele>
        <time>2024-07-09T11:52:22Z</time>
      </trkpt>
      <trkpt lat="44.0286" lon="7.30944">
        <ele>644</ele>
        <time>2024-07-09T11:52:23Z</time>
      </trkpt>
      <trkpt lat="44.02862" lon="7.30942">
        <ele>644.2</ele>
        <time>2024-07-09T11:52:24Z</time>
      </trkpt>
      <trkpt lat="44.02864" lon="7.30941">
        <ele>644.2</ele>
        <time>2024-07-09T11:52:25Z</time>
      </trkpt>
      <trkpt lat="44.02866" lon="7.30939">
        <ele>644.2</ele>
        <time>2024-07-09T11:52:26Z</time>
      </trkpt>
      <trkpt lat="44.02868" lon="7.30938">
        <ele>644.6</ele>
        <time>2024-07-09T11:52:27Z</time>
      </trkpt>
      <trkpt lat="44.0287" lon="7.30937">
        <ele>644.6</ele>
        <time>2024-07-09T11:52:28Z</time>
      </trkpt>
      <trkpt lat="44.02872" lon="7.30936">
        <ele>644.6</ele>
        <time>2024-07-09T11:52:29Z</time>
      </trkpt>
      <trkpt lat="44.02874" lon="7.30935">
        <ele>644.6</ele>
        <time>2024-07-09T11:52:30Z</time>
      </trkpt>
      <trkpt lat="44.02876" lon="7.30934">
        <ele>645.4</ele>
        <time>2024-07-09T11:52:31Z</time>
      </trkpt>
      <trkpt lat="44.02878" lon="7.30932">
        <ele>645.4</ele>
        <time>2024-07-09T11:52:32Z</time>
      </trkpt>
      <trkpt lat="44.0288" lon="7.30931">
        <ele>645.4</ele>
        <time>2024-07-09T11:52:33Z</time>
      </trkpt>
      <trkpt lat="44.02882" lon="7.30929">
        <ele>645.4</ele>
        <time>2024-07-09T11:52:34Z</time>
      </trkpt>
      <trkpt lat="44.02884" lon="7.30928">
        <ele>645.4</ele>
        <time>2024-07-09T11:52:35Z</time>
      </trkpt>
      <trkpt lat="44.02886" lon="7.30928">
        <ele>646</ele>
        <time>2024-07-09T11:52:36Z</time>
      </trkpt>
      <trkpt lat="44.02888" lon="7.30927">
        <ele>645.8</ele>
        <time>2024-07-09T11:52:37Z</time>
      </trkpt>
      <trkpt lat="44.0289" lon="7.30927">
        <ele>645.8</ele>
        <time>2024-07-09T11:52:38Z</time>
      </trkpt>
      <trkpt lat="44.02892" lon="7.30925">
        <ele>645.8</ele>
        <time>2024-07-09T11:52:39Z</time>
      </trkpt>
      <trkpt lat="44.02894" lon="7.30924">
        <ele>646.4</ele>
        <time>2024-07-09T11:52:40Z</time>
      </trkpt>
      <trkpt lat="44.02896" lon="7.30923">
        <ele>646.6</ele>
        <time>2024-07-09T11:52:41Z</time>
      </trkpt>
      <trkpt lat="44.02897" lon="7.30921">
        <ele>646.6</ele>
        <time>2024-07-09T11:52:42Z</time>
      </trkpt>
      <trkpt lat="44.02899" lon="7.30921">
        <ele>646.6</ele>
        <time>2024-07-09T11:52:43Z</time>
      </trkpt>
      <trkpt lat="44.029" lon="7.30919">
        <ele>646.6</ele>
        <time>2024-07-09T11:52:44Z</time>
      </trkpt>
      <trkpt lat="44.02902" lon="7.30918">
        <ele>647</ele>
        <time>2024-07-09T11:52:45Z</time>
      </trkpt>
      <trkpt lat="44.02904" lon="7.30916">
        <ele>647.2</ele>
        <time>2024-07-09T11:52:46Z</time>
      </trkpt>
      <trkpt lat="44.02906" lon="7.30914">
        <ele>647.2</ele>
        <time>2024-07-09T11:52:47Z</time>
      </trkpt>
      <trkpt lat="44.02908" lon="7.30912">
        <ele>647.2</ele>
        <time>2024-07-09T11:52:48Z</time>
      </trkpt>
      <trkpt lat="44.0291" lon="7.30911">
        <ele>647.2</ele>
        <time>2024-07-09T11:52:49Z</time>
      </trkpt>
      <trkpt lat="44.02912" lon="7.30909">
        <ele>647.8</ele>
        <time>2024-07-09T11:52:50Z</time>
      </trkpt>
      <trkpt lat="44.02914" lon="7.30907">
        <ele>647.8</ele>
        <time>2024-07-09T11:52:51Z</time>
      </trkpt>
      <trkpt lat="44.02916" lon="7.30906">
        <ele>647.8</ele>
        <time>2024-07-09T11:52:52Z</time>
      </trkpt>
      <trkpt lat="44.02918" lon="7.30904">
        <ele>647.8</ele>
        <time>2024-07-09T11:52:53Z</time>
      </trkpt>
      <trkpt lat="44.0292" lon="7.30902">
        <ele>647.8</ele>
        <time>2024-07-09T11:52:54Z</time>
      </trkpt>
      <trkpt lat="44.02922" lon="7.30901">
        <ele>648.2</ele>
        <time>2024-07-09T11:52:55Z</time>
      </trkpt>
      <trkpt lat="44.02924" lon="7.30899">
        <ele>648.2</ele>
        <time>2024-07-09T11:52:56Z</time>
      </trkpt>
      <trkpt lat="44.02926" lon="7.30898">
        <ele>648.2</ele>
        <time>2024-07-09T11:52:57Z</time>
      </trkpt>
      <trkpt lat="44.02928" lon="7.30897">
        <ele>648.6</ele>
        <time>2024-07-09T11:52:58Z</time>
      </trkpt>
      <trkpt lat="44.0293" lon="7.30895">
        <ele>648.6</ele>
        <time>2024-07-09T11:52:59Z</time>
      </trkpt>
      <trkpt lat="44.02931" lon="7.30894">
        <ele>648.6</ele>
        <time>2024-07-09T11:53:00Z</time>
      </trkpt>
      <trkpt lat="44.02934" lon="7.30892">
        <ele>648.6</ele>
        <time>2024-07-09T11:53:01Z</time>
      </trkpt>
      <trkpt lat="44.02936" lon="7.30891">
        <ele>648.6</ele>
        <time>2024-07-09T11:53:02Z</time>
      </trkpt>
      <trkpt lat="44.02938" lon="7.3089">
        <ele>649</ele>
        <time>2024-07-09T11:53:03Z</time>
      </trkpt>
      <trkpt lat="44.0294" lon="7.30888">
        <ele>649.2</ele>
        <time>2024-07-09T11:53:04Z</time>
      </trkpt>
      <trkpt lat="44.02942" lon="7.30886">
        <ele>649.2</ele>
        <time>2024-07-09T11:53:05Z</time>
      </trkpt>
      <trkpt lat="44.02944" lon="7.30885">
        <ele>649.2</ele>
        <time>2024-07-09T11:53:06Z</time>
      </trkpt>
      <trkpt lat="44.02946" lon="7.30883">
        <ele>649.6</ele>
        <time>2024-07-09T11:53:07Z</time>
      </trkpt>
      <trkpt lat="44.02948" lon="7.30881">
        <ele>650</ele>
        <time>2024-07-09T11:53:08Z</time>
      </trkpt>
      <trkpt lat="44.0295" lon="7.3088">
        <ele>650</ele>
        <time>2024-07-09T11:53:09Z</time>
      </trkpt>
      <trkpt lat="44.02952" lon="7.30878">
        <ele>650</ele>
        <time>2024-07-09T11:53:10Z</time>
      </trkpt>
      <trkpt lat="44.02954" lon="7.30876">
        <ele>650</ele>
        <time>2024-07-09T11:53:11Z</time>
      </trkpt>
      <trkpt lat="44.02956" lon="7.30875">
        <ele>650.2</ele>
        <time>2024-07-09T11:53:12Z</time>
      </trkpt>
      <trkpt lat="44.02958" lon="7.30873">
        <ele>650.2</ele>
        <time>2024-07-09T11:53:13Z</time>
      </trkpt>
      <trkpt lat="44.0296" lon="7.30871">
        <ele>650.2</ele>
        <time>2024-07-09T11:53:14Z</time>
      </trkpt>
      <trkpt lat="44.02962" lon="7.30869">
        <ele>650.2</ele>
        <time>2024-07-09T11:53:15Z</time>
      </trkpt>
      <trkpt lat="44.02964" lon="7.30867">
        <ele>650.6</ele>
        <time>2024-07-09T11:53:16Z</time>
      </trkpt>
      <trkpt lat="44.02966" lon="7.30865">
        <ele>650.6</ele>
        <time>2024-07-09T11:53:17Z</time>
      </trkpt>
      <trkpt lat="44.02968" lon="7.30864">
        <ele>650.6</ele>
        <time>2024-07-09T11:53:18Z</time>
      </trkpt>
      <trkpt lat="44.0297" lon="7.30862">
        <ele>650.6</ele>
        <time>2024-07-09T11:53:19Z</time>
      </trkpt>
      <trkpt lat="44.02973" lon="7.30861">
        <ele>651.2</ele>
        <time>2024-07-09T11:53:20Z</time>
      </trkpt>
      <trkpt lat="44.02975" lon="7.30859">
        <ele>651.2</ele>
        <time>2024-07-09T11:53:21Z</time>
      </trkpt>
      <trkpt lat="44.02977" lon="7.30858">
        <ele>651.2</ele>
        <time>2024-07-09T11:53:22Z</time>
      </trkpt>
      <trkpt lat="44.02979" lon="7.30856">
        <ele>651.2</ele>
        <time>2024-07-09T11:53:23Z</time>
      </trkpt>
      <trkpt lat="44.0298" lon="7.30854">
        <ele>651.6</ele>
        <time>2024-07-09T11:53:24Z</time>
      </trkpt>
      <trkpt lat="44.02982" lon="7.30852">
        <ele>651.6</ele>
        <time>2024-07-09T11:53:25Z</time>
      </trkpt>
      <trkpt lat="44.02984" lon="7.3085">
        <ele>651.6</ele>
        <time>2024-07-09T11:53:26Z</time>
      </trkpt>
      <trkpt lat="44.02986" lon="7.30848">
        <ele>652</ele>
        <time>2024-07-09T11:53:27Z</time>
      </trkpt>
      <trkpt lat="44.02988" lon="7.30847">
        <ele>652</ele>
        <time>2024-07-09T11:53:28Z</time>
      </trkpt>
      <trkpt lat="44.0299" lon="7.30845">
        <ele>652</ele>
        <time>2024-07-09T11:53:29Z</time>
      </trkpt>
      <trkpt lat="44.02992" lon="7.30844">
        <ele>652.4</ele>
        <time>2024-07-09T11:53:30Z</time>
      </trkpt>
      <trkpt lat="44.02993" lon="7.30841">
        <ele>652.6</ele>
        <time>2024-07-09T11:53:31Z</time>
      </trkpt>
      <trkpt lat="44.02995" lon="7.30839">
        <ele>652.6</ele>
        <time>2024-07-09T11:53:32Z</time>
      </trkpt>
      <trkpt lat="44.02997" lon="7.30837">
        <ele>652.6</ele>
        <time>2024-07-09T11:53:33Z</time>
      </trkpt>
      <trkpt lat="44.02999" lon="7.30835">
        <ele>652.6</ele>
        <time>2024-07-09T11:53:34Z</time>
      </trkpt>
      <trkpt lat="44.03001" lon="7.30833">
        <ele>653.2</ele>
        <time>2024-07-09T11:53:35Z</time>
      </trkpt>
      <trkpt lat="44.03003" lon="7.30831">
        <ele>653.2</ele>
        <time>2024-07-09T11:53:36Z</time>
      </trkpt>
      <trkpt lat="44.03004" lon="7.30829">
        <ele>653.2</ele>
        <time>2024-07-09T11:53:37Z</time>
      </trkpt>
      <trkpt lat="44.03006" lon="7.30826">
        <ele>653.2</ele>
        <time>2024-07-09T11:53:38Z</time>
      </trkpt>
      <trkpt lat="44.03008" lon="7.30824">
        <ele>653.6</ele>
        <time>2024-07-09T11:53:39Z</time>
      </trkpt>
      <trkpt lat="44.0301" lon="7.30822">
        <ele>653.6</ele>
        <time>2024-07-09T11:53:40Z</time>
      </trkpt>
      <trkpt lat="44.03011" lon="7.3082">
        <ele>653.6</ele>
        <time>2024-07-09T11:53:41Z</time>
      </trkpt>
      <trkpt lat="44.03013" lon="7.30818">
        <ele>653.6</ele>
        <time>2024-07-09T11:53:42Z</time>
      </trkpt>
      <trkpt lat="44.03015" lon="7.30816">
        <ele>654.2</ele>
        <time>2024-07-09T11:53:43Z</time>
      </trkpt>
      <trkpt lat="44.03017" lon="7.30815">
        <ele>654.2</ele>
        <time>2024-07-09T11:53:44Z</time>
      </trkpt>
      <trkpt lat="44.03018" lon="7.30813">
        <ele>654.2</ele>
        <time>2024-07-09T11:53:45Z</time>
      </trkpt>
      <trkpt lat="44.03021" lon="7.30811">
        <ele>654.2</ele>
        <time>2024-07-09T11:53:46Z</time>
      </trkpt>
      <trkpt lat="44.03022" lon="7.30809">
        <ele>654.6</ele>
        <time>2024-07-09T11:53:47Z</time>
      </trkpt>
      <trkpt lat="44.03024" lon="7.30807">
        <ele>654.6</ele>
        <time>2024-07-09T11:53:48Z</time>
      </trkpt>
      <trkpt lat="44.03026" lon="7.30806">
        <ele>654.6</ele>
        <time>2024-07-09T11:53:49Z</time>
      </trkpt>
      <trkpt lat="44.03028" lon="7.30804">
        <ele>654.6</ele>
        <time>2024-07-09T11:53:50Z</time>
      </trkpt>
      <trkpt lat="44.03029" lon="7.30801">
        <ele>654.6</ele>
        <time>2024-07-09T11:53:51Z</time>
      </trkpt>
      <trkpt lat="44.03031" lon="7.30799">
        <ele>655</ele>
        <time>2024-07-09T11:53:52Z</time>
      </trkpt>
      <trkpt lat="44.03032" lon="7.30797">
        <ele>655.4</ele>
        <time>2024-07-09T11:53:53Z</time>
      </trkpt>
      <trkpt lat="44.03034" lon="7.30795">
        <ele>655.4</ele>
        <time>2024-07-09T11:53:54Z</time>
      </trkpt>
      <trkpt lat="44.03036" lon="7.30793">
        <ele>655.4</ele>
        <time>2024-07-09T11:53:55Z</time>
      </trkpt>
      <trkpt lat="44.03037" lon="7.30791">
        <ele>655.8</ele>
        <time>2024-07-09T11:53:56Z</time>
      </trkpt>
      <trkpt lat="44.03039" lon="7.30789">
        <ele>655.8</ele>
        <time>2024-07-09T11:53:57Z</time>
      </trkpt>
      <trkpt lat="44.0304" lon="7.30787">
        <ele>655.8</ele>
        <time>2024-07-09T11:53:58Z</time>
      </trkpt>
      <trkpt lat="44.03042" lon="7.30785">
        <ele>655.8</ele>
        <time>2024-07-09T11:53:59Z</time>
      </trkpt>
      <trkpt lat="44.03044" lon="7.30782">
        <ele>656.4</ele>
        <time>2024-07-09T11:54:00Z</time>
      </trkpt>
      <trkpt lat="44.03045" lon="7.3078">
        <ele>656.4</ele>
        <time>2024-07-09T11:54:01Z</time>
      </trkpt>
      <trkpt lat="44.03047" lon="7.30778">
        <ele>656.4</ele>
        <time>2024-07-09T11:54:02Z</time>
      </trkpt>
      <trkpt lat="44.03048" lon="7.30775">
        <ele>656.4</ele>
        <time>2024-07-09T11:54:03Z</time>
      </trkpt>
      <trkpt lat="44.0305" lon="7.30773">
        <ele>656.4</ele>
        <time>2024-07-09T11:54:04Z</time>
      </trkpt>
      <trkpt lat="44.03051" lon="7.30771">
        <ele>656.8</ele>
        <time>2024-07-09T11:54:05Z</time>
      </trkpt>
      <trkpt lat="44.03053" lon="7.30769">
        <ele>657</ele>
        <time>2024-07-09T11:54:06Z</time>
      </trkpt>
      <trkpt lat="44.03055" lon="7.30767">
        <ele>657</ele>
        <time>2024-07-09T11:54:07Z</time>
      </trkpt>
      <trkpt lat="44.03057" lon="7.30765">
        <ele>657</ele>
        <time>2024-07-09T11:54:08Z</time>
      </trkpt>
      <trkpt lat="44.03058" lon="7.30763">
        <ele>657</ele>
        <time>2024-07-09T11:54:09Z</time>
      </trkpt>
      <trkpt lat="44.0306" lon="7.30761">
        <ele>657</ele>
        <time>2024-07-09T11:54:10Z</time>
      </trkpt>
      <trkpt lat="44.03062" lon="7.30758">
        <ele>657.6</ele>
        <time>2024-07-09T11:54:11Z</time>
      </trkpt>
      <trkpt lat="44.03063" lon="7.30757">
        <ele>657.6</ele>
        <time>2024-07-09T11:54:12Z</time>
      </trkpt>
      <trkpt lat="44.03065" lon="7.30755">
        <ele>657.6</ele>
        <time>2024-07-09T11:54:13Z</time>
      </trkpt>
      <trkpt lat="44.03066" lon="7.30753">
        <ele>658.2</ele>
        <time>2024-07-09T11:54:14Z</time>
      </trkpt>
      <trkpt lat="44.03068" lon="7.30751">
        <ele>658.2</ele>
        <time>2024-07-09T11:54:15Z</time>
      </trkpt>
      <trkpt lat="44.0307" lon="7.30748">
        <ele>658.4</ele>
        <time>2024-07-09T11:54:16Z</time>
      </trkpt>
      <trkpt lat="44.03071" lon="7.30746">
        <ele>658.4</ele>
        <time>2024-07-09T11:54:17Z</time>
      </trkpt>
      <trkpt lat="44.03073" lon="7.30743">
        <ele>658.4</ele>
        <time>2024-07-09T11:54:18Z</time>
      </trkpt>
      <trkpt lat="44.03075" lon="7.30741">
        <ele>658.8</ele>
        <time>2024-07-09T11:54:19Z</time>
      </trkpt>
      <trkpt lat="44.03077" lon="7.30738">
        <ele>658.8</ele>
        <time>2024-07-09T11:54:20Z</time>
      </trkpt>
      <trkpt lat="44.03079" lon="7.30736">
        <ele>658.8</ele>
        <time>2024-07-09T11:54:21Z</time>
      </trkpt>
      <trkpt lat="44.03081" lon="7.30733">
        <ele>658.8</ele>
        <time>2024-07-09T11:54:22Z</time>
      </trkpt>
      <trkpt lat="44.03082" lon="7.30731">
        <ele>659.2</ele>
        <time>2024-07-09T11:54:23Z</time>
      </trkpt>
      <trkpt lat="44.03084" lon="7.30728">
        <ele>659.6</ele>
        <time>2024-07-09T11:54:24Z</time>
      </trkpt>
      <trkpt lat="44.03085" lon="7.30726">
        <ele>659.6</ele>
        <time>2024-07-09T11:54:25Z</time>
      </trkpt>
      <trkpt lat="44.03087" lon="7.30723">
        <ele>659.6</ele>
        <time>2024-07-09T11:54:26Z</time>
      </trkpt>
      <trkpt lat="44.03089" lon="7.30721">
        <ele>659.6</ele>
        <time>2024-07-09T11:54:27Z</time>
      </trkpt>
      <trkpt lat="44.03091" lon="7.30718">
        <ele>659.6</ele>
        <time>2024-07-09T11:54:28Z</time>
      </trkpt>
      <trkpt lat="44.03093" lon="7.30715">
        <ele>660.2</ele>
        <time>2024-07-09T11:54:29Z</time>
      </trkpt>
      <trkpt lat="44.03095" lon="7.30713">
        <ele>660.2</ele>
        <time>2024-07-09T11:54:30Z</time>
      </trkpt>
      <trkpt lat="44.03096" lon="7.30711">
        <ele>660.2</ele>
        <time>2024-07-09T11:54:31Z</time>
      </trkpt>
      <trkpt lat="44.03098" lon="7.30708">
        <ele>660.6</ele>
        <time>2024-07-09T11:54:32Z</time>
      </trkpt>
      <trkpt lat="44.031" lon="7.30706">
        <ele>660.6</ele>
        <time>2024-07-09T11:54:33Z</time>
      </trkpt>
      <trkpt lat="44.03101" lon="7.30703">
        <ele>660.6</ele>
        <time>2024-07-09T11:54:34Z</time>
      </trkpt>
      <trkpt lat="44.03103" lon="7.30701">
        <ele>660.6</ele>
        <time>2024-07-09T11:54:35Z</time>
      </trkpt>
      <trkpt lat="44.03104" lon="7.30698">
        <ele>661</ele>
        <time>2024-07-09T11:54:36Z</time>
      </trkpt>
      <trkpt lat="44.03106" lon="7.30695">
        <ele>661.2</ele>
        <time>2024-07-09T11:54:37Z</time>
      </trkpt>
      <trkpt lat="44.03107" lon="7.30692">
        <ele>661.2</ele>
        <time>2024-07-09T11:54:38Z</time>
      </trkpt>
      <trkpt lat="44.03109" lon="7.3069">
        <ele>661.2</ele>
        <time>2024-07-09T11:54:39Z</time>
      </trkpt>
      <trkpt lat="44.0311" lon="7.30688">
        <ele>661.4</ele>
        <time>2024-07-09T11:54:40Z</time>
      </trkpt>
      <trkpt lat="44.03111" lon="7.30685">
        <ele>661.8</ele>
        <time>2024-07-09T11:54:41Z</time>
      </trkpt>
      <trkpt lat="44.03113" lon="7.30683">
        <ele>661.8</ele>
        <time>2024-07-09T11:54:42Z</time>
      </trkpt>
      <trkpt lat="44.03115" lon="7.3068">
        <ele>661.8</ele>
        <time>2024-07-09T11:54:43Z</time>
      </trkpt>
      <trkpt lat="44.03116" lon="7.30677">
        <ele>662.2</ele>
        <time>2024-07-09T11:54:44Z</time>
      </trkpt>
      <trkpt lat="44.03117" lon="7.30674">
        <ele>662.2</ele>
        <time>2024-07-09T11:54:45Z</time>
      </trkpt>
      <trkpt lat="44.03117" lon="7.30672">
        <ele>662.2</ele>
        <time>2024-07-09T11:54:46Z</time>
      </trkpt>
      <trkpt lat="44.03118" lon="7.30669">
        <ele>662.2</ele>
        <time>2024-07-09T11:54:47Z</time>
      </trkpt>
      <trkpt lat="44.03118" lon="7.30666">
        <ele>662.2</ele>
        <time>2024-07-09T11:54:48Z</time>
      </trkpt>
      <trkpt lat="44.03119" lon="7.30663">
        <ele>662.8</ele>
        <time>2024-07-09T11:54:49Z</time>
      </trkpt>
      <trkpt lat="44.03119" lon="7.3066">
        <ele>662.8</ele>
        <time>2024-07-09T11:54:50Z</time>
      </trkpt>
      <trkpt lat="44.03119" lon="7.30656">
        <ele>663</ele>
        <time>2024-07-09T11:54:51Z</time>
      </trkpt>
      <trkpt lat="44.03119" lon="7.30653">
        <ele>663</ele>
        <time>2024-07-09T11:54:52Z</time>
      </trkpt>
      <trkpt lat="44.0312" lon="7.3065">
        <ele>663</ele>
        <time>2024-07-09T11:54:53Z</time>
      </trkpt>
      <trkpt lat="44.0312" lon="7.30647">
        <ele>663</ele>
        <time>2024-07-09T11:54:54Z</time>
      </trkpt>
      <trkpt lat="44.03121" lon="7.30643">
        <ele>663.6</ele>
        <time>2024-07-09T11:54:55Z</time>
      </trkpt>
      <trkpt lat="44.03121" lon="7.30639">
        <ele>663.6</ele>
        <time>2024-07-09T11:54:56Z</time>
      </trkpt>
      <trkpt lat="44.03121" lon="7.30636">
        <ele>663.6</ele>
        <time>2024-07-09T11:54:57Z</time>
      </trkpt>
      <trkpt lat="44.03121" lon="7.30632">
        <ele>663.6</ele>
        <time>2024-07-09T11:54:58Z</time>
      </trkpt>
      <trkpt lat="44.03122" lon="7.30629">
        <ele>663.8</ele>
        <time>2024-07-09T11:54:59Z</time>
      </trkpt>
      <trkpt lat="44.03122" lon="7.30627">
        <ele>664</ele>
        <time>2024-07-09T11:55:00Z</time>
      </trkpt>
      <trkpt lat="44.03123" lon="7.30624">
        <ele>664</ele>
        <time>2024-07-09T11:55:01Z</time>
      </trkpt>
      <trkpt lat="44.03123" lon="7.30621">
        <ele>664</ele>
        <time>2024-07-09T11:55:02Z</time>
      </trkpt>
      <trkpt lat="44.03124" lon="7.30618">
        <ele>664.6</ele>
        <time>2024-07-09T11:55:03Z</time>
      </trkpt>
      <trkpt lat="44.03125" lon="7.30615">
        <ele>665</ele>
        <time>2024-07-09T11:55:04Z</time>
      </trkpt>
      <trkpt lat="44.03126" lon="7.30612">
        <ele>665</ele>
        <time>2024-07-09T11:55:05Z</time>
      </trkpt>
      <trkpt lat="44.03128" lon="7.3061">
        <ele>665</ele>
        <time>2024-07-09T11:55:06Z</time>
      </trkpt>
      <trkpt lat="44.03129" lon="7.30607">
        <ele>665.2</ele>
        <time>2024-07-09T11:55:07Z</time>
      </trkpt>
      <trkpt lat="44.03131" lon="7.30605">
        <ele>665.2</ele>
        <time>2024-07-09T11:55:08Z</time>
      </trkpt>
      <trkpt lat="44.03133" lon="7.30603">
        <ele>665.2</ele>
        <time>2024-07-09T11:55:09Z</time>
      </trkpt>
      <trkpt lat="44.03135" lon="7.30601">
        <ele>665.2</ele>
        <time>2024-07-09T11:55:10Z</time>
      </trkpt>
      <trkpt lat="44.03136" lon="7.30599">
        <ele>665.2</ele>
        <time>2024-07-09T11:55:11Z</time>
      </trkpt>
      <trkpt lat="44.03138" lon="7.30597">
        <ele>666.2</ele>
        <time>2024-07-09T11:55:12Z</time>
      </trkpt>
      <trkpt lat="44.0314" lon="7.30596">
        <ele>666.4</ele>
        <time>2024-07-09T11:55:13Z</time>
      </trkpt>
      <trkpt lat="44.03142" lon="7.30594">
        <ele>666.4</ele>
        <time>2024-07-09T11:55:14Z</time>
      </trkpt>
      <trkpt lat="44.03143" lon="7.30593">
        <ele>666.4</ele>
        <time>2024-07-09T11:55:15Z</time>
      </trkpt>
      <trkpt lat="44.03145" lon="7.30591">
        <ele>666.8</ele>
        <time>2024-07-09T11:55:16Z</time>
      </trkpt>
      <trkpt lat="44.03147" lon="7.3059">
        <ele>667</ele>
        <time>2024-07-09T11:55:17Z</time>
      </trkpt>
      <trkpt lat="44.03148" lon="7.30588">
        <ele>667</ele>
        <time>2024-07-09T11:55:18Z</time>
      </trkpt>
      <trkpt lat="44.0315" lon="7.30586">
        <ele>667</ele>
        <time>2024-07-09T11:55:19Z</time>
      </trkpt>
      <trkpt lat="44.03151" lon="7.30584">
        <ele>667</ele>
        <time>2024-07-09T11:55:20Z</time>
      </trkpt>
      <trkpt lat="44.03153" lon="7.30581">
        <ele>667.4</ele>
        <time>2024-07-09T11:55:21Z</time>
      </trkpt>
      <trkpt lat="44.03155" lon="7.30578">
        <ele>667.6</ele>
        <time>2024-07-09T11:55:22Z</time>
      </trkpt>
      <trkpt lat="44.03156" lon="7.30576">
        <ele>667.6</ele>
        <time>2024-07-09T11:55:23Z</time>
      </trkpt>
      <trkpt lat="44.03157" lon="7.30574">
        <ele>667.6</ele>
        <time>2024-07-09T11:55:24Z</time>
      </trkpt>
      <trkpt lat="44.03159" lon="7.30571">
        <ele>668</ele>
        <time>2024-07-09T11:55:25Z</time>
      </trkpt>
      <trkpt lat="44.0316" lon="7.30569">
        <ele>668.2</ele>
        <time>2024-07-09T11:55:26Z</time>
      </trkpt>
      <trkpt lat="44.03162" lon="7.30566">
        <ele>668.2</ele>
        <time>2024-07-09T11:55:27Z</time>
      </trkpt>
      <trkpt lat="44.03163" lon="7.30563">
        <ele>668.2</ele>
        <time>2024-07-09T11:55:28Z</time>
      </trkpt>
      <trkpt lat="44.03164" lon="7.30561">
        <ele>668.6</ele>
        <time>2024-07-09T11:55:29Z</time>
      </trkpt>
      <trkpt lat="44.03166" lon="7.30558">
        <ele>668.8</ele>
        <time>2024-07-09T11:55:30Z</time>
      </trkpt>
      <trkpt lat="44.03167" lon="7.30556">
        <ele>668.8</ele>
        <time>2024-07-09T11:55:31Z</time>
      </trkpt>
      <trkpt lat="44.03169" lon="7.30554">
        <ele>668.8</ele>
        <time>2024-07-09T11:55:32Z</time>
      </trkpt>
      <trkpt lat="44.0317" lon="7.30551">
        <ele>668.8</ele>
        <time>2024-07-09T11:55:33Z</time>
      </trkpt>
      <trkpt lat="44.03171" lon="7.30548">
        <ele>668.8</ele>
        <time>2024-07-09T11:55:34Z</time>
      </trkpt>
      <trkpt lat="44.03172" lon="7.30546">
        <ele>669.6</ele>
        <time>2024-07-09T11:55:35Z</time>
      </trkpt>
      <trkpt lat="44.03174" lon="7.30543">
        <ele>669.6</ele>
        <time>2024-07-09T11:55:36Z</time>
      </trkpt>
      <trkpt lat="44.03175" lon="7.30541">
        <ele>669.6</ele>
        <time>2024-07-09T11:55:37Z</time>
      </trkpt>
      <trkpt lat="44.03176" lon="7.30538">
        <ele>669.6</ele>
        <time>2024-07-09T11:55:38Z</time>
      </trkpt>
      <trkpt lat="44.03178" lon="7.30536">
        <ele>670</ele>
        <time>2024-07-09T11:55:39Z</time>
      </trkpt>
      <trkpt lat="44.03179" lon="7.30533">
        <ele>670</ele>
        <time>2024-07-09T11:55:40Z</time>
      </trkpt>
      <trkpt lat="44.0318" lon="7.3053">
        <ele>670</ele>
        <time>2024-07-09T11:55:41Z</time>
      </trkpt>
      <trkpt lat="44.03182" lon="7.30528">
        <ele>670</ele>
        <time>2024-07-09T11:55:42Z</time>
      </trkpt>
      <trkpt lat="44.03182" lon="7.30526">
        <ele>670.4</ele>
        <time>2024-07-09T11:55:43Z</time>
      </trkpt>
      <trkpt lat="44.03184" lon="7.30523">
        <ele>670.4</ele>
        <time>2024-07-09T11:55:44Z</time>
      </trkpt>
      <trkpt lat="44.03185" lon="7.3052">
        <ele>670.4</ele>
        <time>2024-07-09T11:55:45Z</time>
      </trkpt>
      <trkpt lat="44.03186" lon="7.30517">
        <ele>670.4</ele>
        <time>2024-07-09T11:55:46Z</time>
      </trkpt>
      <trkpt lat="44.03187" lon="7.30514">
        <ele>670.4</ele>
        <time>2024-07-09T11:55:47Z</time>
      </trkpt>
      <trkpt lat="44.03189" lon="7.30511">
        <ele>670.6</ele>
        <time>2024-07-09T11:55:48Z</time>
      </trkpt>
      <trkpt lat="44.0319" lon="7.30508">
        <ele>670.8</ele>
        <time>2024-07-09T11:55:49Z</time>
      </trkpt>
      <trkpt lat="44.0319" lon="7.30506">
        <ele>670.8</ele>
        <time>2024-07-09T11:55:50Z</time>
      </trkpt>
      <trkpt lat="44.03192" lon="7.30503">
        <ele>670.8</ele>
        <time>2024-07-09T11:55:51Z</time>
      </trkpt>
      <trkpt lat="44.03192" lon="7.305">
        <ele>670.8</ele>
        <time>2024-07-09T11:55:52Z</time>
      </trkpt>
      <trkpt lat="44.03193" lon="7.30497">
        <ele>671.4</ele>
        <time>2024-07-09T11:55:53Z</time>
      </trkpt>
      <trkpt lat="44.03194" lon="7.30494">
        <ele>671.4</ele>
        <time>2024-07-09T11:55:54Z</time>
      </trkpt>
      <trkpt lat="44.03196" lon="7.30491">
        <ele>671.4</ele>
        <time>2024-07-09T11:55:55Z</time>
      </trkpt>
      <trkpt lat="44.03197" lon="7.30488">
        <ele>672</ele>
        <time>2024-07-09T11:55:56Z</time>
      </trkpt>
      <trkpt lat="44.03198" lon="7.30486">
        <ele>672.2</ele>
        <time>2024-07-09T11:55:57Z</time>
      </trkpt>
      <trkpt lat="44.03199" lon="7.30483">
        <ele>672.2</ele>
        <time>2024-07-09T11:55:58Z</time>
      </trkpt>
      <trkpt lat="44.03201" lon="7.30481">
        <ele>672.2</ele>
        <time>2024-07-09T11:55:59Z</time>
      </trkpt>
      <trkpt lat="44.03202" lon="7.30478">
        <ele>672.6</ele>
        <time>2024-07-09T11:56:00Z</time>
      </trkpt>
      <trkpt lat="44.03204" lon="7.30476">
        <ele>672.8</ele>
        <time>2024-07-09T11:56:01Z</time>
      </trkpt>
      <trkpt lat="44.03205" lon="7.30474">
        <ele>672.8</ele>
        <time>2024-07-09T11:56:02Z</time>
      </trkpt>
      <trkpt lat="44.03207" lon="7.30472">
        <ele>672.8</ele>
        <time>2024-07-09T11:56:03Z</time>
      </trkpt>
      <trkpt lat="44.03209" lon="7.30469">
        <ele>672.8</ele>
        <time>2024-07-09T11:56:04Z</time>
      </trkpt>
      <trkpt lat="44.0321" lon="7.30467">
        <ele>673</ele>
        <time>2024-07-09T11:56:05Z</time>
      </trkpt>
      <trkpt lat="44.03212" lon="7.30465">
        <ele>673.2</ele>
        <time>2024-07-09T11:56:06Z</time>
      </trkpt>
      <trkpt lat="44.03213" lon="7.30463">
        <ele>673.2</ele>
        <time>2024-07-09T11:56:07Z</time>
      </trkpt>
      <trkpt lat="44.03215" lon="7.30461">
        <ele>673.2</ele>
        <time>2024-07-09T11:56:08Z</time>
      </trkpt>
      <trkpt lat="44.03216" lon="7.30459">
        <ele>673.6</ele>
        <time>2024-07-09T11:56:09Z</time>
      </trkpt>
      <trkpt lat="44.03218" lon="7.30457">
        <ele>673.8</ele>
        <time>2024-07-09T11:56:10Z</time>
      </trkpt>
      <trkpt lat="44.0322" lon="7.30455">
        <ele>673.8</ele>
        <time>2024-07-09T11:56:11Z</time>
      </trkpt>
      <trkpt lat="44.03222" lon="7.30453">
        <ele>673.8</ele>
        <time>2024-07-09T11:56:12Z</time>
      </trkpt>
      <trkpt lat="44.03224" lon="7.30451">
        <ele>674.6</ele>
        <time>2024-07-09T11:56:13Z</time>
      </trkpt>
      <trkpt lat="44.03226" lon="7.30449">
        <ele>674.8</ele>
        <time>2024-07-09T11:56:14Z</time>
      </trkpt>
      <trkpt lat="44.03228" lon="7.30446">
        <ele>674.8</ele>
        <time>2024-07-09T11:56:15Z</time>
      </trkpt>
      <trkpt lat="44.0323" lon="7.30444">
        <ele>674.8</ele>
        <time>2024-07-09T11:56:16Z</time>
      </trkpt>
      <trkpt lat="44.03231" lon="7.30442">
        <ele>674.8</ele>
        <time>2024-07-09T11:56:17Z</time>
      </trkpt>
      <trkpt lat="44.03233" lon="7.30441">
        <ele>675</ele>
        <time>2024-07-09T11:56:18Z</time>
      </trkpt>
      <trkpt lat="44.03235" lon="7.30439">
        <ele>675</ele>
        <time>2024-07-09T11:56:19Z</time>
      </trkpt>
      <trkpt lat="44.03237" lon="7.30437">
        <ele>675.2</ele>
        <time>2024-07-09T11:56:20Z</time>
      </trkpt>
      <trkpt lat="44.0324" lon="7.30435">
        <ele>675.2</ele>
        <time>2024-07-09T11:56:21Z</time>
      </trkpt>
      <trkpt lat="44.03241" lon="7.30433">
        <ele>675.2</ele>
        <time>2024-07-09T11:56:22Z</time>
      </trkpt>
      <trkpt lat="44.03244" lon="7.30432">
        <ele>676</ele>
        <time>2024-07-09T11:56:23Z</time>
      </trkpt>
      <trkpt lat="44.03246" lon="7.3043">
        <ele>676.2</ele>
        <time>2024-07-09T11:56:24Z</time>
      </trkpt>
      <trkpt lat="44.03248" lon="7.30428">
        <ele>676.2</ele>
        <time>2024-07-09T11:56:25Z</time>
      </trkpt>
      <trkpt lat="44.0325" lon="7.30426">
        <ele>676.2</ele>
        <time>2024-07-09T11:56:26Z</time>
      </trkpt>
      <trkpt lat="44.03252" lon="7.30425">
        <ele>676.8</ele>
        <time>2024-07-09T11:56:27Z</time>
      </trkpt>
      <trkpt lat="44.03254" lon="7.30423">
        <ele>676.8</ele>
        <time>2024-07-09T11:56:28Z</time>
      </trkpt>
      <trkpt lat="44.03256" lon="7.30421">
        <ele>676.8</ele>
        <time>2024-07-09T11:56:29Z</time>
      </trkpt>
      <trkpt lat="44.03258" lon="7.3042">
        <ele>676.8</ele>
        <time>2024-07-09T11:56:30Z</time>
      </trkpt>
      <trkpt lat="44.0326" lon="7.30418">
        <ele>677.8</ele>
        <time>2024-07-09T11:56:31Z</time>
      </trkpt>
      <trkpt lat="44.03263" lon="7.30416">
        <ele>677.8</ele>
        <time>2024-07-09T11:56:32Z</time>
      </trkpt>
      <trkpt lat="44.03265" lon="7.30415">
        <ele>677.8</ele>
        <time>2024-07-09T11:56:33Z</time>
      </trkpt>
      <trkpt lat="44.03267" lon="7.30413">
        <ele>677.8</ele>
        <time>2024-07-09T11:56:34Z</time>
      </trkpt>
      <trkpt lat="44.0327" lon="7.30411">
        <ele>677.8</ele>
        <time>2024-07-09T11:56:35Z</time>
      </trkpt>
      <trkpt lat="44.03271" lon="7.3041">
        <ele>678</ele>
        <time>2024-07-09T11:56:36Z</time>
      </trkpt>
      <trkpt lat="44.03273" lon="7.30408">
        <ele>678</ele>
        <time>2024-07-09T11:56:37Z</time>
      </trkpt>
      <trkpt lat="44.03275" lon="7.30407">
        <ele>678</ele>
        <time>2024-07-09T11:56:38Z</time>
      </trkpt>
      <trkpt lat="44.03277" lon="7.30405">
        <ele>678</ele>
        <time>2024-07-09T11:56:39Z</time>
      </trkpt>
      <trkpt lat="44.03279" lon="7.30404">
        <ele>678.4</ele>
        <time>2024-07-09T11:56:40Z</time>
      </trkpt>
      <trkpt lat="44.03281" lon="7.30402">
        <ele>678.8</ele>
        <time>2024-07-09T11:56:41Z</time>
      </trkpt>
      <trkpt lat="44.03283" lon="7.304">
        <ele>678.8</ele>
        <time>2024-07-09T11:56:42Z</time>
      </trkpt>
      <trkpt lat="44.03284" lon="7.30398">
        <ele>678.8</ele>
        <time>2024-07-09T11:56:43Z</time>
      </trkpt>
      <trkpt lat="44.03286" lon="7.30397">
        <ele>678.8</ele>
        <time>2024-07-09T11:56:44Z</time>
      </trkpt>
      <trkpt lat="44.03288" lon="7.30395">
        <ele>678.8</ele>
        <time>2024-07-09T11:56:45Z</time>
      </trkpt>
      <trkpt lat="44.0329" lon="7.30394">
        <ele>679.4</ele>
        <time>2024-07-09T11:56:46Z</time>
      </trkpt>
      <trkpt lat="44.03292" lon="7.30392">
        <ele>679.4</ele>
        <time>2024-07-09T11:56:47Z</time>
      </trkpt>
      <trkpt lat="44.03294" lon="7.30391">
        <ele>679.4</ele>
        <time>2024-07-09T11:56:48Z</time>
      </trkpt>
      <trkpt lat="44.03296" lon="7.3039">
        <ele>680</ele>
        <time>2024-07-09T11:56:49Z</time>
      </trkpt>
      <trkpt lat="44.03298" lon="7.30388">
        <ele>679.8</ele>
        <time>2024-07-09T11:56:50Z</time>
      </trkpt>
      <trkpt lat="44.033" lon="7.30387">
        <ele>679.8</ele>
        <time>2024-07-09T11:56:51Z</time>
      </trkpt>
      <trkpt lat="44.03302" lon="7.30386">
        <ele>679.8</ele>
        <time>2024-07-09T11:56:52Z</time>
      </trkpt>
      <trkpt lat="44.03304" lon="7.30384">
        <ele>679.8</ele>
        <time>2024-07-09T11:56:53Z</time>
      </trkpt>
      <trkpt lat="44.03306" lon="7.30382">
        <ele>680.8</ele>
        <time>2024-07-09T11:56:54Z</time>
      </trkpt>
      <trkpt lat="44.03308" lon="7.3038">
        <ele>680.8</ele>
        <time>2024-07-09T11:56:55Z</time>
      </trkpt>
      <trkpt lat="44.0331" lon="7.30378">
        <ele>680.8</ele>
        <time>2024-07-09T11:56:56Z</time>
      </trkpt>
      <trkpt lat="44.03312" lon="7.30376">
        <ele>680.8</ele>
        <time>2024-07-09T11:56:57Z</time>
      </trkpt>
      <trkpt lat="44.03314" lon="7.30373">
        <ele>680.8</ele>
        <time>2024-07-09T11:56:58Z</time>
      </trkpt>
      <trkpt lat="44.03316" lon="7.30372">
        <ele>680.8</ele>
        <time>2024-07-09T11:56:59Z</time>
      </trkpt>
      <trkpt lat="44.03318" lon="7.30369">
        <ele>681</ele>
        <time>2024-07-09T11:57:00Z</time>
      </trkpt>
      <trkpt lat="44.03321" lon="7.30367">
        <ele>681</ele>
        <time>2024-07-09T11:57:01Z</time>
      </trkpt>
      <trkpt lat="44.03323" lon="7.30365">
        <ele>681</ele>
        <time>2024-07-09T11:57:02Z</time>
      </trkpt>
      <trkpt lat="44.03325" lon="7.30362">
        <ele>681</ele>
        <time>2024-07-09T11:57:03Z</time>
      </trkpt>
      <trkpt lat="44.03327" lon="7.3036">
        <ele>681.2</ele>
        <time>2024-07-09T11:57:04Z</time>
      </trkpt>
      <trkpt lat="44.03329" lon="7.30357">
        <ele>681.2</ele>
        <time>2024-07-09T11:57:05Z</time>
      </trkpt>
      <trkpt lat="44.03331" lon="7.30355">
        <ele>681.2</ele>
        <time>2024-07-09T11:57:06Z</time>
      </trkpt>
      <trkpt lat="44.03332" lon="7.30352">
        <ele>681.2</ele>
        <time>2024-07-09T11:57:07Z</time>
      </trkpt>
      <trkpt lat="44.03334" lon="7.30349">
        <ele>681.2</ele>
        <time>2024-07-09T11:57:08Z</time>
      </trkpt>
      <trkpt lat="44.03336" lon="7.30347">
        <ele>681.2</ele>
        <time>2024-07-09T11:57:09Z</time>
      </trkpt>
      <trkpt lat="44.03339" lon="7.30344">
        <ele>681.2</ele>
        <time>2024-07-09T11:57:10Z</time>
      </trkpt>
      <trkpt lat="44.03341" lon="7.30342">
        <ele>681.2</ele>
        <time>2024-07-09T11:57:11Z</time>
      </trkpt>
      <trkpt lat="44.03343" lon="7.30339">
        <ele>681.6</ele>
        <time>2024-07-09T11:57:12Z</time>
      </trkpt>
      <trkpt lat="44.03345" lon="7.30336">
        <ele>682</ele>
        <time>2024-07-09T11:57:13Z</time>
      </trkpt>
      <trkpt lat="44.03347" lon="7.30333">
        <ele>682</ele>
        <time>2024-07-09T11:57:14Z</time>
      </trkpt>
      <trkpt lat="44.03349" lon="7.3033">
        <ele>682</ele>
        <time>2024-07-09T11:57:15Z</time>
      </trkpt>
      <trkpt lat="44.03351" lon="7.30328">
        <ele>682</ele>
        <time>2024-07-09T11:57:16Z</time>
      </trkpt>
      <trkpt lat="44.03353" lon="7.30325">
        <ele>682</ele>
        <time>2024-07-09T11:57:17Z</time>
      </trkpt>
      <trkpt lat="44.03355" lon="7.30323">
        <ele>682</ele>
        <time>2024-07-09T11:57:18Z</time>
      </trkpt>
      <trkpt lat="44.03357" lon="7.3032">
        <ele>682</ele>
        <time>2024-07-09T11:57:19Z</time>
      </trkpt>
      <trkpt lat="44.03359" lon="7.30317">
        <ele>682</ele>
        <time>2024-07-09T11:57:20Z</time>
      </trkpt>
      <trkpt lat="44.03361" lon="7.30315">
        <ele>682.2</ele>
        <time>2024-07-09T11:57:21Z</time>
      </trkpt>
      <trkpt lat="44.03364" lon="7.30312">
        <ele>682.2</ele>
        <time>2024-07-09T11:57:22Z</time>
      </trkpt>
      <trkpt lat="44.03366" lon="7.3031">
        <ele>682.2</ele>
        <time>2024-07-09T11:57:23Z</time>
      </trkpt>
      <trkpt lat="44.03368" lon="7.30307">
        <ele>682.2</ele>
        <time>2024-07-09T11:57:24Z</time>
      </trkpt>
      <trkpt lat="44.0337" lon="7.30304">
        <ele>682.4</ele>
        <time>2024-07-09T11:57:25Z</time>
      </trkpt>
      <trkpt lat="44.03371" lon="7.30301">
        <ele>682.4</ele>
        <time>2024-07-09T11:57:26Z</time>
      </trkpt>
      <trkpt lat="44.03373" lon="7.30298">
        <ele>682.4</ele>
        <time>2024-07-09T11:57:27Z</time>
      </trkpt>
      <trkpt lat="44.03375" lon="7.30294">
        <ele>682.4</ele>
        <time>2024-07-09T11:57:28Z</time>
      </trkpt>
      <trkpt lat="44.03376" lon="7.30291">
        <ele>682.4</ele>
        <time>2024-07-09T11:57:29Z</time>
      </trkpt>
      <trkpt lat="44.03377" lon="7.30288">
        <ele>682.6</ele>
        <time>2024-07-09T11:57:30Z</time>
      </trkpt>
      <trkpt lat="44.03377" lon="7.30284">
        <ele>682.6</ele>
        <time>2024-07-09T11:57:31Z</time>
      </trkpt>
      <trkpt lat="44.03378" lon="7.3028">
        <ele>682.6</ele>
        <time>2024-07-09T11:57:32Z</time>
      </trkpt>
      <trkpt lat="44.03379" lon="7.30276">
        <ele>682.8</ele>
        <time>2024-07-09T11:57:33Z</time>
      </trkpt>
      <trkpt lat="44.03379" lon="7.30272">
        <ele>682.8</ele>
        <time>2024-07-09T11:57:34Z</time>
      </trkpt>
      <trkpt lat="44.03378" lon="7.30268">
        <ele>682.8</ele>
        <time>2024-07-09T11:57:35Z</time>
      </trkpt>
      <trkpt lat="44.03377" lon="7.30264">
        <ele>682.8</ele>
        <time>2024-07-09T11:57:36Z</time>
      </trkpt>
      <trkpt lat="44.03377" lon="7.30259">
        <ele>683.2</ele>
        <time>2024-07-09T11:57:37Z</time>
      </trkpt>
      <trkpt lat="44.03377" lon="7.30255">
        <ele>683.2</ele>
        <time>2024-07-09T11:57:38Z</time>
      </trkpt>
      <trkpt lat="44.03376" lon="7.30251">
        <ele>683.2</ele>
        <time>2024-07-09T11:57:39Z</time>
      </trkpt>
      <trkpt lat="44.03375" lon="7.30246">
        <ele>683.2</ele>
        <time>2024-07-09T11:57:40Z</time>
      </trkpt>
      <trkpt lat="44.03374" lon="7.30242">
        <ele>683.2</ele>
        <time>2024-07-09T11:57:41Z</time>
      </trkpt>
      <trkpt lat="44.03372" lon="7.30237">
        <ele>683.2</ele>
        <time>2024-07-09T11:57:42Z</time>
      </trkpt>
      <trkpt lat="44.03372" lon="7.30232">
        <ele>683.2</ele>
        <time>2024-07-09T11:57:43Z</time>
      </trkpt>
      <trkpt lat="44.03371" lon="7.30228">
        <ele>683.4</ele>
        <time>2024-07-09T11:57:44Z</time>
      </trkpt>
      <trkpt lat="44.0337" lon="7.30222">
        <ele>683.4</ele>
        <time>2024-07-09T11:57:45Z</time>
      </trkpt>
      <trkpt lat="44.0337" lon="7.30217">
        <ele>683.4</ele>
        <time>2024-07-09T11:57:46Z</time>
      </trkpt>
      <trkpt lat="44.03368" lon="7.30212">
        <ele>683.4</ele>
        <time>2024-07-09T11:57:47Z</time>
      </trkpt>
      <trkpt lat="44.03367" lon="7.30207">
        <ele>683.4</ele>
        <time>2024-07-09T11:57:48Z</time>
      </trkpt>
      <trkpt lat="44.03366" lon="7.30202">
        <ele>683.4</ele>
        <time>2024-07-09T11:57:49Z</time>
      </trkpt>
      <trkpt lat="44.03365" lon="7.30196">
        <ele>683.4</ele>
        <time>2024-07-09T11:57:50Z</time>
      </trkpt>
      <trkpt lat="44.03364" lon="7.30191">
        <ele>683.4</ele>
        <time>2024-07-09T11:57:51Z</time>
      </trkpt>
      <trkpt lat="44.03362" lon="7.30186">
        <ele>683.4</ele>
        <time>2024-07-09T11:57:52Z</time>
      </trkpt>
      <trkpt lat="44.0336" lon="7.30181">
        <ele>683.8</ele>
        <time>2024-07-09T11:57:53Z</time>
      </trkpt>
      <trkpt lat="44.03358" lon="7.30177">
        <ele>683.8</ele>
        <time>2024-07-09T11:57:54Z</time>
      </trkpt>
      <trkpt lat="44.03356" lon="7.30172">
        <ele>683.8</ele>
        <time>2024-07-09T11:57:55Z</time>
      </trkpt>
      <trkpt lat="44.03354" lon="7.30169">
        <ele>683.8</ele>
        <time>2024-07-09T11:57:56Z</time>
      </trkpt>
      <trkpt lat="44.03351" lon="7.30166">
        <ele>684.2</ele>
        <time>2024-07-09T11:57:57Z</time>
      </trkpt>
      <trkpt lat="44.03347" lon="7.30164">
        <ele>684.2</ele>
        <time>2024-07-09T11:57:58Z</time>
      </trkpt>
      <trkpt lat="44.03344" lon="7.30163">
        <ele>684.2</ele>
        <time>2024-07-09T11:57:59Z</time>
      </trkpt>
      <trkpt lat="44.03341" lon="7.30164">
        <ele>684.2</ele>
        <time>2024-07-09T11:58:00Z</time>
      </trkpt>
      <trkpt lat="44.03338" lon="7.30163">
        <ele>684.2</ele>
        <time>2024-07-09T11:58:01Z</time>
      </trkpt>
      <trkpt lat="44.03335" lon="7.30163">
        <ele>684.2</ele>
        <time>2024-07-09T11:58:02Z</time>
      </trkpt>
      <trkpt lat="44.03331" lon="7.30163">
        <ele>684.2</ele>
        <time>2024-07-09T11:58:03Z</time>
      </trkpt>
      <trkpt lat="44.03327" lon="7.30163">
        <ele>684.2</ele>
        <time>2024-07-09T11:58:04Z</time>
      </trkpt>
      <trkpt lat="44.03323" lon="7.30163">
        <ele>683.8</ele>
        <time>2024-07-09T11:58:05Z</time>
      </trkpt>
      <trkpt lat="44.03319" lon="7.30163">
        <ele>684.2</ele>
        <time>2024-07-09T11:58:06Z</time>
      </trkpt>
      <trkpt lat="44.03315" lon="7.30161">
        <ele>684.2</ele>
        <time>2024-07-09T11:58:07Z</time>
      </trkpt>
      <trkpt lat="44.03312" lon="7.30159">
        <ele>684.2</ele>
        <time>2024-07-09T11:58:08Z</time>
      </trkpt>
      <trkpt lat="44.03309" lon="7.30155">
        <ele>684.2</ele>
        <time>2024-07-09T11:58:09Z</time>
      </trkpt>
      <trkpt lat="44.03307" lon="7.30149">
        <ele>684.6</ele>
        <time>2024-07-09T11:58:10Z</time>
      </trkpt>
      <trkpt lat="44.03306" lon="7.30144">
        <ele>684.6</ele>
        <time>2024-07-09T11:58:11Z</time>
      </trkpt>
      <trkpt lat="44.03305" lon="7.30138">
        <ele>684.6</ele>
        <time>2024-07-09T11:58:12Z</time>
      </trkpt>
      <trkpt lat="44.03307" lon="7.30132">
        <ele>684.6</ele>
        <time>2024-07-09T11:58:13Z</time>
      </trkpt>
      <trkpt lat="44.03309" lon="7.30126">
        <ele>684.6</ele>
        <time>2024-07-09T11:58:14Z</time>
      </trkpt>
      <trkpt lat="44.0331" lon="7.30121">
        <ele>684.8</ele>
        <time>2024-07-09T11:58:15Z</time>
      </trkpt>
      <trkpt lat="44.03311" lon="7.30115">
        <ele>684.8</ele>
        <time>2024-07-09T11:58:16Z</time>
      </trkpt>
      <trkpt lat="44.03311" lon="7.3011">
        <ele>684.8</ele>
        <time>2024-07-09T11:58:17Z</time>
      </trkpt>
      <trkpt lat="44.03312" lon="7.30104">
        <ele>684.8</ele>
        <time>2024-07-09T11:58:18Z</time>
      </trkpt>
      <trkpt lat="44.03314" lon="7.30099">
        <ele>685.2</ele>
        <time>2024-07-09T11:58:19Z</time>
      </trkpt>
      <trkpt lat="44.03315" lon="7.30094">
        <ele>685.2</ele>
        <time>2024-07-09T11:58:20Z</time>
      </trkpt>
      <trkpt lat="44.03316" lon="7.30089">
        <ele>685.2</ele>
        <time>2024-07-09T11:58:21Z</time>
      </trkpt>
      <trkpt lat="44.03317" lon="7.30084">
        <ele>685.2</ele>
        <time>2024-07-09T11:58:22Z</time>
      </trkpt>
      <trkpt lat="44.03318" lon="7.30079">
        <ele>685.2</ele>
        <time>2024-07-09T11:58:23Z</time>
      </trkpt>
      <trkpt lat="44.03319" lon="7.30074">
        <ele>685.2</ele>
        <time>2024-07-09T11:58:24Z</time>
      </trkpt>
      <trkpt lat="44.0332" lon="7.30069">
        <ele>685.2</ele>
        <time>2024-07-09T11:58:25Z</time>
      </trkpt>
      <trkpt lat="44.03322" lon="7.30063">
        <ele>685.2</ele>
        <time>2024-07-09T11:58:26Z</time>
      </trkpt>
      <trkpt lat="44.03323" lon="7.30058">
        <ele>685.2</ele>
        <time>2024-07-09T11:58:27Z</time>
      </trkpt>
      <trkpt lat="44.03323" lon="7.30053">
        <ele>685.6</ele>
        <time>2024-07-09T11:58:28Z</time>
      </trkpt>
      <trkpt lat="44.03324" lon="7.30047">
        <ele>685.6</ele>
        <time>2024-07-09T11:58:29Z</time>
      </trkpt>
      <trkpt lat="44.03325" lon="7.30042">
        <ele>685.6</ele>
        <time>2024-07-09T11:58:30Z</time>
      </trkpt>
      <trkpt lat="44.03326" lon="7.30037">
        <ele>685.6</ele>
        <time>2024-07-09T11:58:31Z</time>
      </trkpt>
      <trkpt lat="44.03326" lon="7.30031">
        <ele>686</ele>
        <time>2024-07-09T11:58:32Z</time>
      </trkpt>
      <trkpt lat="44.03327" lon="7.30026">
        <ele>686.4</ele>
        <time>2024-07-09T11:58:33Z</time>
      </trkpt>
      <trkpt lat="44.03327" lon="7.30021">
        <ele>686.4</ele>
        <time>2024-07-09T11:58:34Z</time>
      </trkpt>
      <trkpt lat="44.03328" lon="7.30015">
        <ele>686.4</ele>
        <time>2024-07-09T11:58:35Z</time>
      </trkpt>
      <trkpt lat="44.03328" lon="7.3001">
        <ele>686.4</ele>
        <time>2024-07-09T11:58:36Z</time>
      </trkpt>
      <trkpt lat="44.03328" lon="7.30005">
        <ele>686.4</ele>
        <time>2024-07-09T11:58:37Z</time>
      </trkpt>
      <trkpt lat="44.03329" lon="7.29999">
        <ele>686.8</ele>
        <time>2024-07-09T11:58:38Z</time>
      </trkpt>
      <trkpt lat="44.03329" lon="7.29994">
        <ele>686.8</ele>
        <time>2024-07-09T11:58:39Z</time>
      </trkpt>
      <trkpt lat="44.0333" lon="7.29988">
        <ele>686.8</ele>
        <time>2024-07-09T11:58:40Z</time>
      </trkpt>
      <trkpt lat="44.03331" lon="7.29981">
        <ele>687</ele>
        <time>2024-07-09T11:58:41Z</time>
      </trkpt>
      <trkpt lat="44.03331" lon="7.29976">
        <ele>687</ele>
        <time>2024-07-09T11:58:42Z</time>
      </trkpt>
      <trkpt lat="44.03332" lon="7.2997">
        <ele>687</ele>
        <time>2024-07-09T11:58:43Z</time>
      </trkpt>
      <trkpt lat="44.03333" lon="7.29964">
        <ele>687</ele>
        <time>2024-07-09T11:58:44Z</time>
      </trkpt>
      <trkpt lat="44.03333" lon="7.29959">
        <ele>687</ele>
        <time>2024-07-09T11:58:45Z</time>
      </trkpt>
      <trkpt lat="44.03334" lon="7.29954">
        <ele>687</ele>
        <time>2024-07-09T11:58:46Z</time>
      </trkpt>
      <trkpt lat="44.03334" lon="7.29948">
        <ele>687.6</ele>
        <time>2024-07-09T11:58:47Z</time>
      </trkpt>
      <trkpt lat="44.03335" lon="7.29943">
        <ele>687.6</ele>
        <time>2024-07-09T11:58:48Z</time>
      </trkpt>
      <trkpt lat="44.03335" lon="7.29937">
        <ele>687.6</ele>
        <time>2024-07-09T11:58:49Z</time>
      </trkpt>
      <trkpt lat="44.03336" lon="7.29931">
        <ele>688</ele>
        <time>2024-07-09T11:58:50Z</time>
      </trkpt>
      <trkpt lat="44.03337" lon="7.29926">
        <ele>688.2</ele>
        <time>2024-07-09T11:58:51Z</time>
      </trkpt>
      <trkpt lat="44.03338" lon="7.2992">
        <ele>688.2</ele>
        <time>2024-07-09T11:58:52Z</time>
      </trkpt>
      <trkpt lat="44.03338" lon="7.29915">
        <ele>688.2</ele>
        <time>2024-07-09T11:58:53Z</time>
      </trkpt>
      <trkpt lat="44.03339" lon="7.2991">
        <ele>688.4</ele>
        <time>2024-07-09T11:58:54Z</time>
      </trkpt>
      <trkpt lat="44.0334" lon="7.29905">
        <ele>688.4</ele>
        <time>2024-07-09T11:58:55Z</time>
      </trkpt>
      <trkpt lat="44.03341" lon="7.299">
        <ele>688.8</ele>
        <time>2024-07-09T11:58:56Z</time>
      </trkpt>
      <trkpt lat="44.03341" lon="7.29894">
        <ele>688.8</ele>
        <time>2024-07-09T11:58:57Z</time>
      </trkpt>
      <trkpt lat="44.03342" lon="7.29889">
        <ele>688.8</ele>
        <time>2024-07-09T11:58:58Z</time>
      </trkpt>
      <trkpt lat="44.03342" lon="7.29884">
        <ele>689.6</ele>
        <time>2024-07-09T11:58:59Z</time>
      </trkpt>
      <trkpt lat="44.03343" lon="7.29879">
        <ele>689.4</ele>
        <time>2024-07-09T11:59:00Z</time>
      </trkpt>
      <trkpt lat="44.03344" lon="7.29874">
        <ele>689.4</ele>
        <time>2024-07-09T11:59:01Z</time>
      </trkpt>
      <trkpt lat="44.03345" lon="7.29869">
        <ele>689.4</ele>
        <time>2024-07-09T11:59:02Z</time>
      </trkpt>
      <trkpt lat="44.03346" lon="7.29864">
        <ele>689.4</ele>
        <time>2024-07-09T11:59:03Z</time>
      </trkpt>
      <trkpt lat="44.03347" lon="7.29859">
        <ele>689.8</ele>
        <time>2024-07-09T11:59:04Z</time>
      </trkpt>
      <trkpt lat="44.03348" lon="7.29853">
        <ele>689.8</ele>
        <time>2024-07-09T11:59:05Z</time>
      </trkpt>
      <trkpt lat="44.03349" lon="7.29848">
        <ele>689.8</ele>
        <time>2024-07-09T11:59:06Z</time>
      </trkpt>
      <trkpt lat="44.0335" lon="7.29844">
        <ele>689.8</ele>
        <time>2024-07-09T11:59:07Z</time>
      </trkpt>
      <trkpt lat="44.0335" lon="7.29839">
        <ele>690.2</ele>
        <time>2024-07-09T11:59:08Z</time>
      </trkpt>
      <trkpt lat="44.03351" lon="7.29835">
        <ele>690.2</ele>
        <time>2024-07-09T11:59:09Z</time>
      </trkpt>
      <trkpt lat="44.03351" lon="7.2983">
        <ele>690.2</ele>
        <time>2024-07-09T11:59:10Z</time>
      </trkpt>
      <trkpt lat="44.03351" lon="7.29825">
        <ele>690.2</ele>
        <time>2024-07-09T11:59:11Z</time>
      </trkpt>
      <trkpt lat="44.03351" lon="7.29821">
        <ele>690.2</ele>
        <time>2024-07-09T11:59:12Z</time>
      </trkpt>
      <trkpt lat="44.0335" lon="7.29815">
        <ele>690.6</ele>
        <time>2024-07-09T11:59:13Z</time>
      </trkpt>
      <trkpt lat="44.0335" lon="7.29811">
        <ele>691</ele>
        <time>2024-07-09T11:59:14Z</time>
      </trkpt>
      <trkpt lat="44.03351" lon="7.29806">
        <ele>691</ele>
        <time>2024-07-09T11:59:15Z</time>
      </trkpt>
      <trkpt lat="44.03353" lon="7.29803">
        <ele>691</ele>
        <time>2024-07-09T11:59:16Z</time>
      </trkpt>
      <trkpt lat="44.03354" lon="7.29799">
        <ele>691</ele>
        <time>2024-07-09T11:59:17Z</time>
      </trkpt>
      <trkpt lat="44.03355" lon="7.29793">
        <ele>691.4</ele>
        <time>2024-07-09T11:59:18Z</time>
      </trkpt>
      <trkpt lat="44.03356" lon="7.29788">
        <ele>691.4</ele>
        <time>2024-07-09T11:59:19Z</time>
      </trkpt>
      <trkpt lat="44.03357" lon="7.29783">
        <ele>691.4</ele>
        <time>2024-07-09T11:59:20Z</time>
      </trkpt>
      <trkpt lat="44.03359" lon="7.29778">
        <ele>692</ele>
        <time>2024-07-09T11:59:21Z</time>
      </trkpt>
      <trkpt lat="44.0336" lon="7.29773">
        <ele>691.8</ele>
        <time>2024-07-09T11:59:22Z</time>
      </trkpt>
      <trkpt lat="44.03361" lon="7.29768">
        <ele>691.8</ele>
        <time>2024-07-09T11:59:23Z</time>
      </trkpt>
      <trkpt lat="44.03363" lon="7.29764">
        <ele>691.8</ele>
        <time>2024-07-09T11:59:24Z</time>
      </trkpt>
      <trkpt lat="44.03364" lon="7.29759">
        <ele>691.8</ele>
        <time>2024-07-09T11:59:25Z</time>
      </trkpt>
      <trkpt lat="44.03365" lon="7.29754">
        <ele>692.6</ele>
        <time>2024-07-09T11:59:26Z</time>
      </trkpt>
      <trkpt lat="44.03367" lon="7.2975">
        <ele>692.4</ele>
        <time>2024-07-09T11:59:27Z</time>
      </trkpt>
      <trkpt lat="44.03367" lon="7.29745">
        <ele>692.4</ele>
        <time>2024-07-09T11:59:28Z</time>
      </trkpt>
      <trkpt lat="44.03368" lon="7.29741">
        <ele>692.4</ele>
        <time>2024-07-09T11:59:29Z</time>
      </trkpt>
      <trkpt lat="44.03369" lon="7.29736">
        <ele>693</ele>
        <time>2024-07-09T11:59:30Z</time>
      </trkpt>
      <trkpt lat="44.03369" lon="7.29732">
        <ele>693.4</ele>
        <time>2024-07-09T11:59:31Z</time>
      </trkpt>
      <trkpt lat="44.0337" lon="7.29727">
        <ele>693.4</ele>
        <time>2024-07-09T11:59:32Z</time>
      </trkpt>
      <trkpt lat="44.03371" lon="7.29722">
        <ele>693.4</ele>
        <time>2024-07-09T11:59:33Z</time>
      </trkpt>
      <trkpt lat="44.03373" lon="7.29718">
        <ele>693.6</ele>
        <time>2024-07-09T11:59:34Z</time>
      </trkpt>
      <trkpt lat="44.03374" lon="7.29714">
        <ele>693.6</ele>
        <time>2024-07-09T11:59:35Z</time>
      </trkpt>
      <trkpt lat="44.03376" lon="7.29709">
        <ele>693.8</ele>
        <time>2024-07-09T11:59:36Z</time>
      </trkpt>
      <trkpt lat="44.03378" lon="7.29706">
        <ele>693.8</ele>
        <time>2024-07-09T11:59:37Z</time>
      </trkpt>
      <trkpt lat="44.03379" lon="7.29703">
        <ele>693.8</ele>
        <time>2024-07-09T11:59:38Z</time>
      </trkpt>
      <trkpt lat="44.03381" lon="7.29699">
        <ele>694.4</ele>
        <time>2024-07-09T11:59:39Z</time>
      </trkpt>
      <trkpt lat="44.03382" lon="7.29696">
        <ele>694.6</ele>
        <time>2024-07-09T11:59:40Z</time>
      </trkpt>
      <trkpt lat="44.03384" lon="7.29693">
        <ele>694.6</ele>
        <time>2024-07-09T11:59:41Z</time>
      </trkpt>
      <trkpt lat="44.03386" lon="7.2969">
        <ele>694.6</ele>
        <time>2024-07-09T11:59:42Z</time>
      </trkpt>
      <trkpt lat="44.03388" lon="7.29688">
        <ele>694.6</ele>
        <time>2024-07-09T11:59:43Z</time>
      </trkpt>
      <trkpt lat="44.03391" lon="7.29685">
        <ele>695.4</ele>
        <time>2024-07-09T11:59:44Z</time>
      </trkpt>
      <trkpt lat="44.03393" lon="7.29682">
        <ele>695.4</ele>
        <time>2024-07-09T11:59:45Z</time>
      </trkpt>
      <trkpt lat="44.03394" lon="7.29678">
        <ele>695.4</ele>
        <time>2024-07-09T11:59:46Z</time>
      </trkpt>
      <trkpt lat="44.03397" lon="7.29675">
        <ele>695.4</ele>
        <time>2024-07-09T11:59:47Z</time>
      </trkpt>
      <trkpt lat="44.03399" lon="7.29672">
        <ele>695.8</ele>
        <time>2024-07-09T11:59:48Z</time>
      </trkpt>
      <trkpt lat="44.03402" lon="7.29669">
        <ele>695.8</ele>
        <time>2024-07-09T11:59:49Z</time>
      </trkpt>
      <trkpt lat="44.03403" lon="7.29665">
        <ele>695.8</ele>
        <time>2024-07-09T11:59:50Z</time>
      </trkpt>
      <trkpt lat="44.03405" lon="7.29662">
        <ele>695.8</ele>
        <time>2024-07-09T11:59:51Z</time>
      </trkpt>
      <trkpt lat="44.03407" lon="7.29658">
        <ele>695.8</ele>
        <time>2024-07-09T11:59:52Z</time>
      </trkpt>
      <trkpt lat="44.03409" lon="7.29655">
        <ele>696.4</ele>
        <time>2024-07-09T11:59:53Z</time>
      </trkpt>
      <trkpt lat="44.03412" lon="7.29652">
        <ele>696.4</ele>
        <time>2024-07-09T11:59:54Z</time>
      </trkpt>
      <trkpt lat="44.03413" lon="7.29649">
        <ele>696.4</ele>
        <time>2024-07-09T11:59:55Z</time>
      </trkpt>
      <trkpt lat="44.03416" lon="7.29646">
        <ele>696.4</ele>
        <time>2024-07-09T11:59:56Z</time>
      </trkpt>
      <trkpt lat="44.03418" lon="7.29644">
        <ele>696.4</ele>
        <time>2024-07-09T11:59:57Z</time>
      </trkpt>
      <trkpt lat="44.03421" lon="7.29642">
        <ele>697</ele>
        <time>2024-07-09T11:59:58Z</time>
      </trkpt>
      <trkpt lat="44.03423" lon="7.29639">
        <ele>697.4</ele>
        <time>2024-07-09T11:59:59Z</time>
      </trkpt>
      <trkpt lat="44.03425" lon="7.29637">
        <ele>697.4</ele>
        <time>2024-07-09T12:00:00Z</time>
      </trkpt>
      <trkpt lat="44.03427" lon="7.29634">
        <ele>697.4</ele>
        <time>2024-07-09T12:00:01Z</time>
      </trkpt>
      <trkpt lat="44.03429" lon="7.29632">
        <ele>697.6</ele>
        <time>2024-07-09T12:00:02Z</time>
      </trkpt>
      <trkpt lat="44.03432" lon="7.29629">
        <ele>697.8</ele>
        <time>2024-07-09T12:00:03Z</time>
      </trkpt>
      <trkpt lat="44.03434" lon="7.29627">
        <ele>697.8</ele>
        <time>2024-07-09T12:00:04Z</time>
      </trkpt>
      <trkpt lat="44.03437" lon="7.29625">
        <ele>697.8</ele>
        <time>2024-07-09T12:00:05Z</time>
      </trkpt>
      <trkpt lat="44.03439" lon="7.29622">
        <ele>698.4</ele>
        <time>2024-07-09T12:00:06Z</time>
      </trkpt>
      <trkpt lat="44.03441" lon="7.29619">
        <ele>698.6</ele>
        <time>2024-07-09T12:00:07Z</time>
      </trkpt>
      <trkpt lat="44.03443" lon="7.29617">
        <ele>698.6</ele>
        <time>2024-07-09T12:00:08Z</time>
      </trkpt>
      <trkpt lat="44.03445" lon="7.29614">
        <ele>698.6</ele>
        <time>2024-07-09T12:00:09Z</time>
      </trkpt>
      <trkpt lat="44.03447" lon="7.29611">
        <ele>698.6</ele>
        <time>2024-07-09T12:00:10Z</time>
      </trkpt>
      <trkpt lat="44.03449" lon="7.2961">
        <ele>699.2</ele>
        <time>2024-07-09T12:00:11Z</time>
      </trkpt>
      <trkpt lat="44.03452" lon="7.29607">
        <ele>699.4</ele>
        <time>2024-07-09T12:00:12Z</time>
      </trkpt>
      <trkpt lat="44.03454" lon="7.29604">
        <ele>699.4</ele>
        <time>2024-07-09T12:00:13Z</time>
      </trkpt>
      <trkpt lat="44.03456" lon="7.29602">
        <ele>699.4</ele>
        <time>2024-07-09T12:00:14Z</time>
      </trkpt>
      <trkpt lat="44.03459" lon="7.296">
        <ele>699.4</ele>
        <time>2024-07-09T12:00:15Z</time>
      </trkpt>
      <trkpt lat="44.03461" lon="7.29597">
        <ele>699.8</ele>
        <time>2024-07-09T12:00:16Z</time>
      </trkpt>
      <trkpt lat="44.03464" lon="7.29595">
        <ele>699.8</ele>
        <time>2024-07-09T12:00:17Z</time>
      </trkpt>
      <trkpt lat="44.03466" lon="7.29593">
        <ele>699.8</ele>
        <time>2024-07-09T12:00:18Z</time>
      </trkpt>
      <trkpt lat="44.03469" lon="7.2959">
        <ele>700.2</ele>
        <time>2024-07-09T12:00:19Z</time>
      </trkpt>
      <trkpt lat="44.03471" lon="7.29588">
        <ele>700.4</ele>
        <time>2024-07-09T12:00:20Z</time>
      </trkpt>
      <trkpt lat="44.03473" lon="7.29584">
        <ele>700.4</ele>
        <time>2024-07-09T12:00:21Z</time>
      </trkpt>
      <trkpt lat="44.03476" lon="7.29582">
        <ele>700.4</ele>
        <time>2024-07-09T12:00:22Z</time>
      </trkpt>
      <trkpt lat="44.03478" lon="7.29579">
        <ele>700.4</ele>
        <time>2024-07-09T12:00:23Z</time>
      </trkpt>
      <trkpt lat="44.03479" lon="7.29576">
        <ele>701</ele>
        <time>2024-07-09T12:00:24Z</time>
      </trkpt>
      <trkpt lat="44.03481" lon="7.29573">
        <ele>701</ele>
        <time>2024-07-09T12:00:25Z</time>
      </trkpt>
      <trkpt lat="44.03483" lon="7.29571">
        <ele>701</ele>
        <time>2024-07-09T12:00:26Z</time>
      </trkpt>
      <trkpt lat="44.03485" lon="7.29568">
        <ele>701</ele>
        <time>2024-07-09T12:00:27Z</time>
      </trkpt>
      <trkpt lat="44.03486" lon="7.29564">
        <ele>701.4</ele>
        <time>2024-07-09T12:00:28Z</time>
      </trkpt>
      <trkpt lat="44.03487" lon="7.2956">
        <ele>701.4</ele>
        <time>2024-07-09T12:00:29Z</time>
      </trkpt>
      <trkpt lat="44.03487" lon="7.29555">
        <ele>701.4</ele>
        <time>2024-07-09T12:00:30Z</time>
      </trkpt>
      <trkpt lat="44.03489" lon="7.2955">
        <ele>701.4</ele>
        <time>2024-07-09T12:00:31Z</time>
      </trkpt>
      <trkpt lat="44.0349" lon="7.29546">
        <ele>702</ele>
        <time>2024-07-09T12:00:32Z</time>
      </trkpt>
      <trkpt lat="44.03492" lon="7.29543">
        <ele>702</ele>
        <time>2024-07-09T12:00:33Z</time>
      </trkpt>
      <trkpt lat="44.03494" lon="7.2954">
        <ele>702.4</ele>
        <time>2024-07-09T12:00:34Z</time>
      </trkpt>
      <trkpt lat="44.03495" lon="7.29536">
        <ele>702.4</ele>
        <time>2024-07-09T12:00:35Z</time>
      </trkpt>
      <trkpt lat="44.03496" lon="7.29533">
        <ele>702.4</ele>
        <time>2024-07-09T12:00:36Z</time>
      </trkpt>
      <trkpt lat="44.03497" lon="7.2953">
        <ele>702.4</ele>
        <time>2024-07-09T12:00:37Z</time>
      </trkpt>
      <trkpt lat="44.03499" lon="7.29527">
        <ele>703</ele>
        <time>2024-07-09T12:00:38Z</time>
      </trkpt>
      <trkpt lat="44.035" lon="7.29523">
        <ele>703</ele>
        <time>2024-07-09T12:00:39Z</time>
      </trkpt>
      <trkpt lat="44.03501" lon="7.2952">
        <ele>703</ele>
        <time>2024-07-09T12:00:40Z</time>
      </trkpt>
      <trkpt lat="44.03503" lon="7.29517">
        <ele>703</ele>
        <time>2024-07-09T12:00:41Z</time>
      </trkpt>
      <trkpt lat="44.03504" lon="7.29514">
        <ele>703.2</ele>
        <time>2024-07-09T12:00:42Z</time>
      </trkpt>
      <trkpt lat="44.03506" lon="7.29511">
        <ele>703.4</ele>
        <time>2024-07-09T12:00:43Z</time>
      </trkpt>
      <trkpt lat="44.03507" lon="7.29509">
        <ele>703.4</ele>
        <time>2024-07-09T12:00:44Z</time>
      </trkpt>
      <trkpt lat="44.03509" lon="7.29507">
        <ele>703.4</ele>
        <time>2024-07-09T12:00:45Z</time>
      </trkpt>
      <trkpt lat="44.03512" lon="7.29505">
        <ele>704</ele>
        <time>2024-07-09T12:00:46Z</time>
      </trkpt>
      <trkpt lat="44.03513" lon="7.29504">
        <ele>704.2</ele>
        <time>2024-07-09T12:00:47Z</time>
      </trkpt>
      <trkpt lat="44.03515" lon="7.29502">
        <ele>704.2</ele>
        <time>2024-07-09T12:00:48Z</time>
      </trkpt>
      <trkpt lat="44.03517" lon="7.29501">
        <ele>704.2</ele>
        <time>2024-07-09T12:00:49Z</time>
      </trkpt>
      <trkpt lat="44.03518" lon="7.295">
        <ele>704.2</ele>
        <time>2024-07-09T12:00:50Z</time>
      </trkpt>
      <trkpt lat="44.0352" lon="7.29498">
        <ele>704.6</ele>
        <time>2024-07-09T12:00:51Z</time>
      </trkpt>
      <trkpt lat="44.03523" lon="7.29497">
        <ele>704.8</ele>
        <time>2024-07-09T12:00:52Z</time>
      </trkpt>
      <trkpt lat="44.03525" lon="7.29496">
        <ele>704.8</ele>
        <time>2024-07-09T12:00:53Z</time>
      </trkpt>
      <trkpt lat="44.03527" lon="7.29495">
        <ele>704.8</ele>
        <time>2024-07-09T12:00:54Z</time>
      </trkpt>
      <trkpt lat="44.0353" lon="7.29494">
        <ele>705</ele>
        <time>2024-07-09T12:00:55Z</time>
      </trkpt>
      <trkpt lat="44.03532" lon="7.29493">
        <ele>705</ele>
        <time>2024-07-09T12:00:56Z</time>
      </trkpt>
      <trkpt lat="44.03535" lon="7.29492">
        <ele>705</ele>
        <time>2024-07-09T12:00:57Z</time>
      </trkpt>
      <trkpt lat="44.03537" lon="7.2949">
        <ele>705</ele>
        <time>2024-07-09T12:00:58Z</time>
      </trkpt>
      <trkpt lat="44.03539" lon="7.29489">
        <ele>705.4</ele>
        <time>2024-07-09T12:00:59Z</time>
      </trkpt>
      <trkpt lat="44.03541" lon="7.29487">
        <ele>705.6</ele>
        <time>2024-07-09T12:01:00Z</time>
      </trkpt>
      <trkpt lat="44.03543" lon="7.29484">
        <ele>705.6</ele>
        <time>2024-07-09T12:01:01Z</time>
      </trkpt>
      <trkpt lat="44.03545" lon="7.29482">
        <ele>705.6</ele>
        <time>2024-07-09T12:01:02Z</time>
      </trkpt>
      <trkpt lat="44.03547" lon="7.2948">
        <ele>706</ele>
        <time>2024-07-09T12:01:03Z</time>
      </trkpt>
      <trkpt lat="44.03549" lon="7.29478">
        <ele>705.8</ele>
        <time>2024-07-09T12:01:04Z</time>
      </trkpt>
      <trkpt lat="44.03552" lon="7.29475">
        <ele>705.8</ele>
        <time>2024-07-09T12:01:05Z</time>
      </trkpt>
      <trkpt lat="44.03553" lon="7.29473">
        <ele>705.8</ele>
        <time>2024-07-09T12:01:06Z</time>
      </trkpt>
      <trkpt lat="44.03555" lon="7.29472">
        <ele>705.8</ele>
        <time>2024-07-09T12:01:07Z</time>
      </trkpt>
      <trkpt lat="44.03558" lon="7.2947">
        <ele>706.4</ele>
        <time>2024-07-09T12:01:08Z</time>
      </trkpt>
      <trkpt lat="44.03559" lon="7.29469">
        <ele>706.4</ele>
        <time>2024-07-09T12:01:09Z</time>
      </trkpt>
      <trkpt lat="44.03562" lon="7.29466">
        <ele>706.4</ele>
        <time>2024-07-09T12:01:10Z</time>
      </trkpt>
      <trkpt lat="44.03564" lon="7.29464">
        <ele>706.4</ele>
        <time>2024-07-09T12:01:11Z</time>
      </trkpt>
      <trkpt lat="44.03565" lon="7.29462">
        <ele>707.2</ele>
        <time>2024-07-09T12:01:12Z</time>
      </trkpt>
      <trkpt lat="44.03567" lon="7.29461">
        <ele>707.4</ele>
        <time>2024-07-09T12:01:13Z</time>
      </trkpt>
      <trkpt lat="44.03569" lon="7.29459">
        <ele>707.4</ele>
        <time>2024-07-09T12:01:14Z</time>
      </trkpt>
      <trkpt lat="44.03571" lon="7.29457">
        <ele>707.4</ele>
        <time>2024-07-09T12:01:15Z</time>
      </trkpt>
      <trkpt lat="44.03573" lon="7.29454">
        <ele>707.8</ele>
        <time>2024-07-09T12:01:16Z</time>
      </trkpt>
      <trkpt lat="44.03574" lon="7.29452">
        <ele>707.8</ele>
        <time>2024-07-09T12:01:17Z</time>
      </trkpt>
      <trkpt lat="44.03576" lon="7.29448">
        <ele>707.8</ele>
        <time>2024-07-09T12:01:18Z</time>
      </trkpt>
      <trkpt lat="44.03578" lon="7.29445">
        <ele>707.8</ele>
        <time>2024-07-09T12:01:19Z</time>
      </trkpt>
      <trkpt lat="44.03579" lon="7.29442">
        <ele>707.8</ele>
        <time>2024-07-09T12:01:20Z</time>
      </trkpt>
      <trkpt lat="44.0358" lon="7.29439">
        <ele>708.2</ele>
        <time>2024-07-09T12:01:21Z</time>
      </trkpt>
      <trkpt lat="44.03582" lon="7.29436">
        <ele>708.2</ele>
        <time>2024-07-09T12:01:22Z</time>
      </trkpt>
      <trkpt lat="44.03583" lon="7.29432">
        <ele>708.2</ele>
        <time>2024-07-09T12:01:23Z</time>
      </trkpt>
      <trkpt lat="44.03585" lon="7.29429">
        <ele>708.2</ele>
        <time>2024-07-09T12:01:24Z</time>
      </trkpt>
      <trkpt lat="44.03586" lon="7.29425">
        <ele>708.2</ele>
        <time>2024-07-09T12:01:25Z</time>
      </trkpt>
      <trkpt lat="44.03587" lon="7.29422">
        <ele>708.8</ele>
        <time>2024-07-09T12:01:26Z</time>
      </trkpt>
      <trkpt lat="44.03589" lon="7.29419">
        <ele>709.2</ele>
        <time>2024-07-09T12:01:27Z</time>
      </trkpt>
      <trkpt lat="44.03589" lon="7.29416">
        <ele>709.2</ele>
        <time>2024-07-09T12:01:28Z</time>
      </trkpt>
      <trkpt lat="44.03591" lon="7.29413">
        <ele>709.2</ele>
        <time>2024-07-09T12:01:29Z</time>
      </trkpt>
      <trkpt lat="44.03592" lon="7.2941">
        <ele>709.8</ele>
        <time>2024-07-09T12:01:30Z</time>
      </trkpt>
      <trkpt lat="44.03593" lon="7.29407">
        <ele>710</ele>
        <time>2024-07-09T12:01:31Z</time>
      </trkpt>
      <trkpt lat="44.03594" lon="7.29404">
        <ele>710</ele>
        <time>2024-07-09T12:01:32Z</time>
      </trkpt>
      <trkpt lat="44.03596" lon="7.29401">
        <ele>710</ele>
        <time>2024-07-09T12:01:33Z</time>
      </trkpt>
      <trkpt lat="44.03597" lon="7.29398">
        <ele>710.6</ele>
        <time>2024-07-09T12:01:34Z</time>
      </trkpt>
      <trkpt lat="44.03598" lon="7.29394">
        <ele>710.6</ele>
        <time>2024-07-09T12:01:35Z</time>
      </trkpt>
      <trkpt lat="44.03598" lon="7.29391">
        <ele>710.6</ele>
        <time>2024-07-09T12:01:36Z</time>
      </trkpt>
      <trkpt lat="44.036" lon="7.29388">
        <ele>710.6</ele>
        <time>2024-07-09T12:01:37Z</time>
      </trkpt>
      <trkpt lat="44.03601" lon="7.29385">
        <ele>710.6</ele>
        <time>2024-07-09T12:01:38Z</time>
      </trkpt>
      <trkpt lat="44.03602" lon="7.29382">
        <ele>711.4</ele>
        <time>2024-07-09T12:01:39Z</time>
      </trkpt>
      <trkpt lat="44.03603" lon="7.29379">
        <ele>711.6</ele>
        <time>2024-07-09T12:01:40Z</time>
      </trkpt>
      <trkpt lat="44.03604" lon="7.29376">
        <ele>711.6</ele>
        <time>2024-07-09T12:01:41Z</time>
      </trkpt>
      <trkpt lat="44.03605" lon="7.29374">
        <ele>711.6</ele>
        <time>2024-07-09T12:01:42Z</time>
      </trkpt>
      <trkpt lat="44.03606" lon="7.29372">
        <ele>712.4</ele>
        <time>2024-07-09T12:01:43Z</time>
      </trkpt>
      <trkpt lat="44.03607" lon="7.29369">
        <ele>712.6</ele>
        <time>2024-07-09T12:01:44Z</time>
      </trkpt>
      <trkpt lat="44.03608" lon="7.29366">
        <ele>712.6</ele>
        <time>2024-07-09T12:01:45Z</time>
      </trkpt>
      <trkpt lat="44.03609" lon="7.29363">
        <ele>712.6</ele>
        <time>2024-07-09T12:01:46Z</time>
      </trkpt>
      <trkpt lat="44.0361" lon="7.29361">
        <ele>713.6</ele>
        <time>2024-07-09T12:01:47Z</time>
      </trkpt>
      <trkpt lat="44.03611" lon="7.29358">
        <ele>713.6</ele>
        <time>2024-07-09T12:01:48Z</time>
      </trkpt>
      <trkpt lat="44.03613" lon="7.29356">
        <ele>713.6</ele>
        <time>2024-07-09T12:01:49Z</time>
      </trkpt>
      <trkpt lat="44.03613" lon="7.29353">
        <ele>713.6</ele>
        <time>2024-07-09T12:01:50Z</time>
      </trkpt>
      <trkpt lat="44.03615" lon="7.2935">
        <ele>713.6</ele>
        <time>2024-07-09T12:01:51Z</time>
      </trkpt>
      <trkpt lat="44.03616" lon="7.29347">
        <ele>714</ele>
        <time>2024-07-09T12:01:52Z</time>
      </trkpt>
      <trkpt lat="44.03617" lon="7.29345">
        <ele>714</ele>
        <time>2024-07-09T12:01:53Z</time>
      </trkpt>
      <trkpt lat="44.03618" lon="7.29342">
        <ele>714</ele>
        <time>2024-07-09T12:01:54Z</time>
      </trkpt>
      <trkpt lat="44.03619" lon="7.2934">
        <ele>714</ele>
        <time>2024-07-09T12:01:55Z</time>
      </trkpt>
      <trkpt lat="44.0362" lon="7.29337">
        <ele>714.6</ele>
        <time>2024-07-09T12:01:56Z</time>
      </trkpt>
      <trkpt lat="44.03621" lon="7.29334">
        <ele>714.6</ele>
        <time>2024-07-09T12:01:57Z</time>
      </trkpt>
      <trkpt lat="44.03623" lon="7.29332">
        <ele>714.6</ele>
        <time>2024-07-09T12:01:58Z</time>
      </trkpt>
      <trkpt lat="44.03624" lon="7.29329">
        <ele>714.6</ele>
        <time>2024-07-09T12:01:59Z</time>
      </trkpt>
      <trkpt lat="44.03626" lon="7.29327">
        <ele>714.6</ele>
        <time>2024-07-09T12:02:00Z</time>
      </trkpt>
      <trkpt lat="44.03627" lon="7.29325">
        <ele>714.6</ele>
        <time>2024-07-09T12:02:01Z</time>
      </trkpt>
      <trkpt lat="44.03628" lon="7.29322">
        <ele>714.8</ele>
        <time>2024-07-09T12:02:02Z</time>
      </trkpt>
      <trkpt lat="44.0363" lon="7.29319">
        <ele>715</ele>
        <time>2024-07-09T12:02:03Z</time>
      </trkpt>
      <trkpt lat="44.03631" lon="7.29317">
        <ele>715</ele>
        <time>2024-07-09T12:02:04Z</time>
      </trkpt>
      <trkpt lat="44.03632" lon="7.29314">
        <ele>715</ele>
        <time>2024-07-09T12:02:05Z</time>
      </trkpt>
      <trkpt lat="44.03634" lon="7.29311">
        <ele>714.8</ele>
        <time>2024-07-09T12:02:06Z</time>
      </trkpt>
      <trkpt lat="44.03635" lon="7.29308">
        <ele>715</ele>
        <time>2024-07-09T12:02:07Z</time>
      </trkpt>
      <trkpt lat="44.03637" lon="7.29306">
        <ele>715</ele>
        <time>2024-07-09T12:02:08Z</time>
      </trkpt>
      <trkpt lat="44.03639" lon="7.29304">
        <ele>715</ele>
        <time>2024-07-09T12:02:09Z</time>
      </trkpt>
      <trkpt lat="44.03641" lon="7.29301">
        <ele>714.8</ele>
        <time>2024-07-09T12:02:10Z</time>
      </trkpt>
      <trkpt lat="44.03642" lon="7.29299">
        <ele>714.8</ele>
        <time>2024-07-09T12:02:11Z</time>
      </trkpt>
      <trkpt lat="44.03644" lon="7.29297">
        <ele>714.8</ele>
        <time>2024-07-09T12:02:12Z</time>
      </trkpt>
      <trkpt lat="44.03646" lon="7.29295">
        <ele>714.8</ele>
        <time>2024-07-09T12:02:13Z</time>
      </trkpt>
      <trkpt lat="44.03648" lon="7.29293">
        <ele>715.4</ele>
        <time>2024-07-09T12:02:14Z</time>
      </trkpt>
      <trkpt lat="44.0365" lon="7.29291">
        <ele>715.4</ele>
        <time>2024-07-09T12:02:15Z</time>
      </trkpt>
      <trkpt lat="44.03652" lon="7.2929">
        <ele>715.4</ele>
        <time>2024-07-09T12:02:16Z</time>
      </trkpt>
      <trkpt lat="44.03655" lon="7.29288">
        <ele>715.4</ele>
        <time>2024-07-09T12:02:17Z</time>
      </trkpt>
      <trkpt lat="44.03657" lon="7.29287">
        <ele>715.4</ele>
        <time>2024-07-09T12:02:18Z</time>
      </trkpt>
      <trkpt lat="44.03659" lon="7.29285">
        <ele>716</ele>
        <time>2024-07-09T12:02:19Z</time>
      </trkpt>
      <trkpt lat="44.03661" lon="7.29283">
        <ele>716</ele>
        <time>2024-07-09T12:02:20Z</time>
      </trkpt>
      <trkpt lat="44.03663" lon="7.29281">
        <ele>716</ele>
        <time>2024-07-09T12:02:21Z</time>
      </trkpt>
      <trkpt lat="44.03666" lon="7.29279">
        <ele>716</ele>
        <time>2024-07-09T12:02:22Z</time>
      </trkpt>
      <trkpt lat="44.03668" lon="7.29277">
        <ele>716.6</ele>
        <time>2024-07-09T12:02:23Z</time>
      </trkpt>
      <trkpt lat="44.03671" lon="7.29275">
        <ele>716.8</ele>
        <time>2024-07-09T12:02:24Z</time>
      </trkpt>
      <trkpt lat="44.03673" lon="7.29274">
        <ele>716.8</ele>
        <time>2024-07-09T12:02:25Z</time>
      </trkpt>
      <trkpt lat="44.03675" lon="7.29271">
        <ele>716.8</ele>
        <time>2024-07-09T12:02:26Z</time>
      </trkpt>
      <trkpt lat="44.03677" lon="7.29269">
        <ele>717.2</ele>
        <time>2024-07-09T12:02:27Z</time>
      </trkpt>
      <trkpt lat="44.03679" lon="7.29267">
        <ele>717.6</ele>
        <time>2024-07-09T12:02:28Z</time>
      </trkpt>
      <trkpt lat="44.03681" lon="7.29265">
        <ele>717.6</ele>
        <time>2024-07-09T12:02:29Z</time>
      </trkpt>
      <trkpt lat="44.03684" lon="7.29263">
        <ele>717.6</ele>
        <time>2024-07-09T12:02:30Z</time>
      </trkpt>
      <trkpt lat="44.03686" lon="7.29261">
        <ele>717.6</ele>
        <time>2024-07-09T12:02:31Z</time>
      </trkpt>
      <trkpt lat="44.03688" lon="7.29259">
        <ele>717.8</ele>
        <time>2024-07-09T12:02:32Z</time>
      </trkpt>
      <trkpt lat="44.0369" lon="7.29256">
        <ele>717.8</ele>
        <time>2024-07-09T12:02:33Z</time>
      </trkpt>
      <trkpt lat="44.03692" lon="7.29255">
        <ele>717.8</ele>
        <time>2024-07-09T12:02:34Z</time>
      </trkpt>
      <trkpt lat="44.03694" lon="7.29253">
        <ele>717.8</ele>
        <time>2024-07-09T12:02:35Z</time>
      </trkpt>
      <trkpt lat="44.03696" lon="7.29251">
        <ele>718.4</ele>
        <time>2024-07-09T12:02:36Z</time>
      </trkpt>
      <trkpt lat="44.03698" lon="7.29249">
        <ele>718.4</ele>
        <time>2024-07-09T12:02:37Z</time>
      </trkpt>
      <trkpt lat="44.03701" lon="7.29247">
        <ele>718.4</ele>
        <time>2024-07-09T12:02:38Z</time>
      </trkpt>
      <trkpt lat="44.03703" lon="7.29245">
        <ele>718.4</ele>
        <time>2024-07-09T12:02:39Z</time>
      </trkpt>
      <trkpt lat="44.03704" lon="7.29243">
        <ele>718.6</ele>
        <time>2024-07-09T12:02:40Z</time>
      </trkpt>
      <trkpt lat="44.03706" lon="7.29241">
        <ele>718.8</ele>
        <time>2024-07-09T12:02:41Z</time>
      </trkpt>
      <trkpt lat="44.03708" lon="7.29238">
        <ele>718.8</ele>
        <time>2024-07-09T12:02:42Z</time>
      </trkpt>
      <trkpt lat="44.0371" lon="7.29236">
        <ele>718.8</ele>
        <time>2024-07-09T12:02:43Z</time>
      </trkpt>
      <trkpt lat="44.03712" lon="7.29233">
        <ele>718.8</ele>
        <time>2024-07-09T12:02:44Z</time>
      </trkpt>
      <trkpt lat="44.03714" lon="7.29231">
        <ele>719.2</ele>
        <time>2024-07-09T12:02:45Z</time>
      </trkpt>
      <trkpt lat="44.03715" lon="7.29229">
        <ele>719.4</ele>
        <time>2024-07-09T12:02:46Z</time>
      </trkpt>
      <trkpt lat="44.03718" lon="7.29226">
        <ele>719.4</ele>
        <time>2024-07-09T12:02:47Z</time>
      </trkpt>
      <trkpt lat="44.0372" lon="7.29224">
        <ele>719.4</ele>
        <time>2024-07-09T12:02:48Z</time>
      </trkpt>
      <trkpt lat="44.03722" lon="7.29222">
        <ele>719.4</ele>
        <time>2024-07-09T12:02:49Z</time>
      </trkpt>
      <trkpt lat="44.03724" lon="7.2922">
        <ele>719.4</ele>
        <time>2024-07-09T12:02:50Z</time>
      </trkpt>
      <trkpt lat="44.03726" lon="7.29217">
        <ele>719.8</ele>
        <time>2024-07-09T12:02:51Z</time>
      </trkpt>
      <trkpt lat="44.03728" lon="7.29216">
        <ele>719.8</ele>
        <time>2024-07-09T12:02:52Z</time>
      </trkpt>
      <trkpt lat="44.03729" lon="7.29213">
        <ele>719.8</ele>
        <time>2024-07-09T12:02:53Z</time>
      </trkpt>
      <trkpt lat="44.03731" lon="7.29212">
        <ele>720.8</ele>
        <time>2024-07-09T12:02:54Z</time>
      </trkpt>
      <trkpt lat="44.03734" lon="7.29211">
        <ele>721</ele>
        <time>2024-07-09T12:02:55Z</time>
      </trkpt>
      <trkpt lat="44.03736" lon="7.29208">
        <ele>721</ele>
        <time>2024-07-09T12:02:56Z</time>
      </trkpt>
      <trkpt lat="44.03738" lon="7.29206">
        <ele>721</ele>
        <time>2024-07-09T12:02:57Z</time>
      </trkpt>
      <trkpt lat="44.03741" lon="7.29205">
        <ele>721.6</ele>
        <time>2024-07-09T12:02:58Z</time>
      </trkpt>
      <trkpt lat="44.03744" lon="7.29204">
        <ele>721.6</ele>
        <time>2024-07-09T12:02:59Z</time>
      </trkpt>
      <trkpt lat="44.03746" lon="7.29203">
        <ele>721.8</ele>
        <time>2024-07-09T12:03:00Z</time>
      </trkpt>
      <trkpt lat="44.03749" lon="7.29202">
        <ele>721.8</ele>
        <time>2024-07-09T12:03:01Z</time>
      </trkpt>
      <trkpt lat="44.03752" lon="7.29201">
        <ele>721.8</ele>
        <time>2024-07-09T12:03:02Z</time>
      </trkpt>
      <trkpt lat="44.03754" lon="7.292">
        <ele>722.2</ele>
        <time>2024-07-09T12:03:03Z</time>
      </trkpt>
      <trkpt lat="44.03757" lon="7.29199">
        <ele>722.6</ele>
        <time>2024-07-09T12:03:04Z</time>
      </trkpt>
      <trkpt lat="44.03759" lon="7.29199">
        <ele>722.6</ele>
        <time>2024-07-09T12:03:05Z</time>
      </trkpt>
      <trkpt lat="44.03761" lon="7.29198">
        <ele>722.6</ele>
        <time>2024-07-09T12:03:06Z</time>
      </trkpt>
      <trkpt lat="44.03764" lon="7.29197">
        <ele>722.8</ele>
        <time>2024-07-09T12:03:07Z</time>
      </trkpt>
      <trkpt lat="44.03766" lon="7.29197">
        <ele>723</ele>
        <time>2024-07-09T12:03:08Z</time>
      </trkpt>
      <trkpt lat="44.03768" lon="7.29196">
        <ele>723</ele>
        <time>2024-07-09T12:03:09Z</time>
      </trkpt>
      <trkpt lat="44.03771" lon="7.29195">
        <ele>723</ele>
        <time>2024-07-09T12:03:10Z</time>
      </trkpt>
      <trkpt lat="44.03774" lon="7.29194">
        <ele>723.4</ele>
        <time>2024-07-09T12:03:11Z</time>
      </trkpt>
      <trkpt lat="44.03776" lon="7.29193">
        <ele>723.4</ele>
        <time>2024-07-09T12:03:12Z</time>
      </trkpt>
      <trkpt lat="44.03778" lon="7.29193">
        <ele>723.4</ele>
        <time>2024-07-09T12:03:13Z</time>
      </trkpt>
      <trkpt lat="44.0378" lon="7.29192">
        <ele>723.4</ele>
        <time>2024-07-09T12:03:14Z</time>
      </trkpt>
      <trkpt lat="44.03783" lon="7.29191">
        <ele>723.4</ele>
        <time>2024-07-09T12:03:15Z</time>
      </trkpt>
      <trkpt lat="44.03785" lon="7.2919">
        <ele>724</ele>
        <time>2024-07-09T12:03:16Z</time>
      </trkpt>
      <trkpt lat="44.03787" lon="7.29189">
        <ele>724</ele>
        <time>2024-07-09T12:03:17Z</time>
      </trkpt>
      <trkpt lat="44.03789" lon="7.29187">
        <ele>724</ele>
        <time>2024-07-09T12:03:18Z</time>
      </trkpt>
      <trkpt lat="44.03791" lon="7.29186">
        <ele>724</ele>
        <time>2024-07-09T12:03:19Z</time>
      </trkpt>
      <trkpt lat="44.03793" lon="7.29184">
        <ele>724.4</ele>
        <time>2024-07-09T12:03:20Z</time>
      </trkpt>
      <trkpt lat="44.03795" lon="7.29183">
        <ele>724.4</ele>
        <time>2024-07-09T12:03:21Z</time>
      </trkpt>
      <trkpt lat="44.03797" lon="7.29182">
        <ele>724.4</ele>
        <time>2024-07-09T12:03:22Z</time>
      </trkpt>
      <trkpt lat="44.03799" lon="7.2918">
        <ele>724.4</ele>
        <time>2024-07-09T12:03:23Z</time>
      </trkpt>
      <trkpt lat="44.03801" lon="7.29179">
        <ele>724.6</ele>
        <time>2024-07-09T12:03:24Z</time>
      </trkpt>
      <trkpt lat="44.03804" lon="7.29177">
        <ele>725</ele>
        <time>2024-07-09T12:03:25Z</time>
      </trkpt>
      <trkpt lat="44.03805" lon="7.29176">
        <ele>725</ele>
        <time>2024-07-09T12:03:26Z</time>
      </trkpt>
      <trkpt lat="44.03807" lon="7.29175">
        <ele>725</ele>
        <time>2024-07-09T12:03:27Z</time>
      </trkpt>
      <trkpt lat="44.03809" lon="7.29173">
        <ele>725</ele>
        <time>2024-07-09T12:03:28Z</time>
      </trkpt>
      <trkpt lat="44.03811" lon="7.29171">
        <ele>725</ele>
        <time>2024-07-09T12:03:29Z</time>
      </trkpt>
      <trkpt lat="44.03813" lon="7.29169">
        <ele>725</ele>
        <time>2024-07-09T12:03:30Z</time>
      </trkpt>
      <trkpt lat="44.03815" lon="7.29167">
        <ele>725.2</ele>
        <time>2024-07-09T12:03:31Z</time>
      </trkpt>
      <trkpt lat="44.03817" lon="7.29164">
        <ele>725.2</ele>
        <time>2024-07-09T12:03:32Z</time>
      </trkpt>
      <trkpt lat="44.03819" lon="7.29162">
        <ele>725.2</ele>
        <time>2024-07-09T12:03:33Z</time>
      </trkpt>
      <trkpt lat="44.03821" lon="7.2916">
        <ele>725.6</ele>
        <time>2024-07-09T12:03:34Z</time>
      </trkpt>
      <trkpt lat="44.03822" lon="7.29158">
        <ele>725.6</ele>
        <time>2024-07-09T12:03:35Z</time>
      </trkpt>
      <trkpt lat="44.03824" lon="7.29156">
        <ele>725.6</ele>
        <time>2024-07-09T12:03:36Z</time>
      </trkpt>
      <trkpt lat="44.03827" lon="7.29154">
        <ele>725.6</ele>
        <time>2024-07-09T12:03:37Z</time>
      </trkpt>
      <trkpt lat="44.03829" lon="7.29153">
        <ele>725.6</ele>
        <time>2024-07-09T12:03:38Z</time>
      </trkpt>
      <trkpt lat="44.03831" lon="7.29151">
        <ele>725.8</ele>
        <time>2024-07-09T12:03:39Z</time>
      </trkpt>
      <trkpt lat="44.03833" lon="7.29149">
        <ele>725.8</ele>
        <time>2024-07-09T12:03:40Z</time>
      </trkpt>
      <trkpt lat="44.03835" lon="7.29148">
        <ele>725.8</ele>
        <time>2024-07-09T12:03:41Z</time>
      </trkpt>
      <trkpt lat="44.03837" lon="7.29146">
        <ele>726.4</ele>
        <time>2024-07-09T12:03:42Z</time>
      </trkpt>
      <trkpt lat="44.03839" lon="7.29144">
        <ele>726.4</ele>
        <time>2024-07-09T12:03:43Z</time>
      </trkpt>
      <trkpt lat="44.03841" lon="7.29143">
        <ele>726.8</ele>
        <time>2024-07-09T12:03:44Z</time>
      </trkpt>
      <trkpt lat="44.03843" lon="7.29141">
        <ele>726.8</ele>
        <time>2024-07-09T12:03:45Z</time>
      </trkpt>
      <trkpt lat="44.03845" lon="7.29139">
        <ele>726.8</ele>
        <time>2024-07-09T12:03:46Z</time>
      </trkpt>
      <trkpt lat="44.03847" lon="7.29138">
        <ele>727.4</ele>
        <time>2024-07-09T12:03:47Z</time>
      </trkpt>
      <trkpt lat="44.03849" lon="7.29136">
        <ele>727.6</ele>
        <time>2024-07-09T12:03:48Z</time>
      </trkpt>
      <trkpt lat="44.03851" lon="7.29135">
        <ele>727.6</ele>
        <time>2024-07-09T12:03:49Z</time>
      </trkpt>
      <trkpt lat="44.03853" lon="7.29134">
        <ele>727.6</ele>
        <time>2024-07-09T12:03:50Z</time>
      </trkpt>
      <trkpt lat="44.03855" lon="7.29132">
        <ele>727.8</ele>
        <time>2024-07-09T12:03:51Z</time>
      </trkpt>
      <trkpt lat="44.03857" lon="7.2913">
        <ele>728</ele>
        <time>2024-07-09T12:03:52Z</time>
      </trkpt>
      <trkpt lat="44.03859" lon="7.29129">
        <ele>728</ele>
        <time>2024-07-09T12:03:53Z</time>
      </trkpt>
      <trkpt lat="44.03861" lon="7.29128">
        <ele>728</ele>
        <time>2024-07-09T12:03:54Z</time>
      </trkpt>
      <trkpt lat="44.03864" lon="7.29128">
        <ele>728</ele>
        <time>2024-07-09T12:03:55Z</time>
      </trkpt>
      <trkpt lat="44.03866" lon="7.29127">
        <ele>728.6</ele>
        <time>2024-07-09T12:03:56Z</time>
      </trkpt>
      <trkpt lat="44.03869" lon="7.29127">
        <ele>728.6</ele>
        <time>2024-07-09T12:03:57Z</time>
      </trkpt>
      <trkpt lat="44.03871" lon="7.29126">
        <ele>728.6</ele>
        <time>2024-07-09T12:03:58Z</time>
      </trkpt>
      <trkpt lat="44.03873" lon="7.29125">
        <ele>728.6</ele>
        <time>2024-07-09T12:03:59Z</time>
      </trkpt>
      <trkpt lat="44.03875" lon="7.29124">
        <ele>729.2</ele>
        <time>2024-07-09T12:04:00Z</time>
      </trkpt>
      <trkpt lat="44.03878" lon="7.29124">
        <ele>729.4</ele>
        <time>2024-07-09T12:04:01Z</time>
      </trkpt>
      <trkpt lat="44.0388" lon="7.29123">
        <ele>729.4</ele>
        <time>2024-07-09T12:04:02Z</time>
      </trkpt>
      <trkpt lat="44.03882" lon="7.29122">
        <ele>729.4</ele>
        <time>2024-07-09T12:04:03Z</time>
      </trkpt>
      <trkpt lat="44.03885" lon="7.2912">
        <ele>729.8</ele>
        <time>2024-07-09T12:04:04Z</time>
      </trkpt>
      <trkpt lat="44.03887" lon="7.29119">
        <ele>730</ele>
        <time>2024-07-09T12:04:05Z</time>
      </trkpt>
      <trkpt lat="44.03889" lon="7.29118">
        <ele>730</ele>
        <time>2024-07-09T12:04:06Z</time>
      </trkpt>
      <trkpt lat="44.03892" lon="7.29117">
        <ele>730</ele>
        <time>2024-07-09T12:04:07Z</time>
      </trkpt>
      <trkpt lat="44.03894" lon="7.29115">
        <ele>730</ele>
        <time>2024-07-09T12:04:08Z</time>
      </trkpt>
      <trkpt lat="44.03896" lon="7.29113">
        <ele>730</ele>
        <time>2024-07-09T12:04:09Z</time>
      </trkpt>
      <trkpt lat="44.03899" lon="7.29111">
        <ele>730.2</ele>
        <time>2024-07-09T12:04:10Z</time>
      </trkpt>
      <trkpt lat="44.03901" lon="7.29109">
        <ele>730.2</ele>
        <time>2024-07-09T12:04:11Z</time>
      </trkpt>
      <trkpt lat="44.03903" lon="7.29107">
        <ele>730.2</ele>
        <time>2024-07-09T12:04:12Z</time>
      </trkpt>
      <trkpt lat="44.03905" lon="7.29105">
        <ele>730.2</ele>
        <time>2024-07-09T12:04:13Z</time>
      </trkpt>
      <trkpt lat="44.03908" lon="7.29102">
        <ele>730.6</ele>
        <time>2024-07-09T12:04:14Z</time>
      </trkpt>
      <trkpt lat="44.0391" lon="7.291">
        <ele>730.6</ele>
        <time>2024-07-09T12:04:15Z</time>
      </trkpt>
      <trkpt lat="44.03912" lon="7.29098">
        <ele>730.6</ele>
        <time>2024-07-09T12:04:16Z</time>
      </trkpt>
      <trkpt lat="44.03915" lon="7.29096">
        <ele>730.6</ele>
        <time>2024-07-09T12:04:17Z</time>
      </trkpt>
      <trkpt lat="44.03917" lon="7.29095">
        <ele>731.4</ele>
        <time>2024-07-09T12:04:18Z</time>
      </trkpt>
      <trkpt lat="44.03919" lon="7.29093">
        <ele>731.4</ele>
        <time>2024-07-09T12:04:19Z</time>
      </trkpt>
      <trkpt lat="44.03922" lon="7.29091">
        <ele>731.4</ele>
        <time>2024-07-09T12:04:20Z</time>
      </trkpt>
      <trkpt lat="44.03924" lon="7.2909">
        <ele>731.4</ele>
        <time>2024-07-09T12:04:21Z</time>
      </trkpt>
      <trkpt lat="44.03926" lon="7.29089">
        <ele>731.4</ele>
        <time>2024-07-09T12:04:22Z</time>
      </trkpt>
      <trkpt lat="44.03928" lon="7.29088">
        <ele>731.8</ele>
        <time>2024-07-09T12:04:23Z</time>
      </trkpt>
      <trkpt lat="44.0393" lon="7.29087">
        <ele>732</ele>
        <time>2024-07-09T12:04:24Z</time>
      </trkpt>
      <trkpt lat="44.03932" lon="7.29086">
        <ele>732</ele>
        <time>2024-07-09T12:04:25Z</time>
      </trkpt>
      <trkpt lat="44.03934" lon="7.29086">
        <ele>732</ele>
        <time>2024-07-09T12:04:26Z</time>
      </trkpt>
      <trkpt lat="44.03936" lon="7.29085">
        <ele>732.4</ele>
        <time>2024-07-09T12:04:27Z</time>
      </trkpt>
      <trkpt lat="44.03938" lon="7.29084">
        <ele>732.4</ele>
        <time>2024-07-09T12:04:28Z</time>
      </trkpt>
      <trkpt lat="44.0394" lon="7.29083">
        <ele>732.4</ele>
        <time>2024-07-09T12:04:29Z</time>
      </trkpt>
      <trkpt lat="44.03942" lon="7.29083">
        <ele>732.4</ele>
        <time>2024-07-09T12:04:30Z</time>
      </trkpt>
      <trkpt lat="44.03944" lon="7.29082">
        <ele>732.8</ele>
        <time>2024-07-09T12:04:31Z</time>
      </trkpt>
      <trkpt lat="44.03946" lon="7.29081">
        <ele>733</ele>
        <time>2024-07-09T12:04:32Z</time>
      </trkpt>
      <trkpt lat="44.03948" lon="7.2908">
        <ele>733</ele>
        <time>2024-07-09T12:04:33Z</time>
      </trkpt>
      <trkpt lat="44.0395" lon="7.29079">
        <ele>733</ele>
        <time>2024-07-09T12:04:34Z</time>
      </trkpt>
      <trkpt lat="44.03951" lon="7.29078">
        <ele>733.4</ele>
        <time>2024-07-09T12:04:35Z</time>
      </trkpt>
      <trkpt lat="44.03953" lon="7.29077">
        <ele>733.4</ele>
        <time>2024-07-09T12:04:36Z</time>
      </trkpt>
      <trkpt lat="44.03955" lon="7.29077">
        <ele>733.4</ele>
        <time>2024-07-09T12:04:37Z</time>
      </trkpt>
      <trkpt lat="44.03957" lon="7.29076">
        <ele>733.4</ele>
        <time>2024-07-09T12:04:38Z</time>
      </trkpt>
      <trkpt lat="44.03959" lon="7.29075">
        <ele>733.4</ele>
        <time>2024-07-09T12:04:39Z</time>
      </trkpt>
      <trkpt lat="44.03961" lon="7.29074">
        <ele>734</ele>
        <time>2024-07-09T12:04:40Z</time>
      </trkpt>
      <trkpt lat="44.03964" lon="7.29073">
        <ele>734.2</ele>
        <time>2024-07-09T12:04:41Z</time>
      </trkpt>
      <trkpt lat="44.03965" lon="7.29072">
        <ele>734.2</ele>
        <time>2024-07-09T12:04:42Z</time>
      </trkpt>
      <trkpt lat="44.03967" lon="7.29071">
        <ele>734.2</ele>
        <time>2024-07-09T12:04:43Z</time>
      </trkpt>
      <trkpt lat="44.03969" lon="7.29069">
        <ele>734.6</ele>
        <time>2024-07-09T12:04:44Z</time>
      </trkpt>
      <trkpt lat="44.03971" lon="7.29068">
        <ele>734.8</ele>
        <time>2024-07-09T12:04:45Z</time>
      </trkpt>
      <trkpt lat="44.03973" lon="7.29067">
        <ele>734.8</ele>
        <time>2024-07-09T12:04:46Z</time>
      </trkpt>
      <trkpt lat="44.03975" lon="7.29065">
        <ele>734.8</ele>
        <time>2024-07-09T12:04:47Z</time>
      </trkpt>
      <trkpt lat="44.03977" lon="7.29064">
        <ele>735.2</ele>
        <time>2024-07-09T12:04:48Z</time>
      </trkpt>
      <trkpt lat="44.03979" lon="7.29063">
        <ele>735.4</ele>
        <time>2024-07-09T12:04:49Z</time>
      </trkpt>
      <trkpt lat="44.03981" lon="7.29062">
        <ele>735.4</ele>
        <time>2024-07-09T12:04:50Z</time>
      </trkpt>
      <trkpt lat="44.03982" lon="7.2906">
        <ele>735.4</ele>
        <time>2024-07-09T12:04:51Z</time>
      </trkpt>
      <trkpt lat="44.03984" lon="7.29058">
        <ele>735.4</ele>
        <time>2024-07-09T12:04:52Z</time>
      </trkpt>
      <trkpt lat="44.03986" lon="7.29056">
        <ele>736</ele>
        <time>2024-07-09T12:04:53Z</time>
      </trkpt>
      <trkpt lat="44.03987" lon="7.29055">
        <ele>736.2</ele>
        <time>2024-07-09T12:04:54Z</time>
      </trkpt>
      <trkpt lat="44.03989" lon="7.29053">
        <ele>736.2</ele>
        <time>2024-07-09T12:04:55Z</time>
      </trkpt>
      <trkpt lat="44.0399" lon="7.29051">
        <ele>736.2</ele>
        <time>2024-07-09T12:04:56Z</time>
      </trkpt>
      <trkpt lat="44.03991" lon="7.2905">
        <ele>736.2</ele>
        <time>2024-07-09T12:04:57Z</time>
      </trkpt>
      <trkpt lat="44.03993" lon="7.29048">
        <ele>736.8</ele>
        <time>2024-07-09T12:04:58Z</time>
      </trkpt>
      <trkpt lat="44.03994" lon="7.29046">
        <ele>737</ele>
        <time>2024-07-09T12:04:59Z</time>
      </trkpt>
      <trkpt lat="44.03995" lon="7.29044">
        <ele>737</ele>
        <time>2024-07-09T12:05:00Z</time>
      </trkpt>
      <trkpt lat="44.03997" lon="7.29043">
        <ele>737</ele>
        <time>2024-07-09T12:05:01Z</time>
      </trkpt>
      <trkpt lat="44.03998" lon="7.29041">
        <ele>737.8</ele>
        <time>2024-07-09T12:05:02Z</time>
      </trkpt>
      <trkpt lat="44.04" lon="7.29039">
        <ele>737.8</ele>
        <time>2024-07-09T12:05:03Z</time>
      </trkpt>
      <trkpt lat="44.04001" lon="7.29038">
        <ele>737.8</ele>
        <time>2024-07-09T12:05:04Z</time>
      </trkpt>
      <trkpt lat="44.04003" lon="7.29036">
        <ele>737.8</ele>
        <time>2024-07-09T12:05:05Z</time>
      </trkpt>
      <trkpt lat="44.04004" lon="7.29034">
        <ele>738.2</ele>
        <time>2024-07-09T12:05:06Z</time>
      </trkpt>
      <trkpt lat="44.04006" lon="7.29032">
        <ele>738.4</ele>
        <time>2024-07-09T12:05:07Z</time>
      </trkpt>
      <trkpt lat="44.04007" lon="7.29031">
        <ele>738.4</ele>
        <time>2024-07-09T12:05:08Z</time>
      </trkpt>
      <trkpt lat="44.04008" lon="7.29029">
        <ele>738.4</ele>
        <time>2024-07-09T12:05:09Z</time>
      </trkpt>
      <trkpt lat="44.0401" lon="7.29027">
        <ele>738.4</ele>
        <time>2024-07-09T12:05:10Z</time>
      </trkpt>
      <trkpt lat="44.04011" lon="7.29024">
        <ele>739</ele>
        <time>2024-07-09T12:05:11Z</time>
      </trkpt>
      <trkpt lat="44.04012" lon="7.29022">
        <ele>739.2</ele>
        <time>2024-07-09T12:05:12Z</time>
      </trkpt>
      <trkpt lat="44.04013" lon="7.29019">
        <ele>739.2</ele>
        <time>2024-07-09T12:05:13Z</time>
      </trkpt>
      <trkpt lat="44.04014" lon="7.29017">
        <ele>739.2</ele>
        <time>2024-07-09T12:05:14Z</time>
      </trkpt>
      <trkpt lat="44.04015" lon="7.29014">
        <ele>739.6</ele>
        <time>2024-07-09T12:05:15Z</time>
      </trkpt>
      <trkpt lat="44.04016" lon="7.29011">
        <ele>739.8</ele>
        <time>2024-07-09T12:05:16Z</time>
      </trkpt>
      <trkpt lat="44.04017" lon="7.29009">
        <ele>739.8</ele>
        <time>2024-07-09T12:05:17Z</time>
      </trkpt>
      <trkpt lat="44.04018" lon="7.29006">
        <ele>739.8</ele>
        <time>2024-07-09T12:05:18Z</time>
      </trkpt>
      <trkpt lat="44.04019" lon="7.29004">
        <ele>740.2</ele>
        <time>2024-07-09T12:05:19Z</time>
      </trkpt>
      <trkpt lat="44.04021" lon="7.29002">
        <ele>740.4</ele>
        <time>2024-07-09T12:05:20Z</time>
      </trkpt>
      <trkpt lat="44.04022" lon="7.29">
        <ele>740.4</ele>
        <time>2024-07-09T12:05:21Z</time>
      </trkpt>
      <trkpt lat="44.04024" lon="7.28997">
        <ele>740.4</ele>
        <time>2024-07-09T12:05:22Z</time>
      </trkpt>
      <trkpt lat="44.04025" lon="7.28995">
        <ele>740.6</ele>
        <time>2024-07-09T12:05:23Z</time>
      </trkpt>
      <trkpt lat="44.04026" lon="7.28992">
        <ele>740.8</ele>
        <time>2024-07-09T12:05:24Z</time>
      </trkpt>
      <trkpt lat="44.04027" lon="7.2899">
        <ele>740.8</ele>
        <time>2024-07-09T12:05:25Z</time>
      </trkpt>
      <trkpt lat="44.04029" lon="7.28987">
        <ele>740.8</ele>
        <time>2024-07-09T12:05:26Z</time>
      </trkpt>
      <trkpt lat="44.0403" lon="7.28985">
        <ele>740.8</ele>
        <time>2024-07-09T12:05:27Z</time>
      </trkpt>
      <trkpt lat="44.04031" lon="7.28983">
        <ele>741.2</ele>
        <time>2024-07-09T12:05:28Z</time>
      </trkpt>
      <trkpt lat="44.04033" lon="7.2898">
        <ele>741.2</ele>
        <time>2024-07-09T12:05:29Z</time>
      </trkpt>
      <trkpt lat="44.04034" lon="7.28978">
        <ele>741.2</ele>
        <time>2024-07-09T12:05:30Z</time>
      </trkpt>
      <trkpt lat="44.04035" lon="7.28976">
        <ele>741.2</ele>
        <time>2024-07-09T12:05:31Z</time>
      </trkpt>
      <trkpt lat="44.04036" lon="7.28974">
        <ele>741.8</ele>
        <time>2024-07-09T12:05:32Z</time>
      </trkpt>
      <trkpt lat="44.04037" lon="7.28972">
        <ele>742</ele>
        <time>2024-07-09T12:05:33Z</time>
      </trkpt>
      <trkpt lat="44.04038" lon="7.28969">
        <ele>742</ele>
        <time>2024-07-09T12:05:34Z</time>
      </trkpt>
      <trkpt lat="44.04039" lon="7.28967">
        <ele>742</ele>
        <time>2024-07-09T12:05:35Z</time>
      </trkpt>
      <trkpt lat="44.0404" lon="7.28964">
        <ele>742.2</ele>
        <time>2024-07-09T12:05:36Z</time>
      </trkpt>
      <trkpt lat="44.04042" lon="7.28961">
        <ele>742.4</ele>
        <time>2024-07-09T12:05:37Z</time>
      </trkpt>
      <trkpt lat="44.04043" lon="7.28958">
        <ele>742.4</ele>
        <time>2024-07-09T12:05:38Z</time>
      </trkpt>
      <trkpt lat="44.04045" lon="7.28956">
        <ele>742.4</ele>
        <time>2024-07-09T12:05:39Z</time>
      </trkpt>
      <trkpt lat="44.04048" lon="7.28953">
        <ele>742.4</ele>
        <time>2024-07-09T12:05:40Z</time>
      </trkpt>
      <trkpt lat="44.0405" lon="7.28951">
        <ele>742.6</ele>
        <time>2024-07-09T12:05:41Z</time>
      </trkpt>
      <trkpt lat="44.04052" lon="7.28949">
        <ele>742.6</ele>
        <time>2024-07-09T12:05:42Z</time>
      </trkpt>
      <trkpt lat="44.04054" lon="7.28947">
        <ele>742.8</ele>
        <time>2024-07-09T12:05:43Z</time>
      </trkpt>
      <trkpt lat="44.04056" lon="7.28945">
        <ele>742.8</ele>
        <time>2024-07-09T12:05:44Z</time>
      </trkpt>
      <trkpt lat="44.04058" lon="7.28942">
        <ele>742.8</ele>
        <time>2024-07-09T12:05:45Z</time>
      </trkpt>
      <trkpt lat="44.0406" lon="7.28941">
        <ele>742.8</ele>
        <time>2024-07-09T12:05:46Z</time>
      </trkpt>
      <trkpt lat="44.04063" lon="7.28939">
        <ele>743</ele>
        <time>2024-07-09T12:05:47Z</time>
      </trkpt>
      <trkpt lat="44.04065" lon="7.28937">
        <ele>743</ele>
        <time>2024-07-09T12:05:48Z</time>
      </trkpt>
      <trkpt lat="44.04067" lon="7.28935">
        <ele>743</ele>
        <time>2024-07-09T12:05:49Z</time>
      </trkpt>
      <trkpt lat="44.04069" lon="7.28934">
        <ele>743</ele>
        <time>2024-07-09T12:05:50Z</time>
      </trkpt>
      <trkpt lat="44.04072" lon="7.28932">
        <ele>743.2</ele>
        <time>2024-07-09T12:05:51Z</time>
      </trkpt>
      <trkpt lat="44.04074" lon="7.28931">
        <ele>743.2</ele>
        <time>2024-07-09T12:05:52Z</time>
      </trkpt>
      <trkpt lat="44.04076" lon="7.28929">
        <ele>743.2</ele>
        <time>2024-07-09T12:05:53Z</time>
      </trkpt>
      <trkpt lat="44.04078" lon="7.28927">
        <ele>743.6</ele>
        <time>2024-07-09T12:05:54Z</time>
      </trkpt>
      <trkpt lat="44.0408" lon="7.28926">
        <ele>743.8</ele>
        <time>2024-07-09T12:05:55Z</time>
      </trkpt>
      <trkpt lat="44.04082" lon="7.28924">
        <ele>743.8</ele>
        <time>2024-07-09T12:05:56Z</time>
      </trkpt>
      <trkpt lat="44.04084" lon="7.28924">
        <ele>743.8</ele>
        <time>2024-07-09T12:05:57Z</time>
      </trkpt>
      <trkpt lat="44.04086" lon="7.28923">
        <ele>743.8</ele>
        <time>2024-07-09T12:05:58Z</time>
      </trkpt>
      <trkpt lat="44.04089" lon="7.28922">
        <ele>744.4</ele>
        <time>2024-07-09T12:05:59Z</time>
      </trkpt>
      <trkpt lat="44.04091" lon="7.28921">
        <ele>744.4</ele>
        <time>2024-07-09T12:06:00Z</time>
      </trkpt>
      <trkpt lat="44.04093" lon="7.2892">
        <ele>744.4</ele>
        <time>2024-07-09T12:06:01Z</time>
      </trkpt>
      <trkpt lat="44.04096" lon="7.28918">
        <ele>744.4</ele>
        <time>2024-07-09T12:06:02Z</time>
      </trkpt>
      <trkpt lat="44.04098" lon="7.28917">
        <ele>744.8</ele>
        <time>2024-07-09T12:06:03Z</time>
      </trkpt>
      <trkpt lat="44.04101" lon="7.28916">
        <ele>745</ele>
        <time>2024-07-09T12:06:04Z</time>
      </trkpt>
      <trkpt lat="44.04103" lon="7.28915">
        <ele>745</ele>
        <time>2024-07-09T12:06:05Z</time>
      </trkpt>
      <trkpt lat="44.04105" lon="7.28914">
        <ele>745</ele>
        <time>2024-07-09T12:06:06Z</time>
      </trkpt>
      <trkpt lat="44.04108" lon="7.28913">
        <ele>745.4</ele>
        <time>2024-07-09T12:06:07Z</time>
      </trkpt>
      <trkpt lat="44.0411" lon="7.28912">
        <ele>745.4</ele>
        <time>2024-07-09T12:06:08Z</time>
      </trkpt>
      <trkpt lat="44.04112" lon="7.2891">
        <ele>745.4</ele>
        <time>2024-07-09T12:06:09Z</time>
      </trkpt>
      <trkpt lat="44.04114" lon="7.28909">
        <ele>745.4</ele>
        <time>2024-07-09T12:06:10Z</time>
      </trkpt>
      <trkpt lat="44.04116" lon="7.28907">
        <ele>745.4</ele>
        <time>2024-07-09T12:06:11Z</time>
      </trkpt>
      <trkpt lat="44.04118" lon="7.28906">
        <ele>745.8</ele>
        <time>2024-07-09T12:06:12Z</time>
      </trkpt>
      <trkpt lat="44.0412" lon="7.28904">
        <ele>746</ele>
        <time>2024-07-09T12:06:13Z</time>
      </trkpt>
      <trkpt lat="44.04122" lon="7.28903">
        <ele>746</ele>
        <time>2024-07-09T12:06:14Z</time>
      </trkpt>
      <trkpt lat="44.04124" lon="7.28902">
        <ele>746</ele>
        <time>2024-07-09T12:06:15Z</time>
      </trkpt>
      <trkpt lat="44.04126" lon="7.289">
        <ele>746.4</ele>
        <time>2024-07-09T12:06:16Z</time>
      </trkpt>
      <trkpt lat="44.04129" lon="7.28899">
        <ele>746.6</ele>
        <time>2024-07-09T12:06:17Z</time>
      </trkpt>
      <trkpt lat="44.04131" lon="7.28898">
        <ele>746.6</ele>
        <time>2024-07-09T12:06:18Z</time>
      </trkpt>
      <trkpt lat="44.04133" lon="7.28896">
        <ele>746.6</ele>
        <time>2024-07-09T12:06:19Z</time>
      </trkpt>
      <trkpt lat="44.04135" lon="7.28894">
        <ele>747</ele>
        <time>2024-07-09T12:06:20Z</time>
      </trkpt>
      <trkpt lat="44.04137" lon="7.28893">
        <ele>747.2</ele>
        <time>2024-07-09T12:06:21Z</time>
      </trkpt>
      <trkpt lat="44.0414" lon="7.28892">
        <ele>747.2</ele>
        <time>2024-07-09T12:06:22Z</time>
      </trkpt>
      <trkpt lat="44.04142" lon="7.28891">
        <ele>747.2</ele>
        <time>2024-07-09T12:06:23Z</time>
      </trkpt>
      <trkpt lat="44.04144" lon="7.2889">
        <ele>747.2</ele>
        <time>2024-07-09T12:06:24Z</time>
      </trkpt>
      <trkpt lat="44.04147" lon="7.28889">
        <ele>747.2</ele>
        <time>2024-07-09T12:06:25Z</time>
      </trkpt>
      <trkpt lat="44.04149" lon="7.28888">
        <ele>747.6</ele>
        <time>2024-07-09T12:06:26Z</time>
      </trkpt>
      <trkpt lat="44.04152" lon="7.28886">
        <ele>747.6</ele>
        <time>2024-07-09T12:06:27Z</time>
      </trkpt>
      <trkpt lat="44.04154" lon="7.28885">
        <ele>747.6</ele>
        <time>2024-07-09T12:06:28Z</time>
      </trkpt>
      <trkpt lat="44.04155" lon="7.28884">
        <ele>747.6</ele>
        <time>2024-07-09T12:06:29Z</time>
      </trkpt>
      <trkpt lat="44.04157" lon="7.28882">
        <ele>748.2</ele>
        <time>2024-07-09T12:06:30Z</time>
      </trkpt>
      <trkpt lat="44.04159" lon="7.28881">
        <ele>748.2</ele>
        <time>2024-07-09T12:06:31Z</time>
      </trkpt>
      <trkpt lat="44.04162" lon="7.2888">
        <ele>748.2</ele>
        <time>2024-07-09T12:06:32Z</time>
      </trkpt>
      <trkpt lat="44.04164" lon="7.28878">
        <ele>748.2</ele>
        <time>2024-07-09T12:06:33Z</time>
      </trkpt>
      <trkpt lat="44.04166" lon="7.28877">
        <ele>748.8</ele>
        <time>2024-07-09T12:06:34Z</time>
      </trkpt>
      <trkpt lat="44.04169" lon="7.28876">
        <ele>748.8</ele>
        <time>2024-07-09T12:06:35Z</time>
      </trkpt>
      <trkpt lat="44.04171" lon="7.28874">
        <ele>748.8</ele>
        <time>2024-07-09T12:06:36Z</time>
      </trkpt>
      <trkpt lat="44.04173" lon="7.28873">
        <ele>748.8</ele>
        <time>2024-07-09T12:06:37Z</time>
      </trkpt>
      <trkpt lat="44.04175" lon="7.28871">
        <ele>749</ele>
        <time>2024-07-09T12:06:38Z</time>
      </trkpt>
      <trkpt lat="44.04177" lon="7.2887">
        <ele>749</ele>
        <time>2024-07-09T12:06:39Z</time>
      </trkpt>
      <trkpt lat="44.04179" lon="7.28868">
        <ele>749.2</ele>
        <time>2024-07-09T12:06:40Z</time>
      </trkpt>
      <trkpt lat="44.04181" lon="7.28867">
        <ele>749.2</ele>
        <time>2024-07-09T12:06:41Z</time>
      </trkpt>
      <trkpt lat="44.04184" lon="7.28866">
        <ele>749.2</ele>
        <time>2024-07-09T12:06:42Z</time>
      </trkpt>
      <trkpt lat="44.04186" lon="7.28865">
        <ele>749.6</ele>
        <time>2024-07-09T12:06:43Z</time>
      </trkpt>
      <trkpt lat="44.04189" lon="7.28864">
        <ele>749.8</ele>
        <time>2024-07-09T12:06:44Z</time>
      </trkpt>
      <trkpt lat="44.04191" lon="7.28863">
        <ele>749.8</ele>
        <time>2024-07-09T12:06:45Z</time>
      </trkpt>
      <trkpt lat="44.04193" lon="7.28862">
        <ele>749.8</ele>
        <time>2024-07-09T12:06:46Z</time>
      </trkpt>
      <trkpt lat="44.04195" lon="7.28861">
        <ele>749.8</ele>
        <time>2024-07-09T12:06:47Z</time>
      </trkpt>
      <trkpt lat="44.04197" lon="7.2886">
        <ele>750.4</ele>
        <time>2024-07-09T12:06:48Z</time>
      </trkpt>
      <trkpt lat="44.04199" lon="7.28859">
        <ele>750.4</ele>
        <time>2024-07-09T12:06:49Z</time>
      </trkpt>
      <trkpt lat="44.04201" lon="7.28858">
        <ele>750.4</ele>
        <time>2024-07-09T12:06:50Z</time>
      </trkpt>
      <trkpt lat="44.04203" lon="7.28857">
        <ele>750.6</ele>
        <time>2024-07-09T12:06:51Z</time>
      </trkpt>
      <trkpt lat="44.04205" lon="7.28857">
        <ele>751</ele>
        <time>2024-07-09T12:06:52Z</time>
      </trkpt>
      <trkpt lat="44.04207" lon="7.28857">
        <ele>751</ele>
        <time>2024-07-09T12:06:53Z</time>
      </trkpt>
      <trkpt lat="44.04208" lon="7.28856">
        <ele>751</ele>
        <time>2024-07-09T12:06:54Z</time>
      </trkpt>
      <trkpt lat="44.04209" lon="7.28855">
        <ele>751</ele>
        <time>2024-07-09T12:06:55Z</time>
      </trkpt>
      <trkpt lat="44.04211" lon="7.28856">
        <ele>751.8</ele>
        <time>2024-07-09T12:06:56Z</time>
      </trkpt>
      <trkpt lat="44.04213" lon="7.28856">
        <ele>752</ele>
        <time>2024-07-09T12:06:57Z</time>
      </trkpt>
      <trkpt lat="44.04215" lon="7.28856">
        <ele>752</ele>
        <time>2024-07-09T12:06:58Z</time>
      </trkpt>
      <trkpt lat="44.04217" lon="7.28857">
        <ele>752</ele>
        <time>2024-07-09T12:06:59Z</time>
      </trkpt>
      <trkpt lat="44.04219" lon="7.28858">
        <ele>752.8</ele>
        <time>2024-07-09T12:07:00Z</time>
      </trkpt>
      <trkpt lat="44.0422" lon="7.28859">
        <ele>753</ele>
        <time>2024-07-09T12:07:01Z</time>
      </trkpt>
      <trkpt lat="44.04222" lon="7.28859">
        <ele>753</ele>
        <time>2024-07-09T12:07:02Z</time>
      </trkpt>
      <trkpt lat="44.04224" lon="7.28861">
        <ele>753</ele>
        <time>2024-07-09T12:07:03Z</time>
      </trkpt>
      <trkpt lat="44.04226" lon="7.28862">
        <ele>753.8</ele>
        <time>2024-07-09T12:07:04Z</time>
      </trkpt>
      <trkpt lat="44.04228" lon="7.28863">
        <ele>753.8</ele>
        <time>2024-07-09T12:07:05Z</time>
      </trkpt>
      <trkpt lat="44.04229" lon="7.28864">
        <ele>753.8</ele>
        <time>2024-07-09T12:07:06Z</time>
      </trkpt>
      <trkpt lat="44.0423" lon="7.28865">
        <ele>754</ele>
        <time>2024-07-09T12:07:07Z</time>
      </trkpt>
      <trkpt lat="44.04232" lon="7.28866">
        <ele>754</ele>
        <time>2024-07-09T12:07:08Z</time>
      </trkpt>
      <trkpt lat="44.04234" lon="7.28868">
        <ele>754</ele>
        <time>2024-07-09T12:07:09Z</time>
      </trkpt>
      <trkpt lat="44.04235" lon="7.28869">
        <ele>754.8</ele>
        <time>2024-07-09T12:07:10Z</time>
      </trkpt>
      <trkpt lat="44.04237" lon="7.28871">
        <ele>755</ele>
        <time>2024-07-09T12:07:11Z</time>
      </trkpt>
      <trkpt lat="44.04239" lon="7.28873">
        <ele>755</ele>
        <time>2024-07-09T12:07:12Z</time>
      </trkpt>
      <trkpt lat="44.04241" lon="7.28874">
        <ele>755</ele>
        <time>2024-07-09T12:07:13Z</time>
      </trkpt>
      <trkpt lat="44.04242" lon="7.28875">
        <ele>755.4</ele>
        <time>2024-07-09T12:07:14Z</time>
      </trkpt>
      <trkpt lat="44.04244" lon="7.28876">
        <ele>755.4</ele>
        <time>2024-07-09T12:07:15Z</time>
      </trkpt>
      <trkpt lat="44.04246" lon="7.28877">
        <ele>755.4</ele>
        <time>2024-07-09T12:07:16Z</time>
      </trkpt>
      <trkpt lat="44.04249" lon="7.28878">
        <ele>755.4</ele>
        <time>2024-07-09T12:07:17Z</time>
      </trkpt>
      <trkpt lat="44.04251" lon="7.28879">
        <ele>756</ele>
        <time>2024-07-09T12:07:18Z</time>
      </trkpt>
      <trkpt lat="44.04254" lon="7.28879">
        <ele>756.4</ele>
        <time>2024-07-09T12:07:19Z</time>
      </trkpt>
      <trkpt lat="44.04255" lon="7.2888">
        <ele>756.4</ele>
        <time>2024-07-09T12:07:20Z</time>
      </trkpt>
      <trkpt lat="44.04258" lon="7.2888">
        <ele>756.4</ele>
        <time>2024-07-09T12:07:21Z</time>
      </trkpt>
      <trkpt lat="44.0426" lon="7.2888">
        <ele>756.4</ele>
        <time>2024-07-09T12:07:22Z</time>
      </trkpt>
      <trkpt lat="44.04262" lon="7.2888">
        <ele>756.4</ele>
        <time>2024-07-09T12:07:23Z</time>
      </trkpt>
      <trkpt lat="44.04264" lon="7.28879">
        <ele>756.2</ele>
        <time>2024-07-09T12:07:24Z</time>
      </trkpt>
      <trkpt lat="44.04267" lon="7.28877">
        <ele>756.2</ele>
        <time>2024-07-09T12:07:25Z</time>
      </trkpt>
      <trkpt lat="44.04269" lon="7.28876">
        <ele>756.2</ele>
        <time>2024-07-09T12:07:26Z</time>
      </trkpt>
      <trkpt lat="44.04271" lon="7.28875">
        <ele>756.2</ele>
        <time>2024-07-09T12:07:27Z</time>
      </trkpt>
      <trkpt lat="44.04273" lon="7.28874">
        <ele>756.2</ele>
        <time>2024-07-09T12:07:28Z</time>
      </trkpt>
      <trkpt lat="44.04275" lon="7.28872">
        <ele>756.2</ele>
        <time>2024-07-09T12:07:29Z</time>
      </trkpt>
      <trkpt lat="44.04277" lon="7.28871">
        <ele>756.2</ele>
        <time>2024-07-09T12:07:30Z</time>
      </trkpt>
      <trkpt lat="44.04279" lon="7.28869">
        <ele>756.8</ele>
        <time>2024-07-09T12:07:31Z</time>
      </trkpt>
      <trkpt lat="44.0428" lon="7.28867">
        <ele>756.8</ele>
        <time>2024-07-09T12:07:32Z</time>
      </trkpt>
      <trkpt lat="44.04281" lon="7.28866">
        <ele>756.8</ele>
        <time>2024-07-09T12:07:33Z</time>
      </trkpt>
      <trkpt lat="44.04283" lon="7.28863">
        <ele>756.8</ele>
        <time>2024-07-09T12:07:34Z</time>
      </trkpt>
      <trkpt lat="44.04284" lon="7.28861">
        <ele>756.8</ele>
        <time>2024-07-09T12:07:35Z</time>
      </trkpt>
      <trkpt lat="44.04286" lon="7.28859">
        <ele>757.4</ele>
        <time>2024-07-09T12:07:36Z</time>
      </trkpt>
      <trkpt lat="44.04287" lon="7.28856">
        <ele>757.6</ele>
        <time>2024-07-09T12:07:37Z</time>
      </trkpt>
      <trkpt lat="44.04287" lon="7.28854">
        <ele>757.6</ele>
        <time>2024-07-09T12:07:38Z</time>
      </trkpt>
      <trkpt lat="44.04288" lon="7.28851">
        <ele>757.6</ele>
        <time>2024-07-09T12:07:39Z</time>
      </trkpt>
      <trkpt lat="44.0429" lon="7.28849">
        <ele>757.6</ele>
        <time>2024-07-09T12:07:40Z</time>
      </trkpt>
      <trkpt lat="44.0429" lon="7.28846">
        <ele>758</ele>
        <time>2024-07-09T12:07:41Z</time>
      </trkpt>
      <trkpt lat="44.0429" lon="7.28843">
        <ele>758</ele>
        <time>2024-07-09T12:07:42Z</time>
      </trkpt>
      <trkpt lat="44.04291" lon="7.2884">
        <ele>758</ele>
        <time>2024-07-09T12:07:43Z</time>
      </trkpt>
      <trkpt lat="44.04291" lon="7.28837">
        <ele>758.2</ele>
        <time>2024-07-09T12:07:44Z</time>
      </trkpt>
      <trkpt lat="44.04292" lon="7.28834">
        <ele>758.2</ele>
        <time>2024-07-09T12:07:45Z</time>
      </trkpt>
      <trkpt lat="44.04291" lon="7.28831">
        <ele>758.4</ele>
        <time>2024-07-09T12:07:46Z</time>
      </trkpt>
      <trkpt lat="44.04291" lon="7.28828">
        <ele>758.4</ele>
        <time>2024-07-09T12:07:47Z</time>
      </trkpt>
      <trkpt lat="44.04291" lon="7.28826">
        <ele>758.4</ele>
        <time>2024-07-09T12:07:48Z</time>
      </trkpt>
      <trkpt lat="44.04291" lon="7.28823">
        <ele>758.4</ele>
        <time>2024-07-09T12:07:49Z</time>
      </trkpt>
      <trkpt lat="44.04291" lon="7.2882">
        <ele>759</ele>
        <time>2024-07-09T12:07:50Z</time>
      </trkpt>
      <trkpt lat="44.04291" lon="7.28817">
        <ele>759</ele>
        <time>2024-07-09T12:07:51Z</time>
      </trkpt>
      <trkpt lat="44.04291" lon="7.28814">
        <ele>759</ele>
        <time>2024-07-09T12:07:52Z</time>
      </trkpt>
      <trkpt lat="44.0429" lon="7.28811">
        <ele>759</ele>
        <time>2024-07-09T12:07:53Z</time>
      </trkpt>
      <trkpt lat="44.04289" lon="7.28808">
        <ele>759.2</ele>
        <time>2024-07-09T12:07:54Z</time>
      </trkpt>
      <trkpt lat="44.04288" lon="7.28805">
        <ele>759.4</ele>
        <time>2024-07-09T12:07:55Z</time>
      </trkpt>
      <trkpt lat="44.04288" lon="7.28802">
        <ele>759.4</ele>
        <time>2024-07-09T12:07:56Z</time>
      </trkpt>
      <trkpt lat="44.04286" lon="7.28799">
        <ele>759.4</ele>
        <time>2024-07-09T12:07:57Z</time>
      </trkpt>
      <trkpt lat="44.04285" lon="7.28797">
        <ele>759.4</ele>
        <time>2024-07-09T12:07:58Z</time>
      </trkpt>
      <trkpt lat="44.04285" lon="7.28794">
        <ele>759.4</ele>
        <time>2024-07-09T12:07:59Z</time>
      </trkpt>
      <trkpt lat="44.04284" lon="7.28791">
        <ele>759.8</ele>
        <time>2024-07-09T12:08:00Z</time>
      </trkpt>
      <trkpt lat="44.04283" lon="7.28788">
        <ele>759.8</ele>
        <time>2024-07-09T12:08:01Z</time>
      </trkpt>
      <trkpt lat="44.04283" lon="7.28785">
        <ele>759.8</ele>
        <time>2024-07-09T12:08:02Z</time>
      </trkpt>
      <trkpt lat="44.04281" lon="7.28782">
        <ele>760</ele>
        <time>2024-07-09T12:08:03Z</time>
      </trkpt>
      <trkpt lat="44.0428" lon="7.28779">
        <ele>760</ele>
        <time>2024-07-09T12:08:04Z</time>
      </trkpt>
      <trkpt lat="44.0428" lon="7.28776">
        <ele>760</ele>
        <time>2024-07-09T12:08:05Z</time>
      </trkpt>
      <trkpt lat="44.0428" lon="7.28773">
        <ele>760</ele>
        <time>2024-07-09T12:08:06Z</time>
      </trkpt>
      <trkpt lat="44.04281" lon="7.2877">
        <ele>760.4</ele>
        <time>2024-07-09T12:08:07Z</time>
      </trkpt>
      <trkpt lat="44.04281" lon="7.28767">
        <ele>760.4</ele>
        <time>2024-07-09T12:08:08Z</time>
      </trkpt>
      <trkpt lat="44.04282" lon="7.28765">
        <ele>760.4</ele>
        <time>2024-07-09T12:08:09Z</time>
      </trkpt>
      <trkpt lat="44.04282" lon="7.28762">
        <ele>760.4</ele>
        <time>2024-07-09T12:08:10Z</time>
      </trkpt>
      <trkpt lat="44.04282" lon="7.28759">
        <ele>760.4</ele>
        <time>2024-07-09T12:08:11Z</time>
      </trkpt>
      <trkpt lat="44.04281" lon="7.28757">
        <ele>760.4</ele>
        <time>2024-07-09T12:08:12Z</time>
      </trkpt>
      <trkpt lat="44.04281" lon="7.28754">
        <ele>761</ele>
        <time>2024-07-09T12:08:13Z</time>
      </trkpt>
      <trkpt lat="44.04281" lon="7.28752">
        <ele>761</ele>
        <time>2024-07-09T12:08:14Z</time>
      </trkpt>
      <trkpt lat="44.04282" lon="7.2875">
        <ele>761</ele>
        <time>2024-07-09T12:08:15Z</time>
      </trkpt>
      <trkpt lat="44.04283" lon="7.28747">
        <ele>761</ele>
        <time>2024-07-09T12:08:16Z</time>
      </trkpt>
      <trkpt lat="44.04284" lon="7.28745">
        <ele>761.4</ele>
        <time>2024-07-09T12:08:17Z</time>
      </trkpt>
      <trkpt lat="44.04285" lon="7.28742">
        <ele>761.4</ele>
        <time>2024-07-09T12:08:18Z</time>
      </trkpt>
      <trkpt lat="44.04286" lon="7.28739">
        <ele>761.4</ele>
        <time>2024-07-09T12:08:19Z</time>
      </trkpt>
      <trkpt lat="44.04287" lon="7.28737">
        <ele>761.8</ele>
        <time>2024-07-09T12:08:20Z</time>
      </trkpt>
      <trkpt lat="44.04288" lon="7.28735">
        <ele>762</ele>
        <time>2024-07-09T12:08:21Z</time>
      </trkpt>
      <trkpt lat="44.0429" lon="7.28732">
        <ele>762</ele>
        <time>2024-07-09T12:08:22Z</time>
      </trkpt>
      <trkpt lat="44.04291" lon="7.28729">
        <ele>762</ele>
        <time>2024-07-09T12:08:23Z</time>
      </trkpt>
      <trkpt lat="44.04293" lon="7.28727">
        <ele>762</ele>
        <time>2024-07-09T12:08:24Z</time>
      </trkpt>
      <trkpt lat="44.04294" lon="7.28724">
        <ele>762.2</ele>
        <time>2024-07-09T12:08:25Z</time>
      </trkpt>
      <trkpt lat="44.04295" lon="7.2872">
        <ele>762.4</ele>
        <time>2024-07-09T12:08:26Z</time>
      </trkpt>
      <trkpt lat="44.04296" lon="7.28718">
        <ele>762.4</ele>
        <time>2024-07-09T12:08:27Z</time>
      </trkpt>
      <trkpt lat="44.04297" lon="7.28715">
        <ele>762.4</ele>
        <time>2024-07-09T12:08:28Z</time>
      </trkpt>
      <trkpt lat="44.04297" lon="7.28712">
        <ele>762.8</ele>
        <time>2024-07-09T12:08:29Z</time>
      </trkpt>
      <trkpt lat="44.04298" lon="7.28709">
        <ele>763</ele>
        <time>2024-07-09T12:08:30Z</time>
      </trkpt>
      <trkpt lat="44.04299" lon="7.28706">
        <ele>763</ele>
        <time>2024-07-09T12:08:31Z</time>
      </trkpt>
      <trkpt lat="44.04299" lon="7.28703">
        <ele>763</ele>
        <time>2024-07-09T12:08:32Z</time>
      </trkpt>
      <trkpt lat="44.043" lon="7.287">
        <ele>763</ele>
        <time>2024-07-09T12:08:33Z</time>
      </trkpt>
      <trkpt lat="44.04301" lon="7.28697">
        <ele>763</ele>
        <time>2024-07-09T12:08:34Z</time>
      </trkpt>
      <trkpt lat="44.04301" lon="7.28695">
        <ele>763</ele>
        <time>2024-07-09T12:08:35Z</time>
      </trkpt>
      <trkpt lat="44.04302" lon="7.28692">
        <ele>763.2</ele>
        <time>2024-07-09T12:08:36Z</time>
      </trkpt>
      <trkpt lat="44.04302" lon="7.28689">
        <ele>763.2</ele>
        <time>2024-07-09T12:08:37Z</time>
      </trkpt>
      <trkpt lat="44.04302" lon="7.28686">
        <ele>763.2</ele>
        <time>2024-07-09T12:08:38Z</time>
      </trkpt>
      <trkpt lat="44.04302" lon="7.28684">
        <ele>763.6</ele>
        <time>2024-07-09T12:08:39Z</time>
      </trkpt>
      <trkpt lat="44.04302" lon="7.28681">
        <ele>763.6</ele>
        <time>2024-07-09T12:08:40Z</time>
      </trkpt>
      <trkpt lat="44.04302" lon="7.28678">
        <ele>763.6</ele>
        <time>2024-07-09T12:08:41Z</time>
      </trkpt>
      <trkpt lat="44.04301" lon="7.28675">
        <ele>763.6</ele>
        <time>2024-07-09T12:08:42Z</time>
      </trkpt>
      <trkpt lat="44.043" lon="7.28672">
        <ele>764</ele>
        <time>2024-07-09T12:08:43Z</time>
      </trkpt>
      <trkpt lat="44.043" lon="7.28669">
        <ele>764</ele>
        <time>2024-07-09T12:08:44Z</time>
      </trkpt>
      <trkpt lat="44.043" lon="7.28666">
        <ele>764.4</ele>
        <time>2024-07-09T12:08:45Z</time>
      </trkpt>
      <trkpt lat="44.04301" lon="7.28664">
        <ele>764.4</ele>
        <time>2024-07-09T12:08:46Z</time>
      </trkpt>
      <trkpt lat="44.04301" lon="7.28661">
        <ele>764.4</ele>
        <time>2024-07-09T12:08:47Z</time>
      </trkpt>
      <trkpt lat="44.043" lon="7.28658">
        <ele>764.4</ele>
        <time>2024-07-09T12:08:48Z</time>
      </trkpt>
      <trkpt lat="44.043" lon="7.28655">
        <ele>764.6</ele>
        <time>2024-07-09T12:08:49Z</time>
      </trkpt>
      <trkpt lat="44.04301" lon="7.28651">
        <ele>764.6</ele>
        <time>2024-07-09T12:08:50Z</time>
      </trkpt>
      <trkpt lat="44.04301" lon="7.28649">
        <ele>764.6</ele>
        <time>2024-07-09T12:08:51Z</time>
      </trkpt>
      <trkpt lat="44.04302" lon="7.28646">
        <ele>765</ele>
        <time>2024-07-09T12:08:52Z</time>
      </trkpt>
      <trkpt lat="44.04302" lon="7.28643">
        <ele>765.2</ele>
        <time>2024-07-09T12:08:53Z</time>
      </trkpt>
      <trkpt lat="44.04303" lon="7.28641">
        <ele>765.2</ele>
        <time>2024-07-09T12:08:54Z</time>
      </trkpt>
      <trkpt lat="44.04304" lon="7.28638">
        <ele>765.2</ele>
        <time>2024-07-09T12:08:55Z</time>
      </trkpt>
      <trkpt lat="44.04304" lon="7.28636">
        <ele>765.4</ele>
        <time>2024-07-09T12:08:56Z</time>
      </trkpt>
      <trkpt lat="44.04305" lon="7.28635">
        <ele>765.4</ele>
        <time>2024-07-09T12:08:57Z</time>
      </trkpt>
      <trkpt lat="44.04306" lon="7.28633">
        <ele>765.8</ele>
        <time>2024-07-09T12:08:58Z</time>
      </trkpt>
      <trkpt lat="44.04308" lon="7.28632">
        <ele>765.8</ele>
        <time>2024-07-09T12:08:59Z</time>
      </trkpt>
      <trkpt lat="44.04309" lon="7.2863">
        <ele>765.8</ele>
        <time>2024-07-09T12:09:00Z</time>
      </trkpt>
      <trkpt lat="44.04311" lon="7.28628">
        <ele>766.2</ele>
        <time>2024-07-09T12:09:01Z</time>
      </trkpt>
      <trkpt lat="44.04312" lon="7.28626">
        <ele>766.2</ele>
        <time>2024-07-09T12:09:02Z</time>
      </trkpt>
      <trkpt lat="44.04314" lon="7.28624">
        <ele>766.2</ele>
        <time>2024-07-09T12:09:03Z</time>
      </trkpt>
      <trkpt lat="44.04315" lon="7.28622">
        <ele>766.2</ele>
        <time>2024-07-09T12:09:04Z</time>
      </trkpt>
      <trkpt lat="44.04316" lon="7.28619">
        <ele>766.2</ele>
        <time>2024-07-09T12:09:05Z</time>
      </trkpt>
      <trkpt lat="44.04317" lon="7.28616">
        <ele>766.6</ele>
        <time>2024-07-09T12:09:06Z</time>
      </trkpt>
      <trkpt lat="44.04317" lon="7.28614">
        <ele>766.6</ele>
        <time>2024-07-09T12:09:07Z</time>
      </trkpt>
      <trkpt lat="44.04318" lon="7.28611">
        <ele>766.6</ele>
        <time>2024-07-09T12:09:08Z</time>
      </trkpt>
      <trkpt lat="44.0432" lon="7.28609">
        <ele>766.6</ele>
        <time>2024-07-09T12:09:09Z</time>
      </trkpt>
      <trkpt lat="44.04321" lon="7.28607">
        <ele>767.2</ele>
        <time>2024-07-09T12:09:10Z</time>
      </trkpt>
      <trkpt lat="44.04322" lon="7.28605">
        <ele>767.2</ele>
        <time>2024-07-09T12:09:11Z</time>
      </trkpt>
      <trkpt lat="44.04323" lon="7.28604">
        <ele>767.2</ele>
        <time>2024-07-09T12:09:12Z</time>
      </trkpt>
      <trkpt lat="44.04324" lon="7.28602">
        <ele>767.2</ele>
        <time>2024-07-09T12:09:13Z</time>
      </trkpt>
      <trkpt lat="44.04326" lon="7.28601">
        <ele>767.2</ele>
        <time>2024-07-09T12:09:14Z</time>
      </trkpt>
      <trkpt lat="44.04327" lon="7.28599">
        <ele>767.4</ele>
        <time>2024-07-09T12:09:15Z</time>
      </trkpt>
      <trkpt lat="44.04329" lon="7.28597">
        <ele>767.8</ele>
        <time>2024-07-09T12:09:16Z</time>
      </trkpt>
      <trkpt lat="44.04331" lon="7.28595">
        <ele>767.8</ele>
        <time>2024-07-09T12:09:17Z</time>
      </trkpt>
      <trkpt lat="44.04332" lon="7.28593">
        <ele>767.8</ele>
        <time>2024-07-09T12:09:18Z</time>
      </trkpt>
      <trkpt lat="44.04333" lon="7.28591">
        <ele>768</ele>
        <time>2024-07-09T12:09:19Z</time>
      </trkpt>
      <trkpt lat="44.04335" lon="7.28589">
        <ele>768.2</ele>
        <time>2024-07-09T12:09:20Z</time>
      </trkpt>
      <trkpt lat="44.04336" lon="7.28586">
        <ele>768.2</ele>
        <time>2024-07-09T12:09:21Z</time>
      </trkpt>
      <trkpt lat="44.04337" lon="7.28584">
        <ele>768.2</ele>
        <time>2024-07-09T12:09:22Z</time>
      </trkpt>
      <trkpt lat="44.04339" lon="7.28581">
        <ele>768.8</ele>
        <time>2024-07-09T12:09:23Z</time>
      </trkpt>
      <trkpt lat="44.0434" lon="7.28578">
        <ele>768.8</ele>
        <time>2024-07-09T12:09:24Z</time>
      </trkpt>
      <trkpt lat="44.0434" lon="7.28576">
        <ele>768.8</ele>
        <time>2024-07-09T12:09:25Z</time>
      </trkpt>
      <trkpt lat="44.04341" lon="7.28573">
        <ele>768.8</ele>
        <time>2024-07-09T12:09:26Z</time>
      </trkpt>
      <trkpt lat="44.04342" lon="7.2857">
        <ele>768.8</ele>
        <time>2024-07-09T12:09:27Z</time>
      </trkpt>
      <trkpt lat="44.04343" lon="7.28567">
        <ele>768.8</ele>
        <time>2024-07-09T12:09:28Z</time>
      </trkpt>
      <trkpt lat="44.04343" lon="7.28565">
        <ele>769.8</ele>
        <time>2024-07-09T12:09:29Z</time>
      </trkpt>
      <trkpt lat="44.04344" lon="7.28562">
        <ele>769.8</ele>
        <time>2024-07-09T12:09:30Z</time>
      </trkpt>
      <trkpt lat="44.04344" lon="7.28559">
        <ele>769.8</ele>
        <time>2024-07-09T12:09:31Z</time>
      </trkpt>
      <trkpt lat="44.04345" lon="7.28556">
        <ele>770.2</ele>
        <time>2024-07-09T12:09:32Z</time>
      </trkpt>
      <trkpt lat="44.04345" lon="7.28553">
        <ele>770.4</ele>
        <time>2024-07-09T12:09:33Z</time>
      </trkpt>
      <trkpt lat="44.04345" lon="7.2855">
        <ele>770.4</ele>
        <time>2024-07-09T12:09:34Z</time>
      </trkpt>
      <trkpt lat="44.04346" lon="7.28547">
        <ele>770.4</ele>
        <time>2024-07-09T12:09:35Z</time>
      </trkpt>
      <trkpt lat="44.04346" lon="7.28545">
        <ele>771.2</ele>
        <time>2024-07-09T12:09:36Z</time>
      </trkpt>
      <trkpt lat="44.04346" lon="7.28542">
        <ele>771.4</ele>
        <time>2024-07-09T12:09:37Z</time>
      </trkpt>
      <trkpt lat="44.04346" lon="7.2854">
        <ele>771.4</ele>
        <time>2024-07-09T12:09:38Z</time>
      </trkpt>
      <trkpt lat="44.04345" lon="7.28537">
        <ele>771.4</ele>
        <time>2024-07-09T12:09:39Z</time>
      </trkpt>
      <trkpt lat="44.04344" lon="7.28533">
        <ele>771.4</ele>
        <time>2024-07-09T12:09:40Z</time>
      </trkpt>
      <trkpt lat="44.04344" lon="7.2853">
        <ele>771.6</ele>
        <time>2024-07-09T12:09:41Z</time>
      </trkpt>
      <trkpt lat="44.04343" lon="7.28527">
        <ele>771.6</ele>
        <time>2024-07-09T12:09:42Z</time>
      </trkpt>
      <trkpt lat="44.04343" lon="7.28524">
        <ele>771.6</ele>
        <time>2024-07-09T12:09:43Z</time>
      </trkpt>
      <trkpt lat="44.04343" lon="7.28522">
        <ele>771.6</ele>
        <time>2024-07-09T12:09:44Z</time>
      </trkpt>
      <trkpt lat="44.04342" lon="7.28519">
        <ele>772.2</ele>
        <time>2024-07-09T12:09:45Z</time>
      </trkpt>
      <trkpt lat="44.04342" lon="7.28517">
        <ele>772.2</ele>
        <time>2024-07-09T12:09:46Z</time>
      </trkpt>
      <trkpt lat="44.04341" lon="7.28514">
        <ele>772.2</ele>
        <time>2024-07-09T12:09:47Z</time>
      </trkpt>
      <trkpt lat="44.0434" lon="7.28511">
        <ele>772.2</ele>
        <time>2024-07-09T12:09:48Z</time>
      </trkpt>
      <trkpt lat="44.04339" lon="7.28508">
        <ele>772.4</ele>
        <time>2024-07-09T12:09:49Z</time>
      </trkpt>
      <trkpt lat="44.04338" lon="7.28506">
        <ele>772.6</ele>
        <time>2024-07-09T12:09:50Z</time>
      </trkpt>
      <trkpt lat="44.04337" lon="7.28503">
        <ele>772.6</ele>
        <time>2024-07-09T12:09:51Z</time>
      </trkpt>
      <trkpt lat="44.04336" lon="7.285">
        <ele>772.6</ele>
        <time>2024-07-09T12:09:52Z</time>
      </trkpt>
      <trkpt lat="44.04335" lon="7.28497">
        <ele>772.6</ele>
        <time>2024-07-09T12:09:53Z</time>
      </trkpt>
      <trkpt lat="44.04334" lon="7.28493">
        <ele>773</ele>
        <time>2024-07-09T12:09:54Z</time>
      </trkpt>
      <trkpt lat="44.04333" lon="7.2849">
        <ele>773.2</ele>
        <time>2024-07-09T12:09:55Z</time>
      </trkpt>
      <trkpt lat="44.04332" lon="7.28487">
        <ele>773.2</ele>
        <time>2024-07-09T12:09:56Z</time>
      </trkpt>
      <trkpt lat="44.04332" lon="7.28484">
        <ele>773.2</ele>
        <time>2024-07-09T12:09:57Z</time>
      </trkpt>
      <trkpt lat="44.04333" lon="7.28481">
        <ele>773.2</ele>
        <time>2024-07-09T12:09:58Z</time>
      </trkpt>
      <trkpt lat="44.04333" lon="7.28478">
        <ele>773.4</ele>
        <time>2024-07-09T12:09:59Z</time>
      </trkpt>
      <trkpt lat="44.04334" lon="7.28475">
        <ele>773.4</ele>
        <time>2024-07-09T12:10:00Z</time>
      </trkpt>
      <trkpt lat="44.04335" lon="7.28472">
        <ele>773.4</ele>
        <time>2024-07-09T12:10:01Z</time>
      </trkpt>
      <trkpt lat="44.04337" lon="7.2847">
        <ele>773.4</ele>
        <time>2024-07-09T12:10:02Z</time>
      </trkpt>
      <trkpt lat="44.04338" lon="7.28467">
        <ele>773.4</ele>
        <time>2024-07-09T12:10:03Z</time>
      </trkpt>
      <trkpt lat="44.0434" lon="7.28464">
        <ele>773.8</ele>
        <time>2024-07-09T12:10:04Z</time>
      </trkpt>
      <trkpt lat="44.04341" lon="7.28461">
        <ele>773.8</ele>
        <time>2024-07-09T12:10:05Z</time>
      </trkpt>
      <trkpt lat="44.04342" lon="7.28458">
        <ele>773.8</ele>
        <time>2024-07-09T12:10:06Z</time>
      </trkpt>
      <trkpt lat="44.04343" lon="7.28456">
        <ele>773.8</ele>
        <time>2024-07-09T12:10:07Z</time>
      </trkpt>
      <trkpt lat="44.04345" lon="7.28453">
        <ele>774.2</ele>
        <time>2024-07-09T12:10:08Z</time>
      </trkpt>
      <trkpt lat="44.04346" lon="7.28451">
        <ele>774.4</ele>
        <time>2024-07-09T12:10:09Z</time>
      </trkpt>
      <trkpt lat="44.04347" lon="7.28448">
        <ele>774.4</ele>
        <time>2024-07-09T12:10:10Z</time>
      </trkpt>
      <trkpt lat="44.04348" lon="7.28445">
        <ele>774.4</ele>
        <time>2024-07-09T12:10:11Z</time>
      </trkpt>
      <trkpt lat="44.0435" lon="7.28442">
        <ele>774.4</ele>
        <time>2024-07-09T12:10:12Z</time>
      </trkpt>
      <trkpt lat="44.04351" lon="7.28439">
        <ele>775</ele>
        <time>2024-07-09T12:10:13Z</time>
      </trkpt>
      <trkpt lat="44.04352" lon="7.28436">
        <ele>775</ele>
        <time>2024-07-09T12:10:14Z</time>
      </trkpt>
      <trkpt lat="44.04354" lon="7.28433">
        <ele>775</ele>
        <time>2024-07-09T12:10:15Z</time>
      </trkpt>
      <trkpt lat="44.04354" lon="7.2843">
        <ele>775</ele>
        <time>2024-07-09T12:10:16Z</time>
      </trkpt>
      <trkpt lat="44.04355" lon="7.28427">
        <ele>775.4</ele>
        <time>2024-07-09T12:10:17Z</time>
      </trkpt>
      <trkpt lat="44.04356" lon="7.28424">
        <ele>775.4</ele>
        <time>2024-07-09T12:10:18Z</time>
      </trkpt>
      <trkpt lat="44.04357" lon="7.2842">
        <ele>775.4</ele>
        <time>2024-07-09T12:10:19Z</time>
      </trkpt>
      <trkpt lat="44.04358" lon="7.28417">
        <ele>775.4</ele>
        <time>2024-07-09T12:10:20Z</time>
      </trkpt>
      <trkpt lat="44.04359" lon="7.28414">
        <ele>775.6</ele>
        <time>2024-07-09T12:10:21Z</time>
      </trkpt>
      <trkpt lat="44.0436" lon="7.28411">
        <ele>775.8</ele>
        <time>2024-07-09T12:10:22Z</time>
      </trkpt>
      <trkpt lat="44.0436" lon="7.28408">
        <ele>775.8</ele>
        <time>2024-07-09T12:10:23Z</time>
      </trkpt>
      <trkpt lat="44.0436" lon="7.28403">
        <ele>775.8</ele>
        <time>2024-07-09T12:10:24Z</time>
      </trkpt>
      <trkpt lat="44.0436" lon="7.28398">
        <ele>775.8</ele>
        <time>2024-07-09T12:10:25Z</time>
      </trkpt>
      <trkpt lat="44.04361" lon="7.28394">
        <ele>776.6</ele>
        <time>2024-07-09T12:10:26Z</time>
      </trkpt>
      <trkpt lat="44.04361" lon="7.2839">
        <ele>776.6</ele>
        <time>2024-07-09T12:10:27Z</time>
      </trkpt>
      <trkpt lat="44.04362" lon="7.28386">
        <ele>776.6</ele>
        <time>2024-07-09T12:10:28Z</time>
      </trkpt>
      <trkpt lat="44.04361" lon="7.28381">
        <ele>776.6</ele>
        <time>2024-07-09T12:10:29Z</time>
      </trkpt>
      <trkpt lat="44.04362" lon="7.28377">
        <ele>776.6</ele>
        <time>2024-07-09T12:10:30Z</time>
      </trkpt>
      <trkpt lat="44.04363" lon="7.28374">
        <ele>776.8</ele>
        <time>2024-07-09T12:10:31Z</time>
      </trkpt>
      <trkpt lat="44.04363" lon="7.28371">
        <ele>776.8</ele>
        <time>2024-07-09T12:10:32Z</time>
      </trkpt>
      <trkpt lat="44.04364" lon="7.28367">
        <ele>776.8</ele>
        <time>2024-07-09T12:10:33Z</time>
      </trkpt>
      <trkpt lat="44.04365" lon="7.28363">
        <ele>776.8</ele>
        <time>2024-07-09T12:10:34Z</time>
      </trkpt>
      <trkpt lat="44.04366" lon="7.2836">
        <ele>777</ele>
        <time>2024-07-09T12:10:35Z</time>
      </trkpt>
      <trkpt lat="44.04368" lon="7.28357">
        <ele>777</ele>
        <time>2024-07-09T12:10:36Z</time>
      </trkpt>
      <trkpt lat="44.0437" lon="7.28354">
        <ele>777</ele>
        <time>2024-07-09T12:10:37Z</time>
      </trkpt>
      <trkpt lat="44.04371" lon="7.2835">
        <ele>777</ele>
        <time>2024-07-09T12:10:38Z</time>
      </trkpt>
      <trkpt lat="44.04373" lon="7.28346">
        <ele>777</ele>
        <time>2024-07-09T12:10:39Z</time>
      </trkpt>
      <trkpt lat="44.04375" lon="7.28343">
        <ele>777.2</ele>
        <time>2024-07-09T12:10:40Z</time>
      </trkpt>
      <trkpt lat="44.04377" lon="7.28339">
        <ele>777.2</ele>
        <time>2024-07-09T12:10:41Z</time>
      </trkpt>
      <trkpt lat="44.04379" lon="7.28336">
        <ele>777.2</ele>
        <time>2024-07-09T12:10:42Z</time>
      </trkpt>
      <trkpt lat="44.04381" lon="7.28333">
        <ele>777.2</ele>
        <time>2024-07-09T12:10:43Z</time>
      </trkpt>
      <trkpt lat="44.04383" lon="7.2833">
        <ele>777.6</ele>
        <time>2024-07-09T12:10:44Z</time>
      </trkpt>
      <trkpt lat="44.04385" lon="7.28326">
        <ele>777.6</ele>
        <time>2024-07-09T12:10:45Z</time>
      </trkpt>
      <trkpt lat="44.04387" lon="7.28323">
        <ele>777.6</ele>
        <time>2024-07-09T12:10:46Z</time>
      </trkpt>
      <trkpt lat="44.04388" lon="7.28319">
        <ele>777.6</ele>
        <time>2024-07-09T12:10:47Z</time>
      </trkpt>
      <trkpt lat="44.04388" lon="7.28315">
        <ele>777.8</ele>
        <time>2024-07-09T12:10:48Z</time>
      </trkpt>
      <trkpt lat="44.04387" lon="7.28311">
        <ele>778</ele>
        <time>2024-07-09T12:10:49Z</time>
      </trkpt>
      <trkpt lat="44.04387" lon="7.28306">
        <ele>778</ele>
        <time>2024-07-09T12:10:50Z</time>
      </trkpt>
      <trkpt lat="44.04387" lon="7.28302">
        <ele>778</ele>
        <time>2024-07-09T12:10:51Z</time>
      </trkpt>
      <trkpt lat="44.04387" lon="7.28298">
        <ele>778</ele>
        <time>2024-07-09T12:10:52Z</time>
      </trkpt>
      <trkpt lat="44.04388" lon="7.28294">
        <ele>778.6</ele>
        <time>2024-07-09T12:10:53Z</time>
      </trkpt>
      <trkpt lat="44.04387" lon="7.2829">
        <ele>778.6</ele>
        <time>2024-07-09T12:10:54Z</time>
      </trkpt>
      <trkpt lat="44.04387" lon="7.28285">
        <ele>778.6</ele>
        <time>2024-07-09T12:10:55Z</time>
      </trkpt>
      <trkpt lat="44.04387" lon="7.28281">
        <ele>778.6</ele>
        <time>2024-07-09T12:10:56Z</time>
      </trkpt>
      <trkpt lat="44.04387" lon="7.28278">
        <ele>779.4</ele>
        <time>2024-07-09T12:10:57Z</time>
      </trkpt>
      <trkpt lat="44.04388" lon="7.28274">
        <ele>779.4</ele>
        <time>2024-07-09T12:10:58Z</time>
      </trkpt>
      <trkpt lat="44.04389" lon="7.28271">
        <ele>779.4</ele>
        <time>2024-07-09T12:10:59Z</time>
      </trkpt>
      <trkpt lat="44.04388" lon="7.28267">
        <ele>779.4</ele>
        <time>2024-07-09T12:11:00Z</time>
      </trkpt>
      <trkpt lat="44.04387" lon="7.28262">
        <ele>779.8</ele>
        <time>2024-07-09T12:11:01Z</time>
      </trkpt>
      <trkpt lat="44.04386" lon="7.28256">
        <ele>779.8</ele>
        <time>2024-07-09T12:11:02Z</time>
      </trkpt>
      <trkpt lat="44.04386" lon="7.28251">
        <ele>779.8</ele>
        <time>2024-07-09T12:11:03Z</time>
      </trkpt>
      <trkpt lat="44.04385" lon="7.28246">
        <ele>779.8</ele>
        <time>2024-07-09T12:11:04Z</time>
      </trkpt>
      <trkpt lat="44.04384" lon="7.28241">
        <ele>779.8</ele>
        <time>2024-07-09T12:11:05Z</time>
      </trkpt>
      <trkpt lat="44.04384" lon="7.28236">
        <ele>779.8</ele>
        <time>2024-07-09T12:11:06Z</time>
      </trkpt>
      <trkpt lat="44.04383" lon="7.28232">
        <ele>780</ele>
        <time>2024-07-09T12:11:07Z</time>
      </trkpt>
      <trkpt lat="44.04383" lon="7.28228">
        <ele>780</ele>
        <time>2024-07-09T12:11:08Z</time>
      </trkpt>
      <trkpt lat="44.04383" lon="7.28223">
        <ele>780</ele>
        <time>2024-07-09T12:11:09Z</time>
      </trkpt>
      <trkpt lat="44.04383" lon="7.28219">
        <ele>780.2</ele>
        <time>2024-07-09T12:11:10Z</time>
      </trkpt>
      <trkpt lat="44.04383" lon="7.28214">
        <ele>780.2</ele>
        <time>2024-07-09T12:11:11Z</time>
      </trkpt>
      <trkpt lat="44.04384" lon="7.2821">
        <ele>780.2</ele>
        <time>2024-07-09T12:11:12Z</time>
      </trkpt>
      <trkpt lat="44.04384" lon="7.28205">
        <ele>780.2</ele>
        <time>2024-07-09T12:11:13Z</time>
      </trkpt>
      <trkpt lat="44.04385" lon="7.282">
        <ele>780.2</ele>
        <time>2024-07-09T12:11:14Z</time>
      </trkpt>
      <trkpt lat="44.04386" lon="7.28196">
        <ele>780.2</ele>
        <time>2024-07-09T12:11:15Z</time>
      </trkpt>
      <trkpt lat="44.04387" lon="7.28192">
        <ele>780.4</ele>
        <time>2024-07-09T12:11:16Z</time>
      </trkpt>
      <trkpt lat="44.04389" lon="7.28188">
        <ele>780.4</ele>
        <time>2024-07-09T12:11:17Z</time>
      </trkpt>
      <trkpt lat="44.0439" lon="7.28183">
        <ele>780.4</ele>
        <time>2024-07-09T12:11:18Z</time>
      </trkpt>
      <trkpt lat="44.04391" lon="7.28179">
        <ele>780.4</ele>
        <time>2024-07-09T12:11:19Z</time>
      </trkpt>
      <trkpt lat="44.04392" lon="7.28174">
        <ele>780.4</ele>
        <time>2024-07-09T12:11:20Z</time>
      </trkpt>
      <trkpt lat="44.04394" lon="7.2817">
        <ele>780.4</ele>
        <time>2024-07-09T12:11:21Z</time>
      </trkpt>
      <trkpt lat="44.04395" lon="7.28165">
        <ele>780.4</ele>
        <time>2024-07-09T12:11:22Z</time>
      </trkpt>
      <trkpt lat="44.04397" lon="7.28161">
        <ele>780.4</ele>
        <time>2024-07-09T12:11:23Z</time>
      </trkpt>
      <trkpt lat="44.04397" lon="7.28156">
        <ele>780.4</ele>
        <time>2024-07-09T12:11:24Z</time>
      </trkpt>
      <trkpt lat="44.04398" lon="7.28151">
        <ele>780.6</ele>
        <time>2024-07-09T12:11:25Z</time>
      </trkpt>
      <trkpt lat="44.04399" lon="7.28146">
        <ele>780.6</ele>
        <time>2024-07-09T12:11:26Z</time>
      </trkpt>
      <trkpt lat="44.044" lon="7.28141">
        <ele>780.6</ele>
        <time>2024-07-09T12:11:27Z</time>
      </trkpt>
      <trkpt lat="44.044" lon="7.28135">
        <ele>780.6</ele>
        <time>2024-07-09T12:11:28Z</time>
      </trkpt>
      <trkpt lat="44.044" lon="7.2813">
        <ele>780.8</ele>
        <time>2024-07-09T12:11:29Z</time>
      </trkpt>
      <trkpt lat="44.044" lon="7.28125">
        <ele>781</ele>
        <time>2024-07-09T12:11:30Z</time>
      </trkpt>
      <trkpt lat="44.04401" lon="7.28119">
        <ele>781</ele>
        <time>2024-07-09T12:11:31Z</time>
      </trkpt>
      <trkpt lat="44.04401" lon="7.28114">
        <ele>781</ele>
        <time>2024-07-09T12:11:32Z</time>
      </trkpt>
      <trkpt lat="44.04402" lon="7.28108">
        <ele>781</ele>
        <time>2024-07-09T12:11:33Z</time>
      </trkpt>
      <trkpt lat="44.04402" lon="7.28103">
        <ele>781.4</ele>
        <time>2024-07-09T12:11:34Z</time>
      </trkpt>
      <trkpt lat="44.04402" lon="7.28097">
        <ele>781.4</ele>
        <time>2024-07-09T12:11:35Z</time>
      </trkpt>
      <trkpt lat="44.04402" lon="7.28092">
        <ele>781.4</ele>
        <time>2024-07-09T12:11:36Z</time>
      </trkpt>
      <trkpt lat="44.04403" lon="7.28086">
        <ele>781.8</ele>
        <time>2024-07-09T12:11:37Z</time>
      </trkpt>
      <trkpt lat="44.04403" lon="7.28081">
        <ele>782.2</ele>
        <time>2024-07-09T12:11:38Z</time>
      </trkpt>
      <trkpt lat="44.04404" lon="7.28076">
        <ele>782.2</ele>
        <time>2024-07-09T12:11:39Z</time>
      </trkpt>
      <trkpt lat="44.04404" lon="7.28071">
        <ele>782.2</ele>
        <time>2024-07-09T12:11:40Z</time>
      </trkpt>
      <trkpt lat="44.04405" lon="7.28065">
        <ele>782.2</ele>
        <time>2024-07-09T12:11:41Z</time>
      </trkpt>
      <trkpt lat="44.04406" lon="7.28059">
        <ele>782.4</ele>
        <time>2024-07-09T12:11:42Z</time>
      </trkpt>
      <trkpt lat="44.04407" lon="7.28054">
        <ele>782.4</ele>
        <time>2024-07-09T12:11:43Z</time>
      </trkpt>
      <trkpt lat="44.04408" lon="7.28049">
        <ele>782.4</ele>
        <time>2024-07-09T12:11:44Z</time>
      </trkpt>
      <trkpt lat="44.04409" lon="7.28044">
        <ele>782.4</ele>
        <time>2024-07-09T12:11:45Z</time>
      </trkpt>
      <trkpt lat="44.04411" lon="7.28039">
        <ele>782.6</ele>
        <time>2024-07-09T12:11:46Z</time>
      </trkpt>
      <trkpt lat="44.04413" lon="7.28034">
        <ele>783</ele>
        <time>2024-07-09T12:11:47Z</time>
      </trkpt>
      <trkpt lat="44.04416" lon="7.2803">
        <ele>783</ele>
        <time>2024-07-09T12:11:48Z</time>
      </trkpt>
      <trkpt lat="44.04419" lon="7.28025">
        <ele>783</ele>
        <time>2024-07-09T12:11:49Z</time>
      </trkpt>
      <trkpt lat="44.04421" lon="7.28021">
        <ele>783.4</ele>
        <time>2024-07-09T12:11:50Z</time>
      </trkpt>
      <trkpt lat="44.04425" lon="7.28017">
        <ele>783.6</ele>
        <time>2024-07-09T12:11:51Z</time>
      </trkpt>
      <trkpt lat="44.04428" lon="7.28013">
        <ele>783.6</ele>
        <time>2024-07-09T12:11:52Z</time>
      </trkpt>
      <trkpt lat="44.04431" lon="7.28009">
        <ele>783.6</ele>
        <time>2024-07-09T12:11:53Z</time>
      </trkpt>
      <trkpt lat="44.04435" lon="7.28007">
        <ele>783.6</ele>
        <time>2024-07-09T12:11:54Z</time>
      </trkpt>
      <trkpt lat="44.04438" lon="7.28004">
        <ele>783.8</ele>
        <time>2024-07-09T12:11:55Z</time>
      </trkpt>
      <trkpt lat="44.04441" lon="7.28001">
        <ele>783.8</ele>
        <time>2024-07-09T12:11:56Z</time>
      </trkpt>
      <trkpt lat="44.04444" lon="7.27999">
        <ele>783.8</ele>
        <time>2024-07-09T12:11:57Z</time>
      </trkpt>
      <trkpt lat="44.04448" lon="7.27997">
        <ele>783.8</ele>
        <time>2024-07-09T12:11:58Z</time>
      </trkpt>
      <trkpt lat="44.04451" lon="7.27995">
        <ele>784</ele>
        <time>2024-07-09T12:11:59Z</time>
      </trkpt>
      <trkpt lat="44.04454" lon="7.27992">
        <ele>784.2</ele>
        <time>2024-07-09T12:12:00Z</time>
      </trkpt>
      <trkpt lat="44.04457" lon="7.27989">
        <ele>784.2</ele>
        <time>2024-07-09T12:12:01Z</time>
      </trkpt>
      <trkpt lat="44.04461" lon="7.27986">
        <ele>784.2</ele>
        <time>2024-07-09T12:12:02Z</time>
      </trkpt>
      <trkpt lat="44.04464" lon="7.27982">
        <ele>784.2</ele>
        <time>2024-07-09T12:12:03Z</time>
      </trkpt>
      <trkpt lat="44.04467" lon="7.27978">
        <ele>784.2</ele>
        <time>2024-07-09T12:12:04Z</time>
      </trkpt>
      <trkpt lat="44.0447" lon="7.27975">
        <ele>784.6</ele>
        <time>2024-07-09T12:12:05Z</time>
      </trkpt>
      <trkpt lat="44.04474" lon="7.27971">
        <ele>784.6</ele>
        <time>2024-07-09T12:12:06Z</time>
      </trkpt>
      <trkpt lat="44.04477" lon="7.27967">
        <ele>784.6</ele>
        <time>2024-07-09T12:12:07Z</time>
      </trkpt>
      <trkpt lat="44.0448" lon="7.27963">
        <ele>784.6</ele>
        <time>2024-07-09T12:12:08Z</time>
      </trkpt>
      <trkpt lat="44.04483" lon="7.27959">
        <ele>785</ele>
        <time>2024-07-09T12:12:09Z</time>
      </trkpt>
      <trkpt lat="44.04487" lon="7.27951">
        <ele>785.4</ele>
        <time>2024-07-09T12:12:10Z</time>
      </trkpt>
      <trkpt lat="44.04488" lon="7.27949">
        <ele>785.4</ele>
        <time>2024-07-09T12:12:11Z</time>
      </trkpt>
      <trkpt lat="44.0449" lon="7.27943">
        <ele>785.4</ele>
        <time>2024-07-09T12:12:12Z</time>
      </trkpt>
      <trkpt lat="44.04492" lon="7.27936">
        <ele>785.4</ele>
        <time>2024-07-09T12:12:13Z</time>
      </trkpt>
      <trkpt lat="44.04493" lon="7.2793">
        <ele>785.4</ele>
        <time>2024-07-09T12:12:14Z</time>
      </trkpt>
      <trkpt lat="44.04493" lon="7.27923">
        <ele>785.4</ele>
        <time>2024-07-09T12:12:15Z</time>
      </trkpt>
      <trkpt lat="44.04494" lon="7.27916">
        <ele>785.4</ele>
        <time>2024-07-09T12:12:16Z</time>
      </trkpt>
      <trkpt lat="44.04494" lon="7.27908">
        <ele>785.4</ele>
        <time>2024-07-09T12:12:17Z</time>
      </trkpt>
      <trkpt lat="44.04494" lon="7.27901">
        <ele>785.4</ele>
        <time>2024-07-09T12:12:18Z</time>
      </trkpt>
      <trkpt lat="44.04495" lon="7.27894">
        <ele>785.4</ele>
        <time>2024-07-09T12:12:19Z</time>
      </trkpt>
      <trkpt lat="44.04495" lon="7.27886">
        <ele>785.4</ele>
        <time>2024-07-09T12:12:20Z</time>
      </trkpt>
      <trkpt lat="44.04496" lon="7.27878">
        <ele>785.4</ele>
        <time>2024-07-09T12:12:21Z</time>
      </trkpt>
      <trkpt lat="44.04496" lon="7.27871">
        <ele>785.8</ele>
        <time>2024-07-09T12:12:22Z</time>
      </trkpt>
      <trkpt lat="44.04496" lon="7.27864">
        <ele>785.6</ele>
        <time>2024-07-09T12:12:23Z</time>
      </trkpt>
      <trkpt lat="44.04496" lon="7.27857">
        <ele>785.6</ele>
        <time>2024-07-09T12:12:24Z</time>
      </trkpt>
      <trkpt lat="44.04496" lon="7.2785">
        <ele>785.6</ele>
        <time>2024-07-09T12:12:25Z</time>
      </trkpt>
      <trkpt lat="44.04496" lon="7.27843">
        <ele>786.2</ele>
        <time>2024-07-09T12:12:26Z</time>
      </trkpt>
      <trkpt lat="44.04497" lon="7.27837">
        <ele>786.2</ele>
        <time>2024-07-09T12:12:27Z</time>
      </trkpt>
      <trkpt lat="44.04497" lon="7.27831">
        <ele>786.2</ele>
        <time>2024-07-09T12:12:28Z</time>
      </trkpt>
      <trkpt lat="44.04498" lon="7.27825">
        <ele>786.2</ele>
        <time>2024-07-09T12:12:29Z</time>
      </trkpt>
      <trkpt lat="44.04499" lon="7.2782">
        <ele>786.6</ele>
        <time>2024-07-09T12:12:30Z</time>
      </trkpt>
      <trkpt lat="44.045" lon="7.27815">
        <ele>786.8</ele>
        <time>2024-07-09T12:12:31Z</time>
      </trkpt>
      <trkpt lat="44.04501" lon="7.2781">
        <ele>786.8</ele>
        <time>2024-07-09T12:12:32Z</time>
      </trkpt>
      <trkpt lat="44.04503" lon="7.27806">
        <ele>786.8</ele>
        <time>2024-07-09T12:12:33Z</time>
      </trkpt>
      <trkpt lat="44.04504" lon="7.27802">
        <ele>786.8</ele>
        <time>2024-07-09T12:12:34Z</time>
      </trkpt>
      <trkpt lat="44.04506" lon="7.27798">
        <ele>786.8</ele>
        <time>2024-07-09T12:12:35Z</time>
      </trkpt>
      <trkpt lat="44.04507" lon="7.27795">
        <ele>787.2</ele>
        <time>2024-07-09T12:12:36Z</time>
      </trkpt>
      <trkpt lat="44.04509" lon="7.27792">
        <ele>787.2</ele>
        <time>2024-07-09T12:12:37Z</time>
      </trkpt>
      <trkpt lat="44.0451" lon="7.27788">
        <ele>787.2</ele>
        <time>2024-07-09T12:12:38Z</time>
      </trkpt>
      <trkpt lat="44.04512" lon="7.27784">
        <ele>787.2</ele>
        <time>2024-07-09T12:12:39Z</time>
      </trkpt>
      <trkpt lat="44.04513" lon="7.27781">
        <ele>788</ele>
        <time>2024-07-09T12:12:40Z</time>
      </trkpt>
      <trkpt lat="44.04515" lon="7.27778">
        <ele>788</ele>
        <time>2024-07-09T12:12:41Z</time>
      </trkpt>
      <trkpt lat="44.04517" lon="7.27775">
        <ele>788</ele>
        <time>2024-07-09T12:12:42Z</time>
      </trkpt>
      <trkpt lat="44.04519" lon="7.27772">
        <ele>788.6</ele>
        <time>2024-07-09T12:12:43Z</time>
      </trkpt>
      <trkpt lat="44.04521" lon="7.27768">
        <ele>788.6</ele>
        <time>2024-07-09T12:12:44Z</time>
      </trkpt>
      <trkpt lat="44.04523" lon="7.27765">
        <ele>788.4</ele>
        <time>2024-07-09T12:12:45Z</time>
      </trkpt>
      <trkpt lat="44.04525" lon="7.27761">
        <ele>788.4</ele>
        <time>2024-07-09T12:12:46Z</time>
      </trkpt>
      <trkpt lat="44.04526" lon="7.27758">
        <ele>788.4</ele>
        <time>2024-07-09T12:12:47Z</time>
      </trkpt>
      <trkpt lat="44.04528" lon="7.27754">
        <ele>788.4</ele>
        <time>2024-07-09T12:12:48Z</time>
      </trkpt>
      <trkpt lat="44.0453" lon="7.27751">
        <ele>789.2</ele>
        <time>2024-07-09T12:12:49Z</time>
      </trkpt>
      <trkpt lat="44.04531" lon="7.27748">
        <ele>789.4</ele>
        <time>2024-07-09T12:12:50Z</time>
      </trkpt>
      <trkpt lat="44.04533" lon="7.27745">
        <ele>789.4</ele>
        <time>2024-07-09T12:12:51Z</time>
      </trkpt>
      <trkpt lat="44.04534" lon="7.27741">
        <ele>789.4</ele>
        <time>2024-07-09T12:12:52Z</time>
      </trkpt>
      <trkpt lat="44.04536" lon="7.27738">
        <ele>789.6</ele>
        <time>2024-07-09T12:12:53Z</time>
      </trkpt>
      <trkpt lat="44.04537" lon="7.27736">
        <ele>789.8</ele>
        <time>2024-07-09T12:12:54Z</time>
      </trkpt>
      <trkpt lat="44.04539" lon="7.27733">
        <ele>789.8</ele>
        <time>2024-07-09T12:12:55Z</time>
      </trkpt>
      <trkpt lat="44.0454" lon="7.2773">
        <ele>789.8</ele>
        <time>2024-07-09T12:12:56Z</time>
      </trkpt>
      <trkpt lat="44.04542" lon="7.27727">
        <ele>789.8</ele>
        <time>2024-07-09T12:12:57Z</time>
      </trkpt>
      <trkpt lat="44.04543" lon="7.27724">
        <ele>790</ele>
        <time>2024-07-09T12:12:58Z</time>
      </trkpt>
      <trkpt lat="44.04544" lon="7.27722">
        <ele>790.2</ele>
        <time>2024-07-09T12:12:59Z</time>
      </trkpt>
      <trkpt lat="44.04546" lon="7.2772">
        <ele>790.2</ele>
        <time>2024-07-09T12:13:00Z</time>
      </trkpt>
      <trkpt lat="44.04548" lon="7.27717">
        <ele>790.2</ele>
        <time>2024-07-09T12:13:01Z</time>
      </trkpt>
      <trkpt lat="44.04549" lon="7.27715">
        <ele>790.8</ele>
        <time>2024-07-09T12:13:02Z</time>
      </trkpt>
      <trkpt lat="44.0455" lon="7.27712">
        <ele>791</ele>
        <time>2024-07-09T12:13:03Z</time>
      </trkpt>
      <trkpt lat="44.04551" lon="7.2771">
        <ele>791</ele>
        <time>2024-07-09T12:13:04Z</time>
      </trkpt>
      <trkpt lat="44.04553" lon="7.27707">
        <ele>791</ele>
        <time>2024-07-09T12:13:05Z</time>
      </trkpt>
      <trkpt lat="44.04555" lon="7.27705">
        <ele>791</ele>
        <time>2024-07-09T12:13:06Z</time>
      </trkpt>
      <trkpt lat="44.04556" lon="7.27703">
        <ele>791</ele>
        <time>2024-07-09T12:13:07Z</time>
      </trkpt>
      <trkpt lat="44.04558" lon="7.277">
        <ele>791.2</ele>
        <time>2024-07-09T12:13:08Z</time>
      </trkpt>
      <trkpt lat="44.04559" lon="7.27698">
        <ele>791.2</ele>
        <time>2024-07-09T12:13:09Z</time>
      </trkpt>
      <trkpt lat="44.0456" lon="7.27696">
        <ele>791.2</ele>
        <time>2024-07-09T12:13:10Z</time>
      </trkpt>
      <trkpt lat="44.04562" lon="7.27693">
        <ele>791.6</ele>
        <time>2024-07-09T12:13:11Z</time>
      </trkpt>
      <trkpt lat="44.04564" lon="7.27691">
        <ele>791.6</ele>
        <time>2024-07-09T12:13:12Z</time>
      </trkpt>
      <trkpt lat="44.04565" lon="7.27689">
        <ele>791.6</ele>
        <time>2024-07-09T12:13:13Z</time>
      </trkpt>
      <trkpt lat="44.04567" lon="7.27686">
        <ele>791.6</ele>
        <time>2024-07-09T12:13:14Z</time>
      </trkpt>
      <trkpt lat="44.04569" lon="7.27684">
        <ele>792</ele>
        <time>2024-07-09T12:13:15Z</time>
      </trkpt>
      <trkpt lat="44.0457" lon="7.27682">
        <ele>792</ele>
        <time>2024-07-09T12:13:16Z</time>
      </trkpt>
      <trkpt lat="44.04572" lon="7.27679">
        <ele>792</ele>
        <time>2024-07-09T12:13:17Z</time>
      </trkpt>
      <trkpt lat="44.04573" lon="7.27677">
        <ele>792</ele>
        <time>2024-07-09T12:13:18Z</time>
      </trkpt>
      <trkpt lat="44.04575" lon="7.27675">
        <ele>792</ele>
        <time>2024-07-09T12:13:19Z</time>
      </trkpt>
      <trkpt lat="44.04576" lon="7.27676">
        <ele>793</ele>
        <time>2024-07-09T12:13:20Z</time>
      </trkpt>
      <trkpt lat="44.04577" lon="7.27677">
        <ele>793</ele>
        <time>2024-07-09T12:13:21Z</time>
      </trkpt>
      <trkpt lat="44.04578" lon="7.27677">
        <ele>793</ele>
        <time>2024-07-09T12:13:22Z</time>
      </trkpt>
      <trkpt lat="44.04578" lon="7.27678">
        <ele>793</ele>
        <time>2024-07-09T12:13:23Z</time>
      </trkpt>
      <trkpt lat="44.04578" lon="7.27678">
        <ele>793.4</ele>
        <time>2024-07-09T12:13:24Z</time>
      </trkpt>
      <trkpt lat="44.04574" lon="7.2768">
        <ele>793.6</ele>
        <time>2024-07-09T12:13:32Z</time>
      </trkpt>
      <trkpt lat="44.04573" lon="7.27678">
        <ele>793.6</ele>
        <time>2024-07-09T12:13:33Z</time>
      </trkpt>
      <trkpt lat="44.04574" lon="7.27676">
        <ele>793.6</ele>
        <time>2024-07-09T12:13:34Z</time>
      </trkpt>
      <trkpt lat="44.04575" lon="7.27674">
        <ele>793.4</ele>
        <time>2024-07-09T12:13:35Z</time>
      </trkpt>
      <trkpt lat="44.04577" lon="7.27672">
        <ele>793.4</ele>
        <time>2024-07-09T12:13:36Z</time>
      </trkpt>
      <trkpt lat="44.04577" lon="7.2767">
        <ele>793.4</ele>
        <time>2024-07-09T12:13:37Z</time>
      </trkpt>
      <trkpt lat="44.04578" lon="7.27668">
        <ele>793.6</ele>
        <time>2024-07-09T12:13:38Z</time>
      </trkpt>
      <trkpt lat="44.04579" lon="7.27667">
        <ele>793.6</ele>
        <time>2024-07-09T12:13:39Z</time>
      </trkpt>
      <trkpt lat="44.0458" lon="7.27664">
        <ele>793.6</ele>
        <time>2024-07-09T12:13:40Z</time>
      </trkpt>
      <trkpt lat="44.04581" lon="7.27662">
        <ele>793.6</ele>
        <time>2024-07-09T12:13:41Z</time>
      </trkpt>
      <trkpt lat="44.04582" lon="7.27659">
        <ele>793.6</ele>
        <time>2024-07-09T12:13:42Z</time>
      </trkpt>
      <trkpt lat="44.04583" lon="7.27657">
        <ele>793.8</ele>
        <time>2024-07-09T12:13:43Z</time>
      </trkpt>
      <trkpt lat="44.04584" lon="7.27654">
        <ele>793.8</ele>
        <time>2024-07-09T12:13:44Z</time>
      </trkpt>
      <trkpt lat="44.04586" lon="7.27652">
        <ele>793.8</ele>
        <time>2024-07-09T12:13:45Z</time>
      </trkpt>
      <trkpt lat="44.04587" lon="7.2765">
        <ele>793.8</ele>
        <time>2024-07-09T12:13:46Z</time>
      </trkpt>
      <trkpt lat="44.04588" lon="7.27648">
        <ele>794.2</ele>
        <time>2024-07-09T12:13:47Z</time>
      </trkpt>
      <trkpt lat="44.04589" lon="7.27645">
        <ele>794.2</ele>
        <time>2024-07-09T12:13:48Z</time>
      </trkpt>
      <trkpt lat="44.04591" lon="7.27643">
        <ele>794.2</ele>
        <time>2024-07-09T12:13:49Z</time>
      </trkpt>
      <trkpt lat="44.04593" lon="7.27641">
        <ele>794.2</ele>
        <time>2024-07-09T12:13:50Z</time>
      </trkpt>
      <trkpt lat="44.04594" lon="7.27638">
        <ele>794.6</ele>
        <time>2024-07-09T12:13:51Z</time>
      </trkpt>
      <trkpt lat="44.04596" lon="7.27636">
        <ele>795</ele>
        <time>2024-07-09T12:13:52Z</time>
      </trkpt>
      <trkpt lat="44.04597" lon="7.27634">
        <ele>795</ele>
        <time>2024-07-09T12:13:53Z</time>
      </trkpt>
      <trkpt lat="44.04599" lon="7.27632">
        <ele>795</ele>
        <time>2024-07-09T12:13:54Z</time>
      </trkpt>
      <trkpt lat="44.04601" lon="7.2763">
        <ele>795.4</ele>
        <time>2024-07-09T12:13:55Z</time>
      </trkpt>
      <trkpt lat="44.04602" lon="7.27628">
        <ele>795.2</ele>
        <time>2024-07-09T12:13:56Z</time>
      </trkpt>
      <trkpt lat="44.04604" lon="7.27626">
        <ele>795.2</ele>
        <time>2024-07-09T12:13:57Z</time>
      </trkpt>
      <trkpt lat="44.04606" lon="7.27624">
        <ele>795.2</ele>
        <time>2024-07-09T12:13:58Z</time>
      </trkpt>
      <trkpt lat="44.04607" lon="7.27622">
        <ele>795.4</ele>
        <time>2024-07-09T12:13:59Z</time>
      </trkpt>
      <trkpt lat="44.04609" lon="7.2762">
        <ele>796.2</ele>
        <time>2024-07-09T12:14:00Z</time>
      </trkpt>
      <trkpt lat="44.04611" lon="7.27618">
        <ele>796.2</ele>
        <time>2024-07-09T12:14:01Z</time>
      </trkpt>
      <trkpt lat="44.04613" lon="7.27617">
        <ele>796.2</ele>
        <time>2024-07-09T12:14:02Z</time>
      </trkpt>
      <trkpt lat="44.04615" lon="7.27615">
        <ele>796.2</ele>
        <time>2024-07-09T12:14:03Z</time>
      </trkpt>
      <trkpt lat="44.04616" lon="7.27613">
        <ele>796.8</ele>
        <time>2024-07-09T12:14:04Z</time>
      </trkpt>
      <trkpt lat="44.04618" lon="7.27612">
        <ele>796.8</ele>
        <time>2024-07-09T12:14:05Z</time>
      </trkpt>
      <trkpt lat="44.0462" lon="7.2761">
        <ele>796.8</ele>
        <time>2024-07-09T12:14:06Z</time>
      </trkpt>
      <trkpt lat="44.04622" lon="7.27608">
        <ele>796.8</ele>
        <time>2024-07-09T12:14:07Z</time>
      </trkpt>
      <trkpt lat="44.04624" lon="7.27606">
        <ele>797.4</ele>
        <time>2024-07-09T12:14:08Z</time>
      </trkpt>
      <trkpt lat="44.04626" lon="7.27605">
        <ele>797.2</ele>
        <time>2024-07-09T12:14:09Z</time>
      </trkpt>
      <trkpt lat="44.04628" lon="7.27603">
        <ele>797.2</ele>
        <time>2024-07-09T12:14:10Z</time>
      </trkpt>
      <trkpt lat="44.0463" lon="7.27602">
        <ele>797.2</ele>
        <time>2024-07-09T12:14:11Z</time>
      </trkpt>
      <trkpt lat="44.04632" lon="7.276">
        <ele>797.2</ele>
        <time>2024-07-09T12:14:12Z</time>
      </trkpt>
      <trkpt lat="44.04634" lon="7.27598">
        <ele>797.2</ele>
        <time>2024-07-09T12:14:13Z</time>
      </trkpt>
      <trkpt lat="44.04636" lon="7.27596">
        <ele>797.6</ele>
        <time>2024-07-09T12:14:14Z</time>
      </trkpt>
      <trkpt lat="44.04638" lon="7.27595">
        <ele>797.6</ele>
        <time>2024-07-09T12:14:15Z</time>
      </trkpt>
      <trkpt lat="44.04641" lon="7.27594">
        <ele>797.6</ele>
        <time>2024-07-09T12:14:16Z</time>
      </trkpt>
      <trkpt lat="44.04643" lon="7.27592">
        <ele>798</ele>
        <time>2024-07-09T12:14:17Z</time>
      </trkpt>
      <trkpt lat="44.04645" lon="7.2759">
        <ele>798</ele>
        <time>2024-07-09T12:14:18Z</time>
      </trkpt>
      <trkpt lat="44.04647" lon="7.27589">
        <ele>798</ele>
        <time>2024-07-09T12:14:19Z</time>
      </trkpt>
      <trkpt lat="44.04649" lon="7.27588">
        <ele>798</ele>
        <time>2024-07-09T12:14:20Z</time>
      </trkpt>
      <trkpt lat="44.04651" lon="7.27587">
        <ele>798</ele>
        <time>2024-07-09T12:14:21Z</time>
      </trkpt>
      <trkpt lat="44.04653" lon="7.27585">
        <ele>798.4</ele>
        <time>2024-07-09T12:14:22Z</time>
      </trkpt>
      <trkpt lat="44.04655" lon="7.27583">
        <ele>798.4</ele>
        <time>2024-07-09T12:14:23Z</time>
      </trkpt>
      <trkpt lat="44.04657" lon="7.27581">
        <ele>798.4</ele>
        <time>2024-07-09T12:14:24Z</time>
      </trkpt>
      <trkpt lat="44.04659" lon="7.2758">
        <ele>798.4</ele>
        <time>2024-07-09T12:14:25Z</time>
      </trkpt>
      <trkpt lat="44.04661" lon="7.27578">
        <ele>798.4</ele>
        <time>2024-07-09T12:14:26Z</time>
      </trkpt>
      <trkpt lat="44.04663" lon="7.27576">
        <ele>799</ele>
        <time>2024-07-09T12:14:27Z</time>
      </trkpt>
      <trkpt lat="44.04665" lon="7.27575">
        <ele>799</ele>
        <time>2024-07-09T12:14:28Z</time>
      </trkpt>
      <trkpt lat="44.04667" lon="7.27573">
        <ele>799</ele>
        <time>2024-07-09T12:14:29Z</time>
      </trkpt>
      <trkpt lat="44.04668" lon="7.27571">
        <ele>799.4</ele>
        <time>2024-07-09T12:14:30Z</time>
      </trkpt>
      <trkpt lat="44.0467" lon="7.2757">
        <ele>799.6</ele>
        <time>2024-07-09T12:14:31Z</time>
      </trkpt>
      <trkpt lat="44.04671" lon="7.27567">
        <ele>799.6</ele>
        <time>2024-07-09T12:14:32Z</time>
      </trkpt>
      <trkpt lat="44.04672" lon="7.27565">
        <ele>799.6</ele>
        <time>2024-07-09T12:14:33Z</time>
      </trkpt>
      <trkpt lat="44.04674" lon="7.27563">
        <ele>799.6</ele>
        <time>2024-07-09T12:14:34Z</time>
      </trkpt>
      <trkpt lat="44.04676" lon="7.27561">
        <ele>800.2</ele>
        <time>2024-07-09T12:14:35Z</time>
      </trkpt>
      <trkpt lat="44.04678" lon="7.2756">
        <ele>800</ele>
        <time>2024-07-09T12:14:36Z</time>
      </trkpt>
      <trkpt lat="44.04679" lon="7.27558">
        <ele>800</ele>
        <time>2024-07-09T12:14:37Z</time>
      </trkpt>
      <trkpt lat="44.04681" lon="7.27556">
        <ele>800</ele>
        <time>2024-07-09T12:14:38Z</time>
      </trkpt>
      <trkpt lat="44.04682" lon="7.27554">
        <ele>800.6</ele>
        <time>2024-07-09T12:14:39Z</time>
      </trkpt>
      <trkpt lat="44.04684" lon="7.27552">
        <ele>800.8</ele>
        <time>2024-07-09T12:14:40Z</time>
      </trkpt>
      <trkpt lat="44.04685" lon="7.2755">
        <ele>800.8</ele>
        <time>2024-07-09T12:14:41Z</time>
      </trkpt>
      <trkpt lat="44.04687" lon="7.27547">
        <ele>800.8</ele>
        <time>2024-07-09T12:14:42Z</time>
      </trkpt>
      <trkpt lat="44.04688" lon="7.27545">
        <ele>801.4</ele>
        <time>2024-07-09T12:14:43Z</time>
      </trkpt>
      <trkpt lat="44.04689" lon="7.27542">
        <ele>801.6</ele>
        <time>2024-07-09T12:14:44Z</time>
      </trkpt>
      <trkpt lat="44.04691" lon="7.2754">
        <ele>801.6</ele>
        <time>2024-07-09T12:14:45Z</time>
      </trkpt>
      <trkpt lat="44.04692" lon="7.27537">
        <ele>801.6</ele>
        <time>2024-07-09T12:14:46Z</time>
      </trkpt>
      <trkpt lat="44.04693" lon="7.27534">
        <ele>801.6</ele>
        <time>2024-07-09T12:14:47Z</time>
      </trkpt>
      <trkpt lat="44.04694" lon="7.27532">
        <ele>801.8</ele>
        <time>2024-07-09T12:14:48Z</time>
      </trkpt>
      <trkpt lat="44.04696" lon="7.27529">
        <ele>801.8</ele>
        <time>2024-07-09T12:14:49Z</time>
      </trkpt>
      <trkpt lat="44.04697" lon="7.27527">
        <ele>801.8</ele>
        <time>2024-07-09T12:14:50Z</time>
      </trkpt>
      <trkpt lat="44.04698" lon="7.27525">
        <ele>801.8</ele>
        <time>2024-07-09T12:14:51Z</time>
      </trkpt>
      <trkpt lat="44.047" lon="7.27522">
        <ele>801.8</ele>
        <time>2024-07-09T12:14:52Z</time>
      </trkpt>
      <trkpt lat="44.04701" lon="7.2752">
        <ele>802.8</ele>
        <time>2024-07-09T12:14:53Z</time>
      </trkpt>
      <trkpt lat="44.04701" lon="7.27517">
        <ele>802.8</ele>
        <time>2024-07-09T12:14:54Z</time>
      </trkpt>
      <trkpt lat="44.04702" lon="7.27514">
        <ele>802.8</ele>
        <time>2024-07-09T12:14:55Z</time>
      </trkpt>
      <trkpt lat="44.04703" lon="7.27512">
        <ele>802.8</ele>
        <time>2024-07-09T12:14:56Z</time>
      </trkpt>
      <trkpt lat="44.04704" lon="7.27509">
        <ele>802.8</ele>
        <time>2024-07-09T12:14:57Z</time>
      </trkpt>
      <trkpt lat="44.04705" lon="7.27507">
        <ele>802.8</ele>
        <time>2024-07-09T12:14:58Z</time>
      </trkpt>
      <trkpt lat="44.04707" lon="7.27505">
        <ele>802.8</ele>
        <time>2024-07-09T12:14:59Z</time>
      </trkpt>
      <trkpt lat="44.04708" lon="7.27503">
        <ele>802.8</ele>
        <time>2024-07-09T12:15:00Z</time>
      </trkpt>
      <trkpt lat="44.04709" lon="7.275">
        <ele>803.4</ele>
        <time>2024-07-09T12:15:01Z</time>
      </trkpt>
      <trkpt lat="44.04711" lon="7.27498">
        <ele>803.4</ele>
        <time>2024-07-09T12:15:02Z</time>
      </trkpt>
      <trkpt lat="44.04712" lon="7.27495">
        <ele>803.6</ele>
        <time>2024-07-09T12:15:03Z</time>
      </trkpt>
      <trkpt lat="44.04713" lon="7.27493">
        <ele>803.6</ele>
        <time>2024-07-09T12:15:04Z</time>
      </trkpt>
      <trkpt lat="44.04714" lon="7.2749">
        <ele>803.6</ele>
        <time>2024-07-09T12:15:05Z</time>
      </trkpt>
      <trkpt lat="44.04715" lon="7.27488">
        <ele>804.2</ele>
        <time>2024-07-09T12:15:06Z</time>
      </trkpt>
      <trkpt lat="44.04716" lon="7.27485">
        <ele>804.6</ele>
        <time>2024-07-09T12:15:07Z</time>
      </trkpt>
      <trkpt lat="44.04718" lon="7.27483">
        <ele>804.6</ele>
        <time>2024-07-09T12:15:08Z</time>
      </trkpt>
      <trkpt lat="44.04719" lon="7.2748">
        <ele>804.6</ele>
        <time>2024-07-09T12:15:09Z</time>
      </trkpt>
      <trkpt lat="44.0472" lon="7.27477">
        <ele>804.2</ele>
        <time>2024-07-09T12:15:10Z</time>
      </trkpt>
      <trkpt lat="44.04721" lon="7.27475">
        <ele>804.8</ele>
        <time>2024-07-09T12:15:11Z</time>
      </trkpt>
      <trkpt lat="44.04722" lon="7.27473">
        <ele>804.8</ele>
        <time>2024-07-09T12:15:12Z</time>
      </trkpt>
      <trkpt lat="44.04723" lon="7.2747">
        <ele>804.8</ele>
        <time>2024-07-09T12:15:13Z</time>
      </trkpt>
      <trkpt lat="44.04725" lon="7.27468">
        <ele>804.8</ele>
        <time>2024-07-09T12:15:14Z</time>
      </trkpt>
      <trkpt lat="44.04726" lon="7.27465">
        <ele>805.2</ele>
        <time>2024-07-09T12:15:15Z</time>
      </trkpt>
      <trkpt lat="44.04727" lon="7.27463">
        <ele>805.4</ele>
        <time>2024-07-09T12:15:16Z</time>
      </trkpt>
      <trkpt lat="44.04728" lon="7.2746">
        <ele>805.4</ele>
        <time>2024-07-09T12:15:17Z</time>
      </trkpt>
      <trkpt lat="44.0473" lon="7.27458">
        <ele>805.4</ele>
        <time>2024-07-09T12:15:18Z</time>
      </trkpt>
      <trkpt lat="44.04732" lon="7.27456">
        <ele>805.6</ele>
        <time>2024-07-09T12:15:19Z</time>
      </trkpt>
      <trkpt lat="44.04734" lon="7.27454">
        <ele>805.8</ele>
        <time>2024-07-09T12:15:20Z</time>
      </trkpt>
      <trkpt lat="44.04735" lon="7.27452">
        <ele>805.8</ele>
        <time>2024-07-09T12:15:21Z</time>
      </trkpt>
      <trkpt lat="44.04737" lon="7.27449">
        <ele>805.8</ele>
        <time>2024-07-09T12:15:22Z</time>
      </trkpt>
      <trkpt lat="44.04738" lon="7.27447">
        <ele>806.2</ele>
        <time>2024-07-09T12:15:23Z</time>
      </trkpt>
      <trkpt lat="44.0474" lon="7.27445">
        <ele>806.2</ele>
        <time>2024-07-09T12:15:24Z</time>
      </trkpt>
      <trkpt lat="44.04741" lon="7.27443">
        <ele>806.2</ele>
        <time>2024-07-09T12:15:25Z</time>
      </trkpt>
      <trkpt lat="44.04742" lon="7.2744">
        <ele>806.2</ele>
        <time>2024-07-09T12:15:26Z</time>
      </trkpt>
      <trkpt lat="44.04743" lon="7.27438">
        <ele>806.2</ele>
        <time>2024-07-09T12:15:27Z</time>
      </trkpt>
      <trkpt lat="44.04745" lon="7.27436">
        <ele>806.8</ele>
        <time>2024-07-09T12:15:28Z</time>
      </trkpt>
      <trkpt lat="44.04746" lon="7.27434">
        <ele>807.4</ele>
        <time>2024-07-09T12:15:29Z</time>
      </trkpt>
      <trkpt lat="44.04747" lon="7.27432">
        <ele>807.4</ele>
        <time>2024-07-09T12:15:30Z</time>
      </trkpt>
      <trkpt lat="44.04749" lon="7.27431">
        <ele>807.4</ele>
        <time>2024-07-09T12:15:31Z</time>
      </trkpt>
      <trkpt lat="44.04751" lon="7.27428">
        <ele>808.2</ele>
        <time>2024-07-09T12:15:32Z</time>
      </trkpt>
      <trkpt lat="44.04753" lon="7.27426">
        <ele>808.2</ele>
        <time>2024-07-09T12:15:33Z</time>
      </trkpt>
      <trkpt lat="44.04754" lon="7.27424">
        <ele>808.2</ele>
        <time>2024-07-09T12:15:34Z</time>
      </trkpt>
      <trkpt lat="44.04757" lon="7.27423">
        <ele>808.2</ele>
        <time>2024-07-09T12:15:35Z</time>
      </trkpt>
      <trkpt lat="44.04759" lon="7.27421">
        <ele>808.6</ele>
        <time>2024-07-09T12:15:36Z</time>
      </trkpt>
      <trkpt lat="44.0476" lon="7.2742">
        <ele>808.6</ele>
        <time>2024-07-09T12:15:37Z</time>
      </trkpt>
      <trkpt lat="44.04762" lon="7.27419">
        <ele>808.6</ele>
        <time>2024-07-09T12:15:38Z</time>
      </trkpt>
      <trkpt lat="44.04765" lon="7.27418">
        <ele>808.8</ele>
        <time>2024-07-09T12:15:39Z</time>
      </trkpt>
      <trkpt lat="44.04767" lon="7.27417">
        <ele>808.8</ele>
        <time>2024-07-09T12:15:40Z</time>
      </trkpt>
      <trkpt lat="44.04769" lon="7.27417">
        <ele>808.8</ele>
        <time>2024-07-09T12:15:41Z</time>
      </trkpt>
      <trkpt lat="44.04771" lon="7.27417">
        <ele>808.8</ele>
        <time>2024-07-09T12:15:42Z</time>
      </trkpt>
      <trkpt lat="44.04773" lon="7.27417">
        <ele>809.2</ele>
        <time>2024-07-09T12:15:43Z</time>
      </trkpt>
      <trkpt lat="44.04775" lon="7.27418">
        <ele>809.2</ele>
        <time>2024-07-09T12:15:44Z</time>
      </trkpt>
      <trkpt lat="44.04777" lon="7.27419">
        <ele>809.2</ele>
        <time>2024-07-09T12:15:45Z</time>
      </trkpt>
      <trkpt lat="44.04779" lon="7.27419">
        <ele>810.2</ele>
        <time>2024-07-09T12:15:46Z</time>
      </trkpt>
      <trkpt lat="44.04781" lon="7.2742">
        <ele>810.4</ele>
        <time>2024-07-09T12:15:47Z</time>
      </trkpt>
      <trkpt lat="44.04783" lon="7.27421">
        <ele>810.4</ele>
        <time>2024-07-09T12:15:48Z</time>
      </trkpt>
      <trkpt lat="44.04785" lon="7.27423">
        <ele>810.4</ele>
        <time>2024-07-09T12:15:49Z</time>
      </trkpt>
      <trkpt lat="44.04787" lon="7.27424">
        <ele>810.4</ele>
        <time>2024-07-09T12:15:50Z</time>
      </trkpt>
      <trkpt lat="44.04789" lon="7.27426">
        <ele>811.4</ele>
        <time>2024-07-09T12:15:51Z</time>
      </trkpt>
      <trkpt lat="44.04791" lon="7.27427">
        <ele>811.6</ele>
        <time>2024-07-09T12:15:52Z</time>
      </trkpt>
      <trkpt lat="44.04793" lon="7.27429">
        <ele>811.6</ele>
        <time>2024-07-09T12:15:53Z</time>
      </trkpt>
      <trkpt lat="44.04795" lon="7.27431">
        <ele>811.6</ele>
        <time>2024-07-09T12:15:54Z</time>
      </trkpt>
      <trkpt lat="44.04796" lon="7.27433">
        <ele>812.4</ele>
        <time>2024-07-09T12:15:55Z</time>
      </trkpt>
      <trkpt lat="44.04798" lon="7.27434">
        <ele>812.6</ele>
        <time>2024-07-09T12:15:56Z</time>
      </trkpt>
      <trkpt lat="44.04799" lon="7.27436">
        <ele>812.6</ele>
        <time>2024-07-09T12:15:57Z</time>
      </trkpt>
      <trkpt lat="44.04801" lon="7.27438">
        <ele>812.6</ele>
        <time>2024-07-09T12:15:58Z</time>
      </trkpt>
      <trkpt lat="44.04803" lon="7.2744">
        <ele>812.6</ele>
        <time>2024-07-09T12:15:59Z</time>
      </trkpt>
      <trkpt lat="44.04805" lon="7.27441">
        <ele>813.2</ele>
        <time>2024-07-09T12:16:00Z</time>
      </trkpt>
      <trkpt lat="44.04807" lon="7.27442">
        <ele>813.4</ele>
        <time>2024-07-09T12:16:01Z</time>
      </trkpt>
      <trkpt lat="44.0481" lon="7.27443">
        <ele>813.4</ele>
        <time>2024-07-09T12:16:02Z</time>
      </trkpt>
      <trkpt lat="44.04812" lon="7.27444">
        <ele>813.4</ele>
        <time>2024-07-09T12:16:03Z</time>
      </trkpt>
      <trkpt lat="44.04814" lon="7.27445">
        <ele>814.2</ele>
        <time>2024-07-09T12:16:04Z</time>
      </trkpt>
      <trkpt lat="44.04816" lon="7.27446">
        <ele>814.2</ele>
        <time>2024-07-09T12:16:05Z</time>
      </trkpt>
      <trkpt lat="44.04818" lon="7.27448">
        <ele>814.2</ele>
        <time>2024-07-09T12:16:06Z</time>
      </trkpt>
      <trkpt lat="44.0482" lon="7.27449">
        <ele>814.2</ele>
        <time>2024-07-09T12:16:07Z</time>
      </trkpt>
      <trkpt lat="44.04823" lon="7.2745">
        <ele>814.2</ele>
        <time>2024-07-09T12:16:08Z</time>
      </trkpt>
      <trkpt lat="44.04825" lon="7.2745">
        <ele>814.4</ele>
        <time>2024-07-09T12:16:09Z</time>
      </trkpt>
      <trkpt lat="44.04828" lon="7.27451">
        <ele>814.6</ele>
        <time>2024-07-09T12:16:10Z</time>
      </trkpt>
      <trkpt lat="44.0483" lon="7.27451">
        <ele>814.6</ele>
        <time>2024-07-09T12:16:11Z</time>
      </trkpt>
      <trkpt lat="44.04832" lon="7.27451">
        <ele>814.6</ele>
        <time>2024-07-09T12:16:12Z</time>
      </trkpt>
      <trkpt lat="44.04834" lon="7.27452">
        <ele>815.2</ele>
        <time>2024-07-09T12:16:13Z</time>
      </trkpt>
      <trkpt lat="44.04836" lon="7.27452">
        <ele>815.6</ele>
        <time>2024-07-09T12:16:14Z</time>
      </trkpt>
      <trkpt lat="44.04838" lon="7.27453">
        <ele>815.6</ele>
        <time>2024-07-09T12:16:15Z</time>
      </trkpt>
      <trkpt lat="44.0484" lon="7.27454">
        <ele>815.6</ele>
        <time>2024-07-09T12:16:16Z</time>
      </trkpt>
      <trkpt lat="44.04843" lon="7.27455">
        <ele>816</ele>
        <time>2024-07-09T12:16:17Z</time>
      </trkpt>
      <trkpt lat="44.04845" lon="7.27456">
        <ele>816</ele>
        <time>2024-07-09T12:16:18Z</time>
      </trkpt>
      <trkpt lat="44.04846" lon="7.27456">
        <ele>816</ele>
        <time>2024-07-09T12:16:19Z</time>
      </trkpt>
      <trkpt lat="44.04847" lon="7.27457">
        <ele>816</ele>
        <time>2024-07-09T12:16:20Z</time>
      </trkpt>
      <trkpt lat="44.04849" lon="7.27458">
        <ele>816</ele>
        <time>2024-07-09T12:16:21Z</time>
      </trkpt>
      <trkpt lat="44.04851" lon="7.27459">
        <ele>816.8</ele>
        <time>2024-07-09T12:16:22Z</time>
      </trkpt>
      <trkpt lat="44.04853" lon="7.27461">
        <ele>816.8</ele>
        <time>2024-07-09T12:16:23Z</time>
      </trkpt>
      <trkpt lat="44.04855" lon="7.27463">
        <ele>816.8</ele>
        <time>2024-07-09T12:16:24Z</time>
      </trkpt>
      <trkpt lat="44.04857" lon="7.27465">
        <ele>816.8</ele>
        <time>2024-07-09T12:16:25Z</time>
      </trkpt>
      <trkpt lat="44.04858" lon="7.27467">
        <ele>816.8</ele>
        <time>2024-07-09T12:16:26Z</time>
      </trkpt>
      <trkpt lat="44.0486" lon="7.27468">
        <ele>817.6</ele>
        <time>2024-07-09T12:16:27Z</time>
      </trkpt>
      <trkpt lat="44.04862" lon="7.2747">
        <ele>817.6</ele>
        <time>2024-07-09T12:16:28Z</time>
      </trkpt>
      <trkpt lat="44.04863" lon="7.27472">
        <ele>817.6</ele>
        <time>2024-07-09T12:16:29Z</time>
      </trkpt>
      <trkpt lat="44.04865" lon="7.27474">
        <ele>817.6</ele>
        <time>2024-07-09T12:16:30Z</time>
      </trkpt>
      <trkpt lat="44.04867" lon="7.27476">
        <ele>818.2</ele>
        <time>2024-07-09T12:16:31Z</time>
      </trkpt>
      <trkpt lat="44.04869" lon="7.27477">
        <ele>818.2</ele>
        <time>2024-07-09T12:16:32Z</time>
      </trkpt>
      <trkpt lat="44.0487" lon="7.27479">
        <ele>818.2</ele>
        <time>2024-07-09T12:16:33Z</time>
      </trkpt>
      <trkpt lat="44.04872" lon="7.27481">
        <ele>818.2</ele>
        <time>2024-07-09T12:16:34Z</time>
      </trkpt>
      <trkpt lat="44.04873" lon="7.27482">
        <ele>818.2</ele>
        <time>2024-07-09T12:16:35Z</time>
      </trkpt>
      <trkpt lat="44.04875" lon="7.27484">
        <ele>819</ele>
        <time>2024-07-09T12:16:36Z</time>
      </trkpt>
      <trkpt lat="44.04877" lon="7.27486">
        <ele>819.2</ele>
        <time>2024-07-09T12:16:37Z</time>
      </trkpt>
      <trkpt lat="44.04879" lon="7.27487">
        <ele>819.2</ele>
        <time>2024-07-09T12:16:38Z</time>
      </trkpt>
      <trkpt lat="44.04881" lon="7.27489">
        <ele>819.2</ele>
        <time>2024-07-09T12:16:39Z</time>
      </trkpt>
      <trkpt lat="44.04882" lon="7.2749">
        <ele>820</ele>
        <time>2024-07-09T12:16:40Z</time>
      </trkpt>
      <trkpt lat="44.04884" lon="7.27492">
        <ele>820.2</ele>
        <time>2024-07-09T12:16:41Z</time>
      </trkpt>
      <trkpt lat="44.04885" lon="7.27493">
        <ele>820.2</ele>
        <time>2024-07-09T12:16:42Z</time>
      </trkpt>
      <trkpt lat="44.04887" lon="7.27495">
        <ele>820.2</ele>
        <time>2024-07-09T12:16:43Z</time>
      </trkpt>
      <trkpt lat="44.04889" lon="7.27496">
        <ele>820.6</ele>
        <time>2024-07-09T12:16:44Z</time>
      </trkpt>
      <trkpt lat="44.04891" lon="7.27497">
        <ele>820.8</ele>
        <time>2024-07-09T12:16:45Z</time>
      </trkpt>
      <trkpt lat="44.04893" lon="7.27499">
        <ele>820.8</ele>
        <time>2024-07-09T12:16:46Z</time>
      </trkpt>
      <trkpt lat="44.04895" lon="7.275">
        <ele>820.8</ele>
        <time>2024-07-09T12:16:47Z</time>
      </trkpt>
      <trkpt lat="44.04897" lon="7.27501">
        <ele>820.8</ele>
        <time>2024-07-09T12:16:48Z</time>
      </trkpt>
      <trkpt lat="44.04899" lon="7.27502">
        <ele>821.4</ele>
        <time>2024-07-09T12:16:49Z</time>
      </trkpt>
      <trkpt lat="44.04901" lon="7.27503">
        <ele>821.6</ele>
        <time>2024-07-09T12:16:50Z</time>
      </trkpt>
      <trkpt lat="44.04902" lon="7.27504">
        <ele>821.6</ele>
        <time>2024-07-09T12:16:51Z</time>
      </trkpt>
      <trkpt lat="44.04904" lon="7.27505">
        <ele>821.6</ele>
        <time>2024-07-09T12:16:52Z</time>
      </trkpt>
      <trkpt lat="44.04906" lon="7.27507">
        <ele>822</ele>
        <time>2024-07-09T12:16:53Z</time>
      </trkpt>
      <trkpt lat="44.04908" lon="7.27508">
        <ele>822</ele>
        <time>2024-07-09T12:16:54Z</time>
      </trkpt>
      <trkpt lat="44.0491" lon="7.27509">
        <ele>822</ele>
        <time>2024-07-09T12:16:55Z</time>
      </trkpt>
      <trkpt lat="44.04912" lon="7.2751">
        <ele>822</ele>
        <time>2024-07-09T12:16:56Z</time>
      </trkpt>
      <trkpt lat="44.04915" lon="7.27511">
        <ele>822</ele>
        <time>2024-07-09T12:16:57Z</time>
      </trkpt>
      <trkpt lat="44.04917" lon="7.27511">
        <ele>822</ele>
        <time>2024-07-09T12:16:58Z</time>
      </trkpt>
      <trkpt lat="44.04919" lon="7.27512">
        <ele>822.8</ele>
        <time>2024-07-09T12:16:59Z</time>
      </trkpt>
      <trkpt lat="44.04921" lon="7.27512">
        <ele>822.8</ele>
        <time>2024-07-09T12:17:00Z</time>
      </trkpt>
      <trkpt lat="44.04924" lon="7.27513">
        <ele>822.8</ele>
        <time>2024-07-09T12:17:01Z</time>
      </trkpt>
      <trkpt lat="44.04926" lon="7.27512">
        <ele>822.8</ele>
        <time>2024-07-09T12:17:02Z</time>
      </trkpt>
      <trkpt lat="44.04927" lon="7.27511">
        <ele>822.6</ele>
        <time>2024-07-09T12:17:03Z</time>
      </trkpt>
      <trkpt lat="44.04929" lon="7.2751">
        <ele>822.8</ele>
        <time>2024-07-09T12:17:04Z</time>
      </trkpt>
      <trkpt lat="44.0493" lon="7.2751">
        <ele>822.8</ele>
        <time>2024-07-09T12:17:05Z</time>
      </trkpt>
      <trkpt lat="44.04932" lon="7.27509">
        <ele>822.8</ele>
        <time>2024-07-09T12:17:06Z</time>
      </trkpt>
      <trkpt lat="44.04934" lon="7.27508">
        <ele>823</ele>
        <time>2024-07-09T12:17:07Z</time>
      </trkpt>
      <trkpt lat="44.04936" lon="7.27507">
        <ele>823.2</ele>
        <time>2024-07-09T12:17:08Z</time>
      </trkpt>
      <trkpt lat="44.04937" lon="7.27505">
        <ele>823.2</ele>
        <time>2024-07-09T12:17:09Z</time>
      </trkpt>
      <trkpt lat="44.04939" lon="7.27503">
        <ele>823.2</ele>
        <time>2024-07-09T12:17:10Z</time>
      </trkpt>
      <trkpt lat="44.04939" lon="7.27502">
        <ele>823.2</ele>
        <time>2024-07-09T12:17:11Z</time>
      </trkpt>
      <trkpt lat="44.0494" lon="7.275">
        <ele>823.6</ele>
        <time>2024-07-09T12:17:12Z</time>
      </trkpt>
      <trkpt lat="44.04942" lon="7.27499">
        <ele>823.6</ele>
        <time>2024-07-09T12:17:13Z</time>
      </trkpt>
      <trkpt lat="44.04943" lon="7.27497">
        <ele>823.6</ele>
        <time>2024-07-09T12:17:14Z</time>
      </trkpt>
      <trkpt lat="44.04944" lon="7.27494">
        <ele>823.6</ele>
        <time>2024-07-09T12:17:15Z</time>
      </trkpt>
      <trkpt lat="44.04945" lon="7.27492">
        <ele>824</ele>
        <time>2024-07-09T12:17:16Z</time>
      </trkpt>
      <trkpt lat="44.04945" lon="7.27489">
        <ele>824.2</ele>
        <time>2024-07-09T12:17:17Z</time>
      </trkpt>
      <trkpt lat="44.04946" lon="7.27487">
        <ele>824.2</ele>
        <time>2024-07-09T12:17:18Z</time>
      </trkpt>
      <trkpt lat="44.04946" lon="7.27485">
        <ele>824.2</ele>
        <time>2024-07-09T12:17:19Z</time>
      </trkpt>
      <trkpt lat="44.04946" lon="7.27482">
        <ele>824.2</ele>
        <time>2024-07-09T12:17:20Z</time>
      </trkpt>
      <trkpt lat="44.04946" lon="7.27479">
        <ele>824.4</ele>
        <time>2024-07-09T12:17:21Z</time>
      </trkpt>
      <trkpt lat="44.04946" lon="7.27476">
        <ele>824.4</ele>
        <time>2024-07-09T12:17:22Z</time>
      </trkpt>
      <trkpt lat="44.04946" lon="7.27473">
        <ele>824.4</ele>
        <time>2024-07-09T12:17:23Z</time>
      </trkpt>
      <trkpt lat="44.04945" lon="7.2747">
        <ele>825</ele>
        <time>2024-07-09T12:17:24Z</time>
      </trkpt>
      <trkpt lat="44.04943" lon="7.27468">
        <ele>825</ele>
        <time>2024-07-09T12:17:25Z</time>
      </trkpt>
      <trkpt lat="44.04942" lon="7.27465">
        <ele>825.2</ele>
        <time>2024-07-09T12:17:26Z</time>
      </trkpt>
      <trkpt lat="44.04941" lon="7.27462">
        <ele>825.2</ele>
        <time>2024-07-09T12:17:27Z</time>
      </trkpt>
      <trkpt lat="44.04939" lon="7.27459">
        <ele>825.2</ele>
        <time>2024-07-09T12:17:28Z</time>
      </trkpt>
      <trkpt lat="44.04938" lon="7.27457">
        <ele>825.8</ele>
        <time>2024-07-09T12:17:29Z</time>
      </trkpt>
      <trkpt lat="44.04936" lon="7.27454">
        <ele>826.2</ele>
        <time>2024-07-09T12:17:30Z</time>
      </trkpt>
      <trkpt lat="44.04934" lon="7.27452">
        <ele>826.2</ele>
        <time>2024-07-09T12:17:31Z</time>
      </trkpt>
      <trkpt lat="44.04932" lon="7.2745">
        <ele>826.2</ele>
        <time>2024-07-09T12:17:32Z</time>
      </trkpt>
      <trkpt lat="44.04931" lon="7.27448">
        <ele>826.2</ele>
        <time>2024-07-09T12:17:33Z</time>
      </trkpt>
      <trkpt lat="44.04929" lon="7.27447">
        <ele>826.8</ele>
        <time>2024-07-09T12:17:34Z</time>
      </trkpt>
      <trkpt lat="44.04927" lon="7.27445">
        <ele>826.8</ele>
        <time>2024-07-09T12:17:35Z</time>
      </trkpt>
      <trkpt lat="44.04925" lon="7.27444">
        <ele>826.8</ele>
        <time>2024-07-09T12:17:36Z</time>
      </trkpt>
      <trkpt lat="44.04923" lon="7.27443">
        <ele>826.8</ele>
        <time>2024-07-09T12:17:37Z</time>
      </trkpt>
      <trkpt lat="44.04922" lon="7.27441">
        <ele>826.8</ele>
        <time>2024-07-09T12:17:38Z</time>
      </trkpt>
      <trkpt lat="44.0492" lon="7.27439">
        <ele>827</ele>
        <time>2024-07-09T12:17:39Z</time>
      </trkpt>
      <trkpt lat="44.04919" lon="7.27436">
        <ele>827</ele>
        <time>2024-07-09T12:17:40Z</time>
      </trkpt>
      <trkpt lat="44.04917" lon="7.27434">
        <ele>827</ele>
        <time>2024-07-09T12:17:41Z</time>
      </trkpt>
      <trkpt lat="44.04916" lon="7.27431">
        <ele>827.2</ele>
        <time>2024-07-09T12:17:42Z</time>
      </trkpt>
      <trkpt lat="44.04915" lon="7.27429">
        <ele>827.2</ele>
        <time>2024-07-09T12:17:43Z</time>
      </trkpt>
      <trkpt lat="44.04914" lon="7.27426">
        <ele>827.2</ele>
        <time>2024-07-09T12:17:44Z</time>
      </trkpt>
      <trkpt lat="44.04912" lon="7.27423">
        <ele>827.2</ele>
        <time>2024-07-09T12:17:45Z</time>
      </trkpt>
      <trkpt lat="44.04911" lon="7.2742">
        <ele>827.2</ele>
        <time>2024-07-09T12:17:46Z</time>
      </trkpt>
      <trkpt lat="44.0491" lon="7.27417">
        <ele>827.6</ele>
        <time>2024-07-09T12:17:47Z</time>
      </trkpt>
      <trkpt lat="44.04908" lon="7.27414">
        <ele>827.8</ele>
        <time>2024-07-09T12:17:48Z</time>
      </trkpt>
      <trkpt lat="44.04908" lon="7.27411">
        <ele>827.8</ele>
        <time>2024-07-09T12:17:49Z</time>
      </trkpt>
      <trkpt lat="44.04909" lon="7.27407">
        <ele>827.8</ele>
        <time>2024-07-09T12:17:50Z</time>
      </trkpt>
      <trkpt lat="44.04908" lon="7.27404">
        <ele>827.8</ele>
        <time>2024-07-09T12:17:51Z</time>
      </trkpt>
      <trkpt lat="44.04909" lon="7.27401">
        <ele>827.8</ele>
        <time>2024-07-09T12:17:52Z</time>
      </trkpt>
      <trkpt lat="44.0491" lon="7.27399">
        <ele>828</ele>
        <time>2024-07-09T12:17:53Z</time>
      </trkpt>
      <trkpt lat="44.04911" lon="7.27396">
        <ele>828</ele>
        <time>2024-07-09T12:17:54Z</time>
      </trkpt>
      <trkpt lat="44.04912" lon="7.27393">
        <ele>828</ele>
        <time>2024-07-09T12:17:55Z</time>
      </trkpt>
      <trkpt lat="44.04913" lon="7.2739">
        <ele>828.6</ele>
        <time>2024-07-09T12:17:56Z</time>
      </trkpt>
      <trkpt lat="44.04914" lon="7.27387">
        <ele>828.8</ele>
        <time>2024-07-09T12:17:57Z</time>
      </trkpt>
      <trkpt lat="44.04915" lon="7.27384">
        <ele>828.8</ele>
        <time>2024-07-09T12:17:58Z</time>
      </trkpt>
      <trkpt lat="44.04916" lon="7.27381">
        <ele>828.8</ele>
        <time>2024-07-09T12:17:59Z</time>
      </trkpt>
      <trkpt lat="44.04918" lon="7.27378">
        <ele>829.6</ele>
        <time>2024-07-09T12:18:00Z</time>
      </trkpt>
      <trkpt lat="44.0492" lon="7.27376">
        <ele>829.6</ele>
        <time>2024-07-09T12:18:01Z</time>
      </trkpt>
      <trkpt lat="44.04922" lon="7.27375">
        <ele>829.6</ele>
        <time>2024-07-09T12:18:02Z</time>
      </trkpt>
      <trkpt lat="44.04924" lon="7.27372">
        <ele>829.6</ele>
        <time>2024-07-09T12:18:03Z</time>
      </trkpt>
      <trkpt lat="44.04926" lon="7.2737">
        <ele>830</ele>
        <time>2024-07-09T12:18:04Z</time>
      </trkpt>
      <trkpt lat="44.04927" lon="7.27367">
        <ele>830</ele>
        <time>2024-07-09T12:18:05Z</time>
      </trkpt>
      <trkpt lat="44.04929" lon="7.27364">
        <ele>830.4</ele>
        <time>2024-07-09T12:18:06Z</time>
      </trkpt>
      <trkpt lat="44.04931" lon="7.27362">
        <ele>830.4</ele>
        <time>2024-07-09T12:18:07Z</time>
      </trkpt>
      <trkpt lat="44.04933" lon="7.2736">
        <ele>830.4</ele>
        <time>2024-07-09T12:18:08Z</time>
      </trkpt>
      <trkpt lat="44.04934" lon="7.27357">
        <ele>831</ele>
        <time>2024-07-09T12:18:09Z</time>
      </trkpt>
      <trkpt lat="44.04936" lon="7.27355">
        <ele>831</ele>
        <time>2024-07-09T12:18:10Z</time>
      </trkpt>
      <trkpt lat="44.04938" lon="7.27353">
        <ele>831</ele>
        <time>2024-07-09T12:18:11Z</time>
      </trkpt>
      <trkpt lat="44.0494" lon="7.27351">
        <ele>831</ele>
        <time>2024-07-09T12:18:12Z</time>
      </trkpt>
      <trkpt lat="44.04942" lon="7.27349">
        <ele>831.8</ele>
        <time>2024-07-09T12:18:13Z</time>
      </trkpt>
      <trkpt lat="44.04943" lon="7.27347">
        <ele>832</ele>
        <time>2024-07-09T12:18:14Z</time>
      </trkpt>
      <trkpt lat="44.04945" lon="7.27345">
        <ele>832</ele>
        <time>2024-07-09T12:18:15Z</time>
      </trkpt>
      <trkpt lat="44.04948" lon="7.27344">
        <ele>832</ele>
        <time>2024-07-09T12:18:16Z</time>
      </trkpt>
      <trkpt lat="44.0495" lon="7.27343">
        <ele>832</ele>
        <time>2024-07-09T12:18:17Z</time>
      </trkpt>
      <trkpt lat="44.04952" lon="7.27341">
        <ele>832</ele>
        <time>2024-07-09T12:18:18Z</time>
      </trkpt>
      <trkpt lat="44.04954" lon="7.2734">
        <ele>832.2</ele>
        <time>2024-07-09T12:18:19Z</time>
      </trkpt>
      <trkpt lat="44.04956" lon="7.27339">
        <ele>832.2</ele>
        <time>2024-07-09T12:18:20Z</time>
      </trkpt>
      <trkpt lat="44.04958" lon="7.27337">
        <ele>832.2</ele>
        <time>2024-07-09T12:18:21Z</time>
      </trkpt>
      <trkpt lat="44.0496" lon="7.27336">
        <ele>833</ele>
        <time>2024-07-09T12:18:22Z</time>
      </trkpt>
      <trkpt lat="44.04962" lon="7.27334">
        <ele>832.8</ele>
        <time>2024-07-09T12:18:23Z</time>
      </trkpt>
      <trkpt lat="44.04964" lon="7.27333">
        <ele>832.8</ele>
        <time>2024-07-09T12:18:24Z</time>
      </trkpt>
      <trkpt lat="44.04966" lon="7.27331">
        <ele>832.8</ele>
        <time>2024-07-09T12:18:25Z</time>
      </trkpt>
      <trkpt lat="44.04968" lon="7.2733">
        <ele>833.6</ele>
        <time>2024-07-09T12:18:26Z</time>
      </trkpt>
      <trkpt lat="44.04971" lon="7.27328">
        <ele>833.6</ele>
        <time>2024-07-09T12:18:27Z</time>
      </trkpt>
      <trkpt lat="44.04973" lon="7.27327">
        <ele>833.8</ele>
        <time>2024-07-09T12:18:28Z</time>
      </trkpt>
      <trkpt lat="44.04975" lon="7.27326">
        <ele>833.8</ele>
        <time>2024-07-09T12:18:29Z</time>
      </trkpt>
      <trkpt lat="44.04978" lon="7.27325">
        <ele>833.8</ele>
        <time>2024-07-09T12:18:30Z</time>
      </trkpt>
      <trkpt lat="44.0498" lon="7.27323">
        <ele>833.8</ele>
        <time>2024-07-09T12:18:31Z</time>
      </trkpt>
      <trkpt lat="44.04982" lon="7.27321">
        <ele>833.8</ele>
        <time>2024-07-09T12:18:32Z</time>
      </trkpt>
      <trkpt lat="44.04984" lon="7.2732">
        <ele>834.2</ele>
        <time>2024-07-09T12:18:33Z</time>
      </trkpt>
      <trkpt lat="44.04986" lon="7.27318">
        <ele>834.2</ele>
        <time>2024-07-09T12:18:34Z</time>
      </trkpt>
      <trkpt lat="44.04988" lon="7.27317">
        <ele>834.2</ele>
        <time>2024-07-09T12:18:35Z</time>
      </trkpt>
      <trkpt lat="44.0499" lon="7.27316">
        <ele>834.2</ele>
        <time>2024-07-09T12:18:36Z</time>
      </trkpt>
      <trkpt lat="44.04992" lon="7.27314">
        <ele>834.8</ele>
        <time>2024-07-09T12:18:37Z</time>
      </trkpt>
      <trkpt lat="44.04994" lon="7.27313">
        <ele>834.8</ele>
        <time>2024-07-09T12:18:38Z</time>
      </trkpt>
      <trkpt lat="44.04996" lon="7.27311">
        <ele>834.8</ele>
        <time>2024-07-09T12:18:39Z</time>
      </trkpt>
      <trkpt lat="44.04999" lon="7.2731">
        <ele>835.4</ele>
        <time>2024-07-09T12:18:40Z</time>
      </trkpt>
      <trkpt lat="44.05001" lon="7.27309">
        <ele>835.6</ele>
        <time>2024-07-09T12:18:41Z</time>
      </trkpt>
      <trkpt lat="44.05003" lon="7.27307">
        <ele>835.6</ele>
        <time>2024-07-09T12:18:42Z</time>
      </trkpt>
      <trkpt lat="44.05005" lon="7.27306">
        <ele>835.6</ele>
        <time>2024-07-09T12:18:43Z</time>
      </trkpt>
      <trkpt lat="44.05007" lon="7.27305">
        <ele>835.6</ele>
        <time>2024-07-09T12:18:44Z</time>
      </trkpt>
      <trkpt lat="44.05009" lon="7.27303">
        <ele>835.6</ele>
        <time>2024-07-09T12:18:45Z</time>
      </trkpt>
      <trkpt lat="44.05011" lon="7.27302">
        <ele>835.8</ele>
        <time>2024-07-09T12:18:46Z</time>
      </trkpt>
      <trkpt lat="44.05013" lon="7.273">
        <ele>835.8</ele>
        <time>2024-07-09T12:18:47Z</time>
      </trkpt>
      <trkpt lat="44.05015" lon="7.27299">
        <ele>835.8</ele>
        <time>2024-07-09T12:18:48Z</time>
      </trkpt>
      <trkpt lat="44.05017" lon="7.27297">
        <ele>836</ele>
        <time>2024-07-09T12:18:49Z</time>
      </trkpt>
      <trkpt lat="44.05019" lon="7.27296">
        <ele>836</ele>
        <time>2024-07-09T12:18:50Z</time>
      </trkpt>
      <trkpt lat="44.05021" lon="7.27295">
        <ele>836</ele>
        <time>2024-07-09T12:18:51Z</time>
      </trkpt>
      <trkpt lat="44.05023" lon="7.27294">
        <ele>836</ele>
        <time>2024-07-09T12:18:52Z</time>
      </trkpt>
      <trkpt lat="44.05025" lon="7.27293">
        <ele>836.2</ele>
        <time>2024-07-09T12:18:53Z</time>
      </trkpt>
      <trkpt lat="44.05027" lon="7.27291">
        <ele>836.2</ele>
        <time>2024-07-09T12:18:54Z</time>
      </trkpt>
      <trkpt lat="44.05029" lon="7.27289">
        <ele>836.2</ele>
        <time>2024-07-09T12:18:55Z</time>
      </trkpt>
      <trkpt lat="44.05031" lon="7.27288">
        <ele>836.2</ele>
        <time>2024-07-09T12:18:56Z</time>
      </trkpt>
      <trkpt lat="44.05033" lon="7.27286">
        <ele>836.2</ele>
        <time>2024-07-09T12:18:57Z</time>
      </trkpt>
      <trkpt lat="44.05035" lon="7.27285">
        <ele>836.2</ele>
        <time>2024-07-09T12:18:58Z</time>
      </trkpt>
      <trkpt lat="44.05037" lon="7.27283">
        <ele>836.2</ele>
        <time>2024-07-09T12:18:59Z</time>
      </trkpt>
      <trkpt lat="44.05039" lon="7.27282">
        <ele>836.2</ele>
        <time>2024-07-09T12:19:00Z</time>
      </trkpt>
      <trkpt lat="44.05041" lon="7.2728">
        <ele>836.4</ele>
        <time>2024-07-09T12:19:01Z</time>
      </trkpt>
      <trkpt lat="44.05043" lon="7.27279">
        <ele>836.8</ele>
        <time>2024-07-09T12:19:02Z</time>
      </trkpt>
      <trkpt lat="44.05045" lon="7.27277">
        <ele>836.8</ele>
        <time>2024-07-09T12:19:03Z</time>
      </trkpt>
      <trkpt lat="44.05047" lon="7.27275">
        <ele>836.8</ele>
        <time>2024-07-09T12:19:04Z</time>
      </trkpt>
      <trkpt lat="44.05048" lon="7.27274">
        <ele>836.8</ele>
        <time>2024-07-09T12:19:05Z</time>
      </trkpt>
      <trkpt lat="44.0505" lon="7.27272">
        <ele>837.2</ele>
        <time>2024-07-09T12:19:06Z</time>
      </trkpt>
      <trkpt lat="44.05052" lon="7.27269">
        <ele>837.4</ele>
        <time>2024-07-09T12:19:07Z</time>
      </trkpt>
      <trkpt lat="44.05054" lon="7.27267">
        <ele>837.4</ele>
        <time>2024-07-09T12:19:08Z</time>
      </trkpt>
      <trkpt lat="44.05056" lon="7.27265">
        <ele>837.4</ele>
        <time>2024-07-09T12:19:09Z</time>
      </trkpt>
      <trkpt lat="44.05057" lon="7.27263">
        <ele>837.4</ele>
        <time>2024-07-09T12:19:10Z</time>
      </trkpt>
      <trkpt lat="44.0506" lon="7.27261">
        <ele>837.8</ele>
        <time>2024-07-09T12:19:11Z</time>
      </trkpt>
      <trkpt lat="44.05061" lon="7.27259">
        <ele>838</ele>
        <time>2024-07-09T12:19:12Z</time>
      </trkpt>
      <trkpt lat="44.05063" lon="7.27256">
        <ele>838</ele>
        <time>2024-07-09T12:19:13Z</time>
      </trkpt>
      <trkpt lat="44.05065" lon="7.27254">
        <ele>838</ele>
        <time>2024-07-09T12:19:14Z</time>
      </trkpt>
      <trkpt lat="44.05067" lon="7.27252">
        <ele>838</ele>
        <time>2024-07-09T12:19:15Z</time>
      </trkpt>
      <trkpt lat="44.05069" lon="7.2725">
        <ele>838.6</ele>
        <time>2024-07-09T12:19:16Z</time>
      </trkpt>
      <trkpt lat="44.05071" lon="7.27248">
        <ele>838.4</ele>
        <time>2024-07-09T12:19:17Z</time>
      </trkpt>
      <trkpt lat="44.05074" lon="7.27246">
        <ele>838.4</ele>
        <time>2024-07-09T12:19:18Z</time>
      </trkpt>
      <trkpt lat="44.05076" lon="7.27243">
        <ele>838.4</ele>
        <time>2024-07-09T12:19:19Z</time>
      </trkpt>
      <trkpt lat="44.05078" lon="7.27241">
        <ele>838.4</ele>
        <time>2024-07-09T12:19:20Z</time>
      </trkpt>
      <trkpt lat="44.05079" lon="7.27239">
        <ele>838.2</ele>
        <time>2024-07-09T12:19:21Z</time>
      </trkpt>
      <trkpt lat="44.05081" lon="7.27237">
        <ele>838.2</ele>
        <time>2024-07-09T12:19:22Z</time>
      </trkpt>
      <trkpt lat="44.05084" lon="7.27235">
        <ele>838.2</ele>
        <time>2024-07-09T12:19:23Z</time>
      </trkpt>
      <trkpt lat="44.05086" lon="7.27233">
        <ele>839</ele>
        <time>2024-07-09T12:19:24Z</time>
      </trkpt>
      <trkpt lat="44.05088" lon="7.27231">
        <ele>839.2</ele>
        <time>2024-07-09T12:19:25Z</time>
      </trkpt>
      <trkpt lat="44.0509" lon="7.27229">
        <ele>839.2</ele>
        <time>2024-07-09T12:19:26Z</time>
      </trkpt>
      <trkpt lat="44.05092" lon="7.27227">
        <ele>839.2</ele>
        <time>2024-07-09T12:19:27Z</time>
      </trkpt>
      <trkpt lat="44.05093" lon="7.27225">
        <ele>839.8</ele>
        <time>2024-07-09T12:19:28Z</time>
      </trkpt>
      <trkpt lat="44.05095" lon="7.27223">
        <ele>839.8</ele>
        <time>2024-07-09T12:19:29Z</time>
      </trkpt>
      <trkpt lat="44.05097" lon="7.2722">
        <ele>839.8</ele>
        <time>2024-07-09T12:19:30Z</time>
      </trkpt>
      <trkpt lat="44.05098" lon="7.27217">
        <ele>839.8</ele>
        <time>2024-07-09T12:19:31Z</time>
      </trkpt>
      <trkpt lat="44.051" lon="7.27215">
        <ele>839.8</ele>
        <time>2024-07-09T12:19:32Z</time>
      </trkpt>
      <trkpt lat="44.05101" lon="7.27213">
        <ele>840.6</ele>
        <time>2024-07-09T12:19:33Z</time>
      </trkpt>
      <trkpt lat="44.05103" lon="7.2721">
        <ele>840.8</ele>
        <time>2024-07-09T12:19:34Z</time>
      </trkpt>
      <trkpt lat="44.05104" lon="7.27207">
        <ele>840.8</ele>
        <time>2024-07-09T12:19:35Z</time>
      </trkpt>
      <trkpt lat="44.05106" lon="7.27206">
        <ele>840.8</ele>
        <time>2024-07-09T12:19:36Z</time>
      </trkpt>
      <trkpt lat="44.05108" lon="7.27204">
        <ele>841.2</ele>
        <time>2024-07-09T12:19:37Z</time>
      </trkpt>
      <trkpt lat="44.05109" lon="7.27202">
        <ele>841.4</ele>
        <time>2024-07-09T12:19:38Z</time>
      </trkpt>
      <trkpt lat="44.05111" lon="7.272">
        <ele>841.4</ele>
        <time>2024-07-09T12:19:39Z</time>
      </trkpt>
      <trkpt lat="44.05113" lon="7.27197">
        <ele>841.4</ele>
        <time>2024-07-09T12:19:40Z</time>
      </trkpt>
      <trkpt lat="44.05114" lon="7.27194">
        <ele>841.4</ele>
        <time>2024-07-09T12:19:41Z</time>
      </trkpt>
      <trkpt lat="44.05116" lon="7.27192">
        <ele>842</ele>
        <time>2024-07-09T12:19:42Z</time>
      </trkpt>
      <trkpt lat="44.05118" lon="7.2719">
        <ele>842.2</ele>
        <time>2024-07-09T12:19:43Z</time>
      </trkpt>
      <trkpt lat="44.05119" lon="7.27187">
        <ele>842.2</ele>
        <time>2024-07-09T12:19:44Z</time>
      </trkpt>
      <trkpt lat="44.0512" lon="7.27185">
        <ele>842.2</ele>
        <time>2024-07-09T12:19:45Z</time>
      </trkpt>
      <trkpt lat="44.05122" lon="7.27183">
        <ele>842.8</ele>
        <time>2024-07-09T12:19:46Z</time>
      </trkpt>
      <trkpt lat="44.05123" lon="7.2718">
        <ele>843</ele>
        <time>2024-07-09T12:19:47Z</time>
      </trkpt>
      <trkpt lat="44.05124" lon="7.27178">
        <ele>843</ele>
        <time>2024-07-09T12:19:48Z</time>
      </trkpt>
      <trkpt lat="44.05125" lon="7.27175">
        <ele>843</ele>
        <time>2024-07-09T12:19:49Z</time>
      </trkpt>
      <trkpt lat="44.05127" lon="7.27173">
        <ele>843.4</ele>
        <time>2024-07-09T12:19:50Z</time>
      </trkpt>
      <trkpt lat="44.05129" lon="7.27171">
        <ele>843.4</ele>
        <time>2024-07-09T12:19:51Z</time>
      </trkpt>
      <trkpt lat="44.0513" lon="7.27169">
        <ele>843.4</ele>
        <time>2024-07-09T12:19:52Z</time>
      </trkpt>
      <trkpt lat="44.05132" lon="7.27166">
        <ele>843.4</ele>
        <time>2024-07-09T12:19:53Z</time>
      </trkpt>
      <trkpt lat="44.05133" lon="7.27164">
        <ele>843.4</ele>
        <time>2024-07-09T12:19:54Z</time>
      </trkpt>
      <trkpt lat="44.05134" lon="7.27161">
        <ele>843.4</ele>
        <time>2024-07-09T12:19:55Z</time>
      </trkpt>
      <trkpt lat="44.05135" lon="7.27158">
        <ele>844</ele>
        <time>2024-07-09T12:19:56Z</time>
      </trkpt>
      <trkpt lat="44.05137" lon="7.27156">
        <ele>844.2</ele>
        <time>2024-07-09T12:19:57Z</time>
      </trkpt>
      <trkpt lat="44.05138" lon="7.27153">
        <ele>844.2</ele>
        <time>2024-07-09T12:19:58Z</time>
      </trkpt>
      <trkpt lat="44.05139" lon="7.2715">
        <ele>844.2</ele>
        <time>2024-07-09T12:19:59Z</time>
      </trkpt>
      <trkpt lat="44.0514" lon="7.27147">
        <ele>844.2</ele>
        <time>2024-07-09T12:20:00Z</time>
      </trkpt>
      <trkpt lat="44.05141" lon="7.27145">
        <ele>844.4</ele>
        <time>2024-07-09T12:20:01Z</time>
      </trkpt>
      <trkpt lat="44.05142" lon="7.27143">
        <ele>844.4</ele>
        <time>2024-07-09T12:20:02Z</time>
      </trkpt>
      <trkpt lat="44.05144" lon="7.2714">
        <ele>844.4</ele>
        <time>2024-07-09T12:20:03Z</time>
      </trkpt>
      <trkpt lat="44.05145" lon="7.27137">
        <ele>845</ele>
        <time>2024-07-09T12:20:04Z</time>
      </trkpt>
      <trkpt lat="44.05145" lon="7.27134">
        <ele>845.2</ele>
        <time>2024-07-09T12:20:05Z</time>
      </trkpt>
      <trkpt lat="44.05147" lon="7.27133">
        <ele>845.2</ele>
        <time>2024-07-09T12:20:06Z</time>
      </trkpt>
      <trkpt lat="44.05148" lon="7.27131">
        <ele>845.2</ele>
        <time>2024-07-09T12:20:07Z</time>
      </trkpt>
      <trkpt lat="44.05149" lon="7.27128">
        <ele>845.2</ele>
        <time>2024-07-09T12:20:08Z</time>
      </trkpt>
      <trkpt lat="44.05151" lon="7.27126">
        <ele>845.4</ele>
        <time>2024-07-09T12:20:09Z</time>
      </trkpt>
      <trkpt lat="44.05152" lon="7.27124">
        <ele>845.6</ele>
        <time>2024-07-09T12:20:10Z</time>
      </trkpt>
      <trkpt lat="44.05154" lon="7.27121">
        <ele>845.6</ele>
        <time>2024-07-09T12:20:11Z</time>
      </trkpt>
      <trkpt lat="44.05155" lon="7.27119">
        <ele>845.6</ele>
        <time>2024-07-09T12:20:12Z</time>
      </trkpt>
      <trkpt lat="44.05156" lon="7.27116">
        <ele>846</ele>
        <time>2024-07-09T12:20:13Z</time>
      </trkpt>
      <trkpt lat="44.05158" lon="7.27114">
        <ele>846.2</ele>
        <time>2024-07-09T12:20:14Z</time>
      </trkpt>
      <trkpt lat="44.05159" lon="7.27111">
        <ele>846.2</ele>
        <time>2024-07-09T12:20:15Z</time>
      </trkpt>
      <trkpt lat="44.0516" lon="7.27108">
        <ele>846.2</ele>
        <time>2024-07-09T12:20:16Z</time>
      </trkpt>
      <trkpt lat="44.05162" lon="7.27106">
        <ele>846.8</ele>
        <time>2024-07-09T12:20:17Z</time>
      </trkpt>
      <trkpt lat="44.05163" lon="7.27104">
        <ele>846.8</ele>
        <time>2024-07-09T12:20:18Z</time>
      </trkpt>
      <trkpt lat="44.05165" lon="7.27101">
        <ele>846.8</ele>
        <time>2024-07-09T12:20:19Z</time>
      </trkpt>
      <trkpt lat="44.05167" lon="7.27099">
        <ele>846.8</ele>
        <time>2024-07-09T12:20:20Z</time>
      </trkpt>
      <trkpt lat="44.05169" lon="7.27097">
        <ele>846.8</ele>
        <time>2024-07-09T12:20:21Z</time>
      </trkpt>
      <trkpt lat="44.05171" lon="7.27095">
        <ele>847.4</ele>
        <time>2024-07-09T12:20:22Z</time>
      </trkpt>
      <trkpt lat="44.05172" lon="7.27093">
        <ele>847.4</ele>
        <time>2024-07-09T12:20:23Z</time>
      </trkpt>
      <trkpt lat="44.05174" lon="7.2709">
        <ele>847.4</ele>
        <time>2024-07-09T12:20:24Z</time>
      </trkpt>
      <trkpt lat="44.05176" lon="7.27088">
        <ele>847.4</ele>
        <time>2024-07-09T12:20:25Z</time>
      </trkpt>
      <trkpt lat="44.05178" lon="7.27086">
        <ele>848</ele>
        <time>2024-07-09T12:20:26Z</time>
      </trkpt>
      <trkpt lat="44.05179" lon="7.27084">
        <ele>848</ele>
        <time>2024-07-09T12:20:27Z</time>
      </trkpt>
      <trkpt lat="44.05181" lon="7.27082">
        <ele>848</ele>
        <time>2024-07-09T12:20:28Z</time>
      </trkpt>
      <trkpt lat="44.05182" lon="7.2708">
        <ele>848</ele>
        <time>2024-07-09T12:20:29Z</time>
      </trkpt>
      <trkpt lat="44.05184" lon="7.27078">
        <ele>848</ele>
        <time>2024-07-09T12:20:30Z</time>
      </trkpt>
      <trkpt lat="44.05186" lon="7.27076">
        <ele>848.6</ele>
        <time>2024-07-09T12:20:31Z</time>
      </trkpt>
      <trkpt lat="44.05188" lon="7.27074">
        <ele>849</ele>
        <time>2024-07-09T12:20:32Z</time>
      </trkpt>
      <trkpt lat="44.0519" lon="7.27073">
        <ele>849</ele>
        <time>2024-07-09T12:20:33Z</time>
      </trkpt>
      <trkpt lat="44.05192" lon="7.27071">
        <ele>849</ele>
        <time>2024-07-09T12:20:34Z</time>
      </trkpt>
      <trkpt lat="44.05194" lon="7.27069">
        <ele>849</ele>
        <time>2024-07-09T12:20:35Z</time>
      </trkpt>
      <trkpt lat="44.05196" lon="7.27068">
        <ele>849.2</ele>
        <time>2024-07-09T12:20:36Z</time>
      </trkpt>
      <trkpt lat="44.05198" lon="7.27066">
        <ele>849.2</ele>
        <time>2024-07-09T12:20:37Z</time>
      </trkpt>
      <trkpt lat="44.052" lon="7.27064">
        <ele>849.2</ele>
        <time>2024-07-09T12:20:38Z</time>
      </trkpt>
      <trkpt lat="44.05201" lon="7.27062">
        <ele>849.2</ele>
        <time>2024-07-09T12:20:39Z</time>
      </trkpt>
      <trkpt lat="44.05203" lon="7.27059">
        <ele>849.2</ele>
        <time>2024-07-09T12:20:40Z</time>
      </trkpt>
      <trkpt lat="44.05205" lon="7.27058">
        <ele>850</ele>
        <time>2024-07-09T12:20:41Z</time>
      </trkpt>
      <trkpt lat="44.05206" lon="7.27056">
        <ele>850</ele>
        <time>2024-07-09T12:20:42Z</time>
      </trkpt>
      <trkpt lat="44.05208" lon="7.27054">
        <ele>850</ele>
        <time>2024-07-09T12:20:43Z</time>
      </trkpt>
      <trkpt lat="44.0521" lon="7.27051">
        <ele>850</ele>
        <time>2024-07-09T12:20:44Z</time>
      </trkpt>
      <trkpt lat="44.05211" lon="7.27049">
        <ele>850</ele>
        <time>2024-07-09T12:20:45Z</time>
      </trkpt>
      <trkpt lat="44.05213" lon="7.27046">
        <ele>850.2</ele>
        <time>2024-07-09T12:20:46Z</time>
      </trkpt>
      <trkpt lat="44.05214" lon="7.27044">
        <ele>850.2</ele>
        <time>2024-07-09T12:20:47Z</time>
      </trkpt>
      <trkpt lat="44.05216" lon="7.27042">
        <ele>850.2</ele>
        <time>2024-07-09T12:20:48Z</time>
      </trkpt>
      <trkpt lat="44.05217" lon="7.27041">
        <ele>850.8</ele>
        <time>2024-07-09T12:20:49Z</time>
      </trkpt>
      <trkpt lat="44.05218" lon="7.27038">
        <ele>850.8</ele>
        <time>2024-07-09T12:20:50Z</time>
      </trkpt>
      <trkpt lat="44.05219" lon="7.27035">
        <ele>850.8</ele>
        <time>2024-07-09T12:20:51Z</time>
      </trkpt>
      <trkpt lat="44.05221" lon="7.27033">
        <ele>850.8</ele>
        <time>2024-07-09T12:20:52Z</time>
      </trkpt>
      <trkpt lat="44.05223" lon="7.27031">
        <ele>851.6</ele>
        <time>2024-07-09T12:20:53Z</time>
      </trkpt>
      <trkpt lat="44.05224" lon="7.27028">
        <ele>851.6</ele>
        <time>2024-07-09T12:20:54Z</time>
      </trkpt>
      <trkpt lat="44.05226" lon="7.27026">
        <ele>851.4</ele>
        <time>2024-07-09T12:20:55Z</time>
      </trkpt>
      <trkpt lat="44.05228" lon="7.27025">
        <ele>851.4</ele>
        <time>2024-07-09T12:20:56Z</time>
      </trkpt>
      <trkpt lat="44.05229" lon="7.27023">
        <ele>851.4</ele>
        <time>2024-07-09T12:20:57Z</time>
      </trkpt>
      <trkpt lat="44.05231" lon="7.27021">
        <ele>852.2</ele>
        <time>2024-07-09T12:20:58Z</time>
      </trkpt>
      <trkpt lat="44.05233" lon="7.27019">
        <ele>852</ele>
        <time>2024-07-09T12:20:59Z</time>
      </trkpt>
      <trkpt lat="44.05234" lon="7.27017">
        <ele>852</ele>
        <time>2024-07-09T12:21:00Z</time>
      </trkpt>
      <trkpt lat="44.05235" lon="7.27014">
        <ele>852</ele>
        <time>2024-07-09T12:21:01Z</time>
      </trkpt>
      <trkpt lat="44.05236" lon="7.27011">
        <ele>852.4</ele>
        <time>2024-07-09T12:21:02Z</time>
      </trkpt>
      <trkpt lat="44.05237" lon="7.27009">
        <ele>852.6</ele>
        <time>2024-07-09T12:21:03Z</time>
      </trkpt>
      <trkpt lat="44.05238" lon="7.27006">
        <ele>852.6</ele>
        <time>2024-07-09T12:21:04Z</time>
      </trkpt>
      <trkpt lat="44.05239" lon="7.27002">
        <ele>852.6</ele>
        <time>2024-07-09T12:21:05Z</time>
      </trkpt>
      <trkpt lat="44.0524" lon="7.26999">
        <ele>852.6</ele>
        <time>2024-07-09T12:21:06Z</time>
      </trkpt>
      <trkpt lat="44.05242" lon="7.26996">
        <ele>852.8</ele>
        <time>2024-07-09T12:21:07Z</time>
      </trkpt>
      <trkpt lat="44.05243" lon="7.26993">
        <ele>853</ele>
        <time>2024-07-09T12:21:08Z</time>
      </trkpt>
      <trkpt lat="44.05244" lon="7.26989">
        <ele>853</ele>
        <time>2024-07-09T12:21:09Z</time>
      </trkpt>
      <trkpt lat="44.05245" lon="7.26985">
        <ele>853</ele>
        <time>2024-07-09T12:21:10Z</time>
      </trkpt>
      <trkpt lat="44.05246" lon="7.26981">
        <ele>853</ele>
        <time>2024-07-09T12:21:11Z</time>
      </trkpt>
      <trkpt lat="44.05247" lon="7.26978">
        <ele>853.2</ele>
        <time>2024-07-09T12:21:12Z</time>
      </trkpt>
      <trkpt lat="44.05248" lon="7.26975">
        <ele>853.2</ele>
        <time>2024-07-09T12:21:13Z</time>
      </trkpt>
      <trkpt lat="44.0525" lon="7.26972">
        <ele>853.2</ele>
        <time>2024-07-09T12:21:14Z</time>
      </trkpt>
      <trkpt lat="44.05252" lon="7.26968">
        <ele>853.2</ele>
        <time>2024-07-09T12:21:15Z</time>
      </trkpt>
      <trkpt lat="44.05253" lon="7.26965">
        <ele>853.4</ele>
        <time>2024-07-09T12:21:16Z</time>
      </trkpt>
      <trkpt lat="44.05254" lon="7.26961">
        <ele>853.4</ele>
        <time>2024-07-09T12:21:17Z</time>
      </trkpt>
      <trkpt lat="44.05256" lon="7.26958">
        <ele>853.4</ele>
        <time>2024-07-09T12:21:18Z</time>
      </trkpt>
      <trkpt lat="44.05258" lon="7.26954">
        <ele>853.4</ele>
        <time>2024-07-09T12:21:19Z</time>
      </trkpt>
      <trkpt lat="44.05259" lon="7.26951">
        <ele>853.4</ele>
        <time>2024-07-09T12:21:20Z</time>
      </trkpt>
      <trkpt lat="44.0526" lon="7.26946">
        <ele>853.8</ele>
        <time>2024-07-09T12:21:21Z</time>
      </trkpt>
      <trkpt lat="44.05261" lon="7.26942">
        <ele>853.8</ele>
        <time>2024-07-09T12:21:22Z</time>
      </trkpt>
      <trkpt lat="44.05263" lon="7.26938">
        <ele>853.8</ele>
        <time>2024-07-09T12:21:23Z</time>
      </trkpt>
      <trkpt lat="44.05264" lon="7.26934">
        <ele>853.8</ele>
        <time>2024-07-09T12:21:24Z</time>
      </trkpt>
      <trkpt lat="44.05265" lon="7.2693">
        <ele>854</ele>
        <time>2024-07-09T12:21:25Z</time>
      </trkpt>
      <trkpt lat="44.05266" lon="7.26926">
        <ele>854.2</ele>
        <time>2024-07-09T12:21:26Z</time>
      </trkpt>
      <trkpt lat="44.05267" lon="7.26922">
        <ele>854.2</ele>
        <time>2024-07-09T12:21:27Z</time>
      </trkpt>
      <trkpt lat="44.05268" lon="7.26918">
        <ele>854.2</ele>
        <time>2024-07-09T12:21:28Z</time>
      </trkpt>
      <trkpt lat="44.05268" lon="7.26913">
        <ele>854.2</ele>
        <time>2024-07-09T12:21:29Z</time>
      </trkpt>
      <trkpt lat="44.05269" lon="7.26909">
        <ele>854.4</ele>
        <time>2024-07-09T12:21:30Z</time>
      </trkpt>
      <trkpt lat="44.0527" lon="7.26905">
        <ele>854.4</ele>
        <time>2024-07-09T12:21:31Z</time>
      </trkpt>
      <trkpt lat="44.05271" lon="7.26901">
        <ele>854.4</ele>
        <time>2024-07-09T12:21:32Z</time>
      </trkpt>
      <trkpt lat="44.05271" lon="7.26897">
        <ele>854.4</ele>
        <time>2024-07-09T12:21:33Z</time>
      </trkpt>
      <trkpt lat="44.05272" lon="7.26894">
        <ele>854.8</ele>
        <time>2024-07-09T12:21:34Z</time>
      </trkpt>
      <trkpt lat="44.05273" lon="7.2689">
        <ele>854.8</ele>
        <time>2024-07-09T12:21:35Z</time>
      </trkpt>
      <trkpt lat="44.05274" lon="7.26886">
        <ele>854.8</ele>
        <time>2024-07-09T12:21:36Z</time>
      </trkpt>
      <trkpt lat="44.05275" lon="7.26883">
        <ele>854.8</ele>
        <time>2024-07-09T12:21:37Z</time>
      </trkpt>
      <trkpt lat="44.05275" lon="7.26879">
        <ele>855.2</ele>
        <time>2024-07-09T12:21:38Z</time>
      </trkpt>
      <trkpt lat="44.05276" lon="7.26875">
        <ele>855.2</ele>
        <time>2024-07-09T12:21:39Z</time>
      </trkpt>
      <trkpt lat="44.05277" lon="7.26871">
        <ele>855.2</ele>
        <time>2024-07-09T12:21:40Z</time>
      </trkpt>
      <trkpt lat="44.05278" lon="7.26868">
        <ele>855.2</ele>
        <time>2024-07-09T12:21:41Z</time>
      </trkpt>
      <trkpt lat="44.05278" lon="7.26864">
        <ele>855.6</ele>
        <time>2024-07-09T12:21:42Z</time>
      </trkpt>
      <trkpt lat="44.05279" lon="7.2686">
        <ele>855.8</ele>
        <time>2024-07-09T12:21:43Z</time>
      </trkpt>
      <trkpt lat="44.05281" lon="7.26856">
        <ele>855.8</ele>
        <time>2024-07-09T12:21:44Z</time>
      </trkpt>
      <trkpt lat="44.05282" lon="7.26852">
        <ele>855.8</ele>
        <time>2024-07-09T12:21:45Z</time>
      </trkpt>
      <trkpt lat="44.05283" lon="7.26848">
        <ele>855.8</ele>
        <time>2024-07-09T12:21:46Z</time>
      </trkpt>
      <trkpt lat="44.05284" lon="7.26844">
        <ele>856</ele>
        <time>2024-07-09T12:21:47Z</time>
      </trkpt>
      <trkpt lat="44.05286" lon="7.26841">
        <ele>856</ele>
        <time>2024-07-09T12:21:48Z</time>
      </trkpt>
      <trkpt lat="44.05287" lon="7.26837">
        <ele>856</ele>
        <time>2024-07-09T12:21:49Z</time>
      </trkpt>
      <trkpt lat="44.05289" lon="7.26833">
        <ele>856</ele>
        <time>2024-07-09T12:21:50Z</time>
      </trkpt>
      <trkpt lat="44.05289" lon="7.26829">
        <ele>856.4</ele>
        <time>2024-07-09T12:21:51Z</time>
      </trkpt>
      <trkpt lat="44.0529" lon="7.26825">
        <ele>856.6</ele>
        <time>2024-07-09T12:21:52Z</time>
      </trkpt>
      <trkpt lat="44.05291" lon="7.26822">
        <ele>856.6</ele>
        <time>2024-07-09T12:21:53Z</time>
      </trkpt>
      <trkpt lat="44.05292" lon="7.26818">
        <ele>856.6</ele>
        <time>2024-07-09T12:21:54Z</time>
      </trkpt>
      <trkpt lat="44.05293" lon="7.26815">
        <ele>856.8</ele>
        <time>2024-07-09T12:21:55Z</time>
      </trkpt>
      <trkpt lat="44.05294" lon="7.26812">
        <ele>856.8</ele>
        <time>2024-07-09T12:21:56Z</time>
      </trkpt>
      <trkpt lat="44.05296" lon="7.26809">
        <ele>857</ele>
        <time>2024-07-09T12:21:57Z</time>
      </trkpt>
      <trkpt lat="44.05296" lon="7.26805">
        <ele>857</ele>
        <time>2024-07-09T12:21:58Z</time>
      </trkpt>
      <trkpt lat="44.05297" lon="7.26802">
        <ele>857</ele>
        <time>2024-07-09T12:21:59Z</time>
      </trkpt>
      <trkpt lat="44.05298" lon="7.26798">
        <ele>857</ele>
        <time>2024-07-09T12:22:00Z</time>
      </trkpt>
      <trkpt lat="44.05299" lon="7.26794">
        <ele>857</ele>
        <time>2024-07-09T12:22:01Z</time>
      </trkpt>
      <trkpt lat="44.053" lon="7.2679">
        <ele>857.4</ele>
        <time>2024-07-09T12:22:02Z</time>
      </trkpt>
      <trkpt lat="44.05301" lon="7.26787">
        <ele>857.4</ele>
        <time>2024-07-09T12:22:03Z</time>
      </trkpt>
      <trkpt lat="44.05301" lon="7.26783">
        <ele>857.4</ele>
        <time>2024-07-09T12:22:04Z</time>
      </trkpt>
      <trkpt lat="44.05302" lon="7.26779">
        <ele>857.4</ele>
        <time>2024-07-09T12:22:05Z</time>
      </trkpt>
      <trkpt lat="44.05302" lon="7.26775">
        <ele>857.8</ele>
        <time>2024-07-09T12:22:06Z</time>
      </trkpt>
      <trkpt lat="44.05302" lon="7.26771">
        <ele>857.8</ele>
        <time>2024-07-09T12:22:07Z</time>
      </trkpt>
      <trkpt lat="44.05303" lon="7.26767">
        <ele>857.8</ele>
        <time>2024-07-09T12:22:08Z</time>
      </trkpt>
      <trkpt lat="44.05303" lon="7.26764">
        <ele>857.8</ele>
        <time>2024-07-09T12:22:09Z</time>
      </trkpt>
      <trkpt lat="44.05303" lon="7.2676">
        <ele>858</ele>
        <time>2024-07-09T12:22:10Z</time>
      </trkpt>
      <trkpt lat="44.05304" lon="7.26756">
        <ele>858.2</ele>
        <time>2024-07-09T12:22:11Z</time>
      </trkpt>
      <trkpt lat="44.05305" lon="7.26753">
        <ele>858.2</ele>
        <time>2024-07-09T12:22:12Z</time>
      </trkpt>
      <trkpt lat="44.05305" lon="7.26749">
        <ele>858.2</ele>
        <time>2024-07-09T12:22:13Z</time>
      </trkpt>
      <trkpt lat="44.05306" lon="7.26746">
        <ele>858.4</ele>
        <time>2024-07-09T12:22:14Z</time>
      </trkpt>
      <trkpt lat="44.05306" lon="7.26742">
        <ele>858.6</ele>
        <time>2024-07-09T12:22:15Z</time>
      </trkpt>
      <trkpt lat="44.05306" lon="7.26738">
        <ele>858.6</ele>
        <time>2024-07-09T12:22:16Z</time>
      </trkpt>
      <trkpt lat="44.05307" lon="7.26734">
        <ele>858.6</ele>
        <time>2024-07-09T12:22:17Z</time>
      </trkpt>
      <trkpt lat="44.05307" lon="7.2673">
        <ele>859</ele>
        <time>2024-07-09T12:22:18Z</time>
      </trkpt>
      <trkpt lat="44.05308" lon="7.26727">
        <ele>859.2</ele>
        <time>2024-07-09T12:22:19Z</time>
      </trkpt>
      <trkpt lat="44.05309" lon="7.26723">
        <ele>859.2</ele>
        <time>2024-07-09T12:22:20Z</time>
      </trkpt>
      <trkpt lat="44.05309" lon="7.2672">
        <ele>859.2</ele>
        <time>2024-07-09T12:22:21Z</time>
      </trkpt>
      <trkpt lat="44.0531" lon="7.26716">
        <ele>859.2</ele>
        <time>2024-07-09T12:22:22Z</time>
      </trkpt>
      <trkpt lat="44.05311" lon="7.26712">
        <ele>859.6</ele>
        <time>2024-07-09T12:22:23Z</time>
      </trkpt>
      <trkpt lat="44.05311" lon="7.26708">
        <ele>859.6</ele>
        <time>2024-07-09T12:22:24Z</time>
      </trkpt>
      <trkpt lat="44.05312" lon="7.26704">
        <ele>859.6</ele>
        <time>2024-07-09T12:22:25Z</time>
      </trkpt>
      <trkpt lat="44.05313" lon="7.26701">
        <ele>859.6</ele>
        <time>2024-07-09T12:22:26Z</time>
      </trkpt>
      <trkpt lat="44.05314" lon="7.26697">
        <ele>860</ele>
        <time>2024-07-09T12:22:27Z</time>
      </trkpt>
      <trkpt lat="44.05314" lon="7.26694">
        <ele>860.2</ele>
        <time>2024-07-09T12:22:28Z</time>
      </trkpt>
      <trkpt lat="44.05316" lon="7.26691">
        <ele>860.2</ele>
        <time>2024-07-09T12:22:29Z</time>
      </trkpt>
      <trkpt lat="44.05317" lon="7.26688">
        <ele>860.2</ele>
        <time>2024-07-09T12:22:30Z</time>
      </trkpt>
      <trkpt lat="44.05318" lon="7.26684">
        <ele>860.6</ele>
        <time>2024-07-09T12:22:31Z</time>
      </trkpt>
      <trkpt lat="44.05319" lon="7.2668">
        <ele>860.6</ele>
        <time>2024-07-09T12:22:32Z</time>
      </trkpt>
      <trkpt lat="44.05321" lon="7.26677">
        <ele>860.6</ele>
        <time>2024-07-09T12:22:33Z</time>
      </trkpt>
      <trkpt lat="44.05322" lon="7.26673">
        <ele>860.6</ele>
        <time>2024-07-09T12:22:34Z</time>
      </trkpt>
      <trkpt lat="44.05324" lon="7.2667">
        <ele>860.6</ele>
        <time>2024-07-09T12:22:35Z</time>
      </trkpt>
      <trkpt lat="44.05326" lon="7.26668">
        <ele>860.6</ele>
        <time>2024-07-09T12:22:36Z</time>
      </trkpt>
      <trkpt lat="44.05327" lon="7.26664">
        <ele>861</ele>
        <time>2024-07-09T12:22:37Z</time>
      </trkpt>
      <trkpt lat="44.05328" lon="7.2666">
        <ele>861</ele>
        <time>2024-07-09T12:22:38Z</time>
      </trkpt>
      <trkpt lat="44.0533" lon="7.26658">
        <ele>861</ele>
        <time>2024-07-09T12:22:39Z</time>
      </trkpt>
      <trkpt lat="44.05331" lon="7.26655">
        <ele>861.2</ele>
        <time>2024-07-09T12:22:40Z</time>
      </trkpt>
      <trkpt lat="44.05333" lon="7.26652">
        <ele>861</ele>
        <time>2024-07-09T12:22:41Z</time>
      </trkpt>
      <trkpt lat="44.05335" lon="7.26649">
        <ele>861</ele>
        <time>2024-07-09T12:22:42Z</time>
      </trkpt>
      <trkpt lat="44.05337" lon="7.26647">
        <ele>861</ele>
        <time>2024-07-09T12:22:43Z</time>
      </trkpt>
      <trkpt lat="44.05339" lon="7.26644">
        <ele>861</ele>
        <time>2024-07-09T12:22:44Z</time>
      </trkpt>
      <trkpt lat="44.05341" lon="7.26641">
        <ele>861</ele>
        <time>2024-07-09T12:22:45Z</time>
      </trkpt>
      <trkpt lat="44.05343" lon="7.26639">
        <ele>861.6</ele>
        <time>2024-07-09T12:22:46Z</time>
      </trkpt>
      <trkpt lat="44.05345" lon="7.26636">
        <ele>861.8</ele>
        <time>2024-07-09T12:22:47Z</time>
      </trkpt>
      <trkpt lat="44.05347" lon="7.26634">
        <ele>861.8</ele>
        <time>2024-07-09T12:22:48Z</time>
      </trkpt>
      <trkpt lat="44.05349" lon="7.26631">
        <ele>861.8</ele>
        <time>2024-07-09T12:22:49Z</time>
      </trkpt>
      <trkpt lat="44.05351" lon="7.26629">
        <ele>862.4</ele>
        <time>2024-07-09T12:22:50Z</time>
      </trkpt>
      <trkpt lat="44.05353" lon="7.26626">
        <ele>862.4</ele>
        <time>2024-07-09T12:22:51Z</time>
      </trkpt>
      <trkpt lat="44.05355" lon="7.26624">
        <ele>862.4</ele>
        <time>2024-07-09T12:22:52Z</time>
      </trkpt>
      <trkpt lat="44.05358" lon="7.26621">
        <ele>862.4</ele>
        <time>2024-07-09T12:22:53Z</time>
      </trkpt>
      <trkpt lat="44.0536" lon="7.26619">
        <ele>862.6</ele>
        <time>2024-07-09T12:22:54Z</time>
      </trkpt>
      <trkpt lat="44.05362" lon="7.26616">
        <ele>862.6</ele>
        <time>2024-07-09T12:22:55Z</time>
      </trkpt>
      <trkpt lat="44.05364" lon="7.26613">
        <ele>862.6</ele>
        <time>2024-07-09T12:22:56Z</time>
      </trkpt>
      <trkpt lat="44.05366" lon="7.26611">
        <ele>862.6</ele>
        <time>2024-07-09T12:22:57Z</time>
      </trkpt>
      <trkpt lat="44.05368" lon="7.26608">
        <ele>862.6</ele>
        <time>2024-07-09T12:22:58Z</time>
      </trkpt>
      <trkpt lat="44.0537" lon="7.26606">
        <ele>862.6</ele>
        <time>2024-07-09T12:22:59Z</time>
      </trkpt>
      <trkpt lat="44.05372" lon="7.26603">
        <ele>862.6</ele>
        <time>2024-07-09T12:23:00Z</time>
      </trkpt>
      <trkpt lat="44.05375" lon="7.26601">
        <ele>862.6</ele>
        <time>2024-07-09T12:23:01Z</time>
      </trkpt>
      <trkpt lat="44.05377" lon="7.26598">
        <ele>862.6</ele>
        <time>2024-07-09T12:23:02Z</time>
      </trkpt>
      <trkpt lat="44.0538" lon="7.26596">
        <ele>862.8</ele>
        <time>2024-07-09T12:23:03Z</time>
      </trkpt>
      <trkpt lat="44.05382" lon="7.26593">
        <ele>862.8</ele>
        <time>2024-07-09T12:23:04Z</time>
      </trkpt>
      <trkpt lat="44.05384" lon="7.26591">
        <ele>862.8</ele>
        <time>2024-07-09T12:23:05Z</time>
      </trkpt>
      <trkpt lat="44.05387" lon="7.26589">
        <ele>862.8</ele>
        <time>2024-07-09T12:23:06Z</time>
      </trkpt>
      <trkpt lat="44.05389" lon="7.26586">
        <ele>863</ele>
        <time>2024-07-09T12:23:07Z</time>
      </trkpt>
      <trkpt lat="44.05392" lon="7.26584">
        <ele>863.2</ele>
        <time>2024-07-09T12:23:08Z</time>
      </trkpt>
      <trkpt lat="44.05395" lon="7.26582">
        <ele>863.2</ele>
        <time>2024-07-09T12:23:09Z</time>
      </trkpt>
      <trkpt lat="44.05397" lon="7.2658">
        <ele>863.2</ele>
        <time>2024-07-09T12:23:10Z</time>
      </trkpt>
      <trkpt lat="44.054" lon="7.26578">
        <ele>863.2</ele>
        <time>2024-07-09T12:23:11Z</time>
      </trkpt>
      <trkpt lat="44.05402" lon="7.26575">
        <ele>863.4</ele>
        <time>2024-07-09T12:23:12Z</time>
      </trkpt>
      <trkpt lat="44.05404" lon="7.26573">
        <ele>863.4</ele>
        <time>2024-07-09T12:23:13Z</time>
      </trkpt>
      <trkpt lat="44.05407" lon="7.26571">
        <ele>863.4</ele>
        <time>2024-07-09T12:23:14Z</time>
      </trkpt>
      <trkpt lat="44.0541" lon="7.2657">
        <ele>863.4</ele>
        <time>2024-07-09T12:23:15Z</time>
      </trkpt>
      <trkpt lat="44.05412" lon="7.26568">
        <ele>863.6</ele>
        <time>2024-07-09T12:23:16Z</time>
      </trkpt>
      <trkpt lat="44.05414" lon="7.26567">
        <ele>863.8</ele>
        <time>2024-07-09T12:23:17Z</time>
      </trkpt>
      <trkpt lat="44.05416" lon="7.26565">
        <ele>863.8</ele>
        <time>2024-07-09T12:23:18Z</time>
      </trkpt>
      <trkpt lat="44.05419" lon="7.26563">
        <ele>863.8</ele>
        <time>2024-07-09T12:23:19Z</time>
      </trkpt>
      <trkpt lat="44.05421" lon="7.26562">
        <ele>863.8</ele>
        <time>2024-07-09T12:23:20Z</time>
      </trkpt>
      <trkpt lat="44.05424" lon="7.26561">
        <ele>864.4</ele>
        <time>2024-07-09T12:23:21Z</time>
      </trkpt>
      <trkpt lat="44.05427" lon="7.26559">
        <ele>864.4</ele>
        <time>2024-07-09T12:23:22Z</time>
      </trkpt>
      <trkpt lat="44.0543" lon="7.26558">
        <ele>864.4</ele>
        <time>2024-07-09T12:23:23Z</time>
      </trkpt>
      <trkpt lat="44.05433" lon="7.26557">
        <ele>865.2</ele>
        <time>2024-07-09T12:23:24Z</time>
      </trkpt>
      <trkpt lat="44.05435" lon="7.26555">
        <ele>865.6</ele>
        <time>2024-07-09T12:23:25Z</time>
      </trkpt>
      <trkpt lat="44.05438" lon="7.26554">
        <ele>865.6</ele>
        <time>2024-07-09T12:23:26Z</time>
      </trkpt>
      <trkpt lat="44.05441" lon="7.26553">
        <ele>865.6</ele>
        <time>2024-07-09T12:23:27Z</time>
      </trkpt>
      <trkpt lat="44.05443" lon="7.26552">
        <ele>865.6</ele>
        <time>2024-07-09T12:23:28Z</time>
      </trkpt>
      <trkpt lat="44.05446" lon="7.2655">
        <ele>865.6</ele>
        <time>2024-07-09T12:23:29Z</time>
      </trkpt>
      <trkpt lat="44.05449" lon="7.26549">
        <ele>866.2</ele>
        <time>2024-07-09T12:23:30Z</time>
      </trkpt>
      <trkpt lat="44.05452" lon="7.26548">
        <ele>866.6</ele>
        <time>2024-07-09T12:23:31Z</time>
      </trkpt>
      <trkpt lat="44.05454" lon="7.26546">
        <ele>866.6</ele>
        <time>2024-07-09T12:23:32Z</time>
      </trkpt>
      <trkpt lat="44.05457" lon="7.26545">
        <ele>866.6</ele>
        <time>2024-07-09T12:23:33Z</time>
      </trkpt>
      <trkpt lat="44.0546" lon="7.26544">
        <ele>867</ele>
        <time>2024-07-09T12:23:34Z</time>
      </trkpt>
      <trkpt lat="44.05462" lon="7.26544">
        <ele>867.2</ele>
        <time>2024-07-09T12:23:35Z</time>
      </trkpt>
      <trkpt lat="44.05465" lon="7.26543">
        <ele>867.2</ele>
        <time>2024-07-09T12:23:36Z</time>
      </trkpt>
      <trkpt lat="44.05468" lon="7.26542">
        <ele>867.2</ele>
        <time>2024-07-09T12:23:37Z</time>
      </trkpt>
      <trkpt lat="44.05471" lon="7.26541">
        <ele>867.8</ele>
        <time>2024-07-09T12:23:38Z</time>
      </trkpt>
      <trkpt lat="44.05474" lon="7.2654">
        <ele>868</ele>
        <time>2024-07-09T12:23:39Z</time>
      </trkpt>
      <trkpt lat="44.05476" lon="7.26539">
        <ele>868</ele>
        <time>2024-07-09T12:23:40Z</time>
      </trkpt>
      <trkpt lat="44.05479" lon="7.26537">
        <ele>868</ele>
        <time>2024-07-09T12:23:41Z</time>
      </trkpt>
      <trkpt lat="44.05481" lon="7.26535">
        <ele>868</ele>
        <time>2024-07-09T12:23:42Z</time>
      </trkpt>
      <trkpt lat="44.05484" lon="7.26534">
        <ele>868.4</ele>
        <time>2024-07-09T12:23:43Z</time>
      </trkpt>
      <trkpt lat="44.05486" lon="7.26532">
        <ele>868.6</ele>
        <time>2024-07-09T12:23:44Z</time>
      </trkpt>
      <trkpt lat="44.05489" lon="7.26531">
        <ele>868.6</ele>
        <time>2024-07-09T12:23:45Z</time>
      </trkpt>
      <trkpt lat="44.05491" lon="7.26529">
        <ele>868.6</ele>
        <time>2024-07-09T12:23:46Z</time>
      </trkpt>
      <trkpt lat="44.05493" lon="7.26527">
        <ele>869.2</ele>
        <time>2024-07-09T12:23:47Z</time>
      </trkpt>
      <trkpt lat="44.05495" lon="7.26525">
        <ele>869.4</ele>
        <time>2024-07-09T12:23:48Z</time>
      </trkpt>
      <trkpt lat="44.05498" lon="7.26524">
        <ele>869.4</ele>
        <time>2024-07-09T12:23:49Z</time>
      </trkpt>
      <trkpt lat="44.055" lon="7.26522">
        <ele>869.4</ele>
        <time>2024-07-09T12:23:50Z</time>
      </trkpt>
      <trkpt lat="44.05502" lon="7.2652">
        <ele>870</ele>
        <time>2024-07-09T12:23:51Z</time>
      </trkpt>
      <trkpt lat="44.05504" lon="7.26519">
        <ele>870</ele>
        <time>2024-07-09T12:23:52Z</time>
      </trkpt>
      <trkpt lat="44.05507" lon="7.26517">
        <ele>870</ele>
        <time>2024-07-09T12:23:53Z</time>
      </trkpt>
      <trkpt lat="44.05509" lon="7.26515">
        <ele>870</ele>
        <time>2024-07-09T12:23:54Z</time>
      </trkpt>
      <trkpt lat="44.05511" lon="7.26513">
        <ele>870</ele>
        <time>2024-07-09T12:23:55Z</time>
      </trkpt>
      <trkpt lat="44.05514" lon="7.26511">
        <ele>870.4</ele>
        <time>2024-07-09T12:23:56Z</time>
      </trkpt>
      <trkpt lat="44.05516" lon="7.2651">
        <ele>870.6</ele>
        <time>2024-07-09T12:23:57Z</time>
      </trkpt>
      <trkpt lat="44.05518" lon="7.26508">
        <ele>870.6</ele>
        <time>2024-07-09T12:23:58Z</time>
      </trkpt>
      <trkpt lat="44.05521" lon="7.26506">
        <ele>870.6</ele>
        <time>2024-07-09T12:23:59Z</time>
      </trkpt>
      <trkpt lat="44.05523" lon="7.26505">
        <ele>871</ele>
        <time>2024-07-09T12:24:00Z</time>
      </trkpt>
      <trkpt lat="44.05525" lon="7.26503">
        <ele>871.2</ele>
        <time>2024-07-09T12:24:01Z</time>
      </trkpt>
      <trkpt lat="44.05527" lon="7.26501">
        <ele>871.2</ele>
        <time>2024-07-09T12:24:02Z</time>
      </trkpt>
      <trkpt lat="44.05529" lon="7.26498">
        <ele>871.2</ele>
        <time>2024-07-09T12:24:03Z</time>
      </trkpt>
      <trkpt lat="44.05532" lon="7.26497">
        <ele>871.6</ele>
        <time>2024-07-09T12:24:04Z</time>
      </trkpt>
      <trkpt lat="44.05534" lon="7.26496">
        <ele>872</ele>
        <time>2024-07-09T12:24:05Z</time>
      </trkpt>
      <trkpt lat="44.05537" lon="7.26494">
        <ele>872</ele>
        <time>2024-07-09T12:24:06Z</time>
      </trkpt>
      <trkpt lat="44.0554" lon="7.26492">
        <ele>872</ele>
        <time>2024-07-09T12:24:07Z</time>
      </trkpt>
      <trkpt lat="44.05542" lon="7.26489">
        <ele>872</ele>
        <time>2024-07-09T12:24:08Z</time>
      </trkpt>
      <trkpt lat="44.05545" lon="7.26486">
        <ele>872.4</ele>
        <time>2024-07-09T12:24:09Z</time>
      </trkpt>
      <trkpt lat="44.05547" lon="7.26483">
        <ele>872.4</ele>
        <time>2024-07-09T12:24:10Z</time>
      </trkpt>
      <trkpt lat="44.05549" lon="7.26481">
        <ele>872.6</ele>
        <time>2024-07-09T12:24:11Z</time>
      </trkpt>
      <trkpt lat="44.05551" lon="7.26478">
        <ele>872.6</ele>
        <time>2024-07-09T12:24:12Z</time>
      </trkpt>
      <trkpt lat="44.05553" lon="7.26475">
        <ele>872.6</ele>
        <time>2024-07-09T12:24:13Z</time>
      </trkpt>
      <trkpt lat="44.05555" lon="7.26473">
        <ele>872.8</ele>
        <time>2024-07-09T12:24:14Z</time>
      </trkpt>
      <trkpt lat="44.05557" lon="7.2647">
        <ele>873</ele>
        <time>2024-07-09T12:24:15Z</time>
      </trkpt>
      <trkpt lat="44.0556" lon="7.26467">
        <ele>873</ele>
        <time>2024-07-09T12:24:16Z</time>
      </trkpt>
      <trkpt lat="44.05562" lon="7.26464">
        <ele>873</ele>
        <time>2024-07-09T12:24:17Z</time>
      </trkpt>
      <trkpt lat="44.05565" lon="7.26461">
        <ele>873.6</ele>
        <time>2024-07-09T12:24:18Z</time>
      </trkpt>
      <trkpt lat="44.05566" lon="7.26458">
        <ele>873.6</ele>
        <time>2024-07-09T12:24:19Z</time>
      </trkpt>
      <trkpt lat="44.05568" lon="7.26455">
        <ele>873.6</ele>
        <time>2024-07-09T12:24:20Z</time>
      </trkpt>
      <trkpt lat="44.0557" lon="7.26452">
        <ele>873.6</ele>
        <time>2024-07-09T12:24:21Z</time>
      </trkpt>
      <trkpt lat="44.05572" lon="7.26449">
        <ele>873.6</ele>
        <time>2024-07-09T12:24:22Z</time>
      </trkpt>
      <trkpt lat="44.05574" lon="7.26445">
        <ele>874</ele>
        <time>2024-07-09T12:24:23Z</time>
      </trkpt>
      <trkpt lat="44.05577" lon="7.26442">
        <ele>874</ele>
        <time>2024-07-09T12:24:24Z</time>
      </trkpt>
      <trkpt lat="44.05579" lon="7.26439">
        <ele>874</ele>
        <time>2024-07-09T12:24:25Z</time>
      </trkpt>
      <trkpt lat="44.05581" lon="7.26435">
        <ele>874</ele>
        <time>2024-07-09T12:24:26Z</time>
      </trkpt>
      <trkpt lat="44.05583" lon="7.26433">
        <ele>874.2</ele>
        <time>2024-07-09T12:24:27Z</time>
      </trkpt>
      <trkpt lat="44.05585" lon="7.2643">
        <ele>874.2</ele>
        <time>2024-07-09T12:24:28Z</time>
      </trkpt>
      <trkpt lat="44.05587" lon="7.26427">
        <ele>874.2</ele>
        <time>2024-07-09T12:24:29Z</time>
      </trkpt>
      <trkpt lat="44.05589" lon="7.26424">
        <ele>874.2</ele>
        <time>2024-07-09T12:24:30Z</time>
      </trkpt>
      <trkpt lat="44.05591" lon="7.26422">
        <ele>875</ele>
        <time>2024-07-09T12:24:31Z</time>
      </trkpt>
      <trkpt lat="44.05594" lon="7.26419">
        <ele>875</ele>
        <time>2024-07-09T12:24:32Z</time>
      </trkpt>
      <trkpt lat="44.05596" lon="7.26417">
        <ele>875</ele>
        <time>2024-07-09T12:24:33Z</time>
      </trkpt>
      <trkpt lat="44.05598" lon="7.26414">
        <ele>875</ele>
        <time>2024-07-09T12:24:34Z</time>
      </trkpt>
      <trkpt lat="44.05601" lon="7.26412">
        <ele>875</ele>
        <time>2024-07-09T12:24:35Z</time>
      </trkpt>
      <trkpt lat="44.05602" lon="7.26409">
        <ele>875.6</ele>
        <time>2024-07-09T12:24:36Z</time>
      </trkpt>
      <trkpt lat="44.05604" lon="7.26406">
        <ele>875.6</ele>
        <time>2024-07-09T12:24:37Z</time>
      </trkpt>
      <trkpt lat="44.05606" lon="7.26403">
        <ele>875.6</ele>
        <time>2024-07-09T12:24:38Z</time>
      </trkpt>
      <trkpt lat="44.05608" lon="7.264">
        <ele>875.6</ele>
        <time>2024-07-09T12:24:39Z</time>
      </trkpt>
      <trkpt lat="44.0561" lon="7.26398">
        <ele>875.6</ele>
        <time>2024-07-09T12:24:40Z</time>
      </trkpt>
      <trkpt lat="44.05612" lon="7.26396">
        <ele>875.8</ele>
        <time>2024-07-09T12:24:41Z</time>
      </trkpt>
      <trkpt lat="44.05614" lon="7.26393">
        <ele>875.8</ele>
        <time>2024-07-09T12:24:42Z</time>
      </trkpt>
      <trkpt lat="44.05617" lon="7.26391">
        <ele>875.8</ele>
        <time>2024-07-09T12:24:43Z</time>
      </trkpt>
      <trkpt lat="44.05619" lon="7.26388">
        <ele>876.2</ele>
        <time>2024-07-09T12:24:44Z</time>
      </trkpt>
      <trkpt lat="44.05622" lon="7.26386">
        <ele>876.8</ele>
        <time>2024-07-09T12:24:45Z</time>
      </trkpt>
      <trkpt lat="44.05624" lon="7.26383">
        <ele>876.8</ele>
        <time>2024-07-09T12:24:46Z</time>
      </trkpt>
      <trkpt lat="44.05626" lon="7.2638">
        <ele>876.8</ele>
        <time>2024-07-09T12:24:47Z</time>
      </trkpt>
      <trkpt lat="44.05628" lon="7.26378">
        <ele>876.8</ele>
        <time>2024-07-09T12:24:48Z</time>
      </trkpt>
      <trkpt lat="44.0563" lon="7.26376">
        <ele>877.2</ele>
        <time>2024-07-09T12:24:49Z</time>
      </trkpt>
      <trkpt lat="44.05632" lon="7.26373">
        <ele>877.2</ele>
        <time>2024-07-09T12:24:50Z</time>
      </trkpt>
      <trkpt lat="44.05634" lon="7.26371">
        <ele>877.2</ele>
        <time>2024-07-09T12:24:51Z</time>
      </trkpt>
      <trkpt lat="44.05636" lon="7.26367">
        <ele>877.2</ele>
        <time>2024-07-09T12:24:52Z</time>
      </trkpt>
      <trkpt lat="44.05638" lon="7.26365">
        <ele>877.2</ele>
        <time>2024-07-09T12:24:53Z</time>
      </trkpt>
      <trkpt lat="44.0564" lon="7.26362">
        <ele>877.8</ele>
        <time>2024-07-09T12:24:54Z</time>
      </trkpt>
      <trkpt lat="44.05642" lon="7.26359">
        <ele>878</ele>
        <time>2024-07-09T12:24:55Z</time>
      </trkpt>
      <trkpt lat="44.05644" lon="7.26357">
        <ele>878</ele>
        <time>2024-07-09T12:24:56Z</time>
      </trkpt>
      <trkpt lat="44.05646" lon="7.26354">
        <ele>878</ele>
        <time>2024-07-09T12:24:57Z</time>
      </trkpt>
      <trkpt lat="44.05648" lon="7.26351">
        <ele>878.2</ele>
        <time>2024-07-09T12:24:58Z</time>
      </trkpt>
      <trkpt lat="44.0565" lon="7.26349">
        <ele>878.6</ele>
        <time>2024-07-09T12:24:59Z</time>
      </trkpt>
      <trkpt lat="44.05652" lon="7.26346">
        <ele>878.6</ele>
        <time>2024-07-09T12:25:00Z</time>
      </trkpt>
      <trkpt lat="44.05654" lon="7.26344">
        <ele>878.6</ele>
        <time>2024-07-09T12:25:01Z</time>
      </trkpt>
      <trkpt lat="44.05656" lon="7.26341">
        <ele>878.6</ele>
        <time>2024-07-09T12:25:02Z</time>
      </trkpt>
      <trkpt lat="44.05659" lon="7.26339">
        <ele>878.6</ele>
        <time>2024-07-09T12:25:03Z</time>
      </trkpt>
      <trkpt lat="44.05661" lon="7.26337">
        <ele>878.6</ele>
        <time>2024-07-09T12:25:04Z</time>
      </trkpt>
      <trkpt lat="44.05663" lon="7.26334">
        <ele>878.6</ele>
        <time>2024-07-09T12:25:05Z</time>
      </trkpt>
      <trkpt lat="44.05665" lon="7.26331">
        <ele>878.6</ele>
        <time>2024-07-09T12:25:06Z</time>
      </trkpt>
      <trkpt lat="44.05667" lon="7.26329">
        <ele>878.8</ele>
        <time>2024-07-09T12:25:07Z</time>
      </trkpt>
      <trkpt lat="44.05669" lon="7.26326">
        <ele>878.8</ele>
        <time>2024-07-09T12:25:08Z</time>
      </trkpt>
      <trkpt lat="44.05671" lon="7.26324">
        <ele>878.8</ele>
        <time>2024-07-09T12:25:09Z</time>
      </trkpt>
      <trkpt lat="44.05674" lon="7.26322">
        <ele>878.8</ele>
        <time>2024-07-09T12:25:10Z</time>
      </trkpt>
      <trkpt lat="44.05677" lon="7.26319">
        <ele>878.8</ele>
        <time>2024-07-09T12:25:11Z</time>
      </trkpt>
      <trkpt lat="44.05679" lon="7.26317">
        <ele>879</ele>
        <time>2024-07-09T12:25:12Z</time>
      </trkpt>
      <trkpt lat="44.05681" lon="7.26315">
        <ele>879</ele>
        <time>2024-07-09T12:25:13Z</time>
      </trkpt>
      <trkpt lat="44.05684" lon="7.26313">
        <ele>879</ele>
        <time>2024-07-09T12:25:14Z</time>
      </trkpt>
      <trkpt lat="44.05686" lon="7.26311">
        <ele>879</ele>
        <time>2024-07-09T12:25:15Z</time>
      </trkpt>
      <trkpt lat="44.05689" lon="7.26309">
        <ele>879.4</ele>
        <time>2024-07-09T12:25:16Z</time>
      </trkpt>
      <trkpt lat="44.05691" lon="7.26307">
        <ele>879.4</ele>
        <time>2024-07-09T12:25:17Z</time>
      </trkpt>
      <trkpt lat="44.05694" lon="7.26306">
        <ele>879.4</ele>
        <time>2024-07-09T12:25:18Z</time>
      </trkpt>
      <trkpt lat="44.05697" lon="7.26304">
        <ele>879.4</ele>
        <time>2024-07-09T12:25:19Z</time>
      </trkpt>
      <trkpt lat="44.057" lon="7.26302">
        <ele>879.4</ele>
        <time>2024-07-09T12:25:20Z</time>
      </trkpt>
      <trkpt lat="44.05702" lon="7.263">
        <ele>880</ele>
        <time>2024-07-09T12:25:21Z</time>
      </trkpt>
      <trkpt lat="44.05705" lon="7.26298">
        <ele>880</ele>
        <time>2024-07-09T12:25:22Z</time>
      </trkpt>
      <trkpt lat="44.05708" lon="7.26296">
        <ele>880</ele>
        <time>2024-07-09T12:25:23Z</time>
      </trkpt>
      <trkpt lat="44.05711" lon="7.26294">
        <ele>880.2</ele>
        <time>2024-07-09T12:25:24Z</time>
      </trkpt>
      <trkpt lat="44.05714" lon="7.26292">
        <ele>880.2</ele>
        <time>2024-07-09T12:25:25Z</time>
      </trkpt>
      <trkpt lat="44.05716" lon="7.2629">
        <ele>880.2</ele>
        <time>2024-07-09T12:25:26Z</time>
      </trkpt>
      <trkpt lat="44.05719" lon="7.26288">
        <ele>880.2</ele>
        <time>2024-07-09T12:25:27Z</time>
      </trkpt>
      <trkpt lat="44.05722" lon="7.26286">
        <ele>880.2</ele>
        <time>2024-07-09T12:25:28Z</time>
      </trkpt>
      <trkpt lat="44.05724" lon="7.26284">
        <ele>880.8</ele>
        <time>2024-07-09T12:25:29Z</time>
      </trkpt>
      <trkpt lat="44.05727" lon="7.26282">
        <ele>880.8</ele>
        <time>2024-07-09T12:25:30Z</time>
      </trkpt>
      <trkpt lat="44.0573" lon="7.26281">
        <ele>880.8</ele>
        <time>2024-07-09T12:25:31Z</time>
      </trkpt>
      <trkpt lat="44.05733" lon="7.26279">
        <ele>880.8</ele>
        <time>2024-07-09T12:25:32Z</time>
      </trkpt>
      <trkpt lat="44.05736" lon="7.26278">
        <ele>880.8</ele>
        <time>2024-07-09T12:25:33Z</time>
      </trkpt>
      <trkpt lat="44.05739" lon="7.26276">
        <ele>881.6</ele>
        <time>2024-07-09T12:25:34Z</time>
      </trkpt>
      <trkpt lat="44.05742" lon="7.26275">
        <ele>881.6</ele>
        <time>2024-07-09T12:25:35Z</time>
      </trkpt>
      <trkpt lat="44.05746" lon="7.26274">
        <ele>881.6</ele>
        <time>2024-07-09T12:25:36Z</time>
      </trkpt>
      <trkpt lat="44.05748" lon="7.26272">
        <ele>881.6</ele>
        <time>2024-07-09T12:25:37Z</time>
      </trkpt>
      <trkpt lat="44.05751" lon="7.26271">
        <ele>882.2</ele>
        <time>2024-07-09T12:25:38Z</time>
      </trkpt>
      <trkpt lat="44.05754" lon="7.2627">
        <ele>882.6</ele>
        <time>2024-07-09T12:25:39Z</time>
      </trkpt>
      <trkpt lat="44.05757" lon="7.26269">
        <ele>882.6</ele>
        <time>2024-07-09T12:25:40Z</time>
      </trkpt>
      <trkpt lat="44.0576" lon="7.26269">
        <ele>882.6</ele>
        <time>2024-07-09T12:25:41Z</time>
      </trkpt>
      <trkpt lat="44.05764" lon="7.26268">
        <ele>883.2</ele>
        <time>2024-07-09T12:25:42Z</time>
      </trkpt>
      <trkpt lat="44.05767" lon="7.26268">
        <ele>883.4</ele>
        <time>2024-07-09T12:25:43Z</time>
      </trkpt>
      <trkpt lat="44.0577" lon="7.26267">
        <ele>883.4</ele>
        <time>2024-07-09T12:25:44Z</time>
      </trkpt>
      <trkpt lat="44.05772" lon="7.26265">
        <ele>883.4</ele>
        <time>2024-07-09T12:25:45Z</time>
      </trkpt>
      <trkpt lat="44.05775" lon="7.26263">
        <ele>883.4</ele>
        <time>2024-07-09T12:25:46Z</time>
      </trkpt>
      <trkpt lat="44.05778" lon="7.26261">
        <ele>884</ele>
        <time>2024-07-09T12:25:47Z</time>
      </trkpt>
      <trkpt lat="44.05781" lon="7.2626">
        <ele>884.2</ele>
        <time>2024-07-09T12:25:48Z</time>
      </trkpt>
      <trkpt lat="44.05783" lon="7.26257">
        <ele>884.2</ele>
        <time>2024-07-09T12:25:49Z</time>
      </trkpt>
      <trkpt lat="44.05785" lon="7.26254">
        <ele>884.2</ele>
        <time>2024-07-09T12:25:50Z</time>
      </trkpt>
      <trkpt lat="44.05788" lon="7.26251">
        <ele>884.6</ele>
        <time>2024-07-09T12:25:51Z</time>
      </trkpt>
      <trkpt lat="44.05791" lon="7.2625">
        <ele>884.8</ele>
        <time>2024-07-09T12:25:52Z</time>
      </trkpt>
      <trkpt lat="44.05795" lon="7.26249">
        <ele>884.8</ele>
        <time>2024-07-09T12:25:53Z</time>
      </trkpt>
      <trkpt lat="44.05797" lon="7.26246">
        <ele>884.8</ele>
        <time>2024-07-09T12:25:54Z</time>
      </trkpt>
      <trkpt lat="44.05801" lon="7.26245">
        <ele>885.4</ele>
        <time>2024-07-09T12:25:55Z</time>
      </trkpt>
      <trkpt lat="44.05803" lon="7.26242">
        <ele>885.4</ele>
        <time>2024-07-09T12:25:56Z</time>
      </trkpt>
      <trkpt lat="44.05806" lon="7.2624">
        <ele>885.4</ele>
        <time>2024-07-09T12:25:57Z</time>
      </trkpt>
      <trkpt lat="44.05808" lon="7.26238">
        <ele>885.4</ele>
        <time>2024-07-09T12:25:58Z</time>
      </trkpt>
      <trkpt lat="44.05811" lon="7.26235">
        <ele>885.6</ele>
        <time>2024-07-09T12:25:59Z</time>
      </trkpt>
      <trkpt lat="44.05813" lon="7.26233">
        <ele>885.4</ele>
        <time>2024-07-09T12:26:00Z</time>
      </trkpt>
      <trkpt lat="44.05816" lon="7.2623">
        <ele>885.4</ele>
        <time>2024-07-09T12:26:01Z</time>
      </trkpt>
      <trkpt lat="44.05819" lon="7.26229">
        <ele>885.4</ele>
        <time>2024-07-09T12:26:02Z</time>
      </trkpt>
      <trkpt lat="44.05821" lon="7.26227">
        <ele>885.4</ele>
        <time>2024-07-09T12:26:03Z</time>
      </trkpt>
      <trkpt lat="44.05824" lon="7.26226">
        <ele>886</ele>
        <time>2024-07-09T12:26:04Z</time>
      </trkpt>
      <trkpt lat="44.05827" lon="7.26223">
        <ele>886</ele>
        <time>2024-07-09T12:26:05Z</time>
      </trkpt>
      <trkpt lat="44.05829" lon="7.26221">
        <ele>886</ele>
        <time>2024-07-09T12:26:06Z</time>
      </trkpt>
      <trkpt lat="44.05832" lon="7.26218">
        <ele>886</ele>
        <time>2024-07-09T12:26:07Z</time>
      </trkpt>
      <trkpt lat="44.05834" lon="7.26216">
        <ele>886</ele>
        <time>2024-07-09T12:26:08Z</time>
      </trkpt>
      <trkpt lat="44.05836" lon="7.26214">
        <ele>886.2</ele>
        <time>2024-07-09T12:26:09Z</time>
      </trkpt>
      <trkpt lat="44.05839" lon="7.26212">
        <ele>886.2</ele>
        <time>2024-07-09T12:26:10Z</time>
      </trkpt>
      <trkpt lat="44.05841" lon="7.26209">
        <ele>886.2</ele>
        <time>2024-07-09T12:26:11Z</time>
      </trkpt>
      <trkpt lat="44.05844" lon="7.26208">
        <ele>886.2</ele>
        <time>2024-07-09T12:26:12Z</time>
      </trkpt>
      <trkpt lat="44.05846" lon="7.26206">
        <ele>886.4</ele>
        <time>2024-07-09T12:26:13Z</time>
      </trkpt>
      <trkpt lat="44.05848" lon="7.26203">
        <ele>886.4</ele>
        <time>2024-07-09T12:26:14Z</time>
      </trkpt>
      <trkpt lat="44.05851" lon="7.26201">
        <ele>886.4</ele>
        <time>2024-07-09T12:26:15Z</time>
      </trkpt>
      <trkpt lat="44.05853" lon="7.26198">
        <ele>886.4</ele>
        <time>2024-07-09T12:26:16Z</time>
      </trkpt>
      <trkpt lat="44.05855" lon="7.26196">
        <ele>886.4</ele>
        <time>2024-07-09T12:26:17Z</time>
      </trkpt>
      <trkpt lat="44.05858" lon="7.26194">
        <ele>886.8</ele>
        <time>2024-07-09T12:26:18Z</time>
      </trkpt>
      <trkpt lat="44.0586" lon="7.26191">
        <ele>886.6</ele>
        <time>2024-07-09T12:26:19Z</time>
      </trkpt>
      <trkpt lat="44.05862" lon="7.26189">
        <ele>886.6</ele>
        <time>2024-07-09T12:26:20Z</time>
      </trkpt>
      <trkpt lat="44.05865" lon="7.26186">
        <ele>886.6</ele>
        <time>2024-07-09T12:26:21Z</time>
      </trkpt>
      <trkpt lat="44.05867" lon="7.26184">
        <ele>887.2</ele>
        <time>2024-07-09T12:26:22Z</time>
      </trkpt>
      <trkpt lat="44.05869" lon="7.26181">
        <ele>887.4</ele>
        <time>2024-07-09T12:26:23Z</time>
      </trkpt>
      <trkpt lat="44.05871" lon="7.26179">
        <ele>887.4</ele>
        <time>2024-07-09T12:26:24Z</time>
      </trkpt>
      <trkpt lat="44.05874" lon="7.26177">
        <ele>887.4</ele>
        <time>2024-07-09T12:26:25Z</time>
      </trkpt>
      <trkpt lat="44.05876" lon="7.26174">
        <ele>887.4</ele>
        <time>2024-07-09T12:26:26Z</time>
      </trkpt>
      <trkpt lat="44.05878" lon="7.26172">
        <ele>887.8</ele>
        <time>2024-07-09T12:26:27Z</time>
      </trkpt>
      <trkpt lat="44.0588" lon="7.26169">
        <ele>887.6</ele>
        <time>2024-07-09T12:26:28Z</time>
      </trkpt>
      <trkpt lat="44.05882" lon="7.26167">
        <ele>887.6</ele>
        <time>2024-07-09T12:26:29Z</time>
      </trkpt>
      <trkpt lat="44.05885" lon="7.26164">
        <ele>887.6</ele>
        <time>2024-07-09T12:26:30Z</time>
      </trkpt>
      <trkpt lat="44.05887" lon="7.26162">
        <ele>888</ele>
        <time>2024-07-09T12:26:31Z</time>
      </trkpt>
      <trkpt lat="44.05889" lon="7.26159">
        <ele>888.2</ele>
        <time>2024-07-09T12:26:32Z</time>
      </trkpt>
      <trkpt lat="44.05891" lon="7.26156">
        <ele>888.2</ele>
        <time>2024-07-09T12:26:33Z</time>
      </trkpt>
      <trkpt lat="44.05893" lon="7.26153">
        <ele>888.2</ele>
        <time>2024-07-09T12:26:34Z</time>
      </trkpt>
      <trkpt lat="44.05896" lon="7.26151">
        <ele>889</ele>
        <time>2024-07-09T12:26:35Z</time>
      </trkpt>
      <trkpt lat="44.05898" lon="7.26148">
        <ele>889</ele>
        <time>2024-07-09T12:26:36Z</time>
      </trkpt>
      <trkpt lat="44.05901" lon="7.26145">
        <ele>888.8</ele>
        <time>2024-07-09T12:26:37Z</time>
      </trkpt>
      <trkpt lat="44.05903" lon="7.26143">
        <ele>888.8</ele>
        <time>2024-07-09T12:26:38Z</time>
      </trkpt>
      <trkpt lat="44.05906" lon="7.2614">
        <ele>888.8</ele>
        <time>2024-07-09T12:26:39Z</time>
      </trkpt>
      <trkpt lat="44.05908" lon="7.26137">
        <ele>888.8</ele>
        <time>2024-07-09T12:26:40Z</time>
      </trkpt>
      <trkpt lat="44.0591" lon="7.26135">
        <ele>889.2</ele>
        <time>2024-07-09T12:26:41Z</time>
      </trkpt>
      <trkpt lat="44.05913" lon="7.26132">
        <ele>889.2</ele>
        <time>2024-07-09T12:26:42Z</time>
      </trkpt>
      <trkpt lat="44.05915" lon="7.2613">
        <ele>889.2</ele>
        <time>2024-07-09T12:26:43Z</time>
      </trkpt>
      <trkpt lat="44.05917" lon="7.26127">
        <ele>889.6</ele>
        <time>2024-07-09T12:26:44Z</time>
      </trkpt>
      <trkpt lat="44.0592" lon="7.26124">
        <ele>889.2</ele>
        <time>2024-07-09T12:26:45Z</time>
      </trkpt>
      <trkpt lat="44.05922" lon="7.26121">
        <ele>889.2</ele>
        <time>2024-07-09T12:26:46Z</time>
      </trkpt>
      <trkpt lat="44.05924" lon="7.26118">
        <ele>889.2</ele>
        <time>2024-07-09T12:26:47Z</time>
      </trkpt>
      <trkpt lat="44.05926" lon="7.26115">
        <ele>889.2</ele>
        <time>2024-07-09T12:26:48Z</time>
      </trkpt>
      <trkpt lat="44.05929" lon="7.26112">
        <ele>889.8</ele>
        <time>2024-07-09T12:26:49Z</time>
      </trkpt>
      <trkpt lat="44.05931" lon="7.26109">
        <ele>890</ele>
        <time>2024-07-09T12:26:50Z</time>
      </trkpt>
      <trkpt lat="44.05933" lon="7.26106">
        <ele>890</ele>
        <time>2024-07-09T12:26:51Z</time>
      </trkpt>
      <trkpt lat="44.05935" lon="7.26104">
        <ele>890</ele>
        <time>2024-07-09T12:26:52Z</time>
      </trkpt>
      <trkpt lat="44.05937" lon="7.26101">
        <ele>890.4</ele>
        <time>2024-07-09T12:26:53Z</time>
      </trkpt>
      <trkpt lat="44.05939" lon="7.26098">
        <ele>890.4</ele>
        <time>2024-07-09T12:26:54Z</time>
      </trkpt>
      <trkpt lat="44.05941" lon="7.26095">
        <ele>890.4</ele>
        <time>2024-07-09T12:26:55Z</time>
      </trkpt>
      <trkpt lat="44.05943" lon="7.26092">
        <ele>890.4</ele>
        <time>2024-07-09T12:26:56Z</time>
      </trkpt>
      <trkpt lat="44.05945" lon="7.26089">
        <ele>890.8</ele>
        <time>2024-07-09T12:26:57Z</time>
      </trkpt>
      <trkpt lat="44.05947" lon="7.26086">
        <ele>890.8</ele>
        <time>2024-07-09T12:26:58Z</time>
      </trkpt>
      <trkpt lat="44.05949" lon="7.26082">
        <ele>891.2</ele>
        <time>2024-07-09T12:26:59Z</time>
      </trkpt>
      <trkpt lat="44.0595" lon="7.26079">
        <ele>891.2</ele>
        <time>2024-07-09T12:27:00Z</time>
      </trkpt>
      <trkpt lat="44.05952" lon="7.26076">
        <ele>891.2</ele>
        <time>2024-07-09T12:27:01Z</time>
      </trkpt>
      <trkpt lat="44.05954" lon="7.26073">
        <ele>891.2</ele>
        <time>2024-07-09T12:27:02Z</time>
      </trkpt>
      <trkpt lat="44.05956" lon="7.2607">
        <ele>891.6</ele>
        <time>2024-07-09T12:27:03Z</time>
      </trkpt>
      <trkpt lat="44.05957" lon="7.26066">
        <ele>891.2</ele>
        <time>2024-07-09T12:27:04Z</time>
      </trkpt>
      <trkpt lat="44.05959" lon="7.26063">
        <ele>891.2</ele>
        <time>2024-07-09T12:27:05Z</time>
      </trkpt>
      <trkpt lat="44.05961" lon="7.2606">
        <ele>891.2</ele>
        <time>2024-07-09T12:27:06Z</time>
      </trkpt>
      <trkpt lat="44.05963" lon="7.26057">
        <ele>891.8</ele>
        <time>2024-07-09T12:27:07Z</time>
      </trkpt>
      <trkpt lat="44.05965" lon="7.26054">
        <ele>892</ele>
        <time>2024-07-09T12:27:08Z</time>
      </trkpt>
      <trkpt lat="44.05967" lon="7.26051">
        <ele>892</ele>
        <time>2024-07-09T12:27:09Z</time>
      </trkpt>
      <trkpt lat="44.05969" lon="7.26047">
        <ele>892</ele>
        <time>2024-07-09T12:27:10Z</time>
      </trkpt>
      <trkpt lat="44.0597" lon="7.26043">
        <ele>892</ele>
        <time>2024-07-09T12:27:11Z</time>
      </trkpt>
      <trkpt lat="44.05972" lon="7.2604">
        <ele>892.4</ele>
        <time>2024-07-09T12:27:12Z</time>
      </trkpt>
      <trkpt lat="44.05974" lon="7.26036">
        <ele>892.6</ele>
        <time>2024-07-09T12:27:13Z</time>
      </trkpt>
      <trkpt lat="44.05976" lon="7.26033">
        <ele>892.6</ele>
        <time>2024-07-09T12:27:14Z</time>
      </trkpt>
      <trkpt lat="44.05977" lon="7.2603">
        <ele>892.6</ele>
        <time>2024-07-09T12:27:15Z</time>
      </trkpt>
      <trkpt lat="44.05979" lon="7.26026">
        <ele>893</ele>
        <time>2024-07-09T12:27:16Z</time>
      </trkpt>
      <trkpt lat="44.05981" lon="7.26023">
        <ele>893</ele>
        <time>2024-07-09T12:27:17Z</time>
      </trkpt>
      <trkpt lat="44.05983" lon="7.2602">
        <ele>893</ele>
        <time>2024-07-09T12:27:18Z</time>
      </trkpt>
      <trkpt lat="44.05985" lon="7.26017">
        <ele>893</ele>
        <time>2024-07-09T12:27:19Z</time>
      </trkpt>
      <trkpt lat="44.05986" lon="7.26014">
        <ele>893.4</ele>
        <time>2024-07-09T12:27:20Z</time>
      </trkpt>
      <trkpt lat="44.05988" lon="7.2601">
        <ele>893.6</ele>
        <time>2024-07-09T12:27:21Z</time>
      </trkpt>
      <trkpt lat="44.0599" lon="7.26007">
        <ele>893.6</ele>
        <time>2024-07-09T12:27:22Z</time>
      </trkpt>
      <trkpt lat="44.05991" lon="7.26004">
        <ele>893.6</ele>
        <time>2024-07-09T12:27:23Z</time>
      </trkpt>
      <trkpt lat="44.05993" lon="7.26001">
        <ele>893.6</ele>
        <time>2024-07-09T12:27:24Z</time>
      </trkpt>
      <trkpt lat="44.05995" lon="7.25998">
        <ele>893.6</ele>
        <time>2024-07-09T12:27:25Z</time>
      </trkpt>
      <trkpt lat="44.05997" lon="7.25996">
        <ele>894</ele>
        <time>2024-07-09T12:27:26Z</time>
      </trkpt>
      <trkpt lat="44.05998" lon="7.25993">
        <ele>894</ele>
        <time>2024-07-09T12:27:27Z</time>
      </trkpt>
      <trkpt lat="44.06" lon="7.2599">
        <ele>894</ele>
        <time>2024-07-09T12:27:28Z</time>
      </trkpt>
      <trkpt lat="44.06002" lon="7.25987">
        <ele>894</ele>
        <time>2024-07-09T12:27:29Z</time>
      </trkpt>
      <trkpt lat="44.06004" lon="7.25985">
        <ele>894.6</ele>
        <time>2024-07-09T12:27:30Z</time>
      </trkpt>
      <trkpt lat="44.06006" lon="7.25982">
        <ele>894.6</ele>
        <time>2024-07-09T12:27:31Z</time>
      </trkpt>
      <trkpt lat="44.06008" lon="7.2598">
        <ele>894.6</ele>
        <time>2024-07-09T12:27:32Z</time>
      </trkpt>
      <trkpt lat="44.0601" lon="7.25978">
        <ele>895.6</ele>
        <time>2024-07-09T12:27:33Z</time>
      </trkpt>
      <trkpt lat="44.06012" lon="7.25976">
        <ele>895.8</ele>
        <time>2024-07-09T12:27:34Z</time>
      </trkpt>
      <trkpt lat="44.06015" lon="7.25974">
        <ele>895.8</ele>
        <time>2024-07-09T12:27:35Z</time>
      </trkpt>
      <trkpt lat="44.06017" lon="7.25972">
        <ele>895.8</ele>
        <time>2024-07-09T12:27:36Z</time>
      </trkpt>
      <trkpt lat="44.06019" lon="7.2597">
        <ele>895.8</ele>
        <time>2024-07-09T12:27:37Z</time>
      </trkpt>
      <trkpt lat="44.06021" lon="7.25968">
        <ele>896.4</ele>
        <time>2024-07-09T12:27:38Z</time>
      </trkpt>
      <trkpt lat="44.06024" lon="7.25966">
        <ele>896.8</ele>
        <time>2024-07-09T12:27:39Z</time>
      </trkpt>
      <trkpt lat="44.06026" lon="7.25964">
        <ele>896.8</ele>
        <time>2024-07-09T12:27:40Z</time>
      </trkpt>
      <trkpt lat="44.06028" lon="7.25962">
        <ele>896.8</ele>
        <time>2024-07-09T12:27:41Z</time>
      </trkpt>
      <trkpt lat="44.06031" lon="7.2596">
        <ele>897.4</ele>
        <time>2024-07-09T12:27:42Z</time>
      </trkpt>
      <trkpt lat="44.06033" lon="7.25958">
        <ele>897.4</ele>
        <time>2024-07-09T12:27:43Z</time>
      </trkpt>
      <trkpt lat="44.06036" lon="7.25956">
        <ele>897.4</ele>
        <time>2024-07-09T12:27:44Z</time>
      </trkpt>
      <trkpt lat="44.06039" lon="7.25955">
        <ele>897.4</ele>
        <time>2024-07-09T12:27:45Z</time>
      </trkpt>
      <trkpt lat="44.06041" lon="7.25953">
        <ele>897.4</ele>
        <time>2024-07-09T12:27:46Z</time>
      </trkpt>
      <trkpt lat="44.06044" lon="7.25951">
        <ele>898</ele>
        <time>2024-07-09T12:27:47Z</time>
      </trkpt>
      <trkpt lat="44.06046" lon="7.25949">
        <ele>898.2</ele>
        <time>2024-07-09T12:27:48Z</time>
      </trkpt>
      <trkpt lat="44.06048" lon="7.25947">
        <ele>898.2</ele>
        <time>2024-07-09T12:27:49Z</time>
      </trkpt>
      <trkpt lat="44.06051" lon="7.25945">
        <ele>898.2</ele>
        <time>2024-07-09T12:27:50Z</time>
      </trkpt>
      <trkpt lat="44.06054" lon="7.25944">
        <ele>898.2</ele>
        <time>2024-07-09T12:27:51Z</time>
      </trkpt>
      <trkpt lat="44.06056" lon="7.25942">
        <ele>898.6</ele>
        <time>2024-07-09T12:27:52Z</time>
      </trkpt>
      <trkpt lat="44.06059" lon="7.25941">
        <ele>898.6</ele>
        <time>2024-07-09T12:27:53Z</time>
      </trkpt>
      <trkpt lat="44.06061" lon="7.25939">
        <ele>898.6</ele>
        <time>2024-07-09T12:27:54Z</time>
      </trkpt>
      <trkpt lat="44.06064" lon="7.25937">
        <ele>898.6</ele>
        <time>2024-07-09T12:27:55Z</time>
      </trkpt>
      <trkpt lat="44.06066" lon="7.25935">
        <ele>899</ele>
        <time>2024-07-09T12:27:56Z</time>
      </trkpt>
      <trkpt lat="44.06068" lon="7.25934">
        <ele>899.2</ele>
        <time>2024-07-09T12:27:57Z</time>
      </trkpt>
      <trkpt lat="44.06071" lon="7.25932">
        <ele>899.2</ele>
        <time>2024-07-09T12:27:58Z</time>
      </trkpt>
      <trkpt lat="44.06073" lon="7.2593">
        <ele>899.2</ele>
        <time>2024-07-09T12:27:59Z</time>
      </trkpt>
      <trkpt lat="44.06076" lon="7.25928">
        <ele>899.6</ele>
        <time>2024-07-09T12:28:00Z</time>
      </trkpt>
      <trkpt lat="44.06078" lon="7.25926">
        <ele>899.8</ele>
        <time>2024-07-09T12:28:01Z</time>
      </trkpt>
      <trkpt lat="44.06081" lon="7.25924">
        <ele>899.8</ele>
        <time>2024-07-09T12:28:02Z</time>
      </trkpt>
      <trkpt lat="44.06083" lon="7.25921">
        <ele>899.8</ele>
        <time>2024-07-09T12:28:03Z</time>
      </trkpt>
      <trkpt lat="44.06086" lon="7.25919">
        <ele>899.8</ele>
        <time>2024-07-09T12:28:04Z</time>
      </trkpt>
      <trkpt lat="44.06088" lon="7.25917">
        <ele>900</ele>
        <time>2024-07-09T12:28:05Z</time>
      </trkpt>
      <trkpt lat="44.06091" lon="7.25915">
        <ele>900.2</ele>
        <time>2024-07-09T12:28:06Z</time>
      </trkpt>
      <trkpt lat="44.06094" lon="7.25912">
        <ele>900.2</ele>
        <time>2024-07-09T12:28:07Z</time>
      </trkpt>
      <trkpt lat="44.06097" lon="7.2591">
        <ele>900.2</ele>
        <time>2024-07-09T12:28:08Z</time>
      </trkpt>
      <trkpt lat="44.06099" lon="7.25907">
        <ele>900.2</ele>
        <time>2024-07-09T12:28:09Z</time>
      </trkpt>
      <trkpt lat="44.06102" lon="7.25904">
        <ele>900.2</ele>
        <time>2024-07-09T12:28:10Z</time>
      </trkpt>
      <trkpt lat="44.06105" lon="7.25901">
        <ele>900.2</ele>
        <time>2024-07-09T12:28:11Z</time>
      </trkpt>
      <trkpt lat="44.06108" lon="7.25898">
        <ele>900.2</ele>
        <time>2024-07-09T12:28:12Z</time>
      </trkpt>
      <trkpt lat="44.0611" lon="7.25894">
        <ele>900.2</ele>
        <time>2024-07-09T12:28:13Z</time>
      </trkpt>
      <trkpt lat="44.06113" lon="7.25892">
        <ele>900.2</ele>
        <time>2024-07-09T12:28:14Z</time>
      </trkpt>
      <trkpt lat="44.06115" lon="7.25889">
        <ele>900.2</ele>
        <time>2024-07-09T12:28:15Z</time>
      </trkpt>
      <trkpt lat="44.06117" lon="7.25887">
        <ele>900.2</ele>
        <time>2024-07-09T12:28:16Z</time>
      </trkpt>
      <trkpt lat="44.0612" lon="7.25884">
        <ele>900.2</ele>
        <time>2024-07-09T12:28:17Z</time>
      </trkpt>
      <trkpt lat="44.06122" lon="7.25882">
        <ele>900.2</ele>
        <time>2024-07-09T12:28:18Z</time>
      </trkpt>
      <trkpt lat="44.06124" lon="7.25879">
        <ele>900.6</ele>
        <time>2024-07-09T12:28:19Z</time>
      </trkpt>
      <trkpt lat="44.06125" lon="7.25875">
        <ele>900.6</ele>
        <time>2024-07-09T12:28:20Z</time>
      </trkpt>
      <trkpt lat="44.06125" lon="7.25872">
        <ele>900.6</ele>
        <time>2024-07-09T12:28:21Z</time>
      </trkpt>
      <trkpt lat="44.06126" lon="7.2587">
        <ele>900.4</ele>
        <time>2024-07-09T12:28:22Z</time>
      </trkpt>
      <trkpt lat="44.06127" lon="7.25868">
        <ele>900.6</ele>
        <time>2024-07-09T12:28:23Z</time>
      </trkpt>
      <trkpt lat="44.0613" lon="7.25867">
        <ele>900.6</ele>
        <time>2024-07-09T12:28:24Z</time>
      </trkpt>
      <trkpt lat="44.06132" lon="7.25867">
        <ele>900.6</ele>
        <time>2024-07-09T12:28:25Z</time>
      </trkpt>
      <trkpt lat="44.06134" lon="7.25866">
        <ele>900.6</ele>
        <time>2024-07-09T12:28:26Z</time>
      </trkpt>
      <trkpt lat="44.06137" lon="7.25864">
        <ele>900.6</ele>
        <time>2024-07-09T12:28:27Z</time>
      </trkpt>
      <trkpt lat="44.0614" lon="7.25862">
        <ele>900.6</ele>
        <time>2024-07-09T12:28:28Z</time>
      </trkpt>
      <trkpt lat="44.06143" lon="7.25859">
        <ele>900.6</ele>
        <time>2024-07-09T12:28:29Z</time>
      </trkpt>
      <trkpt lat="44.06145" lon="7.25856">
        <ele>900.6</ele>
        <time>2024-07-09T12:28:30Z</time>
      </trkpt>
      <trkpt lat="44.06148" lon="7.25854">
        <ele>900.6</ele>
        <time>2024-07-09T12:28:31Z</time>
      </trkpt>
      <trkpt lat="44.06152" lon="7.25852">
        <ele>901</ele>
        <time>2024-07-09T12:28:32Z</time>
      </trkpt>
      <trkpt lat="44.06155" lon="7.2585">
        <ele>901</ele>
        <time>2024-07-09T12:28:33Z</time>
      </trkpt>
      <trkpt lat="44.06158" lon="7.25848">
        <ele>901</ele>
        <time>2024-07-09T12:28:34Z</time>
      </trkpt>
      <trkpt lat="44.06161" lon="7.25845">
        <ele>901</ele>
        <time>2024-07-09T12:28:35Z</time>
      </trkpt>
      <trkpt lat="44.06164" lon="7.25842">
        <ele>901.2</ele>
        <time>2024-07-09T12:28:36Z</time>
      </trkpt>
      <trkpt lat="44.06167" lon="7.25839">
        <ele>901.4</ele>
        <time>2024-07-09T12:28:37Z</time>
      </trkpt>
      <trkpt lat="44.06169" lon="7.25836">
        <ele>901.4</ele>
        <time>2024-07-09T12:28:38Z</time>
      </trkpt>
      <trkpt lat="44.06172" lon="7.25833">
        <ele>901.4</ele>
        <time>2024-07-09T12:28:39Z</time>
      </trkpt>
      <trkpt lat="44.06176" lon="7.2583">
        <ele>901.4</ele>
        <time>2024-07-09T12:28:40Z</time>
      </trkpt>
      <trkpt lat="44.06178" lon="7.25828">
        <ele>901.4</ele>
        <time>2024-07-09T12:28:41Z</time>
      </trkpt>
      <trkpt lat="44.06181" lon="7.25825">
        <ele>901.4</ele>
        <time>2024-07-09T12:28:42Z</time>
      </trkpt>
      <trkpt lat="44.06184" lon="7.25822">
        <ele>901.4</ele>
        <time>2024-07-09T12:28:43Z</time>
      </trkpt>
      <trkpt lat="44.06187" lon="7.2582">
        <ele>901.4</ele>
        <time>2024-07-09T12:28:44Z</time>
      </trkpt>
      <trkpt lat="44.0619" lon="7.25817">
        <ele>901.8</ele>
        <time>2024-07-09T12:28:45Z</time>
      </trkpt>
      <trkpt lat="44.06193" lon="7.25813">
        <ele>901.8</ele>
        <time>2024-07-09T12:28:46Z</time>
      </trkpt>
      <trkpt lat="44.06196" lon="7.25809">
        <ele>901.8</ele>
        <time>2024-07-09T12:28:47Z</time>
      </trkpt>
      <trkpt lat="44.06199" lon="7.25806">
        <ele>901.8</ele>
        <time>2024-07-09T12:28:48Z</time>
      </trkpt>
      <trkpt lat="44.06202" lon="7.25802">
        <ele>902</ele>
        <time>2024-07-09T12:28:49Z</time>
      </trkpt>
      <trkpt lat="44.06204" lon="7.25799">
        <ele>902</ele>
        <time>2024-07-09T12:28:50Z</time>
      </trkpt>
      <trkpt lat="44.06207" lon="7.25796">
        <ele>901.8</ele>
        <time>2024-07-09T12:28:51Z</time>
      </trkpt>
      <trkpt lat="44.0621" lon="7.25793">
        <ele>901.8</ele>
        <time>2024-07-09T12:28:52Z</time>
      </trkpt>
      <trkpt lat="44.06212" lon="7.2579">
        <ele>901.8</ele>
        <time>2024-07-09T12:28:53Z</time>
      </trkpt>
      <trkpt lat="44.06215" lon="7.25787">
        <ele>902.8</ele>
        <time>2024-07-09T12:28:54Z</time>
      </trkpt>
      <trkpt lat="44.06219" lon="7.25785">
        <ele>902.8</ele>
        <time>2024-07-09T12:28:55Z</time>
      </trkpt>
      <trkpt lat="44.06222" lon="7.25783">
        <ele>902.8</ele>
        <time>2024-07-09T12:28:56Z</time>
      </trkpt>
      <trkpt lat="44.06225" lon="7.25781">
        <ele>902.8</ele>
        <time>2024-07-09T12:28:57Z</time>
      </trkpt>
      <trkpt lat="44.06228" lon="7.2578">
        <ele>903</ele>
        <time>2024-07-09T12:28:58Z</time>
      </trkpt>
      <trkpt lat="44.06231" lon="7.25779">
        <ele>903</ele>
        <time>2024-07-09T12:28:59Z</time>
      </trkpt>
      <trkpt lat="44.06234" lon="7.25778">
        <ele>903</ele>
        <time>2024-07-09T12:29:00Z</time>
      </trkpt>
      <trkpt lat="44.06238" lon="7.25778">
        <ele>903</ele>
        <time>2024-07-09T12:29:01Z</time>
      </trkpt>
      <trkpt lat="44.06241" lon="7.25777">
        <ele>903</ele>
        <time>2024-07-09T12:29:02Z</time>
      </trkpt>
      <trkpt lat="44.06244" lon="7.25776">
        <ele>903</ele>
        <time>2024-07-09T12:29:03Z</time>
      </trkpt>
      <trkpt lat="44.06247" lon="7.25775">
        <ele>903.6</ele>
        <time>2024-07-09T12:29:04Z</time>
      </trkpt>
      <trkpt lat="44.0625" lon="7.25774">
        <ele>903.6</ele>
        <time>2024-07-09T12:29:05Z</time>
      </trkpt>
      <trkpt lat="44.06253" lon="7.25773">
        <ele>903.6</ele>
        <time>2024-07-09T12:29:06Z</time>
      </trkpt>
      <trkpt lat="44.06256" lon="7.25772">
        <ele>904.2</ele>
        <time>2024-07-09T12:29:07Z</time>
      </trkpt>
      <trkpt lat="44.0626" lon="7.25772">
        <ele>904.2</ele>
        <time>2024-07-09T12:29:08Z</time>
      </trkpt>
      <trkpt lat="44.06264" lon="7.25772">
        <ele>904.4</ele>
        <time>2024-07-09T12:29:09Z</time>
      </trkpt>
      <trkpt lat="44.06267" lon="7.25772">
        <ele>904.4</ele>
        <time>2024-07-09T12:29:10Z</time>
      </trkpt>
      <trkpt lat="44.0627" lon="7.25771">
        <ele>904.4</ele>
        <time>2024-07-09T12:29:11Z</time>
      </trkpt>
      <trkpt lat="44.06274" lon="7.25771">
        <ele>904.4</ele>
        <time>2024-07-09T12:29:12Z</time>
      </trkpt>
      <trkpt lat="44.06277" lon="7.25771">
        <ele>904.8</ele>
        <time>2024-07-09T12:29:13Z</time>
      </trkpt>
      <trkpt lat="44.06281" lon="7.2577">
        <ele>904.8</ele>
        <time>2024-07-09T12:29:14Z</time>
      </trkpt>
      <trkpt lat="44.06284" lon="7.2577">
        <ele>904.8</ele>
        <time>2024-07-09T12:29:15Z</time>
      </trkpt>
      <trkpt lat="44.06287" lon="7.25769">
        <ele>904.8</ele>
        <time>2024-07-09T12:29:16Z</time>
      </trkpt>
      <trkpt lat="44.06291" lon="7.25769">
        <ele>904.8</ele>
        <time>2024-07-09T12:29:17Z</time>
      </trkpt>
      <trkpt lat="44.06294" lon="7.25769">
        <ele>905</ele>
        <time>2024-07-09T12:29:18Z</time>
      </trkpt>
      <trkpt lat="44.06298" lon="7.25769">
        <ele>905</ele>
        <time>2024-07-09T12:29:19Z</time>
      </trkpt>
      <trkpt lat="44.06301" lon="7.25769">
        <ele>905</ele>
        <time>2024-07-09T12:29:20Z</time>
      </trkpt>
      <trkpt lat="44.06305" lon="7.2577">
        <ele>905</ele>
        <time>2024-07-09T12:29:21Z</time>
      </trkpt>
      <trkpt lat="44.06308" lon="7.25769">
        <ele>905.8</ele>
        <time>2024-07-09T12:29:22Z</time>
      </trkpt>
      <trkpt lat="44.06311" lon="7.25769">
        <ele>905.8</ele>
        <time>2024-07-09T12:29:23Z</time>
      </trkpt>
      <trkpt lat="44.06315" lon="7.25769">
        <ele>905.8</ele>
        <time>2024-07-09T12:29:24Z</time>
      </trkpt>
      <trkpt lat="44.06318" lon="7.25769">
        <ele>905.8</ele>
        <time>2024-07-09T12:29:25Z</time>
      </trkpt>
      <trkpt lat="44.06322" lon="7.2577">
        <ele>906.2</ele>
        <time>2024-07-09T12:29:26Z</time>
      </trkpt>
      <trkpt lat="44.06326" lon="7.25769">
        <ele>906.2</ele>
        <time>2024-07-09T12:29:27Z</time>
      </trkpt>
      <trkpt lat="44.06329" lon="7.25769">
        <ele>906.2</ele>
        <time>2024-07-09T12:29:28Z</time>
      </trkpt>
      <trkpt lat="44.06333" lon="7.2577">
        <ele>906.8</ele>
        <time>2024-07-09T12:29:29Z</time>
      </trkpt>
      <trkpt lat="44.06337" lon="7.2577">
        <ele>906.8</ele>
        <time>2024-07-09T12:29:30Z</time>
      </trkpt>
      <trkpt lat="44.06341" lon="7.2577">
        <ele>907</ele>
        <time>2024-07-09T12:29:31Z</time>
      </trkpt>
      <trkpt lat="44.06344" lon="7.25771">
        <ele>907</ele>
        <time>2024-07-09T12:29:32Z</time>
      </trkpt>
      <trkpt lat="44.06348" lon="7.2577">
        <ele>907</ele>
        <time>2024-07-09T12:29:33Z</time>
      </trkpt>
      <trkpt lat="44.06351" lon="7.25771">
        <ele>907</ele>
        <time>2024-07-09T12:29:34Z</time>
      </trkpt>
      <trkpt lat="44.06354" lon="7.25771">
        <ele>907.8</ele>
        <time>2024-07-09T12:29:35Z</time>
      </trkpt>
      <trkpt lat="44.06357" lon="7.2577">
        <ele>907.8</ele>
        <time>2024-07-09T12:29:36Z</time>
      </trkpt>
      <trkpt lat="44.0636" lon="7.25769">
        <ele>907.8</ele>
        <time>2024-07-09T12:29:37Z</time>
      </trkpt>
      <trkpt lat="44.06364" lon="7.25768">
        <ele>908.8</ele>
        <time>2024-07-09T12:29:38Z</time>
      </trkpt>
      <trkpt lat="44.06367" lon="7.25767">
        <ele>908.8</ele>
        <time>2024-07-09T12:29:39Z</time>
      </trkpt>
      <trkpt lat="44.0637" lon="7.25765">
        <ele>908.8</ele>
        <time>2024-07-09T12:29:40Z</time>
      </trkpt>
      <trkpt lat="44.06372" lon="7.25764">
        <ele>908.8</ele>
        <time>2024-07-09T12:29:41Z</time>
      </trkpt>
      <trkpt lat="44.06375" lon="7.25762">
        <ele>908.8</ele>
        <time>2024-07-09T12:29:42Z</time>
      </trkpt>
      <trkpt lat="44.06378" lon="7.25761">
        <ele>909.2</ele>
        <time>2024-07-09T12:29:43Z</time>
      </trkpt>
      <trkpt lat="44.06381" lon="7.25759">
        <ele>909.2</ele>
        <time>2024-07-09T12:29:44Z</time>
      </trkpt>
      <trkpt lat="44.06384" lon="7.25759">
        <ele>909.2</ele>
        <time>2024-07-09T12:29:45Z</time>
      </trkpt>
      <trkpt lat="44.06387" lon="7.25759">
        <ele>909.2</ele>
        <time>2024-07-09T12:29:46Z</time>
      </trkpt>
      <trkpt lat="44.06391" lon="7.25759">
        <ele>909</ele>
        <time>2024-07-09T12:29:47Z</time>
      </trkpt>
      <trkpt lat="44.06394" lon="7.25759">
        <ele>909</ele>
        <time>2024-07-09T12:29:48Z</time>
      </trkpt>
      <trkpt lat="44.06397" lon="7.25759">
        <ele>909</ele>
        <time>2024-07-09T12:29:49Z</time>
      </trkpt>
      <trkpt lat="44.064" lon="7.25758">
        <ele>909</ele>
        <time>2024-07-09T12:29:50Z</time>
      </trkpt>
      <trkpt lat="44.06404" lon="7.25757">
        <ele>909</ele>
        <time>2024-07-09T12:29:51Z</time>
      </trkpt>
      <trkpt lat="44.06407" lon="7.25757">
        <ele>909</ele>
        <time>2024-07-09T12:29:52Z</time>
      </trkpt>
      <trkpt lat="44.0641" lon="7.25756">
        <ele>909.2</ele>
        <time>2024-07-09T12:29:53Z</time>
      </trkpt>
      <trkpt lat="44.06414" lon="7.25755">
        <ele>909.2</ele>
        <time>2024-07-09T12:29:54Z</time>
      </trkpt>
      <trkpt lat="44.06417" lon="7.25754">
        <ele>909.2</ele>
        <time>2024-07-09T12:29:55Z</time>
      </trkpt>
      <trkpt lat="44.06421" lon="7.25752">
        <ele>909.2</ele>
        <time>2024-07-09T12:29:56Z</time>
      </trkpt>
      <trkpt lat="44.06423" lon="7.25751">
        <ele>909.2</ele>
        <time>2024-07-09T12:29:57Z</time>
      </trkpt>
      <trkpt lat="44.06426" lon="7.2575">
        <ele>909.2</ele>
        <time>2024-07-09T12:29:58Z</time>
      </trkpt>
      <trkpt lat="44.0643" lon="7.25749">
        <ele>909.2</ele>
        <time>2024-07-09T12:29:59Z</time>
      </trkpt>
      <trkpt lat="44.06433" lon="7.25747">
        <ele>909.2</ele>
        <time>2024-07-09T12:30:00Z</time>
      </trkpt>
      <trkpt lat="44.06435" lon="7.25745">
        <ele>909.4</ele>
        <time>2024-07-09T12:30:01Z</time>
      </trkpt>
      <trkpt lat="44.06436" lon="7.25742">
        <ele>909.6</ele>
        <time>2024-07-09T12:30:02Z</time>
      </trkpt>
      <trkpt lat="44.06438" lon="7.25739">
        <ele>909.6</ele>
        <time>2024-07-09T12:30:03Z</time>
      </trkpt>
      <trkpt lat="44.06438" lon="7.25736">
        <ele>909.6</ele>
        <time>2024-07-09T12:30:04Z</time>
      </trkpt>
      <trkpt lat="44.06439" lon="7.25734">
        <ele>909.6</ele>
        <time>2024-07-09T12:30:05Z</time>
      </trkpt>
      <trkpt lat="44.06441" lon="7.25732">
        <ele>909.6</ele>
        <time>2024-07-09T12:30:06Z</time>
      </trkpt>
      <trkpt lat="44.06442" lon="7.25731">
        <ele>909.6</ele>
        <time>2024-07-09T12:30:07Z</time>
      </trkpt>
      <trkpt lat="44.06443" lon="7.2573">
        <ele>909.6</ele>
        <time>2024-07-09T12:30:08Z</time>
      </trkpt>
      <trkpt lat="44.06443" lon="7.2573">
        <ele>909.4</ele>
        <time>2024-07-09T12:30:09Z</time>
      </trkpt>
      <trkpt lat="44.06443" lon="7.2573">
        <ele>908.6</ele>
        <time>2024-07-09T12:30:10Z</time>
      </trkpt>
      <trkpt lat="44.06443" lon="7.2573">
        <ele>908.6</ele>
        <time>2024-07-09T12:30:11Z</time>
      </trkpt>
      <trkpt lat="44.06449" lon="7.25728">
        <ele>909.6</ele>
        <time>2024-07-09T12:30:26Z</time>
      </trkpt>
      <trkpt lat="44.06452" lon="7.25727">
        <ele>909.6</ele>
        <time>2024-07-09T12:30:27Z</time>
      </trkpt>
      <trkpt lat="44.06455" lon="7.25726">
        <ele>909.6</ele>
        <time>2024-07-09T12:30:28Z</time>
      </trkpt>
      <trkpt lat="44.06458" lon="7.25725">
        <ele>909.6</ele>
        <time>2024-07-09T12:30:29Z</time>
      </trkpt>
      <trkpt lat="44.0646" lon="7.25723">
        <ele>909.6</ele>
        <time>2024-07-09T12:30:30Z</time>
      </trkpt>
      <trkpt lat="44.06463" lon="7.25722">
        <ele>908.8</ele>
        <time>2024-07-09T12:30:31Z</time>
      </trkpt>
      <trkpt lat="44.06465" lon="7.2572">
        <ele>908.8</ele>
        <time>2024-07-09T12:30:32Z</time>
      </trkpt>
      <trkpt lat="44.06467" lon="7.25719">
        <ele>908.6</ele>
        <time>2024-07-09T12:30:33Z</time>
      </trkpt>
      <trkpt lat="44.06469" lon="7.25718">
        <ele>908.6</ele>
        <time>2024-07-09T12:30:34Z</time>
      </trkpt>
      <trkpt lat="44.06471" lon="7.25717">
        <ele>908.6</ele>
        <time>2024-07-09T12:30:35Z</time>
      </trkpt>
      <trkpt lat="44.06472" lon="7.25717">
        <ele>907.8</ele>
        <time>2024-07-09T12:30:36Z</time>
      </trkpt>
      <trkpt lat="44.06474" lon="7.25717">
        <ele>907.8</ele>
        <time>2024-07-09T12:30:37Z</time>
      </trkpt>
      <trkpt lat="44.06475" lon="7.25716">
        <ele>907.8</ele>
        <time>2024-07-09T12:30:38Z</time>
      </trkpt>
      <trkpt lat="44.06475" lon="7.25715">
        <ele>907.8</ele>
        <time>2024-07-09T12:30:39Z</time>
      </trkpt>
      <trkpt lat="44.06475" lon="7.25714">
        <ele>907.8</ele>
        <time>2024-07-09T12:30:40Z</time>
      </trkpt>
      <trkpt lat="44.06475" lon="7.25713">
        <ele>907.8</ele>
        <time>2024-07-09T12:30:41Z</time>
      </trkpt>
      <trkpt lat="44.06475" lon="7.25713">
        <ele>908.2</ele>
        <time>2024-07-09T12:30:42Z</time>
      </trkpt>
      <trkpt lat="44.06475" lon="7.25712">
        <ele>908.2</ele>
        <time>2024-07-09T12:30:43Z</time>
      </trkpt>
      <trkpt lat="44.06475" lon="7.25711">
        <ele>908.2</ele>
        <time>2024-07-09T12:30:44Z</time>
      </trkpt>
      <trkpt lat="44.06476" lon="7.25709">
        <ele>907.8</ele>
        <time>2024-07-09T12:30:45Z</time>
      </trkpt>
      <trkpt lat="44.06478" lon="7.25709">
        <ele>907.8</ele>
        <time>2024-07-09T12:30:46Z</time>
      </trkpt>
      <trkpt lat="44.06481" lon="7.25709">
        <ele>907.6</ele>
        <time>2024-07-09T12:30:47Z</time>
      </trkpt>
      <trkpt lat="44.06483" lon="7.25708">
        <ele>907.6</ele>
        <time>2024-07-09T12:30:48Z</time>
      </trkpt>
      <trkpt lat="44.06485" lon="7.25706">
        <ele>907.6</ele>
        <time>2024-07-09T12:30:49Z</time>
      </trkpt>
      <trkpt lat="44.06487" lon="7.25704">
        <ele>906.6</ele>
        <time>2024-07-09T12:30:50Z</time>
      </trkpt>
      <trkpt lat="44.0649" lon="7.25702">
        <ele>905.8</ele>
        <time>2024-07-09T12:30:51Z</time>
      </trkpt>
      <trkpt lat="44.06491" lon="7.25699">
        <ele>905.8</ele>
        <time>2024-07-09T12:30:52Z</time>
      </trkpt>
      <trkpt lat="44.06493" lon="7.25697">
        <ele>905.8</ele>
        <time>2024-07-09T12:30:53Z</time>
      </trkpt>
      <trkpt lat="44.06493" lon="7.25694">
        <ele>904.8</ele>
        <time>2024-07-09T12:30:54Z</time>
      </trkpt>
      <trkpt lat="44.06493" lon="7.25692">
        <ele>904.8</ele>
        <time>2024-07-09T12:30:55Z</time>
      </trkpt>
      <trkpt lat="44.06493" lon="7.25688">
        <ele>904.2</ele>
        <time>2024-07-09T12:30:56Z</time>
      </trkpt>
      <trkpt lat="44.06492" lon="7.25685">
        <ele>904.2</ele>
        <time>2024-07-09T12:30:57Z</time>
      </trkpt>
      <trkpt lat="44.06491" lon="7.25681">
        <ele>903.2</ele>
        <time>2024-07-09T12:30:58Z</time>
      </trkpt>
      <trkpt lat="44.0649" lon="7.25679">
        <ele>902.6</ele>
        <time>2024-07-09T12:30:59Z</time>
      </trkpt>
      <trkpt lat="44.06487" lon="7.25678">
        <ele>902.6</ele>
        <time>2024-07-09T12:31:00Z</time>
      </trkpt>
      <trkpt lat="44.06485" lon="7.25678">
        <ele>902.6</ele>
        <time>2024-07-09T12:31:01Z</time>
      </trkpt>
      <trkpt lat="44.06483" lon="7.25679">
        <ele>902.6</ele>
        <time>2024-07-09T12:31:02Z</time>
      </trkpt>
      <trkpt lat="44.06481" lon="7.2568">
        <ele>901.6</ele>
        <time>2024-07-09T12:31:03Z</time>
      </trkpt>
      <trkpt lat="44.0648" lon="7.2568">
        <ele>901.2</ele>
        <time>2024-07-09T12:31:04Z</time>
      </trkpt>
      <trkpt lat="44.0648" lon="7.2568">
        <ele>901.2</ele>
        <time>2024-07-09T12:31:05Z</time>
      </trkpt>
      <trkpt lat="44.06479" lon="7.25686">
        <ele>901</ele>
        <time>2024-07-09T12:31:12Z</time>
      </trkpt>
      <trkpt lat="44.0648" lon="7.25687">
        <ele>901</ele>
        <time>2024-07-09T12:31:13Z</time>
      </trkpt>
      <trkpt lat="44.0648" lon="7.25688">
        <ele>901</ele>
        <time>2024-07-09T12:31:14Z</time>
      </trkpt>
      <trkpt lat="44.0648" lon="7.25689">
        <ele>901</ele>
        <time>2024-07-09T12:31:15Z</time>
      </trkpt>
      <trkpt lat="44.0648" lon="7.25689">
        <ele>901</ele>
        <time>2024-07-09T12:31:16Z</time>
      </trkpt>
      <trkpt lat="44.06479" lon="7.25687">
        <ele>900.2</ele>
        <time>2024-07-09T12:31:51Z</time>
      </trkpt>
      <trkpt lat="44.06478" lon="7.25686">
        <ele>900.2</ele>
        <time>2024-07-09T12:31:52Z</time>
      </trkpt>
      <trkpt lat="44.06477" lon="7.25686">
        <ele>900</ele>
        <time>2024-07-09T12:31:53Z</time>
      </trkpt>
      <trkpt lat="44.06476" lon="7.25686">
        <ele>900</ele>
        <time>2024-07-09T12:31:54Z</time>
      </trkpt>
      <trkpt lat="44.06475" lon="7.25687">
        <ele>900</ele>
        <time>2024-07-09T12:31:55Z</time>
      </trkpt>
      <trkpt lat="44.06474" lon="7.25687">
        <ele>900</ele>
        <time>2024-07-09T12:31:56Z</time>
      </trkpt>
      <trkpt lat="44.06473" lon="7.25687">
        <ele>899.6</ele>
        <time>2024-07-09T12:31:57Z</time>
      </trkpt>
      <trkpt lat="44.06473" lon="7.25688">
        <ele>899.6</ele>
        <time>2024-07-09T12:31:58Z</time>
      </trkpt>
      <trkpt lat="44.06473" lon="7.25688">
        <ele>899.6</ele>
        <time>2024-07-09T12:31:59Z</time>
      </trkpt>
      <trkpt lat="44.06473" lon="7.25688">
        <ele>899.4</ele>
        <time>2024-07-09T12:32:00Z</time>
      </trkpt>
      <trkpt lat="44.06468" lon="7.2569">
        <ele>898.4</ele>
        <time>2024-07-09T12:32:07Z</time>
      </trkpt>
      <trkpt lat="44.06466" lon="7.25691">
        <ele>898.4</ele>
        <time>2024-07-09T12:32:08Z</time>
      </trkpt>
      <trkpt lat="44.06463" lon="7.25691">
        <ele>898.2</ele>
        <time>2024-07-09T12:32:09Z</time>
      </trkpt>
      <trkpt lat="44.06461" lon="7.2569">
        <ele>898.2</ele>
        <time>2024-07-09T12:32:10Z</time>
      </trkpt>
      <trkpt lat="44.06459" lon="7.2569">
        <ele>897.8</ele>
        <time>2024-07-09T12:32:11Z</time>
      </trkpt>
      <trkpt lat="44.06457" lon="7.2569">
        <ele>897.8</ele>
        <time>2024-07-09T12:32:12Z</time>
      </trkpt>
      <trkpt lat="44.06455" lon="7.25689">
        <ele>897.8</ele>
        <time>2024-07-09T12:32:13Z</time>
      </trkpt>
      <trkpt lat="44.06453" lon="7.25689">
        <ele>897.2</ele>
        <time>2024-07-09T12:32:14Z</time>
      </trkpt>
      <trkpt lat="44.06451" lon="7.25689">
        <ele>897</ele>
        <time>2024-07-09T12:32:15Z</time>
      </trkpt>
      <trkpt lat="44.06449" lon="7.25689">
        <ele>897</ele>
        <time>2024-07-09T12:32:16Z</time>
      </trkpt>
      <trkpt lat="44.06448" lon="7.25689">
        <ele>897</ele>
        <time>2024-07-09T12:32:17Z</time>
      </trkpt>
      <trkpt lat="44.06447" lon="7.25688">
        <ele>896.4</ele>
        <time>2024-07-09T12:32:18Z</time>
      </trkpt>
      <trkpt lat="44.06446" lon="7.25687">
        <ele>896.4</ele>
        <time>2024-07-09T12:32:19Z</time>
      </trkpt>
      <trkpt lat="44.06445" lon="7.25686">
        <ele>896.2</ele>
        <time>2024-07-09T12:32:20Z</time>
      </trkpt>
      <trkpt lat="44.06445" lon="7.25686">
        <ele>896.2</ele>
        <time>2024-07-09T12:32:21Z</time>
      </trkpt>
      <trkpt lat="44.06435" lon="7.25692">
        <ele>894.2</ele>
        <time>2024-07-09T12:33:10Z</time>
      </trkpt>
      <trkpt lat="44.06434" lon="7.25693">
        <ele>894.2</ele>
        <time>2024-07-09T12:33:11Z</time>
      </trkpt>
      <trkpt lat="44.06432" lon="7.25694">
        <ele>894.2</ele>
        <time>2024-07-09T12:33:12Z</time>
      </trkpt>
      <trkpt lat="44.06431" lon="7.25695">
        <ele>894.2</ele>
        <time>2024-07-09T12:33:13Z</time>
      </trkpt>
      <trkpt lat="44.0643" lon="7.25695">
        <ele>894.2</ele>
        <time>2024-07-09T12:33:14Z</time>
      </trkpt>
      <trkpt lat="44.06428" lon="7.25696">
        <ele>893.6</ele>
        <time>2024-07-09T12:33:15Z</time>
      </trkpt>
      <trkpt lat="44.06427" lon="7.25697">
        <ele>893.4</ele>
        <time>2024-07-09T12:33:16Z</time>
      </trkpt>
      <trkpt lat="44.06426" lon="7.25697">
        <ele>893.4</ele>
        <time>2024-07-09T12:33:17Z</time>
      </trkpt>
      <trkpt lat="44.06424" lon="7.25697">
        <ele>893.4</ele>
        <time>2024-07-09T12:33:18Z</time>
      </trkpt>
      <trkpt lat="44.06424" lon="7.25697">
        <ele>892.4</ele>
        <time>2024-07-09T12:33:19Z</time>
      </trkpt>
      <trkpt lat="44.06422" lon="7.25698">
        <ele>892.2</ele>
        <time>2024-07-09T12:33:20Z</time>
      </trkpt>
      <trkpt lat="44.06422" lon="7.25698">
        <ele>892.2</ele>
        <time>2024-07-09T12:33:21Z</time>
      </trkpt>
      <trkpt lat="44.06421" lon="7.25698">
        <ele>892.2</ele>
        <time>2024-07-09T12:33:22Z</time>
      </trkpt>
      <trkpt lat="44.0642" lon="7.25699">
        <ele>892.2</ele>
        <time>2024-07-09T12:33:23Z</time>
      </trkpt>
      <trkpt lat="44.06419" lon="7.257">
        <ele>891.8</ele>
        <time>2024-07-09T12:33:24Z</time>
      </trkpt>
      <trkpt lat="44.06417" lon="7.25701">
        <ele>891.8</ele>
        <time>2024-07-09T12:33:25Z</time>
      </trkpt>
      <trkpt lat="44.06415" lon="7.25702">
        <ele>891.8</ele>
        <time>2024-07-09T12:33:26Z</time>
      </trkpt>
      <trkpt lat="44.06413" lon="7.25703">
        <ele>891.8</ele>
        <time>2024-07-09T12:33:27Z</time>
      </trkpt>
      <trkpt lat="44.06411" lon="7.25704">
        <ele>891.4</ele>
        <time>2024-07-09T12:33:28Z</time>
      </trkpt>
      <trkpt lat="44.0641" lon="7.25705">
        <ele>891.4</ele>
        <time>2024-07-09T12:33:29Z</time>
      </trkpt>
      <trkpt lat="44.06408" lon="7.25705">
        <ele>891.6</ele>
        <time>2024-07-09T12:33:30Z</time>
      </trkpt>
      <trkpt lat="44.06407" lon="7.25706">
        <ele>891.6</ele>
        <time>2024-07-09T12:33:31Z</time>
      </trkpt>
      <trkpt lat="44.06406" lon="7.25707">
        <ele>891.6</ele>
        <time>2024-07-09T12:33:32Z</time>
      </trkpt>
      <trkpt lat="44.06404" lon="7.25707">
        <ele>891.6</ele>
        <time>2024-07-09T12:33:33Z</time>
      </trkpt>
      <trkpt lat="44.06402" lon="7.25708">
        <ele>890.8</ele>
        <time>2024-07-09T12:33:34Z</time>
      </trkpt>
      <trkpt lat="44.06401" lon="7.25709">
        <ele>890.8</ele>
        <time>2024-07-09T12:33:35Z</time>
      </trkpt>
      <trkpt lat="44.06401" lon="7.25709">
        <ele>890.8</ele>
        <time>2024-07-09T12:33:36Z</time>
      </trkpt>
      <trkpt lat="44.06399" lon="7.25709">
        <ele>890.8</ele>
        <time>2024-07-09T12:33:37Z</time>
      </trkpt>
      <trkpt lat="44.06398" lon="7.2571">
        <ele>890.6</ele>
        <time>2024-07-09T12:33:38Z</time>
      </trkpt>
      <trkpt lat="44.06396" lon="7.25711">
        <ele>890.6</ele>
        <time>2024-07-09T12:33:39Z</time>
      </trkpt>
      <trkpt lat="44.06396" lon="7.25712">
        <ele>890.6</ele>
        <time>2024-07-09T12:33:40Z</time>
      </trkpt>
      <trkpt lat="44.06396" lon="7.25712">
        <ele>890.6</ele>
        <time>2024-07-09T12:33:41Z</time>
      </trkpt>
      <trkpt lat="44.06393" lon="7.25714">
        <ele>890.6</ele>
        <time>2024-07-09T12:33:45Z</time>
      </trkpt>
      <trkpt lat="44.06393" lon="7.25715">
        <ele>890.6</ele>
        <time>2024-07-09T12:33:46Z</time>
      </trkpt>
      <trkpt lat="44.06392" lon="7.25716">
        <ele>890.8</ele>
        <time>2024-07-09T12:33:47Z</time>
      </trkpt>
      <trkpt lat="44.06392" lon="7.25718">
        <ele>890.8</ele>
        <time>2024-07-09T12:33:48Z</time>
      </trkpt>
      <trkpt lat="44.06392" lon="7.25719">
        <ele>890.8</ele>
        <time>2024-07-09T12:33:49Z</time>
      </trkpt>
      <trkpt lat="44.06391" lon="7.25719">
        <ele>891</ele>
        <time>2024-07-09T12:33:50Z</time>
      </trkpt>
      <trkpt lat="44.06391" lon="7.25721">
        <ele>891</ele>
        <time>2024-07-09T12:33:51Z</time>
      </trkpt>
      <trkpt lat="44.0639" lon="7.25722">
        <ele>891</ele>
        <time>2024-07-09T12:33:52Z</time>
      </trkpt>
      <trkpt lat="44.0639" lon="7.25722">
        <ele>891</ele>
        <time>2024-07-09T12:33:53Z</time>
      </trkpt>
      <trkpt lat="44.0639" lon="7.25722">
        <ele>891</ele>
        <time>2024-07-09T12:33:54Z</time>
      </trkpt>
      <trkpt lat="44.0639" lon="7.25722">
        <ele>891</ele>
        <time>2024-07-09T12:33:55Z</time>
      </trkpt>
      <trkpt lat="44.06385" lon="7.2572">
        <ele>891.2</ele>
        <time>2024-07-09T12:34:07Z</time>
      </trkpt>
      <trkpt lat="44.06384" lon="7.2572">
        <ele>891</ele>
        <time>2024-07-09T12:34:08Z</time>
      </trkpt>
      <trkpt lat="44.06383" lon="7.25719">
        <ele>891</ele>
        <time>2024-07-09T12:34:09Z</time>
      </trkpt>
      <trkpt lat="44.06383" lon="7.25719">
        <ele>891</ele>
        <time>2024-07-09T12:34:10Z</time>
      </trkpt>
      <trkpt lat="44.06382" lon="7.25717">
        <ele>891</ele>
        <time>2024-07-09T12:34:11Z</time>
      </trkpt>
      <trkpt lat="44.06381" lon="7.25717">
        <ele>891</ele>
        <time>2024-07-09T12:34:12Z</time>
      </trkpt>
      <trkpt lat="44.06381" lon="7.25715">
        <ele>890.8</ele>
        <time>2024-07-09T12:34:13Z</time>
      </trkpt>
      <trkpt lat="44.06381" lon="7.25715">
        <ele>890.8</ele>
        <time>2024-07-09T12:34:14Z</time>
      </trkpt>
      <trkpt lat="44.06382" lon="7.25714">
        <ele>890.8</ele>
        <time>2024-07-09T12:34:15Z</time>
      </trkpt>
      <trkpt lat="44.06381" lon="7.25713">
        <ele>890.8</ele>
        <time>2024-07-09T12:34:16Z</time>
      </trkpt>
      <trkpt lat="44.06381" lon="7.25712">
        <ele>890.8</ele>
        <time>2024-07-09T12:34:17Z</time>
      </trkpt>
      <trkpt lat="44.06382" lon="7.25711">
        <ele>890.8</ele>
        <time>2024-07-09T12:34:18Z</time>
      </trkpt>
      <trkpt lat="44.06381" lon="7.2571">
        <ele>890.8</ele>
        <time>2024-07-09T12:34:19Z</time>
      </trkpt>
      <trkpt lat="44.06381" lon="7.2571">
        <ele>890.8</ele>
        <time>2024-07-09T12:34:20Z</time>
      </trkpt>
      <trkpt lat="44.0638" lon="7.25716">
        <ele>890.4</ele>
        <time>2024-07-09T12:34:43Z</time>
      </trkpt>
      <trkpt lat="44.0638" lon="7.25716">
        <ele>890.6</ele>
        <time>2024-07-09T12:34:44Z</time>
      </trkpt>
      <trkpt lat="44.06381" lon="7.25717">
        <ele>890.6</ele>
        <time>2024-07-09T12:34:45Z</time>
      </trkpt>
      <trkpt lat="44.06381" lon="7.25719">
        <ele>890.6</ele>
        <time>2024-07-09T12:34:46Z</time>
      </trkpt>
      <trkpt lat="44.06382" lon="7.25719">
        <ele>891.2</ele>
        <time>2024-07-09T12:34:47Z</time>
      </trkpt>
      <trkpt lat="44.06383" lon="7.25719">
        <ele>891.4</ele>
        <time>2024-07-09T12:34:48Z</time>
      </trkpt>
      <trkpt lat="44.06384" lon="7.2572">
        <ele>891.4</ele>
        <time>2024-07-09T12:34:49Z</time>
      </trkpt>
      <trkpt lat="44.06385" lon="7.2572">
        <ele>891.4</ele>
        <time>2024-07-09T12:34:50Z</time>
      </trkpt>
      <trkpt lat="44.06387" lon="7.2572">
        <ele>891.8</ele>
        <time>2024-07-09T12:34:51Z</time>
      </trkpt>
      <trkpt lat="44.06388" lon="7.2572">
        <ele>891.8</ele>
        <time>2024-07-09T12:34:52Z</time>
      </trkpt>
      <trkpt lat="44.06389" lon="7.25719">
        <ele>891.8</ele>
        <time>2024-07-09T12:34:53Z</time>
      </trkpt>
      <trkpt lat="44.0639" lon="7.25719">
        <ele>891.8</ele>
        <time>2024-07-09T12:34:54Z</time>
      </trkpt>
      <trkpt lat="44.06391" lon="7.25718">
        <ele>891.8</ele>
        <time>2024-07-09T12:34:55Z</time>
      </trkpt>
      <trkpt lat="44.06392" lon="7.25718">
        <ele>891.8</ele>
        <time>2024-07-09T12:34:56Z</time>
      </trkpt>
      <trkpt lat="44.06392" lon="7.25717">
        <ele>892.2</ele>
        <time>2024-07-09T12:34:57Z</time>
      </trkpt>
      <trkpt lat="44.06393" lon="7.25716">
        <ele>892.2</ele>
        <time>2024-07-09T12:34:58Z</time>
      </trkpt>
      <trkpt lat="44.06393" lon="7.25715">
        <ele>892.2</ele>
        <time>2024-07-09T12:34:59Z</time>
      </trkpt>
      <trkpt lat="44.06394" lon="7.25714">
        <ele>891.4</ele>
        <time>2024-07-09T12:35:00Z</time>
      </trkpt>
      <trkpt lat="44.06394" lon="7.25712">
        <ele>891.4</ele>
        <time>2024-07-09T12:35:01Z</time>
      </trkpt>
      <trkpt lat="44.06395" lon="7.25711">
        <ele>891.4</ele>
        <time>2024-07-09T12:35:02Z</time>
      </trkpt>
      <trkpt lat="44.06395" lon="7.2571">
        <ele>891.4</ele>
        <time>2024-07-09T12:35:03Z</time>
      </trkpt>
      <trkpt lat="44.06396" lon="7.25709">
        <ele>891</ele>
        <time>2024-07-09T12:35:04Z</time>
      </trkpt>
      <trkpt lat="44.06397" lon="7.25709">
        <ele>891</ele>
        <time>2024-07-09T12:35:05Z</time>
      </trkpt>
      <trkpt lat="44.06398" lon="7.25709">
        <ele>891.2</ele>
        <time>2024-07-09T12:35:06Z</time>
      </trkpt>
      <trkpt lat="44.06399" lon="7.25709">
        <ele>891.2</ele>
        <time>2024-07-09T12:35:07Z</time>
      </trkpt>
      <trkpt lat="44.064" lon="7.25709">
        <ele>891.2</ele>
        <time>2024-07-09T12:35:08Z</time>
      </trkpt>
      <trkpt lat="44.06401" lon="7.25708">
        <ele>891.2</ele>
        <time>2024-07-09T12:35:09Z</time>
      </trkpt>
      <trkpt lat="44.06402" lon="7.25708">
        <ele>891.2</ele>
        <time>2024-07-09T12:35:10Z</time>
      </trkpt>
      <trkpt lat="44.06403" lon="7.25707">
        <ele>891.2</ele>
        <time>2024-07-09T12:35:11Z</time>
      </trkpt>
      <trkpt lat="44.06404" lon="7.25706">
        <ele>891.2</ele>
        <time>2024-07-09T12:35:12Z</time>
      </trkpt>
      <trkpt lat="44.06404" lon="7.25706">
        <ele>891.6</ele>
        <time>2024-07-09T12:35:13Z</time>
      </trkpt>
      <trkpt lat="44.06405" lon="7.25705">
        <ele>891.4</ele>
        <time>2024-07-09T12:35:14Z</time>
      </trkpt>
      <trkpt lat="44.06406" lon="7.25704">
        <ele>891.4</ele>
        <time>2024-07-09T12:35:15Z</time>
      </trkpt>
      <trkpt lat="44.06407" lon="7.25704">
        <ele>891.4</ele>
        <time>2024-07-09T12:35:16Z</time>
      </trkpt>
      <trkpt lat="44.06408" lon="7.25703">
        <ele>891.4</ele>
        <time>2024-07-09T12:35:17Z</time>
      </trkpt>
      <trkpt lat="44.06409" lon="7.25702">
        <ele>891.4</ele>
        <time>2024-07-09T12:35:18Z</time>
      </trkpt>
      <trkpt lat="44.06409" lon="7.25701">
        <ele>891.4</ele>
        <time>2024-07-09T12:35:19Z</time>
      </trkpt>
      <trkpt lat="44.06409" lon="7.257">
        <ele>891.4</ele>
        <time>2024-07-09T12:35:20Z</time>
      </trkpt>
      <trkpt lat="44.0641" lon="7.25699">
        <ele>891.4</ele>
        <time>2024-07-09T12:35:21Z</time>
      </trkpt>
      <trkpt lat="44.0641" lon="7.25698">
        <ele>891.4</ele>
        <time>2024-07-09T12:35:22Z</time>
      </trkpt>
      <trkpt lat="44.06411" lon="7.25697">
        <ele>891.4</ele>
        <time>2024-07-09T12:35:23Z</time>
      </trkpt>
      <trkpt lat="44.06411" lon="7.25696">
        <ele>891.4</ele>
        <time>2024-07-09T12:35:24Z</time>
      </trkpt>
      <trkpt lat="44.06412" lon="7.25696">
        <ele>891.4</ele>
        <time>2024-07-09T12:35:25Z</time>
      </trkpt>
      <trkpt lat="44.06413" lon="7.25695">
        <ele>891.4</ele>
        <time>2024-07-09T12:35:26Z</time>
      </trkpt>
      <trkpt lat="44.06413" lon="7.25694">
        <ele>892</ele>
        <time>2024-07-09T12:35:27Z</time>
      </trkpt>
      <trkpt lat="44.06413" lon="7.25694">
        <ele>892.2</ele>
        <time>2024-07-09T12:35:28Z</time>
      </trkpt>
      <trkpt lat="44.06414" lon="7.25693">
        <ele>892.2</ele>
        <time>2024-07-09T12:35:29Z</time>
      </trkpt>
      <trkpt lat="44.06414" lon="7.25692">
        <ele>892.2</ele>
        <time>2024-07-09T12:35:30Z</time>
      </trkpt>
      <trkpt lat="44.06415" lon="7.25691">
        <ele>892.4</ele>
        <time>2024-07-09T12:35:31Z</time>
      </trkpt>
      <trkpt lat="44.06415" lon="7.2569">
        <ele>892.4</ele>
        <time>2024-07-09T12:35:32Z</time>
      </trkpt>
      <trkpt lat="44.06415" lon="7.25689">
        <ele>892.4</ele>
        <time>2024-07-09T12:35:33Z</time>
      </trkpt>
      <trkpt lat="44.06415" lon="7.25688">
        <ele>892.4</ele>
        <time>2024-07-09T12:35:34Z</time>
      </trkpt>
      <trkpt lat="44.06416" lon="7.25687">
        <ele>892.4</ele>
        <time>2024-07-09T12:35:35Z</time>
      </trkpt>
      <trkpt lat="44.06416" lon="7.25685">
        <ele>892.4</ele>
        <time>2024-07-09T12:35:36Z</time>
      </trkpt>
      <trkpt lat="44.06416" lon="7.25684">
        <ele>892.2</ele>
        <time>2024-07-09T12:35:37Z</time>
      </trkpt>
      <trkpt lat="44.06417" lon="7.25682">
        <ele>892.2</ele>
        <time>2024-07-09T12:35:38Z</time>
      </trkpt>
      <trkpt lat="44.06417" lon="7.2568">
        <ele>892.2</ele>
        <time>2024-07-09T12:35:39Z</time>
      </trkpt>
      <trkpt lat="44.06417" lon="7.25679">
        <ele>892</ele>
        <time>2024-07-09T12:35:40Z</time>
      </trkpt>
      <trkpt lat="44.06417" lon="7.25678">
        <ele>892</ele>
        <time>2024-07-09T12:35:41Z</time>
      </trkpt>
      <trkpt lat="44.06418" lon="7.25677">
        <ele>892</ele>
        <time>2024-07-09T12:35:42Z</time>
      </trkpt>
      <trkpt lat="44.06419" lon="7.25676">
        <ele>892</ele>
        <time>2024-07-09T12:35:43Z</time>
      </trkpt>
      <trkpt lat="44.06419" lon="7.25675">
        <ele>892</ele>
        <time>2024-07-09T12:35:44Z</time>
      </trkpt>
      <trkpt lat="44.06419" lon="7.25674">
        <ele>892</ele>
        <time>2024-07-09T12:35:45Z</time>
      </trkpt>
      <trkpt lat="44.0642" lon="7.25673">
        <ele>892</ele>
        <time>2024-07-09T12:35:46Z</time>
      </trkpt>
      <trkpt lat="44.0642" lon="7.25673">
        <ele>892</ele>
        <time>2024-07-09T12:35:47Z</time>
      </trkpt>
      <trkpt lat="44.06421" lon="7.25673">
        <ele>892</ele>
        <time>2024-07-09T12:35:48Z</time>
      </trkpt>
      <trkpt lat="44.06422" lon="7.25673">
        <ele>892.6</ele>
        <time>2024-07-09T12:35:49Z</time>
      </trkpt>
      <trkpt lat="44.06423" lon="7.25673">
        <ele>892.6</ele>
        <time>2024-07-09T12:35:50Z</time>
      </trkpt>
      <trkpt lat="44.06423" lon="7.25673">
        <ele>892.6</ele>
        <time>2024-07-09T12:35:51Z</time>
      </trkpt>
      <trkpt lat="44.06424" lon="7.25669">
        <ele>893.6</ele>
        <time>2024-07-09T12:35:58Z</time>
      </trkpt>
      <trkpt lat="44.06425" lon="7.25668">
        <ele>893.6</ele>
        <time>2024-07-09T12:35:59Z</time>
      </trkpt>
      <trkpt lat="44.06426" lon="7.25668">
        <ele>893.6</ele>
        <time>2024-07-09T12:36:00Z</time>
      </trkpt>
      <trkpt lat="44.06426" lon="7.25667">
        <ele>893.6</ele>
        <time>2024-07-09T12:36:01Z</time>
      </trkpt>
      <trkpt lat="44.06427" lon="7.25666">
        <ele>893.8</ele>
        <time>2024-07-09T12:36:02Z</time>
      </trkpt>
      <trkpt lat="44.06428" lon="7.25665">
        <ele>894</ele>
        <time>2024-07-09T12:36:03Z</time>
      </trkpt>
      <trkpt lat="44.06429" lon="7.25665">
        <ele>894</ele>
        <time>2024-07-09T12:36:04Z</time>
      </trkpt>
      <trkpt lat="44.0643" lon="7.25664">
        <ele>894</ele>
        <time>2024-07-09T12:36:05Z</time>
      </trkpt>
      <trkpt lat="44.06431" lon="7.25664">
        <ele>894</ele>
        <time>2024-07-09T12:36:06Z</time>
      </trkpt>
      <trkpt lat="44.06431" lon="7.25664">
        <ele>894</ele>
        <time>2024-07-09T12:36:07Z</time>
      </trkpt>
      <trkpt lat="44.06431" lon="7.25664">
        <ele>894.4</ele>
        <time>2024-07-09T12:36:08Z</time>
      </trkpt>
      <trkpt lat="44.06431" lon="7.25664">
        <ele>894.4</ele>
        <time>2024-07-09T12:36:09Z</time>
      </trkpt>
      <trkpt lat="44.06435" lon="7.25666">
        <ele>894.2</ele>
        <time>2024-07-09T12:36:42Z</time>
      </trkpt>
      <trkpt lat="44.06436" lon="7.25666">
        <ele>894.2</ele>
        <time>2024-07-09T12:36:43Z</time>
      </trkpt>
      <trkpt lat="44.06437" lon="7.25666">
        <ele>894.2</ele>
        <time>2024-07-09T12:36:44Z</time>
      </trkpt>
      <trkpt lat="44.06437" lon="7.25666">
        <ele>894</ele>
        <time>2024-07-09T12:36:45Z</time>
      </trkpt>
      <trkpt lat="44.06437" lon="7.25666">
        <ele>894.2</ele>
        <time>2024-07-09T12:36:46Z</time>
      </trkpt>
      <trkpt lat="44.06438" lon="7.25666">
        <ele>894.2</ele>
        <time>2024-07-09T12:36:47Z</time>
      </trkpt>
      <trkpt lat="44.06439" lon="7.25666">
        <ele>894.2</ele>
        <time>2024-07-09T12:36:48Z</time>
      </trkpt>
      <trkpt lat="44.0644" lon="7.25666">
        <ele>894.2</ele>
        <time>2024-07-09T12:36:49Z</time>
      </trkpt>
      <trkpt lat="44.06441" lon="7.25665">
        <ele>894</ele>
        <time>2024-07-09T12:36:50Z</time>
      </trkpt>
      <trkpt lat="44.06442" lon="7.25664">
        <ele>894</ele>
        <time>2024-07-09T12:36:51Z</time>
      </trkpt>
      <trkpt lat="44.06442" lon="7.25663">
        <ele>894</ele>
        <time>2024-07-09T12:36:52Z</time>
      </trkpt>
      <trkpt lat="44.06443" lon="7.25662">
        <ele>894</ele>
        <time>2024-07-09T12:36:53Z</time>
      </trkpt>
      <trkpt lat="44.06443" lon="7.25661">
        <ele>894</ele>
        <time>2024-07-09T12:36:54Z</time>
      </trkpt>
      <trkpt lat="44.06444" lon="7.2566">
        <ele>894</ele>
        <time>2024-07-09T12:36:55Z</time>
      </trkpt>
      <trkpt lat="44.06445" lon="7.2566">
        <ele>894</ele>
        <time>2024-07-09T12:36:56Z</time>
      </trkpt>
      <trkpt lat="44.06445" lon="7.2566">
        <ele>894</ele>
        <time>2024-07-09T12:36:57Z</time>
      </trkpt>
      <trkpt lat="44.06446" lon="7.2566">
        <ele>893.8</ele>
        <time>2024-07-09T12:36:58Z</time>
      </trkpt>
      <trkpt lat="44.06447" lon="7.25659">
        <ele>894.2</ele>
        <time>2024-07-09T12:36:59Z</time>
      </trkpt>
      <trkpt lat="44.06447" lon="7.25659">
        <ele>894.2</ele>
        <time>2024-07-09T12:37:00Z</time>
      </trkpt>
      <trkpt lat="44.06448" lon="7.25658">
        <ele>894.2</ele>
        <time>2024-07-09T12:37:01Z</time>
      </trkpt>
      <trkpt lat="44.06448" lon="7.25658">
        <ele>893.8</ele>
        <time>2024-07-09T12:37:02Z</time>
      </trkpt>
      <trkpt lat="44.06448" lon="7.25659">
        <ele>893.8</ele>
        <time>2024-07-09T12:37:03Z</time>
      </trkpt>
      <trkpt lat="44.06447" lon="7.2566">
        <ele>893.8</ele>
        <time>2024-07-09T12:37:04Z</time>
      </trkpt>
      <trkpt lat="44.06447" lon="7.25659">
        <ele>893.8</ele>
        <time>2024-07-09T12:37:05Z</time>
      </trkpt>
      <trkpt lat="44.06446" lon="7.2566">
        <ele>893.8</ele>
        <time>2024-07-09T12:37:06Z</time>
      </trkpt>
      <trkpt lat="44.06446" lon="7.25661">
        <ele>893.8</ele>
        <time>2024-07-09T12:37:07Z</time>
      </trkpt>
      <trkpt lat="44.06444" lon="7.25661">
        <ele>893.8</ele>
        <time>2024-07-09T12:37:08Z</time>
      </trkpt>
      <trkpt lat="44.06443" lon="7.25662">
        <ele>893.8</ele>
        <time>2024-07-09T12:37:09Z</time>
      </trkpt>
      <trkpt lat="44.06442" lon="7.25663">
        <ele>893.8</ele>
        <time>2024-07-09T12:37:10Z</time>
      </trkpt>
      <trkpt lat="44.06441" lon="7.25664">
        <ele>893.2</ele>
        <time>2024-07-09T12:37:11Z</time>
      </trkpt>
      <trkpt lat="44.06441" lon="7.25665">
        <ele>893.2</ele>
        <time>2024-07-09T12:37:12Z</time>
      </trkpt>
      <trkpt lat="44.0644" lon="7.25666">
        <ele>893.2</ele>
        <time>2024-07-09T12:37:13Z</time>
      </trkpt>
      <trkpt lat="44.06439" lon="7.25667">
        <ele>893.2</ele>
        <time>2024-07-09T12:37:14Z</time>
      </trkpt>
      <trkpt lat="44.06438" lon="7.25667">
        <ele>893.2</ele>
        <time>2024-07-09T12:37:15Z</time>
      </trkpt>
      <trkpt lat="44.06437" lon="7.25666">
        <ele>893.2</ele>
        <time>2024-07-09T12:37:16Z</time>
      </trkpt>
      <trkpt lat="44.06435" lon="7.25666">
        <ele>893.2</ele>
        <time>2024-07-09T12:37:17Z</time>
      </trkpt>
      <trkpt lat="44.06434" lon="7.25666">
        <ele>892.4</ele>
        <time>2024-07-09T12:37:18Z</time>
      </trkpt>
      <trkpt lat="44.06433" lon="7.25666">
        <ele>892.4</ele>
        <time>2024-07-09T12:37:19Z</time>
      </trkpt>
      <trkpt lat="44.06431" lon="7.25666">
        <ele>892.4</ele>
        <time>2024-07-09T12:37:20Z</time>
      </trkpt>
      <trkpt lat="44.0643" lon="7.25667">
        <ele>892</ele>
        <time>2024-07-09T12:37:21Z</time>
      </trkpt>
      <trkpt lat="44.06428" lon="7.25667">
        <ele>892</ele>
        <time>2024-07-09T12:37:22Z</time>
      </trkpt>
      <trkpt lat="44.06427" lon="7.25667">
        <ele>892</ele>
        <time>2024-07-09T12:37:23Z</time>
      </trkpt>
      <trkpt lat="44.06426" lon="7.25667">
        <ele>892</ele>
        <time>2024-07-09T12:37:24Z</time>
      </trkpt>
      <trkpt lat="44.06425" lon="7.25668">
        <ele>892</ele>
        <time>2024-07-09T12:37:25Z</time>
      </trkpt>
      <trkpt lat="44.06424" lon="7.25668">
        <ele>891.6</ele>
        <time>2024-07-09T12:37:26Z</time>
      </trkpt>
      <trkpt lat="44.06423" lon="7.25669">
        <ele>891.6</ele>
        <time>2024-07-09T12:37:27Z</time>
      </trkpt>
      <trkpt lat="44.06422" lon="7.2567">
        <ele>891.6</ele>
        <time>2024-07-09T12:37:28Z</time>
      </trkpt>
      <trkpt lat="44.06421" lon="7.25671">
        <ele>891.6</ele>
        <time>2024-07-09T12:37:29Z</time>
      </trkpt>
      <trkpt lat="44.0642" lon="7.25672">
        <ele>891.6</ele>
        <time>2024-07-09T12:37:30Z</time>
      </trkpt>
      <trkpt lat="44.06419" lon="7.25673">
        <ele>891.2</ele>
        <time>2024-07-09T12:37:31Z</time>
      </trkpt>
      <trkpt lat="44.06418" lon="7.25674">
        <ele>891.2</ele>
        <time>2024-07-09T12:37:32Z</time>
      </trkpt>
      <trkpt lat="44.06417" lon="7.25675">
        <ele>891.2</ele>
        <time>2024-07-09T12:37:33Z</time>
      </trkpt>
      <trkpt lat="44.06417" lon="7.25676">
        <ele>890.8</ele>
        <time>2024-07-09T12:37:34Z</time>
      </trkpt>
      <trkpt lat="44.06417" lon="7.25677">
        <ele>890.8</ele>
        <time>2024-07-09T12:37:35Z</time>
      </trkpt>
      <trkpt lat="44.06416" lon="7.25679">
        <ele>890.8</ele>
        <time>2024-07-09T12:37:36Z</time>
      </trkpt>
      <trkpt lat="44.06416" lon="7.2568">
        <ele>890.8</ele>
        <time>2024-07-09T12:37:37Z</time>
      </trkpt>
      <trkpt lat="44.06416" lon="7.25682">
        <ele>890.8</ele>
        <time>2024-07-09T12:37:38Z</time>
      </trkpt>
      <trkpt lat="44.06415" lon="7.25683">
        <ele>891</ele>
        <time>2024-07-09T12:37:39Z</time>
      </trkpt>
      <trkpt lat="44.06416" lon="7.25685">
        <ele>891</ele>
        <time>2024-07-09T12:37:40Z</time>
      </trkpt>
      <trkpt lat="44.06416" lon="7.25686">
        <ele>891</ele>
        <time>2024-07-09T12:37:41Z</time>
      </trkpt>
      <trkpt lat="44.06416" lon="7.25687">
        <ele>891.4</ele>
        <time>2024-07-09T12:37:42Z</time>
      </trkpt>
      <trkpt lat="44.06416" lon="7.25688">
        <ele>891.4</ele>
        <time>2024-07-09T12:37:43Z</time>
      </trkpt>
      <trkpt lat="44.06416" lon="7.25689">
        <ele>891.4</ele>
        <time>2024-07-09T12:37:44Z</time>
      </trkpt>
      <trkpt lat="44.06416" lon="7.25689">
        <ele>891.4</ele>
        <time>2024-07-09T12:37:45Z</time>
      </trkpt>
    </trkseg>
  </trk>
</gpx>